
Distance (Route):
Temperature : 23.0°C
Humidity : 0%
Pressure : 0hPa| Receiver | Frames | First received | Last received |
|---|---|---|---|
| DK7TD | 455 | 2026-08-31 10:47:44 | 2026-08-31 12:55:05 |
| DL1NUX | 384 | 2026-08-31 11:25:48 | 2026-08-31 13:04:16 |
| HSKMA3-T | 370 | 2026-08-31 11:26:22 | 2026-08-31 12:41:16 |
| DM0DOS-11 | 309 | 2026-08-31 11:36:03 | 2026-08-31 12:53:56 |
| BIOWL1-15 | 305 | 2026-08-31 11:34:38 | 2026-08-31 12:54:41 |
| DO3MHA-11 | 286 | 2026-08-31 11:05:09 | 2026-08-31 13:09:26 |
| DO3MHA-12 | 232 | 2026-08-31 11:05:05 | 2026-08-31 13:09:20 |
| DL1XH-west | 191 | 2026-08-31 11:45:41 | 2026-08-31 12:26:40 |
| DF8AY | 166 | 2026-08-31 11:47:08 | 2026-08-31 12:29:22 |
| DL1XH1-15 | 136 | 2026-08-31 11:49:05 | 2026-08-31 12:26:37 |
| NBG1-10 | 129 | 2026-08-31 11:18:08 | 2026-08-31 13:13:06 |
| DB0NH | 101 | 2026-08-31 11:17:50 | 2026-08-31 13:12:52 |
| DO9HM | 74 | 2026-08-31 11:26:18 | 2026-08-31 13:08:42 |
| DL0LBS | 72 | 2026-08-31 11:32:40 | 2026-08-31 13:11:09 |
| DF7PN | 64 | 2026-08-31 10:54:45 | 2026-08-31 13:04:13 |
| DL9SK-14 | 63 | 2026-08-31 10:46:16 | 2026-08-31 13:06:01 |
| DB0ND-19 | 49 | 2026-08-31 10:46:50 | 2026-08-31 13:05:00 |
| DF3TZ-5 | 47 | 2026-08-31 10:47:00 | 2026-08-31 12:56:22 |
| OE5DXL-15 | 41 | 2026-08-31 11:21:52 | 2026-08-31 12:45:39 |
| DK5PH-5 | 40 | 2026-08-31 10:47:23 | 2026-08-31 13:06:03 |
| DB0UT-7 | 37 | 2026-08-31 11:13:04 | 2026-08-31 13:02:26 |
| DL6DJ-15 | 36 | 2026-08-31 11:10:50 | 2026-08-31 12:44:02 |
| SONCRA | 36 | 2026-08-31 11:25:03 | 2026-08-31 12:49:57 |
| SO1NDE-10 | 35 | 2026-08-31 11:28:11 | 2026-08-31 13:01:51 |
| DG9SBQ-11 | 33 | 2026-08-31 11:05:04 | 2026-08-31 12:19:43 |
| AZAK | 32 | 2026-08-31 10:45:29 | 2026-08-31 12:30:30 |
| DL1ZP-14 | 32 | 2026-08-31 11:04:48 | 2026-08-31 12:41:14 |
| OE5DRO-10 | 28 | 2026-08-31 11:27:14 | 2026-08-31 12:28:42 |
| IW2NTF | 27 | 2026-08-31 11:49:42 | 2026-08-31 12:21:58 |
| DG1MJG | 24 | 2026-08-31 11:17:43 | 2026-08-31 12:46:38 |
| DJ8HS-15 | 22 | 2026-08-31 11:33:16 | 2026-08-31 12:54:57 |
| DF2AP-13 | 18 | 2026-08-31 11:18:27 | 2026-08-31 12:52:16 |
| SONDE2-11 | 17 | 2026-08-31 11:32:30 | 2026-08-31 12:27:22 |
| OE5WHR-10 | 17 | 2026-08-31 11:38:11 | 2026-08-31 12:28:09 |
| DN1GJH-1 | 16 | 2026-08-31 11:17:33 | 2026-08-31 12:07:44 |
| BIOWL9-15 | 15 | 2026-08-31 11:38:20 | 2026-08-31 12:53:23 |
| PG1ADW-2 | 14 | 2026-08-31 11:45:17 | 2026-08-31 12:28:06 |
| DJTTGO | 12 | 2026-08-31 11:25:04 | 2026-08-31 12:59:13 |
| DC4HF-4 | 12 | 2026-08-31 11:33:36 | 2026-08-31 12:20:27 |
| DF8AY-15 | 12 | 2026-08-31 12:02:51 | 2026-08-31 12:21:37 |
| DJ2DS-15 | 12 | 2026-08-31 12:05:23 | 2026-08-31 12:22:59 |
| DF1GD-15 | 11 | 2026-08-31 12:35:58 | 2026-08-31 12:44:10 |
| DH7VM-15 | 8 | 2026-08-31 11:21:03 | 2026-08-31 12:56:25 |
| KANTATE | 6 | 2026-08-31 10:47:20 | 2026-08-31 11:58:39 |
| EDDB2-11 | 6 | 2026-08-31 11:58:40 | 2026-08-31 12:24:02 |
| S52SK | 6 | 2026-08-31 12:04:01 | 2026-08-31 12:15:07 |
| OM5KV | 6 | 2026-08-31 12:08:06 | 2026-08-31 12:12:17 |
| DF9NV-10 | 5 | 2026-08-31 12:24:33 | 2026-08-31 13:11:00 |
| PETON7-10 | 4 | 2026-08-31 12:10:16 | 2026-08-31 12:19:12 |
| OE9MKV-15 | 3 | 2026-08-31 11:47:38 | 2026-08-31 12:05:22 |
| DO9LL-15 | 2 | 2026-08-31 12:11:30 | 2026-08-31 12:17:16 |
| HEMX73-6 | 2 | 2026-08-31 12:11:34 | 2026-08-31 12:12:34 |
| AM1SDL-15 | 2 | 2026-08-31 12:41:31 | 2026-08-31 12:41:43 |
| OE3JTB-15 | 1 | 2026-08-31 11:24:18 | 2026-08-31 11:24:18 |
| DL8DAS-15 | 1 | 2026-08-31 12:22:04 | 2026-08-31 12:22:04 |
| Receiver | Date | Latitude | Longitude | Direction | Speed | Altitude | Climb | Temperature | Humidity | Pressure | Voltage | Killtimer | Uptime | BKT | XDATA |
|---|---|---|---|---|---|---|---|---|---|---|---|---|---|---|---|
| NBG1-10 | 2026-08-31 13:13:06 | 49.49184 | 11.07105 | 74° | 35km/h | 366m | -2.2m/s | 23.0°C | 0% | 0hPa | 2.7V | 07:34:00 | 02:43:27 | 00:00:00 | |
| NBG1-10 | 2026-08-31 13:12:58 | 49.49173 | 11.07045 | 84° | 44km/h | 385m | -5.8m/s | 22.5°C | 41.5% | 975.8hPa | 2.7V | 00:00:00 | 02:43:19 | 00:00:00 | |
| NBG1-10 | 2026-08-31 13:12:56 | 49.49169 | 11.07010 | 78° | 47km/h | 397m | -5.8m/s | 22.3°C | 41.1% | 974.5hPa | 2.7V | 00:00:00 | 02:43:17 | 00:00:00 | |
| NBG1-10 | 2026-08-31 13:12:54 | 49.49164 | 11.06975 | 77° | 47km/h | 408m | -5.3m/s | 22.3°C | 41.9% | 973.2hPa | 2.7V | 00:00:00 | 02:43:15 | 00:00:00 | |
| DB0NH | 2026-08-31 13:12:52 | 49.49157 | 11.06938 | 74° | 49km/h | 419m | -5.3m/s | 22.2°C | 42.6% | 971.8hPa | 2.7V | 00:00:00 | 02:43:13 | 00:00:00 | |
| NBG1-10 | 2026-08-31 13:12:52 | 49.49157 | 11.06938 | 74° | 49km/h | 419m | -5.3m/s | 22.2°C | 42.6% | 971.8hPa | 2.7V | 00:00:00 | 02:43:13 | 00:00:00 | |
| NBG1-10 | 2026-08-31 13:12:50 | 49.49149 | 11.06902 | 73° | 49km/h | 431m | -5.9m/s | 22.1°C | 42.9% | 970.5hPa | 2.7V | 00:00:00 | 02:43:11 | 00:00:00 | |
| NBG1-10 | 2026-08-31 13:12:48 | 49.49142 | 11.06866 | 72° | 49km/h | 443m | -5.6m/s | 22.0°C | 43.5% | 969.3hPa | 2.7V | 00:00:00 | 02:43:09 | 00:00:00 | |
| DB0NH | 2026-08-31 13:12:47 | 49.49138 | 11.06847 | 72° | 49km/h | 448m | -5.6m/s | 21.9°C | 43.4% | 968.5hPa | 2.7V | 00:00:00 | 02:43:08 | 00:00:00 | |
| NBG1-10 | 2026-08-31 13:12:46 | 49.49134 | 11.06830 | 70° | 49km/h | 454m | -5.7m/s | 21.8°C | 42.5% | 967.9hPa | 2.7V | 00:00:00 | 02:43:07 | 00:00:00 | |
| NBG1-10 | 2026-08-31 13:12:44 | 49.49125 | 11.06794 | 70° | 49km/h | 465m | -5.0m/s | 21.7°C | 44.1% | 966.8hPa | 2.7V | 07:35:00 | 02:43:05 | 00:00:00 | |
| DB0NH | 2026-08-31 13:12:42 | 49.49116 | 11.06758 | 68° | 49km/h | 475m | -5.4m/s | 21.5°C | 42.1% | 965.6hPa | 2.7V | 00:00:00 | 02:43:03 | 00:00:00 | |
| NBG1-10 | 2026-08-31 13:12:42 | 49.49116 | 11.06758 | 68° | 49km/h | 475m | -5.4m/s | 21.5°C | 42.1% | 965.6hPa | 2.7V | 00:00:00 | 02:43:03 | 00:00:00 | |
| NBG1-10 | 2026-08-31 13:12:40 | 49.49106 | 11.06723 | 67° | 49km/h | 486m | -5.5m/s | 21.4°C | 42.2% | 964.4hPa | 2.7V | 00:00:00 | 02:43:01 | 00:00:00 | |
| NBG1-10 | 2026-08-31 13:12:38 | 49.49095 | 11.06688 | 66° | 49km/h | 497m | -5.4m/s | 21.3°C | 42.4% | 963.2hPa | 2.7V | 00:00:00 | 02:42:59 | 00:00:00 | |
| DB0NH | 2026-08-31 13:12:37 | 49.49090 | 11.06670 | 66° | 49km/h | 502m | -5.0m/s | 21.3°C | 42.4% | 962.6hPa | 2.7V | 00:00:00 | 02:42:58 | 00:00:00 | |
| NBG1-10 | 2026-08-31 13:12:36 | 49.49085 | 11.06652 | 67° | 49km/h | 507m | -5.1m/s | 21.3°C | 42.5% | 962.1hPa | 2.7V | 00:00:00 | 02:42:57 | 00:00:00 | |
| NBG1-10 | 2026-08-31 13:12:34 | 49.49075 | 11.06617 | 67° | 47km/h | 517m | -4.7m/s | 21.2°C | 43.0% | 961.0hPa | 2.7V | 00:00:00 | 02:42:55 | 00:00:00 | |
| DB0NH | 2026-08-31 13:12:32 | 49.49066 | 11.06583 | 70° | 46km/h | 526m | -4.7m/s | 21.0°C | 44.5% | 960.0hPa | 2.7V | 00:00:00 | 02:42:53 | 00:00:00 | |
| NBG1-10 | 2026-08-31 13:12:32 | 49.49066 | 11.06583 | 70° | 47km/h | 526m | -4.7m/s | 21.0°C | 44.5% | 960.0hPa | 2.7V | 00:00:00 | 02:42:53 | 00:00:00 | |
| NBG1-10 | 2026-08-31 13:12:30 | 49.49057 | 11.06549 | 69° | 46km/h | 536m | -4.7m/s | 21.0°C | 43.7% | 959.0hPa | 2.7V | 00:00:00 | 02:42:51 | 00:00:00 | |
| NBG1-10 | 2026-08-31 13:12:28 | 49.49049 | 11.06516 | 71° | 46km/h | 544m | -4.3m/s | 20.9°C | 43.7% | 958.0hPa | 2.7V | 07:35:00 | 02:42:49 | 00:00:00 | |
| DB0NH | 2026-08-31 13:12:27 | 49.49045 | 11.06499 | 71° | 46km/h | 549m | -4.4m/s | 20.9°C | 43.5% | 957.6hPa | 2.7V | 00:00:00 | 02:42:48 | 00:00:00 | |
| NBG1-10 | 2026-08-31 13:12:26 | 49.49041 | 11.06482 | 70° | 46km/h | 553m | -4.4m/s | 20.9°C | 43.7% | 957.1hPa | 2.7V | 00:00:00 | 02:42:47 | 00:00:00 | |
| NBG1-10 | 2026-08-31 13:12:24 | 49.49033 | 11.06448 | 70° | 46km/h | 562m | -4.6m/s | 20.8°C | 45.5% | 956.1hPa | 2.7V | 00:00:00 | 02:42:45 | 00:00:00 | |
| DB0NH | 2026-08-31 13:12:22 | 49.49025 | 11.06415 | 71° | 46km/h | 572m | -4.6m/s | 20.7°C | 44.9% | 955.1hPa | 2.6V | 07:35:00 | 02:42:43 | 00:00:00 | |
| NBG1-10 | 2026-08-31 13:12:22 | 49.49025 | 11.06415 | 71° | 46km/h | 572m | -4.6m/s | 20.7°C | 44.9% | 955.1hPa | 2.6V | 00:00:00 | 02:42:43 | 00:00:00 | |
| NBG1-10 | 2026-08-31 13:12:20 | 49.49018 | 11.06382 | 71° | 46km/h | 581m | -4.6m/s | 20.6°C | 44.5% | 954.2hPa | 2.6V | 00:00:00 | 02:42:41 | 00:00:00 | |
| NBG1-10 | 2026-08-31 13:12:18 | 49.49010 | 11.06349 | 70° | 44km/h | 590m | -4.8m/s | 20.5°C | 45.6% | 953.1hPa | 2.6V | 00:00:00 | 02:42:39 | 00:00:00 | |
| DB0NH | 2026-08-31 13:12:17 | 49.49006 | 11.06333 | 70° | 44km/h | 595m | -4.8m/s | 20.4°C | 45.6% | 952.5hPa | 2.7V | 00:00:00 | 02:42:38 | 00:00:00 | |
| NBG1-10 | 2026-08-31 13:12:16 | 49.49002 | 11.06317 | 70° | 44km/h | 600m | -4.4m/s | 20.4°C | 45.3% | 951.9hPa | 2.7V | 00:00:00 | 02:42:37 | 00:00:00 | |
| NBG1-10 | 2026-08-31 13:12:14 | 49.48994 | 11.06285 | 70° | 42km/h | 609m | -4.7m/s | 20.3°C | 46.4% | 951.0hPa | 2.7V | 00:00:00 | 02:42:35 | 00:00:00 | |
| NBG1-10 | 2026-08-31 13:12:12 | 49.48987 | 11.06253 | 71° | 44km/h | 619m | -5.0m/s | 20.2°C | 46.8% | 949.9hPa | 2.7V | 07:35:00 | 02:42:33 | 00:00:00 | |
| DB0NH | 2026-08-31 13:12:12 | 49.48987 | 11.06253 | 71° | 44km/h | 619m | -5.0m/s | 20.2°C | 46.8% | 949.9hPa | 2.7V | 00:00:00 | 02:42:33 | 00:00:00 | |
| NBG1-10 | 2026-08-31 13:12:10 | 49.48979 | 11.06222 | 71° | 44km/h | 629m | -5.2m/s | 20.1°C | 46.6% | 948.7hPa | 2.7V | 00:00:00 | 02:42:31 | 00:00:00 | |
| NBG1-10 | 2026-08-31 13:12:08 | 49.48972 | 11.06190 | 71° | 44km/h | 640m | -5.1m/s | 20.0°C | 46.3% | 947.4hPa | 2.7V | 00:00:00 | 02:42:29 | 00:00:00 | |
| DB0NH | 2026-08-31 13:12:07 | 49.48968 | 11.06174 | 70° | 46km/h | 645m | -5.0m/s | 19.9°C | 46.5% | 946.8hPa | 2.7V | 00:00:00 | 02:42:28 | 00:00:00 | |
| NBG1-10 | 2026-08-31 13:12:06 | 49.48964 | 11.06158 | 70° | 46km/h | 650m | -4.9m/s | 19.9°C | 46.2% | 946.5hPa | 2.7V | 00:00:00 | 02:42:27 | 00:00:00 | |
| NBG1-10 | 2026-08-31 13:12:04 | 49.48956 | 11.06125 | 69° | 46km/h | 660m | -4.7m/s | 19.8°C | 46.6% | 945.3hPa | 2.7V | 00:00:00 | 02:42:25 | 00:00:00 | |
| DB0NH | 2026-08-31 13:12:02 | 49.48947 | 11.06092 | 68° | 46km/h | 670m | -4.9m/s | 19.7°C | 47.1% | 944.2hPa | 2.7V | 00:00:00 | 02:42:23 | 00:00:00 | |
| NBG1-10 | 2026-08-31 13:12:02 | 49.48947 | 11.06092 | 68° | 46km/h | 670m | -4.9m/s | 19.7°C | 47.1% | 944.2hPa | 2.7V | 00:00:00 | 02:42:23 | 00:00:00 | |
| NBG1-10 | 2026-08-31 13:12:00 | 49.48938 | 11.06058 | 69° | 46km/h | 680m | -4.8m/s | 19.6°C | 48.0% | 943.2hPa | 2.7V | 00:00:00 | 02:42:21 | 00:00:00 | |
| NBG1-10 | 2026-08-31 13:11:58 | 49.48930 | 11.06026 | 69° | 44km/h | 689m | -4.9m/s | 19.5°C | 48.2% | 942.2hPa | 2.7V | 00:00:00 | 02:42:19 | 00:00:00 | |
| DB0NH | 2026-08-31 13:11:57 | 49.48926 | 11.06010 | 70° | 42km/h | 695m | -4.9m/s | 19.4°C | 48.2% | 941.6hPa | 2.7V | 00:00:00 | 02:42:18 | 00:00:00 | |
| NBG1-10 | 2026-08-31 13:11:56 | 49.48923 | 11.05995 | 72° | 42km/h | 700m | -5.3m/s | 19.4°C | 48.5% | 940.9hPa | 2.7V | 07:36:00 | 02:42:17 | 00:00:00 | |
| NBG1-10 | 2026-08-31 13:11:54 | 49.48915 | 11.05964 | 70° | 42km/h | 711m | -5.6m/s | 19.3°C | 48.7% | 939.8hPa | 2.7V | 00:00:00 | 02:42:15 | 00:00:00 | |
| DB0NH | 2026-08-31 13:11:52 | 49.48908 | 11.05934 | 70° | 42km/h | 722m | -5.3m/s | 19.2°C | 48.8% | 938.7hPa | 2.7V | 00:00:00 | 02:42:13 | 00:00:00 | |
| NBG1-10 | 2026-08-31 13:11:52 | 49.48908 | 11.05934 | 70° | 40km/h | 722m | -5.3m/s | 19.2°C | 48.8% | 938.7hPa | 2.7V | 00:00:00 | 02:42:13 | 00:00:00 | |
| NBG1-10 | 2026-08-31 13:11:50 | 49.48901 | 11.05904 | 70° | 42km/h | 732m | -5.0m/s | 19.1°C | 48.6% | 937.5hPa | 2.7V | 00:00:00 | 02:42:11 | 00:00:00 | |
| NBG1-10 | 2026-08-31 13:11:48 | 49.48893 | 11.05874 | 68° | 42km/h | 743m | -5.6m/s | 19.0°C | 49.3% | 936.4hPa | 2.7V | 00:00:00 | 02:42:09 | 00:00:00 | |
| DB0NH | 2026-08-31 13:11:47 | 49.48889 | 11.05859 | 66° | 40km/h | 749m | -6.1m/s | 18.9°C | 49.6% | 935.8hPa | 2.7V | 00:00:00 | 02:42:08 | 00:00:00 | |
| NBG1-10 | 2026-08-31 13:11:46 | 49.48884 | 11.05845 | 66° | 40km/h | 755m | -6.0m/s | 18.8°C | 49.5% | 935.0hPa | 2.7V | 00:00:00 | 02:42:07 | 00:00:00 | |
| NBG1-10 | 2026-08-31 13:11:44 | 49.48876 | 11.05816 | 68° | 42km/h | 767m | -5.7m/s | 18.7°C | 50.2% | 933.7hPa | 2.7V | 00:00:00 | 02:42:05 | 00:00:00 | |
| NBG1-10 | 2026-08-31 13:11:42 | 49.48868 | 11.05786 | 68° | 42km/h | 778m | -5.6m/s | 18.6°C | 50.1% | 932.5hPa | 2.7V | 00:00:00 | 02:42:03 | 00:00:00 | |
| DB0NH | 2026-08-31 13:11:42 | 49.48868 | 11.05786 | 68° | 42km/h | 778m | -5.6m/s | 18.6°C | 50.1% | 932.5hPa | 2.7V | 07:36:00 | 02:42:03 | 00:00:00 | |
| NBG1-10 | 2026-08-31 13:11:40 | 49.48860 | 11.05755 | 70° | 42km/h | 789m | -5.8m/s | 18.5°C | 50.8% | 931.5hPa | 2.7V | 07:36:00 | 02:42:01 | 00:00:00 | |
| NBG1-10 | 2026-08-31 13:11:38 | 49.48853 | 11.05724 | 71° | 42km/h | 801m | -5.6m/s | 18.4°C | 50.9% | 930.1hPa | 2.7V | 00:00:00 | 02:41:59 | 00:00:00 | |
| DB0NH | 2026-08-31 13:11:37 | 49.48850 | 11.05709 | 72° | 42km/h | 806m | -5.2m/s | 18.4°C | 51.1% | 929.4hPa | 2.7V | 00:00:00 | 02:41:58 | 00:00:00 | |
| NBG1-10 | 2026-08-31 13:11:36 | 49.48846 | 11.05693 | 72° | 42km/h | 811m | -5.2m/s | 18.3°C | 51.2% | 929.0hPa | 2.7V | 00:00:00 | 02:41:57 | 00:00:00 | |
| NBG1-10 | 2026-08-31 13:11:34 | 49.48840 | 11.05662 | 72° | 42km/h | 822m | -5.8m/s | 18.3°C | 51.5% | 927.7hPa | 2.7V | 00:00:00 | 02:41:55 | 00:00:00 | |
| NBG1-10 | 2026-08-31 13:11:32 | 49.48832 | 11.05631 | 70° | 42km/h | 833m | -4.9m/s | 18.2°C | 51.6% | 926.5hPa | 2.7V | 00:00:00 | 02:41:53 | 00:00:00 | |
| DB0NH | 2026-08-31 13:11:32 | 49.48832 | 11.05631 | 70° | 40km/h | 833m | -4.9m/s | 18.2°C | 51.6% | 926.5hPa | 2.7V | 00:00:00 | 02:41:53 | 00:00:00 | |
| NBG1-10 | 2026-08-31 13:11:30 | 49.48824 | 11.05602 | 65° | 40km/h | 843m | -5.0m/s | 18.1°C | 51.6% | 925.4hPa | 2.7V | 00:00:00 | 02:41:51 | 00:00:00 | |
| NBG1-10 | 2026-08-31 13:11:28 | 49.48816 | 11.05573 | 65° | 40km/h | 854m | -5.5m/s | 18.0°C | 51.9% | 924.2hPa | 2.7V | 00:00:00 | 02:41:49 | 00:00:00 | |
| DB0NH | 2026-08-31 13:11:27 | 49.48811 | 11.05559 | 66° | 40km/h | 859m | -5.6m/s | 18.0°C | 52.0% | 923.7hPa | 2.7V | 00:00:00 | 02:41:48 | 00:00:00 | |
| NBG1-10 | 2026-08-31 13:11:26 | 49.48807 | 11.05545 | 66° | 40km/h | 865m | -5.6m/s | 17.9°C | 52.2% | 923.2hPa | 2.7V | 00:00:00 | 02:41:47 | 00:00:00 | |
| NBG1-10 | 2026-08-31 13:11:24 | 49.48799 | 11.05516 | 68° | 40km/h | 877m | -5.7m/s | 17.8°C | 52.6% | 921.9hPa | 2.7V | 07:36:00 | 02:41:45 | 00:00:00 | |
| NBG1-10 | 2026-08-31 13:11:22 | 49.48791 | 11.05487 | 69° | 42km/h | 888m | -5.5m/s | 17.6°C | 53.3% | 920.7hPa | 2.7V | 00:00:00 | 02:41:43 | 00:00:00 | |
| DB0NH | 2026-08-31 13:11:22 | 49.48791 | 11.05487 | 69° | 42km/h | 888m | -5.5m/s | 17.6°C | 53.3% | 920.7hPa | 2.7V | 00:00:00 | 02:41:43 | 00:00:00 | |
| NBG1-10 | 2026-08-31 13:11:20 | 49.48783 | 11.05457 | 70° | 44km/h | 899m | -5.7m/s | 17.5°C | 53.5% | 919.5hPa | 2.7V | 00:00:00 | 02:41:41 | 00:00:00 | |
| DB0NH | 2026-08-31 13:11:17 | 49.48771 | 11.05410 | 69° | 44km/h | 917m | -5.9m/s | 17.4°C | 53.5% | 917.5hPa | 2.7V | 00:00:00 | 02:41:38 | 00:00:00 | |
| NBG1-10 | 2026-08-31 13:11:16 | 49.48767 | 11.05394 | 67° | 44km/h | 922m | -5.3m/s | 17.3°C | 53.6% | 916.8hPa | 2.7V | 00:00:00 | 02:41:37 | 00:00:00 | |
| DB0NH | 2026-08-31 13:11:12 | 49.48749 | 11.05331 | 67° | 44km/h | 944m | -5.4m/s | 17.1°C | 54.7% | 914.5hPa | 2.7V | 00:00:00 | 02:41:33 | 00:00:00 | |
| DL0LBS | 2026-08-31 13:11:09 | 49.48741 | 11.05300 | 68° | 44km/h | 955m | -5.5m/s | 17.1°C | 55.7% | 913.5hPa | 2.7V | 00:00:00 | 00:00:00 | 00:00:00 | |
| NBG1-10 | 2026-08-31 13:11:09 | 49.48736 | 11.05284 | 68° | 46km/h | 960m | -5.1m/s | 17.0°C | 55.8% | 912.9hPa | 2.7V | 00:00:00 | 02:41:30 | 00:00:00 | |
| DB0NH | 2026-08-31 13:11:07 | 49.48727 | 11.05251 | 67° | 46km/h | 970m | -5.1m/s | 16.9°C | 56.2% | 911.7hPa | 2.7V | 00:00:00 | 02:41:28 | 00:00:00 | |
| DB0NH | 2026-08-31 13:11:02 | 49.48704 | 11.05172 | 66° | 44km/h | 996m | -5.0m/s | 16.6°C | 56.4% | 909.0hPa | 2.7V | 07:36:00 | 02:41:23 | 00:00:00 | |
| NBG1-10 | 2026-08-31 13:11:02 | 49.48704 | 11.05172 | 66° | 44km/h | 996m | -5.0m/s | 16.6°C | 56.4% | 909.0hPa | 2.7V | 00:00:00 | 02:41:23 | 00:00:00 | |
| DF9NV-10 | 2026-08-31 13:11:00 | 49.48699 | 11.05157 | 66° | 44km/h | 1001m | -4.8m/s | 0°C | 0% | 908.5hPa | 2.7V | 07:37:00 | 00:00:00 | 00:00:00 | |
| NBG1-10 | 2026-08-31 13:10:55 | 49.48672 | 11.05062 | 65° | 46km/h | 1030m | -4.7m/s | 16.3°C | 58.1% | 905.4hPa | 2.7V | 00:00:00 | 02:41:16 | 00:00:00 | |
| DB0NH | 2026-08-31 13:10:53 | 49.48662 | 11.05030 | 65° | 44km/h | 1039m | -4.7m/s | 16.2°C | 58.2% | 904.3hPa | 2.7V | 00:00:00 | 02:41:14 | 00:00:00 | |
| NBG1-10 | 2026-08-31 13:10:48 | 49.48636 | 11.04951 | 62° | 42km/h | 1064m | -4.9m/s | 15.9°C | 59.8% | 901.8hPa | 2.7V | 00:00:00 | 02:41:09 | 00:00:00 | |
| DL0LBS | 2026-08-31 13:10:44 | 49.48621 | 11.04907 | 63° | 42km/h | 1078m | -4.9m/s | 15.9°C | 59.8% | 900.3hPa | 2.7V | 07:37:00 | 00:00:00 | 00:00:00 | |
| DB0NH | 2026-08-31 13:10:43 | 49.48611 | 11.04879 | 65° | 46km/h | 1088m | -4.7m/s | 15.7°C | 60.5% | 899.1hPa | 2.7V | 00:00:00 | 02:41:04 | 00:00:00 | |
| NBG1-10 | 2026-08-31 13:10:41 | 49.48602 | 11.04849 | 66° | 46km/h | 1096m | -4.7m/s | 15.6°C | 60.8% | 898.3hPa | 2.7V | 07:37:00 | 02:41:02 | 00:00:00 | |
| DF9NV-10 | 2026-08-31 13:10:38 | 49.48593 | 11.04817 | 66° | 46km/h | 1106m | -4.9m/s | 0°C | 0% | 0hPa | 2.7V | 07:37:00 | 00:00:00 | 00:00:00 | |
| NBG1-10 | 2026-08-31 13:10:34 | 49.48569 | 11.04736 | 66° | 46km/h | 1130m | -4.6m/s | 15.3°C | 61.1% | 894.7hPa | 2.7V | 00:00:00 | 02:40:55 | 00:00:00 | |
| DB0NH | 2026-08-31 13:10:33 | 49.48564 | 11.04719 | 66° | 46km/h | 1134m | -4.5m/s | 15.2°C | 61.7% | 894.3hPa | 2.7V | 00:00:00 | 02:40:54 | 00:00:00 | |
| NBG1-10 | 2026-08-31 13:10:27 | 49.48536 | 11.04624 | 68° | 46km/h | 1163m | -4.9m/s | 14.9°C | 61.7% | 891.0hPa | 2.7V | 00:00:00 | 02:40:48 | 00:00:00 | |
| DL0LBS | 2026-08-31 13:10:23 | 49.48523 | 11.04574 | 66° | 46km/h | 1179m | -5.8m/s | 14.8°C | 62.9% | 889.6hPa | 2.7V | 07:37:00 | 00:00:00 | 00:00:00 | |
| DB0NH | 2026-08-31 13:10:23 | 49.48518 | 11.04558 | 67° | 46km/h | 1184m | -5.5m/s | 14.7°C | 63.3% | 888.9hPa | 2.7V | 00:00:00 | 02:40:44 | 00:00:00 | |
| NBG1-10 | 2026-08-31 13:10:20 | 49.48503 | 11.04510 | 64° | 46km/h | 1201m | -5.4m/s | 14.6°C | 63.6% | 887.2hPa | 2.7V | 00:00:00 | 02:40:41 | 00:00:00 | |
| DF9NV-10 | 2026-08-31 13:10:17 | 49.48493 | 11.04478 | 65° | 46km/h | 1212m | -5.6m/s | 0°C | 0% | 0hPa | 2.7V | 07:37:00 | 00:00:00 | 00:00:00 | |
| DB0NH | 2026-08-31 13:10:13 | 49.48466 | 11.04399 | 63° | 46km/h | 1241m | -5.9m/s | 14.2°C | 64.7% | 883.1hPa | 2.7V | 00:00:00 | 02:40:34 | 00:00:00 | |
| NBG1-10 | 2026-08-31 13:10:13 | 49.48466 | 11.04399 | 63° | 46km/h | 1241m | -5.9m/s | 14.2°C | 64.7% | 883.1hPa | 2.7V | 00:00:00 | 02:40:34 | 00:00:00 | |
| NBG1-10 | 2026-08-31 13:10:06 | 49.48430 | 11.04288 | 65° | 46km/h | 1282m | -5.5m/s | 13.8°C | 65.9% | 878.7hPa | 2.7V | 00:00:00 | 02:40:27 | 00:00:00 | |
| DB0NH | 2026-08-31 13:10:03 | 49.48415 | 11.04241 | 65° | 46km/h | 1300m | -6.0m/s | 13.7°C | 66.3% | 876.8hPa | 2.7V | 00:00:00 | 02:40:24 | 00:00:00 | |
| DL0LBS | 2026-08-31 13:10:02 | 49.48415 | 11.04241 | 66° | 46km/h | 1300m | -6.0m/s | 13.7°C | 65.9% | 876.9hPa | 2.7V | 07:38:00 | 00:00:00 | 00:00:00 | |
| NBG1-10 | 2026-08-31 13:09:59 | 49.48395 | 11.04176 | 63° | 46km/h | 1323m | -5.9m/s | 13.4°C | 67.1% | 874.4hPa | 2.7V | 00:00:00 | 02:40:20 | 00:00:00 | |
| DF9NV-10 | 2026-08-31 13:09:56 | 49.48384 | 11.04145 | 63° | 46km/h | 1335m | -5.7m/s | 0°C | 0% | 0hPa | 2.7V | 00:00:00 | 00:00:00 | 00:00:00 | |
| DB0NH | 2026-08-31 13:09:53 | 49.48362 | 11.04084 | 60° | 42km/h | 1359m | -6.4m/s | 13.1°C | 68.7% | 870.6hPa | 2.7V | 00:00:00 | 02:40:14 | 00:00:00 | |
| NBG1-10 | 2026-08-31 13:09:52 | 49.48356 | 11.04069 | 61° | 42km/h | 1366m | -5.7m/s | 13.0°C | 69.0% | 870.0hPa | 2.7V | 00:00:00 | 02:40:13 | 00:00:00 | |
| NBG1-10 | 2026-08-31 13:09:45 | 49.48318 | 11.03970 | 59° | 44km/h | 1410m | -7.2m/s | 12.6°C | 71.4% | 865.7hPa | 2.7V | 07:38:00 | 02:40:06 | 00:00:00 | |
| DB0NH | 2026-08-31 13:09:43 | 49.48307 | 11.03942 | 58° | 44km/h | 1424m | -7.0m/s | 12.4°C | 71.8% | 864.0hPa | 2.7V | 07:38:00 | 02:40:04 | 00:00:00 | |
| DL0LBS | 2026-08-31 13:09:43 | 49.48307 | 11.03942 | 59° | 44km/h | 1424m | -7.0m/s | 12.5°C | 71.3% | 864.0hPa | 2.7V | 07:38:00 | 00:00:00 | 00:00:00 | |
| NBG1-10 | 2026-08-31 13:09:38 | 49.48277 | 11.03868 | 60° | 44km/h | 1458m | -6.2m/s | 12.1°C | 72.5% | 860.5hPa | 2.7V | 00:00:00 | 02:39:59 | 00:00:00 | |
| DB0NH | 2026-08-31 13:09:33 | 49.48247 | 11.03795 | 55° | 40km/h | 1487m | -5.6m/s | 11.8°C | 74.3% | 857.7hPa | 2.7V | 00:00:00 | 02:39:54 | 00:00:00 | |
| NBG1-10 | 2026-08-31 13:09:31 | 49.48235 | 11.03770 | 54° | 44km/h | 1498m | -5.4m/s | 11.7°C | 74.9% | 856.4hPa | 2.7V | 00:00:00 | 02:39:52 | 00:00:00 | |
| DO3MHA-11 | 2026-08-31 13:09:26 | 49.48206 | 11.03706 | 56° | 42km/h | 1526m | -5.2m/s | 11.4°C | 76.1% | 853.6hPa | 2.7V | 00:00:00 | 02:39:47 | 00:00:00 | |
| DB0NH | 2026-08-31 13:09:23 | 49.48188 | 11.03666 | 55° | 47km/h | 1541m | -4.8m/s | 11.3°C | 76.3% | 851.9hPa | 2.7V | 00:00:00 | 02:39:44 | 00:00:00 | |
| DL0LBS | 2026-08-31 13:09:22 | 49.48188 | 11.03666 | 56° | 44km/h | 1541m | -4.9m/s | 11.3°C | 75.6% | 852.0hPa | 2.7V | 07:39:00 | 00:00:00 | 00:00:00 | |
| DO3MHA-11 | 2026-08-31 13:09:21 | 49.48175 | 11.03637 | 56° | 47km/h | 1551m | -4.3m/s | 11.2°C | 76.4% | 850.9hPa | 2.7V | 00:00:00 | 02:39:42 | 00:00:00 | |
| DO3MHA-12 | 2026-08-31 13:09:20 | 49.48168 | 11.03623 | 56° | 46km/h | 1555m | -3.9m/s | 11.2°C | 76.2% | 850.5hPa | 2.7V | 07:38:00 | 02:39:41 | 00:00:00 | |
| DO3MHA-11 | 2026-08-31 13:09:16 | 49.48141 | 11.03560 | 59° | 46km/h | 1572m | -4.3m/s | 11.0°C | 78.6% | 848.7hPa | 2.7V | 00:00:00 | 02:39:37 | 00:00:00 | |
| NBG1-10 | 2026-08-31 13:09:14 | 49.48129 | 11.03529 | 61° | 47km/h | 1581m | -4.9m/s | 10.9°C | 78.9% | 847.8hPa | 2.7V | 00:00:00 | 02:39:35 | 00:00:00 | |
| DB0NH | 2026-08-31 13:09:13 | 49.48123 | 11.03513 | 60° | 46km/h | 1586m | -4.9m/s | 10.8°C | 79.0% | 847.3hPa | 2.7V | 00:00:00 | 02:39:34 | 00:00:00 | |
| DO3MHA-11 | 2026-08-31 13:09:11 | 49.48112 | 11.03482 | 63° | 44km/h | 1595m | -5.7m/s | 10.8°C | 74.7% | 846.4hPa | 2.7V | 00:00:00 | 02:39:32 | 00:00:00 | |
| DO3MHA-12 | 2026-08-31 13:09:06 | 49.48086 | 11.03407 | 62° | 47km/h | 1624m | -5.1m/s | 10.6°C | 74.3% | 843.5hPa | 2.7V | 00:00:00 | 02:39:27 | 00:00:00 | |
| DO3MHA-11 | 2026-08-31 13:09:06 | 49.48086 | 11.03407 | 62° | 47km/h | 1624m | -5.1m/s | 10.6°C | 74.3% | 843.5hPa | 2.7V | 00:00:00 | 02:39:27 | 00:00:00 | |
| DB0NH | 2026-08-31 13:09:03 | 49.48068 | 11.03358 | 61° | 49km/h | 1638m | -3.8m/s | 10.5°C | 73.5% | 842.0hPa | 2.7V | 00:00:00 | 02:39:24 | 00:00:00 | |
| DL0LBS | 2026-08-31 13:09:01 | 49.48062 | 11.03342 | 63° | 49km/h | 1642m | -3.8m/s | 10.5°C | 73.7% | 841.7hPa | 2.7V | 07:39:00 | 00:00:00 | 00:00:00 | |
| DO3MHA-11 | 2026-08-31 13:09:01 | 49.48056 | 11.03325 | 62° | 49km/h | 1646m | -4.5m/s | 10.4°C | 79.5% | 841.1hPa | 2.7V | 00:00:00 | 02:39:22 | 00:00:00 | |
| DO3MHA-12 | 2026-08-31 13:09:01 | 49.48056 | 11.03325 | 62° | 49km/h | 1646m | -4.5m/s | 10.4°C | 79.5% | 841.1hPa | 2.7V | 00:00:00 | 02:39:22 | 00:00:00 | |
| DB0NH | 2026-08-31 13:08:53 | 49.48015 | 11.03184 | 68° | 47km/h | 1679m | -4.4m/s | 10.1°C | 77.7% | 838.0hPa | 2.7V | 00:00:00 | 02:39:14 | 00:00:00 | |
| NBG1-10 | 2026-08-31 13:08:52 | 49.48010 | 11.03166 | 67° | 49km/h | 1683m | -3.9m/s | 10.0°C | 79.7% | 837.5hPa | 2.7V | 00:00:00 | 02:39:13 | 00:00:00 | |
| DO3MHA-12 | 2026-08-31 13:08:51 | 49.48005 | 11.03149 | 66° | 47km/h | 1687m | -3.6m/s | 10.0°C | 79.4% | 837.1hPa | 2.7V | 00:00:00 | 02:39:12 | 00:00:00 | |
| DO3MHA-11 | 2026-08-31 13:08:51 | 49.48005 | 11.03149 | 66° | 47km/h | 1687m | -3.6m/s | 10.0°C | 79.4% | 837.1hPa | 2.7V | 00:00:00 | 02:39:12 | 00:00:00 | |
| DO3MHA-12 | 2026-08-31 13:08:46 | 49.47978 | 11.03069 | 62° | 49km/h | 1710m | -4.7m/s | 9.7°C | 82.6% | 834.9hPa | 2.7V | 00:00:00 | 02:39:07 | 00:00:00 | |
| DO3MHA-11 | 2026-08-31 13:08:46 | 49.47978 | 11.03069 | 62° | 49km/h | 1710m | -4.7m/s | 9.7°C | 82.6% | 834.9hPa | 2.7V | 00:00:00 | 02:39:07 | 00:00:00 | |
| DB0NH | 2026-08-31 13:08:43 | 49.47962 | 11.03019 | 66° | 51km/h | 1725m | -5.6m/s | 9.6°C | 81.2% | 833.6hPa | 2.7V | 00:00:00 | 02:39:04 | 00:00:00 | |
| DO9HM | 2026-08-31 13:08:42 | 49.47962 | 11.03019 | 66° | 49km/h | 1725m | -5.6m/s | 9.6°C | 80.4% | 833.6hPa | 2.7V | 07:39:00 | 00:00:00 | 00:00:00 | |
| DO3MHA-12 | 2026-08-31 13:08:41 | 49.47951 | 11.02984 | 68° | 51km/h | 1736m | -4.7m/s | 9.5°C | 81.1% | 832.4hPa | 2.7V | 00:00:00 | 02:39:02 | 00:00:00 | |
| DO3MHA-11 | 2026-08-31 13:08:41 | 49.47951 | 11.02984 | 68° | 51km/h | 1736m | -4.7m/s | 9.5°C | 81.1% | 832.4hPa | 2.7V | 00:00:00 | 02:39:02 | 00:00:00 | |
| DL0LBS | 2026-08-31 13:08:41 | 49.47951 | 11.02984 | 68° | 49km/h | 1736m | -4.7m/s | 9.5°C | 80.2% | 832.5hPa | 2.7V | 07:39:00 | 00:00:00 | 00:00:00 | |
| DO3MHA-12 | 2026-08-31 13:08:36 | 49.47927 | 11.02891 | 69° | 49km/h | 1757m | -4.2m/s | 9.3°C | 81.3% | 830.2hPa | 2.7V | 00:00:00 | 02:38:57 | 00:00:00 | |
| DO3MHA-11 | 2026-08-31 13:08:36 | 49.47927 | 11.02891 | 69° | 49km/h | 1757m | -4.2m/s | 9.3°C | 81.3% | 830.2hPa | 2.7V | 00:00:00 | 02:38:57 | 00:00:00 | |
| DB0NH | 2026-08-31 13:08:33 | 49.47913 | 11.02838 | 66° | 49km/h | 1771m | -5.3m/s | 9.2°C | 82.2% | 828.9hPa | 2.7V | 00:00:00 | 02:38:54 | 00:00:00 | |
| DO3MHA-12 | 2026-08-31 13:08:31 | 49.47903 | 11.02803 | 67° | 51km/h | 1781m | -4.6m/s | 9.1°C | 81.4% | 827.9hPa | 2.7V | 07:39:00 | 02:38:52 | 00:00:00 | |
| DO3MHA-11 | 2026-08-31 13:08:31 | 49.47903 | 11.02803 | 67° | 51km/h | 1781m | -4.6m/s | 9.1°C | 81.4% | 827.9hPa | 2.7V | 00:00:00 | 02:38:52 | 00:00:00 | |
| NBG1-10 | 2026-08-31 13:08:30 | 49.47897 | 11.02785 | 67° | 49km/h | 1786m | -4.7m/s | 9.1°C | 81.3% | 827.4hPa | 2.7V | 00:00:00 | 02:38:51 | 00:00:00 | |
| DO3MHA-12 | 2026-08-31 13:08:26 | 49.47877 | 11.02712 | 67° | 51km/h | 1804m | -4.3m/s | 8.9°C | 82.1% | 825.7hPa | 2.7V | 00:00:00 | 02:38:47 | 00:00:00 | |
| DO3MHA-11 | 2026-08-31 13:08:26 | 49.47877 | 11.02712 | 67° | 51km/h | 1804m | -4.3m/s | 8.9°C | 82.1% | 825.7hPa | 2.7V | 00:00:00 | 02:38:47 | 00:00:00 | |
| DB0NH | 2026-08-31 13:08:23 | 49.47863 | 11.02658 | 70° | 49km/h | 1817m | -4.3m/s | 8.7°C | 82.4% | 824.3hPa | 2.6V | 07:39:00 | 02:38:44 | 00:00:00 | |
| DO9HM | 2026-08-31 13:08:22 | 49.47863 | 11.02658 | 70° | 51km/h | 1817m | -4.3m/s | 8.8°C | 81.4% | 824.4hPa | 2.7V | 07:40:00 | 00:00:00 | 00:00:00 | |
| DL0LBS | 2026-08-31 13:08:19 | 49.47849 | 11.02603 | 70° | 49km/h | 1831m | -4.7m/s | 8.7°C | 82.9% | 822.9hPa | 2.7V | 07:40:00 | 00:00:00 | 00:00:00 | |
| DO3MHA-11 | 2026-08-31 13:08:16 | 49.47832 | 11.02532 | 70° | 49km/h | 1848m | -3.9m/s | 8.5°C | 81.1% | 821.2hPa | 2.7V | 07:39:00 | 02:38:37 | 00:00:00 | |
| DO3MHA-12 | 2026-08-31 13:08:16 | 49.47832 | 11.02532 | 70° | 49km/h | 1848m | -3.9m/s | 8.5°C | 81.1% | 821.2hPa | 2.7V | 00:00:00 | 02:38:37 | 00:00:00 | |
| DB0NH | 2026-08-31 13:08:13 | 49.47818 | 11.02478 | 69° | 51km/h | 1860m | -4.3m/s | 8.4°C | 83.4% | 819.9hPa | 2.7V | 00:00:00 | 02:38:34 | 00:00:00 | |
| DO3MHA-12 | 2026-08-31 13:08:11 | 49.47809 | 11.02441 | 68° | 51km/h | 1869m | -4.3m/s | 8.3°C | 82.8% | 819.1hPa | 2.7V | 00:00:00 | 02:38:32 | 00:00:00 | |
| DO3MHA-11 | 2026-08-31 13:08:11 | 49.47809 | 11.02441 | 68° | 51km/h | 1869m | -4.3m/s | 8.3°C | 82.8% | 819.1hPa | 2.7V | 00:00:00 | 02:38:32 | 00:00:00 | |
| NBG1-10 | 2026-08-31 13:08:08 | 49.47795 | 11.02387 | 69° | 53km/h | 1882m | -4.4m/s | 8.2°C | 83.4% | 817.7hPa | 2.6V | 00:00:00 | 02:38:29 | 00:00:00 | |
| DO3MHA-12 | 2026-08-31 13:08:06 | 49.47786 | 11.02349 | 70° | 51km/h | 1890m | -4.3m/s | 8.1°C | 83.5% | 817.0hPa | 2.6V | 00:00:00 | 02:38:27 | 00:00:00 | |
| DO3MHA-11 | 2026-08-31 13:08:06 | 49.47786 | 11.02349 | 70° | 51km/h | 1890m | -4.3m/s | 8.1°C | 83.5% | 817.0hPa | 2.6V | 00:00:00 | 02:38:27 | 00:00:00 | |
| DB0NH | 2026-08-31 13:08:03 | 49.47773 | 11.02293 | 72° | 53km/h | 1904m | -4.3m/s | 8.1°C | 79.7% | 815.8hPa | 2.6V | 00:00:00 | 02:38:24 | 00:00:00 | |
| DO9HM | 2026-08-31 13:08:02 | 49.47769 | 11.02274 | 73° | 53km/h | 1908m | -4.5m/s | 8.1°C | 79.0% | 815.2hPa | 2.6V | 07:40:00 | 00:00:00 | 00:00:00 | |
| DL0LBS | 2026-08-31 13:07:59 | 49.47760 | 11.02235 | 73° | 53km/h | 1917m | -5.2m/s | 8.0°C | 78.2% | 814.4hPa | 2.6V | 07:40:00 | 00:00:00 | 00:00:00 | |
| DO3MHA-12 | 2026-08-31 13:07:56 | 49.47743 | 11.02157 | 72° | 55km/h | 1936m | -4.5m/s | 7.8°C | 79.2% | 812.5hPa | 2.6V | 00:00:00 | 02:38:17 | 00:00:00 | |
| DO3MHA-11 | 2026-08-31 13:07:56 | 49.47743 | 11.02157 | 72° | 55km/h | 1936m | -4.5m/s | 7.8°C | 79.2% | 812.5hPa | 2.6V | 00:00:00 | 02:38:17 | 00:00:00 | |
| DB0NH | 2026-08-31 13:07:53 | 49.47730 | 11.02097 | 71° | 57km/h | 1949m | -4.2m/s | 7.8°C | 74.7% | 811.3hPa | 2.7V | 00:00:00 | 02:38:14 | 00:00:00 | |
| DO3MHA-12 | 2026-08-31 13:07:51 | 49.47720 | 11.02056 | 72° | 55km/h | 1958m | -4.6m/s | 7.8°C | 75.2% | 810.5hPa | 2.7V | 07:40:00 | 02:38:12 | 00:00:00 | |
| DO3MHA-11 | 2026-08-31 13:07:51 | 49.47720 | 11.02056 | 72° | 55km/h | 1958m | -4.6m/s | 7.8°C | 75.2% | 810.5hPa | 2.7V | 00:00:00 | 02:38:12 | 00:00:00 | |
| DO3MHA-12 | 2026-08-31 13:07:46 | 49.47699 | 11.01953 | 73° | 57km/h | 1983m | -4.7m/s | 7.5°C | 75.6% | 807.8hPa | 2.7V | 00:00:00 | 02:38:07 | 00:00:00 | |
| NBG1-10 | 2026-08-31 13:07:46 | 49.47699 | 11.01953 | 73° | 60km/h | 1983m | -4.7m/s | 7.5°C | 75.6% | 807.8hPa | 2.7V | 00:00:00 | 02:38:07 | 00:00:00 | |
| DO3MHA-11 | 2026-08-31 13:07:46 | 49.47699 | 11.01953 | 73° | 57km/h | 1983m | -4.7m/s | 7.5°C | 75.6% | 807.8hPa | 2.7V | 00:00:00 | 02:38:07 | 00:00:00 | |
| DB0NH | 2026-08-31 13:07:43 | 49.47686 | 11.01889 | 73° | 60km/h | 1997m | -4.5m/s | 7.4°C | 76.4% | 806.4hPa | 2.7V | 00:00:00 | 02:38:04 | 00:00:00 | |
| DO3MHA-12 | 2026-08-31 13:07:41 | 49.47676 | 11.01846 | 70° | 58km/h | 2006m | -4.3m/s | 7.3°C | 77.2% | 805.5hPa | 2.7V | 00:00:00 | 02:38:02 | 00:00:00 | |
| DL0LBS | 2026-08-31 13:07:38 | 49.47667 | 11.01803 | 72° | 58km/h | 2016m | -4.6m/s | 7.3°C | 75.6% | 804.6hPa | 2.7V | 07:41:00 | 00:00:00 | 00:00:00 | |
| DO3MHA-11 | 2026-08-31 13:07:31 | 49.47629 | 11.01627 | 71° | 60km/h | 2055m | -5.0m/s | 7.3°C | 68.4% | 800.7hPa | 2.7V | 00:00:00 | 02:37:52 | 00:00:00 | |
| DO3MHA-11 | 2026-08-31 13:07:26 | 49.47605 | 11.01514 | 74° | 62km/h | 2079m | -4.4m/s | 7.1°C | 68.0% | 798.5hPa | 2.7V | 00:00:00 | 02:37:47 | 00:00:00 | |
| DB0NH | 2026-08-31 13:07:25 | 49.47601 | 11.01491 | 73° | 62km/h | 2084m | -5.1m/s | 7.0°C | 68.9% | 797.9hPa | 2.6V | 00:00:00 | 02:37:46 | 00:00:00 | |
| NBG1-10 | 2026-08-31 13:07:24 | 49.47596 | 11.01469 | 73° | 62km/h | 2089m | -4.7m/s | 6.9°C | 69.8% | 797.6hPa | 2.6V | 07:40:00 | 02:37:45 | 00:00:00 | |
| DO9HM | 2026-08-31 13:07:22 | 49.47587 | 11.01423 | 74° | 62km/h | 2098m | -4.5m/s | 6.9°C | 69.1% | 796.7hPa | 2.7V | 07:41:00 | 00:00:00 | 00:00:00 | |
| DO3MHA-11 | 2026-08-31 13:07:21 | 49.47582 | 11.01400 | 73° | 62km/h | 2103m | -4.7m/s | 6.9°C | 69.7% | 796.1hPa | 2.7V | 00:00:00 | 02:37:42 | 00:00:00 | |
| DL0LBS | 2026-08-31 13:07:18 | 49.47573 | 11.01354 | 73° | 62km/h | 2113m | -5.0m/s | 6.9°C | 67.3% | 795.2hPa | 2.7V | 07:41:00 | 00:00:00 | 00:00:00 | |
| DO3MHA-11 | 2026-08-31 13:07:16 | 49.47558 | 11.01284 | 73° | 62km/h | 2128m | -4.7m/s | 6.7°C | 69.2% | 793.7hPa | 2.7V | 00:00:00 | 02:37:37 | 00:00:00 | |
| DO3MHA-11 | 2026-08-31 13:07:11 | 49.47536 | 11.01168 | 74° | 64km/h | 2151m | -4.7m/s | 6.5°C | 69.7% | 791.6hPa | 2.7V | 00:00:00 | 02:37:32 | 00:00:00 | |
| DO3MHA-11 | 2026-08-31 13:07:06 | 49.47511 | 11.01051 | 73° | 62km/h | 2176m | -4.7m/s | 6.3°C | 71.2% | 789.1hPa | 2.6V | 00:00:00 | 02:37:27 | 00:00:00 | |
| DB0NH | 2026-08-31 13:07:05 | 49.47506 | 11.01028 | 73° | 64km/h | 2181m | -4.9m/s | 6.2°C | 71.4% | 788.7hPa | 2.6V | 00:00:00 | 02:37:26 | 00:00:00 | |
| NBG1-10 | 2026-08-31 13:07:02 | 49.47492 | 11.00958 | 72° | 64km/h | 2196m | -5.0m/s | 6.1°C | 72.0% | 787.3hPa | 2.6V | 00:00:00 | 02:37:23 | 00:00:00 | |
| DO3MHA-12 | 2026-08-31 13:07:01 | 49.47487 | 11.00935 | 72° | 64km/h | 2201m | -4.9m/s | 6.1°C | 72.1% | 786.8hPa | 2.6V | 00:00:00 | 02:37:22 | 00:00:00 | |
| DO9HM | 2026-08-31 13:07:00 | 49.47487 | 11.00935 | 73° | 64km/h | 2201m | -4.9m/s | 6.1°C | 71.0% | 786.9hPa | 2.6V | 07:41:00 | 00:00:00 | 00:00:00 | |
| DL0LBS | 2026-08-31 13:06:57 | 49.47473 | 11.00865 | 73° | 64km/h | 2216m | -5.3m/s | 6.0°C | 71.4% | 785.4hPa | 2.6V | 07:41:00 | 00:00:00 | 00:00:00 | |
| DO3MHA-11 | 2026-08-31 13:06:56 | 49.47463 | 11.00818 | 72° | 64km/h | 2227m | -4.9m/s | 6.1°C | 71.2% | 784.3hPa | 2.6V | 07:41:00 | 02:37:17 | 00:00:00 | |
| DO3MHA-11 | 2026-08-31 13:06:51 | 49.47436 | 11.00702 | 70° | 64km/h | 2252m | -5.4m/s | 6.1°C | 67.7% | 782.0hPa | 2.7V | 00:00:00 | 02:37:12 | 00:00:00 | |
| DO3MHA-11 | 2026-08-31 13:06:46 | 49.47408 | 11.00585 | 70° | 64km/h | 2278m | -5.4m/s | 5.9°C | 65.5% | 779.5hPa | 2.7V | 00:00:00 | 02:37:07 | 00:00:00 | |
| DB0NH | 2026-08-31 13:06:45 | 49.47403 | 11.00562 | 71° | 64km/h | 2283m | -5.5m/s | 5.8°C | 65.6% | 779.0hPa | 2.7V | 00:00:00 | 02:37:06 | 00:00:00 | |
| DO3MHA-11 | 2026-08-31 13:06:41 | 49.47380 | 11.00470 | 69° | 62km/h | 2307m | -5.8m/s | 5.9°C | 64.9% | 776.8hPa | 2.7V | 00:00:00 | 02:37:02 | 00:00:00 | |
| NBG1-10 | 2026-08-31 13:06:40 | 49.47374 | 11.00447 | 70° | 64km/h | 2312m | -5.6m/s | 5.8°C | 64.9% | 776.3hPa | 2.7V | 00:00:00 | 02:37:01 | 00:00:00 | |
| DL0LBS | 2026-08-31 13:06:37 | 49.47363 | 11.00402 | 70° | 62km/h | 2324m | -5.9m/s | 5.7°C | 62.9% | 775.3hPa | 2.7V | 07:41:00 | 00:00:00 | 00:00:00 | |
| DO3MHA-11 | 2026-08-31 13:06:36 | 49.47351 | 11.00357 | 70° | 62km/h | 2336m | -5.5m/s | 5.6°C | 63.1% | 774.0hPa | 2.7V | 00:00:00 | 02:36:57 | 00:00:00 | |
| DO3MHA-11 | 2026-08-31 13:06:31 | 49.47323 | 11.00243 | 69° | 64km/h | 2364m | -5.8m/s | 5.3°C | 64.4% | 771.3hPa | 2.7V | 00:00:00 | 02:36:52 | 00:00:00 | |
| DO3MHA-11 | 2026-08-31 13:06:26 | 49.47292 | 11.00127 | 68° | 66km/h | 2393m | -6.0m/s | 5.0°C | 70.0% | 768.5hPa | 2.7V | 00:00:00 | 02:36:47 | 00:00:00 | |
| DB0NH | 2026-08-31 13:06:25 | 49.47285 | 11.00104 | 68° | 66km/h | 2399m | -5.9m/s | 4.9°C | 71.1% | 767.9hPa | 2.7V | 07:41:00 | 02:36:46 | 00:00:00 | |
| DO3MHA-12 | 2026-08-31 13:06:21 | 49.47260 | 11.00011 | 69° | 66km/h | 2422m | -5.5m/s | 4.8°C | 72.2% | 765.7hPa | 2.7V | 00:00:00 | 02:36:42 | 00:00:00 | |
| DO9HM | 2026-08-31 13:06:19 | 49.47253 | 10.99988 | 68° | 66km/h | 2428m | -6.0m/s | 4.8°C | 71.4% | 765.2hPa | 2.7V | 07:41:00 | 00:00:00 | 00:00:00 | |
| NBG1-10 | 2026-08-31 13:06:18 | 49.47240 | 10.99941 | 67° | 66km/h | 2440m | -5.8m/s | 4.7°C | 74.1% | 764.2hPa | 2.7V | 00:00:00 | 02:36:39 | 00:00:00 | |
| DL0LBS | 2026-08-31 13:06:17 | 49.47240 | 10.99941 | 68° | 66km/h | 2440m | -5.8m/s | 4.7°C | 72.9% | 764.2hPa | 2.7V | 07:41:00 | 00:00:00 | 00:00:00 | |
| DO3MHA-12 | 2026-08-31 13:06:16 | 49.47228 | 10.99894 | 68° | 66km/h | 2452m | -6.1m/s | 4.6°C | 73.2% | 763.0hPa | 2.7V | 00:00:00 | 02:36:37 | 00:00:00 | |
| DO3MHA-11 | 2026-08-31 13:06:11 | 49.47195 | 10.99777 | 67° | 66km/h | 2483m | -6.2m/s | 4.4°C | 71.1% | 760.3hPa | 2.7V | 00:00:00 | 02:36:32 | 00:00:00 | |
| DO3MHA-11 | 2026-08-31 13:06:06 | 49.47161 | 10.99661 | 65° | 66km/h | 2514m | -6.3m/s | 4.2°C | 71.4% | 757.4hPa | 2.7V | 00:00:00 | 02:36:27 | 00:00:00 | |
| DB0NH | 2026-08-31 13:06:05 | 49.47154 | 10.99638 | 66° | 64km/h | 2520m | -5.9m/s | 4.1°C | 71.2% | 756.8hPa | 2.7V | 00:00:00 | 02:36:26 | 00:00:00 | |
| DK5PH-5 | 2026-08-31 13:06:03 | 49.47140 | 10.99592 | 65° | 62km/h | 2532m | -6.0m/s | 4.0°C | 71.2% | 755.6hPa | 2.7V | 00:00:00 | 02:36:24 | 00:00:00 | |
| DL9SK-14 | 2026-08-31 13:06:01 | 49.47119 | 10.99523 | 66° | 64km/h | 2550m | -5.8m/s | 4.0°C | 68.7% | 753.9hPa | 2.7V | 00:00:00 | 00:00:00 | 00:00:00 | |
| DO9HM | 2026-08-31 13:05:59 | 49.47112 | 10.99500 | 68° | 64km/h | 2556m | -6.1m/s | 4.0°C | 68.3% | 753.5hPa | 2.7V | 07:42:00 | 00:00:00 | 00:00:00 | |
| DO3MHA-11 | 2026-08-31 13:05:56 | 49.47095 | 10.99432 | 68° | 62km/h | 2574m | -5.3m/s | 3.8°C | 69.4% | 751.8hPa | 2.7V | 00:00:00 | 02:36:17 | 00:00:00 | |
| DO3MHA-11 | 2026-08-31 13:05:51 | 49.47064 | 10.99320 | 67° | 62km/h | 2604m | -5.6m/s | 3.7°C | 64.9% | 748.9hPa | 2.7V | 00:00:00 | 02:36:12 | 00:00:00 | |
| DO3MHA-11 | 2026-08-31 13:05:46 | 49.47034 | 10.99210 | 68° | 60km/h | 2630m | -4.9m/s | 3.8°C | 54.6% | 746.5hPa | 2.7V | 00:00:00 | 02:36:07 | 00:00:00 | |
| DK5PH-5 | 2026-08-31 13:05:43 | 49.47017 | 10.99144 | 70° | 58km/h | 2646m | -5.4m/s | 3.7°C | 52.5% | 745.2hPa | 2.7V | 00:00:00 | 02:36:04 | 00:00:00 | |
| DO3MHA-12 | 2026-08-31 13:05:41 | 49.47007 | 10.99101 | 72° | 60km/h | 2657m | -5.7m/s | 3.7°C | 48.6% | 744.1hPa | 2.7V | 00:00:00 | 02:36:02 | 00:00:00 | |
| DO9HM | 2026-08-31 13:05:38 | 49.46998 | 10.99056 | 74° | 58km/h | 2668m | -5.5m/s | 3.6°C | 50.4% | 743.2hPa | 2.7V | 07:42:00 | 00:00:00 | 00:00:00 | |
| DO3MHA-11 | 2026-08-31 13:05:36 | 49.46985 | 10.98990 | 73° | 58km/h | 2685m | -5.4m/s | 3.4°C | 49.5% | 741.4hPa | 2.7V | 07:42:00 | 02:35:57 | 00:00:00 | |
| NBG1-10 | 2026-08-31 13:05:34 | 49.46976 | 10.98946 | 73° | 57km/h | 2697m | -5.6m/s | 3.3°C | 50.9% | 740.5hPa | 2.7V | 00:00:00 | 02:35:55 | 00:00:00 | |
| DO3MHA-11 | 2026-08-31 13:05:31 | 49.46962 | 10.98880 | 74° | 58km/h | 2714m | -5.7m/s | 3.1°C | 53.3% | 738.9hPa | 2.7V | 00:00:00 | 02:35:52 | 00:00:00 | |
| DL9SK-14 | 2026-08-31 13:05:30 | 49.46955 | 10.98836 | 75° | 58km/h | 2725m | -5.6m/s | 3.0°C | 50.8% | 738.1hPa | 2.7V | 00:00:00 | 00:00:00 | 00:00:00 | |
| DO3MHA-11 | 2026-08-31 13:05:26 | 49.46944 | 10.98770 | 77° | 57km/h | 2743m | -5.7m/s | 2.8°C | 52.8% | 736.4hPa | 2.7V | 00:00:00 | 02:35:47 | 00:00:00 | |
| DB0NH | 2026-08-31 13:05:25 | 49.46941 | 10.98749 | 78° | 57km/h | 2748m | -5.7m/s | 2.7°C | 53.3% | 735.8hPa | 2.7V | 00:00:00 | 02:35:46 | 00:00:00 | |
| DO3MHA-11 | 2026-08-31 13:05:21 | 49.46928 | 10.98662 | 77° | 57km/h | 2771m | -5.5m/s | 2.6°C | 53.1% | 733.7hPa | 2.7V | 00:00:00 | 02:35:42 | 00:00:00 | |
| DO9HM | 2026-08-31 13:05:18 | 49.46921 | 10.98619 | 77° | 57km/h | 2782m | -5.9m/s | 2.6°C | 51.3% | 732.6hPa | 2.7V | 07:42:00 | 00:00:00 | 00:00:00 | |
| DO3MHA-11 | 2026-08-31 13:05:16 | 49.46910 | 10.98556 | 75° | 57km/h | 2799m | -5.5m/s | 2.4°C | 53.2% | 731.1hPa | 2.7V | 00:00:00 | 02:35:37 | 00:00:00 | |
| DL0LBS | 2026-08-31 13:05:15 | 49.46910 | 10.98556 | 76° | 57km/h | 2799m | -5.6m/s | 2.4°C | 52.2% | 731.2hPa | 2.7V | 07:42:00 | 00:00:00 | 00:00:00 | |
| NBG1-10 | 2026-08-31 13:05:12 | 49.46895 | 10.98471 | 76° | 57km/h | 2822m | -5.2m/s | 2.2°C | 54.0% | 729.1hPa | 2.7V | 00:00:00 | 02:35:33 | 00:00:00 | |
| DO3MHA-11 | 2026-08-31 13:05:11 | 49.46891 | 10.98449 | 76° | 57km/h | 2827m | -5.3m/s | 2.2°C | 54.1% | 728.6hPa | 2.7V | 00:00:00 | 02:35:32 | 00:00:00 | |
| DO3MHA-11 | 2026-08-31 13:05:06 | 49.46873 | 10.98341 | 75° | 57km/h | 2854m | -6.0m/s | 2.1°C | 50.4% | 726.1hPa | 2.7V | 00:00:00 | 02:35:27 | 00:00:00 | |
| DB0NH | 2026-08-31 13:05:05 | 49.46869 | 10.98319 | 75° | 57km/h | 2860m | -5.8m/s | 2.1°C | 50.0% | 725.7hPa | 2.7V | 00:00:00 | 02:35:26 | 00:00:00 | |
| DB0ND-19 | 2026-08-31 13:05:00 | 49.46845 | 10.98193 | 72° | 57km/h | 2894m | -5.5m/s | 2.2°C | 43.8% | 722.6hPa | 2.7V | 00:00:00 | 00:00:00 | 00:00:00 | |
| DL9SK-14 | 2026-08-31 13:04:59 | 49.46840 | 10.98171 | 72° | 57km/h | 2900m | -5.7m/s | 2.1°C | 43.0% | 722.0hPa | 2.7V | 00:00:00 | 00:00:00 | 00:00:00 | |
| DO3MHA-11 | 2026-08-31 13:04:56 | 49.46832 | 10.98129 | 72° | 57km/h | 2911m | -6.0m/s | 1.9°C | 45.4% | 720.9hPa | 2.7V | 07:43:00 | 02:35:17 | 00:00:00 | |
| DO3MHA-11 | 2026-08-31 13:04:51 | 49.46809 | 10.98025 | 71° | 57km/h | 2939m | -5.1m/s | 1.7°C | 45.2% | 718.6hPa | 2.7V | 00:00:00 | 02:35:12 | 00:00:00 | |
| NBG1-10 | 2026-08-31 13:04:50 | 49.46804 | 10.98004 | 71° | 57km/h | 2945m | -5.2m/s | 1.7°C | 43.9% | 718.0hPa | 2.7V | 00:00:00 | 02:35:11 | 00:00:00 | |
| DO3MHA-11 | 2026-08-31 13:04:46 | 49.46784 | 10.97923 | 68° | 58km/h | 2967m | -5.4m/s | 1.7°C | 40.3% | 716.1hPa | 2.7V | 00:00:00 | 02:35:07 | 00:00:00 | |
| DB0NH | 2026-08-31 13:04:45 | 49.46778 | 10.97903 | 67° | 57km/h | 2972m | -4.9m/s | 1.6°C | 42.2% | 715.6hPa | 2.7V | 00:00:00 | 02:35:06 | 00:00:00 | |
| DO3MHA-11 | 2026-08-31 13:04:41 | 49.46755 | 10.97821 | 67° | 57km/h | 2992m | -4.9m/s | 1.5°C | 40.2% | 713.8hPa | 2.7V | 00:00:00 | 02:35:02 | 00:00:00 | |
| DO3MHA-11 | 2026-08-31 13:04:36 | 49.46725 | 10.97720 | 66° | 57km/h | 3017m | -5.2m/s | 1.4°C | 38.9% | 711.6hPa | 2.6V | 00:00:00 | 02:34:57 | 00:00:00 | |
| DL0LBS | 2026-08-31 13:04:34 | 49.46719 | 10.97701 | 65° | 57km/h | 3022m | -5.3m/s | 1.4°C | 38.4% | 711.2hPa | 2.6V | 07:43:00 | 00:00:00 | 00:00:00 | |
| DO3MHA-11 | 2026-08-31 13:04:31 | 49.46695 | 10.97621 | 65° | 58km/h | 3043m | -5.1m/s | 1.4°C | 37.2% | 709.3hPa | 2.6V | 00:00:00 | 02:34:52 | 00:00:00 | |
| DL9SK-14 | 2026-08-31 13:04:28 | 49.46669 | 10.97540 | 62° | 57km/h | 3063m | -5.0m/s | 1.4°C | 35.2% | 707.5hPa | 2.6V | 00:00:00 | 00:00:00 | 00:00:00 | |
| DO3MHA-12 | 2026-08-31 13:04:26 | 49.46662 | 10.97520 | 64° | 57km/h | 3068m | -5.0m/s | 1.3°C | 36.7% | 707.1hPa | 2.6V | 00:00:00 | 02:34:47 | 00:00:00 | |
| DB0NH | 2026-08-31 13:04:25 | 49.46656 | 10.97500 | 63° | 58km/h | 3073m | -4.9m/s | 1.3°C | 36.5% | 706.7hPa | 2.7V | 00:00:00 | 02:34:46 | 00:00:00 | |
| DO3MHA-12 | 2026-08-31 13:04:21 | 49.46630 | 10.97421 | 64° | 58km/h | 3093m | -5.0m/s | 1.2°C | 34.3% | 704.8hPa | 2.7V | 00:00:00 | 02:34:42 | 00:00:00 | |
| DL1NUX | 2026-08-31 13:04:16 | 49.46592 | 10.97299 | 64° | 57km/h | 3121m | -4.7m/s | 0.9°C | 41.4% | 702.4hPa | 2.7V | 07:43:45 | 02:34:36 | 00:00:00 | |
| DO3MHA-12 | 2026-08-31 13:04:16 | 49.46598 | 10.97319 | 65° | 57km/h | 3117m | -4.9m/s | 1.0°C | 36.5% | 702.8hPa | 2.7V | 00:00:00 | 02:34:37 | 00:00:00 | |
| DO3MHA-11 | 2026-08-31 13:04:15 | 49.46592 | 10.97299 | 65° | 57km/h | 3121m | -4.7m/s | 0.9°C | 41.4% | 702.4hPa | 2.7V | 07:43:00 | 02:34:36 | 00:00:00 | |
| DL0LBS | 2026-08-31 13:04:14 | 49.46592 | 10.97299 | 66° | 57km/h | 3121m | -4.7m/s | 0.9°C | 40.4% | 702.4hPa | 2.7V | 07:44:00 | 00:00:00 | 00:00:00 | |
| DF7PN | 2026-08-31 13:04:13 | 49.46566 | 10.97220 | 63° | 57km/h | 3141m | -5.0m/s | 0.7°C | 48.2% | 700.8hPa | 2.7V | 00:00:00 | 00:00:00 | 00:00:00 | |
| DO3MHA-12 | 2026-08-31 13:04:11 | 49.46566 | 10.97220 | 64° | 58km/h | 3142m | -5.0m/s | 0.7°C | 49.3% | 700.7hPa | 2.7V | 00:00:00 | 02:34:32 | 00:00:00 | |
| DO3MHA-11 | 2026-08-31 13:04:10 | 49.46559 | 10.97200 | 64° | 58km/h | 3146m | -4.9m/s | 0.6°C | 45.3% | 700.3hPa | 2.7V | 00:00:00 | 02:34:31 | 00:00:00 | |
| NBG1-10 | 2026-08-31 13:04:06 | 49.46532 | 10.97119 | 64° | 57km/h | 3166m | -4.9m/s | 0.4°C | 45.6% | 698.4hPa | 2.6V | 00:00:00 | 02:34:27 | 00:00:00 | |
| DO3MHA-11 | 2026-08-31 13:04:05 | 49.46525 | 10.97099 | 64° | 58km/h | 3171m | -5.1m/s | 0.4°C | 43.2% | 698.1hPa | 2.6V | 00:00:00 | 02:34:26 | 00:00:00 | |
| DL1NUX | 2026-08-31 13:04:04 | 49.46487 | 10.96978 | 63° | 57km/h | 3200m | -4.7m/s | 0.1°C | 52.9% | 695.6hPa | 2.6V | 07:44:01 | 02:34:20 | 00:00:00 | |
| DB0ND-19 | 2026-08-31 13:03:58 | 49.46475 | 10.96939 | 63° | 57km/h | 3210m | -4.6m/s | 0.0°C | 52.0% | 694.7hPa | 2.6V | 00:00:00 | 00:00:00 | 00:00:00 | |
| DL1NUX | 2026-08-31 13:03:56 | 49.46434 | 10.96822 | 62° | 57km/h | 3237m | -4.4m/s | -0.2°C | 56% | 692.4hPa | 2.6V | 07:44:09 | 02:34:12 | 00:00:00 | |
| DO9HM | 2026-08-31 13:03:56 | 49.46468 | 10.96919 | 64° | 57km/h | 3215m | -4.5m/s | -0.0°C | 52.0% | 694.3hPa | 2.7V | 07:44:00 | 00:00:00 | 00:00:00 | |
| DO3MHA-11 | 2026-08-31 13:03:55 | 49.46461 | 10.96899 | 62° | 57km/h | 3219m | -4.6m/s | -0.0°C | 53.3% | 693.9hPa | 2.7V | 00:00:00 | 02:34:16 | 00:00:00 | |
| DL0LBS | 2026-08-31 13:03:54 | 49.46461 | 10.96899 | 63° | 57km/h | 3219m | -4.6m/s | -0.1°C | 52.0% | 694.0hPa | 2.7V | 07:44:00 | 00:00:00 | 00:00:00 | |
| DO3MHA-12 | 2026-08-31 13:03:51 | 49.46434 | 10.96822 | 63° | 57km/h | 3237m | -4.4m/s | -0.2°C | 56.0% | 692.4hPa | 2.7V | 07:44:00 | 02:34:12 | 00:00:00 | |
| DO3MHA-11 | 2026-08-31 13:03:50 | 49.46427 | 10.96803 | 63° | 57km/h | 3242m | -4.5m/s | -0.2°C | 53.9% | 692.0hPa | 2.7V | 00:00:00 | 02:34:11 | 00:00:00 | |
| DO3MHA-12 | 2026-08-31 13:03:46 | 49.46401 | 10.96724 | 64° | 57km/h | 3260m | -4.6m/s | -0.4°C | 55.8% | 690.4hPa | 2.7V | 00:00:00 | 02:34:07 | 00:00:00 | |
| DO3MHA-11 | 2026-08-31 13:03:45 | 49.46394 | 10.96704 | 64° | 57km/h | 3265m | -4.6m/s | -0.4°C | 57.6% | 690.0hPa | 2.7V | 00:00:00 | 02:34:06 | 00:00:00 | |
| NBG1-10 | 2026-08-31 13:03:44 | 49.46388 | 10.96684 | 65° | 55km/h | 3269m | -4.4m/s | -0.5°C | 57.1% | 689.6hPa | 2.7V | 00:00:00 | 02:34:05 | 00:00:00 | |
| DF7PN | 2026-08-31 13:03:42 | 49.46369 | 10.96624 | 63° | 57km/h | 3283m | -4.7m/s | -0.7°C | 55.4% | 688.5hPa | 2.7V | 00:00:00 | 00:00:00 | 00:00:00 | |
| DO3MHA-12 | 2026-08-31 13:03:41 | 49.46369 | 10.96624 | 64° | 57km/h | 3283m | -4.7m/s | -0.6°C | 56.8% | 688.4hPa | 2.7V | 00:00:00 | 02:34:02 | 00:00:00 | |
| DO3MHA-11 | 2026-08-31 13:03:40 | 49.46362 | 10.96604 | 64° | 57km/h | 3288m | -4.8m/s | -0.7°C | 56.6% | 688.0hPa | 2.7V | 00:00:00 | 02:34:01 | 00:00:00 | |
| DO3MHA-12 | 2026-08-31 13:03:36 | 49.46338 | 10.96525 | 66° | 57km/h | 3307m | -4.7m/s | -0.8°C | 55.9% | 686.3hPa | 2.7V | 00:00:00 | 02:33:57 | 00:00:00 | |
| DO9HM | 2026-08-31 13:03:35 | 49.46338 | 10.96525 | 66° | 57km/h | 3307m | -4.8m/s | -0.8°C | 54.6% | 686.4hPa | 2.7V | 07:44:00 | 00:00:00 | 00:00:00 | |
| DL0LBS | 2026-08-31 13:03:33 | 49.46326 | 10.96485 | 67° | 57km/h | 3317m | -4.9m/s | -0.8°C | 52.2% | 685.5hPa | 2.7V | 07:44:00 | 00:00:00 | 00:00:00 | |
| DO3MHA-12 | 2026-08-31 13:03:31 | 49.46309 | 10.96426 | 68° | 55km/h | 3331m | -4.8m/s | -0.8°C | 51.5% | 684.3hPa | 2.7V | 00:00:00 | 02:33:52 | 00:00:00 | |
| DO3MHA-11 | 2026-08-31 13:03:30 | 49.46303 | 10.96406 | 67° | 55km/h | 3336m | -4.8m/s | -0.9°C | 51.0% | 683.8hPa | 2.7V | 00:00:00 | 02:33:51 | 00:00:00 | |
| DB0ND-19 | 2026-08-31 13:03:27 | 49.46283 | 10.96328 | 67° | 55km/h | 3355m | -4.8m/s | -1.0°C | 41.3% | 682.2hPa | 2.7V | 00:00:00 | 00:00:00 | 00:00:00 | |
| DO3MHA-12 | 2026-08-31 13:03:26 | 49.46282 | 10.96328 | 68° | 55km/h | 3355m | -4.8m/s | -0.9°C | 42.3% | 682.2hPa | 2.7V | 00:00:00 | 02:33:47 | 00:00:00 | |
| DO3MHA-11 | 2026-08-31 13:03:25 | 49.46277 | 10.96308 | 68° | 55km/h | 3360m | -4.8m/s | -1.0°C | 43.2% | 681.8hPa | 2.7V | 00:00:00 | 02:33:46 | 00:00:00 | |
| DO3MHA-12 | 2026-08-31 13:03:21 | 49.46256 | 10.96230 | 68° | 53km/h | 3378m | -4.6m/s | -1.1°C | 38.2% | 680.2hPa | 2.6V | 00:00:00 | 02:33:42 | 00:00:00 | |
| DO3MHA-11 | 2026-08-31 13:03:20 | 49.46250 | 10.96210 | 67° | 53km/h | 3383m | -4.6m/s | -1.1°C | 37.5% | 679.9hPa | 2.6V | 00:00:00 | 02:33:41 | 00:00:00 | |
| DO3MHA-12 | 2026-08-31 13:03:16 | 49.46230 | 10.96134 | 69° | 53km/h | 3402m | -5.0m/s | -1.2°C | 34.7% | 678.2hPa | 2.6V | 00:00:00 | 02:33:37 | 00:00:00 | |
| DO9HM | 2026-08-31 13:03:15 | 49.46225 | 10.96114 | 70° | 53km/h | 3406m | -4.5m/s | -1.3°C | 31.5% | 677.9hPa | 2.6V | 07:45:00 | 00:00:00 | 00:00:00 | |
| DL0LBS | 2026-08-31 13:03:12 | 49.46216 | 10.96076 | 71° | 53km/h | 3416m | -4.9m/s | -1.3°C | 30.2% | 677.1hPa | 2.6V | 07:45:00 | 00:00:00 | 00:00:00 | |
| DF7PN | 2026-08-31 13:03:11 | 49.46202 | 10.96019 | 68° | 51km/h | 3430m | -4.6m/s | -1.4°C | 28.9% | 675.9hPa | 2.6V | 00:00:00 | 00:00:00 | 00:00:00 | |
| DO3MHA-11 | 2026-08-31 13:03:10 | 49.46202 | 10.96019 | 69° | 51km/h | 3430m | -4.6m/s | -1.3°C | 29.6% | 675.8hPa | 2.6V | 00:00:00 | 02:33:31 | 00:00:00 | |
| DO3MHA-12 | 2026-08-31 13:03:06 | 49.46184 | 10.95944 | 71° | 51km/h | 3449m | -4.6m/s | -1.3°C | 25.8% | 674.2hPa | 2.6V | 00:00:00 | 02:33:27 | 00:00:00 | |
| DO3MHA-11 | 2026-08-31 13:03:05 | 49.46180 | 10.95926 | 71° | 51km/h | 3454m | -4.7m/s | -1.2°C | 25.1% | 673.7hPa | 2.6V | 00:00:00 | 02:33:26 | 00:00:00 | |
| DL1NUX | 2026-08-31 13:03:01 | 49.46140 | 10.95758 | 70° | 51km/h | 3498m | -5m/s | -1.5°C | 22.8% | 670.1hPa | 2.6V | 07:45:04 | 02:33:17 | 00:00:00 | |
| DB0ND-19 | 2026-08-31 13:02:56 | 49.46136 | 10.95739 | 71° | 51km/h | 3503m | -4.7m/s | -1.5°C | 22.3% | 669.6hPa | 2.6V | 00:00:00 | 00:00:00 | 00:00:00 | |
| DL1NUX | 2026-08-31 13:02:55 | 49.46115 | 10.95647 | 70° | 49km/h | 3528m | -4.9m/s | -1.7°C | 22.8% | 667.6hPa | 2.6V | 07:45:10 | 02:33:11 | 00:00:00 | |
| DL9SK-14 | 2026-08-31 13:02:54 | 49.46132 | 10.95720 | 70° | 51km/h | 3508m | -5.1m/s | -1.6°C | 22.2% | 669.2hPa | 2.7V | 00:00:00 | 00:00:00 | 00:00:00 | |
| DO3MHA-12 | 2026-08-31 13:02:51 | 49.46119 | 10.95665 | 71° | 49km/h | 3523m | -4.8m/s | -1.6°C | 22.9% | 668.0hPa | 2.7V | 00:00:00 | 02:33:12 | 00:00:00 | |
| DO3MHA-11 | 2026-08-31 13:02:50 | 49.46115 | 10.95647 | 71° | 49km/h | 3528m | -4.8m/s | -1.7°C | 22.8% | 667.6hPa | 2.7V | 00:00:00 | 02:33:11 | 00:00:00 | |
| DO3MHA-12 | 2026-08-31 13:02:46 | 49.46098 | 10.95576 | 69° | 51km/h | 3548m | -4.9m/s | -1.8°C | 22.2% | 665.9hPa | 2.7V | 00:00:00 | 02:33:07 | 00:00:00 | |
| DO3MHA-11 | 2026-08-31 13:02:45 | 49.46093 | 10.95558 | 70° | 51km/h | 3553m | -4.9m/s | -1.8°C | 22.2% | 665.5hPa | 2.7V | 00:00:00 | 02:33:06 | 00:00:00 | |
| DO3MHA-12 | 2026-08-31 13:02:41 | 49.46076 | 10.95482 | 71° | 53km/h | 3573m | -4.8m/s | -2.0°C | 22.2% | 663.8hPa | 2.7V | 00:00:00 | 02:33:02 | 00:00:00 | |
| DF7PN | 2026-08-31 13:02:40 | 49.46067 | 10.95443 | 70° | 53km/h | 3583m | -4.8m/s | -2.0°C | 21.0% | 663.0hPa | 2.6V | 00:00:00 | 00:00:00 | 00:00:00 | |
| NBG1-10 | 2026-08-31 13:02:38 | 49.46063 | 10.95423 | 72° | 55km/h | 3588m | -4.9m/s | -2.0°C | 21.3% | 662.6hPa | 2.6V | 00:00:00 | 02:32:59 | 00:00:00 | |
| DO3MHA-12 | 2026-08-31 13:02:36 | 49.46055 | 10.95385 | 73° | 53km/h | 3598m | -4.8m/s | -2.0°C | 20.9% | 661.7hPa | 2.7V | 00:00:00 | 02:32:57 | 00:00:00 | |
| DO3MHA-11 | 2026-08-31 13:02:35 | 49.46051 | 10.95365 | 72° | 53km/h | 3602m | -4.4m/s | -2.0°C | 20.8% | 661.4hPa | 2.7V | 00:00:00 | 02:32:56 | 00:00:00 | |
| DO9HM | 2026-08-31 13:02:34 | 49.46047 | 10.95346 | 73° | 51km/h | 3607m | -4.7m/s | -2.0°C | 19.8% | 661.1hPa | 2.7V | 07:46:00 | 00:00:00 | 00:00:00 | |
| DO3MHA-12 | 2026-08-31 13:02:31 | 49.46035 | 10.95287 | 74° | 55km/h | 3621m | -4.6m/s | -1.7°C | 19.5% | 659.8hPa | 2.7V | 07:45:00 | 02:32:52 | 00:00:00 | |
| DO3MHA-11 | 2026-08-31 13:02:30 | 49.46031 | 10.95267 | 74° | 55km/h | 3625m | -4.4m/s | -1.6°C | 19.8% | 659.5hPa | 2.7V | 00:00:00 | 02:32:51 | 00:00:00 | |
| DB0UT-7 | 2026-08-31 13:02:26 | 49.46016 | 10.95186 | 75° | 57km/h | 3643m | -4.4m/s | -1.7°C | 20.0% | 658.0hPa | 2.7V | 00:00:00 | 00:00:00 | 00:00:00 | |
| DB0ND-19 | 2026-08-31 13:02:25 | 49.46008 | 10.95145 | 72° | 55km/h | 3652m | -4.8m/s | -1.8°C | 19.6% | 657.2hPa | 2.6V | 00:00:00 | 00:00:00 | 00:00:00 | |
| DL1NUX | 2026-08-31 13:02:24 | 49.45987 | 10.95042 | 73° | 57km/h | 3676m | -4.8m/s | -2°C | 20.6% | 655.3hPa | 2.6V | 07:45:41 | 02:32:40 | 00:00:00 | |
| DL9SK-14 | 2026-08-31 13:02:23 | 49.46003 | 10.95125 | 72° | 55km/h | 3657m | -4.6m/s | -1.8°C | 19.7% | 656.9hPa | 2.7V | 00:00:00 | 00:00:00 | 00:00:00 | |
| DO3MHA-12 | 2026-08-31 13:02:21 | 49.45995 | 10.95083 | 74° | 57km/h | 3666m | -4.8m/s | -1.8°C | 20.4% | 656.1hPa | 2.7V | 00:00:00 | 02:32:42 | 00:00:00 | |
| DO3MHA-11 | 2026-08-31 13:02:20 | 49.45991 | 10.95063 | 74° | 57km/h | 3671m | -4.6m/s | -1.9°C | 20.5% | 655.7hPa | 2.7V | 00:00:00 | 02:32:41 | 00:00:00 | |
| DL1NUX | 2026-08-31 13:02:19 | 49.45969 | 10.94935 | 75° | 58km/h | 3700m | -4.8m/s | -2°C | 21.4% | 653.4hPa | 2.7V | 07:45:46 | 02:32:35 | 00:00:00 | |
| DO3MHA-12 | 2026-08-31 13:02:16 | 49.45976 | 10.94978 | 76° | 58km/h | 3690m | -5.0m/s | -1.9°C | 21.3% | 654.2hPa | 2.7V | 00:00:00 | 02:32:37 | 00:00:00 | |
| DO3MHA-11 | 2026-08-31 13:02:15 | 49.45973 | 10.94957 | 76° | 58km/h | 3695m | -4.9m/s | -1.9°C | 21.3% | 653.6hPa | 2.7V | 07:45:00 | 02:32:36 | 00:00:00 | |
| DO9HM | 2026-08-31 13:02:13 | 49.45969 | 10.94935 | 76° | 58km/h | 3700m | -4.8m/s | -2.0°C | 20.8% | 653.4hPa | 2.7V | 07:46:00 | 00:00:00 | 00:00:00 | |
| DL1NUX | 2026-08-31 13:02:12 | 49.45951 | 10.94827 | 76° | 57km/h | 3724m | -4.6m/s | -2.2°C | 22.1% | 651.4hPa | 2.7V | 07:45:51 | 02:32:30 | 00:00:00 | |
| DO3MHA-12 | 2026-08-31 13:02:11 | 49.45958 | 10.94870 | 76° | 57km/h | 3714m | -4.7m/s | -2.1°C | 21.7% | 652.1hPa | 2.6V | 00:00:00 | 02:32:32 | 00:00:00 | |
| DO3MHA-11 | 2026-08-31 13:02:10 | 49.45955 | 10.94849 | 77° | 57km/h | 3719m | -5.0m/s | -2.1°C | 21.8% | 651.8hPa | 2.7V | 00:00:00 | 02:32:31 | 00:00:00 | |
| DF7PN | 2026-08-31 13:02:09 | 49.45948 | 10.94806 | 77° | 57km/h | 3728m | -4.7m/s | -2.2°C | 21.7% | 651.0hPa | 2.7V | 00:00:00 | 00:00:00 | 00:00:00 | |
| DL1NUX | 2026-08-31 13:02:06 | 49.45935 | 10.94720 | 76° | 57km/h | 3747m | -4.8m/s | -2.2°C | 25.3% | 649.4hPa | 2.7V | 07:45:56 | 02:32:25 | 00:00:00 | |
| DO3MHA-12 | 2026-08-31 13:02:06 | 49.45942 | 10.94763 | 77° | 57km/h | 3738m | -4.4m/s | -2.2°C | 23.8% | 650.2hPa | 2.7V | 00:00:00 | 02:32:27 | 00:00:00 | |
| NBG1-10 | 2026-08-31 13:02:05 | 49.45938 | 10.94742 | 78° | 58km/h | 3743m | -4.8m/s | -2.2°C | 25.3% | 649.9hPa | 2.7V | 00:00:00 | 02:32:26 | 00:00:00 | |
| DO3MHA-12 | 2026-08-31 13:02:01 | 49.45925 | 10.94655 | 77° | 58km/h | 3762m | -4.8m/s | -2.3°C | 25.5% | 648.2hPa | 2.7V | 00:00:00 | 02:32:22 | 00:00:00 | |
| DO3MHA-11 | 2026-08-31 13:02:00 | 49.45922 | 10.94633 | 77° | 58km/h | 3767m | -4.7m/s | -2.3°C | 25.2% | 647.9hPa | 2.7V | 00:00:00 | 02:32:21 | 00:00:00 | |
| DO3MHA-12 | 2026-08-31 13:01:56 | 49.45908 | 10.94545 | 77° | 57km/h | 3786m | -4.9m/s | -2.5°C | 25.3% | 646.2hPa | 2.7V | 00:00:00 | 02:32:17 | 00:00:00 | |
| DL1NUX | 2026-08-31 13:01:55 | 49.45890 | 10.94439 | 74° | 57km/h | 3811m | -5m/s | -2.7°C | 26% | 644.3hPa | 2.7V | 07:46:09 | 02:32:12 | 00:00:00 | |
| DB0ND-19 | 2026-08-31 13:01:53 | 49.45898 | 10.94481 | 75° | 57km/h | 3801m | -5.2m/s | -2.6°C | 24.9% | 645.0hPa | 2.7V | 00:00:00 | 00:00:00 | 00:00:00 | |
| DL9SK-14 | 2026-08-31 13:01:52 | 49.45894 | 10.94460 | 75° | 57km/h | 3806m | -5.2m/s | -2.7°C | 25.1% | 644.7hPa | 2.7V | 00:00:00 | 00:00:00 | 00:00:00 | |
| SO1NDE-10 | 2026-08-31 13:01:51 | 49.45890 | 10.94439 | 75° | 60km/h | 3811m | -4.9m/s | -2.7°C | 26.0% | 644.3hPa | 2.7V | 00:00:00 | 02:32:12 | 00:00:00 | |
| DL0LBS | 2026-08-31 13:01:50 | 49.45886 | 10.94418 | 77° | 57km/h | 3816m | -4.9m/s | -2.8°C | 25.6% | 643.8hPa | 2.7V | 07:46:00 | 00:00:00 | 00:00:00 | |
| DO3MHA-12 | 2026-08-31 13:01:46 | 49.45871 | 10.94332 | 74° | 58km/h | 3837m | -5.2m/s | -2.8°C | 24.5% | 642.3hPa | 2.7V | 00:00:00 | 02:32:07 | 00:00:00 | |
| DL1NUX | 2026-08-31 13:01:45 | 49.45860 | 10.94267 | 74° | 58km/h | 3853m | -5.3m/s | -2.9°C | 22.2% | 641hPa | 2.7V | 07:46:17 | 02:32:04 | 00:00:00 | |
| DO3MHA-11 | 2026-08-31 13:01:45 | 49.45868 | 10.94310 | 75° | 58km/h | 3842m | -5.2m/s | -2.8°C | 24.6% | 641.8hPa | 2.6V | 00:00:00 | 02:32:06 | 00:00:00 | |
| DO3MHA-12 | 2026-08-31 13:01:41 | 49.45851 | 10.94222 | 74° | 58km/h | 3863m | -4.9m/s | -2.9°C | 20.3% | 640.1hPa | 2.6V | 00:00:00 | 02:32:02 | 00:00:00 | |
| DO3MHA-11 | 2026-08-31 13:01:40 | 49.45847 | 10.94200 | 75° | 58km/h | 3868m | -5.0m/s | -2.9°C | 20.0% | 639.7hPa | 2.7V | 00:00:00 | 02:32:01 | 00:00:00 | |
| DF7PN | 2026-08-31 13:01:38 | 49.45835 | 10.94134 | 73° | 58km/h | 3884m | -5.4m/s | -3.1°C | 17.0% | 638.4hPa | 2.7V | 00:00:00 | 00:00:00 | 00:00:00 | |
| DO3MHA-12 | 2026-08-31 13:01:36 | 49.45830 | 10.94112 | 75° | 60km/h | 3889m | -4.9m/s | -3.1°C | 17.5% | 638.1hPa | 2.7V | 00:00:00 | 02:31:57 | 00:00:00 | |
| DL1NUX | 2026-08-31 13:01:35 | 49.45813 | 10.94023 | 74° | 60km/h | 3910m | -5.1m/s | -3.1°C | 17.8% | 636.3hPa | 2.7V | 07:46:28 | 02:31:53 | 00:00:00 | |
| DO3MHA-11 | 2026-08-31 13:01:35 | 49.45826 | 10.94090 | 74° | 60km/h | 3894m | -5.2m/s | -3.1°C | 17.7% | 637.5hPa | 2.6V | 07:46:00 | 02:31:56 | 00:00:00 | |
| NBG1-10 | 2026-08-31 13:01:32 | 49.45813 | 10.94023 | 75° | 62km/h | 3910m | -5.0m/s | -3.0°C | 17.8% | 636.3hPa | 2.6V | 00:00:00 | 02:31:53 | 00:00:00 | |
| DO3MHA-12 | 2026-08-31 13:01:31 | 49.45809 | 10.94000 | 75° | 60km/h | 3915m | -5.3m/s | -3.1°C | 17.2% | 635.9hPa | 2.6V | 00:00:00 | 02:31:52 | 00:00:00 | |
| DO3MHA-11 | 2026-08-31 13:01:30 | 49.45805 | 10.93977 | 75° | 60km/h | 3921m | -5.3m/s | -3.1°C | 17.0% | 635.4hPa | 2.6V | 00:00:00 | 02:31:51 | 00:00:00 | |
| DL0LBS | 2026-08-31 13:01:28 | 49.45801 | 10.93955 | 75° | 60km/h | 3926m | -5.2m/s | -3.2°C | 16.2% | 635.0hPa | 2.6V | 07:47:00 | 00:00:00 | 00:00:00 | |
| DL1NUX | 2026-08-31 13:01:26 | 49.45774 | 10.93818 | 72° | 60km/h | 3958m | -5.3m/s | -3.5°C | 16.1% | 632.4hPa | 2.6V | 07:46:37 | 02:31:44 | 00:00:00 | |
| DO3MHA-12 | 2026-08-31 13:01:26 | 49.45787 | 10.93886 | 73° | 62km/h | 3942m | -5.5m/s | -3.3°C | 16.5% | 633.7hPa | 2.7V | 00:00:00 | 02:31:47 | 00:00:00 | |
| DO3MHA-11 | 2026-08-31 13:01:25 | 49.45783 | 10.93864 | 74° | 62km/h | 3948m | -5.4m/s | -3.3°C | 16.4% | 633.2hPa | 2.6V | 00:00:00 | 02:31:46 | 00:00:00 | |
| DO3MHA-12 | 2026-08-31 13:01:21 | 49.45764 | 10.93773 | 73° | 60km/h | 3970m | -5.6m/s | -3.5°C | 16.2% | 631.4hPa | 2.6V | 00:00:00 | 02:31:42 | 00:00:00 | |
| DL1NUX | 2026-08-31 13:01:20 | 49.45745 | 10.93683 | 72° | 60km/h | 3992m | -5.6m/s | -3.8°C | 16.3% | 629.7hPa | 2.6V | 07:46:43 | 02:31:38 | 00:00:00 | |
| DO3MHA-11 | 2026-08-31 13:01:20 | 49.45759 | 10.93750 | 72° | 60km/h | 3975m | -5.5m/s | -3.6°C | 16.3% | 631.1hPa | 2.5V | 00:00:00 | 02:31:41 | 00:00:00 | |
| SO1NDE-10 | 2026-08-31 13:01:17 | 49.45745 | 10.93683 | 73° | 71km/h | 3992m | -5.5m/s | -3.7°C | 16.3% | 629.7hPa | 2.5V | 00:00:00 | 02:31:38 | 00:00:00 | |
| DO3MHA-12 | 2026-08-31 13:01:16 | 49.45740 | 10.93660 | 73° | 62km/h | 3997m | -5.4m/s | -3.7°C | 15.8% | 629.4hPa | 2.5V | 00:00:00 | 02:31:37 | 00:00:00 | |
| DO3MHA-11 | 2026-08-31 13:01:15 | 49.45736 | 10.93638 | 72° | 64km/h | 4003m | -5.5m/s | -3.8°C | 15.4% | 628.8hPa | 2.5V | 00:00:00 | 02:31:36 | 00:00:00 | |
| DL1NUX | 2026-08-31 13:01:14 | 49.45720 | 10.93568 | 70° | 64km/h | 4019m | -5.7m/s | -3.9°C | 16.1% | 627.6hPa | 2.5V | 07:46:48 | 02:31:33 | 00:00:00 | |
| DO3MHA-12 | 2026-08-31 13:01:11 | 49.45714 | 10.93544 | 70° | 64km/h | 4025m | -5.8m/s | -3.9°C | 14.3% | 627.0hPa | 2.6V | 07:46:00 | 02:31:32 | 00:00:00 | |
| DO3MHA-11 | 2026-08-31 13:01:10 | 49.45709 | 10.93521 | 70° | 64km/h | 4031m | -5.5m/s | -3.9°C | 13.7% | 626.6hPa | 2.7V | 00:00:00 | 02:31:31 | 00:00:00 | |
| DL0LBS | 2026-08-31 13:01:07 | 49.45697 | 10.93474 | 70° | 64km/h | 4043m | -5.7m/s | -4.0°C | 12.3% | 625.7hPa | 2.6V | 07:47:00 | 00:00:00 | 00:00:00 | |
| DO3MHA-12 | 2026-08-31 13:01:06 | 49.45686 | 10.93428 | 70° | 64km/h | 4054m | -5.4m/s | -4.0°C | 12.3% | 624.7hPa | 2.6V | 00:00:00 | 02:31:27 | 00:00:00 | |
| DO3MHA-12 | 2026-08-31 13:01:01 | 49.45657 | 10.93312 | 69° | 66km/h | 4082m | -5.9m/s | -4.3°C | 11.5% | 622.5hPa | 2.6V | 00:00:00 | 02:31:22 | 00:00:00 | |
| DO3MHA-11 | 2026-08-31 13:01:00 | 49.45651 | 10.93289 | 68° | 66km/h | 4088m | -6.1m/s | -4.3°C | 11.1% | 622.1hPa | 2.6V | 00:00:00 | 02:31:21 | 00:00:00 | |
| NBG1-10 | 2026-08-31 13:00:59 | 49.45645 | 10.93265 | 68° | 69km/h | 4094m | -6.0m/s | -4.3°C | 10.9% | 621.6hPa | 2.6V | 00:00:00 | 02:31:20 | 00:00:00 | |
| DO3MHA-12 | 2026-08-31 13:00:56 | 49.45625 | 10.93195 | 67° | 68km/h | 4112m | -5.6m/s | -4.4°C | 10.0% | 620.1hPa | 2.7V | 00:00:00 | 02:31:17 | 00:00:00 | |
| DO3MHA-11 | 2026-08-31 13:00:55 | 49.45618 | 10.93171 | 68° | 68km/h | 4118m | -5.8m/s | -4.4°C | 9.8% | 619.7hPa | 2.7V | 07:47:00 | 02:31:16 | 00:00:00 | |
| DO3MHA-12 | 2026-08-31 13:00:51 | 49.45592 | 10.93075 | 69° | 69km/h | 4141m | -5.8m/s | -4.6°C | 9.9% | 617.9hPa | 2.7V | 00:00:00 | 02:31:12 | 00:00:00 | |
| DO9HM | 2026-08-31 13:00:50 | 49.45586 | 10.93051 | 69° | 68km/h | 4147m | -5.9m/s | -4.7°C | 9.3% | 617.5hPa | 2.7V | 00:00:00 | 00:00:00 | 00:00:00 | |
| DL0LBS | 2026-08-31 13:00:47 | 49.45572 | 10.93001 | 68° | 69km/h | 4159m | -5.8m/s | -4.8°C | 9.3% | 616.6hPa | 2.7V | 07:47:00 | 00:00:00 | 00:00:00 | |
| DO3MHA-12 | 2026-08-31 13:00:46 | 49.45558 | 10.92952 | 68° | 69km/h | 4170m | -5.7m/s | -4.8°C | 9.4% | 615.5hPa | 2.7V | 00:00:00 | 02:31:07 | 00:00:00 | |
| DO3MHA-11 | 2026-08-31 13:00:45 | 49.45551 | 10.92927 | 67° | 69km/h | 4176m | -5.9m/s | -4.8°C | 9.4% | 615.0hPa | 2.7V | 00:00:00 | 02:31:06 | 00:00:00 | |
| DO3MHA-12 | 2026-08-31 13:00:41 | 49.45523 | 10.92827 | 67° | 69km/h | 4200m | -5.9m/s | -5.0°C | 9.2% | 613.2hPa | 2.7V | 00:00:00 | 02:31:02 | 00:00:00 | |
| DO3MHA-11 | 2026-08-31 13:00:40 | 49.45516 | 10.92802 | 67° | 69km/h | 4206m | -6.0m/s | -5.0°C | 9.2% | 612.7hPa | 2.7V | 00:00:00 | 02:31:01 | 00:00:00 | |
| DO3MHA-12 | 2026-08-31 13:00:36 | 49.45488 | 10.92703 | 67° | 73km/h | 4231m | -6.1m/s | -5.2°C | 8.9% | 610.8hPa | 2.6V | 00:00:00 | 02:30:57 | 00:00:00 | |
| DO3MHA-11 | 2026-08-31 13:00:35 | 49.45480 | 10.92677 | 67° | 73km/h | 4237m | -6.0m/s | -5.2°C | 8.9% | 610.4hPa | 2.6V | 00:00:00 | 02:30:56 | 00:00:00 | |
| DO3MHA-12 | 2026-08-31 13:00:31 | 49.45451 | 10.92574 | 66° | 73km/h | 4261m | -6.2m/s | -5.4°C | 8.3% | 608.4hPa | 2.6V | 07:47:00 | 02:30:52 | 00:00:00 | |
| DO3MHA-11 | 2026-08-31 13:00:30 | 49.45443 | 10.92548 | 66° | 73km/h | 4268m | -5.7m/s | -5.4°C | 8.0% | 607.9hPa | 2.6V | 00:00:00 | 02:30:51 | 00:00:00 | |
| DO9HM | 2026-08-31 13:00:29 | 49.45443 | 10.92548 | 67° | 73km/h | 4268m | -5.8m/s | -5.5°C | 7.7% | 607.9hPa | 2.6V | 00:00:00 | 00:00:00 | 00:00:00 | |
| DL0LBS | 2026-08-31 13:00:27 | 49.45428 | 10.92497 | 68° | 71km/h | 4279m | -6.2m/s | -5.5°C | 7.5% | 607.0hPa | 2.6V | 07:47:00 | 00:00:00 | 00:00:00 | |
| NBG1-10 | 2026-08-31 13:00:26 | 49.45414 | 10.92445 | 67° | 75km/h | 4292m | -6.3m/s | -5.5°C | 7.7% | 606.0hPa | 2.6V | 07:47:00 | 02:30:47 | 00:00:00 | |
| DL1NUX | 2026-08-31 13:00:24 | 49.45392 | 10.92366 | 67° | 75km/h | 4310m | -6.4m/s | -5.6°C | 7.2% | 604.7hPa | 2.6V | 07:47:37 | 02:30:44 | 00:00:00 | |
| DO3MHA-12 | 2026-08-31 13:00:21 | 49.45378 | 10.92313 | 68° | 73km/h | 4323m | -6.2m/s | -5.6°C | 7.0% | 603.7hPa | 2.6V | 00:00:00 | 02:30:42 | 00:00:00 | |
| DL1NUX | 2026-08-31 13:00:18 | 49.45357 | 10.92233 | 68° | 73km/h | 4341m | -6.2m/s | -5.8°C | 7% | 602.2hPa | 2.6V | 07:47:42 | 02:30:39 | 00:00:00 | |
| DL1NUX | 2026-08-31 13:00:18 | 49.45321 | 10.92100 | 66° | 75km/h | 4372m | -6.1m/s | -6°C | 6.9% | 599.8hPa | 2.7V | 07:47:47 | 02:30:34 | 00:00:00 | |
| DO3MHA-12 | 2026-08-31 13:00:17 | 49.45343 | 10.92180 | 69° | 75km/h | 4354m | -6.3m/s | -5.9°C | 6.9% | 601.1hPa | 2.7V | 00:00:00 | 02:30:37 | 00:00:00 | |
| DO3MHA-11 | 2026-08-31 13:00:15 | 49.45336 | 10.92153 | 69° | 75km/h | 4360m | -6.1m/s | -5.9°C | 6.9% | 600.7hPa | 2.7V | 07:47:00 | 02:30:36 | 00:00:00 | |
| DL1NUX | 2026-08-31 13:00:13 | 49.45283 | 10.91965 | 66° | 75km/h | 4404m | -6.7m/s | -6.3°C | 6.9% | 597.3hPa | 2.7V | 07:47:52 | 02:30:29 | 00:00:00 | |
| DO3MHA-12 | 2026-08-31 13:00:11 | 49.45306 | 10.92045 | 67° | 75km/h | 4385m | -6.2m/s | -6.1°C | 6.9% | 598.8hPa | 2.6V | 00:00:00 | 02:30:32 | 00:00:00 | |
| DO3MHA-11 | 2026-08-31 13:00:10 | 49.45298 | 10.92018 | 66° | 75km/h | 4391m | -6.3m/s | -6.2°C | 6.9% | 598.3hPa | 2.5V | 00:00:00 | 02:30:31 | 00:00:00 | |
| DO9HM | 2026-08-31 13:00:09 | 49.45298 | 10.92019 | 67° | 75km/h | 4391m | -6.4m/s | -6.2°C | 6.6% | 598.4hPa | 2.7V | 00:00:00 | 00:00:00 | 00:00:00 | |
| SO1NDE-10 | 2026-08-31 13:00:08 | 49.45283 | 10.91965 | 67° | 77km/h | 4404m | -6.7m/s | -6.2°C | 6.9% | 597.2hPa | 2.7V | 00:00:00 | 02:30:29 | 00:00:00 | |
| DO3MHA-12 | 2026-08-31 13:00:06 | 49.45268 | 10.91911 | 67° | 77km/h | 4417m | -6.0m/s | -6.3°C | 6.9% | 596.4hPa | 2.6V | 00:00:00 | 02:30:27 | 00:00:00 | |
| DO3MHA-11 | 2026-08-31 13:00:05 | 49.45260 | 10.91884 | 67° | 77km/h | 4423m | -6.5m/s | -6.3°C | 6.9% | 595.8hPa | 2.6V | 00:00:00 | 02:30:26 | 00:00:00 | |
| DF7PN | 2026-08-31 13:00:04 | 49.45252 | 10.91858 | 66° | 75km/h | 4429m | -6.5m/s | -6.4°C | 6.6% | 595.4hPa | 2.6V | 00:00:00 | 00:00:00 | 00:00:00 | |
| DO3MHA-12 | 2026-08-31 13:00:01 | 49.45229 | 10.91776 | 67° | 77km/h | 4449m | -6.4m/s | -6.4°C | 7.0% | 594.0hPa | 2.6V | 00:00:00 | 02:30:22 | 00:00:00 | |
| DO3MHA-11 | 2026-08-31 13:00:00 | 49.45221 | 10.91749 | 67° | 77km/h | 4455m | -6.2m/s | -6.5°C | 7.1% | 593.5hPa | 2.6V | 00:00:00 | 02:30:21 | 00:00:00 | |
| DO3MHA-12 | 2026-08-31 12:59:56 | 49.45190 | 10.91639 | 66° | 77km/h | 4481m | -6.6m/s | -6.6°C | 7.3% | 591.3hPa | 2.6V | 00:00:00 | 02:30:17 | 00:00:00 | |
| DO3MHA-11 | 2026-08-31 12:59:55 | 49.45182 | 10.91612 | 66° | 77km/h | 4487m | -6.8m/s | -6.7°C | 7.4% | 590.9hPa | 2.6V | 00:00:00 | 02:30:16 | 00:00:00 | |
| DL1NUX | 2026-08-31 12:59:54 | 49.45158 | 10.91531 | 66° | 77km/h | 4507m | -6.7m/s | -6.9°C | 7.5% | 589.5hPa | 2.5V | 07:48:08 | 02:30:13 | 00:00:00 | |
| DB0ND-19 | 2026-08-31 12:59:49 | 49.45134 | 10.91449 | 65° | 77km/h | 4528m | -7.2m/s | -7.1°C | 7.4% | 588.0hPa | 2.6V | 00:00:00 | 00:00:00 | 00:00:00 | |
| DL9SK-14 | 2026-08-31 12:59:48 | 49.45118 | 10.91394 | 66° | 77km/h | 4542m | -6.6m/s | -7.2°C | 7.5% | 586.9hPa | 2.6V | 00:00:00 | 00:00:00 | 00:00:00 | |
| DL1NUX | 2026-08-31 12:59:46 | 49.45110 | 10.91366 | 65° | 78km/h | 4549m | -7m/s | -7.3°C | 8% | 586.4hPa | 2.6V | 07:48:14 | 02:30:07 | 00:00:00 | |
| DL1NUX | 2026-08-31 12:59:46 | 49.45071 | 10.91230 | 66° | 77km/h | 4582m | -6.8m/s | -7.5°C | 7.5% | 583.9hPa | 2.6V | 07:48:19 | 02:30:02 | 00:00:00 | |
| DO3MHA-12 | 2026-08-31 12:59:46 | 49.45110 | 10.91366 | 66° | 77km/h | 4549m | -6.9m/s | -7.2°C | 8.0% | 586.4hPa | 2.5V | 00:00:00 | 02:30:07 | 00:00:00 | |
| DO3MHA-11 | 2026-08-31 12:59:45 | 49.45102 | 10.91338 | 66° | 77km/h | 4555m | -6.5m/s | -7.2°C | 7.8% | 585.9hPa | 2.5V | 00:00:00 | 02:30:06 | 00:00:00 | |
| DL1NUX | 2026-08-31 12:59:41 | 49.45032 | 10.91091 | 67° | 78km/h | 4616m | -6.6m/s | -7.8°C | 7.5% | 581.4hPa | 2.5V | 07:48:24 | 02:29:57 | 00:00:00 | |
| DO3MHA-12 | 2026-08-31 12:59:41 | 49.45071 | 10.91230 | 67° | 77km/h | 4582m | -6.8m/s | -7.4°C | 7.5% | 583.8hPa | 2.6V | 00:00:00 | 02:30:02 | 00:00:00 | |
| DO3MHA-11 | 2026-08-31 12:59:40 | 49.45063 | 10.91203 | 67° | 78km/h | 4589m | -6.8m/s | -7.5°C | 7.5% | 583.4hPa | 2.6V | 00:00:00 | 02:30:01 | 00:00:00 | |
| SO1NDE-10 | 2026-08-31 12:59:37 | 49.45040 | 10.91119 | 67° | 82km/h | 4609m | -6.6m/s | -7.7°C | 7.6% | 581.9hPa | 2.6V | 00:00:00 | 02:29:58 | 00:00:00 | |
| DO3MHA-12 | 2026-08-31 12:59:36 | 49.45032 | 10.91091 | 68° | 78km/h | 4616m | -6.6m/s | -7.7°C | 7.5% | 581.4hPa | 2.6V | 00:00:00 | 02:29:57 | 00:00:00 | |
| DO3MHA-11 | 2026-08-31 12:59:35 | 49.45024 | 10.91063 | 68° | 78km/h | 4622m | -6.6m/s | -7.8°C | 7.5% | 580.9hPa | 2.6V | 07:48:00 | 02:29:56 | 00:00:00 | |
| DL1NUX | 2026-08-31 12:59:34 | 49.44978 | 10.90894 | 67° | 80km/h | 4662m | -6.9m/s | -8.1°C | 6.9% | 577.9hPa | 2.6V | 07:48:31 | 02:29:50 | 00:00:00 | |
| DF7PN | 2026-08-31 12:59:33 | 49.45009 | 10.91007 | 67° | 77km/h | 4635m | -6.5m/s | -7.9°C | 6.8% | 579.9hPa | 2.6V | 00:00:00 | 00:00:00 | 00:00:00 | |
| DO3MHA-12 | 2026-08-31 12:59:31 | 49.44993 | 10.90951 | 68° | 78km/h | 4649m | -6.5m/s | -8.0°C | 7.0% | 578.9hPa | 2.6V | 00:00:00 | 02:29:52 | 00:00:00 | |
| DO3MHA-11 | 2026-08-31 12:59:30 | 49.44986 | 10.90923 | 67° | 78km/h | 4655m | -7.0m/s | -8.0°C | 7.1% | 578.4hPa | 2.6V | 00:00:00 | 02:29:51 | 00:00:00 | |
| DO9HM | 2026-08-31 12:59:27 | 49.44962 | 10.90838 | 68° | 80km/h | 4676m | -6.8m/s | -8.2°C | 6.4% | 576.9hPa | 2.6V | 07:48:00 | 00:00:00 | 00:00:00 | |
| DL0LBS | 2026-08-31 12:59:26 | 49.44962 | 10.90838 | 68° | 80km/h | 4676m | -6.8m/s | -8.2°C | 6.4% | 576.9hPa | 2.6V | 07:48:00 | 00:00:00 | 00:00:00 | |
| DL1NUX | 2026-08-31 12:59:24 | 49.44940 | 10.90751 | 68° | 80km/h | 4695m | -6.6m/s | -8.3°C | 6.7% | 575.4hPa | 2.6V | 07:48:36 | 02:29:45 | 00:00:00 | |
| DL1NUX | 2026-08-31 12:59:24 | 49.44903 | 10.90602 | 69° | 82km/h | 4728m | -6.9m/s | -8.3°C | 7% | 572.9hPa | 2.6V | 07:48:41 | 02:29:40 | 00:00:00 | |
| DO3MHA-12 | 2026-08-31 12:59:21 | 49.44918 | 10.90662 | 70° | 84km/h | 4715m | -6.5m/s | -8.2°C | 6.8% | 573.9hPa | 2.6V | 00:00:00 | 02:29:42 | 00:00:00 | |
| NBG1-10 | 2026-08-31 12:59:20 | 49.44910 | 10.90632 | 70° | 84km/h | 4721m | -6.8m/s | -8.3°C | 7.0% | 573.4hPa | 2.6V | 00:00:00 | 02:29:41 | 00:00:00 | |
| DB0ND-19 | 2026-08-31 12:59:18 | 49.44895 | 10.90572 | 69° | 82km/h | 4735m | -6.9m/s | -8.4°C | 6.6% | 572.4hPa | 2.5V | 00:00:00 | 00:00:00 | 00:00:00 | |
| DL9SK-14 | 2026-08-31 12:59:17 | 49.44880 | 10.90511 | 69° | 82km/h | 4748m | -6.8m/s | -8.5°C | 6.9% | 571.4hPa | 2.5V | 00:00:00 | 00:00:00 | 00:00:00 | |
| DO3MHA-12 | 2026-08-31 12:59:16 | 49.44880 | 10.90511 | 70° | 84km/h | 4749m | -6.8m/s | -8.5°C | 7.3% | 571.3hPa | 2.5V | 00:00:00 | 02:29:37 | 00:00:00 | |
| DL1NUX | 2026-08-31 12:59:15 | 49.44835 | 10.90328 | 69° | 84km/h | 4790m | -7.2m/s | -8.7°C | 7.6% | 568.5hPa | 2.5V | 07:48:50 | 02:29:31 | 00:00:00 | |
| DO3MHA-11 | 2026-08-31 12:59:15 | 49.44873 | 10.90481 | 70° | 84km/h | 4755m | -6.9m/s | -8.5°C | 7.3% | 570.8hPa | 2.5V | 00:00:00 | 02:29:36 | 00:00:00 | |
| DJTTGO | 2026-08-31 12:59:13 | 49.44865 | 10.90451 | 70° | 84km/h | 4762m | -7.0m/s | -8.6°C | 6.9% | 570.4hPa | 2.5V | 00:00:00 | 00:00:00 | 00:00:00 | |
| DO3MHA-12 | 2026-08-31 12:59:11 | 49.44843 | 10.90358 | 70° | 84km/h | 4783m | -6.9m/s | -8.6°C | 7.7% | 568.9hPa | 2.5V | 07:48:00 | 02:29:32 | 00:00:00 | |
| DL1NUX | 2026-08-31 12:59:10 | 49.44798 | 10.90172 | 71° | 86km/h | 4825m | -7.1m/s | -8.8°C | 7.2% | 565.8hPa | 2.5V | 07:48:55 | 02:29:26 | 00:00:00 | |
| DO3MHA-11 | 2026-08-31 12:59:10 | 49.44835 | 10.90328 | 70° | 86km/h | 4790m | -7.2m/s | -8.7°C | 7.6% | 568.4hPa | 2.5V | 00:00:00 | 02:29:31 | 00:00:00 | |
| SO1NDE-10 | 2026-08-31 12:59:07 | 49.44813 | 10.90235 | 71° | 86km/h | 4811m | -6.9m/s | -8.7°C | 7.3% | 566.8hPa | 2.5V | 00:00:00 | 02:29:28 | 00:00:00 | |
| DO3MHA-12 | 2026-08-31 12:59:06 | 49.44806 | 10.90204 | 71° | 84km/h | 4818m | -7.3m/s | -8.7°C | 7.2% | 566.3hPa | 2.5V | 00:00:00 | 02:29:27 | 00:00:00 | |
| DL1NUX | 2026-08-31 12:59:05 | 49.44764 | 10.90018 | 72° | 84km/h | 4859m | -6.7m/s | -9°C | 7.6% | 563.5hPa | 2.5V | 07:49:00 | 02:29:21 | 00:00:00 | |
| DO3MHA-11 | 2026-08-31 12:59:05 | 49.44798 | 10.90173 | 72° | 84km/h | 4825m | -7.0m/s | -8.8°C | 7.2% | 565.8hPa | 2.6V | 00:00:00 | 02:29:26 | 00:00:00 | |
| DB0UT-7 | 2026-08-31 12:59:02 | 49.44778 | 10.90079 | 72° | 86km/h | 4846m | -6.7m/s | -8.9°C | 7.4% | 564.4hPa | 2.6V | 00:00:00 | 00:00:00 | 00:00:00 | |
| DO3MHA-12 | 2026-08-31 12:59:01 | 49.44771 | 10.90048 | 72° | 84km/h | 4852m | -6.8m/s | -8.9°C | 7.5% | 563.8hPa | 2.5V | 00:00:00 | 02:29:22 | 00:00:00 | |
| DL1NUX | 2026-08-31 12:59:00 | 49.44732 | 10.89864 | 70° | 84km/h | 4894m | -6.9m/s | -9.2°C | 7.6% | 560.8hPa | 2.5V | 07:49:05 | 02:29:16 | 00:00:00 | |
| DO3MHA-11 | 2026-08-31 12:59:00 | 49.44764 | 10.90018 | 73° | 84km/h | 4859m | -6.7m/s | -8.9°C | 7.6% | 563.4hPa | 2.5V | 00:00:00 | 02:29:21 | 00:00:00 | |
| DO3MHA-12 | 2026-08-31 12:58:56 | 49.44739 | 10.89895 | 72° | 84km/h | 4887m | -7.0m/s | -9.1°C | 7.7% | 561.3hPa | 2.5V | 00:00:00 | 02:29:17 | 00:00:00 | |
| DL1NUX | 2026-08-31 12:58:55 | 49.44696 | 10.89711 | 70° | 86km/h | 4928m | -6.9m/s | -9.4°C | 6.5% | 558.4hPa | 2.5V | 07:49:10 | 02:29:11 | 00:00:00 | |
| DB0NH | 2026-08-31 12:58:55 | 49.44732 | 10.89864 | 71° | 88km/h | 4894m | -6.8m/s | -9.2°C | 7.6% | 560.8hPa | 2.5V | 00:00:00 | 02:29:16 | 00:00:00 | |
| DJTTGO | 2026-08-31 12:58:53 | 49.44718 | 10.89803 | 71° | 84km/h | 4908m | -7.2m/s | -9.3°C | 6.9% | 559.9hPa | 2.5V | 00:00:00 | 00:00:00 | 00:00:00 | |
| DO3MHA-12 | 2026-08-31 12:58:51 | 49.44703 | 10.89742 | 71° | 86km/h | 4922m | -6.6m/s | -9.3°C | 6.6% | 558.8hPa | 2.5V | 00:00:00 | 02:29:12 | 00:00:00 | |
| DL1NUX | 2026-08-31 12:58:50 | 49.44659 | 10.89552 | 70° | 88km/h | 4962m | -6.8m/s | -9.6°C | 6.2% | 556hPa | 2.5V | 07:49:15 | 02:29:06 | 00:00:00 | |
| DO3MHA-11 | 2026-08-31 12:58:50 | 49.44696 | 10.89710 | 71° | 86km/h | 4928m | -6.9m/s | -9.3°C | 6.5% | 558.4hPa | 2.5V | 00:00:00 | 02:29:11 | 00:00:00 | |
| NBG1-10 | 2026-08-31 12:58:47 | 49.44673 | 10.89616 | 70° | 89km/h | 4949m | -6.7m/s | -9.5°C | 6.2% | 556.9hPa | 2.5V | 00:00:00 | 02:29:08 | 00:00:00 | |
| DO3MHA-12 | 2026-08-31 12:58:46 | 49.44666 | 10.89584 | 71° | 88km/h | 4955m | -6.6m/s | -9.5°C | 6.2% | 556.4hPa | 2.5V | 00:00:00 | 02:29:07 | 00:00:00 | |
| DL1NUX | 2026-08-31 12:58:45 | 49.44621 | 10.89391 | 69° | 89km/h | 4996m | -7m/s | -9.7°C | 5.4% | 553.5hPa | 2.5V | 07:49:20 | 02:29:01 | 00:00:00 | |
| DO9HM | 2026-08-31 12:58:45 | 49.44658 | 10.89552 | 71° | 88km/h | 4962m | -6.8m/s | -9.6°C | 5.8% | 556.0hPa | 2.5V | 07:49:00 | 00:00:00 | 00:00:00 | |
| DL0LBS | 2026-08-31 12:58:44 | 49.44658 | 10.89552 | 71° | 88km/h | 4962m | -6.8m/s | -9.6°C | 5.8% | 556.0hPa | 2.5V | 07:49:00 | 00:00:00 | 00:00:00 | |
| DO3MHA-12 | 2026-08-31 12:58:41 | 49.44628 | 10.89424 | 71° | 89km/h | 4990m | -6.6m/s | -9.7°C | 5.6% | 553.9hPa | 2.5V | 00:00:00 | 02:29:02 | 00:00:00 | |
| DO3MHA-11 | 2026-08-31 12:58:40 | 49.44621 | 10.89391 | 70° | 91km/h | 4996m | -6.9m/s | -9.7°C | 5.4% | 553.4hPa | 2.5V | 00:00:00 | 02:29:01 | 00:00:00 | |
| DL1NUX | 2026-08-31 12:58:39 | 49.44572 | 10.89192 | 68° | 91km/h | 5036m | -7.1m/s | -9.6°C | 4.6% | 550.6hPa | 2.6V | 07:49:26 | 02:28:55 | 00:00:00 | |
| SO1NDE-10 | 2026-08-31 12:58:37 | 49.44597 | 10.89292 | 70° | 89km/h | 5016m | -6.8m/s | -9.6°C | 4.8% | 552.0hPa | 2.6V | 00:00:00 | 02:28:58 | 00:00:00 | |
| DO3MHA-12 | 2026-08-31 12:58:36 | 49.44588 | 10.89259 | 70° | 91km/h | 5023m | -6.4m/s | -9.5°C | 4.6% | 551.5hPa | 2.6V | 00:00:00 | 02:28:57 | 00:00:00 | |
| DB0UT-7 | 2026-08-31 12:58:32 | 49.44555 | 10.89126 | 69° | 89km/h | 5051m | -6.8m/s | -9.6°C | 4.8% | 549.6hPa | 2.6V | 07:49:00 | 02:28:53 | 00:00:00 | |
| DF7PN | 2026-08-31 12:58:31 | 49.44547 | 10.89093 | 68° | 91km/h | 5057m | -6.8m/s | -9.7°C | 4.7% | 549.1hPa | 2.6V | 00:00:00 | 00:00:00 | 00:00:00 | |
| DL1NUX | 2026-08-31 12:58:29 | 49.44487 | 10.88867 | 68° | 91km/h | 5105m | -7.1m/s | -9.9°C | 6.5% | 545.7hPa | 2.6V | 07:49:36 | 02:28:45 | 00:00:00 | |
| DO3MHA-12 | 2026-08-31 12:58:26 | 49.44504 | 10.88931 | 69° | 89km/h | 5091m | -6.7m/s | -9.8°C | 5.9% | 546.6hPa | 2.5V | 07:49:00 | 02:28:47 | 00:00:00 | |
| DB0NH | 2026-08-31 12:58:25 | 49.44495 | 10.88899 | 69° | 91km/h | 5098m | -6.9m/s | -9.8°C | 6.2% | 546.2hPa | 2.5V | 00:00:00 | 02:28:46 | 00:00:00 | |
| DO9HM | 2026-08-31 12:58:24 | 49.44496 | 10.88899 | 69° | 89km/h | 5098m | -6.9m/s | -9.9°C | 5.8% | 546.2hPa | 2.5V | 07:49:00 | 00:00:00 | 00:00:00 | |
| DL0LBS | 2026-08-31 12:58:23 | 49.44487 | 10.88867 | 69° | 91km/h | 5105m | -7.1m/s | -10.0°C | 6.1% | 545.7hPa | 2.5V | 07:49:00 | 00:00:00 | 00:00:00 | |
| DO3MHA-11 | 2026-08-31 12:58:22 | 49.44470 | 10.88802 | 68° | 89km/h | 5119m | -6.7m/s | -10.0°C | 7.4% | 544.7hPa | 2.5V | 00:00:00 | 02:28:43 | 00:00:00 | |
| DK5PH-5 | 2026-08-31 12:58:21 | 49.44461 | 10.88769 | 68° | 91km/h | 5126m | -6.8m/s | -10.0°C | 7.9% | 544.2hPa | 2.5V | 00:00:00 | 02:28:42 | 00:00:00 | |
| DL1NUX | 2026-08-31 12:58:19 | 49.44401 | 10.88544 | 67° | 89km/h | 5172m | -6.4m/s | -10.3°C | 13.4% | 540.9hPa | 2.6V | 07:49:46 | 02:28:35 | 00:00:00 | |
| DO3MHA-12 | 2026-08-31 12:58:16 | 49.44418 | 10.88608 | 68° | 89km/h | 5159m | -6.9m/s | -10.2°C | 10.7% | 541.9hPa | 2.5V | 00:00:00 | 02:28:37 | 00:00:00 | |
| DL9SK-14 | 2026-08-31 12:58:15 | 49.44401 | 10.88544 | 67° | 88km/h | 5172m | -6.4m/s | -10.4°C | 12.7% | 540.9hPa | 2.6V | 00:00:00 | 00:00:00 | 00:00:00 | |
| NBG1-10 | 2026-08-31 12:58:14 | 49.44401 | 10.88544 | 68° | 93km/h | 5172m | -6.4m/s | -10.3°C | 13.4% | 540.8hPa | 2.6V | 00:00:00 | 02:28:35 | 00:00:00 | |
| DO3MHA-11 | 2026-08-31 12:58:12 | 49.44384 | 10.88480 | 69° | 91km/h | 5186m | -6.7m/s | -10.4°C | 14.6% | 539.9hPa | 2.6V | 00:00:00 | 02:28:33 | 00:00:00 | |
| DL1NUX | 2026-08-31 12:58:09 | 49.44317 | 10.88218 | 69° | 91km/h | 5240m | -6.5m/s | -10.8°C | 14.5% | 536.2hPa | 2.6V | 07:49:56 | 02:28:25 | 00:00:00 | |
| SO1NDE-10 | 2026-08-31 12:58:07 | 49.44342 | 10.88317 | 69° | 93km/h | 5219m | -6.9m/s | -10.6°C | 17.6% | 537.6hPa | 2.6V | 00:00:00 | 02:28:28 | 00:00:00 | |
| DO3MHA-12 | 2026-08-31 12:58:06 | 49.44334 | 10.88284 | 69° | 91km/h | 5226m | -6.9m/s | -10.7°C | 15.7% | 537.2hPa | 2.6V | 00:00:00 | 02:28:27 | 00:00:00 | |
| DO9HM | 2026-08-31 12:58:04 | 49.44325 | 10.88251 | 69° | 91km/h | 5233m | -6.7m/s | -10.8°C | 12.2% | 536.6hPa | 2.6V | 07:50:00 | 00:00:00 | 00:00:00 | |
| DL0LBS | 2026-08-31 12:58:03 | 49.44317 | 10.88218 | 70° | 91km/h | 5240m | -6.5m/s | -10.8°C | 13.8% | 536.2hPa | 2.6V | 07:50:00 | 00:00:00 | 00:00:00 | |
| DF7PN | 2026-08-31 12:58:00 | 49.44274 | 10.88052 | 67° | 91km/h | 5272m | -6.8m/s | -11.1°C | 21.3% | 533.9hPa | 2.6V | 00:00:00 | 00:00:00 | 00:00:00 | |
| DL1NUX | 2026-08-31 12:57:58 | 49.44220 | 10.87854 | 66° | 93km/h | 5311m | -6.9m/s | -11.4°C | 19.6% | 531.1hPa | 2.6V | 07:50:07 | 02:28:14 | 00:00:00 | |
| DO3MHA-12 | 2026-08-31 12:57:56 | 49.44247 | 10.87953 | 67° | 93km/h | 5292m | -6.3m/s | -11.2°C | 21.8% | 532.5hPa | 2.5V | 00:00:00 | 02:28:17 | 00:00:00 | |
| DB0NH | 2026-08-31 12:57:55 | 49.44238 | 10.87920 | 68° | 95km/h | 5298m | -6.4m/s | -11.3°C | 20.7% | 532.1hPa | 2.5V | 00:00:00 | 02:28:16 | 00:00:00 | |
| DO3MHA-11 | 2026-08-31 12:57:52 | 49.44210 | 10.87821 | 66° | 95km/h | 5318m | -6.8m/s | -11.4°C | 21.7% | 530.7hPa | 2.5V | 07:50:00 | 02:28:13 | 00:00:00 | |
| DK5PH-5 | 2026-08-31 12:57:51 | 49.44201 | 10.87788 | 67° | 95km/h | 5325m | -6.8m/s | -11.4°C | 21.7% | 530.2hPa | 2.5V | 00:00:00 | 02:28:12 | 00:00:00 | |
| DO3MHA-12 | 2026-08-31 12:57:46 | 49.44152 | 10.87619 | 66° | 95km/h | 5358m | -6.6m/s | -11.7°C | 21.3% | 527.9hPa | 2.5V | 00:00:00 | 02:28:07 | 00:00:00 | |
| DO9HM | 2026-08-31 12:57:45 | 49.44142 | 10.87586 | 67° | 93km/h | 5365m | -6.8m/s | -11.8°C | 20.0% | 527.5hPa | 2.6V | 07:50:00 | 00:00:00 | 00:00:00 | |
| DL9SK-14 | 2026-08-31 12:57:44 | 49.44123 | 10.87519 | 65° | 95km/h | 5378m | -6.5m/s | -11.9°C | 18.4% | 526.6hPa | 2.6V | 00:00:00 | 00:00:00 | 00:00:00 | |
| DL1NUX | 2026-08-31 12:57:44 | 49.44123 | 10.87519 | 65° | 95km/h | 5378m | -6.5m/s | -11.9°C | 19.5% | 526.6hPa | 2.6V | 07:50:17 | 02:28:04 | 00:00:00 | |
| DO3MHA-11 | 2026-08-31 12:57:42 | 49.44113 | 10.87486 | 66° | 95km/h | 5385m | -6.3m/s | -11.9°C | 18.0% | 526.1hPa | 2.6V | 00:00:00 | 02:28:03 | 00:00:00 | |
| NBG1-10 | 2026-08-31 12:57:41 | 49.44103 | 10.87452 | 66° | 95km/h | 5391m | -6.3m/s | -11.9°C | 16.0% | 525.6hPa | 2.6V | 00:00:00 | 02:28:02 | 00:00:00 | |
| DL1NUX | 2026-08-31 12:57:38 | 49.44023 | 10.87182 | 65° | 97km/h | 5443m | -6.3m/s | -12.4°C | 19.1% | 521.9hPa | 2.6V | 07:50:27 | 02:27:54 | 00:00:00 | |
| SO1NDE-10 | 2026-08-31 12:57:37 | 49.44063 | 10.87318 | 66° | 95km/h | 5417m | -6.9m/s | -12.1°C | 18.3% | 523.8hPa | 2.5V | 07:50:00 | 02:27:58 | 00:00:00 | |
| DO3MHA-12 | 2026-08-31 12:57:36 | 49.44053 | 10.87284 | 66° | 97km/h | 5424m | -6.7m/s | -12.2°C | 18.6% | 523.3hPa | 2.5V | 00:00:00 | 02:27:57 | 00:00:00 | |
| DO3MHA-11 | 2026-08-31 12:57:32 | 49.44012 | 10.87148 | 66° | 95km/h | 5450m | -6.6m/s | -12.4°C | 19.2% | 521.5hPa | 2.5V | 00:00:00 | 02:27:53 | 00:00:00 | |
| DB0UT-7 | 2026-08-31 12:57:31 | 49.44003 | 10.87114 | 66° | 95km/h | 5457m | -6.7m/s | -12.5°C | 19.4% | 521.1hPa | 2.5V | 00:00:00 | 02:27:52 | 00:00:00 | |
| DF7PN | 2026-08-31 12:57:29 | 49.43972 | 10.87012 | 65° | 95km/h | 5477m | -6.9m/s | -12.7°C | 19.2% | 519.8hPa | 2.6V | 00:00:00 | 00:00:00 | 00:00:00 | |
| DO3MHA-12 | 2026-08-31 12:57:26 | 49.43951 | 10.86945 | 66° | 95km/h | 5490m | -6.8m/s | -12.8°C | 20.8% | 518.8hPa | 2.6V | 00:00:00 | 02:27:47 | 00:00:00 | |
| DL1NUX | 2026-08-31 12:57:24 | 49.43921 | 10.86845 | 65° | 93km/h | 5510m | -6.5m/s | -13°C | 21.7% | 517.5hPa | 2.6V | 07:50:37 | 02:27:44 | 00:00:00 | |
| DO3MHA-11 | 2026-08-31 12:57:22 | 49.43910 | 10.86812 | 66° | 93km/h | 5517m | -6.5m/s | -13.0°C | 21.9% | 517.0hPa | 2.6V | 00:00:00 | 02:27:43 | 00:00:00 | |
| DK5PH-5 | 2026-08-31 12:57:21 | 49.43901 | 10.86778 | 66° | 95km/h | 5524m | -6.2m/s | -13.1°C | 22.1% | 516.5hPa | 2.6V | 00:00:00 | 02:27:42 | 00:00:00 | |
| DL1NUX | 2026-08-31 12:57:16 | 49.43821 | 10.86514 | 64° | 93km/h | 5576m | -6.7m/s | -13.6°C | 23.5% | 513hPa | 2.6V | 07:50:47 | 02:27:34 | 00:00:00 | |
| DO3MHA-12 | 2026-08-31 12:57:16 | 49.43851 | 10.86613 | 66° | 95km/h | 5556m | -6.6m/s | -13.4°C | 23.0% | 514.3hPa | 2.5V | 00:00:00 | 02:27:37 | 00:00:00 | |
| DB0ND-19 | 2026-08-31 12:57:14 | 49.43831 | 10.86547 | 64° | 93km/h | 5569m | -6.9m/s | -13.5°C | 22.0% | 513.5hPa | 2.6V | 00:00:00 | 00:00:00 | 00:00:00 | |
| DO3MHA-11 | 2026-08-31 12:57:12 | 49.43811 | 10.86481 | 65° | 95km/h | 5582m | -6.9m/s | -13.6°C | 24.1% | 512.6hPa | 2.6V | 00:00:00 | 02:27:33 | 00:00:00 | |
| NBG1-10 | 2026-08-31 12:57:08 | 49.43770 | 10.86348 | 65° | 97km/h | 5610m | -6.8m/s | -13.7°C | 23.5% | 510.7hPa | 2.5V | 00:00:00 | 02:27:29 | 00:00:00 | |
| SO1NDE-10 | 2026-08-31 12:57:07 | 49.43760 | 10.86315 | 65° | 95km/h | 5616m | -6.6m/s | -13.8°C | 23.4% | 510.3hPa | 2.5V | 00:00:00 | 02:27:28 | 00:00:00 | |
| DO3MHA-12 | 2026-08-31 12:57:06 | 49.43749 | 10.86281 | 66° | 95km/h | 5623m | -6.7m/s | -13.8°C | 23.8% | 509.9hPa | 2.6V | 07:50:00 | 02:27:27 | 00:00:00 | |
| DL1NUX | 2026-08-31 12:57:05 | 49.43719 | 10.86182 | 65° | 93km/h | 5642m | -6.5m/s | -14°C | 27.3% | 508.6hPa | 2.6V | 07:50:57 | 02:27:24 | 00:00:00 | |
| DO9HM | 2026-08-31 12:57:03 | 49.43729 | 10.86215 | 66° | 95km/h | 5636m | -6.8m/s | -13.9°C | 24.3% | 509.1hPa | 2.6V | 07:51:00 | 00:00:00 | 00:00:00 | |
| DF7PN | 2026-08-31 12:56:58 | 49.43657 | 10.85984 | 64° | 95km/h | 5681m | -6.7m/s | -14.3°C | 31.0% | 506.0hPa | 2.6V | 00:00:00 | 00:00:00 | 00:00:00 | |
| DL1NUX | 2026-08-31 12:56:56 | 49.43616 | 10.85851 | 64° | 97km/h | 5708m | -6.8m/s | -14.6°C | 34.3% | 504.2hPa | 2.6V | 07:51:07 | 02:27:14 | 00:00:00 | |
| DO3MHA-12 | 2026-08-31 12:56:56 | 49.43647 | 10.85951 | 65° | 97km/h | 5688m | -6.5m/s | -14.4°C | 33.5% | 505.5hPa | 2.5V | 00:00:00 | 02:27:17 | 00:00:00 | |
| DB0NH | 2026-08-31 12:56:55 | 49.43636 | 10.85917 | 65° | 97km/h | 5694m | -6.8m/s | -14.4°C | 33.7% | 505.0hPa | 2.5V | 00:00:00 | 02:27:16 | 00:00:00 | |
| DJTTGO | 2026-08-31 12:56:53 | 49.43616 | 10.85851 | 65° | 97km/h | 5708m | -6.8m/s | -14.6°C | 32.4% | 504.2hPa | 2.5V | 00:00:00 | 00:00:00 | 00:00:00 | |
| DO3MHA-11 | 2026-08-31 12:56:52 | 49.43605 | 10.85817 | 65° | 97km/h | 5714m | -6.5m/s | -14.6°C | 33.9% | 503.7hPa | 2.5V | 00:00:00 | 02:27:13 | 00:00:00 | |
| DK5PH-5 | 2026-08-31 12:56:51 | 49.43595 | 10.85783 | 65° | 97km/h | 5721m | -6.6m/s | -14.6°C | 33.6% | 503.3hPa | 2.5V | 00:00:00 | 02:27:12 | 00:00:00 | |
| DO3MHA-12 | 2026-08-31 12:56:46 | 49.43541 | 10.85614 | 64° | 97km/h | 5754m | -6.3m/s | -14.9°C | 33.0% | 501.2hPa | 2.6V | 00:00:00 | 02:27:07 | 00:00:00 | |
| DL1NUX | 2026-08-31 12:56:44 | 49.43508 | 10.85513 | 63° | 97km/h | 5774m | -6.8m/s | -15.1°C | 32.5% | 499.9hPa | 2.5V | 07:51:17 | 02:27:04 | 00:00:00 | |
| DB0ND-19 | 2026-08-31 12:56:43 | 49.43508 | 10.85513 | 63° | 95km/h | 5773m | -6.8m/s | -15.1°C | 30.6% | 499.9hPa | 2.5V | 00:00:00 | 00:00:00 | 00:00:00 | |
| DL9SK-14 | 2026-08-31 12:56:42 | 49.43486 | 10.85446 | 62° | 97km/h | 5787m | -6.7m/s | -15.3°C | 30.5% | 499.0hPa | 2.5V | 00:00:00 | 00:00:00 | 00:00:00 | |
| DL0LBS | 2026-08-31 12:56:40 | 49.43486 | 10.85446 | 64° | 97km/h | 5787m | -6.7m/s | -15.3°C | 30.5% | 499.0hPa | 2.5V | 07:52:00 | 00:00:00 | 00:00:00 | |
| DL1NUX | 2026-08-31 12:56:38 | 49.43396 | 10.85176 | 62° | 99km/h | 5840m | -6.4m/s | -15.7°C | 33.2% | 495.6hPa | 2.5V | 07:51:27 | 02:26:54 | 00:00:00 | |
| SO1NDE-10 | 2026-08-31 12:56:37 | 49.43441 | 10.85311 | 63° | 97km/h | 5813m | -6.8m/s | -15.4°C | 32.4% | 497.3hPa | 2.6V | 00:00:00 | 02:26:58 | 00:00:00 | |
| DO3MHA-12 | 2026-08-31 12:56:36 | 49.43430 | 10.85277 | 63° | 99km/h | 5820m | -6.6m/s | -15.5°C | 32.4% | 496.8hPa | 2.6V | 00:00:00 | 02:26:57 | 00:00:00 | |
| NBG1-10 | 2026-08-31 12:56:35 | 49.43418 | 10.85243 | 64° | 97km/h | 5827m | -6.6m/s | -15.5°C | 32.5% | 496.3hPa | 2.6V | 00:00:00 | 02:26:56 | 00:00:00 | |
| DO3MHA-11 | 2026-08-31 12:56:32 | 49.43384 | 10.85142 | 63° | 99km/h | 5847m | -6.7m/s | -15.7°C | 33.7% | 495.1hPa | 2.6V | 07:51:00 | 02:26:53 | 00:00:00 | |
| DB0UT-7 | 2026-08-31 12:56:31 | 49.43373 | 10.85108 | 64° | 97km/h | 5853m | -6.5m/s | -15.8°C | 34.2% | 494.7hPa | 2.6V | 00:00:00 | 02:26:52 | 00:00:00 | |
| DF7PN | 2026-08-31 12:56:27 | 49.43317 | 10.84939 | 62° | 99km/h | 5885m | -6.7m/s | -16.1°C | 33.4% | 492.6hPa | 2.6V | 00:00:00 | 00:00:00 | 00:00:00 | |
| DO3MHA-12 | 2026-08-31 12:56:26 | 49.43317 | 10.84939 | 63° | 97km/h | 5885m | -6.6m/s | -16.1°C | 35.5% | 492.5hPa | 2.6V | 00:00:00 | 02:26:47 | 00:00:00 | |
| DH7VM-15 | 2026-08-31 12:56:25 | 49.43317 | 10.84939 | 64° | 99km/h | 5885m | -6.7m/s | -16.1°C | 33.4% | 492.6hPa | 2.6V | 00:00:00 | 00:00:00 | 00:00:00 | |
| DL1NUX | 2026-08-31 12:56:24 | 49.43283 | 10.84838 | 62° | 99km/h | 5905m | -7m/s | -16.3°C | 37.3% | 491.2hPa | 2.6V | 07:51:37 | 02:26:44 | 00:00:00 | |
| DF3TZ-5 | 2026-08-31 12:56:22 | 49.43271 | 10.84805 | 61° | 97km/h | 5912m | -6.8m/s | -16.4°C | 35.7% | 490.8hPa | 2.6V | 00:00:00 | 00:00:00 | 00:00:00 | |
| DK5PH-5 | 2026-08-31 12:56:21 | 49.43259 | 10.84771 | 63° | 97km/h | 5918m | -6.6m/s | -16.4°C | 38.1% | 490.4hPa | 2.6V | 00:00:00 | 02:26:42 | 00:00:00 | |
| DL0LBS | 2026-08-31 12:56:20 | 49.43259 | 10.84771 | 63° | 99km/h | 5918m | -6.6m/s | -16.4°C | 35.9% | 490.4hPa | 2.6V | 07:52:00 | 00:00:00 | 00:00:00 | |
| DL1NUX | 2026-08-31 12:56:14 | 49.43168 | 10.84505 | 61° | 95km/h | 5971m | -6.8m/s | -16.9°C | 41.7% | 487hPa | 2.6V | 07:51:47 | 02:26:34 | 00:00:00 | |
| DO3MHA-11 | 2026-08-31 12:56:12 | 49.43156 | 10.84472 | 62° | 95km/h | 5978m | -6.7m/s | -16.9°C | 42.4% | 486.5hPa | 2.6V | 00:00:00 | 02:26:33 | 00:00:00 | |
| DL9SK-14 | 2026-08-31 12:56:10 | 49.43133 | 10.84407 | 61° | 95km/h | 5991m | -6.6m/s | -17.1°C | 40.7% | 485.7hPa | 2.6V | 00:00:00 | 00:00:00 | 00:00:00 | |
| SO1NDE-10 | 2026-08-31 12:56:07 | 49.43098 | 10.84309 | 62° | 97km/h | 6010m | -6.5m/s | -17.3°C | 43.8% | 484.5hPa | 2.6V | 00:00:00 | 02:26:28 | 00:00:00 | |
| DO3MHA-12 | 2026-08-31 12:56:06 | 49.43087 | 10.84276 | 62° | 95km/h | 6017m | -6.3m/s | -17.3°C | 43.7% | 484.0hPa | 2.6V | 00:00:00 | 02:26:27 | 00:00:00 | |
| DL1NUX | 2026-08-31 12:56:04 | 49.43052 | 10.84179 | 61° | 95km/h | 6035m | -6.4m/s | -17.5°C | 44% | 482.9hPa | 2.6V | 07:51:57 | 02:26:24 | 00:00:00 | |
| DF7PN | 2026-08-31 12:55:56 | 49.42960 | 10.83915 | 62° | 95km/h | 6087m | -6.7m/s | -18.0°C | 42.2% | 479.5hPa | 2.6V | 00:00:00 | 00:00:00 | 00:00:00 | |
| DL1NUX | 2026-08-31 12:55:54 | 49.42937 | 10.83849 | 62° | 97km/h | 6100m | -6.5m/s | -18.1°C | 45.2% | 478.7hPa | 2.6V | 07:52:07 | 02:26:14 | 00:00:00 | |
| DO3MHA-11 | 2026-08-31 12:55:52 | 49.42926 | 10.83816 | 63° | 97km/h | 6107m | -6.3m/s | -18.1°C | 45.6% | 478.2hPa | 2.5V | 00:00:00 | 02:26:13 | 00:00:00 | |
| DK5PH-5 | 2026-08-31 12:55:51 | 49.42914 | 10.83783 | 62° | 99km/h | 6113m | -6.3m/s | -18.2°C | 45.7% | 477.8hPa | 2.5V | 07:52:00 | 02:26:12 | 00:00:00 | |
| DO3MHA-12 | 2026-08-31 12:55:46 | 49.42857 | 10.83618 | 62° | 97km/h | 6145m | -6.5m/s | -18.5°C | 46.5% | 475.7hPa | 2.5V | 07:52:00 | 02:26:07 | 00:00:00 | |
| DL1NUX | 2026-08-31 12:55:45 | 49.42823 | 10.83518 | 62° | 97km/h | 6165m | -6.5m/s | -18.7°C | 46.7% | 474.5hPa | 2.6V | 07:52:17 | 02:26:04 | 00:00:00 | |
| DO9HM | 2026-08-31 12:55:42 | 49.42812 | 10.83485 | 63° | 97km/h | 6171m | -6.8m/s | -18.8°C | 43.9% | 474.1hPa | 2.6V | 07:53:00 | 00:00:00 | 00:00:00 | |
| DB0ND-19 | 2026-08-31 12:55:41 | 49.42800 | 10.83452 | 62° | 97km/h | 6178m | -6.7m/s | -18.9°C | 44.0% | 473.7hPa | 2.6V | 00:00:00 | 00:00:00 | 00:00:00 | |
| DL9SK-14 | 2026-08-31 12:55:39 | 49.42777 | 10.83384 | 62° | 97km/h | 6191m | -6.4m/s | -18.9°C | 43.1% | 472.9hPa | 2.6V | 00:00:00 | 00:00:00 | 00:00:00 | |
| SO1NDE-10 | 2026-08-31 12:55:37 | 49.42754 | 10.83316 | 64° | 99km/h | 6204m | -6.6m/s | -19.0°C | 43.8% | 472.0hPa | 2.6V | 00:00:00 | 02:25:58 | 00:00:00 | |
| DO3MHA-12 | 2026-08-31 12:55:36 | 49.42743 | 10.83282 | 63° | 99km/h | 6211m | -6.8m/s | -19.0°C | 42.4% | 471.5hPa | 2.6V | 00:00:00 | 02:25:57 | 00:00:00 | |
| DL1NUX | 2026-08-31 12:55:34 | 49.42709 | 10.83181 | 62° | 99km/h | 6230m | -6.6m/s | -19.1°C | 41.5% | 470.4hPa | 2.6V | 07:52:27 | 02:25:54 | 00:00:00 | |
| DO3MHA-11 | 2026-08-31 12:55:32 | 49.42697 | 10.83147 | 63° | 99km/h | 6237m | -6.5m/s | -19.2°C | 42.2% | 469.9hPa | 2.6V | 00:00:00 | 02:25:53 | 00:00:00 | |
| DB0UT-7 | 2026-08-31 12:55:31 | 49.42686 | 10.83113 | 63° | 99km/h | 6244m | -6.9m/s | -19.2°C | 41.8% | 469.5hPa | 2.6V | 00:00:00 | 02:25:52 | 00:00:00 | |
| NBG1-10 | 2026-08-31 12:55:29 | 49.42662 | 10.83045 | 63° | 100km/h | 6257m | -6.6m/s | -19.3°C | 41.7% | 468.7hPa | 2.6V | 00:00:00 | 02:25:50 | 00:00:00 | |
| DO3MHA-12 | 2026-08-31 12:55:26 | 49.42628 | 10.82942 | 64° | 99km/h | 6277m | -6.7m/s | -19.5°C | 41.4% | 467.5hPa | 2.6V | 00:00:00 | 02:25:47 | 00:00:00 | |
| DL1NUX | 2026-08-31 12:55:24 | 49.42593 | 10.82839 | 63° | 99km/h | 6297m | -6.7m/s | -19.7°C | 41.7% | 466.2hPa | 2.6V | 07:52:37 | 02:25:44 | 00:00:00 | |
| DK5PH-5 | 2026-08-31 12:55:21 | 49.42571 | 10.82771 | 63° | 100km/h | 6311m | -6.9m/s | -19.8°C | 41.9% | 465.4hPa | 2.6V | 00:00:00 | 02:25:42 | 00:00:00 | |
| DL0LBS | 2026-08-31 12:55:19 | 49.42559 | 10.82737 | 64° | 97km/h | 6318m | -6.7m/s | -19.9°C | 39.2% | 465.0hPa | 2.6V | 07:53:00 | 00:00:00 | 00:00:00 | |
| DL1NUX | 2026-08-31 12:55:16 | 49.42479 | 10.82501 | 62° | 100km/h | 6363m | -6.6m/s | -20.3°C | 41.7% | 462.1hPa | 2.6V | 07:52:47 | 02:25:34 | 00:00:00 | |
| DK7TD | 2026-08-31 12:55:05 | 49.42385 | 10.82227 | 62° | 100km/h | 6417m | -6.8m/s | 0°C | 0% | 0hPa | 2.5V | 18:12:15 | 02:25:26 | 00:00:00 | |
| DL1NUX | 2026-08-31 12:55:04 | 49.42361 | 10.82157 | 62° | 102km/h | 6430m | -6.7m/s | -20.8°C | 42.1% | 457.9hPa | 2.6V | 07:52:57 | 02:25:24 | 00:00:00 | |
| DO3MHA-11 | 2026-08-31 12:55:02 | 49.42349 | 10.82122 | 63° | 100km/h | 6437m | -6.7m/s | -20.8°C | 42.2% | 457.5hPa | 2.6V | 00:00:00 | 02:25:23 | 00:00:00 | |
| DB0UT-7 | 2026-08-31 12:55:01 | 49.42337 | 10.82087 | 62° | 102km/h | 6444m | -6.6m/s | -20.9°C | 42.4% | 457.1hPa | 2.6V | 00:00:00 | 00:00:00 | 00:00:00 | |
| DO9HM | 2026-08-31 12:55:00 | 49.42337 | 10.82088 | 63° | 100km/h | 6444m | -6.6m/s | -20.9°C | 39.5% | 457.1hPa | 2.6V | 07:53:00 | 00:00:00 | 00:00:00 | |
| DL0LBS | 2026-08-31 12:54:58 | 49.42313 | 10.82018 | 63° | 100km/h | 6457m | -6.9m/s | -21.0°C | 39.8% | 456.3hPa | 2.6V | 07:53:00 | 00:00:00 | 00:00:00 | |
| DJ8HS-15 | 2026-08-31 12:54:57 | 49.42290 | 10.81949 | 63° | 104km/h | 6471m | -6.8m/s | -21.1°C | 44.0% | 455.4hPa | 2.6V | 00:00:00 | 02:25:18 | 00:00:00 | |
| NBG1-10 | 2026-08-31 12:54:56 | 49.42278 | 10.81914 | 62° | 102km/h | 6478m | -7.2m/s | -21.1°C | 44.0% | 455.0hPa | 2.6V | 00:00:00 | 02:25:17 | 00:00:00 | |
| DL1NUX | 2026-08-31 12:54:54 | 49.42242 | 10.81812 | 61° | 100km/h | 6498m | -7.1m/s | -21.3°C | 44% | 453.8hPa | 2.6V | 07:53:07 | 02:25:14 | 00:00:00 | |
| DK7TD | 2026-08-31 12:54:54 | 49.42254 | 10.81846 | 62° | 100km/h | 6492m | -6.9m/s | 0°C | 0% | 0hPa | 2.5V | 18:12:15 | 02:25:15 | 00:00:00 | |
| DF7PN | 2026-08-31 12:54:53 | 49.42242 | 10.81812 | 61° | 100km/h | 6498m | -7.1m/s | -21.3°C | 41.0% | 453.8hPa | 2.5V | 00:00:00 | 00:00:00 | 00:00:00 | |
| DF3TZ-5 | 2026-08-31 12:54:49 | 49.42192 | 10.81672 | 61° | 102km/h | 6526m | -7.0m/s | -21.6°C | 43.7% | 452.1hPa | 2.5V | 00:00:00 | 00:00:00 | 00:00:00 | |
| DO3MHA-12 | 2026-08-31 12:54:46 | 49.42155 | 10.81567 | 61° | 102km/h | 6547m | -6.8m/s | -21.6°C | 44.3% | 450.8hPa | 2.5V | 00:00:00 | 02:25:07 | 00:00:00 | |
| DL1NUX | 2026-08-31 12:54:44 | 49.42117 | 10.81462 | 61° | 102km/h | 6567m | -6.5m/s | -21.8°C | 43.7% | 449.6hPa | 2.6V | 07:53:17 | 02:25:04 | 00:00:00 | |
| BIOWL1-15 | 2026-08-31 12:54:41 | 49.42019 | 10.81181 | 62° | 104km/h | 6621m | -7.3m/s | -22.3°C | 44.4% | 446.2hPa | 2.5V | 07:53:51 | 02:24:56 | 00:00:00 | |
| DO9HM | 2026-08-31 12:54:41 | 49.42092 | 10.81393 | 63° | 102km/h | 6580m | -6.9m/s | -21.9°C | 39.7% | 448.7hPa | 2.6V | 07:53:00 | 00:00:00 | 00:00:00 | |
| DB0ND-19 | 2026-08-31 12:54:39 | 49.42068 | 10.81323 | 62° | 100km/h | 6593m | -6.8m/s | -22.0°C | 39.6% | 447.9hPa | 2.6V | 00:00:00 | 00:00:00 | 00:00:00 | |
| SO1NDE-10 | 2026-08-31 12:54:37 | 49.42044 | 10.81253 | 63° | 106km/h | 6607m | -6.9m/s | -22.1°C | 42.7% | 447.1hPa | 2.6V | 00:00:00 | 02:24:58 | 00:00:00 | |
| DL1NUX | 2026-08-31 12:54:36 | 49.41995 | 10.81109 | 62° | 106km/h | 6636m | -6.8m/s | -22.4°C | 43% | 445.3hPa | 2.6V | 07:53:27 | 02:24:54 | 00:00:00 | |
| DO3MHA-12 | 2026-08-31 12:54:36 | 49.42032 | 10.81217 | 63° | 104km/h | 6614m | -7.2m/s | -22.2°C | 42.8% | 446.6hPa | 2.5V | 00:00:00 | 02:24:57 | 00:00:00 | |
| DO3MHA-11 | 2026-08-31 12:54:32 | 49.41982 | 10.81073 | 63° | 104km/h | 6643m | -7.1m/s | -22.4°C | 43.5% | 444.9hPa | 2.5V | 00:00:00 | 02:24:53 | 00:00:00 | |
| DJTTGO | 2026-08-31 12:54:31 | 49.41970 | 10.81037 | 64° | 104km/h | 6650m | -7.0m/s | -22.5°C | 40.7% | 444.5hPa | 2.5V | 00:00:00 | 00:00:00 | 00:00:00 | |
| DO3MHA-12 | 2026-08-31 12:54:26 | 49.41908 | 10.80858 | 62° | 104km/h | 6685m | -7.0m/s | -22.7°C | 41.2% | 442.4hPa | 2.5V | 07:53:00 | 02:24:47 | 00:00:00 | |
| DL1NUX | 2026-08-31 12:54:24 | 49.41870 | 10.80752 | 61° | 102km/h | 6707m | -6.8m/s | -22.9°C | 39.9% | 441.2hPa | 2.5V | 07:53:37 | 02:24:44 | 00:00:00 | |
| BIOWL1-15 | 2026-08-31 12:54:22 | 49.41858 | 10.80717 | 61° | 104km/h | 6714m | -7.2m/s | -23°C | 41.6% | 440.8hPa | 2.5V | 07:53:51 | 02:24:43 | 00:00:00 | |
| DO3MHA-11 | 2026-08-31 12:54:22 | 49.41858 | 10.80717 | 61° | 106km/h | 6714m | -7.2m/s | -22.9°C | 39.9% | 440.8hPa | 2.6V | 00:00:00 | 02:24:43 | 00:00:00 | |
| DK5PH-5 | 2026-08-31 12:54:21 | 49.41845 | 10.80682 | 61° | 108km/h | 6721m | -6.9m/s | -23.0°C | 40.0% | 440.3hPa | 2.6V | 00:00:00 | 02:24:42 | 00:00:00 | |
| DO9HM | 2026-08-31 12:54:19 | 49.41832 | 10.80646 | 62° | 104km/h | 6728m | -6.8m/s | -23.1°C | 37.1% | 439.9hPa | 2.6V | 07:53:00 | 00:00:00 | 00:00:00 | |
| DF3TZ-5 | 2026-08-31 12:54:18 | 49.41781 | 10.80502 | 61° | 106km/h | 6755m | -6.8m/s | -23.3°C | 36.9% | 438.3hPa | 2.6V | 00:00:00 | 00:00:00 | 00:00:00 | |
| DL1NUX | 2026-08-31 12:54:16 | 49.41742 | 10.80392 | 61° | 110km/h | 6776m | -6.7m/s | -23.4°C | 37.4% | 437hPa | 2.6V | 07:53:47 | 02:24:34 | 00:00:00 | |
| BIOWL1-15 | 2026-08-31 12:54:12 | 49.41702 | 10.80282 | 61° | 110km/h | 6797m | -7.1m/s | -23.5°C | 33.7% | 435.7hPa | 2.5V | 07:53:51 | 02:24:31 | 00:00:00 | |
| DO3MHA-11 | 2026-08-31 12:54:12 | 49.41728 | 10.80355 | 61° | 110km/h | 6783m | -7.0m/s | -23.4°C | 36.1% | 436.5hPa | 2.5V | 00:00:00 | 02:24:33 | 00:00:00 | |
| DJ8HS-15 | 2026-08-31 12:54:11 | 49.41715 | 10.80319 | 62° | 110km/h | 6790m | -7.2m/s | -23.4°C | 33.3% | 436.1hPa | 2.6V | 07:53:00 | 02:24:32 | 00:00:00 | |
| DB0ND-19 | 2026-08-31 12:54:08 | 49.41675 | 10.80207 | 61° | 110km/h | 6811m | -7.4m/s | -23.6°C | 28.5% | 434.9hPa | 2.6V | 00:00:00 | 00:00:00 | 00:00:00 | |
| SO1NDE-10 | 2026-08-31 12:54:07 | 49.41662 | 10.80170 | 62° | 110km/h | 6819m | -7.1m/s | -23.6°C | 30.8% | 434.4hPa | 2.6V | 00:00:00 | 02:24:28 | 00:00:00 | |
| DL9SK-14 | 2026-08-31 12:54:06 | 49.41648 | 10.80133 | 61° | 110km/h | 6826m | -7.3m/s | -23.7°C | 28.1% | 434.1hPa | 2.6V | 00:00:00 | 00:00:00 | 00:00:00 | |
| DL1NUX | 2026-08-31 12:54:04 | 49.41608 | 10.80021 | 60° | 110km/h | 6847m | -7m/s | -23.8°C | 26.9% | 432.8hPa | 2.6V | 07:53:57 | 02:24:24 | 00:00:00 | |
| BIOWL1-15 | 2026-08-31 12:53:59 | 49.41497 | 10.79728 | 60° | 110km/h | 6904m | -7.3m/s | -24.1°C | 27.5% | 429.4hPa | 2.6V | 07:54:42 | 02:24:16 | 00:00:00 | |
| DL1NUX | 2026-08-31 12:53:58 | 49.41470 | 10.79653 | 60° | 111km/h | 6919m | -7.4m/s | -24.1°C | 26.2% | 428.6hPa | 2.5V | 07:54:07 | 02:24:14 | 00:00:00 | |
| DM0DOS-11 | 2026-08-31 12:53:56 | 49.41456 | 10.79616 | 60° | 110km/h | 6926m | -7m/s | -24.1°C | 27.3% | 428.2hPa | 2.5V | 07:54:08 | 02:24:13 | 00:00:00 | |
| BIOWL1-15 | 2026-08-31 12:53:49 | 49.41385 | 10.79431 | 59° | 111km/h | 6962m | -7.2m/s | -24.4°C | 28.1% | 426.1hPa | 2.5V | 07:54:42 | 02:24:08 | 00:00:00 | |
| DF3TZ-5 | 2026-08-31 12:53:47 | 49.41371 | 10.79394 | 59° | 110km/h | 6969m | -7.1m/s | -24.4°C | 21.3% | 425.7hPa | 2.6V | 00:00:00 | 00:00:00 | 00:00:00 | |
| DL1NUX | 2026-08-31 12:53:46 | 49.41328 | 10.79283 | 60° | 110km/h | 6990m | -6.9m/s | -24.6°C | 23.1% | 424.4hPa | 2.6V | 07:54:17 | 02:24:04 | 00:00:00 | |
| DO3MHA-12 | 2026-08-31 12:53:46 | 49.41371 | 10.79394 | 60° | 111km/h | 6969m | -7.0m/s | -24.4°C | 23.4% | 425.6hPa | 2.5V | 00:00:00 | 02:24:07 | 00:00:00 | |
| DM0DOS-11 | 2026-08-31 12:53:42 | 49.41299 | 10.79209 | 59° | 113km/h | 7004m | -7.2m/s | -24.7°C | 26% | 423.6hPa | 2.5V | 07:54:19 | 02:24:02 | 00:00:00 | |
| BIOWL1-15 | 2026-08-31 12:53:37 | 49.41214 | 10.78982 | 60° | 113km/h | 7047m | -7.4m/s | -25°C | 32.5% | 421hPa | 2.5V | 07:54:42 | 02:23:56 | 00:00:00 | |
| DM0DOS-11 | 2026-08-31 12:53:37 | 49.41141 | 10.78790 | 60° | 113km/h | 7083m | -7m/s | -25.4°C | 31% | 418.9hPa | 2.5V | 07:54:30 | 02:23:51 | 00:00:00 | |
| DO3MHA-12 | 2026-08-31 12:53:36 | 49.41228 | 10.79020 | 60° | 113km/h | 7040m | -7.4m/s | -24.9°C | 30.2% | 421.4hPa | 2.6V | 00:00:00 | 02:23:57 | 00:00:00 | |
| DL1NUX | 2026-08-31 12:53:34 | 49.41184 | 10.78905 | 60° | 115km/h | 7061m | -7.4m/s | -25.2°C | 30.5% | 420.2hPa | 2.6V | 07:54:27 | 02:23:54 | 00:00:00 | |
| DO3MHA-11 | 2026-08-31 12:53:32 | 49.41170 | 10.78867 | 61° | 113km/h | 7069m | -7.3m/s | -25.2°C | 30.7% | 419.7hPa | 2.6V | 00:00:00 | 02:23:53 | 00:00:00 | |
| DB0UT-7 | 2026-08-31 12:53:31 | 49.41155 | 10.78828 | 61° | 111km/h | 7076m | -7.3m/s | -25.3°C | 30.9% | 419.2hPa | 2.6V | 00:00:00 | 02:23:52 | 00:00:00 | |
| DL1NUX | 2026-08-31 12:53:28 | 49.41014 | 10.78449 | 60° | 111km/h | 7150m | -7.6m/s | -26°C | 31.9% | 415hPa | 2.6V | 07:54:39 | 02:23:42 | 00:00:00 | |
| BIOWL1-15 | 2026-08-31 12:53:25 | 49.41000 | 10.78412 | 60° | 111km/h | 7158m | -7.6m/s | -26.1°C | 34.1% | 414.6hPa | 2.6V | 07:54:42 | 02:23:41 | 00:00:00 | |
| DM0DOS-11 | 2026-08-31 12:53:25 | 49.41014 | 10.78449 | 60° | 111km/h | 7150m | -7.6m/s | -26°C | 31.9% | 415hPa | 2.6V | 07:54:39 | 02:23:42 | 00:00:00 | |
| BIOWL9-15 | 2026-08-31 12:53:23 | 49.41042 | 10.78524 | 60° | 110km/h | 7135m | -7.3m/s | -25.9°C | 29.1% | 416.0hPa | 2.6V | 00:00:00 | 00:00:00 | 00:00:00 | |
| DO3MHA-11 | 2026-08-31 12:53:22 | 49.41028 | 10.78487 | 61° | 111km/h | 7143m | -7.6m/s | -25.9°C | 31.9% | 415.5hPa | 2.6V | 00:00:00 | 02:23:43 | 00:00:00 | |
| DK5PH-5 | 2026-08-31 12:53:21 | 49.41014 | 10.78449 | 61° | 111km/h | 7151m | -7.5m/s | -26.0°C | 31.9% | 415.0hPa | 2.6V | 00:00:00 | 02:23:42 | 00:00:00 | |
| DF7PN | 2026-08-31 12:53:20 | 49.41000 | 10.78412 | 59° | 110km/h | 7158m | -7.6m/s | -26.1°C | 29.2% | 414.6hPa | 2.6V | 00:00:00 | 00:00:00 | 00:00:00 | |
| DO9HM | 2026-08-31 12:53:18 | 49.40986 | 10.78374 | 61° | 111km/h | 7166m | -7.6m/s | -26.2°C | 29.2% | 414.2hPa | 2.6V | 07:54:00 | 00:00:00 | 00:00:00 | |
| NBG1-10 | 2026-08-31 12:53:17 | 49.40958 | 10.78300 | 61° | 111km/h | 7181m | -7.4m/s | -26.2°C | 32.0% | 413.3hPa | 2.6V | 00:00:00 | 02:23:38 | 00:00:00 | |
| DO3MHA-12 | 2026-08-31 12:53:16 | 49.40944 | 10.78262 | 61° | 111km/h | 7188m | -7.3m/s | -26.3°C | 32.0% | 412.8hPa | 2.6V | 00:00:00 | 02:23:37 | 00:00:00 | |
| DL0LBS | 2026-08-31 12:53:15 | 49.40944 | 10.78262 | 62° | 110km/h | 7188m | -7.4m/s | -26.4°C | 29.2% | 412.9hPa | 2.6V | 07:55:00 | 00:00:00 | 00:00:00 | |
| DL1NUX | 2026-08-31 12:53:14 | 49.40902 | 10.78150 | 60° | 113km/h | 7211m | -7.9m/s | -26.5°C | 26.4% | 411.7hPa | 2.6V | 07:54:47 | 02:23:34 | 00:00:00 | |
| DM0DOS-11 | 2026-08-31 12:53:14 | 49.40874 | 10.78075 | 60° | 111km/h | 7227m | -7.7m/s | -26.6°C | 21.1% | 410.8hPa | 2.5V | 07:54:49 | 02:23:32 | 00:00:00 | |
| BIOWL1-15 | 2026-08-31 12:53:13 | 49.40902 | 10.78150 | 60° | 113km/h | 7211m | -7.9m/s | -26.5°C | 28.3% | 411.7hPa | 2.6V | 07:56:24 | 02:23:34 | 00:00:00 | |
| DK7TD | 2026-08-31 12:53:11 | 49.40875 | 10.78075 | 60° | 111km/h | 7227m | -7.7m/s | -26.6°C | 23% | 410.8hPa | 2.5V | 07:57:15 | 02:23:32 | 00:00:00 | |
| DJ8HS-15 | 2026-08-31 12:53:11 | 49.40875 | 10.78075 | 61° | 111km/h | 7227m | -7.6m/s | -26.6°C | 21.1% | 410.8hPa | 2.6V | 00:00:00 | 02:23:32 | 00:00:00 | |
| DL1NUX | 2026-08-31 12:53:08 | 49.40760 | 10.77777 | 58° | 111km/h | 7287m | -7.6m/s | -27°C | 17% | 407.3hPa | 2.6V | 07:54:57 | 02:23:24 | 00:00:00 | |
| BIOWL1-15 | 2026-08-31 12:53:03 | 49.40760 | 10.77777 | 58° | 111km/h | 7287m | -7.6m/s | -27°C | 18.6% | 407.3hPa | 2.6V | 07:56:24 | 02:23:24 | 00:00:00 | |
| DM0DOS-11 | 2026-08-31 12:53:03 | 49.40731 | 10.77704 | 57° | 111km/h | 7302m | -7.4m/s | -27.1°C | 17% | 406.5hPa | 2.5V | 07:54:59 | 02:23:22 | 00:00:00 | |
| DK7TD | 2026-08-31 12:52:57 | 49.40670 | 10.77559 | 57° | 111km/h | 7332m | -7.6m/s | -27.3°C | 17.7% | 404.8hPa | 2.6V | 07:57:15 | 02:23:18 | 00:00:00 | |
| DM0DOS-11 | 2026-08-31 12:52:57 | 49.40563 | 10.77307 | 56° | 110km/h | 7385m | -7.7m/s | -27.4°C | 14% | 401.9hPa | 2.5V | 07:55:10 | 02:23:11 | 00:00:00 | |
| DL1NUX | 2026-08-31 12:52:56 | 49.40609 | 10.77415 | 56° | 111km/h | 7362m | -7.5m/s | -27.4°C | 14.8% | 403.1hPa | 2.5V | 07:55:07 | 02:23:14 | 00:00:00 | |
| BIOWL1-15 | 2026-08-31 12:52:53 | 49.40563 | 10.77307 | 56° | 110km/h | 7385m | -7.7m/s | -27.4°C | 15.3% | 401.9hPa | 2.5V | 07:56:24 | 02:23:11 | 00:00:00 | |
| DF7PN | 2026-08-31 12:52:51 | 49.40547 | 10.77272 | 56° | 108km/h | 7392m | -7.3m/s | -27.4°C | 11.9% | 401.4hPa | 2.5V | 00:00:00 | 00:00:00 | 00:00:00 | |
| DO3MHA-12 | 2026-08-31 12:52:46 | 49.40501 | 10.77165 | 56° | 111km/h | 7414m | -7.5m/s | -27.5°C | 13.5% | 400.2hPa | 2.5V | 00:00:00 | 02:23:07 | 00:00:00 | |
| DM0DOS-11 | 2026-08-31 12:52:45 | 49.40421 | 10.76987 | 55° | 111km/h | 7451m | -7.4m/s | -27.6°C | 13.6% | 398.1hPa | 2.6V | 07:55:19 | 02:23:02 | 00:00:00 | |
| DL1NUX | 2026-08-31 12:52:44 | 49.40453 | 10.77058 | 56° | 111km/h | 7436m | -7.4m/s | -27.6°C | 13.6% | 398.9hPa | 2.6V | 07:55:17 | 02:23:04 | 00:00:00 | |
| BIOWL1-15 | 2026-08-31 12:52:43 | 49.40421 | 10.76987 | 56° | 111km/h | 7451m | -7.4m/s | -27.6°C | 15.1% | 398.1hPa | 2.6V | 07:56:24 | 02:23:02 | 00:00:00 | |
| DO3MHA-11 | 2026-08-31 12:52:42 | 49.40437 | 10.77022 | 56° | 111km/h | 7444m | -7.4m/s | -27.6°C | 13.7% | 398.5hPa | 2.6V | 00:00:00 | 02:23:03 | 00:00:00 | |
| DL1NUX | 2026-08-31 12:52:38 | 49.40293 | 10.76700 | 55° | 111km/h | 7509m | -7.5m/s | -27.9°C | 15.4% | 394.7hPa | 2.5V | 07:55:27 | 02:22:54 | 00:00:00 | |
| SO1NDE-10 | 2026-08-31 12:52:37 | 49.40357 | 10.76843 | 56° | 111km/h | 7480m | -7.2m/s | -27.6°C | 13.9% | 396.4hPa | 2.6V | 00:00:00 | 02:22:58 | 00:00:00 | |
| DO3MHA-12 | 2026-08-31 12:52:36 | 49.40341 | 10.76808 | 56° | 111km/h | 7487m | -7.5m/s | -27.7°C | 14.4% | 395.9hPa | 2.6V | 00:00:00 | 02:22:57 | 00:00:00 | |
| DB0ND-19 | 2026-08-31 12:52:35 | 49.40309 | 10.76736 | 55° | 111km/h | 7502m | -7.5m/s | -27.9°C | 13.4% | 395.2hPa | 2.6V | 00:00:00 | 00:00:00 | 00:00:00 | |
| DM0DOS-11 | 2026-08-31 12:52:34 | 49.40261 | 10.76628 | 55° | 111km/h | 7524m | -7.4m/s | -28°C | 16% | 393.9hPa | 2.6V | 07:55:29 | 02:22:52 | 00:00:00 | |
| BIOWL1-15 | 2026-08-31 12:52:31 | 49.40229 | 10.76557 | 55° | 111km/h | 7540m | -7.8m/s | -28.1°C | 19.2% | 393.1hPa | 2.5V | 07:56:24 | 02:22:50 | 00:00:00 | |
| DB0UT-7 | 2026-08-31 12:52:30 | 49.40245 | 10.76592 | 56° | 111km/h | 7532m | -7.5m/s | -28.1°C | 16.5% | 393.5hPa | 2.6V | 00:00:00 | 02:22:51 | 00:00:00 | |
| DM0DOS-11 | 2026-08-31 12:52:27 | 49.40085 | 10.76237 | 56° | 110km/h | 7608m | -7.9m/s | -28.7°C | 28.1% | 389.4hPa | 2.6V | 07:55:40 | 02:22:41 | 00:00:00 | |
| DO3MHA-12 | 2026-08-31 12:52:26 | 49.40180 | 10.76451 | 55° | 111km/h | 7562m | -7.5m/s | -28.3°C | 19.9% | 391.9hPa | 2.5V | 00:00:00 | 02:22:47 | 00:00:00 | |
| DL1NUX | 2026-08-31 12:52:24 | 49.40133 | 10.76344 | 55° | 111km/h | 7585m | -7.9m/s | -28.5°C | 22.3% | 390.6hPa | 2.5V | 07:55:37 | 02:22:44 | 00:00:00 | |
| BIOWL1-15 | 2026-08-31 12:52:20 | 49.40085 | 10.76237 | 56° | 111km/h | 7608m | -7.9m/s | -28.7°C | 30.6% | 389.4hPa | 2.6V | 07:56:24 | 02:22:41 | 00:00:00 | |
| DK7TD | 2026-08-31 12:52:17 | 49.40037 | 10.76131 | 55° | 111km/h | 7632m | -7.9m/s | -28.8°C | 32% | 388.2hPa | 2.5V | 07:57:15 | 02:22:38 | 00:00:00 | |
| DO3MHA-12 | 2026-08-31 12:52:17 | 49.40021 | 10.76095 | 56° | 111km/h | 7640m | -7.6m/s | -28.8°C | 29.9% | 387.7hPa | 2.6V | 00:00:00 | 02:22:37 | 00:00:00 | |
| DF2AP-13 | 2026-08-31 12:52:16 | 49.40021 | 10.76095 | 56° | 115km/h | 7640m | -7.6m/s | -28.8°C | 29.9% | 387.7hPa | 2.6V | 00:00:00 | 02:22:37 | 00:00:00 | |
| DM0DOS-11 | 2026-08-31 12:52:15 | 49.39942 | 10.75918 | 55° | 111km/h | 7678m | -7.8m/s | -29.2°C | 31.2% | 385.7hPa | 2.6V | 07:55:49 | 02:22:32 | 00:00:00 | |
| DL1NUX | 2026-08-31 12:52:14 | 49.39974 | 10.75989 | 55° | 111km/h | 7663m | -7.5m/s | -29.1°C | 29.1% | 386.5hPa | 2.5V | 07:55:47 | 02:22:34 | 00:00:00 | |
| DL0LBS | 2026-08-31 12:52:13 | 49.39990 | 10.76025 | 56° | 111km/h | 7655m | -7.9m/s | -29.0°C | 26.4% | 386.9hPa | 2.6V | 07:56:00 | 00:00:00 | 00:00:00 | |
| DO3MHA-11 | 2026-08-31 12:52:12 | 49.39958 | 10.75954 | 56° | 113km/h | 7670m | -7.5m/s | -29.1°C | 29.6% | 386.1hPa | 2.6V | 00:00:00 | 02:22:33 | 00:00:00 | |
| NBG1-10 | 2026-08-31 12:52:11 | 49.39942 | 10.75918 | 56° | 115km/h | 7678m | -7.7m/s | -29.1°C | 31.2% | 385.7hPa | 2.5V | 00:00:00 | 02:22:32 | 00:00:00 | |
| SO1NDE-10 | 2026-08-31 12:52:07 | 49.39879 | 10.75774 | 56° | 117km/h | 7709m | -7.7m/s | -29.4°C | 33.7% | 384.0hPa | 2.5V | 00:00:00 | 02:22:28 | 00:00:00 | |
| DL1NUX | 2026-08-31 12:52:06 | 49.39814 | 10.75630 | 55° | 113km/h | 7739m | -7.5m/s | -29.8°C | 34.6% | 382.4hPa | 2.5V | 07:55:57 | 02:22:24 | 00:00:00 | |
| DK7TD | 2026-08-31 12:52:05 | 49.39847 | 10.75702 | 56° | 113km/h | 7724m | -7.9m/s | -29.6°C | 36.7% | 383.3hPa | 2.6V | 07:57:15 | 02:22:26 | 00:00:00 | |
| DM0DOS-11 | 2026-08-31 12:52:04 | 49.39782 | 10.75557 | 55° | 115km/h | 7754m | -7.5m/s | -29.9°C | 35.1% | 381.6hPa | 2.6V | 07:55:59 | 02:22:22 | 00:00:00 | |
| DB0ND-19 | 2026-08-31 12:52:04 | 49.39831 | 10.75666 | 55° | 113km/h | 7732m | -7.6m/s | -29.7°C | 31.2% | 382.9hPa | 2.5V | 00:00:00 | 00:00:00 | 00:00:00 | |
| DO3MHA-11 | 2026-08-31 12:52:02 | 49.39798 | 10.75593 | 56° | 115km/h | 7747m | -7.4m/s | -29.8°C | 34.8% | 381.9hPa | 2.5V | 00:00:00 | 02:22:23 | 00:00:00 | |
| DB0UT-7 | 2026-08-31 12:52:00 | 49.39766 | 10.75519 | 56° | 117km/h | 7762m | -7.7m/s | -29.9°C | 35.2% | 381.2hPa | 2.5V | 00:00:00 | 00:00:00 | 00:00:00 | |
| DO3MHA-12 | 2026-08-31 12:51:56 | 49.39700 | 10.75370 | 57° | 117km/h | 7793m | -7.7m/s | -30.2°C | 34.7% | 379.4hPa | 2.5V | 00:00:00 | 02:22:17 | 00:00:00 | |
| DL1NUX | 2026-08-31 12:51:54 | 49.39652 | 10.75257 | 56° | 117km/h | 7816m | -7.7m/s | -30.4°C | 34.4% | 378.4hPa | 2.5V | 07:56:07 | 02:22:14 | 00:00:00 | |
| DK7TD | 2026-08-31 12:51:54 | 49.39668 | 10.75295 | 57° | 115km/h | 7808m | -7.5m/s | -30.4°C | 37.2% | 378.6hPa | 2.6V | 07:57:15 | 02:22:15 | 00:00:00 | |
| DM0DOS-11 | 2026-08-31 12:51:53 | 49.39619 | 10.75182 | 56° | 117km/h | 7831m | -7.5m/s | -30.5°C | 31.1% | 377.5hPa | 2.5V | 07:56:09 | 02:22:12 | 00:00:00 | |
| BIOWL9-15 | 2026-08-31 12:51:51 | 49.39554 | 10.75032 | 56° | 117km/h | 7863m | -8.2m/s | -30.7°C | 27.0% | 375.9hPa | 2.6V | 00:00:00 | 00:00:00 | 00:00:00 | |
| DM0DOS-11 | 2026-08-31 12:51:47 | 49.39456 | 10.74804 | 56° | 119km/h | 7909m | -7.5m/s | -31.1°C | 30.2% | 373.4hPa | 2.6V | 07:56:19 | 02:22:02 | 00:00:00 | |
| DF7PN | 2026-08-31 12:51:47 | 49.39554 | 10.75032 | 56° | 117km/h | 7863m | -8.2m/s | -30.7°C | 27.0% | 375.9hPa | 2.5V | 00:00:00 | 00:00:00 | 00:00:00 | |
| BIOWL1-15 | 2026-08-31 12:51:47 | 49.39521 | 10.74956 | 57° | 117km/h | 7878m | -7.5m/s | -30.9°C | 32.6% | 375.1hPa | 2.6V | 07:56:24 | 02:22:06 | 00:00:00 | |
| DL1NUX | 2026-08-31 12:51:46 | 49.39489 | 10.74881 | 56° | 119km/h | 7893m | -8.1m/s | -31°C | 29.8% | 374.3hPa | 2.5V | 07:56:17 | 02:22:04 | 00:00:00 | |
| DK7TD | 2026-08-31 12:51:41 | 49.39456 | 10.74804 | 56° | 119km/h | 7909m | -7.5m/s | -31.1°C | 32.8% | 373.4hPa | 2.6V | 07:57:15 | 02:22:02 | 00:00:00 | |
| BIOWL1-15 | 2026-08-31 12:51:35 | 49.39356 | 10.74574 | 56° | 117km/h | 7955m | -7.6m/s | -31.5°C | 32.8% | 370.9hPa | 2.6V | 07:57:15 | 02:21:56 | 00:00:00 | |
| DL1NUX | 2026-08-31 12:51:35 | 49.39323 | 10.74498 | 56° | 117km/h | 7970m | -7.8m/s | -31.7°C | 30.8% | 370.1hPa | 2.5V | 07:56:27 | 02:21:54 | 00:00:00 | |
| DM0DOS-11 | 2026-08-31 12:51:33 | 49.39242 | 10.74308 | 56° | 119km/h | 8009m | -7.9m/s | -32°C | 30.9% | 368.1hPa | 2.6V | 07:56:32 | 02:21:49 | 00:00:00 | |
| BIOWL1-15 | 2026-08-31 12:51:27 | 49.39193 | 10.74192 | 57° | 119km/h | 8032m | -7.9m/s | -32.2°C | 33.8% | 366.9hPa | 2.5V | 07:57:15 | 02:21:46 | 00:00:00 | |
| DO3MHA-12 | 2026-08-31 12:51:26 | 49.39210 | 10.74230 | 58° | 119km/h | 8025m | -7.6m/s | -32.0°C | 31.1% | 367.3hPa | 2.6V | 00:00:00 | 02:21:47 | 00:00:00 | |
| DL1NUX | 2026-08-31 12:51:24 | 49.39161 | 10.74114 | 56° | 119km/h | 8048m | -7.7m/s | -32.3°C | 31.9% | 366.1hPa | 2.6V | 07:56:37 | 02:21:44 | 00:00:00 | |
| DO3MHA-11 | 2026-08-31 12:51:22 | 49.39144 | 10.74075 | 58° | 120km/h | 8056m | -7.7m/s | -32.3°C | 31.8% | 365.6hPa | 2.6V | 00:00:00 | 02:21:43 | 00:00:00 | |
| DM0DOS-11 | 2026-08-31 12:51:21 | 49.39080 | 10.73918 | 57° | 119km/h | 8087m | -7.5m/s | -32.6°C | 27.5% | 364.1hPa | 2.6V | 07:56:42 | 02:21:39 | 00:00:00 | |
| DK7TD | 2026-08-31 12:51:16 | 49.39049 | 10.73839 | 58° | 120km/h | 8102m | -8m/s | -32.7°C | 26.8% | 363.3hPa | 2.5V | 07:57:15 | 02:21:37 | 00:00:00 | |
| BIOWL1-15 | 2026-08-31 12:51:15 | 49.38891 | 10.73439 | 59° | 120km/h | 8179m | -7.9m/s | -33.3°C | 32.9% | 359.2hPa | 2.6V | 07:57:15 | 02:21:27 | 00:00:00 | |
| DL1NUX | 2026-08-31 12:51:15 | 49.39001 | 10.73720 | 58° | 120km/h | 8125m | -7.8m/s | -32.9°C | 29.9% | 362.1hPa | 2.6V | 07:56:47 | 02:21:34 | 00:00:00 | |
| DO3MHA-11 | 2026-08-31 12:51:12 | 49.38986 | 10.73680 | 59° | 120km/h | 8133m | -7.8m/s | -32.9°C | 30.5% | 361.6hPa | 2.6V | 07:56:00 | 02:21:33 | 00:00:00 | |
| DM0DOS-11 | 2026-08-31 12:51:09 | 49.38923 | 10.73519 | 58° | 122km/h | 8164m | -7.8m/s | -33.2°C | 31.2% | 360hPa | 2.6V | 07:56:52 | 02:21:29 | 00:00:00 | |
| DK7TD | 2026-08-31 12:51:05 | 49.38876 | 10.73399 | 59° | 120km/h | 8187m | -7.9m/s | -33.4°C | 32.5% | 358.8hPa | 2.5V | 07:57:15 | 02:21:26 | 00:00:00 | |
| DL1NUX | 2026-08-31 12:51:04 | 49.38844 | 10.73319 | 58° | 120km/h | 8202m | -7.8m/s | -33.5°C | 31.3% | 358.1hPa | 2.5V | 07:56:57 | 02:21:24 | 00:00:00 | |
| DB0ND-19 | 2026-08-31 12:51:02 | 49.38828 | 10.73280 | 58° | 120km/h | 8210m | -8.0m/s | -33.6°C | 28.5% | 357.7hPa | 2.5V | 00:00:00 | 00:00:00 | 00:00:00 | |
| DL9SK-14 | 2026-08-31 12:51:00 | 49.38780 | 10.73161 | 59° | 117km/h | 8234m | -7.7m/s | -33.8°C | 29.4% | 356.5hPa | 2.5V | 00:00:00 | 00:00:00 | 00:00:00 | |
| DM0DOS-11 | 2026-08-31 12:50:59 | 49.38765 | 10.73122 | 59° | 119km/h | 8242m | -7.8m/s | -33.9°C | 33.2% | 356.1hPa | 2.5V | 07:57:02 | 02:21:19 | 00:00:00 | |
| BIOWL1-15 | 2026-08-31 12:50:55 | 49.38719 | 10.73003 | 60° | 120km/h | 8265m | -8m/s | -34.1°C | 35.6% | 354.9hPa | 2.6V | 07:57:15 | 02:21:16 | 00:00:00 | |
| DB0NH | 2026-08-31 12:50:55 | 49.38719 | 10.73003 | 60° | 120km/h | 8265m | -7.9m/s | -34.1°C | 33.5% | 354.8hPa | 2.6V | 00:00:00 | 02:21:16 | 00:00:00 | |
| DO3MHA-11 | 2026-08-31 12:50:52 | 49.38674 | 10.72882 | 61° | 120km/h | 8289m | -7.7m/s | -34.3°C | 33.5% | 353.7hPa | 2.6V | 00:00:00 | 02:21:13 | 00:00:00 | |
| DK5PH-5 | 2026-08-31 12:50:51 | 49.38659 | 10.72842 | 61° | 120km/h | 8296m | -7.4m/s | -34.4°C | 33.5% | 353.3hPa | 2.6V | 00:00:00 | 02:21:12 | 00:00:00 | |
| DM0DOS-11 | 2026-08-31 12:50:49 | 49.38614 | 10.72720 | 60° | 120km/h | 8319m | -7.7m/s | -34.6°C | 34.5% | 352.2hPa | 2.5V | 07:57:12 | 02:21:09 | 00:00:00 | |
| DL1NUX | 2026-08-31 12:50:48 | 49.38536 | 10.72519 | 59° | 120km/h | 8358m | -7.8m/s | -34.9°C | 36.7% | 350.2hPa | 2.5V | 07:57:17 | 02:21:04 | 00:00:00 | |
| DK7TD | 2026-08-31 12:50:45 | 49.38567 | 10.72599 | 59° | 120km/h | 8343m | -7.8m/s | -34.8°C | 38.1% | 351hPa | 2.6V | 07:57:15 | 02:21:06 | 00:00:00 | |
| BIOWL1-15 | 2026-08-31 12:50:44 | 49.38460 | 10.72316 | 61° | 122km/h | 8398m | -8.2m/s | -35.2°C | 36.5% | 348.2hPa | 2.5V | 07:58:06 | 02:20:59 | 00:00:00 | |
| DM0DOS-11 | 2026-08-31 12:50:43 | 49.38460 | 10.72316 | 60° | 122km/h | 8398m | -8.2m/s | -35.2°C | 34.7% | 348.2hPa | 2.5V | 07:57:22 | 02:20:59 | 00:00:00 | |
| DK7TD | 2026-08-31 12:50:34 | 49.38401 | 10.72150 | 62° | 122km/h | 8429m | -8m/s | -35.4°C | 35.7% | 346.6hPa | 2.5V | 07:58:06 | 02:20:55 | 00:00:00 | |
| DL1NUX | 2026-08-31 12:50:33 | 49.38372 | 10.72067 | 61° | 122km/h | 8444m | -8.1m/s | -35.5°C | 33.7% | 345.9hPa | 2.6V | 07:57:28 | 02:20:53 | 00:00:00 | |
| BIOWL1-15 | 2026-08-31 12:50:32 | 49.38372 | 10.72067 | 62° | 122km/h | 8444m | -8.1m/s | -35.5°C | 35.5% | 345.9hPa | 2.6V | 07:58:06 | 02:20:53 | 00:00:00 | |
| DK7TD | 2026-08-31 12:50:24 | 49.38255 | 10.71734 | 62° | 120km/h | 8509m | -8m/s | -35.9°C | 40.3% | 342.8hPa | 2.5V | 07:58:06 | 02:20:45 | 00:00:00 | |
| DL1NUX | 2026-08-31 12:50:23 | 49.38172 | 10.71484 | 63° | 120km/h | 8557m | -7.9m/s | -36.3°C | 50.5% | 340.4hPa | 2.5V | 07:57:42 | 02:20:39 | 00:00:00 | |
| BIOWL1-15 | 2026-08-31 12:50:21 | 49.38213 | 10.71610 | 63° | 120km/h | 8533m | -8m/s | -36.1°C | 44.5% | 341.6hPa | 2.6V | 07:58:06 | 02:20:42 | 00:00:00 | |
| DK7TD | 2026-08-31 12:50:13 | 49.38103 | 10.71275 | 63° | 122km/h | 8596m | -7.8m/s | -36.7°C | 57.4% | 338.4hPa | 2.5V | 07:58:06 | 02:20:34 | 00:00:00 | |
| DO3MHA-11 | 2026-08-31 12:50:12 | 49.38088 | 10.71233 | 63° | 122km/h | 8605m | -8.1m/s | -36.7°C | 57.7% | 338.0hPa | 2.6V | 00:00:00 | 02:20:33 | 00:00:00 | |
| DM0DOS-11 | 2026-08-31 12:50:11 | 49.38033 | 10.71064 | 63° | 122km/h | 8636m | -7.8m/s | -37°C | 56.4% | 336.6hPa | 2.6V | 07:57:52 | 02:20:29 | 00:00:00 | |
| DL0LBS | 2026-08-31 12:50:11 | 49.38074 | 10.71190 | 64° | 124km/h | 8612m | -8.1m/s | -36.8°C | 51.4% | 337.7hPa | 2.6V | 07:58:00 | 00:00:00 | 00:00:00 | |
| DF3TZ-5 | 2026-08-31 12:50:09 | 49.38046 | 10.71106 | 62° | 120km/h | 8628m | -8.0m/s | -36.9°C | 50.6% | 336.9hPa | 2.6V | 00:00:00 | 00:00:00 | 00:00:00 | |
| SO1NDE-10 | 2026-08-31 12:50:07 | 49.38018 | 10.71022 | 64° | 122km/h | 8644m | -8.1m/s | -37.0°C | 56.5% | 336.1hPa | 2.6V | 00:00:00 | 02:20:28 | 00:00:00 | |
| DO3MHA-12 | 2026-08-31 12:50:06 | 49.38004 | 10.70980 | 63° | 120km/h | 8652m | -7.7m/s | -37.1°C | 56.8% | 335.7hPa | 2.6V | 00:00:00 | 02:20:27 | 00:00:00 | |
| DM0DOS-11 | 2026-08-31 12:50:03 | 49.37894 | 10.70645 | 63° | 122km/h | 8715m | -8m/s | -37.7°C | 58.6% | 332.7hPa | 2.6V | 07:58:02 | 02:20:19 | 00:00:00 | |
| DL1NUX | 2026-08-31 12:50:03 | 49.37936 | 10.70771 | 63° | 122km/h | 8692m | -8m/s | -37.5°C | 58.4% | 333.7hPa | 2.5V | 07:57:59 | 02:20:22 | 00:00:00 | |
| DK7TD | 2026-08-31 12:50:03 | 49.37949 | 10.70813 | 63° | 120km/h | 8684m | -8.2m/s | -37.4°C | 57.7% | 334.2hPa | 2.6V | 07:58:06 | 02:20:23 | 00:00:00 | |
| BIOWL1-15 | 2026-08-31 12:50:02 | 49.37922 | 10.70729 | 64° | 120km/h | 8700m | -7.8m/s | -37.5°C | 57.8% | 333.4hPa | 2.5V | 07:58:06 | 02:20:21 | 00:00:00 | |
| DB0ND-19 | 2026-08-31 12:50:00 | 49.37908 | 10.70687 | 62° | 120km/h | 8708m | -7.9m/s | -37.6°C | 52.2% | 333.1hPa | 2.5V | 00:00:00 | 00:00:00 | 00:00:00 | |
| DL9SK-14 | 2026-08-31 12:49:58 | 49.37880 | 10.70603 | 63° | 120km/h | 8723m | -7.9m/s | -37.7°C | 51.8% | 332.3hPa | 2.5V | 00:00:00 | 00:00:00 | 00:00:00 | |
| SONCRA | 2026-08-31 12:49:57 | 49.37866 | 10.70562 | 62° | 119km/h | 8731m | -7.9m/s | -37.8°C | 51.3% | 331.9hPa | 2.5V | 00:00:00 | 00:00:00 | 00:00:00 | |
| DO3MHA-12 | 2026-08-31 12:49:56 | 49.37866 | 10.70562 | 63° | 122km/h | 8731m | -7.9m/s | -37.8°C | 57.8% | 331.8hPa | 2.5V | 00:00:00 | 02:20:17 | 00:00:00 | |
| DB0NH | 2026-08-31 12:49:55 | 49.37852 | 10.70520 | 63° | 126km/h | 8739m | -7.9m/s | -37.8°C | 57.3% | 331.5hPa | 2.5V | 00:00:00 | 02:20:16 | 00:00:00 | |
| DO9HM | 2026-08-31 12:49:54 | 49.37838 | 10.70479 | 64° | 120km/h | 8747m | -7.8m/s | -38.0°C | 50.4% | 331.1hPa | 2.5V | 07:58:00 | 00:00:00 | 00:00:00 | |
| DL1NUX | 2026-08-31 12:49:53 | 49.37795 | 10.70355 | 61° | 120km/h | 8771m | -8.3m/s | -38.1°C | 50.3% | 330hPa | 2.5V | 07:58:09 | 02:20:12 | 00:00:00 | |
| DK7TD | 2026-08-31 12:49:52 | 49.37809 | 10.70396 | 62° | 120km/h | 8763m | -8.1m/s | -38.1°C | 52.8% | 330.4hPa | 2.5V | 07:58:57 | 02:20:13 | 00:00:00 | |
| DO3MHA-11 | 2026-08-31 12:49:52 | 49.37809 | 10.70396 | 62° | 124km/h | 8763m | -8.0m/s | -38.0°C | 53.3% | 330.3hPa | 2.6V | 07:58:00 | 02:20:13 | 00:00:00 | |
| DK5PH-5 | 2026-08-31 12:49:51 | 49.37795 | 10.70355 | 62° | 128km/h | 8771m | -8.2m/s | -38.1°C | 50.3% | 330.0hPa | 2.6V | 00:00:00 | 02:20:12 | 00:00:00 | |
| DM0DOS-11 | 2026-08-31 12:49:50 | 49.37751 | 10.70229 | 61° | 126km/h | 8795m | -8.4m/s | -38.3°C | 39.8% | 328.8hPa | 2.6V | 07:58:12 | 02:20:09 | 00:00:00 | |
| BIOWL1-15 | 2026-08-31 12:49:47 | 49.37736 | 10.70187 | 62° | 124km/h | 8803m | -7.7m/s | -38.3°C | 37.4% | 328.4hPa | 2.6V | 07:58:57 | 02:20:08 | 00:00:00 | |
| DO3MHA-12 | 2026-08-31 12:49:46 | 49.37721 | 10.70144 | 62° | 128km/h | 8811m | -7.7m/s | -38.2°C | 35.9% | 328.0hPa | 2.5V | 00:00:00 | 02:20:07 | 00:00:00 | |
| DM0DOS-11 | 2026-08-31 12:49:43 | 49.37600 | 10.69798 | 61° | 128km/h | 8877m | -7.7m/s | -38.7°C | 30.8% | 325hPa | 2.5V | 07:58:22 | 02:19:59 | 00:00:00 | |
| DF7PN | 2026-08-31 12:49:43 | 49.37661 | 10.69972 | 61° | 126km/h | 8843m | -8.6m/s | -38.5°C | 30.3% | 326.6hPa | 2.5V | 00:00:00 | 00:00:00 | 00:00:00 | |
| DL1NUX | 2026-08-31 12:49:42 | 49.37584 | 10.69754 | 61° | 130km/h | 8885m | -8.1m/s | -38.6°C | 28.2% | 324.2hPa | 2.5V | 07:58:23 | 02:19:58 | 00:00:00 | |
| DK7TD | 2026-08-31 12:49:41 | 49.37646 | 10.69929 | 61° | 126km/h | 8852m | -8.7m/s | -38.6°C | 35.7% | 326.1hPa | 2.6V | 07:58:57 | 02:20:02 | 00:00:00 | |
| DK7TD | 2026-08-31 12:49:31 | 49.37490 | 10.69492 | 61° | 128km/h | 8933m | -7.8m/s | -39°C | 30.3% | 322.3hPa | 2.6V | 07:58:57 | 02:19:52 | 00:00:00 | |
| DM0DOS-11 | 2026-08-31 12:49:31 | 49.37442 | 10.69363 | 60° | 130km/h | 8957m | -8.6m/s | -39.2°C | 29.2% | 321.2hPa | 2.5V | 07:58:32 | 02:19:49 | 00:00:00 | |
| BIOWL1-15 | 2026-08-31 12:49:25 | 49.37394 | 10.69233 | 60° | 128km/h | 8982m | -8.1m/s | -39.4°C | 30.9% | 320hPa | 2.6V | 07:58:57 | 02:19:46 | 00:00:00 | |
| DB0NH | 2026-08-31 12:49:25 | 49.37394 | 10.69233 | 61° | 130km/h | 8983m | -8.1m/s | -39.3°C | 29.4% | 320.0hPa | 2.5V | 00:00:00 | 02:19:46 | 00:00:00 | |
| DL1NUX | 2026-08-31 12:49:24 | 49.37347 | 10.69104 | 60° | 128km/h | 9007m | -8.2m/s | -39.6°C | 29.8% | 318.8hPa | 2.5V | 07:58:38 | 02:19:43 | 00:00:00 | |
| DM0DOS-11 | 2026-08-31 12:49:24 | 49.37283 | 10.68933 | 58° | 128km/h | 9039m | -8.1m/s | -39.8°C | 28.8% | 317.2hPa | 2.6V | 07:58:42 | 02:19:39 | 00:00:00 | |
| DK7TD | 2026-08-31 12:49:20 | 49.37316 | 10.69019 | 60° | 126km/h | 9023m | -7.9m/s | -39.7°C | 30.7% | 318hPa | 2.5V | 07:58:57 | 02:19:41 | 00:00:00 | |
| BIOWL1-15 | 2026-08-31 12:49:14 | 49.37129 | 10.68546 | 59° | 130km/h | 9115m | -8.9m/s | 0°C | 0% | 313.7hPa | 2.5V | 07:58:57 | 02:19:30 | 00:00:00 | |
| DF7PN | 2026-08-31 12:49:12 | 49.37163 | 10.68633 | 58° | 130km/h | 9098m | -8.6m/s | -40.3°C | 25.4% | 314.5hPa | 2.5V | 00:00:00 | 00:00:00 | 00:00:00 | |
| DM0DOS-11 | 2026-08-31 12:49:11 | 49.37112 | 10.68503 | 59° | 130km/h | 9124m | -8.7m/s | -40.6°C | 30.7% | 313.4hPa | 2.5V | 07:58:52 | 02:19:29 | 00:00:00 | |
| DK7TD | 2026-08-31 12:49:10 | 49.37146 | 10.68590 | 59° | 131km/h | 9107m | -8.9m/s | -40.4°C | 31.4% | 314.1hPa | 2.6V | 07:58:57 | 02:19:31 | 00:00:00 | |
| DL1NUX | 2026-08-31 12:49:10 | 49.37062 | 10.68375 | 58° | 128km/h | 9150m | -8.5m/s | -40.8°C | 31.7% | 312.2hPa | 2.6V | 07:58:55 | 02:19:26 | 00:00:00 | |
| DJ8HS-15 | 2026-08-31 12:49:10 | 49.37146 | 10.68590 | 59° | 130km/h | 9107m | -8.8m/s | -40.4°C | 30.0% | 314.1hPa | 2.6V | 00:00:00 | 02:19:31 | 00:00:00 | |
| DL0LBS | 2026-08-31 12:49:09 | 49.37146 | 10.68590 | 60° | 131km/h | 9107m | -8.9m/s | -40.4°C | 25.6% | 314.2hPa | 2.5V | 07:58:00 | 00:00:00 | 00:00:00 | |
| DO3MHA-12 | 2026-08-31 12:49:06 | 49.37079 | 10.68417 | 59° | 128km/h | 9141m | -8.5m/s | -40.7°C | 31.5% | 312.6hPa | 2.5V | 07:58:00 | 02:19:27 | 00:00:00 | |
| SO1NDE-10 | 2026-08-31 12:49:05 | 49.37062 | 10.68375 | 59° | 131km/h | 9150m | -8.5m/s | -40.8°C | 31.7% | 312.2hPa | 2.5V | 00:00:00 | 02:19:26 | 00:00:00 | |
| DM0DOS-11 | 2026-08-31 12:49:03 | 49.36945 | 10.68077 | 59° | 130km/h | 9208m | -9.2m/s | -41.3°C | 33.9% | 309.5hPa | 2.5V | 07:59:02 | 02:19:19 | 00:00:00 | |
| BIOWL1-15 | 2026-08-31 12:49:03 | 49.37011 | 10.68248 | 59° | 128km/h | 9174m | -8.1m/s | 0°C | 0% | 311hPa | 2.5V | 07:59:48 | 02:19:23 | 00:00:00 | |
| DK7TD | 2026-08-31 12:49:00 | 49.36978 | 10.68163 | 60° | 128km/h | 9191m | -8.6m/s | -41.2°C | 34.7% | 310.3hPa | 2.6V | 07:59:48 | 02:19:21 | 00:00:00 | |
| BIOWL1-15 | 2026-08-31 12:48:52 | 49.36846 | 10.67814 | 60° | 128km/h | 9261m | -8.7m/s | 0°C | 0% | 307.1hPa | 2.5V | 07:59:48 | 02:19:13 | 00:00:00 | |
| DO3MHA-11 | 2026-08-31 12:48:52 | 49.36846 | 10.67814 | 61° | 130km/h | 9261m | -8.6m/s | -41.7°C | 35.1% | 307.0hPa | 2.6V | 00:00:00 | 02:19:13 | 00:00:00 | |
| DK5PH-5 | 2026-08-31 12:48:51 | 49.36829 | 10.67771 | 60° | 131km/h | 9270m | -8.6m/s | -41.8°C | 35.2% | 306.6hPa | 2.6V | 00:00:00 | 02:19:12 | 00:00:00 | |
| DM0DOS-11 | 2026-08-31 12:48:50 | 49.36781 | 10.67643 | 59° | 130km/h | 9295m | -8.9m/s | -42.1°C | 35.5% | 305.6hPa | 2.6V | 07:59:12 | 02:19:09 | 00:00:00 | |
| DK7TD | 2026-08-31 12:48:49 | 49.36797 | 10.67686 | 60° | 128km/h | 9287m | -8.8m/s | -42°C | 36.6% | 306hPa | 2.6V | 07:59:48 | 02:19:10 | 00:00:00 | |
| BIOWL1-15 | 2026-08-31 12:48:45 | 49.36566 | 10.67073 | 60° | 133km/h | 9409m | -8.8m/s | 0°C | 0% | 0hPa | 2.6V | 07:59:48 | 02:18:56 | 00:00:00 | |
| DM0DOS-11 | 2026-08-31 12:48:43 | 49.36600 | 10.67162 | 59° | 131km/h | 9392m | -9.2m/s | -42.8°C | 34.3% | 301.2hPa | 2.5V | 07:59:23 | 02:18:58 | 00:00:00 | |
| DK7TD | 2026-08-31 12:48:38 | 49.36616 | 10.67206 | 61° | 130km/h | 9383m | -9.2m/s | -42.8°C | 35.7% | 301.6hPa | 2.5V | 07:59:48 | 02:18:59 | 00:00:00 | |
| DF3TZ-5 | 2026-08-31 12:48:37 | 49.36583 | 10.67118 | 59° | 131km/h | 9401m | -8.7m/s | -42.9°C | 29.1% | 300.9hPa | 2.5V | 00:00:00 | 00:00:00 | 00:00:00 | |
| DO3MHA-12 | 2026-08-31 12:48:36 | 49.36583 | 10.67118 | 60° | 133km/h | 9401m | -8.6m/s | -42.8°C | 34.4% | 300.8hPa | 2.5V | 00:00:00 | 02:18:57 | 00:00:00 | |
| DL1NUX | 2026-08-31 12:48:34 | 49.36481 | 10.66850 | 59° | 131km/h | 9454m | -8.8m/s | -43.3°C | 33.7% | 298.5hPa | 2.5V | 07:59:30 | 02:18:51 | 00:00:00 | |
| DO9HM | 2026-08-31 12:48:32 | 49.36515 | 10.66939 | 61° | 133km/h | 9436m | -8.8m/s | -43.2°C | 29.2% | 299.3hPa | 2.6V | 07:59:00 | 00:00:00 | 00:00:00 | |
| DM0DOS-11 | 2026-08-31 12:48:31 | 49.36430 | 10.66717 | 60° | 135km/h | 9480m | -8.8m/s | -43.4°C | 32.1% | 297.3hPa | 2.6V | 07:59:33 | 02:18:48 | 00:00:00 | |
| DK7TD | 2026-08-31 12:48:27 | 49.36430 | 10.66717 | 60° | 135km/h | 9480m | -8.8m/s | -43.4°C | 33.4% | 297.3hPa | 2.6V | 07:59:48 | 02:18:48 | 00:00:00 | |
| DO3MHA-12 | 2026-08-31 12:48:26 | 49.36413 | 10.66672 | 60° | 135km/h | 9489m | -9.0m/s | -43.4°C | 31.8% | 296.8hPa | 2.6V | 00:00:00 | 02:18:47 | 00:00:00 | |
| DL9SK-14 | 2026-08-31 12:48:25 | 49.36378 | 10.66582 | 59° | 133km/h | 9506m | -8.8m/s | -43.6°C | 26.4% | 296.1hPa | 2.6V | 00:00:00 | 00:00:00 | 00:00:00 | |
| DL1NUX | 2026-08-31 12:48:24 | 49.36309 | 10.66402 | 59° | 135km/h | 9543m | -9.2m/s | -43.7°C | 30.9% | 294.6hPa | 2.6V | 07:59:40 | 02:18:41 | 00:00:00 | |
| BIOWL1-15 | 2026-08-31 12:48:23 | 49.36327 | 10.66447 | 60° | 137km/h | 9534m | -9.3m/s | 0°C | 0% | 0hPa | 2.6V | 07:59:48 | 02:18:42 | 00:00:00 | |
| DM0DOS-11 | 2026-08-31 12:48:22 | 49.36257 | 10.66266 | 60° | 137km/h | 9570m | -9.1m/s | -43.9°C | 30.7% | 293.4hPa | 2.5V | 07:59:43 | 02:18:38 | 00:00:00 | |
| DK7TD | 2026-08-31 12:48:17 | 49.36257 | 10.66266 | 60° | 137km/h | 9570m | -9.1m/s | -43.9°C | 32.2% | 293.4hPa | 2.5V | 07:59:48 | 02:18:38 | 00:00:00 | |
| DF2AP-13 | 2026-08-31 12:48:16 | 49.36239 | 10.66220 | 60° | 139km/h | 9579m | -9.1m/s | -43.9°C | 30.5% | 292.9hPa | 2.5V | 00:00:00 | 02:18:37 | 00:00:00 | |
| DL1NUX | 2026-08-31 12:48:14 | 49.36134 | 10.65939 | 60° | 139km/h | 9632m | -8.7m/s | -44.3°C | 29.9% | 290.6hPa | 2.5V | 07:59:50 | 02:18:31 | 00:00:00 | |
| BIOWL1-15 | 2026-08-31 12:48:12 | 49.36015 | 10.65612 | 61° | 139km/h | 9696m | -8.9m/s | 0°C | 0% | 0hPa | 2.5V | 18:12:15 | 02:18:24 | 00:00:00 | |
| DO3MHA-11 | 2026-08-31 12:48:12 | 49.36169 | 10.66033 | 61° | 139km/h | 9615m | -8.5m/s | -44.1°C | 30.0% | 291.3hPa | 2.6V | 00:00:00 | 02:18:33 | 00:00:00 | |
| DM0DOS-11 | 2026-08-31 12:48:11 | 49.36083 | 10.65799 | 61° | 137km/h | 9659m | -9.3m/s | -44.4°C | 29.9% | 289.5hPa | 2.6V | 07:59:53 | 02:18:28 | 00:00:00 | |
| DK7TD | 2026-08-31 12:48:06 | 49.36066 | 10.65752 | 61° | 139km/h | 9669m | -9.2m/s | -44.4°C | 31.2% | 289.1hPa | 2.6V | 08:00:39 | 02:18:27 | 00:00:00 | |
| BIOWL1-15 | 2026-08-31 12:48:03 | 49.35981 | 10.65518 | 61° | 141km/h | 9713m | -9.1m/s | 0°C | 0% | 0hPa | 2.5V | 18:12:15 | 02:18:22 | 00:00:00 | |
| DO3MHA-11 | 2026-08-31 12:48:02 | 49.35998 | 10.65565 | 61° | 139km/h | 9705m | -8.4m/s | -44.7°C | 29.7% | 287.5hPa | 2.5V | 00:00:00 | 02:18:23 | 00:00:00 | |
| DB0UT-7 | 2026-08-31 12:48:00 | 49.35963 | 10.65471 | 61° | 141km/h | 9723m | -8.9m/s | -44.9°C | 29.9% | 286.7hPa | 2.5V | 00:00:00 | 00:00:00 | 00:00:00 | |
| DM0DOS-11 | 2026-08-31 12:47:59 | 49.35912 | 10.65329 | 60° | 139km/h | 9749m | -8.8m/s | -45.1°C | 30% | 285.6hPa | 2.5V | 08:00:03 | 02:18:18 | 00:00:00 | |
| DK7TD | 2026-08-31 12:47:56 | 49.35896 | 10.65282 | 62° | 139km/h | 9758m | -9m/s | -45.2°C | 31.7% | 285.3hPa | 2.5V | 08:00:39 | 02:18:17 | 00:00:00 | |
| BIOWL1-15 | 2026-08-31 12:47:51 | 49.35794 | 10.64999 | 61° | 139km/h | 9813m | -9.3m/s | 0°C | 0% | 0hPa | 2.5V | 18:12:15 | 02:18:11 | 00:00:00 | |
| DO9HM | 2026-08-31 12:47:51 | 49.35811 | 10.65046 | 62° | 139km/h | 9804m | -9.1m/s | -45.6°C | 26.1% | 283.4hPa | 2.5V | 08:00:00 | 00:00:00 | 00:00:00 | |
| DJ8HS-15 | 2026-08-31 12:47:50 | 49.35793 | 10.64999 | 61° | 139km/h | 9813m | -9.3m/s | -45.6°C | 31.5% | 282.9hPa | 2.5V | 00:00:00 | 02:18:11 | 00:00:00 | |
| DM0DOS-11 | 2026-08-31 12:47:49 | 49.35743 | 10.64859 | 61° | 139km/h | 9841m | -9.5m/s | -45.9°C | 32.3% | 281.8hPa | 2.5V | 08:00:13 | 02:18:08 | 00:00:00 | |
| DK7TD | 2026-08-31 12:47:45 | 49.35709 | 10.64764 | 61° | 139km/h | 9860m | -9.2m/s | -46.1°C | 34% | 280.9hPa | 2.6V | 08:00:39 | 02:18:06 | 00:00:00 | |
| DO3MHA-11 | 2026-08-31 12:47:42 | 49.35658 | 10.64622 | 62° | 139km/h | 9888m | -9.3m/s | -46.2°C | 34.3% | 279.8hPa | 2.5V | 00:00:00 | 02:18:03 | 00:00:00 | |
| DM0DOS-11 | 2026-08-31 12:47:39 | 49.35572 | 10.64387 | 60° | 141km/h | 9935m | -9.6m/s | -46.6°C | 37.5% | 277.9hPa | 2.6V | 08:00:23 | 02:17:58 | 00:00:00 | |
| DK7TD | 2026-08-31 12:47:34 | 49.35520 | 10.64246 | 60° | 139km/h | 9963m | -9.3m/s | -46.9°C | 40.1% | 276.6hPa | 2.5V | 08:00:39 | 02:17:55 | 00:00:00 | |
| DO3MHA-11 | 2026-08-31 12:47:32 | 49.35484 | 10.64152 | 61° | 141km/h | 9982m | -9.4m/s | -47.0°C | 38.6% | 275.8hPa | 2.5V | 00:00:00 | 02:17:53 | 00:00:00 | |
| DO9HM | 2026-08-31 12:47:31 | 49.35467 | 10.64105 | 62° | 139km/h | 9992m | -9.8m/s | -47.1°C | 32.1% | 275.4hPa | 2.5V | 08:00:00 | 00:00:00 | 00:00:00 | |
| SO1NDE-10 | 2026-08-31 12:47:30 | 49.35449 | 10.64058 | 60° | 144km/h | 10001m | -9.7m/s | -47.2°C | 38.6% | 275.0hPa | 2.5V | 00:00:00 | 02:17:51 | 00:00:00 | |
| DM0DOS-11 | 2026-08-31 12:47:28 | 49.35396 | 10.63918 | 59° | 141km/h | 10027m | -6.2m/s | -47.4°C | 39.6% | 273.9hPa | 2.5V | 08:00:33 | 02:17:48 | 00:00:00 | |
| DK7TD | 2026-08-31 12:47:24 | 49.35342 | 10.63778 | 59° | 141km/h | 10044m | -5.9m/s | -47.5°C | 39.6% | 273.2hPa | 2.6V | 08:00:39 | 02:17:45 | 00:00:00 | |
| DM0DOS-11 | 2026-08-31 12:47:22 | 49.35215 | 10.63452 | 59° | 141km/h | 10085m | -5.6m/s | -47.8°C | 37.4% | 271.5hPa | 2.6V | 08:00:43 | 02:17:38 | 00:00:00 | |
| DK7TD | 2026-08-31 12:47:14 | 49.35160 | 10.63311 | 59° | 142km/h | 10102m | -5.9m/s | -47.9°C | 37.9% | 270.9hPa | 2.5V | 08:01:30 | 02:17:35 | 00:00:00 | |
| NBG1-10 | 2026-08-31 12:47:14 | 49.35160 | 10.63311 | 60° | 146km/h | 10102m | -5.8m/s | -47.9°C | 37.7% | 270.8hPa | 2.5V | 00:00:00 | 02:17:35 | 00:00:00 | |
| DM0DOS-11 | 2026-08-31 12:47:12 | 49.35031 | 10.62978 | 59° | 144km/h | 10142m | -5.5m/s | -48.2°C | 35.8% | 269.1hPa | 2.5V | 08:00:53 | 02:17:28 | 00:00:00 | |
| DK7TD | 2026-08-31 12:47:04 | 49.34976 | 10.62833 | 60° | 144km/h | 10158m | -5.7m/s | -48.3°C | 34.7% | 268.4hPa | 2.6V | 08:01:30 | 02:17:25 | 00:00:00 | |
| DF3TZ-5 | 2026-08-31 12:47:03 | 49.34957 | 10.62785 | 60° | 144km/h | 10164m | -5.7m/s | 0°C | -1.0% | -1.0hPa | 2.6V | 00:00:00 | 00:00:00 | 00:00:00 | |
| DO3MHA-11 | 2026-08-31 12:47:02 | 49.34939 | 10.62736 | 60° | 146km/h | 10170m | -5.8m/s | -48.2°C | 33.0% | 268.0hPa | 2.6V | 00:00:00 | 02:17:23 | 00:00:00 | |
| DL1NUX | 2026-08-31 12:47:01 | 49.34810 | 10.62394 | 60° | 146km/h | 10210m | -5.8m/s | -48.4°C | 28.4% | 266.4hPa | 2.6V | 08:01:05 | 02:17:16 | 00:00:00 | |
| DK7TD | 2026-08-31 12:46:53 | 49.34773 | 10.62295 | 61° | 146km/h | 10222m | -5.7m/s | -48.5°C | 29.2% | 265.9hPa | 2.5V | 08:01:30 | 02:17:14 | 00:00:00 | |
| DM0DOS-11 | 2026-08-31 12:46:53 | 49.34663 | 10.61998 | 60° | 146km/h | 10258m | -6m/s | -48.7°C | 29.3% | 264.4hPa | 2.5V | 08:01:13 | 02:17:08 | 00:00:00 | |
| DO3MHA-11 | 2026-08-31 12:46:52 | 49.34755 | 10.62245 | 61° | 148km/h | 10228m | -5.7m/s | -48.5°C | 28.7% | 265.6hPa | 2.5V | 00:00:00 | 02:17:13 | 00:00:00 | |
| DJ8HS-15 | 2026-08-31 12:46:51 | 49.34718 | 10.62147 | 61° | 148km/h | 10240m | -5.9m/s | -48.6°C | 29.0% | 265.1hPa | 2.5V | 00:00:00 | 02:17:11 | 00:00:00 | |
| DO9HM | 2026-08-31 12:46:50 | 49.34718 | 10.62147 | 61° | 148km/h | 10240m | -6.0m/s | -48.6°C | 23.4% | 265.2hPa | 2.5V | 08:01:00 | 00:00:00 | 00:00:00 | |
| DO3MHA-12 | 2026-08-31 12:46:46 | 49.34645 | 10.61948 | 61° | 148km/h | 10264m | -5.8m/s | -48.7°C | 29.5% | 264.2hPa | 2.5V | 00:00:00 | 02:17:07 | 00:00:00 | |
| DL0LBS | 2026-08-31 12:46:45 | 49.34645 | 10.61948 | 61° | 146km/h | 10264m | -5.9m/s | -48.8°C | 23.9% | 264.2hPa | 2.6V | 08:01:00 | 00:00:00 | 00:00:00 | |
| DL1NUX | 2026-08-31 12:46:44 | 49.34571 | 10.61750 | 60° | 148km/h | 10287m | -5.8m/s | -49°C | 30.3% | 263.2hPa | 2.6V | 08:01:18 | 02:17:03 | 00:00:00 | |
| DK7TD | 2026-08-31 12:46:42 | 49.34571 | 10.61750 | 60° | 148km/h | 10287m | -5.8m/s | -49°C | 30.7% | 263.2hPa | 2.6V | 08:01:30 | 02:17:03 | 00:00:00 | |
| DO3MHA-11 | 2026-08-31 12:46:42 | 49.34571 | 10.61750 | 61° | 150km/h | 10288m | -5.8m/s | -48.9°C | 30.3% | 263.2hPa | 2.6V | 08:01:00 | 02:17:03 | 00:00:00 | |
| NBG1-10 | 2026-08-31 12:46:41 | 49.34553 | 10.61699 | 61° | 151km/h | 10293m | -5.6m/s | -49.0°C | 30.2% | 263.0hPa | 2.5V | 00:00:00 | 02:17:02 | 00:00:00 | |
| DM0DOS-11 | 2026-08-31 12:46:39 | 49.34479 | 10.61498 | 60° | 150km/h | 10317m | -5.9m/s | -49.2°C | 29.8% | 262.1hPa | 2.5V | 08:01:23 | 02:16:58 | 00:00:00 | |
| DG1MJG | 2026-08-31 12:46:38 | 49.34516 | 10.61599 | 62° | 150km/h | 10305m | -5.7m/s | -49.1°C | 24.3% | 262.6hPa | 2.5V | 08:01:00 | 00:00:00 | 00:00:00 | |
| DL1NUX | 2026-08-31 12:46:37 | 49.34386 | 10.61245 | 61° | 150km/h | 10346m | -5.8m/s | -49.3°C | 30.4% | 260.9hPa | 2.5V | 08:01:28 | 02:16:53 | 00:00:00 | |
| DO3MHA-12 | 2026-08-31 12:46:36 | 49.34460 | 10.61447 | 61° | 150km/h | 10323m | -5.8m/s | -49.2°C | 29.8% | 261.8hPa | 2.6V | 00:00:00 | 02:16:57 | 00:00:00 | |
| DM0DOS-11 | 2026-08-31 12:46:32 | 49.34295 | 10.60990 | 61° | 150km/h | 10375m | -5.9m/s | -49.4°C | 30.3% | 259.7hPa | 2.6V | 08:01:33 | 02:16:48 | 00:00:00 | |
| DK7TD | 2026-08-31 12:46:30 | 49.34349 | 10.61144 | 61° | 150km/h | 10358m | -5.7m/s | -49.4°C | 30.8% | 260.5hPa | 2.5V | 08:01:30 | 02:16:51 | 00:00:00 | |
| DJ8HS-15 | 2026-08-31 12:46:30 | 49.34349 | 10.61144 | 62° | 151km/h | 10358m | -5.7m/s | -49.3°C | 30.7% | 260.5hPa | 2.6V | 00:00:00 | 02:16:51 | 00:00:00 | |
| DO9HM | 2026-08-31 12:46:29 | 49.34331 | 10.61093 | 62° | 151km/h | 10364m | -5.9m/s | -49.3°C | 24.5% | 260.2hPa | 2.6V | 08:02:00 | 00:00:00 | 00:00:00 | |
| DB0UT-7 | 2026-08-31 12:46:26 | 49.34276 | 10.60939 | 62° | 150km/h | 10381m | -5.8m/s | -49.4°C | 30.5% | 259.5hPa | 2.6V | 00:00:00 | 02:16:47 | 00:00:00 | |
| DB0NH | 2026-08-31 12:46:25 | 49.34258 | 10.60888 | 62° | 150km/h | 10387m | -6.0m/s | -49.5°C | 30.5% | 259.2hPa | 2.6V | 00:00:00 | 02:16:46 | 00:00:00 | |
| DL0LBS | 2026-08-31 12:46:24 | 49.34258 | 10.60888 | 63° | 151km/h | 10387m | -6.0m/s | -49.5°C | 24.6% | 259.3hPa | 2.6V | 08:02:00 | 00:00:00 | 00:00:00 | |
| DO3MHA-11 | 2026-08-31 12:46:22 | 49.34203 | 10.60732 | 62° | 151km/h | 10405m | -5.9m/s | -49.6°C | 30.4% | 258.6hPa | 2.6V | 00:00:00 | 02:16:43 | 00:00:00 | |
| DK5PH-5 | 2026-08-31 12:46:21 | 49.34185 | 10.60680 | 63° | 150km/h | 10411m | -6.2m/s | -49.6°C | 30.4% | 258.3hPa | 2.6V | 00:00:00 | 02:16:42 | 00:00:00 | |
| DL9SK-14 | 2026-08-31 12:46:20 | 49.34167 | 10.60628 | 62° | 151km/h | 10417m | -6.0m/s | -49.7°C | 24.2% | 258.1hPa | 2.6V | 00:00:00 | 00:00:00 | 00:00:00 | |
| DL1NUX | 2026-08-31 12:46:19 | 49.34044 | 10.60264 | 62° | 151km/h | 10459m | -6.1m/s | -50°C | 28.4% | 256.5hPa | 2.6V | 08:01:47 | 02:16:34 | 00:00:00 | |
| DK7TD | 2026-08-31 12:46:15 | 49.34079 | 10.60368 | 63° | 151km/h | 10447m | -6.1m/s | -49.9°C | 29.4% | 256.9hPa | 2.6V | 08:02:21 | 02:16:36 | 00:00:00 | |
| DK7TD | 2026-08-31 12:46:05 | 49.33907 | 10.59845 | 63° | 150km/h | 10507m | -6.1m/s | -50.3°C | 25.2% | 254.6hPa | 2.5V | 08:02:21 | 02:16:26 | 00:00:00 | |
| DL0LBS | 2026-08-31 12:46:04 | 49.33906 | 10.59845 | 64° | 150km/h | 10508m | -6.1m/s | -50.3°C | 19.6% | 254.6hPa | 2.6V | 08:02:00 | 00:00:00 | 00:00:00 | |
| DO3MHA-11 | 2026-08-31 12:46:02 | 49.33855 | 10.59690 | 63° | 148km/h | 10526m | -6.2m/s | -50.3°C | 24.3% | 253.8hPa | 2.6V | 00:00:00 | 02:16:23 | 00:00:00 | |
| DM0DOS-11 | 2026-08-31 12:45:58 | 49.33683 | 10.59182 | 62° | 146km/h | 10588m | -6.2m/s | -50.7°C | 23.7% | 251.4hPa | 2.6V | 08:02:08 | 02:16:13 | 00:00:00 | |
| DK7TD | 2026-08-31 12:45:54 | 49.33718 | 10.59283 | 63° | 148km/h | 10575m | -6.1m/s | -50.6°C | 23.6% | 251.9hPa | 2.6V | 08:02:21 | 02:16:15 | 00:00:00 | |
| DL9SK-14 | 2026-08-31 12:45:49 | 49.33632 | 10.59031 | 62° | 144km/h | 10606m | -6.1m/s | -50.7°C | 18.3% | 250.7hPa | 2.5V | 00:00:00 | 00:00:00 | 00:00:00 | |
| SONCRA | 2026-08-31 12:45:48 | 49.33615 | 10.58982 | 62° | 144km/h | 10612m | -6.3m/s | -50.7°C | 18.4% | 250.5hPa | 2.5V | 00:00:00 | 00:00:00 | 00:00:00 | |
| DK7TD | 2026-08-31 12:45:43 | 49.33530 | 10.58734 | 63° | 144km/h | 10644m | -6.2m/s | -50.9°C | 23.9% | 249.3hPa | 2.5V | 08:02:21 | 02:16:04 | 00:00:00 | |
| DM0DOS-11 | 2026-08-31 12:45:42 | 49.33496 | 10.58634 | 62° | 146km/h | 10656m | -6.2m/s | -50.9°C | 24% | 248.8hPa | 2.5V | 08:02:19 | 02:16:02 | 00:00:00 | |
| DO3MHA-11 | 2026-08-31 12:45:42 | 49.33514 | 10.58684 | 63° | 144km/h | 10650m | -6.1m/s | -50.8°C | 24.0% | 249.1hPa | 2.5V | 00:00:00 | 02:16:03 | 00:00:00 | |
| OE5DXL-15 | 2026-08-31 12:45:39 | 49.33462 | 10.58534 | 63° | 150km/h | 10669m | -6.1m/s | -50.8°C | 23.9% | 248.3hPa | 2.6V | 00:00:00 | 00:00:00 | 00:00:00 | |
| DM0DOS-11 | 2026-08-31 12:45:37 | 49.33324 | 10.58143 | 60° | 142km/h | 10718m | -6.2m/s | -51°C | 23.8% | 246.5hPa | 2.6V | 08:02:29 | 02:15:52 | 00:00:00 | |
| DK7TD | 2026-08-31 12:45:32 | 49.33341 | 10.58192 | 61° | 142km/h | 10712m | -6.2m/s | -51.1°C | 23.6% | 246.7hPa | 2.6V | 08:03:12 | 02:15:53 | 00:00:00 | |
| DO3MHA-11 | 2026-08-31 12:45:32 | 49.33341 | 10.58192 | 62° | 146km/h | 10712m | -6.1m/s | -51.0°C | 23.9% | 246.7hPa | 2.5V | 00:00:00 | 02:15:53 | 00:00:00 | |
| DJ8HS-15 | 2026-08-31 12:45:30 | 49.33306 | 10.58095 | 61° | 148km/h | 10724m | -6.0m/s | -51.0°C | 23.7% | 246.2hPa | 2.5V | 00:00:00 | 02:15:51 | 00:00:00 | |
| DO3MHA-12 | 2026-08-31 12:45:26 | 49.33236 | 10.57896 | 63° | 148km/h | 10749m | -6.0m/s | -51.1°C | 23.4% | 245.2hPa | 2.5V | 00:00:00 | 02:15:47 | 00:00:00 | |
| DM0DOS-11 | 2026-08-31 12:45:24 | 49.33148 | 10.57642 | 62° | 148km/h | 10780m | -6.5m/s | -51.3°C | 23% | 244.1hPa | 2.5V | 08:02:39 | 02:15:42 | 00:00:00 | |
| DK7TD | 2026-08-31 12:45:21 | 49.33148 | 10.57642 | 62° | 148km/h | 10780m | -6.5m/s | -51.3°C | 22.8% | 244.1hPa | 2.5V | 08:03:12 | 02:15:42 | 00:00:00 | |
| DK5PH-5 | 2026-08-31 12:45:21 | 49.33148 | 10.57642 | 63° | 150km/h | 10780m | -6.4m/s | -51.2°C | 23.0% | 244.0hPa | 2.5V | 00:00:00 | 02:15:42 | 00:00:00 | |
| DB0UT-7 | 2026-08-31 12:45:20 | 49.33130 | 10.57592 | 63° | 150km/h | 10787m | -6.1m/s | -51.3°C | 23.0% | 243.9hPa | 2.5V | 08:02:00 | 02:15:41 | 00:00:00 | |
| DL9SK-14 | 2026-08-31 12:45:19 | 49.33095 | 10.57490 | 61° | 148km/h | 10799m | -6.3m/s | -51.4°C | 17.5% | 243.5hPa | 2.5V | 00:00:00 | 00:00:00 | 00:00:00 | |
| SONCRA | 2026-08-31 12:45:18 | 49.33077 | 10.57440 | 61° | 148km/h | 10805m | -6.2m/s | -51.3°C | 17.5% | 243.2hPa | 2.5V | 00:00:00 | 00:00:00 | 00:00:00 | |
| DO3MHA-12 | 2026-08-31 12:45:16 | 49.33059 | 10.57389 | 62° | 150km/h | 10812m | -6.2m/s | -51.3°C | 22.7% | 242.9hPa | 2.5V | 00:00:00 | 02:15:37 | 00:00:00 | |
| DM0DOS-11 | 2026-08-31 12:45:12 | 49.32969 | 10.57134 | 61° | 150km/h | 10844m | -6.2m/s | -51.2°C | 22.2% | 241.8hPa | 2.6V | 08:02:49 | 02:15:32 | 00:00:00 | |
| DK7TD | 2026-08-31 12:45:11 | 49.32969 | 10.57134 | 61° | 150km/h | 10844m | -6.3m/s | -51.2°C | 21.9% | 241.8hPa | 2.6V | 08:03:12 | 02:15:32 | 00:00:00 | |
| DJ8HS-15 | 2026-08-31 12:45:10 | 49.32950 | 10.57083 | 62° | 150km/h | 10850m | -6.3m/s | -51.1°C | 22.0% | 241.5hPa | 2.6V | 00:00:00 | 02:15:31 | 00:00:00 | |
| DM0DOS-11 | 2026-08-31 12:45:07 | 49.32782 | 10.56631 | 59° | 150km/h | 10907m | -6.5m/s | -51.2°C | 21.3% | 239.4hPa | 2.5V | 08:02:59 | 02:15:22 | 00:00:00 | |
| BIOWL1-15 | 2026-08-31 12:45:01 | 49.32666 | 10.56335 | 59° | 148km/h | 10945m | -6.5m/s | -51.4°C | 20.9% | 238hPa | 2.5V | 08:08:18 | 02:15:16 | 00:00:00 | |
| DK7TD | 2026-08-31 12:45:01 | 49.32762 | 10.56581 | 60° | 150km/h | 10914m | -6.4m/s | -51.2°C | 21.1% | 239.1hPa | 2.5V | 08:03:12 | 02:15:21 | 00:00:00 | |
| DO3MHA-12 | 2026-08-31 12:44:56 | 49.32685 | 10.56384 | 59° | 148km/h | 10939m | -6.3m/s | -51.4°C | 21.6% | 238.2hPa | 2.6V | 00:00:00 | 02:15:17 | 00:00:00 | |
| DL1NUX | 2026-08-31 12:44:52 | 49.32587 | 10.56141 | 57° | 148km/h | 10971m | -6.5m/s | -51.6°C | 21.4% | 237.1hPa | 2.6V | 08:03:09 | 02:15:12 | 00:00:00 | |
| DK7TD | 2026-08-31 12:44:49 | 49.32546 | 10.56045 | 57° | 150km/h | 10984m | -6.5m/s | -51.6°C | 20.2% | 236.6hPa | 2.6V | 08:03:12 | 02:15:10 | 00:00:00 | |
| DL9SK-14 | 2026-08-31 12:44:47 | 49.32504 | 10.55949 | 56° | 150km/h | 10997m | -6.5m/s | -51.6°C | 15.7% | 236.1hPa | 2.5V | 00:00:00 | 00:00:00 | 00:00:00 | |
| DO3MHA-12 | 2026-08-31 12:44:46 | 49.32483 | 10.55900 | 56° | 151km/h | 11004m | -6.4m/s | -51.6°C | 20.7% | 235.8hPa | 2.5V | 00:00:00 | 02:15:07 | 00:00:00 | |
| DL0LBS | 2026-08-31 12:44:43 | 49.32440 | 10.55804 | 57° | 151km/h | 11017m | -6.6m/s | -51.6°C | 15.2% | 235.4hPa | 2.6V | 08:04:00 | 00:00:00 | 00:00:00 | |
| DO3MHA-11 | 2026-08-31 12:44:42 | 49.32397 | 10.55706 | 57° | 151km/h | 11030m | -6.4m/s | -51.6°C | 19.7% | 234.9hPa | 2.6V | 00:00:00 | 02:15:03 | 00:00:00 | |
| DL1NUX | 2026-08-31 12:44:41 | 49.32273 | 10.55412 | 57° | 151km/h | 11069m | -6.5m/s | -51.2°C | 18% | 233.6hPa | 2.6V | 08:03:24 | 02:14:57 | 00:00:00 | |
| BIOWL1-15 | 2026-08-31 12:44:41 | 49.32355 | 10.55608 | 57° | 151km/h | 11043m | -6.5m/s | -51.7°C | 18.2% | 234.5hPa | 2.5V | 08:08:18 | 02:15:01 | 00:00:00 | |
| DK7TD | 2026-08-31 12:44:38 | 49.32314 | 10.55510 | 57° | 150km/h | 11056m | -6.3m/s | -51.5°C | 17.6% | 234hPa | 2.5V | 08:04:03 | 02:14:59 | 00:00:00 | |
| DO3MHA-12 | 2026-08-31 12:44:36 | 49.32273 | 10.55412 | 58° | 153km/h | 11069m | -6.4m/s | -51.1°C | 18.0% | 233.5hPa | 2.5V | 00:00:00 | 02:14:57 | 00:00:00 | |
| DM0DOS-11 | 2026-08-31 12:44:35 | 49.32209 | 10.55266 | 55° | 151km/h | 11088m | -6.5m/s | -50.9°C | 17.1% | 232.8hPa | 2.5V | 08:03:27 | 02:14:54 | 00:00:00 | |
| BIOWL1-15 | 2026-08-31 12:44:30 | 49.32100 | 10.55019 | 57° | 157km/h | 11121m | -6.5m/s | -50.8°C | 15.5% | 231.7hPa | 2.6V | 08:08:18 | 02:14:49 | 00:00:00 | |
| DJ8HS-15 | 2026-08-31 12:44:30 | 49.32144 | 10.55119 | 56° | 155km/h | 11108m | -6.5m/s | -50.7°C | 16.4% | 232.1hPa | 2.5V | 00:00:00 | 02:14:51 | 00:00:00 | |
| DL1NUX | 2026-08-31 12:44:29 | 49.32057 | 10.54917 | 57° | 157km/h | 11134m | -6.5m/s | -50.8°C | 16.1% | 231.2hPa | 2.5V | 08:03:34 | 02:14:47 | 00:00:00 | |
| DK7TD | 2026-08-31 12:44:27 | 49.32078 | 10.54968 | 57° | 157km/h | 11127m | -6.4m/s | -50.8°C | 15.4% | 0hPa | 2.5V | 08:04:03 | 02:14:48 | 00:00:00 | |
| DO3MHA-12 | 2026-08-31 12:44:26 | 49.32057 | 10.54917 | 58° | 155km/h | 11134m | -6.5m/s | -50.7°C | 16.1% | 231.1hPa | 2.5V | 00:00:00 | 02:14:47 | 00:00:00 | |
| DM0DOS-11 | 2026-08-31 12:44:24 | 49.31909 | 10.54563 | 56° | 157km/h | 11179m | -6.5m/s | -50.6°C | 15.1% | 229.6hPa | 2.5V | 08:03:41 | 02:14:40 | 00:00:00 | |
| DO3MHA-11 | 2026-08-31 12:44:22 | 49.31973 | 10.54714 | 58° | 159km/h | 11160m | -6.6m/s | -50.7°C | 15.7% | 230.3hPa | 2.6V | 00:00:00 | 02:14:43 | 00:00:00 | |
| DL1NUX | 2026-08-31 12:44:21 | 49.31843 | 10.54410 | 56° | 159km/h | 11199m | -6.6m/s | -50.6°C | 14.8% | 228.9hPa | 2.6V | 08:03:44 | 02:14:37 | 00:00:00 | |
| BIOWL1-15 | 2026-08-31 12:44:17 | 49.31710 | 10.54094 | 57° | 164km/h | 11238m | -6.5m/s | -50.5°C | 12.9% | 227.5hPa | 2.5V | 08:08:18 | 02:14:31 | 00:00:00 | |
| DK7TD | 2026-08-31 12:44:16 | 49.31843 | 10.54410 | 57° | 159km/h | 11199m | -6.6m/s | -50.6°C | 14% | 0hPa | 2.6V | 08:04:03 | 02:14:37 | 00:00:00 | |
| DO3MHA-12 | 2026-08-31 12:44:16 | 49.31843 | 10.54410 | 57° | 162km/h | 11199m | -6.6m/s | -50.6°C | 14.8% | 228.9hPa | 2.6V | 08:03:00 | 02:14:37 | 00:00:00 | |
| SONCRA | 2026-08-31 12:44:15 | 49.31821 | 10.54358 | 56° | 159km/h | 11205m | -6.5m/s | -50.7°C | 10.5% | 228.7hPa | 2.6V | 00:00:00 | 00:00:00 | 00:00:00 | |
| DM0DOS-11 | 2026-08-31 12:44:12 | 49.31688 | 10.54041 | 57° | 164km/h | 11244m | -6.5m/s | -50.5°C | 13.5% | 227.3hPa | 2.6V | 08:03:51 | 02:14:30 | 00:00:00 | |
| DO3MHA-11 | 2026-08-31 12:44:12 | 49.31755 | 10.54200 | 58° | 162km/h | 11225m | -6.5m/s | -50.4°C | 13.9% | 227.9hPa | 2.5V | 00:00:00 | 02:14:33 | 00:00:00 | |
| DF1GD-15 | 2026-08-31 12:44:10 | 49.31732 | 10.54147 | 58° | 162km/h | 11232m | -6.4m/s | -50.5°C | 9.9% | 227.8hPa | 2.5V | 08:04:00 | 00:00:00 | 00:00:00 | |
| DL1NUX | 2026-08-31 12:44:07 | 49.31598 | 10.53831 | 56° | 161km/h | 11270m | -6.5m/s | -50.5°C | 13% | 226.4hPa | 2.5V | 08:03:55 | 02:14:26 | 00:00:00 | |
| DK7TD | 2026-08-31 12:44:05 | 49.31598 | 10.53831 | 57° | 161km/h | 11270m | -6.5m/s | -50.5°C | 12.1% | 0hPa | 2.5V | 08:04:03 | 02:14:26 | 00:00:00 | |
| BIOWL9-15 | 2026-08-31 12:44:05 | 49.31575 | 10.53779 | 56° | 161km/h | 11276m | -6.5m/s | -50.5°C | 9.1% | 226.2hPa | 2.5V | 00:00:00 | 00:00:00 | 00:00:00 | |
| DL6DJ-15 | 2026-08-31 12:44:02 | 49.31509 | 10.53624 | 57° | 157km/h | 11296m | -6.3m/s | -50.5°C | 8.8% | 225.6hPa | 2.5V | 00:00:00 | 00:00:00 | 00:00:00 | |
| DF7PN | 2026-08-31 12:44:01 | 49.31509 | 10.53624 | 57° | 157km/h | 11296m | -6.3m/s | -50.5°C | 8.8% | 225.6hPa | 2.5V | 00:00:00 | 00:00:00 | 00:00:00 | |
| DM0DOS-11 | 2026-08-31 12:43:59 | 49.31403 | 10.53362 | 58° | 159km/h | 11328m | -6.4m/s | -50.4°C | 11.9% | 224.4hPa | 2.5V | 08:04:04 | 02:14:17 | 00:00:00 | |
| BIOWL1-15 | 2026-08-31 12:43:56 | 49.31319 | 10.53151 | 59° | 161km/h | 11353m | -6.4m/s | -50.3°C | 10.6% | 223.6hPa | 2.5V | 08:08:18 | 02:14:13 | 00:00:00 | |
| DK7TD | 2026-08-31 12:43:55 | 49.31382 | 10.53310 | 59° | 159km/h | 11334m | -6.5m/s | 0°C | 0% | 0hPa | 2.6V | 18:12:15 | 02:14:16 | 00:00:00 | |
| OE5DXL-15 | 2026-08-31 12:43:55 | 49.31382 | 10.53310 | 59° | 161km/h | 11334m | -6.4m/s | -50.2°C | 11.7% | 224.1hPa | 2.6V | 00:00:00 | 00:00:00 | 00:00:00 | |
| DK5PH-5 | 2026-08-31 12:43:52 | 49.31297 | 10.53098 | 59° | 161km/h | 11360m | -6.3m/s | -50.3°C | 11.5% | 223.3hPa | 2.6V | 00:00:00 | 02:14:12 | 00:00:00 | |
| DB0NH | 2026-08-31 12:43:50 | 49.31276 | 10.53045 | 59° | 161km/h | 11366m | -6.4m/s | -50.2°C | 11.4% | 223.1hPa | 2.6V | 00:00:00 | 02:14:11 | 00:00:00 | |
| DF1GD-15 | 2026-08-31 12:43:49 | 49.31276 | 10.53045 | 60° | 161km/h | 11366m | -6.4m/s | -50.3°C | 7.9% | 223.1hPa | 2.6V | 08:04:00 | 00:00:00 | 00:00:00 | |
| DM0DOS-11 | 2026-08-31 12:43:48 | 49.31193 | 10.52834 | 59° | 159km/h | 11391m | -6.3m/s | -50.3°C | 11.3% | 222.2hPa | 2.6V | 08:04:14 | 02:14:07 | 00:00:00 | |
| DB0ND-19 | 2026-08-31 12:43:47 | 49.31214 | 10.52887 | 59° | 157km/h | 11385m | -6.2m/s | -50.3°C | 7.8% | 222.4hPa | 2.5V | 00:00:00 | 00:00:00 | 00:00:00 | |
| DL9SK-14 | 2026-08-31 12:43:45 | 49.31173 | 10.52782 | 59° | 157km/h | 11398m | -6.5m/s | -50.3°C | 7.8% | 222.0hPa | 2.5V | 00:00:00 | 00:00:00 | 00:00:00 | |
| DK7TD | 2026-08-31 12:43:42 | 49.31113 | 10.52622 | 60° | 159km/h | 11417m | -6.1m/s | 0°C | 0% | 0hPa | 2.5V | 18:12:15 | 02:14:03 | 00:00:00 | |
| BIOWL1-15 | 2026-08-31 12:43:42 | 49.31072 | 10.52516 | 60° | 159km/h | 11429m | -6.2m/s | -50.2°C | 10.3% | 221hPa | 2.6V | 08:08:18 | 02:14:01 | 00:00:00 | |
| DO3MHA-11 | 2026-08-31 12:43:42 | 49.31113 | 10.52622 | 61° | 159km/h | 11417m | -6.1m/s | -50.1°C | 11.0% | 221.3hPa | 2.5V | 08:04:00 | 02:14:03 | 00:00:00 | |
| DO9HM | 2026-08-31 12:43:41 | 49.31113 | 10.52622 | 61° | 159km/h | 11417m | -6.1m/s | -50.1°C | 7.6% | 221.4hPa | 2.6V | 08:04:00 | 00:00:00 | 00:00:00 | |
| DL0LBS | 2026-08-31 12:43:40 | 49.31093 | 10.52569 | 61° | 159km/h | 11423m | -6.0m/s | -50.1°C | 7.5% | 221.1hPa | 2.6V | 08:04:00 | 00:00:00 | 00:00:00 | |
| DM0DOS-11 | 2026-08-31 12:43:38 | 49.30946 | 10.52200 | 57° | 161km/h | 11465m | -6.3m/s | -50.5°C | 11.1% | 219.8hPa | 2.6V | 08:04:26 | 02:13:55 | 00:00:00 | |
| DL1NUX | 2026-08-31 12:43:35 | 49.30967 | 10.52252 | 57° | 161km/h | 11459m | -6.3m/s | -50.5°C | 11.1% | 219.9hPa | 2.5V | 08:04:25 | 02:13:56 | 00:00:00 | |
| DK7TD | 2026-08-31 12:43:32 | 49.30903 | 10.52095 | 58° | 161km/h | 11478m | -6.2m/s | 0°C | 0% | 0hPa | 2.6V | 18:12:15 | 02:13:53 | 00:00:00 | |
| BIOWL1-15 | 2026-08-31 12:43:31 | 49.30860 | 10.51988 | 59° | 161km/h | 11490m | -6.1m/s | -50.7°C | 10.3% | 218.9hPa | 2.5V | 08:08:18 | 02:13:51 | 00:00:00 | |
| DF1GD-15 | 2026-08-31 12:43:30 | 49.30860 | 10.51988 | 59° | 161km/h | 11491m | -6.1m/s | -50.7°C | 7.6% | 218.9hPa | 2.6V | 08:04:00 | 00:00:00 | 00:00:00 | |
| DL1NUX | 2026-08-31 12:43:29 | 49.30752 | 10.51721 | 58° | 162km/h | 11521m | -6.2m/s | -51.1°C | 11.2% | 217.8hPa | 2.6V | 08:04:35 | 02:13:46 | 00:00:00 | |
| DM0DOS-11 | 2026-08-31 12:43:27 | 49.30687 | 10.51561 | 58° | 162km/h | 11540m | -6.4m/s | -50.9°C | 10.9% | 217.2hPa | 2.5V | 08:04:38 | 02:13:43 | 00:00:00 | |
| BIOWL1-15 | 2026-08-31 12:43:21 | 49.30666 | 10.51508 | 58° | 161km/h | 11546m | -6.1m/s | -50.9°C | 9.9% | 217hPa | 2.5V | 08:08:18 | 02:13:42 | 00:00:00 | |
| DK5PH-5 | 2026-08-31 12:43:21 | 49.30666 | 10.51508 | 59° | 162km/h | 11547m | -6.1m/s | -50.9°C | 10.9% | 216.9hPa | 2.5V | 00:00:00 | 02:13:42 | 00:00:00 | |
| DO3MHA-12 | 2026-08-31 12:43:16 | 49.30560 | 10.51241 | 60° | 164km/h | 11577m | -6.0m/s | -51.1°C | 10.9% | 215.9hPa | 2.5V | 00:00:00 | 02:13:37 | 00:00:00 | |
| DL1NUX | 2026-08-31 12:43:15 | 49.30457 | 10.50967 | 60° | 164km/h | 11608m | -6.3m/s | -51.4°C | 11.1% | 214.9hPa | 2.6V | 08:04:49 | 02:13:32 | 00:00:00 | |
| BIOWL1-15 | 2026-08-31 12:42:59 | 49.30221 | 10.50296 | 63° | 161km/h | 11682m | -6.3m/s | -51.6°C | 9.2% | 212.5hPa | 2.6V | 08:08:18 | 02:13:20 | 00:00:00 | |
| DF7PN | 2026-08-31 12:42:59 | 49.30203 | 10.50241 | 63° | 161km/h | 11688m | -6.1m/s | -51.7°C | 7.0% | 212.3hPa | 2.6V | 00:00:00 | 00:00:00 | 00:00:00 | |
| SO1NDE-10 | 2026-08-31 12:42:57 | 49.30185 | 10.50185 | 64° | 155km/h | 11694m | -6.1m/s | -51.6°C | 10.5% | 212.1hPa | 2.6V | 08:05:00 | 02:13:18 | 00:00:00 | |
| DM0DOS-11 | 2026-08-31 12:42:56 | 49.30078 | 10.49854 | 63° | 157km/h | 11731m | -6.1m/s | -51.5°C | 9.9% | 210.9hPa | 2.6V | 08:05:09 | 02:13:12 | 00:00:00 | |
| DO3MHA-12 | 2026-08-31 12:42:56 | 49.30167 | 10.50130 | 64° | 157km/h | 11701m | -6.1m/s | -51.7°C | 10.5% | 211.9hPa | 2.5V | 00:00:00 | 02:13:17 | 00:00:00 | |
| DJ8HS-15 | 2026-08-31 12:42:55 | 49.30149 | 10.50074 | 64° | 155km/h | 11707m | -6.2m/s | -51.7°C | 10.4% | 211.7hPa | 2.5V | 00:00:00 | 02:13:16 | 00:00:00 | |
| DO3MHA-11 | 2026-08-31 12:42:52 | 49.30096 | 10.49909 | 64° | 155km/h | 11725m | -6.2m/s | -51.5°C | 10.0% | 211.1hPa | 2.5V | 00:00:00 | 02:13:13 | 00:00:00 | |
| DL1NUX | 2026-08-31 12:42:51 | 49.30043 | 10.49746 | 63° | 155km/h | 11744m | -6.2m/s | -51.3°C | 9.7% | 210.5hPa | 2.5V | 08:05:11 | 02:13:10 | 00:00:00 | |
| BIOWL1-15 | 2026-08-31 12:42:49 | 49.29990 | 10.49585 | 63° | 153km/h | 11762m | -6.1m/s | -51.3°C | 8.1% | 209.9hPa | 2.5V | 08:08:18 | 02:13:07 | 00:00:00 | |
| DB0ND-19 | 2026-08-31 12:42:45 | 49.29973 | 10.49532 | 63° | 151km/h | 11768m | -6.3m/s | -51.3°C | 6.1% | 209.7hPa | 2.5V | 00:00:00 | 00:00:00 | 00:00:00 | |
| DM0DOS-11 | 2026-08-31 12:42:43 | 49.29903 | 10.49322 | 63° | 151km/h | 11793m | -6.3m/s | -51.3°C | 9.4% | 208.9hPa | 2.5V | 08:05:19 | 02:13:02 | 00:00:00 | |
| DO3MHA-11 | 2026-08-31 12:42:42 | 49.29920 | 10.49374 | 64° | 151km/h | 11787m | -6.2m/s | -51.3°C | 9.4% | 209.1hPa | 2.5V | 00:00:00 | 02:13:03 | 00:00:00 | |
| DL1NUX | 2026-08-31 12:42:41 | 49.29836 | 10.49110 | 64° | 151km/h | 11818m | -6.3m/s | -51.4°C | 9.3% | 208.1hPa | 2.6V | 08:05:23 | 02:12:58 | 00:00:00 | |
| DK7TD | 2026-08-31 12:42:38 | 49.29853 | 10.49163 | 64° | 151km/h | 11812m | -6.3m/s | 0°C | 0% | 0hPa | 2.6V | 18:12:15 | 02:12:59 | 00:00:00 | |
| BIOWL1-15 | 2026-08-31 12:42:32 | 49.29755 | 10.48848 | 65° | 150km/h | 11849m | -6.4m/s | -51.4°C | 7.4% | 207.1hPa | 2.5V | 08:08:18 | 02:12:53 | 00:00:00 | |
| DO3MHA-11 | 2026-08-31 12:42:32 | 49.29755 | 10.48847 | 65° | 150km/h | 11849m | -6.3m/s | -51.3°C | 9.1% | 207.0hPa | 2.5V | 00:00:00 | 02:12:53 | 00:00:00 | |
| DM0DOS-11 | 2026-08-31 12:42:32 | 49.29739 | 10.48795 | 64° | 150km/h | 11856m | -6.3m/s | -51.4°C | 9% | 206.9hPa | 2.6V | 08:05:29 | 02:12:52 | 00:00:00 | |
| DL1NUX | 2026-08-31 12:42:31 | 49.29671 | 10.48587 | 63° | 150km/h | 11880m | -6.2m/s | -51.4°C | 8.9% | 206.1hPa | 2.5V | 08:05:33 | 02:12:48 | 00:00:00 | |
| DK7TD | 2026-08-31 12:42:28 | 49.29689 | 10.48639 | 63° | 151km/h | 11874m | -6.3m/s | 0°C | 0% | 0hPa | 2.5V | 18:12:15 | 02:12:49 | 00:00:00 | |
| DF7PN | 2026-08-31 12:42:28 | 49.29671 | 10.48587 | 63° | 150km/h | 11880m | -6.2m/s | -51.4°C | 5.6% | 206.1hPa | 2.5V | 00:00:00 | 00:00:00 | 00:00:00 | |
| DO3MHA-12 | 2026-08-31 12:42:27 | 49.29654 | 10.48535 | 63° | 151km/h | 11887m | -6.2m/s | -51.4°C | 8.8% | 205.9hPa | 2.5V | 00:00:00 | 02:12:47 | 00:00:00 | |
| DM0DOS-11 | 2026-08-31 12:42:22 | 49.29567 | 10.48275 | 63° | 151km/h | 11918m | -6.1m/s | -51.3°C | 8.5% | 204.9hPa | 2.5V | 08:05:39 | 02:12:42 | 00:00:00 | |
| DL1NUX | 2026-08-31 12:42:22 | 49.29497 | 10.48067 | 62° | 150km/h | 11944m | -6.4m/s | -51.3°C | 8.4% | 204.1hPa | 2.6V | 08:05:43 | 02:12:38 | 00:00:00 | |
| BIOWL1-15 | 2026-08-31 12:42:22 | 49.29549 | 10.48223 | 63° | 151km/h | 11924m | -6.4m/s | -51.3°C | 6.6% | 204.7hPa | 2.5V | 08:08:18 | 02:12:41 | 00:00:00 | |
| DK5PH-5 | 2026-08-31 12:42:21 | 49.29567 | 10.48275 | 64° | 146km/h | 11918m | -6.0m/s | -51.2°C | 8.5% | 204.8hPa | 2.5V | 00:00:00 | 02:12:42 | 00:00:00 | |
| DB0NH | 2026-08-31 12:42:20 | 49.29549 | 10.48223 | 63° | 146km/h | 11924m | -6.3m/s | -51.3°C | 8.5% | 204.6hPa | 2.5V | 00:00:00 | 02:12:41 | 00:00:00 | |
| DO9HM | 2026-08-31 12:42:19 | 49.29549 | 10.48223 | 64° | 151km/h | 11924m | -6.4m/s | -51.3°C | 5.3% | 204.7hPa | 2.5V | 08:05:00 | 00:00:00 | 00:00:00 | |
| DM0DOS-11 | 2026-08-31 12:42:17 | 49.29393 | 10.47761 | 62° | 146km/h | 11982m | -6.4m/s | -51.3°C | 8% | 202.9hPa | 2.5V | 08:05:49 | 02:12:32 | 00:00:00 | |
| BIOWL1-15 | 2026-08-31 12:42:10 | 49.29376 | 10.47711 | 62° | 146km/h | 11988m | -6.6m/s | -51.3°C | 6% | 202.7hPa | 2.6V | 08:08:18 | 02:12:31 | 00:00:00 | |
| DL1NUX | 2026-08-31 12:42:09 | 49.29324 | 10.47564 | 60° | 142km/h | 12008m | -6.5m/s | -51.3°C | 7.8% | 202.1hPa | 2.5V | 08:05:53 | 02:12:28 | 00:00:00 | |
| DF1GD-15 | 2026-08-31 12:42:07 | 49.29341 | 10.47612 | 63° | 142km/h | 12002m | -6.3m/s | -51.3°C | 4.7% | 202.3hPa | 2.6V | 08:06:00 | 00:00:00 | 00:00:00 | |
| DM0DOS-11 | 2026-08-31 12:42:06 | 49.29217 | 10.47278 | 59° | 142km/h | 12046m | -6.7m/s | -51.4°C | 7.5% | 200.9hPa | 2.6V | 08:05:59 | 02:12:22 | 00:00:00 | |
| DO3MHA-12 | 2026-08-31 12:42:06 | 49.29306 | 10.47516 | 62° | 142km/h | 12014m | -6.2m/s | -51.2°C | 7.7% | 201.9hPa | 2.5V | 00:00:00 | 02:12:27 | 00:00:00 | |
| DL1NUX | 2026-08-31 12:42:02 | 49.29144 | 10.47087 | 60° | 142km/h | 12072m | -6.6m/s | -51.4°C | 7.3% | 200hPa | 2.5V | 08:06:03 | 02:12:18 | 00:00:00 | |
| DF7PN | 2026-08-31 12:41:57 | 49.29126 | 10.47039 | 59° | 142km/h | 12079m | -6.5m/s | -51.4°C | 4.2% | 199.9hPa | 2.5V | 00:00:00 | 00:00:00 | 00:00:00 | |
| DM0DOS-11 | 2026-08-31 12:41:56 | 49.29037 | 10.46797 | 61° | 144km/h | 12111m | -6.4m/s | -51.3°C | 6.8% | 198.9hPa | 2.5V | 08:06:09 | 02:12:12 | 00:00:00 | |
| DO3MHA-12 | 2026-08-31 12:41:56 | 49.29126 | 10.47039 | 60° | 144km/h | 12079m | -6.5m/s | -51.3°C | 7.2% | 199.8hPa | 2.5V | 00:00:00 | 02:12:17 | 00:00:00 | |
| DJ8HS-15 | 2026-08-31 12:41:55 | 49.29108 | 10.46991 | 61° | 146km/h | 12086m | -6.7m/s | -51.4°C | 7.2% | 199.7hPa | 2.5V | 00:00:00 | 02:12:16 | 00:00:00 | |
| DO3MHA-11 | 2026-08-31 12:41:52 | 49.29054 | 10.46845 | 61° | 146km/h | 12105m | -6.3m/s | -51.4°C | 7.0% | 199.0hPa | 2.5V | 00:00:00 | 02:12:13 | 00:00:00 | |
| DK5PH-5 | 2026-08-31 12:41:51 | 49.29037 | 10.46797 | 62° | 146km/h | 12111m | -6.3m/s | -51.2°C | 6.8% | 198.8hPa | 2.5V | 00:00:00 | 02:12:12 | 00:00:00 | |
| DB0NH | 2026-08-31 12:41:50 | 49.29019 | 10.46748 | 62° | 146km/h | 12118m | -6.5m/s | -51.1°C | 6.7% | 198.6hPa | 2.5V | 00:00:00 | 02:12:11 | 00:00:00 | |
| DL1NUX | 2026-08-31 12:41:49 | 49.28912 | 10.46453 | 60° | 146km/h | 12157m | -6.4m/s | -51°C | 6.3% | 197.5hPa | 2.5V | 08:06:16 | 02:12:05 | 00:00:00 | |
| DF1GD-15 | 2026-08-31 12:41:47 | 49.28984 | 10.46650 | 62° | 146km/h | 12131m | -6.5m/s | -51.0°C | 3.6% | 198.3hPa | 2.6V | 08:06:00 | 00:00:00 | 00:00:00 | |
| DM0DOS-11 | 2026-08-31 12:41:46 | 49.28858 | 10.46305 | 61° | 146km/h | 12176m | -6.3m/s | -50.8°C | 6% | 196.9hPa | 2.6V | 08:06:19 | 02:12:02 | 00:00:00 | |
| OE5DXL-15 | 2026-08-31 12:41:46 | 49.28947 | 10.46552 | 61° | 144km/h | 12144m | -6.5m/s | -51.0°C | 6.3% | 197.8hPa | 2.6V | 00:00:00 | 00:00:00 | 00:00:00 | |
| NBG1-10 | 2026-08-31 12:41:44 | 49.28912 | 10.46453 | 61° | 146km/h | 12157m | -6.4m/s | -51.0°C | 6.3% | 197.4hPa | 2.6V | 00:00:00 | 02:12:05 | 00:00:00 | |
| AM1SDL-15 | 2026-08-31 12:41:43 | 49.28893 | 10.46404 | 61° | 146km/h | 12163m | -6.3m/s | 0°C | 0% | 0hPa | 2.6V | 00:00:00 | 02:12:04 | 00:00:00 | |
| DJTTGO | 2026-08-31 12:41:42 | 49.28893 | 10.46404 | 62° | 146km/h | 12163m | -6.3m/s | -50.9°C | 3.3% | 197.3hPa | 2.6V | 00:00:00 | 00:00:00 | 00:00:00 | |
| DL9SK-14 | 2026-08-31 12:41:41 | 49.28840 | 10.46255 | 62° | 146km/h | 12182m | -6.5m/s | -50.7°C | 3.2% | 196.7hPa | 2.6V | 00:00:00 | 00:00:00 | 00:00:00 | |
| SONCRA | 2026-08-31 12:41:40 | 49.28823 | 10.46204 | 61° | 148km/h | 12189m | -6.4m/s | -50.7°C | 3.2% | 196.5hPa | 2.6V | 00:00:00 | 00:00:00 | 00:00:00 | |
| DL1NUX | 2026-08-31 12:41:39 | 49.28736 | 10.45952 | 62° | 146km/h | 12221m | -6.6m/s | -50.6°C | 5.7% | 195.5hPa | 2.6V | 08:06:26 | 02:11:55 | 00:00:00 | |
| BIOWL1-15 | 2026-08-31 12:41:33 | 49.28702 | 10.45852 | 63° | 146km/h | 12234m | -6.6m/s | -50.7°C | 3.2% | 195.2hPa | 2.5V | 08:08:18 | 02:11:53 | 00:00:00 | |
| DO3MHA-11 | 2026-08-31 12:41:32 | 49.28702 | 10.45852 | 63° | 144km/h | 12234m | -6.5m/s | -50.7°C | 5.7% | 195.1hPa | 2.5V | 00:00:00 | 02:11:53 | 00:00:00 | |
| AM1SDL-15 | 2026-08-31 12:41:31 | 49.28685 | 10.45802 | 63° | 144km/h | 12241m | -6.6m/s | 0°C | 0% | 0hPa | 2.5V | 00:00:00 | 02:11:52 | 00:00:00 | |
| DL1NUX | 2026-08-31 12:41:29 | 49.28567 | 10.45452 | 62° | 144km/h | 12287m | -6.7m/s | -51°C | 5.5% | 193.6hPa | 2.5V | 08:06:36 | 02:11:45 | 00:00:00 | |
| DB0UT-7 | 2026-08-31 12:41:29 | 49.28651 | 10.45701 | 63° | 141km/h | 12254m | -6.6m/s | -50.8°C | 5.6% | 194.5hPa | 2.6V | 00:00:00 | 00:00:00 | 00:00:00 | |
| DF1GD-15 | 2026-08-31 12:41:27 | 49.28634 | 10.45651 | 64° | 146km/h | 12261m | -6.8m/s | -50.9°C | 3.0% | 194.4hPa | 2.6V | 08:06:00 | 00:00:00 | 00:00:00 | |
| DM0DOS-11 | 2026-08-31 12:41:26 | 49.28516 | 10.45305 | 62° | 144km/h | 12307m | -6.8m/s | -51°C | 5.4% | 193hPa | 2.6V | 08:06:39 | 02:11:42 | 00:00:00 | |
| BIOWL1-15 | 2026-08-31 12:41:22 | 49.28533 | 10.45354 | 62° | 144km/h | 12300m | -6.6m/s | -51°C | 2.9% | 193.2hPa | 2.5V | 08:08:18 | 02:11:43 | 00:00:00 | |
| HSKMA3-T | 2026-08-31 12:41:16 | 49.28433 | 10.45058 | 63° | 144km/h | 12341m | -6.6m/s | -51.1°C | 2.8% | 192hPa | 2.5V | 08:10:00 | 02:11:37 | 00:00:00 | |
| DL1NUX | 2026-08-31 12:41:16 | 49.28401 | 10.44958 | 64° | 142km/h | 12354m | -7m/s | -51°C | 5.3% | 191.6hPa | 2.6V | 08:06:46 | 02:11:35 | 00:00:00 | |
| DJ8HS-15 | 2026-08-31 12:41:15 | 49.28417 | 10.45008 | 65° | 141km/h | 12348m | -6.8m/s | -51.0°C | 5.4% | 191.7hPa | 2.6V | 00:00:00 | 02:11:36 | 00:00:00 | |
| DL1ZP-14 | 2026-08-31 12:41:14 | 49.28385 | 10.44909 | 64° | 142km/h | 12361m | -6.9m/s | -51.1°C | 2.7% | 191.4hPa | 2.6V | 00:00:00 | 00:00:00 | 00:00:00 | |
| DO3MHA-11 | 2026-08-31 12:41:12 | 49.28370 | 10.44859 | 65° | 141km/h | 12368m | -7.1m/s | -51.1°C | 5.4% | 191.2hPa | 2.6V | 00:00:00 | 02:11:33 | 00:00:00 | |
| DM0DOS-11 | 2026-08-31 12:41:10 | 49.28324 | 10.44711 | 64° | 141km/h | 12388m | -6.6m/s | -51.3°C | 5.4% | 190.7hPa | 2.5V | 08:06:51 | 02:11:30 | 00:00:00 | |
| BIOWL1-15 | 2026-08-31 12:41:06 | 49.28261 | 10.44516 | 64° | 139km/h | 12415m | -6.8m/s | -51.5°C | 2.5% | 189.9hPa | 2.6V | 08:08:18 | 02:11:26 | 00:00:00 | |
| DL1NUX | 2026-08-31 12:41:05 | 49.28246 | 10.44468 | 63° | 141km/h | 12422m | -6.9m/s | -51.5°C | 5.3% | 189.7hPa | 2.5V | 08:06:56 | 02:11:25 | 00:00:00 | |
| DO3MHA-11 | 2026-08-31 12:41:02 | 49.28214 | 10.44371 | 63° | 142km/h | 12436m | -6.8m/s | -51.5°C | 5.3% | 189.2hPa | 2.5V | 00:00:00 | 02:11:23 | 00:00:00 | |
| DG1MJG | 2026-08-31 12:41:01 | 49.28214 | 10.44371 | 64° | 141km/h | 12436m | -6.8m/s | -51.6°C | 2.6% | 189.2hPa | 2.5V | 08:07:00 | 00:00:00 | 00:00:00 | |
| DB0UT-7 | 2026-08-31 12:40:58 | 49.28148 | 10.44179 | 62° | 142km/h | 12463m | -7.0m/s | -51.3°C | 5.0% | 188.4hPa | 2.5V | 00:00:00 | 02:11:19 | 00:00:00 | |
| DO9HM | 2026-08-31 12:40:57 | 49.28148 | 10.44179 | 63° | 142km/h | 12463m | -7.0m/s | -51.3°C | 2.4% | 188.5hPa | 2.5V | 08:07:00 | 00:00:00 | 00:00:00 | |
| DL1NUX | 2026-08-31 12:40:55 | 49.28080 | 10.43983 | 62° | 144km/h | 12490m | -7m/s | -51.5°C | 5.1% | 187.6hPa | 2.5V | 08:07:06 | 02:11:15 | 00:00:00 | |
| BIOWL1-15 | 2026-08-31 12:40:55 | 49.28097 | 10.44033 | 62° | 144km/h | 12483m | -6.8m/s | -51.5°C | 2.2% | 187.8hPa | 2.5V | 08:08:18 | 02:11:16 | 00:00:00 | |
| DL0LBS | 2026-08-31 12:40:54 | 49.28097 | 10.44032 | 62° | 144km/h | 12484m | -6.8m/s | -51.5°C | 2.4% | 187.8hPa | 2.5V | 08:07:00 | 00:00:00 | 00:00:00 | |
| DO3MHA-11 | 2026-08-31 12:40:52 | 49.28045 | 10.43884 | 63° | 144km/h | 12504m | -6.8m/s | -51.5°C | 5.1% | 187.2hPa | 2.5V | 00:00:00 | 02:11:13 | 00:00:00 | |
| DK5PH-5 | 2026-08-31 12:40:51 | 49.28028 | 10.43834 | 63° | 141km/h | 12511m | -7.0m/s | -51.4°C | 5.1% | 186.9hPa | 2.5V | 00:00:00 | 02:11:12 | 00:00:00 | |
| DM0DOS-11 | 2026-08-31 12:40:50 | 49.27977 | 10.43685 | 63° | 144km/h | 12532m | -7m/s | -51.4°C | 5.1% | 186.4hPa | 2.5V | 08:07:12 | 02:11:09 | 00:00:00 | |
| DB0NH | 2026-08-31 12:40:50 | 49.28011 | 10.43785 | 63° | 141km/h | 12518m | -6.8m/s | -51.4°C | 5.0% | 186.8hPa | 2.6V | 00:00:00 | 02:11:11 | 00:00:00 | |
| DL1NUX | 2026-08-31 12:40:45 | 49.27911 | 10.43486 | 62° | 144km/h | 12560m | -6.9m/s | -51.7°C | 5.2% | 185.6hPa | 2.6V | 08:07:16 | 02:11:05 | 00:00:00 | |
| BIOWL1-15 | 2026-08-31 12:40:37 | 49.27790 | 10.43151 | 61° | 141km/h | 12608m | -7.2m/s | -51.7°C | 2% | 184.2hPa | 2.6V | 08:08:18 | 02:10:58 | 00:00:00 | |
| DO3MHA-12 | 2026-08-31 12:40:36 | 49.27772 | 10.43104 | 61° | 139km/h | 12616m | -7.3m/s | -51.6°C | 5.0% | 184.0hPa | 2.5V | 00:00:00 | 02:10:57 | 00:00:00 | |
| DJ8HS-15 | 2026-08-31 12:40:35 | 49.27755 | 10.43057 | 61° | 139km/h | 12623m | -7.0m/s | -51.6°C | 4.9% | 183.8hPa | 2.5V | 08:07:00 | 02:10:56 | 00:00:00 | |
| DL0LBS | 2026-08-31 12:40:34 | 49.27755 | 10.43057 | 62° | 139km/h | 12623m | -7.1m/s | -51.6°C | 2.2% | 183.9hPa | 2.5V | 08:07:00 | 00:00:00 | 00:00:00 | |
| DM0DOS-11 | 2026-08-31 12:40:32 | 49.27609 | 10.42630 | 62° | 137km/h | 12687m | -6.7m/s | -51.1°C | 4.6% | 182.1hPa | 2.5V | 08:07:34 | 02:10:47 | 00:00:00 | |
| DK7TD | 2026-08-31 12:40:32 | 49.27705 | 10.42916 | 62° | 139km/h | 12644m | -7.2m/s | -51.5°C | 1.7% | 183.3hPa | 2.6V | 08:09:09 | 02:10:53 | 00:00:00 | |
| DO3MHA-11 | 2026-08-31 12:40:32 | 49.27705 | 10.42916 | 63° | 139km/h | 12644m | -7.1m/s | -51.4°C | 4.8% | 183.3hPa | 2.5V | 00:00:00 | 02:10:53 | 00:00:00 | |
| DG1MJG | 2026-08-31 12:40:30 | 49.27688 | 10.42868 | 64° | 139km/h | 12651m | -7.3m/s | -51.4°C | 2.1% | 183.1hPa | 2.5V | 08:08:00 | 00:00:00 | 00:00:00 | |
| DB0UT-7 | 2026-08-31 12:40:28 | 49.27641 | 10.42725 | 63° | 141km/h | 12673m | -7.2m/s | -51.1°C | 4.6% | 182.4hPa | 2.5V | 08:07:00 | 00:00:00 | 00:00:00 | |
| DO3MHA-12 | 2026-08-31 12:40:26 | 49.27609 | 10.42630 | 63° | 141km/h | 12687m | -6.7m/s | -51.1°C | 4.6% | 182.0hPa | 2.6V | 00:00:00 | 02:10:47 | 00:00:00 | |
| SO1NDE-10 | 2026-08-31 12:40:25 | 49.27592 | 10.42584 | 62° | 141km/h | 12694m | -7.0m/s | -51.1°C | 4.6% | 181.8hPa | 2.6V | 00:00:00 | 02:10:46 | 00:00:00 | |
| DL6DJ-15 | 2026-08-31 12:40:24 | 49.27576 | 10.42537 | 61° | 139km/h | 12701m | -7.2m/s | -51.0°C | 1.9% | 181.6hPa | 2.6V | 00:00:00 | 00:00:00 | 00:00:00 | |
| DF7PN | 2026-08-31 12:40:23 | 49.27559 | 10.42489 | 61° | 137km/h | 12708m | -7.0m/s | -50.9°C | 1.9% | 181.5hPa | 2.6V | 00:00:00 | 00:00:00 | 00:00:00 | |
| DO3MHA-11 | 2026-08-31 12:40:22 | 49.27542 | 10.42442 | 62° | 141km/h | 12715m | -7.0m/s | -50.7°C | 4.4% | 181.2hPa | 2.6V | 00:00:00 | 02:10:43 | 00:00:00 | |
| DM0DOS-11 | 2026-08-31 12:40:21 | 49.27443 | 10.42152 | 63° | 142km/h | 12758m | -7m/s | -50.8°C | 4.4% | 180.1hPa | 2.6V | 08:07:44 | 02:10:37 | 00:00:00 | |
| BIOWL1-15 | 2026-08-31 12:40:21 | 49.27459 | 10.42201 | 63° | 142km/h | 12751m | -7.1m/s | -50.7°C | 1.4% | 180.3hPa | 2.6V | 08:08:18 | 02:10:38 | 00:00:00 | |
| DK7TD | 2026-08-31 12:40:19 | 49.27492 | 10.42299 | 62° | 142km/h | 12736m | -7m/s | -50.7°C | 1.3% | 180.7hPa | 2.5V | 08:09:09 | 02:10:40 | 00:00:00 | |
| DO9HM | 2026-08-31 12:40:16 | 49.27443 | 10.42152 | 64° | 142km/h | 12758m | -7.0m/s | -50.8°C | 1.9% | 180.1hPa | 2.5V | 08:08:00 | 00:00:00 | 00:00:00 | |
| DL1NUX | 2026-08-31 12:40:15 | 49.27396 | 10.42004 | 63° | 142km/h | 12779m | -7.2m/s | -50.9°C | 4.4% | 179.5hPa | 2.5V | 08:07:47 | 02:10:34 | 00:00:00 | |
| DJ8HS-15 | 2026-08-31 12:40:15 | 49.27427 | 10.42103 | 65° | 141km/h | 12765m | -6.9m/s | -50.7°C | 4.4% | 179.9hPa | 2.5V | 00:00:00 | 02:10:36 | 00:00:00 | |
| DL0LBS | 2026-08-31 12:40:13 | 49.27412 | 10.42053 | 65° | 142km/h | 12772m | -7.2m/s | -50.8°C | 1.9% | 179.7hPa | 2.5V | 08:08:00 | 00:00:00 | 00:00:00 | |
| DO3MHA-11 | 2026-08-31 12:40:12 | 49.27380 | 10.41955 | 64° | 139km/h | 12786m | -7.3m/s | -50.9°C | 4.4% | 179.3hPa | 2.5V | 00:00:00 | 02:10:33 | 00:00:00 | |
| DM0DOS-11 | 2026-08-31 12:40:11 | 49.27288 | 10.41665 | 65° | 139km/h | 12829m | -7.1m/s | -50.9°C | 4.3% | 178.2hPa | 2.5V | 08:07:54 | 02:10:27 | 00:00:00 | |
| DK7TD | 2026-08-31 12:40:08 | 49.27318 | 10.41762 | 64° | 139km/h | 12815m | -7.1m/s | -51°C | 1.4% | 178.6hPa | 2.5V | 08:09:09 | 02:10:29 | 00:00:00 | |
| DL9SK-14 | 2026-08-31 12:40:08 | 49.27303 | 10.41713 | 64° | 137km/h | 12822m | -7.1m/s | -50.9°C | 1.9% | 178.4hPa | 2.6V | 00:00:00 | 00:00:00 | 00:00:00 | |
| SONCRA | 2026-08-31 12:40:07 | 49.27288 | 10.41665 | 65° | 137km/h | 12829m | -7.1m/s | -50.9°C | 1.8% | 178.2hPa | 2.6V | 00:00:00 | 00:00:00 | 00:00:00 | |
| DO3MHA-12 | 2026-08-31 12:40:06 | 49.27288 | 10.41665 | 66° | 139km/h | 12830m | -7.1m/s | -50.9°C | 4.3% | 178.2hPa | 2.6V | 00:00:00 | 02:10:27 | 00:00:00 | |
| DL1NUX | 2026-08-31 12:40:05 | 49.27244 | 10.41518 | 65° | 141km/h | 12851m | -7.2m/s | -51°C | 4.3% | 177.5hPa | 2.6V | 08:07:57 | 02:10:24 | 00:00:00 | |
| NBG1-10 | 2026-08-31 12:40:05 | 49.27273 | 10.41616 | 66° | 137km/h | 12837m | -7.3m/s | -50.9°C | 4.4% | 177.9hPa | 2.6V | 00:00:00 | 02:10:26 | 00:00:00 | |
| DF1GD-15 | 2026-08-31 12:40:04 | 49.27273 | 10.41616 | 66° | 139km/h | 12837m | -7.3m/s | -50.9°C | 1.9% | 177.9hPa | 2.6V | 08:08:00 | 00:00:00 | 00:00:00 | |
| DO3MHA-11 | 2026-08-31 12:40:02 | 49.27229 | 10.41469 | 66° | 141km/h | 12858m | -7.3m/s | -51.0°C | 4.3% | 177.3hPa | 2.6V | 00:00:00 | 02:10:23 | 00:00:00 | |
| DM0DOS-11 | 2026-08-31 12:40:00 | 49.27146 | 10.41171 | 67° | 141km/h | 12901m | -7.3m/s | -51.1°C | 4.2% | 176.2hPa | 2.6V | 08:08:04 | 02:10:17 | 00:00:00 | |
| DG1MJG | 2026-08-31 12:39:59 | 49.27201 | 10.41370 | 67° | 141km/h | 12873m | -7.2m/s | -51.1°C | 1.8% | 177.0hPa | 2.5V | 08:08:00 | 00:00:00 | 00:00:00 | |
| DB0UT-7 | 2026-08-31 12:39:58 | 49.27173 | 10.41271 | 68° | 139km/h | 12887m | -6.9m/s | -51.0°C | 4.3% | 176.5hPa | 2.5V | 00:00:00 | 02:10:19 | 00:00:00 | |
| DO3MHA-12 | 2026-08-31 12:39:56 | 49.27146 | 10.41171 | 68° | 139km/h | 12901m | -7.2m/s | -51.0°C | 4.2% | 176.1hPa | 2.5V | 00:00:00 | 02:10:17 | 00:00:00 | |
| DL1NUX | 2026-08-31 12:39:55 | 49.27106 | 10.41021 | 68° | 139km/h | 12923m | -6.9m/s | -51.1°C | 4.3% | 175.6hPa | 2.5V | 08:08:07 | 02:10:14 | 00:00:00 | |
| DK7TD | 2026-08-31 12:39:50 | 49.27067 | 10.40872 | 68° | 137km/h | 12944m | -7.1m/s | -51.1°C | 1.1% | 175hPa | 2.6V | 08:09:09 | 02:10:11 | 00:00:00 | |
| DM0DOS-11 | 2026-08-31 12:39:50 | 49.27016 | 10.40676 | 68° | 137km/h | 12973m | -7.3m/s | -51.1°C | 4.2% | 174.3hPa | 2.5V | 08:08:14 | 02:10:07 | 00:00:00 | |
| BIOWL1-15 | 2026-08-31 12:39:48 | 49.26990 | 10.40578 | 68° | 135km/h | 12987m | -7m/s | -51.1°C | 1% | 173.8hPa | 2.5V | 08:08:18 | 02:10:05 | 00:00:00 | |
| DO3MHA-12 | 2026-08-31 12:39:46 | 49.27016 | 10.40675 | 69° | 137km/h | 12973m | -7.3m/s | -51.0°C | 4.2% | 174.3hPa | 2.5V | 08:08:00 | 02:10:07 | 00:00:00 | |
| DF1GD-15 | 2026-08-31 12:39:44 | 49.27003 | 10.40627 | 69° | 135km/h | 12981m | -7.1m/s | -51.1°C | 1.7% | 174.0hPa | 2.6V | 08:08:00 | 00:00:00 | 00:00:00 | |
| DO3MHA-11 | 2026-08-31 12:39:42 | 49.26964 | 10.40481 | 68° | 135km/h | 13002m | -7.3m/s | -51.1°C | 4.2% | 173.4hPa | 2.6V | 00:00:00 | 02:10:03 | 00:00:00 | |
| OE5DXL-15 | 2026-08-31 12:39:40 | 49.26939 | 10.40383 | 70° | 131km/h | 13016m | -7.3m/s | -51.0°C | 4.1% | 173.0hPa | 2.6V | 00:00:00 | 00:00:00 | 00:00:00 | |
| DM0DOS-11 | 2026-08-31 12:39:39 | 49.26890 | 10.40186 | 69° | 135km/h | 13045m | -6.9m/s | -51.1°C | 4.1% | 172.3hPa | 2.6V | 08:08:24 | 02:09:57 | 00:00:00 | |
| DK7TD | 2026-08-31 12:39:37 | 49.26902 | 10.40235 | 69° | 137km/h | 13038m | -7.3m/s | -51.1°C | 0.9% | 172.6hPa | 2.5V | 08:09:09 | 02:09:58 | 00:00:00 | |
| BIOWL1-15 | 2026-08-31 12:39:36 | 49.26878 | 10.40137 | 69° | 133km/h | 13052m | -6.9m/s | -51.2°C | 0.9% | 172.2hPa | 2.6V | 08:09:09 | 02:09:56 | 00:00:00 | |
| DK7TD | 2026-08-31 12:39:26 | 49.26763 | 10.39712 | 67° | 133km/h | 13115m | -7.1m/s | -51.8°C | 1% | 170.5hPa | 2.5V | 08:09:09 | 02:09:47 | 00:00:00 | |
| BIOWL1-15 | 2026-08-31 12:39:23 | 49.26724 | 10.39570 | 68° | 131km/h | 13136m | -7m/s | -51.8°C | 0.9% | 170hPa | 2.5V | 08:09:09 | 02:09:44 | 00:00:00 | |
| DK7TD | 2026-08-31 12:39:16 | 49.26641 | 10.39244 | 70° | 126km/h | 13185m | -7.2m/s | -51.6°C | 0.7% | 168.6hPa | 2.5V | 08:09:09 | 02:09:37 | 00:00:00 | |
| BIOWL1-15 | 2026-08-31 12:39:12 | 49.26522 | 10.38740 | 70° | 126km/h | 13262m | -7m/s | -51.1°C | 0.5% | 166.7hPa | 2.5V | 08:09:09 | 02:09:26 | 00:00:00 | |
| DK7TD | 2026-08-31 12:39:06 | 49.26533 | 10.38785 | 70° | 126km/h | 13255m | -7m/s | -51.1°C | 0.6% | 166.8hPa | 2.6V | 08:09:09 | 02:09:27 | 00:00:00 | |
| BIOWL1-15 | 2026-08-31 12:39:05 | 49.26489 | 10.38604 | 69° | 124km/h | 13283m | -7.1m/s | -51.2°C | 0.7% | 166.1hPa | 2.5V | 08:09:09 | 02:09:23 | 00:00:00 | |
| DM0DOS-11 | 2026-08-31 12:39:04 | 49.26456 | 10.38470 | 69° | 124km/h | 13303m | -7m/s | -51.2°C | 3.9% | 165.6hPa | 2.6V | 08:09:01 | 02:09:20 | 00:00:00 | |
| DF1GD-15 | 2026-08-31 12:39:03 | 49.26511 | 10.38694 | 71° | 126km/h | 13269m | -7.1m/s | -51.1°C | 1.5% | 166.5hPa | 2.5V | 08:09:00 | 00:00:00 | 00:00:00 | |
| DO3MHA-11 | 2026-08-31 12:39:01 | 49.26478 | 10.38559 | 69° | 122km/h | 13290m | -6.8m/s | -51.1°C | 3.9% | 165.8hPa | 2.5V | 00:00:00 | 02:09:22 | 00:00:00 | |
| DL1NUX | 2026-08-31 12:38:59 | 49.26423 | 10.38336 | 69° | 122km/h | 13324m | -7m/s | -51.3°C | 3.9% | 165.1hPa | 2.5V | 08:09:04 | 02:09:17 | 00:00:00 | |
| DK7TD | 2026-08-31 12:38:56 | 49.26423 | 10.38336 | 70° | 122km/h | 13324m | -7m/s | -51.3°C | 0.6% | 165.1hPa | 2.5V | 08:09:09 | 02:09:17 | 00:00:00 | |
| BIOWL1-15 | 2026-08-31 12:38:52 | 49.26347 | 10.38025 | 68° | 124km/h | 13372m | -6.8m/s | -51.2°C | 0.6% | 163.8hPa | 2.5V | 08:10:51 | 02:09:10 | 00:00:00 | |
| DL1NUX | 2026-08-31 12:38:51 | 49.26299 | 10.37847 | 67° | 124km/h | 13400m | -6.8m/s | -51.3°C | 3.9% | 163.1hPa | 2.6V | 08:09:15 | 02:09:06 | 00:00:00 | |
| DK5PH-5 | 2026-08-31 12:38:51 | 49.26369 | 10.38114 | 70° | 124km/h | 13359m | -7.0m/s | -51.2°C | 3.9% | 164.1hPa | 2.5V | 00:00:00 | 02:09:12 | 00:00:00 | |
| DM0DOS-11 | 2026-08-31 12:38:50 | 49.26323 | 10.37936 | 67° | 124km/h | 13386m | -6.8m/s | -51.3°C | 3.9% | 163.5hPa | 2.6V | 08:09:13 | 02:09:08 | 00:00:00 | |
| DK7TD | 2026-08-31 12:38:46 | 49.26311 | 10.37891 | 67° | 124km/h | 13393m | -6.8m/s | -51.3°C | 0.6% | 163.3hPa | 2.6V | 08:10:00 | 02:09:07 | 00:00:00 | |
| DO3MHA-12 | 2026-08-31 12:38:46 | 49.26311 | 10.37891 | 68° | 122km/h | 13393m | -6.7m/s | -51.3°C | 3.9% | 163.2hPa | 2.6V | 00:00:00 | 02:09:07 | 00:00:00 | |
| DF1GD-15 | 2026-08-31 12:38:42 | 49.26275 | 10.37758 | 69° | 124km/h | 13414m | -6.9m/s | -51.4°C | 1.4% | 162.8hPa | 2.5V | 08:10:00 | 00:00:00 | 00:00:00 | |
| DO3MHA-11 | 2026-08-31 12:38:41 | 49.26251 | 10.37669 | 69° | 122km/h | 13427m | -6.8m/s | -51.5°C | 4.0% | 162.4hPa | 2.5V | 00:00:00 | 02:09:02 | 00:00:00 | |
| DL1NUX | 2026-08-31 12:38:40 | 49.26188 | 10.37404 | 70° | 122km/h | 13469m | -7m/s | -51.7°C | 4% | 161.4hPa | 2.5V | 08:09:25 | 02:08:56 | 00:00:00 | |
| BIOWL1-15 | 2026-08-31 12:38:40 | 49.26240 | 10.37625 | 69° | 122km/h | 13434m | -7.1m/s | -51.6°C | 0.6% | 162.3hPa | 2.6V | 08:10:51 | 02:09:01 | 00:00:00 | |
| OE5DXL-15 | 2026-08-31 12:38:40 | 49.26240 | 10.37625 | 70° | 124km/h | 13434m | -7.1m/s | -51.5°C | 4.0% | 162.2hPa | 2.6V | 08:09:00 | 00:00:00 | 00:00:00 | |
| DM0DOS-11 | 2026-08-31 12:38:39 | 49.26198 | 10.37449 | 70° | 122km/h | 13462m | -7.2m/s | -51.8°C | 4.1% | 161.6hPa | 2.5V | 08:09:24 | 02:08:57 | 00:00:00 | |
| DK7TD | 2026-08-31 12:38:35 | 49.26188 | 10.37404 | 70° | 122km/h | 13469m | -7m/s | -51.7°C | 0.6% | 0hPa | 2.5V | 08:10:00 | 02:08:56 | 00:00:00 | |
| HSKMA3-T | 2026-08-31 12:38:33 | 49.26166 | 10.37316 | 69° | 122km/h | 13483m | -6.8m/s | -51.6°C | 0.6% | 161.1hPa | 2.6V | 08:10:00 | 02:08:54 | 00:00:00 | |
| BIOWL1-15 | 2026-08-31 12:38:29 | 49.26097 | 10.37047 | 68° | 126km/h | 13523m | -7m/s | -51.4°C | 0.6% | 160.1hPa | 2.5V | 08:10:51 | 02:08:48 | 00:00:00 | |
| DM0DOS-11 | 2026-08-31 12:38:29 | 49.26085 | 10.37002 | 68° | 126km/h | 13530m | -7m/s | -51.4°C | 4% | 159.8hPa | 2.6V | 08:09:34 | 02:08:47 | 00:00:00 | |
| DG1MJG | 2026-08-31 12:38:28 | 49.26120 | 10.37137 | 70° | 124km/h | 13510m | -6.8m/s | -51.5°C | 1.4% | 160.4hPa | 2.6V | 08:10:00 | 00:00:00 | 00:00:00 | |
| DL1NUX | 2026-08-31 12:38:25 | 49.26074 | 10.36957 | 69° | 124km/h | 13537m | -6.9m/s | -51.4°C | 4% | 159.7hPa | 2.6V | 08:09:35 | 02:08:46 | 00:00:00 | |
| DK7TD | 2026-08-31 12:38:25 | 49.26074 | 10.36957 | 69° | 124km/h | 13537m | -6.9m/s | -51.4°C | 0.6% | 0hPa | 2.6V | 08:10:00 | 02:08:46 | 00:00:00 | |
| BIOWL1-15 | 2026-08-31 12:38:21 | 49.26011 | 10.36685 | 71° | 126km/h | 13578m | -6.6m/s | -51.2°C | 0.6% | 158.8hPa | 2.6V | 08:10:51 | 02:08:40 | 00:00:00 | |
| DO3MHA-11 | 2026-08-31 12:38:21 | 49.26032 | 10.36777 | 72° | 124km/h | 13565m | -6.8m/s | -51.3°C | 4.0% | 159.0hPa | 2.5V | 00:00:00 | 02:08:42 | 00:00:00 | |
| DB0NH | 2026-08-31 12:38:20 | 49.26021 | 10.36731 | 72° | 113km/h | 13571m | -6.8m/s | -51.2°C | 4.0% | 158.8hPa | 2.5V | 00:00:00 | 02:08:41 | 00:00:00 | |
| DL1NUX | 2026-08-31 12:38:19 | 49.25972 | 10.36501 | 72° | 122km/h | 13605m | -6.6m/s | -51°C | 3.9% | 158.1hPa | 2.5V | 08:09:45 | 02:08:36 | 00:00:00 | |
| DF7PN | 2026-08-31 12:38:19 | 49.26011 | 10.36685 | 71° | 124km/h | 13578m | -6.6m/s | -51.2°C | 1.4% | 158.8hPa | 2.5V | 00:00:00 | 00:00:00 | 00:00:00 | |
| DM0DOS-11 | 2026-08-31 12:38:18 | 49.25982 | 10.36547 | 72° | 124km/h | 13598m | -6.9m/s | -51°C | 4% | 158.2hPa | 2.5V | 08:09:44 | 02:08:37 | 00:00:00 | |
| DK7TD | 2026-08-31 12:38:14 | 49.25963 | 10.36456 | 73° | 120km/h | 13612m | -6.7m/s | -50.9°C | 0.6% | 0hPa | 2.5V | 08:10:00 | 02:08:35 | 00:00:00 | |
| DO9HM | 2026-08-31 12:38:12 | 49.25954 | 10.36412 | 74° | 119km/h | 13619m | -6.6m/s | -50.8°C | 1.4% | 157.8hPa | 2.6V | 08:10:00 | 00:00:00 | 00:00:00 | |
| DO3MHA-11 | 2026-08-31 12:38:11 | 49.25936 | 10.36324 | 73° | 115km/h | 13632m | -6.6m/s | -50.7°C | 3.8% | 157.3hPa | 2.6V | 00:00:00 | 02:08:32 | 00:00:00 | |
| DL1NUX | 2026-08-31 12:38:10 | 49.25885 | 10.36066 | 73° | 115km/h | 13672m | -6.9m/s | -50.8°C | 3.9% | 156.4hPa | 2.6V | 08:09:55 | 02:08:26 | 00:00:00 | |
| HSKMA3-T | 2026-08-31 12:38:10 | 49.25919 | 10.36238 | 73° | 117km/h | 13646m | -6.6m/s | -50.7°C | 0.5% | 157.1hPa | 2.5V | 08:10:00 | 02:08:30 | 00:00:00 | |
| DM0DOS-11 | 2026-08-31 12:38:08 | 49.25893 | 10.36109 | 72° | 115km/h | 13666m | -6.8m/s | -50.8°C | 3.8% | 156.6hPa | 2.5V | 08:09:54 | 02:08:27 | 00:00:00 | |
| DK7TD | 2026-08-31 12:38:03 | 49.25868 | 10.35983 | 72° | 111km/h | 13686m | -6.8m/s | 0°C | 0% | 0hPa | 2.6V | 08:10:00 | 02:08:24 | 00:00:00 | |
| SONCRA | 2026-08-31 12:38:02 | 49.25859 | 10.35942 | 72° | 110km/h | 13693m | -6.9m/s | -50.7°C | 1.3% | 155.9hPa | 2.5V | 00:00:00 | 00:00:00 | 00:00:00 | |
| DO3MHA-11 | 2026-08-31 12:38:01 | 49.25850 | 10.35901 | 72° | 106km/h | 13700m | -6.9m/s | -50.6°C | 3.8% | 155.8hPa | 2.5V | 00:00:00 | 02:08:22 | 00:00:00 | |
| DL1NUX | 2026-08-31 12:37:59 | 49.25800 | 10.35668 | 72° | 104km/h | 13741m | -6.9m/s | -50.3°C | 3.8% | 154.8hPa | 2.5V | 08:10:05 | 02:08:16 | 00:00:00 | |
| DM0DOS-11 | 2026-08-31 12:37:57 | 49.25808 | 10.35706 | 72° | 104km/h | 13734m | -6.8m/s | -50.3°C | 3.7% | 155hPa | 2.6V | 08:10:04 | 02:08:17 | 00:00:00 | |
| HSKMA3-T | 2026-08-31 12:37:56 | 49.25808 | 10.35706 | 72° | 104km/h | 13734m | -6.8m/s | -50.3°C | 0.4% | 155hPa | 2.6V | 08:10:51 | 02:08:17 | 00:00:00 | |
| DK7TD | 2026-08-31 12:37:53 | 49.25785 | 10.35591 | 73° | 102km/h | 13755m | -7m/s | 0°C | 0% | 0hPa | 2.5V | 18:12:15 | 02:08:14 | 00:00:00 | |
| BIOWL9-15 | 2026-08-31 12:37:52 | 49.25770 | 10.35516 | 72° | 100km/h | 13769m | -7.1m/s | -50.0°C | 1.2% | 154.2hPa | 2.5V | 00:00:00 | 00:00:00 | 00:00:00 | |
| DO3MHA-11 | 2026-08-31 12:37:51 | 49.25770 | 10.35516 | 73° | 97km/h | 13769m | -7.1m/s | -50.0°C | 3.6% | 154.1hPa | 2.5V | 00:00:00 | 02:08:12 | 00:00:00 | |
| DL1NUX | 2026-08-31 12:37:50 | 49.25729 | 10.35297 | 74° | 93km/h | 13811m | -6.9m/s | -49.2°C | 3.3% | 153.2hPa | 2.5V | 08:10:15 | 02:08:06 | 00:00:00 | |
| BIOWL1-15 | 2026-08-31 12:37:48 | 49.25729 | 10.35297 | 75° | 93km/h | 13811m | -6.9m/s | -49.2°C | 0.1% | 153.2hPa | 2.5V | 08:10:51 | 02:08:06 | 00:00:00 | |
| HSKMA3-T | 2026-08-31 12:37:46 | 49.25735 | 10.35333 | 74° | 95km/h | 13804m | -6.8m/s | -49.2°C | 0.1% | 153.3hPa | 2.5V | 08:10:51 | 02:08:07 | 00:00:00 | |
| DK7TD | 2026-08-31 12:37:42 | 49.25710 | 10.35194 | 75° | 91km/h | 13832m | -7.1m/s | 0°C | 0% | 0hPa | 2.6V | 18:12:15 | 02:08:03 | 00:00:00 | |
| BIOWL1-15 | 2026-08-31 12:37:37 | 49.25633 | 10.34764 | 73° | 86km/h | 13923m | -7.2m/s | -49.6°C | 0.1% | 150.5hPa | 2.6V | 08:10:51 | 02:07:50 | 00:00:00 | |
| HSKMA3-T | 2026-08-31 12:37:36 | 49.25664 | 10.34925 | 75° | 88km/h | 13887m | -7.1m/s | -49.6°C | 0% | 151.4hPa | 2.5V | 08:10:51 | 02:07:55 | 00:00:00 | |
| DL1NUX | 2026-08-31 12:37:36 | 49.25669 | 10.34958 | 74° | 89km/h | 13880m | -7.1m/s | -49.6°C | 3.4% | 151.6hPa | 2.6V | 08:10:25 | 02:07:56 | 00:00:00 | |
| DK7TD | 2026-08-31 12:37:32 | 49.25646 | 10.34827 | 74° | 88km/h | 13909m | -7.3m/s | 0°C | 0% | 0hPa | 2.5V | 18:12:15 | 02:07:52 | 00:00:00 | |
| DO3MHA-11 | 2026-08-31 12:37:31 | 49.25646 | 10.34827 | 74° | 86km/h | 13909m | -7.3m/s | -49.6°C | 3.4% | 150.7hPa | 2.5V | 00:00:00 | 02:07:52 | 00:00:00 | |
| DL1NUX | 2026-08-31 12:37:30 | 49.25606 | 10.34638 | 71° | 86km/h | 13952m | -7.6m/s | -49.8°C | 3.4% | 149.9hPa | 2.5V | 08:10:35 | 02:07:46 | 00:00:00 | |
| DM0DOS-11 | 2026-08-31 12:37:28 | 49.25613 | 10.34669 | 70° | 86km/h | 13945m | -7.3m/s | -49.8°C | 3.4% | 150.1hPa | 2.5V | 08:10:34 | 02:07:47 | 00:00:00 | |
| BIOWL1-15 | 2026-08-31 12:37:25 | 49.25606 | 10.34638 | 71° | 86km/h | 13952m | -7.6m/s | -49.8°C | 0.1% | 149.9hPa | 2.5V | 08:10:51 | 02:07:46 | 00:00:00 | |
| DK7TD | 2026-08-31 12:37:21 | 49.25577 | 10.34511 | 70° | 88km/h | 13981m | -7.4m/s | 0°C | 0% | 0hPa | 2.6V | 18:12:15 | 02:07:42 | 00:00:00 | |
| DK5PH-5 | 2026-08-31 12:37:21 | 49.25577 | 10.34511 | 71° | 89km/h | 13982m | -7.3m/s | -49.8°C | 3.5% | 149.2hPa | 2.6V | 00:00:00 | 02:07:42 | 00:00:00 | |
| DL1NUX | 2026-08-31 12:37:20 | 49.25533 | 10.34316 | 71° | 89km/h | 14026m | -7.3m/s | -49.7°C | 3.4% | 148.2hPa | 2.6V | 08:10:45 | 02:07:36 | 00:00:00 | |
| NBG1-10 | 2026-08-31 12:37:20 | 49.25569 | 10.34479 | 72° | 89km/h | 13989m | -7.2m/s | -49.8°C | 3.5% | 149.0hPa | 2.6V | 00:00:00 | 02:07:41 | 00:00:00 | |
| DM0DOS-11 | 2026-08-31 12:37:18 | 49.25540 | 10.34349 | 70° | 89km/h | 14018m | -7.2m/s | -49.8°C | 3.5% | 148.4hPa | 2.6V | 08:10:44 | 02:07:37 | 00:00:00 | |
| HSKMA3-T | 2026-08-31 12:37:15 | 49.25525 | 10.34283 | 71° | 91km/h | 14033m | -7.5m/s | -49.8°C | 0.2% | 148.1hPa | 2.6V | 08:10:51 | 02:07:35 | 00:00:00 | |
| BIOWL1-15 | 2026-08-31 12:37:15 | 49.25510 | 10.34217 | 72° | 91km/h | 14048m | -7.7m/s | -49.8°C | 0.2% | 147.7hPa | 2.5V | 08:10:51 | 02:07:33 | 00:00:00 | |
| DJTTGO | 2026-08-31 12:37:14 | 49.25532 | 10.34316 | 72° | 89km/h | 14026m | -7.3m/s | -49.7°C | 1.1% | 148.2hPa | 2.5V | 08:10:00 | 00:00:00 | 00:00:00 | |
| DO9HM | 2026-08-31 12:37:11 | 49.25503 | 10.34183 | 72° | 91km/h | 14056m | -7.5m/s | -49.9°C | 1.2% | 147.6hPa | 2.5V | 08:10:00 | 00:00:00 | 00:00:00 | |
| OE5DXL-15 | 2026-08-31 12:37:10 | 49.25496 | 10.34149 | 73° | 88km/h | 14063m | -7.5m/s | -49.9°C | 3.5% | 147.3hPa | 2.5V | 00:00:00 | 00:00:00 | 00:00:00 | |
| DL1NUX | 2026-08-31 12:37:09 | 49.25461 | 10.33981 | 72° | 91km/h | 14099m | -7.5m/s | -50°C | 3.5% | 146.6hPa | 2.5V | 08:10:55 | 02:07:26 | 00:00:00 | |
| DK7TD | 2026-08-31 12:37:08 | 49.25482 | 10.34082 | 73° | 91km/h | 14078m | -7.2m/s | 0°C | 0% | 0hPa | 2.6V | 18:12:15 | 02:07:29 | 00:00:00 | |
| DM0DOS-11 | 2026-08-31 12:37:07 | 49.25468 | 10.34015 | 72° | 91km/h | 14092m | -7.2m/s | -50°C | 3.5% | 146.7hPa | 2.5V | 08:10:54 | 02:07:27 | 00:00:00 | |
| HSKMA3-T | 2026-08-31 12:37:04 | 49.25454 | 10.33948 | 72° | 91km/h | 14107m | -7.2m/s | -50°C | 0.2% | 146.4hPa | 2.5V | 08:11:42 | 02:07:25 | 00:00:00 | |
| BIOWL1-15 | 2026-08-31 12:37:04 | 49.25440 | 10.33881 | 72° | 91km/h | 14122m | -7.6m/s | -50.2°C | 0.2% | 146.1hPa | 2.6V | 08:11:42 | 02:07:23 | 00:00:00 | |
| DB0ND-19 | 2026-08-31 12:37:04 | 49.25447 | 10.33915 | 72° | 89km/h | 14114m | -7.4m/s | -50.1°C | 1.2% | 146.3hPa | 2.5V | 00:00:00 | 00:00:00 | 00:00:00 | |
| DM0DOS-11 | 2026-08-31 12:37:01 | 49.25401 | 10.33681 | 74° | 89km/h | 14166m | -7.5m/s | -50.2°C | 3.5% | 145.1hPa | 2.5V | 08:11:04 | 02:07:17 | 00:00:00 | |
| DK7TD | 2026-08-31 12:36:58 | 49.25413 | 10.33747 | 75° | 89km/h | 14151m | -7.6m/s | 0°C | 0% | 0hPa | 2.5V | 18:12:15 | 02:07:19 | 00:00:00 | |
| HSKMA3-T | 2026-08-31 12:36:54 | 49.25383 | 10.33583 | 74° | 86km/h | 14188m | -7.2m/s | -50.3°C | 0.2% | 144.6hPa | 2.6V | 08:11:42 | 02:07:14 | 00:00:00 | |
| BIOWL1-15 | 2026-08-31 12:36:53 | 49.25377 | 10.33552 | 74° | 86km/h | 14196m | -7.4m/s | -50.3°C | 0.2% | 144.5hPa | 2.5V | 08:11:42 | 02:07:13 | 00:00:00 | |
| BIOWL9-15 | 2026-08-31 12:36:50 | 49.25348 | 10.33395 | 73° | 82km/h | 14233m | -7.3m/s | -50.2°C | 1.1% | 143.6hPa | 2.5V | 00:00:00 | 00:00:00 | 00:00:00 | |
| DL1NUX | 2026-08-31 12:36:49 | 49.25336 | 10.33334 | 73° | 80km/h | 14248m | -7.8m/s | -50.3°C | 3.5% | 143.3hPa | 2.5V | 08:11:15 | 02:07:06 | 00:00:00 | |
| DM0DOS-11 | 2026-08-31 12:36:47 | 49.25342 | 10.33364 | 74° | 80km/h | 14241m | -7.4m/s | -50.2°C | 3.5% | 143.5hPa | 2.6V | 08:11:14 | 02:07:07 | 00:00:00 | |
| DK7TD | 2026-08-31 12:36:47 | 49.25348 | 10.33395 | 74° | 84km/h | 14233m | -7.3m/s | 0°C | 0% | 0hPa | 2.6V | 18:12:15 | 02:07:08 | 00:00:00 | |
| DL6DJ-15 | 2026-08-31 12:36:47 | 49.25342 | 10.33364 | 74° | 80km/h | 14241m | -7.4m/s | -50.3°C | 1.1% | 143.5hPa | 2.5V | 00:00:00 | 00:00:00 | 00:00:00 | |
| DF7PN | 2026-08-31 12:36:46 | 49.25336 | 10.33334 | 73° | 80km/h | 14248m | -7.8m/s | -50.3°C | 0% | 143.3hPa | 2.5V | 00:00:00 | 00:00:00 | 00:00:00 | |
| HSKMA3-T | 2026-08-31 12:36:43 | 49.25326 | 10.33275 | 74° | 78km/h | 14264m | -7.7m/s | -50.3°C | 0.1% | 142.9hPa | 2.5V | 08:11:42 | 02:07:04 | 00:00:00 | |
| DM0DOS-11 | 2026-08-31 12:36:41 | 49.25286 | 10.33072 | 73° | 82km/h | 14317m | -7.5m/s | -50.5°C | 3.5% | 141.8hPa | 2.5V | 08:11:24 | 02:06:57 | 00:00:00 | |
| DO3MHA-11 | 2026-08-31 12:36:41 | 49.25315 | 10.33217 | 74° | 80km/h | 14279m | -7.2m/s | -50.3°C | 3.5% | 142.6hPa | 2.6V | 00:00:00 | 02:07:02 | 00:00:00 | |
| DL1NUX | 2026-08-31 12:36:40 | 49.25280 | 10.33041 | 72° | 84km/h | 14324m | -7.6m/s | -50.5°C | 3.5% | 141.6hPa | 2.5V | 08:11:25 | 02:06:56 | 00:00:00 | |
| BIOWL1-15 | 2026-08-31 12:36:40 | 49.25309 | 10.33188 | 74° | 77km/h | 14286m | -7.6m/s | -50.3°C | 0.1% | 142.5hPa | 2.6V | 08:11:42 | 02:07:01 | 00:00:00 | |
| DK7TD | 2026-08-31 12:36:37 | 49.25292 | 10.33102 | 73° | 80km/h | 14309m | -7.8m/s | 0°C | 0% | 0hPa | 2.5V | 18:12:15 | 02:06:58 | 00:00:00 | |
| HSKMA3-T | 2026-08-31 12:36:33 | 49.25268 | 10.32980 | 75° | 84km/h | 14340m | -7.6m/s | -50.6°C | 0.2% | 141.3hPa | 2.6V | 08:11:42 | 02:06:54 | 00:00:00 | |
| DB0ND-19 | 2026-08-31 12:36:33 | 49.25268 | 10.32980 | 74° | 82km/h | 14340m | -7.6m/s | -50.6°C | 1.1% | 141.3hPa | 2.6V | 00:00:00 | 00:00:00 | 00:00:00 | |
| DM0DOS-11 | 2026-08-31 12:36:31 | 49.25232 | 10.32768 | 74° | 77km/h | 14393m | -7.6m/s | -50.9°C | 3.7% | 140.1hPa | 2.6V | 08:11:34 | 02:06:47 | 00:00:00 | |
| BIOWL1-15 | 2026-08-31 12:36:30 | 49.25186 | 10.32550 | 71° | 69km/h | 14456m | -7.9m/s | -50.5°C | 0.2% | 138.8hPa | 2.6V | 08:11:42 | 02:06:39 | 00:00:00 | |
| DL1NUX | 2026-08-31 12:36:30 | 49.25226 | 10.32739 | 73° | 77km/h | 14401m | -7.8m/s | -50.9°C | 3.7% | 140hPa | 2.6V | 08:11:35 | 02:06:46 | 00:00:00 | |
| HSKMA3-T | 2026-08-31 12:36:23 | 49.25215 | 10.32683 | 72° | 77km/h | 14417m | -7.8m/s | -50.9°C | 0.3% | 139.6hPa | 2.5V | 08:11:42 | 02:06:44 | 00:00:00 | |
| BIOWL1-15 | 2026-08-31 12:36:19 | 49.25180 | 10.32525 | 70° | 68km/h | 14464m | -8m/s | -50.5°C | 0.1% | 138.6hPa | 2.5V | 08:12:33 | 02:06:38 | 00:00:00 | |
| DM0DOS-11 | 2026-08-31 12:36:18 | 49.25175 | 10.32500 | 70° | 66km/h | 14471m | -7.8m/s | -50.4°C | 3.4% | 138.4hPa | 2.5V | 08:11:44 | 02:06:37 | 00:00:00 | |
| HSKMA3-T | 2026-08-31 12:36:12 | 49.25152 | 10.32406 | 67° | 64km/h | 14503m | -8m/s | -50.1°C | 0% | 137.8hPa | 2.6V | 08:12:33 | 02:06:33 | 00:00:00 | |
| DO3MHA-11 | 2026-08-31 12:36:11 | 49.25145 | 10.32383 | 68° | 60km/h | 14511m | -8.0m/s | -49.9°C | 3.3% | 137.6hPa | 2.6V | 08:11:00 | 02:06:32 | 00:00:00 | |
| DL1NUX | 2026-08-31 12:36:10 | 49.25106 | 10.32253 | 61° | 60km/h | 14559m | -8.1m/s | -50.2°C | 3.4% | 136.5hPa | 2.6V | 08:11:55 | 02:06:26 | 00:00:00 | |
| BIOWL1-15 | 2026-08-31 12:36:09 | 49.25113 | 10.32274 | 64° | 60km/h | 14551m | -8.2m/s | -50.1°C | 0% | 136.8hPa | 2.6V | 08:12:33 | 02:06:27 | 00:00:00 | |
| DM0DOS-11 | 2026-08-31 12:36:07 | 49.25099 | 10.32233 | 60° | 58km/h | 14567m | -8.1m/s | -50.2°C | 3.4% | 136.5hPa | 2.6V | 08:11:56 | 02:06:25 | 00:00:00 | |
| HSKMA3-T | 2026-08-31 12:36:01 | 49.25068 | 10.32154 | 59° | 60km/h | 14600m | -8m/s | -50.4°C | 0.1% | 135.7hPa | 2.5V | 08:12:33 | 02:06:21 | 00:00:00 | |
| SONCRA | 2026-08-31 12:35:59 | 49.25052 | 10.32113 | 58° | 60km/h | 14616m | -7.9m/s | -50.6°C | 1.0% | 135.4hPa | 2.5V | 00:00:00 | 00:00:00 | 00:00:00 | |
| DF1GD-15 | 2026-08-31 12:35:58 | 49.25052 | 10.32113 | 60° | 60km/h | 14616m | -7.9m/s | -50.6°C | 1.1% | 135.4hPa | 2.5V | 08:12:00 | 00:00:00 | 00:00:00 | |
| DL1NUX | 2026-08-31 12:35:56 | 49.25028 | 10.32052 | 59° | 62km/h | 14640m | -8.1m/s | -50.7°C | 3.5% | 134.9hPa | 2.5V | 08:12:05 | 02:06:16 | 00:00:00 | |
| DM0DOS-11 | 2026-08-31 12:35:55 | 49.25020 | 10.32031 | 59° | 64km/h | 14648m | -8m/s | -50.8°C | 3.5% | 134.7hPa | 2.5V | 08:12:06 | 02:06:15 | 00:00:00 | |
| BIOWL1-15 | 2026-08-31 12:35:55 | 49.25028 | 10.32052 | 60° | 62km/h | 14640m | -8.1m/s | -50.7°C | 0.1% | 134.9hPa | 2.5V | 08:12:33 | 02:06:16 | 00:00:00 | |
| HSKMA3-T | 2026-08-31 12:35:51 | 49.24996 | 10.31967 | 62° | 64km/h | 14672m | -7.9m/s | -50.8°C | 0.1% | 134.2hPa | 2.6V | 08:12:33 | 02:06:12 | 00:00:00 | |
| DO3MHA-11 | 2026-08-31 12:35:51 | 49.24996 | 10.31967 | 62° | 66km/h | 14672m | -7.8m/s | -50.7°C | 3.5% | 134.2hPa | 2.6V | 00:00:00 | 02:06:12 | 00:00:00 | |
| DO9HM | 2026-08-31 12:35:50 | 49.24989 | 10.31944 | 64° | 64km/h | 14680m | -8.0m/s | -50.8°C | 1.2% | 134.1hPa | 2.6V | 08:12:00 | 00:00:00 | 00:00:00 | |
| DM0DOS-11 | 2026-08-31 12:35:49 | 49.24947 | 10.31807 | 65° | 66km/h | 14728m | -7.7m/s | -51.1°C | 3.6% | 133.1hPa | 2.6V | 08:12:16 | 02:06:05 | 00:00:00 | |
| BIOWL9-15 | 2026-08-31 12:35:48 | 49.24960 | 10.31853 | 65° | 66km/h | 14712m | -8.2m/s | -51.0°C | 1.1% | 133.4hPa | 2.6V | 00:00:00 | 00:00:00 | 00:00:00 | |
| BIOWL1-15 | 2026-08-31 12:35:44 | 49.24946 | 10.31807 | 65° | 66km/h | 14728m | -7.7m/s | -51.2°C | 0.2% | 133.1hPa | 2.6V | 08:12:33 | 02:06:05 | 00:00:00 | |
| DF7PN | 2026-08-31 12:35:44 | 49.24939 | 10.31784 | 64° | 66km/h | 14736m | -7.9m/s | -51.2°C | 1.1% | 132.9hPa | 2.6V | 00:00:00 | 00:00:00 | 00:00:00 | |
| DL1NUX | 2026-08-31 12:35:42 | 49.24897 | 10.31638 | 67° | 71km/h | 14784m | -7.8m/s | -51.5°C | 3.6% | 132hPa | 2.6V | 08:12:23 | 02:05:58 | 00:00:00 | |
| HSKMA3-T | 2026-08-31 12:35:41 | 49.24925 | 10.31737 | 66° | 68km/h | 14752m | -8m/s | -51.3°C | 0.2% | 132.6hPa | 2.5V | 08:12:33 | 02:06:02 | 00:00:00 | |
| BIOWL1-15 | 2026-08-31 12:35:34 | 49.24854 | 10.31486 | 67° | 69km/h | 14832m | -7.9m/s | -51.6°C | 0.3% | 131hPa | 2.6V | 08:12:33 | 02:05:52 | 00:00:00 | |
| HSKMA3-T | 2026-08-31 12:35:30 | 49.24847 | 10.31461 | 67° | 68km/h | 14839m | -7.8m/s | -51.7°C | 0.3% | 130.8hPa | 2.6V | 08:12:33 | 02:05:51 | 00:00:00 | |
| DL1NUX | 2026-08-31 12:35:28 | 49.24827 | 10.31389 | 67° | 68km/h | 14864m | -8.2m/s | -51.8°C | 3.8% | 130.3hPa | 2.5V | 08:12:33 | 02:05:48 | 00:00:00 | |
| DM0DOS-11 | 2026-08-31 12:35:28 | 49.24800 | 10.31295 | 64° | 66km/h | 14896m | -8.2m/s | -51.9°C | 3.7% | 129.7hPa | 2.6V | 08:12:37 | 02:05:44 | 00:00:00 | |
| DL9SK-14 | 2026-08-31 12:35:28 | 49.24834 | 10.31413 | 67° | 66km/h | 14856m | -8.2m/s | -51.7°C | 1.1% | 130.5hPa | 2.6V | 00:00:00 | 00:00:00 | 00:00:00 | |
| DO3MHA-12 | 2026-08-31 12:35:27 | 49.24821 | 10.31364 | 69° | 66km/h | 14872m | -8.4m/s | -51.8°C | 3.8% | 130.1hPa | 2.6V | 00:00:00 | 02:05:47 | 00:00:00 | |
| DG1MJG | 2026-08-31 12:35:24 | 49.24814 | 10.31341 | 67° | 66km/h | 14881m | -8.1m/s | -51.9°C | 1.2% | 130.0hPa | 2.6V | 08:13:00 | 00:00:00 | 00:00:00 | |
| DL0LBS | 2026-08-31 12:35:23 | 49.24807 | 10.31318 | 67° | 66km/h | 14889m | -8.0m/s | -51.9°C | 1.2% | 129.8hPa | 2.6V | 08:13:00 | 00:00:00 | 00:00:00 | |
| DL1NUX | 2026-08-31 12:35:22 | 49.24753 | 10.31163 | 59° | 64km/h | 14945m | -8.3m/s | -51.8°C | 3.7% | 128.7hPa | 2.6V | 08:12:43 | 02:05:38 | 00:00:00 | |
| BIOWL1-15 | 2026-08-31 12:35:21 | 49.24650 | 10.30870 | 65° | 69km/h | 15054m | -8.5m/s | -51.9°C | 0.3% | 126.6hPa | 2.6V | 08:13:24 | 02:05:25 | 00:00:00 | |
| HSKMA3-T | 2026-08-31 12:35:19 | 49.24769 | 10.31206 | 60° | 66km/h | 14928m | -8.2m/s | -51.8°C | 0.3% | 129hPa | 2.5V | 08:13:24 | 02:05:40 | 00:00:00 | |
| BIOWL1-15 | 2026-08-31 12:35:15 | 49.24643 | 10.30846 | 65° | 69km/h | 15062m | -8.5m/s | -52°C | 0.3% | 126.4hPa | 2.6V | 08:13:24 | 02:05:24 | 00:00:00 | |
| HSKMA3-T | 2026-08-31 12:35:09 | 49.24688 | 10.30987 | 62° | 68km/h | 15012m | -8.3m/s | -52.2°C | 0.4% | 127.4hPa | 2.6V | 08:13:24 | 02:05:30 | 00:00:00 | |
| DO9HM | 2026-08-31 12:35:09 | 49.24688 | 10.30987 | 63° | 68km/h | 15012m | -8.3m/s | -52.2°C | 1.2% | 127.4hPa | 2.5V | 08:13:00 | 00:00:00 | 00:00:00 | |
| NBG1-10 | 2026-08-31 12:35:08 | 49.24680 | 10.30965 | 63° | 69km/h | 15020m | -8.6m/s | -52.1°C | 3.8% | 127.2hPa | 2.5V | 00:00:00 | 02:05:29 | 00:00:00 | |
| DO3MHA-12 | 2026-08-31 12:35:05 | 49.24658 | 10.30894 | 65° | 68km/h | 15046m | -8.1m/s | -51.8°C | 3.7% | 126.7hPa | 2.5V | 00:00:00 | 02:05:26 | 00:00:00 | |
| DM0DOS-11 | 2026-08-31 12:35:02 | 49.24622 | 10.30774 | 65° | 68km/h | 15087m | -8.4m/s | -52.1°C | 3.8% | 125.9hPa | 2.5V | 08:13:00 | 02:05:21 | 00:00:00 | |
| DL1NUX | 2026-08-31 12:35:01 | 49.24588 | 10.30652 | 68° | 68km/h | 15129m | -8.4m/s | -52.3°C | 3.8% | 125.1hPa | 2.5V | 08:13:05 | 02:05:16 | 00:00:00 | |
| HSKMA3-T | 2026-08-31 12:34:58 | 49.24608 | 10.30725 | 67° | 68km/h | 15104m | -8.3m/s | -52.2°C | 0.3% | 125.5hPa | 2.6V | 08:13:24 | 02:05:19 | 00:00:00 | |
| BIOWL1-15 | 2026-08-31 12:34:55 | 49.24558 | 10.30527 | 72° | 69km/h | 15171m | -8.5m/s | -52.5°C | 0.3% | 124.3hPa | 2.5V | 08:13:24 | 02:05:11 | 00:00:00 | |
| DO3MHA-12 | 2026-08-31 12:34:55 | 49.24588 | 10.30652 | 69° | 69km/h | 15129m | -8.4m/s | -52.2°C | 3.8% | 125.1hPa | 2.6V | 00:00:00 | 02:05:16 | 00:00:00 | |
| DG1MJG | 2026-08-31 12:34:54 | 49.24582 | 10.30627 | 70° | 69km/h | 15137m | -8.5m/s | -52.3°C | 1.2% | 124.9hPa | 2.6V | 08:13:00 | 00:00:00 | 00:00:00 | |
| DO3MHA-11 | 2026-08-31 12:34:51 | 49.24564 | 10.30552 | 72° | 71km/h | 15163m | -8.3m/s | -52.4°C | 3.9% | 124.4hPa | 2.6V | 00:00:00 | 02:05:12 | 00:00:00 | |
| DB0NH | 2026-08-31 12:34:50 | 49.24558 | 10.30527 | 72° | 62km/h | 15171m | -8.4m/s | -52.5°C | 3.9% | 124.2hPa | 2.6V | 00:00:00 | 02:05:11 | 00:00:00 | |
| DL1NUX | 2026-08-31 12:34:48 | 49.24538 | 10.30422 | 74° | 71km/h | 15204m | -8.5m/s | -52.7°C | 4% | 123.6hPa | 2.6V | 08:13:14 | 02:05:07 | 00:00:00 | |
| HSKMA3-T | 2026-08-31 12:34:47 | 49.24543 | 10.30449 | 74° | 71km/h | 15196m | -8.3m/s | -52.6°C | 0.3% | 123.8hPa | 2.6V | 08:13:24 | 02:05:08 | 00:00:00 | |
| BIOWL9-15 | 2026-08-31 12:34:45 | 49.24533 | 10.30396 | 74° | 69km/h | 15213m | -8.3m/s | -52.8°C | 1.2% | 123.5hPa | 2.5V | 00:00:00 | 00:00:00 | 00:00:00 | |
| BIOWL1-15 | 2026-08-31 12:34:42 | 49.24518 | 10.30317 | 74° | 69km/h | 15237m | -8.4m/s | -52.8°C | 0.5% | 123hPa | 2.5V | 08:13:24 | 02:05:03 | 00:00:00 | |
| DF7PN | 2026-08-31 12:34:42 | 49.24514 | 10.30291 | 74° | 68km/h | 15245m | -8.1m/s | -52.7°C | 1.2% | 122.8hPa | 2.5V | 00:00:00 | 00:00:00 | 00:00:00 | |
| DO3MHA-11 | 2026-08-31 12:34:41 | 49.24514 | 10.30291 | 75° | 64km/h | 15245m | -8.0m/s | -52.7°C | 4.1% | 122.8hPa | 2.5V | 08:13:00 | 02:05:02 | 00:00:00 | |
| OE5DXL-15 | 2026-08-31 12:34:40 | 49.24509 | 10.30266 | 74° | 53km/h | 15254m | -8.3m/s | -52.7°C | 4.1% | 122.6hPa | 2.5V | 00:00:00 | 00:00:00 | 00:00:00 | |
| DM0DOS-11 | 2026-08-31 12:34:38 | 49.24494 | 10.30192 | 73° | 64km/h | 15278m | -8m/s | -52.6°C | 4.1% | 122.2hPa | 2.5V | 08:13:23 | 02:04:58 | 00:00:00 | |
| DK7TD | 2026-08-31 12:34:35 | 49.24485 | 10.30146 | 73° | 60km/h | 15294m | -8.4m/s | 0°C | 0% | 0hPa | 2.5V | 18:12:15 | 02:04:56 | 00:00:00 | |
| BIOWL1-15 | 2026-08-31 12:34:34 | 49.24470 | 10.30081 | 69° | 58km/h | 15319m | -8.1m/s | -52.4°C | 0.4% | 121.5hPa | 2.6V | 08:14:15 | 02:04:53 | 00:00:00 | |
| DO3MHA-11 | 2026-08-31 12:34:31 | 49.24465 | 10.30060 | 68° | 51km/h | 15328m | -8.8m/s | -52.3°C | 4.0% | 121.3hPa | 2.5V | 00:00:00 | 02:04:52 | 00:00:00 | |
| DL1ZP-14 | 2026-08-31 12:34:30 | 49.24454 | 10.30021 | 65° | 53km/h | 15345m | -8.5m/s | -52.3°C | 1.2% | 121.0hPa | 2.5V | 00:00:00 | 00:00:00 | 00:00:00 | |
| DM0DOS-11 | 2026-08-31 12:34:27 | 49.24437 | 10.29967 | 61° | 51km/h | 15369m | -8m/s | -51.5°C | 3.8% | 120.5hPa | 2.6V | 08:13:34 | 02:04:47 | 00:00:00 | |
| HSKMA3-T | 2026-08-31 12:34:24 | 49.24424 | 10.29933 | 60° | 49km/h | 15386m | -8.1m/s | -51.3°C | 0.2% | 120.2hPa | 2.6V | 08:14:15 | 02:04:45 | 00:00:00 | |
| DG1MJG | 2026-08-31 12:34:23 | 49.24424 | 10.29933 | 61° | 49km/h | 15386m | -8.1m/s | -51.3°C | 1.1% | 120.2hPa | 2.5V | 08:14:00 | 00:00:00 | 00:00:00 | |
| DL1NUX | 2026-08-31 12:34:21 | 49.24373 | 10.29812 | 56° | 42km/h | 15454m | -8.7m/s | -50.9°C | 3.5% | 119hPa | 2.5V | 08:13:44 | 02:04:37 | 00:00:00 | |
| BIOWL1-15 | 2026-08-31 12:34:21 | 49.24406 | 10.29885 | 58° | 49km/h | 15410m | -8.5m/s | -50.9°C | 0.2% | 119.7hPa | 2.5V | 08:14:15 | 02:04:42 | 00:00:00 | |
| HSKMA3-T | 2026-08-31 12:34:14 | 49.24361 | 10.29784 | 57° | 44km/h | 15471m | -8.5m/s | -51°C | 0.2% | 118.7hPa | 2.5V | 08:14:15 | 02:04:35 | 00:00:00 | |
| BIOWL1-15 | 2026-08-31 12:34:10 | 49.24309 | 10.29671 | 52° | 38km/h | 15549m | -8.8m/s | -51.2°C | 0.2% | 117.2hPa | 2.6V | 08:14:15 | 02:04:26 | 00:00:00 | |
| OE5DXL-15 | 2026-08-31 12:34:10 | 49.24338 | 10.29731 | 57° | 42km/h | 15506m | -8.7m/s | -51.1°C | 3.6% | 118.0hPa | 2.6V | 08:13:00 | 00:00:00 | 00:00:00 | |
| DL1NUX | 2026-08-31 12:34:09 | 49.24315 | 10.29683 | 52° | 38km/h | 15541m | -9m/s | -51.2°C | 3.6% | 117.4hPa | 2.5V | 08:13:54 | 02:04:27 | 00:00:00 | |
| HSKMA3-T | 2026-08-31 12:34:04 | 49.24303 | 10.29659 | 53° | 38km/h | 15558m | -9m/s | -51.3°C | 0.2% | 117.1hPa | 2.6V | 08:14:15 | 02:04:25 | 00:00:00 | |
| BIOWL1-15 | 2026-08-31 12:34:00 | 49.24278 | 10.29612 | 51° | 40km/h | 15594m | -9.1m/s | -51.6°C | 0.3% | 116.5hPa | 2.5V | 08:14:15 | 02:04:21 | 00:00:00 | |
| HSKMA3-T | 2026-08-31 12:33:53 | 49.24231 | 10.29524 | 48° | 44km/h | 15656m | -8.9m/s | -52°C | 0.4% | 115.3hPa | 2.5V | 08:14:15 | 02:04:14 | 00:00:00 | |
| DG1MJG | 2026-08-31 12:33:52 | 49.24231 | 10.29524 | 49° | 44km/h | 15656m | -8.9m/s | -52.0°C | 1.2% | 115.3hPa | 2.5V | 08:14:00 | 00:00:00 | 00:00:00 | |
| DM0DOS-11 | 2026-08-31 12:33:51 | 49.24195 | 10.29464 | 47° | 42km/h | 15700m | -9.1m/s | -52.3°C | 3.8% | 114.5hPa | 2.5V | 08:14:12 | 02:04:09 | 00:00:00 | |
| BIOWL1-15 | 2026-08-31 12:33:50 | 49.24209 | 10.29488 | 47° | 42km/h | 15682m | -8.7m/s | -52.2°C | 0.4% | 114.8hPa | 2.6V | 08:14:15 | 02:04:11 | 00:00:00 | |
| DL1NUX | 2026-08-31 12:33:48 | 49.24180 | 10.29439 | 47° | 44km/h | 15717m | -8.5m/s | -52.4°C | 3.8% | 114.2hPa | 2.5V | 08:14:14 | 02:04:07 | 00:00:00 | |
| HSKMA3-T | 2026-08-31 12:33:42 | 49.24140 | 10.29377 | 43° | 46km/h | 15762m | -9m/s | -52.8°C | 0.5% | 113.4hPa | 2.5V | 08:15:06 | 02:04:02 | 00:00:00 | |
| DL1NUX | 2026-08-31 12:33:42 | 49.24096 | 10.29319 | 40° | 46km/h | 15806m | -8.7m/s | -53.2°C | 4% | 112.7hPa | 2.5V | 08:14:24 | 02:03:57 | 00:00:00 | |
| BIOWL1-15 | 2026-08-31 12:33:40 | 49.24131 | 10.29365 | 42° | 46km/h | 15771m | -8.8m/s | -52.8°C | 0.5% | 113.3hPa | 2.7V | 08:15:06 | 02:04:01 | 00:00:00 | |
| HSKMA3-T | 2026-08-31 12:33:32 | 49.24061 | 10.29274 | 40° | 44km/h | 15843m | -9.4m/s | -53.6°C | 0.7% | 112hPa | 2.5V | 08:15:06 | 02:03:53 | 00:00:00 | |
| BIOWL1-15 | 2026-08-31 12:33:31 | 49.24035 | 10.29243 | 34° | 44km/h | 15870m | -9.2m/s | -53.8°C | 0.7% | 111.5hPa | 2.5V | 08:15:06 | 02:03:50 | 00:00:00 | |
| HSKMA3-T | 2026-08-31 12:33:22 | 49.23968 | 10.29175 | 32° | 49km/h | 15933m | -9.3m/s | -54.4°C | 0.8% | 110.4hPa | 2.5V | 08:15:06 | 02:03:43 | 00:00:00 | |
| BIOWL1-15 | 2026-08-31 12:33:18 | 49.23926 | 10.29135 | 31° | 49km/h | 15970m | -9.2m/s | -54.7°C | 0.8% | 109.8hPa | 2.5V | 08:15:06 | 02:03:39 | 00:00:00 | |
| HSKMA3-T | 2026-08-31 12:33:12 | 49.23859 | 10.29068 | 34° | 55km/h | 16025m | -9m/s | -55.1°C | 0.9% | 108.9hPa | 2.5V | 08:15:06 | 02:03:33 | 00:00:00 | |
| BIOWL1-15 | 2026-08-31 12:33:07 | 49.23800 | 10.29011 | 32° | 55km/h | 16070m | -9.3m/s | -55.5°C | 0.9% | 108.1hPa | 2.5V | 08:15:06 | 02:03:28 | 00:00:00 | |
| HSKMA3-T | 2026-08-31 12:33:01 | 49.23726 | 10.28942 | 33° | 60km/h | 16125m | -9.4m/s | -55.8°C | 1% | 107.2hPa | 2.6V | 08:15:06 | 02:03:22 | 00:00:00 | |
| BIOWL1-15 | 2026-08-31 12:32:57 | 49.23625 | 10.28835 | 35° | 62km/h | 16198m | -9.1m/s | -56.5°C | 1.1% | 106hPa | 2.5V | 08:16:48 | 02:03:14 | 00:00:00 | |
| HSKMA3-T | 2026-08-31 12:32:51 | 49.23555 | 10.28764 | 33° | 69km/h | 16245m | -9.2m/s | -56.7°C | 1.1% | 105.2hPa | 2.6V | 08:15:57 | 02:03:09 | 00:00:00 | |
| BIOWL1-15 | 2026-08-31 12:32:41 | 49.23450 | 10.28649 | 40° | 75km/h | 16309m | -9m/s | -57°C | 1.1% | 104.1hPa | 2.5V | 08:16:48 | 02:03:02 | 00:00:00 | |
| DO3MHA-11 | 2026-08-31 12:32:41 | 49.23450 | 10.28649 | 40° | 75km/h | 16310m | -9.0m/s | -57.0°C | 5.2% | 104.1hPa | 2.5V | 00:00:00 | 02:03:02 | 00:00:00 | |
| DL1NUX | 2026-08-31 12:32:40 | 49.23366 | 10.28532 | 44° | 75km/h | 16365m | -9.3m/s | -56.9°C | 5.3% | 103.2hPa | 2.5V | 08:15:25 | 02:02:56 | 00:00:00 | |
| HSKMA3-T | 2026-08-31 12:32:39 | 49.23421 | 10.28611 | 42° | 75km/h | 16328m | -9.3m/s | -57.1°C | 1.1% | 103.8hPa | 2.5V | 08:15:57 | 02:03:00 | 00:00:00 | |
| HSKMA3-T | 2026-08-31 12:32:29 | 49.23294 | 10.28410 | 50° | 69km/h | 16421m | -9.3m/s | -55.9°C | 0.9% | 102.3hPa | 2.6V | 08:15:57 | 02:02:50 | 00:00:00 | |
| DL1NUX | 2026-08-31 12:32:28 | 49.23252 | 10.28328 | 54° | 66km/h | 16460m | -9.2m/s | -55.4°C | 4.5% | 101.7hPa | 2.5V | 08:15:35 | 02:02:46 | 00:00:00 | |
| HSKMA3-T | 2026-08-31 12:32:18 | 49.23189 | 10.28179 | 58° | 68km/h | 16526m | -9.6m/s | -55.1°C | 0.6% | 100.7hPa | 2.7V | 08:15:57 | 02:02:39 | 00:00:00 | |
| DL0LBS | 2026-08-31 12:32:16 | 49.23171 | 10.28135 | 59° | 68km/h | 16545m | -9.7m/s | -55.0°C | 1.3% | 100.3hPa | 2.5V | 08:15:00 | 00:00:00 | 00:00:00 | |
| DM0DOS-11 | 2026-08-31 12:32:15 | 49.23128 | 10.28024 | 61° | 66km/h | 16592m | -9.7m/s | -54.8°C | 4.4% | 99.6hPa | 2.5V | 08:15:49 | 02:02:32 | 00:00:00 | |
| HSKMA3-T | 2026-08-31 12:32:08 | 49.23103 | 10.27955 | 62° | 68km/h | 16622m | -9.6m/s | -55°C | 0.6% | 99.1hPa | 2.6V | 08:15:57 | 02:02:29 | 00:00:00 | |
| BIOWL1-15 | 2026-08-31 12:32:04 | 49.23070 | 10.27862 | 61° | 69km/h | 16660m | -10.1m/s | -55.2°C | 0.6% | 98.5hPa | 2.6V | 08:16:48 | 02:02:25 | 00:00:00 | |
| DF3TZ-5 | 2026-08-31 12:32:03 | 49.23045 | 10.27794 | 59° | 66km/h | 16690m | -9.6m/s | -55.2°C | 1.3% | 98.1hPa | 2.6V | 00:00:00 | 00:00:00 | 00:00:00 | |
| DO3MHA-11 | 2026-08-31 12:32:01 | 49.23045 | 10.27794 | 60° | 66km/h | 16690m | -9.6m/s | -55.2°C | 4.5% | 98.0hPa | 2.6V | 00:00:00 | 02:02:22 | 00:00:00 | |
| DO9HM | 2026-08-31 12:32:00 | 49.23045 | 10.27794 | 61° | 68km/h | 16690m | -9.6m/s | -55.2°C | 1.3% | 98.1hPa | 2.6V | 08:16:00 | 00:00:00 | 00:00:00 | |
| DM0DOS-11 | 2026-08-31 12:31:59 | 49.23021 | 10.27727 | 62° | 66km/h | 16719m | -9.9m/s | -55.1°C | 4.5% | 97.7hPa | 2.6V | 08:16:02 | 02:02:19 | 00:00:00 | |
| BIOWL1-15 | 2026-08-31 12:31:57 | 49.22979 | 10.27592 | 66° | 64km/h | 16778m | -10.2m/s | -54.7°C | 0.6% | 96.7hPa | 2.6V | 08:16:48 | 02:02:13 | 00:00:00 | |
| HSKMA3-T | 2026-08-31 12:31:57 | 49.23013 | 10.27705 | 63° | 66km/h | 16729m | -9.6m/s | -55.1°C | 0.6% | 97.5hPa | 2.6V | 08:16:48 | 02:02:18 | 00:00:00 | |
| DL1ZP-14 | 2026-08-31 12:31:54 | 49.22992 | 10.27637 | 65° | 64km/h | 16759m | -10.1m/s | -54.6°C | 1.2% | 97.0hPa | 2.5V | 00:00:00 | 00:00:00 | 00:00:00 | |
| DB0ND-19 | 2026-08-31 12:31:53 | 49.22986 | 10.27615 | 65° | 62km/h | 16768m | -9.6m/s | -54.6°C | 1.2% | 96.9hPa | 2.5V | 00:00:00 | 00:00:00 | 00:00:00 | |
| DL9SK-14 | 2026-08-31 12:31:51 | 49.22967 | 10.27548 | 66° | 60km/h | 16798m | -9.9m/s | -54.8°C | 1.2% | 96.4hPa | 2.5V | 00:00:00 | 00:00:00 | 00:00:00 | |
| SONCRA | 2026-08-31 12:31:50 | 49.22961 | 10.27527 | 68° | 60km/h | 16808m | -10.1m/s | -54.7°C | 1.2% | 96.3hPa | 2.5V | 00:00:00 | 00:00:00 | 00:00:00 | |
| DM0DOS-11 | 2026-08-31 12:31:49 | 49.22949 | 10.27483 | 68° | 62km/h | 16827m | -9.8m/s | -54.4°C | 4.3% | 96hPa | 2.5V | 08:16:13 | 02:02:08 | 00:00:00 | |
| DL1NUX | 2026-08-31 12:31:48 | 49.22943 | 10.27461 | 67° | 62km/h | 16837m | -10.1m/s | -54.5°C | 4.4% | 95.8hPa | 2.6V | 08:16:14 | 02:02:07 | 00:00:00 | |
| HSKMA3-T | 2026-08-31 12:31:47 | 49.22949 | 10.27483 | 69° | 62km/h | 16827m | -9.8m/s | -54.4°C | 0.5% | 96hPa | 2.5V | 08:16:48 | 02:02:08 | 00:00:00 | |
| BIOWL1-15 | 2026-08-31 12:31:41 | 49.22915 | 10.27347 | 71° | 66km/h | 16887m | -9.9m/s | -54.6°C | 0.6% | 95.1hPa | 2.6V | 08:16:48 | 02:02:02 | 00:00:00 | |
| DL1NUX | 2026-08-31 12:31:41 | 49.22892 | 10.27226 | 76° | 66km/h | 16937m | -10m/s | -54.7°C | 4.7% | 94.4hPa | 2.5V | 08:16:24 | 02:01:57 | 00:00:00 | |
| DO3MHA-11 | 2026-08-31 12:31:41 | 49.22915 | 10.27347 | 71° | 66km/h | 16887m | -9.9m/s | -54.5°C | 4.5% | 95.1hPa | 2.6V | 08:16:00 | 02:02:02 | 00:00:00 | |
| DO9HM | 2026-08-31 12:31:40 | 49.22915 | 10.27347 | 72° | 66km/h | 16887m | -9.9m/s | -54.6°C | 1.3% | 95.1hPa | 2.5V | 08:16:00 | 00:00:00 | 00:00:00 | |
| DM0DOS-11 | 2026-08-31 12:31:39 | 49.22896 | 10.27251 | 74° | 66km/h | 16927m | -10.1m/s | -54.7°C | 4.6% | 94.5hPa | 2.5V | 08:16:23 | 02:01:58 | 00:00:00 | |
| HSKMA3-T | 2026-08-31 12:31:37 | 49.22896 | 10.27251 | 75° | 66km/h | 16927m | -10.1m/s | -54.7°C | 0.6% | 94.5hPa | 2.5V | 08:16:48 | 02:01:58 | 00:00:00 | |
| BIOWL1-15 | 2026-08-31 12:31:30 | 49.22871 | 10.27052 | 82° | 64km/h | 17007m | -10m/s | -53.7°C | 0.5% | 93.4hPa | 2.5V | 08:16:48 | 02:01:50 | 00:00:00 | |
| DM0DOS-11 | 2026-08-31 12:31:28 | 49.22867 | 10.27005 | 82° | 60km/h | 17027m | -10.5m/s | -53.1°C | 4.1% | 93hPa | 2.6V | 08:16:33 | 02:01:48 | 00:00:00 | |
| DL1NUX | 2026-08-31 12:31:28 | 49.22865 | 10.26982 | 80° | 58km/h | 17038m | -10.2m/s | -52.9°C | 4% | 92.9hPa | 2.5V | 08:16:34 | 02:01:47 | 00:00:00 | |
| HSKMA3-T | 2026-08-31 12:31:26 | 49.22865 | 10.26982 | 81° | 58km/h | 17038m | -10.2m/s | -52.9°C | 0.3% | 92.9hPa | 2.5V | 08:16:48 | 02:01:47 | 00:00:00 | |
| DK7TD | 2026-08-31 12:31:25 | 49.22862 | 10.26960 | 82° | 58km/h | 17048m | -10.4m/s | 0°C | 0% | 0hPa | 2.5V | 18:12:15 | 02:01:46 | 00:00:00 | |
| DO3MHA-12 | 2026-08-31 12:31:25 | 49.22862 | 10.26960 | 82° | 53km/h | 17048m | -10.3m/s | -52.6°C | 4.0% | 92.7hPa | 2.7V | 00:00:00 | 02:01:46 | 00:00:00 | |
| DL1ZP-14 | 2026-08-31 12:31:23 | 49.22858 | 10.26917 | 81° | 55km/h | 17068m | -10.3m/s | -52.3°C | 1.0% | 92.5hPa | 2.7V | 00:00:00 | 00:00:00 | 00:00:00 | |
| DB0ND-19 | 2026-08-31 12:31:22 | 49.22856 | 10.26896 | 83° | 53km/h | 17079m | -10.2m/s | -52.1°C | 1.0% | 92.3hPa | 2.7V | 00:00:00 | 00:00:00 | 00:00:00 | |
| DL1NUX | 2026-08-31 12:31:21 | 49.22845 | 10.26779 | 78° | 47km/h | 17140m | -10.1m/s | -51.9°C | 3.7% | 91.5hPa | 2.7V | 08:16:44 | 02:01:37 | 00:00:00 | |
| DO3MHA-11 | 2026-08-31 12:31:21 | 49.22855 | 10.26875 | 83° | 47km/h | 17089m | -10.3m/s | -52.0°C | 3.8% | 92.2hPa | 2.5V | 00:00:00 | 02:01:42 | 00:00:00 | |
| DM0DOS-11 | 2026-08-31 12:31:18 | 49.22847 | 10.26797 | 80° | 47km/h | 17130m | -10.4m/s | -51.8°C | 3.7% | 91.6hPa | 2.5V | 08:16:43 | 02:01:38 | 00:00:00 | |
| HSKMA3-T | 2026-08-31 12:31:16 | 49.22845 | 10.26779 | 78° | 47km/h | 17140m | -10.1m/s | -51.9°C | 0.1% | 91.5hPa | 2.7V | 08:16:48 | 02:01:37 | 00:00:00 | |
| BIOWL1-15 | 2026-08-31 12:31:10 | 49.22820 | 10.26657 | 68° | 38km/h | 17223m | -10.2m/s | -52.1°C | 0.1% | 90.3hPa | 2.5V | 08:17:39 | 02:01:29 | 00:00:00 | |
| OE5DXL-15 | 2026-08-31 12:31:09 | 49.22823 | 10.26670 | 69° | 35km/h | 17213m | -10.6m/s | -52.0°C | 3.7% | 90.4hPa | 2.7V | 00:00:00 | 00:00:00 | 00:00:00 | |
| DL1NUX | 2026-08-31 12:31:08 | 49.22813 | 10.26630 | 70° | 37km/h | 17244m | -10.5m/s | -52.1°C | 3.7% | 90hPa | 2.5V | 08:16:54 | 02:01:27 | 00:00:00 | |
| HSKMA3-T | 2026-08-31 12:31:06 | 49.22813 | 10.26630 | 71° | 37km/h | 17244m | -10.5m/s | -52.1°C | 0.2% | 90hPa | 2.5V | 08:17:39 | 02:01:27 | 00:00:00 | |
| DL6DJ-15 | 2026-08-31 12:31:05 | 49.22806 | 10.26603 | 69° | 35km/h | 17264m | -10.5m/s | -52.0°C | 1.0% | 89.7hPa | 2.6V | 00:00:00 | 00:00:00 | 00:00:00 | |
| DF7PN | 2026-08-31 12:31:04 | 49.22806 | 10.26603 | 69° | 35km/h | 17264m | -10.5m/s | -52.0°C | 1.0% | 89.7hPa | 2.6V | 00:00:00 | 00:00:00 | 00:00:00 | |
| DL1NUX | 2026-08-31 12:31:01 | 49.22777 | 10.26512 | 58° | 31km/h | 17348m | -10.3m/s | -52.1°C | 3.7% | 88.5hPa | 2.6V | 08:17:04 | 02:01:17 | 00:00:00 | |
| BIOWL1-15 | 2026-08-31 12:30:58 | 49.22760 | 10.26471 | 57° | 31km/h | 17389m | -10.1m/s | -52.3°C | 0.2% | 88hPa | 2.7V | 08:17:39 | 02:01:13 | 00:00:00 | |
| DM0DOS-11 | 2026-08-31 12:30:58 | 49.22781 | 10.26523 | 59° | 31km/h | 17338m | -10.4m/s | -52°C | 3.7% | 88.7hPa | 2.7V | 08:17:03 | 02:01:18 | 00:00:00 | |
| HSKMA3-T | 2026-08-31 12:30:55 | 49.22773 | 10.26502 | 58° | 31km/h | 17358m | -10.5m/s | -52.1°C | 0.2% | 88.4hPa | 2.5V | 08:17:39 | 02:01:16 | 00:00:00 | |
| DB0ND-19 | 2026-08-31 12:30:52 | 49.22755 | 10.26461 | 54° | 31km/h | 17400m | -10.5m/s | -52.4°C | 1.0% | 87.8hPa | 2.7V | 00:00:00 | 00:00:00 | 00:00:00 | |
| DM0DOS-11 | 2026-08-31 12:30:51 | 49.22736 | 10.26420 | 52° | 33km/h | 17442m | -10.5m/s | -52.5°C | 3.6% | 87.3hPa | 2.7V | 08:17:13 | 02:01:08 | 00:00:00 | |
| DL9SK-14 | 2026-08-31 12:30:49 | 49.22741 | 10.26430 | 53° | 33km/h | 17431m | -10.5m/s | -52.4°C | 1.0% | 87.4hPa | 2.7V | 00:00:00 | 00:00:00 | 00:00:00 | |
| DL1NUX | 2026-08-31 12:30:48 | 49.22730 | 10.26410 | 51° | 35km/h | 17452m | -10.3m/s | -52.6°C | 3.7% | 87.1hPa | 2.7V | 08:17:14 | 02:01:07 | 00:00:00 | |
| SONCRA | 2026-08-31 12:30:48 | 49.22736 | 10.26420 | 52° | 33km/h | 17442m | -10.5m/s | -52.5°C | 1.0% | 87.3hPa | 2.5V | 00:00:00 | 00:00:00 | 00:00:00 | |
| HSKMA3-T | 2026-08-31 12:30:44 | 49.22720 | 10.26388 | 52° | 37km/h | 17473m | -10.6m/s | -52.7°C | 0.1% | 86.9hPa | 2.5V | 08:17:39 | 02:01:05 | 00:00:00 | |
| BIOWL1-15 | 2026-08-31 12:30:43 | 49.22685 | 10.26320 | 54° | 37km/h | 17536m | -10.8m/s | -53.3°C | 0.2% | 85.9hPa | 2.7V | 08:17:39 | 02:00:59 | 00:00:00 | |
| DL1NUX | 2026-08-31 12:30:41 | 49.22674 | 10.26297 | 54° | 35km/h | 17557m | -10.7m/s | -53.5°C | 3.9% | 85.8hPa | 2.5V | 08:17:24 | 02:00:57 | 00:00:00 | |
| DO3MHA-11 | 2026-08-31 12:30:41 | 49.22702 | 10.26354 | 52° | 37km/h | 17505m | -10.5m/s | -53.0°C | 3.8% | 86.4hPa | 2.5V | 00:00:00 | 02:01:02 | 00:00:00 | |
| DM0DOS-11 | 2026-08-31 12:30:40 | 49.22680 | 10.26308 | 53° | 37km/h | 17547m | -10.5m/s | -53.4°C | 3.9% | 85.9hPa | 2.5V | 08:17:23 | 02:00:58 | 00:00:00 | |
| HSKMA3-T | 2026-08-31 12:30:35 | 49.22664 | 10.26275 | 53° | 35km/h | 17578m | -10.7m/s | -53.6°C | 0.3% | 85.4hPa | 2.7V | 08:17:39 | 02:00:55 | 00:00:00 | |
| BIOWL1-15 | 2026-08-31 12:30:30 | 49.22642 | 10.26231 | 54° | 35km/h | 17621m | -10.9m/s | -53.9°C | 0.4% | 84.9hPa | 2.5V | 08:17:39 | 02:00:51 | 00:00:00 | |
| AZAK | 2026-08-31 12:30:30 | 49.22642 | 10.26231 | 55° | 35km/h | 17621m | -10.9m/s | -53.9°C | 1.1% | 84.9hPa | 2.6V | 00:00:00 | 00:00:00 | 00:00:00 | |
| DM0DOS-11 | 2026-08-31 12:30:29 | 49.22627 | 10.26200 | 53° | 33km/h | 17653m | -10.7m/s | -54°C | 4.2% | 84.5hPa | 2.6V | 08:17:33 | 02:00:48 | 00:00:00 | |
| DL1NUX | 2026-08-31 12:30:29 | 49.22622 | 10.26190 | 54° | 31km/h | 17663m | -10.6m/s | -54.1°C | 4.2% | 84.3hPa | 2.5V | 08:17:34 | 02:00:47 | 00:00:00 | |
| HSKMA3-T | 2026-08-31 12:30:23 | 49.22610 | 10.26161 | 58° | 29km/h | 17695m | -11m/s | -54.1°C | 0.4% | 83.9hPa | 2.7V | 08:17:39 | 02:00:44 | 00:00:00 | |
| DM0DOS-11 | 2026-08-31 12:30:22 | 49.22582 | 10.26096 | 57° | 31km/h | 17770m | -10.6m/s | -54.2°C | 4.2% | 82.9hPa | 2.6V | 08:17:44 | 02:00:37 | 00:00:00 | |
| DL1NUX | 2026-08-31 12:30:21 | 49.22582 | 10.26096 | 57° | 31km/h | 17770m | -10.6m/s | -54.2°C | 4.2% | 82.9hPa | 2.6V | 08:17:44 | 02:00:37 | 00:00:00 | |
| BIOWL1-15 | 2026-08-31 12:30:19 | 49.22586 | 10.26106 | 58° | 31km/h | 17760m | -10.9m/s | -54.2°C | 0.5% | 83.1hPa | 2.7V | 08:18:30 | 02:00:38 | 00:00:00 | |
| HSKMA3-T | 2026-08-31 12:30:13 | 49.22570 | 10.26065 | 61° | 31km/h | 17803m | -11.2m/s | -54.3°C | 0.5% | 82.5hPa | 2.5V | 08:18:30 | 02:00:34 | 00:00:00 | |
| BIOWL1-15 | 2026-08-31 12:30:09 | 49.22545 | 10.25979 | 67° | 42km/h | 17880m | -11m/s | -53.7°C | 0.4% | 81.5hPa | 2.5V | 08:18:30 | 02:00:27 | 00:00:00 | |
| DL1NUX | 2026-08-31 12:30:09 | 49.22545 | 10.25979 | 66° | 42km/h | 17880m | -11m/s | -53.7°C | 4.1% | 81.5hPa | 2.5V | 08:17:54 | 02:00:27 | 00:00:00 | |
| HSKMA3-T | 2026-08-31 12:30:03 | 49.22532 | 10.25934 | 66° | 42km/h | 17913m | -10.7m/s | -53.6°C | 0.4% | 81.1hPa | 2.5V | 08:18:30 | 02:00:24 | 00:00:00 | |
| DF7PN | 2026-08-31 12:30:02 | 49.22528 | 10.25920 | 65° | 40km/h | 17924m | -11.2m/s | -53.5°C | 1.1% | 81.0hPa | 2.5V | 00:00:00 | 00:00:00 | 00:00:00 | |
| DO3MHA-11 | 2026-08-31 12:30:01 | 49.22523 | 10.25905 | 65° | 38km/h | 17935m | -10.5m/s | -53.4°C | 4.0% | 80.8hPa | 2.5V | 00:00:00 | 02:00:22 | 00:00:00 | |
| DB0UT-7 | 2026-08-31 12:30:00 | 49.22519 | 10.25891 | 63° | 38km/h | 17946m | -11.3m/s | -53.4°C | 4.0% | 80.7hPa | 2.5V | 00:00:00 | 02:00:21 | 00:00:00 | |
| DM0DOS-11 | 2026-08-31 12:29:59 | 49.22501 | 10.25837 | 61° | 38km/h | 17990m | -10.7m/s | -53.4°C | 4% | 80.2hPa | 2.5V | 08:18:04 | 02:00:17 | 00:00:00 | |
| BIOWL1-15 | 2026-08-31 12:29:55 | 49.22464 | 10.25756 | 50° | 38km/h | 18067m | -11.2m/s | -53°C | 0.3% | 79.2hPa | 2.7V | 08:18:30 | 02:00:10 | 00:00:00 | |
| HSKMA3-T | 2026-08-31 12:29:52 | 49.22482 | 10.25790 | 54° | 37km/h | 18034m | -10.9m/s | -53°C | 0.3% | 79.6hPa | 2.5V | 08:18:30 | 02:00:13 | 00:00:00 | |
| DL1ZP-14 | 2026-08-31 12:29:50 | 49.22464 | 10.25756 | 49° | 38km/h | 18067m | -11.2m/s | -53.0°C | 1.0% | 79.2hPa | 2.7V | 00:00:00 | 00:00:00 | 00:00:00 | |
| DB0ND-19 | 2026-08-31 12:29:49 | 49.22464 | 10.25756 | 49° | 38km/h | 18067m | -11.2m/s | -53.0°C | 1.0% | 79.2hPa | 2.5V | 00:00:00 | 00:00:00 | 00:00:00 | |
| DL1NUX | 2026-08-31 12:29:48 | 49.22443 | 10.25720 | 47° | 44km/h | 18100m | -10.9m/s | -53.3°C | 4.1% | 78.8hPa | 2.5V | 08:18:14 | 02:00:07 | 00:00:00 | |
| SONCRA | 2026-08-31 12:29:46 | 49.22435 | 10.25708 | 46° | 44km/h | 18111m | -11.1m/s | -53.4°C | 1.0% | 78.7hPa | 2.7V | 00:00:00 | 00:00:00 | 00:00:00 | |
| HSKMA3-T | 2026-08-31 12:29:42 | 49.22412 | 10.25670 | 48° | 44km/h | 18144m | -11.2m/s | -53.6°C | 0.4% | 78.3hPa | 2.7V | 08:18:30 | 02:00:03 | 00:00:00 | |
| BIOWL1-15 | 2026-08-31 12:29:41 | 49.22378 | 10.25610 | 52° | 38km/h | 18199m | -10.8m/s | -53.1°C | 0.3% | 77.6hPa | 2.5V | 08:18:30 | 01:59:58 | 00:00:00 | |
| HSKMA3-T | 2026-08-31 12:29:32 | 49.22353 | 10.25554 | 56° | 35km/h | 18255m | -11.1m/s | -52.6°C | 0.3% | 76.9hPa | 2.5V | 08:18:30 | 01:59:53 | 00:00:00 | |
| BIOWL1-15 | 2026-08-31 12:29:28 | 49.22319 | 10.25491 | 41° | 26km/h | 18333m | -11m/s | -52.7°C | 0.3% | 76hPa | 2.7V | 08:19:21 | 01:59:46 | 00:00:00 | |
| DF8AY | 2026-08-31 12:29:22 | 49.22303 | 10.25471 | 38° | 27km/h | 18367m | -11m/s | -52.6°C | 0.3% | 75.6hPa | 2.5V | 08:23:36 | 01:59:43 | 00:00:00 | |
| HSKMA3-T | 2026-08-31 12:29:21 | 49.22298 | 10.25464 | 38° | 27km/h | 18378m | -11.8m/s | -52.5°C | 0.3% | 75.5hPa | 2.5V | 08:19:21 | 01:59:42 | 00:00:00 | |
| DO3MHA-11 | 2026-08-31 12:29:21 | 49.22297 | 10.25464 | 39° | 26km/h | 18378m | -11.7m/s | -52.5°C | 3.9% | 75.4hPa | 2.7V | 00:00:00 | 01:59:42 | 00:00:00 | |
| DB0NH | 2026-08-31 12:29:20 | 49.22292 | 10.25458 | 42° | 22km/h | 18389m | -11.5m/s | -52.5°C | 3.9% | 75.3hPa | 2.7V | 00:00:00 | 01:59:41 | 00:00:00 | |
| DM0DOS-11 | 2026-08-31 12:29:18 | 49.22271 | 10.25429 | 41° | 27km/h | 18435m | -11.2m/s | -52.8°C | 4% | 74.8hPa | 2.5V | 08:18:44 | 01:59:37 | 00:00:00 | |
| BIOWL1-15 | 2026-08-31 12:29:15 | 49.22262 | 10.25416 | 41° | 24km/h | 18457m | -11.4m/s | -52.5°C | 0.3% | 74.6hPa | 2.7V | 08:19:21 | 01:59:35 | 00:00:00 | |
| HSKMA3-T | 2026-08-31 12:29:11 | 49.22249 | 10.25399 | 39° | 22km/h | 18492m | -11.5m/s | -52.2°C | 0.2% | 74.2hPa | 2.5V | 08:19:21 | 01:59:32 | 00:00:00 | |
| DO3MHA-11 | 2026-08-31 12:29:11 | 49.22249 | 10.25399 | 40° | 20km/h | 18492m | -11.4m/s | -52.2°C | 3.8% | 74.1hPa | 2.5V | 00:00:00 | 01:59:32 | 00:00:00 | |
| DM0DOS-11 | 2026-08-31 12:29:08 | 49.22215 | 10.25363 | 34° | 20km/h | 18584m | -11.7m/s | -51.9°C | 3.6% | 73.1hPa | 2.7V | 08:18:57 | 01:59:24 | 00:00:00 | |
| DL1NUX | 2026-08-31 12:29:08 | 49.22227 | 10.25376 | 29° | 20km/h | 18550m | -11.5m/s | -52°C | 3.7% | 73.5hPa | 2.5V | 08:18:54 | 01:59:27 | 00:00:00 | |
| BIOWL1-15 | 2026-08-31 12:29:05 | 49.22192 | 10.25333 | 49° | 20km/h | 18654m | -11.8m/s | -51.9°C | 0.1% | 72.3hPa | 2.7V | 08:19:21 | 01:59:18 | 00:00:00 | |
| HSKMA3-T | 2026-08-31 12:29:00 | 49.22202 | 10.25350 | 40° | 20km/h | 18619m | -11.6m/s | -51.9°C | 0.2% | 72.7hPa | 2.5V | 08:19:21 | 01:59:21 | 00:00:00 | |
| DL1NUX | 2026-08-31 12:29:00 | 49.22189 | 10.25328 | 54° | 18km/h | 18666m | -11.6m/s | -51.9°C | 3.6% | 72.2hPa | 2.7V | 08:19:04 | 01:59:17 | 00:00:00 | |
| DF7PN | 2026-08-31 12:29:00 | 49.22199 | 10.25344 | 45° | 18km/h | 18631m | -12.0m/s | -51.8°C | 0.9% | 72.6hPa | 2.5V | 00:00:00 | 00:00:00 | 00:00:00 | |
| DF3TZ-5 | 2026-08-31 12:28:57 | 49.22189 | 10.25328 | 54° | 18km/h | 18666m | -11.6m/s | -51.9°C | 0.9% | 72.2hPa | 2.5V | 00:00:00 | 00:00:00 | 00:00:00 | |
| DM0DOS-11 | 2026-08-31 12:28:56 | 49.22181 | 10.25310 | 61° | 18km/h | 18701m | -11.6m/s | -52.1°C | 3.6% | 71.8hPa | 2.5V | 08:19:07 | 01:59:14 | 00:00:00 | |
| BIOWL1-15 | 2026-08-31 12:28:53 | 49.22181 | 10.25310 | 61° | 18km/h | 18701m | -11.6m/s | -52.1°C | 0.2% | 71.8hPa | 2.5V | 08:19:21 | 01:59:14 | 00:00:00 | |
| HSKMA3-T | 2026-08-31 12:28:50 | 49.22175 | 10.25291 | 63° | 18km/h | 18736m | -11.8m/s | -52.3°C | 0.2% | 71.4hPa | 2.5V | 08:19:21 | 01:59:11 | 00:00:00 | |
| DB0NH | 2026-08-31 12:28:50 | 49.22175 | 10.25291 | 63° | 24km/h | 18736m | -11.8m/s | -52.2°C | 3.7% | 71.3hPa | 2.7V | 00:00:00 | 01:59:11 | 00:00:00 | |
| DL1NUX | 2026-08-31 12:28:48 | 49.22167 | 10.25264 | 63° | 20km/h | 18783m | -12.1m/s | -52.6°C | 3.7% | 70.9hPa | 2.7V | 08:19:14 | 01:59:07 | 00:00:00 | |
| DL1ZP-14 | 2026-08-31 12:28:48 | 49.22169 | 10.25271 | 62° | 18km/h | 18772m | -11.8m/s | -52.6°C | 1.0% | 71.0hPa | 2.7V | 00:00:00 | 00:00:00 | 00:00:00 | |
| DB0ND-19 | 2026-08-31 12:28:47 | 49.22169 | 10.25271 | 62° | 18km/h | 18772m | -11.8m/s | -52.6°C | 1.0% | 71.0hPa | 2.7V | 00:00:00 | 00:00:00 | 00:00:00 | |
| DO3MHA-12 | 2026-08-31 12:28:45 | 49.22164 | 10.25257 | 66° | 22km/h | 18795m | -11.8m/s | -52.6°C | 3.7% | 70.7hPa | 2.7V | 00:00:00 | 01:59:06 | 00:00:00 | |
| DL9SK-14 | 2026-08-31 12:28:44 | 49.22162 | 10.25250 | 64° | 20km/h | 18807m | -12.0m/s | -52.7°C | 0.9% | 70.6hPa | 2.7V | 00:00:00 | 00:00:00 | 00:00:00 | |
| SONCRA | 2026-08-31 12:28:43 | 49.22160 | 10.25243 | 65° | 20km/h | 18819m | -11.8m/s | -52.7°C | 0.9% | 70.5hPa | 2.7V | 00:00:00 | 00:00:00 | 00:00:00 | |
| BIOWL1-15 | 2026-08-31 12:28:43 | 49.22158 | 10.25235 | 71° | 20km/h | 18831m | -12m/s | -52.7°C | 0.2% | 70.4hPa | 2.5V | 08:19:21 | 01:59:03 | 00:00:00 | |
| OE5DRO-10 | 2026-08-31 12:28:42 | 49.22158 | 10.25235 | 71° | 26km/h | 18831m | -11.9m/s | -52.7°C | 3.7% | 70.3hPa | 2.7V | 00:00:00 | 00:00:00 | 00:00:00 | |
| DO3MHA-11 | 2026-08-31 12:28:41 | 49.22156 | 10.25227 | 71° | 24km/h | 18843m | -11.8m/s | -52.7°C | 3.8% | 70.2hPa | 2.7V | 08:19:00 | 01:59:02 | 00:00:00 | |
| DL1NUX | 2026-08-31 12:28:40 | 49.22149 | 10.25184 | 74° | 26km/h | 18903m | -11.8m/s | -53.2°C | 3.9% | 69.6hPa | 2.7V | 08:19:24 | 01:58:57 | 00:00:00 | |
| HSKMA3-T | 2026-08-31 12:28:40 | 49.22154 | 10.25219 | 74° | 22km/h | 18855m | -12.2m/s | -52.9°C | 0.2% | 70.1hPa | 2.7V | 08:19:21 | 01:59:01 | 00:00:00 | |
| DM0DOS-11 | 2026-08-31 12:28:39 | 49.22141 | 10.25145 | 72° | 27km/h | 18950m | -11.8m/s | -53.5°C | 4% | 69.1hPa | 2.5V | 08:19:28 | 01:58:53 | 00:00:00 | |
| DF8AY | 2026-08-31 12:28:36 | 49.22149 | 10.25184 | 74° | 26km/h | 18903m | -11.8m/s | -53.2°C | 0.3% | 69.6hPa | 2.7V | 08:23:36 | 01:58:57 | 00:00:00 | |
| BIOWL1-15 | 2026-08-31 12:28:35 | 49.22132 | 10.25105 | 74° | 27km/h | 18998m | -11.9m/s | -53.8°C | 0.4% | 68.6hPa | 2.5V | 08:20:12 | 01:58:49 | 00:00:00 | |
| HSKMA3-T | 2026-08-31 12:28:30 | 49.22134 | 10.25115 | 72° | 27km/h | 18986m | -12m/s | -53.8°C | 0.4% | 68.7hPa | 2.7V | 08:20:12 | 01:58:50 | 00:00:00 | |
| DL6DJ-15 | 2026-08-31 12:28:29 | 49.22134 | 10.25115 | 72° | 27km/h | 18986m | -12.0m/s | -53.8°C | 1.0% | 68.7hPa | 2.5V | 00:00:00 | 00:00:00 | 00:00:00 | |
| DL1NUX | 2026-08-31 12:28:28 | 49.22128 | 10.25084 | 76° | 27km/h | 19022m | -12.1m/s | -53.9°C | 4.2% | 68.3hPa | 2.5V | 08:19:34 | 01:58:47 | 00:00:00 | |
| BIOWL1-15 | 2026-08-31 12:28:20 | 49.22119 | 10.25032 | 74° | 20km/h | 19094m | -12.2m/s | -53.5°C | 0.3% | 67.6hPa | 2.5V | 08:20:12 | 01:58:41 | 00:00:00 | |
| DL1NUX | 2026-08-31 12:28:20 | 49.22113 | 10.25003 | 74° | 18km/h | 19141m | -12.3m/s | -53.3°C | 4% | 67.1hPa | 2.5V | 08:19:44 | 01:58:37 | 00:00:00 | |
| HSKMA3-T | 2026-08-31 12:28:20 | 49.22118 | 10.25025 | 74° | 20km/h | 19105m | -11.9m/s | -53.5°C | 0.4% | 67.5hPa | 2.7V | 08:20:12 | 01:58:40 | 00:00:00 | |
| BIOWL1-15 | 2026-08-31 12:28:12 | 49.22104 | 10.24970 | 41° | 15km/h | 19214m | -11.9m/s | -53.3°C | 0.3% | 66.3hPa | 2.5V | 08:20:12 | 01:58:31 | 00:00:00 | |
| HSKMA3-T | 2026-08-31 12:28:09 | 49.22101 | 10.24967 | 37° | 13km/h | 19226m | -12.4m/s | -53.4°C | 0.4% | 66.2hPa | 2.5V | 08:20:12 | 01:58:30 | 00:00:00 | |
| OE5WHR-10 | 2026-08-31 12:28:09 | 49.22101 | 10.24967 | 37° | 11km/h | 19226m | -12.3m/s | -53.3°C | 4.0% | 66.1hPa | 2.5V | 08:19:00 | 00:00:00 | 00:00:00 | |
| DF8AY | 2026-08-31 12:28:09 | 49.22094 | 10.24961 | 28° | 16km/h | 19251m | -12.5m/s | -53.6°C | 0.4% | 65.9hPa | 2.7V | 08:23:36 | 01:58:28 | 00:00:00 | |
| DL1NUX | 2026-08-31 12:28:08 | 49.22091 | 10.24958 | 25° | 16km/h | 19263m | -12.1m/s | -53.6°C | 4.1% | 65.8hPa | 2.5V | 08:19:54 | 01:58:27 | 00:00:00 | |
| DM0DOS-11 | 2026-08-31 12:28:07 | 49.22076 | 10.24946 | 36° | 16km/h | 19312m | -12.1m/s | -53.8°C | 4.2% | 65.4hPa | 2.5V | 08:19:58 | 01:58:23 | 00:00:00 | |
| PG1ADW-2 | 2026-08-31 12:28:06 | 49.22090 | 10.24958 | 26° | 18km/h | 19263m | -12.1m/s | -53.6°C | 4.1% | 65.8hPa | 2.5V | 00:00:00 | 00:00:00 | 00:00:00 | |
| DO3MHA-12 | 2026-08-31 12:28:05 | 49.22087 | 10.24956 | 26° | 16km/h | 19275m | -12.1m/s | -53.7°C | 4.1% | 65.6hPa | 2.5V | 00:00:00 | 01:58:26 | 00:00:00 | |
| OE5DRO-10 | 2026-08-31 12:28:04 | 49.22083 | 10.24953 | 32° | 18km/h | 19287m | -12.2m/s | -53.7°C | 4.2% | 65.5hPa | 2.5V | 00:00:00 | 00:00:00 | 00:00:00 | |
| DO3MHA-11 | 2026-08-31 12:28:01 | 49.22073 | 10.24942 | 41° | 18km/h | 19324m | -12.3m/s | -53.8°C | 4.2% | 65.1hPa | 2.5V | 00:00:00 | 01:58:22 | 00:00:00 | |
| DL1NUX | 2026-08-31 12:28:00 | 49.22061 | 10.24916 | 63° | 18km/h | 19385m | -12.2m/s | -53.5°C | 4.1% | 64.6hPa | 2.5V | 08:20:04 | 01:58:17 | 00:00:00 | |
| BIOWL1-15 | 2026-08-31 12:27:59 | 49.22063 | 10.24921 | 60° | 16km/h | 19373m | -12.2m/s | -53.6°C | 0.4% | 64.7hPa | 2.7V | 08:20:12 | 01:58:18 | 00:00:00 | |
| HSKMA3-T | 2026-08-31 12:27:58 | 49.22065 | 10.24927 | 60° | 18km/h | 19361m | -12.6m/s | -53.6°C | 0.5% | 64.8hPa | 2.7V | 08:20:12 | 01:58:19 | 00:00:00 | |
| BIOWL1-15 | 2026-08-31 12:27:49 | 49.22041 | 10.24868 | 52° | 22km/h | 19472m | -12.3m/s | -53.2°C | 0.4% | 63.7hPa | 2.6V | 08:20:12 | 01:58:10 | 00:00:00 | |
| HSKMA3-T | 2026-08-31 12:27:48 | 49.22037 | 10.24862 | 49° | 22km/h | 19484m | -12.3m/s | -53.2°C | 0.4% | 63.6hPa | 2.7V | 08:20:12 | 01:58:09 | 00:00:00 | |
| DL1NUX | 2026-08-31 12:27:48 | 49.22030 | 10.24850 | 46° | 22km/h | 19508m | -12.4m/s | -53.3°C | 4.1% | 63.3hPa | 2.7V | 08:20:14 | 01:58:07 | 00:00:00 | |
| DK5PH-5 | 2026-08-31 12:27:48 | 49.22037 | 10.24862 | 49° | 22km/h | 19484m | -12.2m/s | -53.1°C | 4.0% | 63.6hPa | 2.7V | 00:00:00 | 01:58:09 | 00:00:00 | |
| DM0DOS-11 | 2026-08-31 12:27:47 | 49.22017 | 10.24828 | 50° | 18km/h | 19558m | -12.5m/s | -53°C | 4% | 62.8hPa | 2.7V | 08:20:18 | 01:58:03 | 00:00:00 | |
| DL1ZP-14 | 2026-08-31 12:27:46 | 49.22026 | 10.24844 | 48° | 20km/h | 19521m | -12.5m/s | -53.3°C | 1.0% | 63.2hPa | 2.5V | 00:00:00 | 00:00:00 | 00:00:00 | |
| DF8AY | 2026-08-31 12:27:45 | 49.22020 | 10.24833 | 49° | 18km/h | 19546m | -12.5m/s | -53.2°C | 0.4% | 63hPa | 2.5V | 08:23:36 | 01:58:04 | 00:00:00 | |
| DO3MHA-12 | 2026-08-31 12:27:45 | 49.22026 | 10.24844 | 49° | 20km/h | 19521m | -12.5m/s | -53.3°C | 4.1% | 63.2hPa | 2.5V | 08:20:00 | 01:58:06 | 00:00:00 | |
| DL9SK-14 | 2026-08-31 12:27:42 | 49.22017 | 10.24828 | 50° | 16km/h | 19559m | -12.5m/s | -53.0°C | 1.0% | 62.8hPa | 2.7V | 00:00:00 | 00:00:00 | 00:00:00 | |
| DO3MHA-11 | 2026-08-31 12:27:41 | 49.22014 | 10.24822 | 49° | 20km/h | 19571m | -12.4m/s | -52.9°C | 4.0% | 62.7hPa | 2.7V | 00:00:00 | 01:58:02 | 00:00:00 | |
| DL1NUX | 2026-08-31 12:27:40 | 49.21997 | 10.24794 | 47° | 20km/h | 19634m | -12.8m/s | -52.7°C | 3.9% | 62.1hPa | 2.7V | 08:20:24 | 01:57:57 | 00:00:00 | |
| BIOWL1-15 | 2026-08-31 12:27:39 | 49.21997 | 10.24794 | 47° | 20km/h | 19634m | -12.8m/s | -52.7°C | 0.3% | 62.1hPa | 2.7V | 08:21:03 | 01:57:57 | 00:00:00 | |
| HSKMA3-T | 2026-08-31 12:27:38 | 49.22001 | 10.24800 | 48° | 20km/h | 19621m | -12.7m/s | -52.7°C | 0.3% | 62.2hPa | 2.7V | 08:21:54 | 01:57:58 | 00:00:00 | |
| DM0DOS-11 | 2026-08-31 12:27:37 | 49.21976 | 10.24769 | 30° | 24km/h | 19697m | -13m/s | -52.4°C | 3.7% | 61.5hPa | 2.7V | 08:20:29 | 01:57:52 | 00:00:00 | |
| DF8AY | 2026-08-31 12:27:36 | 49.21990 | 10.24783 | 39° | 22km/h | 19659m | -12.4m/s | -52.6°C | 0.3% | 61.9hPa | 2.5V | 08:23:36 | 01:57:55 | 00:00:00 | |
| BIOWL1-15 | 2026-08-31 12:27:30 | 49.21944 | 10.24746 | 23° | 24km/h | 19772m | -12.7m/s | -52.6°C | 0.3% | 60.8hPa | 2.5V | 08:21:03 | 01:57:46 | 00:00:00 | |
| HSKMA3-T | 2026-08-31 12:27:26 | 49.21949 | 10.24750 | 22° | 24km/h | 19760m | -12.4m/s | -52.6°C | 0.2% | 60.9hPa | 2.7V | 08:21:54 | 01:57:47 | 00:00:00 | |
| DM0DOS-11 | 2026-08-31 12:27:26 | 49.21922 | 10.24729 | 31° | 24km/h | 19824m | -12.6m/s | -52.7°C | 3.8% | 60.3hPa | 2.7V | 08:20:39 | 01:57:42 | 00:00:00 | |
| DF8AY | 2026-08-31 12:27:24 | 49.21938 | 10.24742 | 26° | 24km/h | 19785m | -12.9m/s | -52.7°C | 0.3% | 60.7hPa | 2.5V | 08:23:36 | 01:57:45 | 00:00:00 | |
| OE5DXL-15 | 2026-08-31 12:27:24 | 49.21938 | 10.24742 | 27° | 24km/h | 19785m | -12.9m/s | -52.6°C | 3.8% | 60.6hPa | 2.7V | 00:00:00 | 00:00:00 | 00:00:00 | |
| SONDE2-11 | 2026-08-31 12:27:22 | 49.21927 | 10.24734 | 29° | 24km/h | 19811m | -12.9m/s | -52.8°C | 1.0% | 60.4hPa | 2.7V | 00:00:00 | 00:00:00 | 00:00:00 | |
| DL1NUX | 2026-08-31 12:27:21 | 49.21899 | 10.24700 | 49° | 24km/h | 19888m | -13.2m/s | -53.1°C | 3.9% | 59.7hPa | 2.7V | 08:20:44 | 01:57:37 | 00:00:00 | |
| BIOWL1-15 | 2026-08-31 12:27:15 | 49.21890 | 10.24678 | 57° | 22km/h | 19926m | -13m/s | -53.2°C | 0.4% | 59.3hPa | 2.5V | 08:21:03 | 01:57:34 | 00:00:00 | |
| DF8AY | 2026-08-31 12:27:13 | 49.21883 | 10.24664 | 57° | 22km/h | 19952m | -13.3m/s | -53.4°C | 0.4% | 59.1hPa | 2.7V | 08:23:36 | 01:57:32 | 00:00:00 | |
| HSKMA3-T | 2026-08-31 12:27:12 | 49.21887 | 10.24671 | 58° | 22km/h | 19939m | -12.9m/s | -53.3°C | 0.5% | 59.2hPa | 2.6V | 08:21:54 | 01:57:33 | 00:00:00 | |
| DO3MHA-11 | 2026-08-31 12:27:11 | 49.21883 | 10.24664 | 57° | 27km/h | 19953m | -13.2m/s | -53.3°C | 4.1% | 59.1hPa | 2.7V | 08:20:00 | 01:57:32 | 00:00:00 | |
| SONCRA | 2026-08-31 12:27:10 | 49.21880 | 10.24656 | 55° | 24km/h | 19965m | -13.0m/s | -53.4°C | 1.0% | 59.0hPa | 2.6V | 00:00:00 | 00:00:00 | 00:00:00 | |
| DL1NUX | 2026-08-31 12:27:08 | 49.21864 | 10.24623 | 51° | 29km/h | 20017m | -13.2m/s | -53°C | 3.9% | 58.6hPa | 2.6V | 08:20:54 | 01:57:27 | 00:00:00 | |
| OE5DRO-10 | 2026-08-31 12:27:07 | 49.21869 | 10.24632 | 52° | 26km/h | 20004m | -12.9m/s | -52.9°C | 3.9% | 58.6hPa | 2.7V | 00:00:00 | 00:00:00 | 00:00:00 | |
| DM0DOS-11 | 2026-08-31 12:27:06 | 49.21841 | 10.24579 | 50° | 27km/h | 20084m | -13.4m/s | -53.4°C | 4% | 57.9hPa | 2.7V | 08:20:59 | 01:57:22 | 00:00:00 | |
| BIOWL1-15 | 2026-08-31 12:27:04 | 49.21855 | 10.24605 | 49° | 31km/h | 20044m | -13.2m/s | -53.2°C | 0.3% | 58.3hPa | 2.7V | 08:21:03 | 01:57:25 | 00:00:00 | |
| DL1NUX | 2026-08-31 12:27:01 | 49.21823 | 10.24539 | 65° | 24km/h | 20150m | -13.2m/s | -53.7°C | 4.2% | 57.3hPa | 2.7V | 08:21:04 | 01:57:17 | 00:00:00 | |
| DF8AY | 2026-08-31 12:26:58 | 49.21829 | 10.24555 | 58° | 24km/h | 20124m | -13.2m/s | -53.7°C | 0.5% | 57.6hPa | 2.5V | 08:23:36 | 01:57:19 | 00:00:00 | |
| HSKMA3-T | 2026-08-31 12:26:57 | 49.21823 | 10.24539 | 65° | 24km/h | 20150m | -13.2m/s | -53.7°C | 0.5% | 57.3hPa | 2.7V | 08:21:54 | 01:57:17 | 00:00:00 | |
| BIOWL1-15 | 2026-08-31 12:26:54 | 49.21805 | 10.24481 | 60° | 24km/h | 20243m | -13.5m/s | -53.7°C | 0.5% | 56.5hPa | 2.7V | 08:21:54 | 01:57:10 | 00:00:00 | |
| DF3TZ-5 | 2026-08-31 12:26:52 | 49.21814 | 10.24506 | 65° | 22km/h | 20203m | -13.6m/s | -53.7°C | 1.0% | 56.9hPa | 2.7V | 00:00:00 | 00:00:00 | 00:00:00 | |
| DO3MHA-11 | 2026-08-31 12:26:51 | 49.21811 | 10.24497 | 62° | 26km/h | 20216m | -13.3m/s | -53.6°C | 4.2% | 56.7hPa | 2.7V | 00:00:00 | 01:57:12 | 00:00:00 | |
| DB0NH | 2026-08-31 12:26:50 | 49.21808 | 10.24489 | 60° | 20km/h | 20230m | -13.4m/s | -53.7°C | 4.2% | 56.6hPa | 2.7V | 00:00:00 | 01:57:11 | 00:00:00 | |
| DL1NUX | 2026-08-31 12:26:49 | 49.21795 | 10.24456 | 57° | 26km/h | 20284m | -13.3m/s | -53.7°C | 4.2% | 56.2hPa | 2.7V | 08:21:14 | 01:57:07 | 00:00:00 | |
| DF8AY | 2026-08-31 12:26:47 | 49.21798 | 10.24465 | 57° | 26km/h | 20270m | -13.7m/s | -53.7°C | 0.6% | 56.3hPa | 2.6V | 08:23:36 | 01:57:08 | 00:00:00 | |
| PG1ADW-2 | 2026-08-31 12:26:46 | 49.21794 | 10.24456 | 58° | 20km/h | 20284m | -13.3m/s | -53.6°C | 4.2% | 56.1hPa | 2.7V | 08:21:00 | 00:00:00 | 00:00:00 | |
| DM0DOS-11 | 2026-08-31 12:26:45 | 49.21778 | 10.24414 | 63° | 26km/h | 20351m | -13.5m/s | -53.8°C | 4.2% | 55.5hPa | 2.7V | 08:21:19 | 01:57:02 | 00:00:00 | |
| HSKMA3-T | 2026-08-31 12:26:45 | 49.21791 | 10.24448 | 57° | 26km/h | 20297m | -13.5m/s | -53.7°C | 0.5% | 56hPa | 2.7V | 08:21:54 | 01:57:06 | 00:00:00 | |
| BIOWL1-15 | 2026-08-31 12:26:43 | 49.21770 | 10.24378 | 74° | 24km/h | 20405m | -13.4m/s | -53.2°C | 0.4% | 55.1hPa | 2.5V | 08:21:54 | 01:56:58 | 00:00:00 | |
| DL1XH-west | 2026-08-31 12:26:40 | 49.21774 | 10.24396 | 70° | 26km/h | 20379m | -13.3m/s | -53.2°C | 0.3% | 55.3hPa | 2.7V | 08:22:45 | 01:57:00 | 00:00:00 | |
| DF2AP-13 | 2026-08-31 12:26:40 | 49.21776 | 10.24405 | 70° | 13km/h | 20365m | -14.0m/s | -53.3°C | 4.1% | 55.4hPa | 2.5V | 00:00:00 | 01:57:01 | 00:00:00 | |
| DL1XH1-15 | 2026-08-31 12:26:37 | 49.21770 | 10.24378 | 73° | 24km/h | 20405m | -13.4m/s | -53.2°C | 4% | 55.1hPa | 2.5V | 08:21:23 | 01:56:58 | 00:00:00 | |
| DF8AY | 2026-08-31 12:26:36 | 49.21768 | 10.24369 | 80° | 22km/h | 20419m | -14.1m/s | -53.2°C | 0.4% | 55hPa | 2.6V | 08:23:36 | 01:56:57 | 00:00:00 | |
| DM0DOS-11 | 2026-08-31 12:26:35 | 49.21765 | 10.24334 | 87° | 15km/h | 20487m | -13.5m/s | -52.9°C | 3.9% | 54.4hPa | 2.7V | 08:21:29 | 01:56:52 | 00:00:00 | |
| HSKMA3-T | 2026-08-31 12:26:35 | 49.21767 | 10.24361 | 76° | 22km/h | 20433m | -13.2m/s | -53.3°C | 0.4% | 54.9hPa | 2.7V | 08:21:54 | 01:56:56 | 00:00:00 | |
| BIOWL1-15 | 2026-08-31 12:26:32 | 49.21765 | 10.24340 | 89° | 16km/h | 20473m | -13.8m/s | -53°C | 0.3% | 54.5hPa | 2.6V | 08:21:54 | 01:56:53 | 00:00:00 | |
| DL1XH-west | 2026-08-31 12:26:30 | 49.21766 | 10.24318 | 103° | 13km/h | 20528m | -13.5m/s | -53.1°C | 0.4% | 54.1hPa | 2.5V | 08:22:45 | 01:56:49 | 00:00:00 | |
| DF8AY | 2026-08-31 12:26:26 | 49.21769 | 10.24303 | 110° | 13km/h | 20569m | -13.4m/s | -53.3°C | 0.4% | 53.7hPa | 2.7V | 08:23:36 | 01:56:46 | 00:00:00 | |
| HSKMA3-T | 2026-08-31 12:26:25 | 49.21770 | 10.24299 | 106° | 13km/h | 20582m | -13.4m/s | -53.3°C | 0.5% | 53.6hPa | 2.7V | 08:21:54 | 01:56:45 | 00:00:00 | |
| DF7PN | 2026-08-31 12:26:25 | 49.21770 | 10.24299 | 106° | 13km/h | 20582m | -13.4m/s | -53.3°C | 1.0% | 53.6hPa | 2.7V | 00:00:00 | 00:00:00 | 00:00:00 | |
| OE5DXL-15 | 2026-08-31 12:26:24 | 49.21770 | 10.24299 | 107° | 5km/h | 20582m | -13.4m/s | -53.3°C | 4.1% | 53.6hPa | 2.7V | 00:00:00 | 00:00:00 | 00:00:00 | |
| DL1XH1-15 | 2026-08-31 12:26:23 | 49.21772 | 10.24285 | 97° | 9km/h | 20623m | -13.7m/s | -53.6°C | 4.2% | 53.3hPa | 2.6V | 08:21:39 | 01:56:42 | 00:00:00 | |
| BIOWL1-15 | 2026-08-31 12:26:21 | 49.21772 | 10.24285 | 97° | 9km/h | 20623m | -13.7m/s | -53.6°C | 0.5% | 53.3hPa | 2.6V | 08:21:54 | 01:56:42 | 00:00:00 | |
| DL1XH-west | 2026-08-31 12:26:18 | 49.21771 | 10.24277 | 53° | 4km/h | 20678m | -13.9m/s | -53.8°C | 0.6% | 52.8hPa | 2.6V | 08:22:45 | 01:56:38 | 00:00:00 | |
| DF8AY | 2026-08-31 12:26:14 | 49.21764 | 10.24260 | 57° | 7km/h | 20803m | -13.9m/s | -53.3°C | 0.5% | 51.8hPa | 2.5V | 08:23:36 | 01:56:29 | 00:00:00 | |
| DM0DOS-11 | 2026-08-31 12:26:12 | 49.21767 | 10.24267 | 63° | 7km/h | 20761m | -13.9m/s | -53.3°C | 4.1% | 52.1hPa | 2.7V | 08:21:49 | 01:56:32 | 00:00:00 | |
| BIOWL1-15 | 2026-08-31 12:26:11 | 49.21767 | 10.24267 | 63° | 7km/h | 20761m | -13.9m/s | -53.3°C | 0.5% | 52.1hPa | 2.7V | 08:21:54 | 01:56:32 | 00:00:00 | |
| DO3MHA-11 | 2026-08-31 12:26:11 | 49.21767 | 10.24267 | 64° | 5km/h | 20761m | -13.8m/s | -53.2°C | 4.1% | 52.1hPa | 2.7V | 00:00:00 | 01:56:32 | 00:00:00 | |
| OE5DRO-10 | 2026-08-31 12:26:09 | 49.21765 | 10.24262 | 61° | 4km/h | 20789m | -14.1m/s | -53.2°C | 4.1% | 51.9hPa | 2.6V | 00:00:00 | 00:00:00 | 00:00:00 | |
| DL1NUX | 2026-08-31 12:26:08 | 49.21762 | 10.24255 | 63° | 5km/h | 20830m | -14m/s | -53.2°C | 4.1% | 51.6hPa | 2.6V | 08:21:54 | 01:56:27 | 00:00:00 | |
| DL1XH-west | 2026-08-31 12:26:08 | 49.21763 | 10.24257 | 53° | 7km/h | 20816m | -13.9m/s | -53.2°C | 0.5% | 51.7hPa | 2.5V | 08:22:45 | 01:56:28 | 00:00:00 | |
| BIOWL1-15 | 2026-08-31 12:26:02 | 49.21763 | 10.24246 | 149° | 5km/h | 20914m | -14.2m/s | -52.7°C | 0.4% | 50.9hPa | 2.7V | 08:23:36 | 01:56:21 | 00:00:00 | |
| HSKMA3-T | 2026-08-31 12:26:01 | 49.21763 | 10.24247 | 140° | 4km/h | 20900m | -13.8m/s | -52.8°C | 0.4% | 51hPa | 2.6V | 08:22:45 | 01:56:22 | 00:00:00 | |
| DO3MHA-11 | 2026-08-31 12:26:01 | 49.21762 | 10.24247 | 140° | 4km/h | 20901m | -13.8m/s | -52.8°C | 4.0% | 51.0hPa | 2.6V | 00:00:00 | 01:56:22 | 00:00:00 | |
| DL1NUX | 2026-08-31 12:25:58 | 49.21767 | 10.24244 | 146° | 4km/h | 20971m | -14.1m/s | -52.7°C | 3.9% | 50.5hPa | 2.6V | 08:22:04 | 01:56:17 | 00:00:00 | |
| DL1XH-west | 2026-08-31 12:25:56 | 49.21768 | 10.24243 | 356° | 2km/h | 21013m | -14.3m/s | -52.7°C | 0.3% | 50.1hPa | 2.7V | 08:22:45 | 01:56:14 | 00:00:00 | |
| DF8AY | 2026-08-31 12:25:55 | 49.21768 | 10.24243 | 169° | 2km/h | 20985m | -13.5m/s | -52.6°C | 0.3% | 50.3hPa | 2.6V | 08:23:36 | 01:56:16 | 00:00:00 | |
| DF7PN | 2026-08-31 12:25:55 | 49.21768 | 10.24243 | 356° | 0km/h | 21013m | -14.3m/s | -52.7°C | 0.9% | 50.1hPa | 2.5V | 00:00:00 | 00:00:00 | 00:00:00 | |
| DO9HM | 2026-08-31 12:25:53 | 49.21768 | 10.24243 | 0° | 0km/h | 21013m | -14.3m/s | -52.7°C | 1.0% | 50.1hPa | 2.5V | 08:22:00 | 00:00:00 | 00:00:00 | |
| DL1NUX | 2026-08-31 12:25:51 | 49.21758 | 10.24251 | 333° | 13km/h | 21113m | -14.2m/s | -52.9°C | 4% | 49.4hPa | 2.5V | 08:22:14 | 01:56:07 | 00:00:00 | |
| HSKMA3-T | 2026-08-31 12:25:50 | 49.21766 | 10.24245 | 334° | 7km/h | 21056m | -14.3m/s | -52.7°C | 0.3% | 49.8hPa | 2.5V | 08:22:45 | 01:56:11 | 00:00:00 | |
| BIOWL1-15 | 2026-08-31 12:25:50 | 49.21762 | 10.24247 | 332° | 7km/h | 21085m | -14.3m/s | -52.7°C | 0.3% | 49.6hPa | 2.7V | 08:23:36 | 01:56:09 | 00:00:00 | |
| DL1XH-west | 2026-08-31 12:25:46 | 49.21758 | 10.24251 | 334° | 13km/h | 21113m | -14.2m/s | -52.9°C | 0.4% | 49.4hPa | 2.5V | 08:22:45 | 01:56:07 | 00:00:00 | |
| PG1ADW-2 | 2026-08-31 12:25:46 | 49.21758 | 10.24251 | 334° | 22km/h | 21113m | -14.2m/s | -52.8°C | 4.0% | 49.3hPa | 2.5V | 00:00:00 | 01:56:07 | 00:00:00 | |
| DM0DOS-11 | 2026-08-31 12:25:45 | 49.21739 | 10.24265 | 333° | 22km/h | 21185m | -14.6m/s | -53°C | 4% | 48.8hPa | 2.6V | 08:22:19 | 01:56:02 | 00:00:00 | |
| DF8AY | 2026-08-31 12:25:44 | 49.21748 | 10.24258 | 334° | 18km/h | 21156m | -14.5m/s | -52.9°C | 0.4% | 49hPa | 2.7V | 08:23:36 | 01:56:04 | 00:00:00 | |
| HSKMA3-T | 2026-08-31 12:25:40 | 49.21734 | 10.24269 | 337° | 24km/h | 21199m | -14.5m/s | -53.1°C | 0.4% | 48.7hPa | 2.6V | 08:22:45 | 01:56:01 | 00:00:00 | |
| DL1NUX | 2026-08-31 12:25:38 | 49.21710 | 10.24282 | 348° | 26km/h | 21256m | -14.6m/s | -53.3°C | 4.1% | 48.3hPa | 2.5V | 08:22:24 | 01:55:57 | 00:00:00 | |
| BIOWL1-15 | 2026-08-31 12:25:37 | 49.21710 | 10.24282 | 349° | 26km/h | 21256m | -14.6m/s | -53.3°C | 0.5% | 48.3hPa | 2.5V | 08:23:36 | 01:55:57 | 00:00:00 | |
| DL1XH-west | 2026-08-31 12:25:36 | 49.21704 | 10.24283 | 353° | 26km/h | 21271m | -14.3m/s | -53.2°C | 0.5% | 48.2hPa | 2.6V | 08:22:45 | 01:55:56 | 00:00:00 | |
| DO3MHA-12 | 2026-08-31 12:25:35 | 49.21703 | 10.24283 | 353° | 24km/h | 21271m | -14.2m/s | -53.2°C | 4.1% | 48.1hPa | 2.7V | 00:00:00 | 01:55:56 | 00:00:00 | |
| DL1XH1-15 | 2026-08-31 12:25:34 | 49.21667 | 10.24278 | 13° | 24km/h | 21358m | -14.6m/s | -53°C | 4.1% | 47.5hPa | 2.7V | 08:22:31 | 01:55:50 | 00:00:00 | |
| DF8AY | 2026-08-31 12:25:34 | 49.21691 | 10.24284 | 2° | 24km/h | 21300m | -14.3m/s | -53.2°C | 0.5% | 48hPa | 2.7V | 08:23:36 | 01:55:54 | 00:00:00 | |
| DM0DOS-11 | 2026-08-31 12:25:32 | 49.21679 | 10.24282 | 10° | 24km/h | 21329m | -14.9m/s | -53.1°C | 4.1% | 47.7hPa | 2.5V | 08:22:29 | 01:55:52 | 00:00:00 | |
| HSKMA3-T | 2026-08-31 12:25:29 | 49.21667 | 10.24278 | 14° | 24km/h | 21358m | -14.6m/s | -53°C | 0.5% | 47.5hPa | 2.7V | 08:22:45 | 01:55:50 | 00:00:00 | |
| BIOWL1-15 | 2026-08-31 12:25:28 | 49.21609 | 10.24221 | 12° | 9km/h | 21595m | -15m/s | -52.8°C | 0.4% | 45.8hPa | 2.6V | 08:23:36 | 01:55:34 | 00:00:00 | |
| DL1NUX | 2026-08-31 12:25:26 | 49.21650 | 10.24269 | 22° | 24km/h | 21402m | -15m/s | -52.8°C | 4% | 47.2hPa | 2.6V | 08:22:34 | 01:55:47 | 00:00:00 | |
| SO1NDE-10 | 2026-08-31 12:25:26 | 49.21649 | 10.24269 | 23° | 11km/h | 21403m | -15.0m/s | -52.8°C | 4.0% | 47.2hPa | 2.6V | 00:00:00 | 01:55:47 | 00:00:00 | |
| DM0DOS-11 | 2026-08-31 12:25:25 | 49.21628 | 10.24247 | 43° | 18km/h | 21476m | -14.5m/s | -52.7°C | 3.8% | 46.7hPa | 2.6V | 08:22:39 | 01:55:42 | 00:00:00 | |
| DL1XH-west | 2026-08-31 12:25:25 | 49.21644 | 10.24266 | 26° | 22km/h | 21417m | -14.7m/s | -52.7°C | 0.4% | 47.1hPa | 2.6V | 08:22:45 | 01:55:46 | 00:00:00 | |
| DF8AY | 2026-08-31 12:25:24 | 49.21635 | 10.24257 | 39° | 22km/h | 21447m | -15.1m/s | -52.7°C | 0.4% | 46.9hPa | 2.7V | 08:23:36 | 01:55:44 | 00:00:00 | |
| HSKMA3-T | 2026-08-31 12:25:19 | 49.21622 | 10.24237 | 52° | 16km/h | 21506m | -14.6m/s | -52.9°C | 0.4% | 46.4hPa | 2.6V | 08:22:45 | 01:55:40 | 00:00:00 | |
| DL1NUX | 2026-08-31 12:25:18 | 49.21616 | 10.24226 | 45° | 11km/h | 21550m | -15.2m/s | -53°C | 4% | 46.1hPa | 2.7V | 08:22:44 | 01:55:37 | 00:00:00 | |
| BIOWL1-15 | 2026-08-31 12:25:15 | 49.21597 | 10.24218 | 32° | 4km/h | 21713m | -14.6m/s | -52.8°C | 0.4% | 45hPa | 2.6V | 08:23:36 | 01:55:26 | 00:00:00 | |
| DL1XH-west | 2026-08-31 12:25:15 | 49.21614 | 10.24223 | 35° | 9km/h | 21565m | -14.8m/s | -53°C | 0.5% | 46hPa | 2.5V | 08:22:45 | 01:55:36 | 00:00:00 | |
| DF8AY | 2026-08-31 12:25:13 | 49.21607 | 10.24220 | 7° | 7km/h | 21610m | -14.9m/s | -52.8°C | 0.4% | 45.7hPa | 2.7V | 08:23:36 | 01:55:33 | 00:00:00 | |
| DM0DOS-11 | 2026-08-31 12:25:12 | 49.21605 | 10.24220 | 2° | 9km/h | 21624m | -14.7m/s | -52.8°C | 4% | 45.6hPa | 2.7V | 08:22:49 | 01:55:32 | 00:00:00 | |
| HSKMA3-T | 2026-08-31 12:25:08 | 49.21600 | 10.24220 | 12° | 5km/h | 21669m | -15m/s | -52.8°C | 0.4% | 45.3hPa | 2.7V | 08:23:36 | 01:55:29 | 00:00:00 | |
| DL1NUX | 2026-08-31 12:25:06 | 49.21598 | 10.24218 | 26° | 4km/h | 21698m | -14.9m/s | -52.8°C | 4% | 45.1hPa | 2.5V | 08:22:54 | 01:55:27 | 00:00:00 | |
| DL1XH-west | 2026-08-31 12:25:04 | 49.21596 | 10.24217 | 68° | 4km/h | 21728m | -15m/s | -52.8°C | 0.4% | 44.9hPa | 2.6V | 08:23:36 | 01:55:25 | 00:00:00 | |
| DF8AY | 2026-08-31 12:25:02 | 49.21595 | 10.24213 | 61° | 7km/h | 21758m | -15.1m/s | -52.8°C | 0.4% | 44.6hPa | 2.7V | 08:23:36 | 01:55:23 | 00:00:00 | |
| HSKMA3-T | 2026-08-31 12:24:57 | 49.21587 | 10.24194 | 59° | 16km/h | 21833m | -15.2m/s | -52.9°C | 0.5% | 44.1hPa | 2.7V | 08:23:36 | 01:55:18 | 00:00:00 | |
| DL1XH-west | 2026-08-31 12:24:54 | 49.21581 | 10.24172 | 76° | 15km/h | 21894m | -15m/s | -53°C | 0.4% | 43.7hPa | 2.6V | 08:23:36 | 01:55:14 | 00:00:00 | |
| DF8AY | 2026-08-31 12:24:53 | 49.21581 | 10.24167 | 89° | 13km/h | 21910m | -15.3m/s | -53.1°C | 0.4% | 43.6hPa | 2.6V | 08:23:36 | 01:55:13 | 00:00:00 | |
| DL6DJ-15 | 2026-08-31 12:24:52 | 49.21581 | 10.24167 | 88° | 13km/h | 21910m | -15.3m/s | -53.1°C | 1.0% | 43.6hPa | 2.7V | 00:00:00 | 00:00:00 | 00:00:00 | |
| DL1NUX | 2026-08-31 12:24:51 | 49.21584 | 10.24145 | 124° | 9km/h | 22002m | -15.4m/s | -53.3°C | 4% | 43hPa | 2.7V | 08:23:14 | 01:55:07 | 00:00:00 | |
| BIOWL1-15 | 2026-08-31 12:24:50 | 49.21582 | 10.24150 | 118° | 9km/h | 21971m | -15.7m/s | -53.2°C | 0.4% | 43.2hPa | 2.6V | 08:23:36 | 01:55:09 | 00:00:00 | |
| HSKMA3-T | 2026-08-31 12:24:46 | 49.21584 | 10.24145 | 124° | 9km/h | 22002m | -15.4m/s | -53.3°C | 0.4% | 43hPa | 2.7V | 08:23:36 | 01:55:07 | 00:00:00 | |
| DL1XH-west | 2026-08-31 12:24:43 | 49.21588 | 10.24139 | 141° | 5km/h | 22048m | -15.5m/s | -53.3°C | 0.5% | 42.7hPa | 2.7V | 08:23:36 | 01:55:04 | 00:00:00 | |
| DF8AY | 2026-08-31 12:24:41 | 49.21589 | 10.24138 | 177° | 4km/h | 22079m | -15.4m/s | -53.5°C | 0.5% | 42.5hPa | 2.5V | 08:23:36 | 01:55:02 | 00:00:00 | |
| HSKMA3-T | 2026-08-31 12:24:36 | 49.21590 | 10.24144 | 296° | 7km/h | 22157m | -15.7m/s | -53.8°C | 0.6% | 42hPa | 2.7V | 08:23:36 | 01:54:57 | 00:00:00 | |
| BIOWL1-15 | 2026-08-31 12:24:34 | 49.21587 | 10.24149 | 327° | 7km/h | 22188m | -15.8m/s | -53.7°C | 0.6% | 41.8hPa | 2.6V | 08:23:36 | 01:54:55 | 00:00:00 | |
| DL1XH-west | 2026-08-31 12:24:34 | 49.21585 | 10.24150 | 337° | 9km/h | 22204m | -15.3m/s | -53.7°C | 0.6% | 41.7hPa | 2.6V | 08:23:36 | 01:54:54 | 00:00:00 | |
| DF9NV-10 | 2026-08-31 12:24:33 | 49.21587 | 10.24149 | 328° | 7km/h | 22188m | -15.8m/s | -53.7°C | 1.1% | 41.8hPa | 2.7V | 08:23:00 | 00:00:00 | 00:00:00 | |
| DM0DOS-11 | 2026-08-31 12:24:32 | 49.21581 | 10.24151 | 9° | 9km/h | 22235m | -15.7m/s | -53.6°C | 4.2% | 41.5hPa | 2.7V | 08:23:29 | 01:54:52 | 00:00:00 | |
| DF8AY | 2026-08-31 12:24:29 | 49.21576 | 10.24147 | 34° | 13km/h | 22266m | -15.8m/s | -53.6°C | 0.6% | 41.3hPa | 2.5V | 08:23:36 | 01:54:50 | 00:00:00 | |
| HSKMA3-T | 2026-08-31 12:24:26 | 49.21569 | 10.24137 | 53° | 15km/h | 22313m | -16.2m/s | -53.4°C | 0.5% | 41hPa | 2.7V | 08:23:36 | 01:54:47 | 00:00:00 | |
| SO1NDE-10 | 2026-08-31 12:24:26 | 49.21569 | 10.24136 | 54° | 11km/h | 22314m | -16.1m/s | -53.3°C | 4.2% | 41.0hPa | 2.7V | 00:00:00 | 01:54:47 | 00:00:00 | |
| DM0DOS-11 | 2026-08-31 12:24:25 | 49.21560 | 10.24117 | 49° | 11km/h | 22393m | -15.6m/s | -53.1°C | 4.1% | 40.5hPa | 2.7V | 08:23:39 | 01:54:42 | 00:00:00 | |
| BIOWL1-15 | 2026-08-31 12:24:23 | 49.21563 | 10.24124 | 54° | 13km/h | 22361m | -15.9m/s | -53.1°C | 0.5% | 40.6hPa | 2.6V | 08:25:18 | 01:54:44 | 00:00:00 | |
| DL1XH-west | 2026-08-31 12:24:22 | 49.21559 | 10.24117 | 50° | 11km/h | 22393m | -15.6m/s | -53.1°C | 0.5% | 40.5hPa | 2.7V | 08:24:27 | 01:54:42 | 00:00:00 | |
| DL1XH1-15 | 2026-08-31 12:24:21 | 49.21555 | 10.24108 | 57° | 9km/h | 22441m | -16.1m/s | -53°C | 4.1% | 40.2hPa | 2.7V | 08:23:42 | 01:54:39 | 00:00:00 | |
| DF8AY | 2026-08-31 12:24:19 | 49.21552 | 10.24090 | 94° | 13km/h | 22521m | -16m/s | -53.1°C | 0.6% | 39.7hPa | 2.7V | 08:27:00 | 01:54:34 | 00:00:00 | |
| HSKMA3-T | 2026-08-31 12:24:15 | 49.21552 | 10.24099 | 80° | 9km/h | 22488m | -16.2m/s | -53.1°C | 0.5% | 39.9hPa | 2.6V | 08:24:27 | 01:54:36 | 00:00:00 | |
| DO3MHA-12 | 2026-08-31 12:24:15 | 49.21552 | 10.24099 | 81° | 15km/h | 22489m | -16.1m/s | -53.0°C | 4.1% | 39.8hPa | 2.6V | 00:00:00 | 01:54:36 | 00:00:00 | |
| DM0DOS-11 | 2026-08-31 12:24:12 | 49.21552 | 10.24079 | 97° | 16km/h | 22553m | -16m/s | -53.1°C | 4.2% | 39.5hPa | 2.7V | 08:23:49 | 01:54:32 | 00:00:00 | |
| DL1XH-west | 2026-08-31 12:24:11 | 49.21552 | 10.24079 | 98° | 16km/h | 22553m | -16m/s | -53.1°C | 0.6% | 39.5hPa | 2.7V | 08:24:27 | 01:54:32 | 00:00:00 | |
| DF8AY | 2026-08-31 12:24:08 | 49.21555 | 10.24059 | 103° | 16km/h | 22602m | -16m/s | -53.1°C | 0.5% | 39.2hPa | 2.6V | 08:27:00 | 01:54:29 | 00:00:00 | |
| NBG1-10 | 2026-08-31 12:24:08 | 49.21555 | 10.24059 | 104° | 11km/h | 22602m | -16.0m/s | -53.1°C | 4.2% | 39.2hPa | 2.7V | 00:00:00 | 01:54:29 | 00:00:00 | |
| PG1ADW-2 | 2026-08-31 12:24:06 | 49.21557 | 10.24047 | 107° | 9km/h | 22635m | -16.3m/s | -53.0°C | 4.1% | 38.9hPa | 2.7V | 00:00:00 | 00:00:00 | 00:00:00 | |
| DM0DOS-11 | 2026-08-31 12:24:05 | 49.21563 | 10.24029 | 130° | 7km/h | 22716m | -16.8m/s | -52.8°C | 4.1% | 38.5hPa | 2.7V | 08:23:59 | 01:54:22 | 00:00:00 | |
| HSKMA3-T | 2026-08-31 12:24:04 | 49.21559 | 10.24039 | 117° | 11km/h | 22667m | -16.3m/s | -53.1°C | 0.6% | 38.8hPa | 2.5V | 08:24:27 | 01:54:25 | 00:00:00 | |
| OE5WHR-10 | 2026-08-31 12:24:04 | 49.21559 | 10.24038 | 117° | 9km/h | 22667m | -16.2m/s | -53.1°C | 4.2% | 38.7hPa | 2.7V | 00:00:00 | 01:54:25 | 00:00:00 | |
| EDDB2-11 | 2026-08-31 12:24:02 | 49.21562 | 10.24029 | 130° | 7km/h | 22716m | -16.8m/s | -52.8°C | 1.0% | 38.5hPa | 2.7V | 00:00:00 | 00:00:00 | 00:00:00 | |
| DL1NUX | 2026-08-31 12:24:01 | 49.21568 | 10.24022 | 167° | 5km/h | 22798m | -16.8m/s | -52.4°C | 3.9% | 38hPa | 2.7V | 08:24:04 | 01:54:17 | 00:00:00 | |
| DO3MHA-11 | 2026-08-31 12:24:01 | 49.21562 | 10.24029 | 131° | 7km/h | 22716m | -16.8m/s | -52.8°C | 4.1% | 38.5hPa | 2.6V | 00:00:00 | 01:54:22 | 00:00:00 | |
| DL1XH-west | 2026-08-31 12:24:01 | 49.21562 | 10.24029 | 130° | 7km/h | 22716m | -16.8m/s | -52.8°C | 0.5% | 38.5hPa | 2.7V | 08:24:27 | 01:54:22 | 00:00:00 | |
| DL1XH1-15 | 2026-08-31 12:24:00 | 49.21566 | 10.24024 | 138° | 5km/h | 22766m | -16.3m/s | -52.4°C | 3.9% | 38.2hPa | 2.6V | 08:24:02 | 01:54:19 | 00:00:00 | |
| DF8AY | 2026-08-31 12:23:58 | 49.21566 | 10.24024 | 139° | 5km/h | 22766m | -16.3m/s | -52.4°C | 0.4% | 38.2hPa | 2.6V | 08:27:00 | 01:54:19 | 00:00:00 | |
| HSKMA3-T | 2026-08-31 12:23:53 | 49.21573 | 10.24022 | 205° | 7km/h | 22849m | -16.7m/s | -52.3°C | 0.4% | 37.7hPa | 2.7V | 08:24:27 | 01:54:14 | 00:00:00 | |
| DL1XH1-15 | 2026-08-31 12:23:53 | 49.21583 | 10.24036 | 227° | 15km/h | 22933m | -17m/s | -52.2°C | 3.8% | 37.2hPa | 2.7V | 08:24:12 | 01:54:09 | 00:00:00 | |
| DM0DOS-11 | 2026-08-31 12:23:52 | 49.21577 | 10.24026 | 218° | 11km/h | 22883m | -17m/s | -52.3°C | 3.9% | 37.5hPa | 2.6V | 08:24:09 | 01:54:12 | 00:00:00 | |
| DL1XH-west | 2026-08-31 12:23:51 | 49.21577 | 10.24026 | 218° | 11km/h | 22883m | -17m/s | -52.3°C | 0.4% | 37.5hPa | 2.6V | 08:24:27 | 01:54:12 | 00:00:00 | |
| DL6DJ-15 | 2026-08-31 12:23:50 | 49.21581 | 10.24032 | 228° | 11km/h | 22916m | -17.0m/s | -52.2°C | 0.9% | 37.3hPa | 2.6V | 00:00:00 | 00:00:00 | 00:00:00 | |
| DF7PN | 2026-08-31 12:23:49 | 49.21581 | 10.24032 | 228° | 11km/h | 22916m | -17.0m/s | -52.2°C | 0.9% | 37.3hPa | 2.6V | 00:00:00 | 00:00:00 | 00:00:00 | |
| DL1NUX | 2026-08-31 12:23:48 | 49.21587 | 10.24044 | 236° | 13km/h | 22967m | -16.8m/s | -52.3°C | 3.9% | 37hPa | 2.6V | 08:24:14 | 01:54:07 | 00:00:00 | |
| DK5PH-5 | 2026-08-31 12:23:48 | 49.21583 | 10.24036 | 228° | 11km/h | 22933m | -16.9m/s | -52.2°C | 3.8% | 37.2hPa | 2.7V | 00:00:00 | 01:54:09 | 00:00:00 | |
| DM0DOS-11 | 2026-08-31 12:23:47 | 49.21595 | 10.24065 | 244° | 13km/h | 23052m | -16.6m/s | -52.5°C | 4% | 36.5hPa | 2.6V | 08:24:19 | 01:54:02 | 00:00:00 | |
| DF3TZ-5 | 2026-08-31 12:23:47 | 49.21587 | 10.24044 | 236° | 13km/h | 22967m | -16.8m/s | -52.3°C | 0.9% | 37.0hPa | 2.6V | 00:00:00 | 00:00:00 | 00:00:00 | |
| SONDE2-11 | 2026-08-31 12:23:45 | 49.21589 | 10.24048 | 241° | 11km/h | 22984m | -17.2m/s | -52.4°C | 0.9% | 36.9hPa | 2.6V | 00:00:00 | 00:00:00 | 00:00:00 | |
| DF8AY | 2026-08-31 12:23:44 | 49.21597 | 10.24074 | 254° | 13km/h | 23085m | -16.8m/s | -52.6°C | 0.4% | 36.3hPa | 2.6V | 08:27:00 | 01:54:00 | 00:00:00 | |
| HSKMA3-T | 2026-08-31 12:23:42 | 49.21593 | 10.24061 | 246° | 11km/h | 23035m | -17.1m/s | -52.5°C | 0.4% | 36.6hPa | 2.7V | 08:24:27 | 01:54:03 | 00:00:00 | |
| DL1XH-west | 2026-08-31 12:23:40 | 49.21596 | 10.24070 | 251° | 11km/h | 23068m | -16.7m/s | -52.6°C | 0.5% | 36.5hPa | 2.6V | 08:24:27 | 01:54:01 | 00:00:00 | |
| BIOWL1-15 | 2026-08-31 12:23:38 | 49.21597 | 10.24079 | 266° | 13km/h | 23102m | -17.1m/s | -52.6°C | 0.5% | 36.3hPa | 2.7V | 08:25:18 | 01:53:59 | 00:00:00 | |
| OE5DRO-10 | 2026-08-31 12:23:37 | 49.21597 | 10.24084 | 270° | 9km/h | 23119m | -17.1m/s | -52.6°C | 4.0% | 36.1hPa | 2.7V | 08:24:00 | 00:00:00 | 00:00:00 | |
| NBG1-10 | 2026-08-31 12:23:35 | 49.21596 | 10.24095 | 292° | 15km/h | 23154m | -17.1m/s | -52.6°C | 4.0% | 35.9hPa | 2.6V | 00:00:00 | 01:53:56 | 00:00:00 | |
| DL9SK-14 | 2026-08-31 12:23:34 | 49.21592 | 10.24106 | 299° | 15km/h | 23188m | -17.3m/s | -52.6°C | 1.0% | 35.8hPa | 2.6V | 00:00:00 | 00:00:00 | 00:00:00 | |
| DL1XH1-15 | 2026-08-31 12:23:33 | 49.21581 | 10.24122 | 333° | 7km/h | 23275m | -17.5m/s | -52.6°C | 4% | 35.3hPa | 2.6V | 08:24:32 | 01:53:49 | 00:00:00 | |
| HSKMA3-T | 2026-08-31 12:23:32 | 49.21590 | 10.24110 | 311° | 15km/h | 23205m | -17.3m/s | -52.7°C | 0.5% | 35.7hPa | 2.7V | 08:25:18 | 01:53:53 | 00:00:00 | |
| DL1XH-west | 2026-08-31 12:23:29 | 49.21583 | 10.24120 | 324° | 9km/h | 23258m | -17.4m/s | -52.7°C | 0.5% | 35.4hPa | 2.6V | 08:25:18 | 01:53:50 | 00:00:00 | |
| DO9HM | 2026-08-31 12:23:29 | 49.21583 | 10.24120 | 325° | 9km/h | 23258m | -17.4m/s | -52.7°C | 1.0% | 35.4hPa | 2.7V | 00:00:00 | 00:00:00 | 00:00:00 | |
| DM0DOS-11 | 2026-08-31 12:23:26 | 49.21576 | 10.24127 | 305° | 5km/h | 23399m | -17.5m/s | -52.4°C | 4% | 34.6hPa | 2.7V | 08:24:39 | 01:53:42 | 00:00:00 | |
| BIOWL1-15 | 2026-08-31 12:23:25 | 49.21577 | 10.24125 | 316° | 4km/h | 23364m | -17.5m/s | -52.4°C | 0.5% | 34.8hPa | 2.6V | 08:25:18 | 01:53:44 | 00:00:00 | |
| HSKMA3-T | 2026-08-31 12:23:21 | 49.21576 | 10.24127 | 305° | 5km/h | 23399m | -17.5m/s | -52.4°C | 0.5% | 34.6hPa | 2.7V | 08:25:18 | 01:53:42 | 00:00:00 | |
| DO3MHA-11 | 2026-08-31 12:23:21 | 49.21575 | 10.24127 | 306° | 13km/h | 23399m | -17.5m/s | -52.3°C | 4.0% | 34.6hPa | 2.7V | 00:00:00 | 01:53:42 | 00:00:00 | |
| DL1XH1-15 | 2026-08-31 12:23:20 | 49.21571 | 10.24135 | 311° | 13km/h | 23453m | -17.9m/s | -52°C | 3.9% | 34.3hPa | 2.7V | 08:24:42 | 01:53:39 | 00:00:00 | |
| DF8AY | 2026-08-31 12:23:19 | 49.21567 | 10.24143 | 312° | 15km/h | 23488m | -18.2m/s | -52°C | 0.4% | 34.2hPa | 2.6V | 08:27:00 | 01:53:37 | 00:00:00 | |
| DL1XH-west | 2026-08-31 12:23:19 | 49.21564 | 10.24148 | 315° | 18km/h | 23506m | -18m/s | -51.9°C | 0.4% | 34hPa | 2.6V | 08:25:18 | 01:53:36 | 00:00:00 | |
| DL1NUX | 2026-08-31 12:23:18 | 49.21567 | 10.24143 | 311° | 15km/h | 23488m | -18.2m/s | -52°C | 3.9% | 34.1hPa | 2.6V | 08:24:44 | 01:53:37 | 00:00:00 | |
| DK5PH-5 | 2026-08-31 12:23:18 | 49.21571 | 10.24135 | 312° | 20km/h | 23453m | -17.9m/s | -52.0°C | 3.9% | 34.3hPa | 2.6V | 00:00:00 | 01:53:39 | 00:00:00 | |
| DF3TZ-5 | 2026-08-31 12:23:16 | 49.21564 | 10.24148 | 315° | 16km/h | 23507m | -18.0m/s | -51.9°C | 0.9% | 34.0hPa | 2.6V | 00:00:00 | 00:00:00 | 00:00:00 | |
| DO3MHA-12 | 2026-08-31 12:23:15 | 49.21564 | 10.24147 | 316° | 22km/h | 23507m | -17.9m/s | -51.9°C | 3.9% | 34.0hPa | 2.6V | 08:24:00 | 01:53:36 | 00:00:00 | |
| DL1XH1-15 | 2026-08-31 12:23:14 | 49.21539 | 10.24184 | 319° | 24km/h | 23634m | -17.7m/s | -52.1°C | 4% | 33.4hPa | 2.7V | 08:24:52 | 01:53:29 | 00:00:00 | |
| BIOWL1-15 | 2026-08-31 12:23:14 | 49.21551 | 10.24167 | 316° | 20km/h | 23579m | -18.1m/s | -52.2°C | 0.5% | 33.7hPa | 2.6V | 08:25:18 | 01:53:32 | 00:00:00 | |
| HSKMA3-T | 2026-08-31 12:23:10 | 49.21547 | 10.24173 | 319° | 20km/h | 23597m | -18.2m/s | -52.2°C | 0.5% | 33.6hPa | 2.6V | 08:25:18 | 01:53:31 | 00:00:00 | |
| DF8AY | 2026-08-31 12:23:09 | 49.21543 | 10.24178 | 319° | 24km/h | 23616m | -18.6m/s | -52.2°C | 0.5% | 33.5hPa | 2.7V | 08:27:00 | 01:53:30 | 00:00:00 | |
| DL1NUX | 2026-08-31 12:23:08 | 49.21529 | 10.24197 | 320° | 27km/h | 23670m | -17.8m/s | -52°C | 3.9% | 33.2hPa | 2.6V | 08:24:54 | 01:53:27 | 00:00:00 | |
| DL1XH-west | 2026-08-31 12:23:07 | 49.21534 | 10.24191 | 319° | 26km/h | 23652m | -18.3m/s | -52.1°C | 0.4% | 33.3hPa | 2.7V | 08:25:18 | 01:53:28 | 00:00:00 | |
| DB0ND-19 | 2026-08-31 12:23:06 | 49.21523 | 10.24204 | 321° | 27km/h | 23688m | -17.8m/s | -52.0°C | 0.9% | 33.1hPa | 2.6V | 00:00:00 | 00:00:00 | 00:00:00 | |
| DO3MHA-12 | 2026-08-31 12:23:05 | 49.21523 | 10.24204 | 322° | 22km/h | 23688m | -17.8m/s | -52.0°C | 3.9% | 33.1hPa | 2.6V | 00:00:00 | 01:53:26 | 00:00:00 | |
| DL9SK-14 | 2026-08-31 12:23:03 | 49.21506 | 10.24223 | 325° | 26km/h | 23743m | -19.0m/s | -52.1°C | 0.9% | 32.8hPa | 2.6V | 00:00:00 | 00:00:00 | 00:00:00 | |
| DL1XH1-15 | 2026-08-31 12:23:02 | 49.21487 | 10.24240 | 334° | 16km/h | 23817m | -18.7m/s | -52°C | 3.9% | 32.5hPa | 2.6V | 08:25:02 | 01:53:19 | 00:00:00 | |
| BIOWL1-15 | 2026-08-31 12:23:02 | 49.21496 | 10.24233 | 329° | 24km/h | 23780m | -18.4m/s | -52.1°C | 0.5% | 32.6hPa | 2.6V | 08:25:18 | 01:53:21 | 00:00:00 | |
| HSKMA3-T | 2026-08-31 12:22:59 | 49.21491 | 10.24237 | 336° | 20km/h | 23799m | -18.8m/s | -52°C | 0.4% | 32.6hPa | 2.6V | 08:25:18 | 01:53:20 | 00:00:00 | |
| DJ2DS-15 | 2026-08-31 12:22:59 | 49.21491 | 10.24237 | 336° | 24km/h | 23799m | -18.8m/s | -52.0°C | 3.9% | 32.5hPa | 2.7V | 00:00:00 | 01:53:20 | 00:00:00 | |
| DL1NUX | 2026-08-31 12:22:58 | 49.21479 | 10.24244 | 345° | 15km/h | 23855m | -18.3m/s | -52°C | 3.9% | 32.3hPa | 2.7V | 08:25:04 | 01:53:17 | 00:00:00 | |
| DL1XH-west | 2026-08-31 12:22:56 | 49.21479 | 10.24244 | 346° | 15km/h | 23855m | -18.3m/s | -52°C | 0.4% | 32.3hPa | 2.7V | 08:25:18 | 01:53:17 | 00:00:00 | |
| BIOWL9-15 | 2026-08-31 12:22:51 | 49.21446 | 10.24249 | 340° | 16km/h | 24023m | -18.9m/s | -51.3°C | 0.9% | 31.4hPa | 2.6V | 00:00:00 | 00:00:00 | 00:00:00 | |
| DL1XH1-15 | 2026-08-31 12:22:50 | 49.21450 | 10.24247 | 346° | 16km/h | 24004m | -19m/s | -51.4°C | 3.8% | 31.5hPa | 2.6V | 08:25:12 | 01:53:09 | 00:00:00 | |
| HSKMA3-T | 2026-08-31 12:22:49 | 49.21450 | 10.24247 | 346° | 16km/h | 24004m | -19m/s | -51.4°C | 0.4% | 31.5hPa | 2.6V | 08:25:18 | 01:53:09 | 00:00:00 | |
| DL1NUX | 2026-08-31 12:22:48 | 49.21432 | 10.24258 | 332° | 22km/h | 24080m | -19.1m/s | -51.3°C | 3.7% | 31.1hPa | 2.7V | 08:25:16 | 01:53:05 | 00:00:00 | |
| DL1XH-west | 2026-08-31 12:22:46 | 49.21442 | 10.24251 | 336° | 20km/h | 24042m | -18.8m/s | -51.3°C | 0.3% | 31.4hPa | 2.6V | 08:25:18 | 01:53:07 | 00:00:00 | |
| DF8AY | 2026-08-31 12:22:45 | 49.21432 | 10.24258 | 332° | 22km/h | 24080m | -19.1m/s | -51.3°C | 0.3% | 31.1hPa | 2.7V | 08:27:00 | 01:53:05 | 00:00:00 | |
| DL1XH1-15 | 2026-08-31 12:22:45 | 49.21393 | 10.24286 | 338° | 33km/h | 24195m | -19.5m/s | -51.7°C | 3.8% | 30.6hPa | 2.7V | 08:25:22 | 01:52:59 | 00:00:00 | |
| BIOWL1-15 | 2026-08-31 12:22:44 | 49.21421 | 10.24267 | 333° | 27km/h | 24118m | -19m/s | -51.4°C | 0.3% | 31hPa | 2.6V | 08:25:18 | 01:53:03 | 00:00:00 | |
| HSKMA3-T | 2026-08-31 12:22:39 | 49.21393 | 10.24286 | 339° | 33km/h | 24195m | -19.5m/s | -51.7°C | 0.4% | 30.6hPa | 2.7V | 08:26:09 | 01:52:59 | 00:00:00 | |
| DL1XH-west | 2026-08-31 12:22:36 | 49.21376 | 10.24294 | 344° | 37km/h | 24233m | -19.1m/s | -51.6°C | 0.4% | 30.4hPa | 2.6V | 08:26:09 | 01:52:57 | 00:00:00 | |
| DF8AY | 2026-08-31 12:22:34 | 49.21278 | 10.24293 | 30° | 13km/h | 24524m | -19.8m/s | -51.6°C | 0.4% | 29.1hPa | 2.6V | 08:27:00 | 01:52:42 | 00:00:00 | |
| DL1XH1-15 | 2026-08-31 12:22:33 | 49.21307 | 10.24308 | 4° | 26km/h | 24388m | -19.5m/s | -51.8°C | 3.9% | 29.7hPa | 2.6V | 08:25:32 | 01:52:49 | 00:00:00 | |
| BIOWL1-15 | 2026-08-31 12:22:31 | 49.21307 | 10.24308 | 4° | 26km/h | 24388m | -19.5m/s | -51.8°C | 0.4% | 29.7hPa | 2.6V | 08:27:51 | 01:52:49 | 00:00:00 | |
| HSKMA3-T | 2026-08-31 12:22:27 | 49.21301 | 10.24307 | 8° | 24km/h | 24407m | -19.4m/s | -51.9°C | 0.4% | 29.6hPa | 2.7V | 08:26:09 | 01:52:48 | 00:00:00 | |
| DL1XH-west | 2026-08-31 12:22:26 | 49.21296 | 10.24305 | 15° | 20km/h | 24427m | -19.1m/s | -51.9°C | 0.4% | 29.5hPa | 2.7V | 08:26:09 | 01:52:47 | 00:00:00 | |
| PG1ADW-2 | 2026-08-31 12:22:26 | 49.21296 | 10.24305 | 15° | 15km/h | 24427m | -19.0m/s | -51.8°C | 3.9% | 29.5hPa | 2.7V | 00:00:00 | 00:00:00 | 00:00:00 | |
| DO3MHA-12 | 2026-08-31 12:22:25 | 49.21291 | 10.24303 | 19° | 15km/h | 24446m | -19.4m/s | -51.8°C | 3.9% | 29.4hPa | 2.7V | 00:00:00 | 01:52:46 | 00:00:00 | |
| OE5DXL-15 | 2026-08-31 12:22:24 | 49.21287 | 10.24301 | 26° | 9km/h | 24466m | -19.6m/s | -51.8°C | 3.9% | 29.3hPa | 2.7V | 00:00:00 | 00:00:00 | 00:00:00 | |
| DL1XH1-15 | 2026-08-31 12:22:23 | 49.21269 | 10.24285 | 26° | 15km/h | 24583m | -19.7m/s | -51.5°C | 3.8% | 28.8hPa | 2.7V | 08:25:42 | 01:52:39 | 00:00:00 | |
| DM0DOS-11 | 2026-08-31 12:22:23 | 49.21278 | 10.24292 | 30° | 13km/h | 24524m | -19.8m/s | -51.6°C | 3.8% | 29.1hPa | 2.6V | 08:25:39 | 01:52:42 | 00:00:00 | |
| DF8AY | 2026-08-31 12:22:21 | 49.21233 | 10.24249 | 285° | 5km/h | 24943m | -20.3m/s | -51.2°C | 0.4% | 27.3hPa | 2.7V | 08:27:00 | 01:52:21 | 00:00:00 | |
| BIOWL1-15 | 2026-08-31 12:22:20 | 49.21248 | 10.24270 | 33° | 16km/h | 24702m | -20.2m/s | -51.7°C | 0.4% | 28.3hPa | 2.7V | 08:27:51 | 01:52:33 | 00:00:00 | |
| DL1XH-west | 2026-08-31 12:22:16 | 49.21262 | 10.24281 | 24° | 15km/h | 24622m | -19.4m/s | -51.6°C | 0.4% | 28.7hPa | 2.6V | 08:26:09 | 01:52:37 | 00:00:00 | |
| DO3MHA-12 | 2026-08-31 12:22:15 | 49.21258 | 10.24278 | 26° | 13km/h | 24642m | -20.1m/s | -51.6°C | 3.8% | 28.5hPa | 2.6V | 00:00:00 | 01:52:36 | 00:00:00 | |
| DM0DOS-11 | 2026-08-31 12:22:13 | 49.21244 | 10.24266 | 38° | 15km/h | 24722m | -19.9m/s | -51.7°C | 3.9% | 28.2hPa | 2.6V | 08:25:49 | 01:52:32 | 00:00:00 | |
| DO3MHA-11 | 2026-08-31 12:22:11 | 49.21244 | 10.24266 | 39° | 7km/h | 24722m | -19.9m/s | -51.7°C | 3.9% | 28.2hPa | 2.6V | 00:00:00 | 01:52:32 | 00:00:00 | |
| DL1XH1-15 | 2026-08-31 12:22:10 | 49.21238 | 10.24255 | 54° | 11km/h | 24782m | -20.5m/s | -51.7°C | 3.9% | 27.9hPa | 2.7V | 08:25:52 | 01:52:29 | 00:00:00 | |
| BIOWL1-15 | 2026-08-31 12:22:09 | 49.21236 | 10.24252 | 56° | 9km/h | 24802m | -19.8m/s | -51.6°C | 0.4% | 27.9hPa | 2.7V | 08:27:51 | 01:52:28 | 00:00:00 | |
| DL1XH-west | 2026-08-31 12:22:05 | 49.21235 | 10.24247 | 56° | 5km/h | 24842m | -20.1m/s | -51.5°C | 0.4% | 27.7hPa | 2.6V | 08:26:09 | 01:52:26 | 00:00:00 | |
| DO3MHA-12 | 2026-08-31 12:22:05 | 49.21234 | 10.24247 | 56° | 4km/h | 24842m | -20.1m/s | -51.5°C | 3.9% | 27.7hPa | 2.7V | 00:00:00 | 01:52:26 | 00:00:00 | |
| DL8DAS-15 | 2026-08-31 12:22:04 | 49.21234 | 10.24247 | 57° | 5km/h | 24842m | -20.1m/s | 0°C | 0% | 0hPa | 2.7V | 00:00:00 | 00:00:00 | 00:00:00 | |
| DL0LBS | 2026-08-31 12:22:03 | 49.21234 | 10.24246 | 40° | 4km/h | 24863m | -19.9m/s | -51.5°C | 1.0% | 27.6hPa | 2.7V | 08:26:00 | 00:00:00 | 00:00:00 | |
| DL1NUX | 2026-08-31 12:22:02 | 49.21233 | 10.24249 | 284° | 5km/h | 24943m | -20.3m/s | -51.2°C | 3.8% | 27.3hPa | 2.7V | 08:26:00 | 01:52:21 | 00:00:00 | |
| DM0DOS-11 | 2026-08-31 12:22:02 | 49.21233 | 10.24247 | 286° | 4km/h | 24923m | -20.4m/s | -51.2°C | 3.8% | 27.4hPa | 2.7V | 08:25:59 | 01:52:22 | 00:00:00 | |
| DF8AY | 2026-08-31 12:21:59 | 49.21232 | 10.24252 | 272° | 5km/h | 24984m | -20.3m/s | -51.2°C | 0.4% | 27.1hPa | 2.6V | 08:27:00 | 01:52:19 | 00:00:00 | |
| IW2NTF | 2026-08-31 12:21:58 | 49.21232 | 10.24254 | 274° | 5km/h | 25004m | -20.6m/s | -51.2°C | 3.8% | 27hPa | 2.6V | 08:26:03 | 01:52:18 | 00:00:00 | |
| BIOWL1-15 | 2026-08-31 12:21:57 | 49.21232 | 10.24254 | 274° | 5km/h | 25004m | -20.6m/s | -51.2°C | 0.4% | 27hPa | 2.6V | 08:27:51 | 01:52:18 | 00:00:00 | |
| NBG1-10 | 2026-08-31 12:21:56 | 49.21232 | 10.24256 | 266° | 5km/h | 25025m | -20.3m/s | -51.2°C | 3.8% | 26.9hPa | 2.7V | 00:00:00 | 01:52:17 | 00:00:00 | |
| DO3MHA-12 | 2026-08-31 12:21:55 | 49.21232 | 10.24257 | 268° | 4km/h | 25045m | -20.7m/s | -51.2°C | 3.9% | 26.8hPa | 2.7V | 00:00:00 | 01:52:16 | 00:00:00 | |
| DL1NUX | 2026-08-31 12:21:54 | 49.21228 | 10.24260 | 354° | 5km/h | 25169m | -20.4m/s | -51.4°C | 3.9% | 26.3hPa | 2.7V | 08:26:11 | 01:52:10 | 00:00:00 | |
| DL1XH-west | 2026-08-31 12:21:54 | 49.21232 | 10.24258 | 296° | 4km/h | 25066m | -21.2m/s | -51.2°C | 0.4% | 26.7hPa | 2.7V | 08:26:09 | 01:52:15 | 00:00:00 | |
| OE5DXL-15 | 2026-08-31 12:21:54 | 49.21232 | 10.24258 | 296° | 5km/h | 25066m | -21.1m/s | -51.2°C | 3.8% | 26.7hPa | 2.7V | 00:00:00 | 00:00:00 | 00:00:00 | |
| DM0DOS-11 | 2026-08-31 12:21:52 | 49.21230 | 10.24259 | 354° | 5km/h | 25128m | -20.4m/s | -51.3°C | 3.8% | 26.5hPa | 2.6V | 08:26:09 | 01:52:12 | 00:00:00 | |
| DO3MHA-11 | 2026-08-31 12:21:51 | 49.21230 | 10.24259 | 355° | 5km/h | 25128m | -20.4m/s | -51.3°C | 3.8% | 26.5hPa | 2.7V | 00:00:00 | 01:52:12 | 00:00:00 | |
| DB0NH | 2026-08-31 12:21:50 | 49.21229 | 10.24260 | 347° | 7km/h | 25149m | -20.7m/s | -51.3°C | 3.9% | 26.3hPa | 2.7V | 00:00:00 | 01:52:11 | 00:00:00 | |
| IW2NTF | 2026-08-31 12:21:48 | 49.21225 | 10.24266 | 296° | 5km/h | 25252m | -21.2m/s | -51.2°C | 3.9% | 26hPa | 2.6V | 08:26:15 | 01:52:06 | 00:00:00 | |
| DF8AY | 2026-08-31 12:21:48 | 49.21226 | 10.24262 | 311° | 5km/h | 25211m | -20.6m/s | -51.4°C | 0.4% | 26.2hPa | 2.6V | 08:27:00 | 01:52:08 | 00:00:00 | |
| DL6DJ-15 | 2026-08-31 12:21:45 | 49.21225 | 10.24266 | 296° | 4km/h | 25252m | -21.2m/s | -51.2°C | 0.9% | 26.0hPa | 2.7V | 00:00:00 | 00:00:00 | 00:00:00 | |
| DL1XH-west | 2026-08-31 12:21:44 | 49.21224 | 10.24268 | 286° | 7km/h | 25273m | -20.4m/s | -51.1°C | 0.4% | 25.9hPa | 2.7V | 08:27:00 | 01:52:05 | 00:00:00 | |
| HSKMA3-T | 2026-08-31 12:21:43 | 49.21224 | 10.24270 | 284° | 5km/h | 25294m | -21.2m/s | -51°C | 0.4% | 25.8hPa | 2.7V | 08:27:00 | 01:52:04 | 00:00:00 | |
| SO1NDE-10 | 2026-08-31 12:21:43 | 49.21224 | 10.24270 | 285° | 9km/h | 25294m | -21.1m/s | -51.0°C | 3.8% | 25.8hPa | 2.6V | 00:00:00 | 01:52:04 | 00:00:00 | |
| DL1NUX | 2026-08-31 12:21:42 | 49.21221 | 10.24278 | 328° | 5km/h | 25378m | -20.6m/s | -50.7°C | 3.7% | 25.5hPa | 2.6V | 08:26:21 | 01:52:00 | 00:00:00 | |
| DM0DOS-11 | 2026-08-31 12:21:42 | 49.21223 | 10.24275 | 299° | 5km/h | 25335m | -21.1m/s | -50.9°C | 3.8% | 25.6hPa | 2.6V | 08:26:19 | 01:52:02 | 00:00:00 | |
| DK7TD | 2026-08-31 12:21:39 | 49.21221 | 10.24278 | 329° | 5km/h | 25378m | -20.6m/s | -50.7°C | 0.3% | 25.5hPa | 2.6V | 08:28:42 | 01:52:00 | 00:00:00 | |
| BIOWL1-15 | 2026-08-31 12:21:38 | 49.21220 | 10.24279 | 343° | 7km/h | 25399m | -21.6m/s | -50.6°C | 0.4% | 25.4hPa | 2.7V | 08:27:51 | 01:51:59 | 00:00:00 | |
| DF8AY | 2026-08-31 12:21:37 | 49.21212 | 10.24283 | 322° | 5km/h | 25526m | -21m/s | -50.4°C | 0.3% | 24.9hPa | 2.7V | 08:27:00 | 01:51:53 | 00:00:00 | |
| DF8AY-15 | 2026-08-31 12:21:37 | 49.21219 | 10.24280 | 339° | 9km/h | 25420m | -21.0m/s | -50.3°C | 3.7% | 25.3hPa | 2.7V | 00:00:00 | 01:51:58 | 00:00:00 | |
| IW2NTF | 2026-08-31 12:21:35 | 49.21210 | 10.24287 | 301° | 7km/h | 25569m | -21.9m/s | -50.4°C | 3.7% | 24.8hPa | 2.7V | 08:26:30 | 01:51:51 | 00:00:00 | |
| DJ8HS-15 | 2026-08-31 12:21:35 | 49.21216 | 10.24281 | 351° | 9km/h | 25463m | -21.3m/s | -50.2°C | 3.6% | 25.1hPa | 2.6V | 00:00:00 | 01:51:56 | 00:00:00 | |
| DL1NUX | 2026-08-31 12:21:34 | 49.21209 | 10.24290 | 304° | 7km/h | 25591m | -22.2m/s | -50.4°C | 3.6% | 24.6hPa | 2.6V | 08:26:31 | 01:51:50 | 00:00:00 | |
| DL1XH-west | 2026-08-31 12:21:33 | 49.21213 | 10.24282 | 317° | 4km/h | 25505m | -21.7m/s | -50.3°C | 0.2% | 25hPa | 2.6V | 08:27:00 | 01:51:54 | 00:00:00 | |
| DL1ZP-14 | 2026-08-31 12:21:33 | 49.21212 | 10.24283 | 322° | 5km/h | 25526m | -21.0m/s | -50.4°C | 0.9% | 24.9hPa | 2.7V | 00:00:00 | 00:00:00 | 00:00:00 | |
| DO3MHA-11 | 2026-08-31 12:21:31 | 49.21211 | 10.24285 | 306° | 11km/h | 25548m | -21.7m/s | -50.4°C | 3.6% | 24.8hPa | 2.6V | 00:00:00 | 01:51:52 | 00:00:00 | |
| DL1XH1-15 | 2026-08-31 12:21:29 | 49.21208 | 10.24292 | 308° | 9km/h | 25613m | -22.5m/s | -50.3°C | 3.6% | 24.6hPa | 2.6V | 08:26:32 | 01:51:49 | 00:00:00 | |
| BIOWL1-15 | 2026-08-31 12:21:28 | 49.21208 | 10.24292 | 309° | 9km/h | 25613m | -22.5m/s | -50.3°C | 0.3% | 24.6hPa | 2.6V | 08:27:51 | 01:51:49 | 00:00:00 | |
| DF8AY | 2026-08-31 12:21:27 | 49.21206 | 10.24295 | 322° | 11km/h | 25635m | -21.2m/s | -50.2°C | 0.3% | 24.5hPa | 2.6V | 08:27:00 | 01:51:48 | 00:00:00 | |
| DO9HM | 2026-08-31 12:21:26 | 49.21204 | 10.24297 | 329° | 11km/h | 25656m | -21.1m/s | -50.3°C | 0.9% | 24.4hPa | 2.7V | 08:27:00 | 00:00:00 | 00:00:00 | |
| IW2NTF | 2026-08-31 12:21:25 | 49.21185 | 10.24307 | 0° | 11km/h | 25785m | -20.8m/s | -50.5°C | 3.7% | 23.9hPa | 2.7V | 08:26:40 | 01:51:41 | 00:00:00 | |
| DJ2DS-15 | 2026-08-31 12:21:25 | 49.21201 | 10.24300 | 334° | 9km/h | 25678m | -21.5m/s | -50.3°C | 3.6% | 24.3hPa | 2.7V | 00:00:00 | 01:51:46 | 00:00:00 | |
| OE5DXL-15 | 2026-08-31 12:21:24 | 49.21198 | 10.24302 | 335° | 9km/h | 25699m | -21.2m/s | -50.4°C | 3.6% | 24.2hPa | 2.7V | 00:00:00 | 00:00:00 | 00:00:00 | |
| DL1XH1-15 | 2026-08-31 12:21:23 | 49.21181 | 10.24306 | 25° | 5km/h | 25829m | -20.9m/s | -50.5°C | 3.7% | 23.8hPa | 2.7V | 08:26:42 | 01:51:39 | 00:00:00 | |
| DL1XH-west | 2026-08-31 12:21:23 | 49.21195 | 10.24304 | 342° | 15km/h | 25720m | -21.5m/s | -50.6°C | 0.3% | 24.2hPa | 2.6V | 08:27:00 | 01:51:44 | 00:00:00 | |
| NBG1-10 | 2026-08-31 12:21:23 | 49.21195 | 10.24304 | 342° | 9km/h | 25720m | -21.4m/s | -50.5°C | 3.6% | 24.1hPa | 2.6V | 08:26:00 | 01:51:44 | 00:00:00 | |
| DL1NUX | 2026-08-31 12:21:22 | 49.21182 | 10.24306 | 19° | 7km/h | 25807m | -22.4m/s | -50.5°C | 3.7% | 23.9hPa | 2.7V | 08:26:41 | 01:51:40 | 00:00:00 | |
| BIOWL1-15 | 2026-08-31 12:21:18 | 49.21180 | 10.24305 | 346° | 5km/h | 25850m | -21.5m/s | -50.4°C | 0.3% | 23.7hPa | 2.6V | 08:27:51 | 01:51:38 | 00:00:00 | |
| DF8AY | 2026-08-31 12:21:17 | 49.21178 | 10.24306 | 317° | 5km/h | 25871m | -21.6m/s | -50.4°C | 0.3% | 23.6hPa | 2.6V | 08:27:00 | 01:51:37 | 00:00:00 | |
| OE5WHR-10 | 2026-08-31 12:21:16 | 49.21178 | 10.24306 | 317° | 9km/h | 25872m | -21.6m/s | -50.3°C | 3.7% | 23.6hPa | 2.6V | 00:00:00 | 00:00:00 | 00:00:00 | |
| DM0DOS-11 | 2026-08-31 12:21:15 | 49.21171 | 10.24312 | 14° | 5km/h | 25981m | -22.8m/s | -50.6°C | 3.8% | 23.2hPa | 2.6V | 08:26:49 | 01:51:32 | 00:00:00 | |
| DL1XH-west | 2026-08-31 12:21:12 | 49.21173 | 10.24312 | 353° | 7km/h | 25959m | -21.3m/s | -50.5°C | 0.4% | 23.3hPa | 2.7V | 08:27:00 | 01:51:33 | 00:00:00 | |
| DO3MHA-11 | 2026-08-31 12:21:11 | 49.21171 | 10.24312 | 15° | 9km/h | 25981m | -22.7m/s | -50.5°C | 3.8% | 23.2hPa | 2.6V | 08:26:00 | 01:51:32 | 00:00:00 | |
| DL1XH1-15 | 2026-08-31 12:21:10 | 49.21169 | 10.24314 | 256° | 5km/h | 26046m | -21.9m/s | -50.6°C | 3.8% | 23hPa | 2.7V | 08:26:52 | 01:51:29 | 00:00:00 | |
| BIOWL1-15 | 2026-08-31 12:21:07 | 49.21169 | 10.24316 | 291° | 7km/h | 26067m | -19.9m/s | -50.6°C | 0.4% | 22.9hPa | 2.7V | 08:27:51 | 01:51:28 | 00:00:00 | |
| DF8AY | 2026-08-31 12:21:06 | 49.21169 | 10.24319 | 273° | 9km/h | 26087m | -21.2m/s | -50.5°C | 0.4% | 22.8hPa | 2.7V | 08:27:00 | 01:51:27 | 00:00:00 | |
| HSKMA3-T | 2026-08-31 12:21:01 | 49.21154 | 10.24329 | 8° | 18km/h | 26202m | -21.9m/s | -49.8°C | 0.2% | 22.5hPa | 2.7V | 08:27:00 | 01:51:22 | 00:00:00 | |
| DO3MHA-11 | 2026-08-31 12:21:01 | 49.21153 | 10.24329 | 8° | 11km/h | 26202m | -21.8m/s | -49.8°C | 3.5% | 22.4hPa | 2.6V | 00:00:00 | 01:51:22 | 00:00:00 | |
| DL1XH1-15 | 2026-08-31 12:20:59 | 49.21145 | 10.24322 | 46° | 5km/h | 26266m | -20.4m/s | -49.8°C | 3.6% | 22.2hPa | 2.6V | 08:27:02 | 01:51:19 | 00:00:00 | |
| DF8AY | 2026-08-31 12:20:54 | 49.21146 | 10.24331 | 276° | 11km/h | 26353m | -22.5m/s | -49.7°C | 0.3% | 21.9hPa | 2.7V | 08:27:51 | 01:51:15 | 00:00:00 | |
| DM0DOS-11 | 2026-08-31 12:20:54 | 49.21143 | 10.24339 | 338° | 11km/h | 26421m | -23.7m/s | -49.7°C | 3.7% | 21.7hPa | 2.6V | 08:27:09 | 01:51:12 | 00:00:00 | |
| HSKMA3-T | 2026-08-31 12:20:51 | 49.21142 | 10.24339 | 339° | 11km/h | 26421m | -23.7m/s | -49.7°C | 0.3% | 21.7hPa | 2.6V | 08:27:51 | 01:51:12 | 00:00:00 | |
| BIOWL1-15 | 2026-08-31 12:20:48 | 49.21132 | 10.24341 | 8° | 18km/h | 26497m | -26.8m/s | -49.7°C | 0.3% | 21.5hPa | 2.7V | 08:27:51 | 01:51:09 | 00:00:00 | |
| DK7TD | 2026-08-31 12:20:46 | 49.21124 | 10.24338 | 16° | 15km/h | 26557m | -30.8m/s | -49.6°C | 0.3% | 21.3hPa | 2.6V | 08:28:42 | 01:51:07 | 00:00:00 | |
| DO3MHA-12 | 2026-08-31 12:20:45 | 49.21121 | 10.24337 | 19° | 7km/h | 26588m | -31.7m/s | -49.4°C | 3.6% | 21.2hPa | 2.6V | 00:00:00 | 01:51:06 | 00:00:00 | |
| DO9HM | 2026-08-31 12:20:44 | 49.21121 | 10.24337 | 19° | 11km/h | 26588m | -31.8m/s | -49.4°C | 0.9% | 21.2hPa | 2.5V | 08:27:00 | 00:00:00 | 00:00:00 | |
| DM0DOS-11 | 2026-08-31 12:20:42 | 49.21115 | 10.24337 | 305° | 4km/h | 26711m | -28.2m/s | -49.4°C | 3.5% | 20.8hPa | 2.5V | 08:27:19 | 01:51:02 | 00:00:00 | |
| DL1XH1-15 | 2026-08-31 12:20:42 | 49.21115 | 10.24342 | 233° | 7km/h | 26803m | -35.1m/s | -49.4°C | 3.6% | 20.5hPa | 2.7V | 08:27:22 | 01:50:59 | 00:00:00 | |
| HSKMA3-T | 2026-08-31 12:20:41 | 49.21114 | 10.24340 | 252° | 4km/h | 26770m | -31.4m/s | -49.4°C | 0.3% | 20.6hPa | 2.6V | 08:27:51 | 01:51:00 | 00:00:00 | |
| BIOWL1-15 | 2026-08-31 12:20:40 | 49.21123 | 10.24352 | 231° | 7km/h | 26985m | -36.5m/s | -49.1°C | 0.2% | 20hPa | 2.6V | 08:27:51 | 01:50:54 | 00:00:00 | |
| SONDE2-11 | 2026-08-31 12:20:39 | 49.21115 | 10.24342 | 233° | 7km/h | 26803m | -35.1m/s | -49.4°C | 0.8% | 20.5hPa | 2.7V | 00:00:00 | 00:00:00 | 00:00:00 | |
| DF8AY-15 | 2026-08-31 12:20:36 | 49.21118 | 10.24346 | 216° | 15km/h | 26876m | -36.3m/s | -49.1°C | 3.5% | 20.3hPa | 2.7V | 00:00:00 | 01:50:57 | 00:00:00 | |
| DL1NUX | 2026-08-31 12:20:35 | 49.21122 | 10.24356 | 312° | 5km/h | 27095m | -36.8m/s | -49.1°C | 3.6% | 19.7hPa | 2.7V | 08:27:30 | 01:50:51 | 00:00:00 | |
| DO3MHA-12 | 2026-08-31 12:20:35 | 49.21120 | 10.24348 | 211° | 9km/h | 26912m | -36.8m/s | -49.2°C | 3.6% | 20.2hPa | 2.6V | 00:00:00 | 01:50:56 | 00:00:00 | |
| OE5DRO-10 | 2026-08-31 12:20:34 | 49.21121 | 10.24350 | 233° | 22km/h | 26949m | -36.7m/s | -49.2°C | 3.6% | 20.1hPa | 2.6V | 00:00:00 | 00:00:00 | 00:00:00 | |
| DL1XH1-15 | 2026-08-31 12:20:32 | 49.21118 | 10.24360 | 338° | 13km/h | 27167m | -35.9m/s | -49°C | 3.5% | 19.5hPa | 2.6V | 08:27:32 | 01:50:49 | 00:00:00 | |
| DM0DOS-11 | 2026-08-31 12:20:32 | 49.21123 | 10.24355 | 311° | 4km/h | 27058m | -36.8m/s | -49.1°C | 3.5% | 19.8hPa | 2.7V | 08:27:29 | 01:50:52 | 00:00:00 | |
| DL1XH-west | 2026-08-31 12:20:31 | 49.21123 | 10.24355 | 311° | 4km/h | 27058m | -36.8m/s | -49.2°C | 0.2% | 19.8hPa | 2.7V | 08:27:51 | 01:50:52 | 00:00:00 | |
| HSKMA3-T | 2026-08-31 12:20:29 | 49.21121 | 10.24358 | 331° | 11km/h | 27132m | -36.3m/s | -49.1°C | 0.3% | 19.6hPa | 2.6V | 08:27:51 | 01:50:50 | 00:00:00 | |
| DC4HF-4 | 2026-08-31 12:20:27 | 49.21114 | 10.24362 | 339° | 16km/h | 27203m | -35.4m/s | -49.0°C | 0.8% | 19.3hPa | 2.6V | 00:00:00 | 00:00:00 | 00:00:00 | |
| PG1ADW-2 | 2026-08-31 12:20:26 | 49.21110 | 10.24364 | 339° | 26km/h | 27238m | -34.6m/s | -49.0°C | 3.6% | 19.1hPa | 2.6V | 00:00:00 | 01:50:47 | 00:00:00 | |
| DO3MHA-12 | 2026-08-31 12:20:25 | 49.21105 | 10.24368 | 341° | 29km/h | 27273m | -33.5m/s | -49.0°C | 3.5% | 19.1hPa | 2.6V | 00:00:00 | 01:50:46 | 00:00:00 | |
| DJ2DS-15 | 2026-08-31 12:20:24 | 49.21099 | 10.24371 | 341° | 26km/h | 27306m | -32.7m/s | -48.9°C | 3.5% | 19.0hPa | 2.6V | 00:00:00 | 01:50:45 | 00:00:00 | |
| BIOWL1-15 | 2026-08-31 12:20:23 | 49.20985 | 10.24352 | 351° | 27km/h | 27758m | -21m/s | -47.8°C | 0.2% | 17.7hPa | 2.6V | 08:28:42 | 01:50:25 | 00:00:00 | |
| DM0DOS-11 | 2026-08-31 12:20:22 | 49.21079 | 10.24381 | 344° | 29km/h | 27392m | -24.1m/s | -48.5°C | 3.5% | 18.7hPa | 2.6V | 08:27:39 | 01:50:42 | 00:00:00 | |
| DL1XH-west | 2026-08-31 12:20:21 | 49.21071 | 10.24384 | 350° | 31km/h | 27416m | -22.6m/s | -48.4°C | 0.2% | 18.6hPa | 2.7V | 08:27:51 | 01:50:41 | 00:00:00 | |
| HSKMA3-T | 2026-08-31 12:20:18 | 49.21056 | 10.24385 | 5° | 33km/h | 27462m | -23.1m/s | -48.5°C | 0.2% | 18.5hPa | 2.7V | 08:27:51 | 01:50:39 | 00:00:00 | |
| DL1NUX | 2026-08-31 12:20:18 | 49.21048 | 10.24384 | 12° | 33km/h | 27484m | -21.9m/s | -48.4°C | 3.4% | 18.4hPa | 2.6V | 08:27:43 | 01:50:38 | 00:00:00 | |
| DF8AY | 2026-08-31 12:20:17 | 49.21048 | 10.24384 | 13° | 33km/h | 27484m | -21.9m/s | -48.4°C | 0.2% | 18.4hPa | 2.6V | 08:27:51 | 01:50:38 | 00:00:00 | |
| NBG1-10 | 2026-08-31 12:20:17 | 49.21047 | 10.24384 | 13° | 22km/h | 27484m | -21.8m/s | -48.3°C | 3.4% | 18.4hPa | 2.6V | 00:00:00 | 01:50:38 | 00:00:00 | |
| DO3MHA-12 | 2026-08-31 12:20:15 | 49.21033 | 10.24375 | 32° | 20km/h | 27529m | -22.1m/s | -48.1°C | 3.3% | 18.2hPa | 2.6V | 08:27:00 | 01:50:36 | 00:00:00 | |
| DF8AY-15 | 2026-08-31 12:20:14 | 49.21027 | 10.24368 | 38° | 18km/h | 27551m | -22.0m/s | -48.0°C | 3.3% | 18.2hPa | 2.7V | 00:00:00 | 01:50:35 | 00:00:00 | |
| DL1XH1-15 | 2026-08-31 12:20:13 | 49.21005 | 10.24343 | 349° | 13km/h | 27677m | -19.8m/s | -48°C | 3.4% | 17.9hPa | 2.7V | 08:27:52 | 01:50:29 | 00:00:00 | |
| DM0DOS-11 | 2026-08-31 12:20:12 | 49.21014 | 10.24349 | 45° | 18km/h | 27615m | -21.4m/s | -48.1°C | 3.4% | 18hPa | 2.6V | 08:27:49 | 01:50:32 | 00:00:00 | |
| BIOWL1-15 | 2026-08-31 12:20:12 | 49.20977 | 10.24353 | 358° | 29km/h | 27779m | -20.4m/s | -47.8°C | 0.1% | 17.6hPa | 2.6V | 08:28:42 | 01:50:24 | 00:00:00 | |
| DK7TD | 2026-08-31 12:20:11 | 49.21014 | 10.24349 | 46° | 18km/h | 27615m | -21.4m/s | -48.1°C | 0.2% | 18hPa | 2.6V | 08:28:42 | 01:50:32 | 00:00:00 | |
| DL1XH-west | 2026-08-31 12:20:10 | 49.21005 | 10.24343 | 350° | 13km/h | 27677m | -19.8m/s | -48°C | 0.2% | 17.9hPa | 2.7V | 08:28:42 | 01:50:29 | 00:00:00 | |
| DL1NUX | 2026-08-31 12:20:08 | 49.21001 | 10.24344 | 339° | 16km/h | 27697m | -20.1m/s | -47.9°C | 3.4% | 17.8hPa | 2.7V | 08:27:53 | 01:50:28 | 00:00:00 | |
| DF8AY | 2026-08-31 12:20:07 | 49.21001 | 10.24344 | 340° | 16km/h | 27697m | -20.2m/s | -47.9°C | 0.2% | 17.8hPa | 2.7V | 18:12:15 | 01:50:28 | 00:00:00 | |
| PG1ADW-2 | 2026-08-31 12:20:06 | 49.20997 | 10.24347 | 338° | 20km/h | 27718m | -20.6m/s | -47.9°C | 3.4% | 17.7hPa | 2.7V | 00:00:00 | 00:00:00 | 00:00:00 | |
| DO3MHA-12 | 2026-08-31 12:20:05 | 49.20991 | 10.24350 | 344° | 24km/h | 27738m | -20.5m/s | -47.8°C | 3.4% | 17.7hPa | 2.7V | 00:00:00 | 01:50:26 | 00:00:00 | |
| DO9HM | 2026-08-31 12:20:04 | 49.20992 | 10.24350 | 344° | 26km/h | 27738m | -20.6m/s | -47.9°C | 0.8% | 17.7hPa | 2.7V | 08:28:00 | 00:00:00 | 00:00:00 | |
| DM0DOS-11 | 2026-08-31 12:20:02 | 49.20963 | 10.24350 | 19° | 29km/h | 27820m | -20m/s | -47.6°C | 3.2% | 17.5hPa | 2.7V | 08:27:59 | 01:50:22 | 00:00:00 | |
| DO3MHA-11 | 2026-08-31 12:20:01 | 49.20962 | 10.24349 | 20° | 16km/h | 27820m | -19.9m/s | -47.6°C | 3.2% | 17.5hPa | 2.6V | 00:00:00 | 01:50:22 | 00:00:00 | |
| DL0LBS | 2026-08-31 12:20:00 | 49.20962 | 10.24350 | 20° | 29km/h | 27820m | -20.0m/s | -47.6°C | 0.8% | 17.5hPa | 2.6V | 08:28:00 | 00:00:00 | 00:00:00 | |
| DL1XH1-15 | 2026-08-31 12:19:59 | 49.20948 | 10.24334 | 64° | 16km/h | 27881m | -20.3m/s | -47.4°C | 3.2% | 17.3hPa | 2.6V | 08:28:02 | 01:50:19 | 00:00:00 | |
| DL1XH-west | 2026-08-31 12:19:59 | 49.20951 | 10.24340 | 43° | 22km/h | 27861m | -20.2m/s | -47.4°C | 0% | 17.4hPa | 2.6V | 08:28:42 | 01:50:20 | 00:00:00 | |
| HSKMA3-T | 2026-08-31 12:19:57 | 49.20947 | 10.24329 | 82° | 13km/h | 27901m | -20.8m/s | -47.4°C | 0.1% | 17.3hPa | 2.6V | 08:28:42 | 01:50:18 | 00:00:00 | |
| DL1NUX | 2026-08-31 12:19:57 | 49.20951 | 10.24333 | 275° | 15km/h | 28007m | -21m/s | -47.3°C | 3.3% | 17hPa | 2.6V | 08:28:08 | 01:50:13 | 00:00:00 | |
| DF8AY | 2026-08-31 12:19:55 | 49.20947 | 10.24346 | 316° | 22km/h | 28049m | -21.1m/s | -47.3°C | 0.1% | 16.9hPa | 2.7V | 18:12:15 | 01:50:11 | 00:00:00 | |
| DO3MHA-12 | 2026-08-31 12:19:55 | 49.20948 | 10.24324 | 172° | 20km/h | 27944m | -21.2m/s | -47.2°C | 3.2% | 17.1hPa | 2.7V | 00:00:00 | 01:50:16 | 00:00:00 | |
| OE5DXL-15 | 2026-08-31 12:19:54 | 49.20950 | 10.24325 | 227° | 22km/h | 27965m | -21.4m/s | -47.2°C | 3.2% | 17.1hPa | 2.7V | 00:00:00 | 00:00:00 | 00:00:00 | |
| DL1XH1-15 | 2026-08-31 12:19:53 | 49.20935 | 10.24354 | 352° | 29km/h | 28090m | -20.9m/s | -47.2°C | 3.2% | 16.8hPa | 2.7V | 08:28:12 | 01:50:09 | 00:00:00 | |
| DM0DOS-11 | 2026-08-31 12:19:52 | 49.20950 | 10.24340 | 298° | 20km/h | 28028m | -21.3m/s | -47.3°C | 3.3% | 16.9hPa | 2.6V | 08:28:09 | 01:50:12 | 00:00:00 | |
| DC4HF-4 | 2026-08-31 12:19:51 | 49.20950 | 10.24340 | 298° | 18km/h | 28028m | -21.3m/s | -47.3°C | 0.8% | 16.9hPa | 2.7V | 00:00:00 | 00:00:00 | 00:00:00 | |
| DF8AY | 2026-08-31 12:19:50 | 49.20903 | 10.24327 | 82° | 15km/h | 28213m | -21.1m/s | -47.2°C | 0% | 16.5hPa | 2.7V | 18:12:15 | 01:50:03 | 00:00:00 | |
| BIOWL1-15 | 2026-08-31 12:19:48 | 49.20936 | 10.24354 | 353° | 29km/h | 28091m | -20.9m/s | -47.2°C | 0% | 16.8hPa | 2.7V | 08:28:42 | 01:50:09 | 00:00:00 | |
| HSKMA3-T | 2026-08-31 12:19:47 | 49.20928 | 10.24354 | 5° | 29km/h | 28111m | -19.9m/s | -47.1°C | 0% | 16.7hPa | 2.6V | 08:28:42 | 01:50:08 | 00:00:00 | |
| PG1ADW-2 | 2026-08-31 12:19:46 | 49.20921 | 10.24351 | 19° | 24km/h | 28131m | -20.0m/s | -47.1°C | 3.1% | 16.6hPa | 2.6V | 00:00:00 | 00:00:00 | 00:00:00 | |
| DO3MHA-12 | 2026-08-31 12:19:45 | 49.20914 | 10.24347 | 33° | 16km/h | 28151m | -20.2m/s | -47.1°C | 3.1% | 16.6hPa | 2.6V | 00:00:00 | 01:50:06 | 00:00:00 | |
| NBG1-10 | 2026-08-31 12:19:44 | 49.20908 | 10.24340 | 45° | 22km/h | 28172m | -20.3m/s | -47.2°C | 3.1% | 16.5hPa | 2.7V | 00:00:00 | 01:50:05 | 00:00:00 | |
| DG9SBQ-11 | 2026-08-31 12:19:43 | 49.20908 | 10.24340 | 46° | 26km/h | 28172m | -20.4m/s | -47.2°C | 0.7% | 16.6hPa | 2.7V | 08:28:00 | 00:00:00 | 00:00:00 | |
| AZAK | 2026-08-31 12:19:41 | 49.20903 | 10.24322 | 112° | 9km/h | 28234m | -21.2m/s | -47.2°C | 0.7% | 16.4hPa | 2.7V | 08:28:00 | 00:00:00 | 00:00:00 | |
| DL1XH1-15 | 2026-08-31 12:19:40 | 49.20906 | 10.24326 | 260° | 15km/h | 28296m | -20.5m/s | -47.4°C | 3.3% | 16.3hPa | 2.7V | 08:28:22 | 01:49:59 | 00:00:00 | |
| BIOWL1-15 | 2026-08-31 12:19:37 | 49.20882 | 10.24354 | 14° | 31km/h | 28420m | -20.5m/s | -47.4°C | 0.2% | 15.9hPa | 2.7V | 08:28:42 | 01:49:53 | 00:00:00 | |
| DL1XH-west | 2026-08-31 12:19:37 | 49.20901 | 10.24346 | 318° | 26km/h | 28358m | -21.5m/s | -47.5°C | 0.2% | 16.1hPa | 2.6V | 08:28:42 | 01:49:56 | 00:00:00 | |
| DK7TD | 2026-08-31 12:19:35 | 49.20896 | 10.24352 | 334° | 26km/h | 28379m | -21.2m/s | -47.4°C | 0.1% | 16hPa | 2.6V | 08:28:42 | 01:49:55 | 00:00:00 | |
| DF8AY | 2026-08-31 12:19:30 | 49.20865 | 10.24319 | 91° | 31km/h | 28500m | -20.1m/s | -47.1°C | 0.1% | 15.8hPa | 2.6V | 18:12:15 | 01:49:49 | 00:00:00 | |
| BIOWL1-15 | 2026-08-31 12:19:26 | 49.20869 | 10.24299 | 132° | 26km/h | 28541m | -20.9m/s | -46.9°C | 0.1% | 15.7hPa | 2.7V | 08:28:42 | 01:49:47 | 00:00:00 | |
| HSKMA3-T | 2026-08-31 12:19:24 | 49.20879 | 10.24292 | 186° | 22km/h | 28584m | -21.3m/s | -46.6°C | 0.1% | 15.6hPa | 2.7V | 08:28:42 | 01:49:45 | 00:00:00 | |
| OE5DXL-15 | 2026-08-31 12:19:24 | 49.20879 | 10.24292 | 186° | 20km/h | 28584m | -21.2m/s | -46.6°C | 3.2% | 15.5hPa | 2.6V | 00:00:00 | 00:00:00 | 00:00:00 | |
| DO9HM | 2026-08-31 12:19:23 | 49.20879 | 10.24292 | 187° | 22km/h | 28584m | -21.3m/s | -46.6°C | 0.8% | 15.6hPa | 2.6V | 08:28:00 | 00:00:00 | 00:00:00 | |
| DM0DOS-11 | 2026-08-31 12:19:22 | 49.20888 | 10.24310 | 268° | 26km/h | 28649m | -22.1m/s | -46.3°C | 3.1% | 15.4hPa | 2.6V | 08:28:39 | 01:49:42 | 00:00:00 | |
| DF8AY | 2026-08-31 12:19:19 | 49.20884 | 10.24329 | 305° | 27km/h | 28692m | -20.8m/s | -46.4°C | 0% | 15.3hPa | 2.7V | 18:12:15 | 01:49:40 | 00:00:00 | |
| DK7TD | 2026-08-31 12:19:16 | 49.20868 | 10.24346 | 349° | 26km/h | 28752m | -20m/s | -46.6°C | 0% | 15.2hPa | 2.6V | 08:29:33 | 01:49:37 | 00:00:00 | |
| BIOWL1-15 | 2026-08-31 12:19:15 | 49.20862 | 10.24347 | 360° | 22km/h | 28771m | -18.9m/s | -46.5°C | 0% | 15.1hPa | 2.6V | 08:29:33 | 01:49:36 | 00:00:00 | |
| HSKMA3-T | 2026-08-31 12:19:13 | 49.20854 | 10.24344 | 29° | 13km/h | 28809m | -18.6m/s | -46.4°C | 0% | 15hPa | 2.7V | 08:29:33 | 01:49:34 | 00:00:00 | |
| DM0DOS-11 | 2026-08-31 12:19:12 | 49.20851 | 10.24340 | 86° | 4km/h | 28846m | -18.9m/s | -46.4°C | 3.2% | 14.9hPa | 2.6V | 08:28:49 | 01:49:32 | 00:00:00 | |
| PETON7-10 | 2026-08-31 12:19:12 | 49.20852 | 10.24342 | 48° | 22km/h | 28828m | -18.5m/s | -46.3°C | 3.1% | 14.9hPa | 2.7V | 00:00:00 | 01:49:33 | 00:00:00 | |
| NBG1-10 | 2026-08-31 12:19:11 | 49.20851 | 10.24340 | 87° | 18km/h | 28847m | -18.9m/s | -46.3°C | 3.2% | 14.9hPa | 2.7V | 00:00:00 | 01:49:32 | 00:00:00 | |
| DL1XH1-15 | 2026-08-31 12:19:09 | 49.20852 | 10.24341 | 302° | 5km/h | 28905m | -20.1m/s | -46.1°C | 3.1% | 14.8hPa | 2.7V | 08:28:52 | 01:49:29 | 00:00:00 | |
| DF8AY | 2026-08-31 12:19:09 | 49.20839 | 10.24345 | 2° | 22km/h | 28987m | -19.5m/s | -46.1°C | 0% | 14.6hPa | 2.6V | 18:12:15 | 01:49:25 | 00:00:00 | |
| DK5PH-5 | 2026-08-31 12:19:09 | 49.20852 | 10.24340 | 246° | 18km/h | 28885m | -20.3m/s | -46.2°C | 3.1% | 14.8hPa | 2.6V | 00:00:00 | 01:49:30 | 00:00:00 | |
| DM0DOS-11 | 2026-08-31 12:19:07 | 49.20819 | 10.24337 | 19° | 31km/h | 29045m | -19.8m/s | -46°C | 3% | 14.5hPa | 2.7V | 08:28:59 | 01:49:22 | 00:00:00 | |
| DK7TD | 2026-08-31 12:19:05 | 49.20844 | 10.24345 | 0° | 18km/h | 28967m | -20.6m/s | -46.1°C | 0% | 14.7hPa | 2.6V | 08:29:33 | 01:49:26 | 00:00:00 | |
| DO3MHA-12 | 2026-08-31 12:19:05 | 49.20844 | 10.24345 | 1° | 26km/h | 28967m | -20.5m/s | -46.0°C | 3.1% | 14.6hPa | 2.6V | 00:00:00 | 01:49:26 | 00:00:00 | |
| DL1XH1-15 | 2026-08-31 12:19:04 | 49.20798 | 10.24327 | 14° | 26km/h | 29105m | -20.7m/s | -46°C | 3.1% | 14.4hPa | 2.6V | 08:29:02 | 01:49:19 | 00:00:00 | |
| BIOWL1-15 | 2026-08-31 12:19:04 | 49.20833 | 10.24344 | 12° | 26km/h | 29006m | -18.9m/s | -46.1°C | 0% | 14.6hPa | 2.6V | 08:29:33 | 01:49:24 | 00:00:00 | |
| HSKMA3-T | 2026-08-31 12:19:04 | 49.20826 | 10.24341 | 15° | 31km/h | 29025m | -19.3m/s | -46°C | 0% | 14.5hPa | 2.7V | 08:29:33 | 01:49:23 | 00:00:00 | |
| DF8AY | 2026-08-31 12:18:58 | 49.20798 | 10.24327 | 15° | 26km/h | 29105m | -20.7m/s | -46.1°C | 0% | 14.4hPa | 2.6V | 18:12:15 | 01:49:19 | 00:00:00 | |
| DF2AP-13 | 2026-08-31 12:18:57 | 49.20792 | 10.24326 | 6° | 15km/h | 29126m | -20.1m/s | -46.1°C | 3.1% | 14.3hPa | 2.6V | 00:00:00 | 01:49:18 | 00:00:00 | |
| DM0DOS-11 | 2026-08-31 12:18:56 | 49.20767 | 10.24328 | 4° | 11km/h | 29251m | -21.1m/s | -45.8°C | 3.1% | 14hPa | 2.6V | 08:29:09 | 01:49:12 | 00:00:00 | |
| DL1XH-west | 2026-08-31 12:18:55 | 49.20777 | 10.24326 | 345° | 15km/h | 29187m | -21.2m/s | -46.1°C | 0% | 14.2hPa | 2.7V | 08:29:33 | 01:49:15 | 00:00:00 | |
| BIOWL1-15 | 2026-08-31 12:18:54 | 49.20770 | 10.24328 | 350° | 13km/h | 29230m | -21.6m/s | -45.9°C | 0% | 14.1hPa | 2.6V | 08:29:33 | 01:49:13 | 00:00:00 | |
| DJ2DS-15 | 2026-08-31 12:18:53 | 49.20773 | 10.24327 | 351° | 15km/h | 29208m | -21.5m/s | -46.0°C | 3.1% | 14.1hPa | 2.6V | 08:29:00 | 01:49:14 | 00:00:00 | |
| DL1XH1-15 | 2026-08-31 12:18:52 | 49.20758 | 10.24323 | 35° | 16km/h | 29315m | -21m/s | -45.7°C | 3.1% | 13.9hPa | 2.7V | 08:29:12 | 01:49:09 | 00:00:00 | |
| HSKMA3-T | 2026-08-31 12:18:51 | 49.20767 | 10.24328 | 4° | 11km/h | 29251m | -21.1m/s | -45.8°C | 0% | 14hPa | 2.6V | 08:29:33 | 01:49:12 | 00:00:00 | |
| DF8AY | 2026-08-31 12:18:48 | 49.20734 | 10.24296 | 21° | 18km/h | 29443m | -21.4m/s | -45.8°C | 0% | 13.7hPa | 2.7V | 18:12:15 | 01:49:03 | 00:00:00 | |
| DL1NUX | 2026-08-31 12:18:47 | 49.20734 | 10.24296 | 21° | 18km/h | 29443m | -21.4m/s | -45.8°C | 3% | 13.7hPa | 2.7V | 08:29:18 | 01:49:03 | 00:00:00 | |
| DM0DOS-11 | 2026-08-31 12:18:46 | 49.20730 | 10.24293 | 18° | 16km/h | 29464m | -21.8m/s | -45.8°C | 3% | 13.6hPa | 2.6V | 08:29:19 | 01:49:02 | 00:00:00 | |
| DL1XH-west | 2026-08-31 12:18:45 | 49.20746 | 10.24309 | 41° | 22km/h | 29378m | -21.6m/s | -45.7°C | 0% | 13.8hPa | 2.6V | 08:29:33 | 01:49:06 | 00:00:00 | |
| DO3MHA-12 | 2026-08-31 12:18:45 | 49.20746 | 10.24308 | 41° | 16km/h | 29379m | -21.5m/s | -45.6°C | 3.0% | 13.7hPa | 2.6V | 08:29:00 | 01:49:06 | 00:00:00 | |
| DL1XH1-15 | 2026-08-31 12:18:43 | 49.20718 | 10.24294 | 343° | 15km/h | 29529m | -22m/s | -45.7°C | 3.1% | 13.5hPa | 2.7V | 08:29:22 | 01:48:59 | 00:00:00 | |
| HSKMA3-T | 2026-08-31 12:18:40 | 49.20726 | 10.24292 | 360° | 16km/h | 29486m | -21.2m/s | -45.8°C | 0% | 13.6hPa | 2.6V | 08:29:33 | 01:49:01 | 00:00:00 | |
| DK7TD | 2026-08-31 12:18:35 | 49.20711 | 10.24300 | 314° | 11km/h | 29595m | -21.5m/s | -45.5°C | 0% | 13.3hPa | 2.6V | 08:29:33 | 01:48:56 | 00:00:00 | |
| DL1XH-west | 2026-08-31 12:18:35 | 49.20706 | 10.24307 | 327° | 5km/h | 29659m | -21.4m/s | -45.5°C | 0% | 13.2hPa | 2.7V | 08:29:33 | 01:48:53 | 00:00:00 | |
| DF8AY | 2026-08-31 12:18:33 | 49.20704 | 10.24308 | 326° | 7km/h | 29681m | -21.3m/s | -45.5°C | 0% | 13.2hPa | 2.7V | 18:12:15 | 01:48:52 | 00:00:00 | |
| DL1NUX | 2026-08-31 12:18:32 | 49.20704 | 10.24308 | 326° | 7km/h | 29681m | -21.3m/s | -45.5°C | 3.1% | 13.2hPa | 2.7V | 08:29:29 | 01:48:52 | 00:00:00 | |
| BIOWL1-15 | 2026-08-31 12:18:29 | 49.20700 | 10.24311 | 352° | 11km/h | 29723m | -20.7m/s | -45.5°C | 0% | 13.1hPa | 2.6V | 08:29:33 | 01:48:50 | 00:00:00 | |
| DK7TD | 2026-08-31 12:18:24 | 49.20681 | 10.24310 | 13° | 18km/h | 29830m | -22.1m/s | -45.2°C | 0% | 12.9hPa | 2.7V | 18:12:15 | 01:48:45 | 00:00:00 | |
| DM0DOS-11 | 2026-08-31 12:18:23 | 49.20671 | 10.24301 | 46° | 13km/h | 29895m | -21m/s | -45.1°C | 3% | 12.7hPa | 2.6V | 08:30:00 | 01:48:42 | 00:00:00 | |
| DF8AY | 2026-08-31 12:18:22 | 49.20671 | 10.24301 | 46° | 13km/h | 29895m | -21m/s | -45.1°C | 0% | 12.7hPa | 2.6V | 18:12:15 | 01:48:42 | 00:00:00 | |
| HSKMA3-T | 2026-08-31 12:18:18 | 49.20666 | 10.24287 | 79° | 16km/h | 29961m | -22.1m/s | -45.2°C | 0% | 12.6hPa | 2.7V | 18:12:15 | 01:48:39 | 00:00:00 | |
| DL1XH-west | 2026-08-31 12:18:14 | 49.20660 | 10.24261 | 63° | 22km/h | 30049m | -21.9m/s | -45.1°C | 0.1% | 12.4hPa | 2.7V | 18:12:15 | 01:48:35 | 00:00:00 | |
| DK7TD | 2026-08-31 12:18:13 | 49.20657 | 10.24253 | 51° | 24km/h | 30071m | -21.9m/s | -45.1°C | 0% | 12.4hPa | 2.7V | 18:12:15 | 01:48:34 | 00:00:00 | |
| DL1NUX | 2026-08-31 12:18:12 | 49.20648 | 10.24239 | 36° | 27km/h | 30115m | -22m/s | -45°C | 3.1% | 12.3hPa | 2.6V | 08:30:00 | 01:48:32 | 00:00:00 | |
| HSKMA3-T | 2026-08-31 12:18:08 | 49.20631 | 10.24222 | 32° | 26km/h | 30183m | -22.7m/s | -44.7°C | 0% | 12.2hPa | 2.7V | 18:12:15 | 01:48:29 | 00:00:00 | |
| DL6DJ-15 | 2026-08-31 12:18:08 | 49.20631 | 10.24222 | 31° | 26km/h | 30183m | -22.7m/s | -44.7°C | 0.7% | 12.2hPa | 2.7V | 00:00:00 | 00:00:00 | 00:00:00 | |
| DM0DOS-11 | 2026-08-31 12:18:07 | 49.20617 | 10.24176 | 103° | 26km/h | 30334m | -20m/s | -43.6°C | 3% | 11.9hPa | 2.7V | 08:30:00 | 01:48:22 | 00:00:00 | |
| DF8AY-15 | 2026-08-31 12:18:06 | 49.20621 | 10.24211 | 38° | 27km/h | 30229m | -22.6m/s | -44.4°C | 3.1% | 12.1hPa | 2.7V | 00:00:00 | 01:48:27 | 00:00:00 | |
| DL1NUX | 2026-08-31 12:18:05 | 49.20618 | 10.24165 | 96° | 31km/h | 30355m | -20.9m/s | -43.5°C | 2.9% | 11.9hPa | 2.7V | 08:30:00 | 01:48:21 | 00:00:00 | |
| DL1XH-west | 2026-08-31 12:18:04 | 49.20615 | 10.24193 | 90° | 20km/h | 30294m | -20.3m/s | -43.9°C | 0% | 12hPa | 2.6V | 18:12:15 | 01:48:24 | 00:00:00 | |
| BIOWL1-15 | 2026-08-31 12:18:02 | 49.20618 | 10.24165 | 97° | 31km/h | 30355m | -20.9m/s | -43.5°C | 0% | 11.9hPa | 2.7V | 18:12:15 | 01:48:21 | 00:00:00 | |
| DK7TD | 2026-08-31 12:18:02 | 49.20616 | 10.24185 | 102° | 20km/h | 30314m | -19.9m/s | -43.7°C | 0% | 11.9hPa | 2.7V | 18:12:15 | 01:48:23 | 00:00:00 | |
| HSKMA3-T | 2026-08-31 12:17:57 | 49.20618 | 10.24122 | 80° | 44km/h | 30418m | -21.7m/s | -43.1°C | 0% | 11.8hPa | 2.6V | 18:12:15 | 01:48:18 | 00:00:00 | |
| DM0DOS-11 | 2026-08-31 12:17:56 | 49.20592 | 10.24049 | 47° | 16km/h | 30554m | -20.9m/s | -42.6°C | 2.7% | 11.5hPa | 2.6V | 08:30:00 | 01:48:12 | 00:00:00 | |
| DL0LBS | 2026-08-31 12:17:56 | 49.20614 | 10.24105 | 72° | 46km/h | 30440m | -21.6m/s | -43.0°C | 0.7% | 0hPa | 2.7V | 00:00:00 | 00:00:00 | 00:00:00 | |
| DO3MHA-12 | 2026-08-31 12:17:55 | 49.20611 | 10.24090 | 66° | 24km/h | 30462m | -22.6m/s | -42.9°C | 2.8% | 11.6hPa | 2.7V | 00:00:00 | 01:48:16 | 00:00:00 | |
| OE5DXL-15 | 2026-08-31 12:17:54 | 49.20606 | 10.24076 | 57° | 29km/h | 30485m | -23.3m/s | -42.8°C | 2.8% | 11.6hPa | 2.7V | 00:00:00 | 00:00:00 | 00:00:00 | |
| DL1XH1-15 | 2026-08-31 12:17:53 | 49.20594 | 10.24048 | 209° | 18km/h | 30617m | -21.4m/s | -42.3°C | 2.7% | 11.4hPa | 2.7V | 08:30:00 | 01:48:09 | 00:00:00 | |
| DL1XH-west | 2026-08-31 12:17:53 | 49.20600 | 10.24064 | 51° | 35km/h | 30508m | -23.5m/s | -42.8°C | 0% | 11.6hPa | 2.6V | 18:12:15 | 01:48:14 | 00:00:00 | |
| DJ2DS-15 | 2026-08-31 12:17:53 | 49.20600 | 10.24064 | 52° | 26km/h | 30509m | -23.5m/s | -42.7°C | 2.8% | 11.5hPa | 2.6V | 00:00:00 | 01:48:14 | 00:00:00 | |
| DL1NUX | 2026-08-31 12:17:52 | 49.20591 | 10.24045 | 215° | 9km/h | 30596m | -20.6m/s | -42.4°C | 2.7% | 11.4hPa | 2.7V | 08:30:00 | 01:48:10 | 00:00:00 | |
| DK7TD | 2026-08-31 12:17:51 | 49.20592 | 10.24049 | 47° | 16km/h | 30554m | -20.9m/s | -42.6°C | 0% | 11.5hPa | 2.6V | 18:12:15 | 01:48:12 | 00:00:00 | |
| BIOWL1-15 | 2026-08-31 12:17:50 | 49.20594 | 10.24048 | 210° | 18km/h | 30617m | -21.4m/s | -42.3°C | 0% | 11.5hPa | 2.7V | 18:12:15 | 01:48:09 | 00:00:00 | |
| HSKMA3-T | 2026-08-31 12:17:47 | 49.20599 | 10.24052 | 205° | 26km/h | 30638m | -22.4m/s | -42.2°C | 0% | 11.4hPa | 2.6V | 18:12:15 | 01:48:08 | 00:00:00 | |
| DF8AY | 2026-08-31 12:17:45 | 49.20618 | 10.24058 | 176° | 18km/h | 30715m | -30.5m/s | -41.9°C | 0% | 11.2hPa | 2.7V | 18:12:15 | 01:48:05 | 00:00:00 | |
| DO3MHA-12 | 2026-08-31 12:17:45 | 49.20612 | 10.24057 | 188° | 27km/h | 30687m | -25.8m/s | -42.0°C | 2.7% | 11.2hPa | 2.6V | 00:00:00 | 01:48:06 | 00:00:00 | |
| DL1XH1-15 | 2026-08-31 12:17:43 | 49.20614 | 10.24022 | 46° | 46km/h | 30878m | -30.9m/s | -41.2°C | 2.4% | 11hPa | 2.6V | 08:30:00 | 01:47:59 | 00:00:00 | |
| DL1XH-west | 2026-08-31 12:17:43 | 49.20622 | 10.24056 | 158° | 16km/h | 30745m | -29.9m/s | -41.8°C | 0% | 11.2hPa | 2.7V | 18:12:15 | 01:48:04 | 00:00:00 | |
| OE5DRO-10 | 2026-08-31 12:17:43 | 49.20622 | 10.24056 | 159° | 33km/h | 30745m | -29.8m/s | -41.8°C | 2.6% | 11.2hPa | 2.7V | 00:00:00 | 00:00:00 | 00:00:00 | |
| DG9SBQ-11 | 2026-08-31 12:17:42 | 49.20622 | 10.24056 | 159° | 16km/h | 30745m | -29.9m/s | -41.8°C | 0.6% | 11.2hPa | 2.7V | 00:00:00 | 00:00:00 | 00:00:00 | |
| DM0DOS-11 | 2026-08-31 12:17:41 | 49.20626 | 10.24042 | 62° | 24km/h | 30823m | -24.9m/s | -41.5°C | 2.4% | 11.1hPa | 2.7V | 08:30:00 | 01:48:01 | 00:00:00 | |
| DK7TD | 2026-08-31 12:17:39 | 49.20621 | 10.24033 | 47° | 37km/h | 30849m | -27.2m/s | -41.3°C | 0% | 11hPa | 2.7V | 18:12:15 | 01:48:00 | 00:00:00 | |
| HSKMA3-T | 2026-08-31 12:17:37 | 49.20606 | 10.24009 | 45° | 46km/h | 30909m | -31.2m/s | -41.1°C | 0% | 10.9hPa | 2.6V | 18:12:15 | 01:47:58 | 00:00:00 | |
| DL1XH-west | 2026-08-31 12:17:32 | 49.20535 | 10.23900 | 42° | 38km/h | 31083m | 6.7m/s | -41.5°C | 0% | 10.6hPa | 2.7V | 18:12:15 | 01:47:48 | 00:00:00 | |
| DM0DOS-11 | 2026-08-31 12:17:31 | 49.20558 | 10.23932 | 46° | 40km/h | 31102m | 1.1m/s | -41.3°C | 2.5% | 10.6hPa | 2.6V | 08:30:00 | 01:47:51 | 00:00:00 | |
| DL1XH1-15 | 2026-08-31 12:17:30 | 49.20542 | 10.23911 | 44° | 42km/h | 31089m | 5.8m/s | -41.5°C | 2.5% | 10.6hPa | 2.7V | 08:30:00 | 01:47:49 | 00:00:00 | |
| DK7TD | 2026-08-31 12:17:29 | 49.20542 | 10.23911 | 44° | 42km/h | 31089m | 5.8m/s | -41.5°C | 0% | 10.6hPa | 2.7V | 18:12:15 | 01:47:49 | 00:00:00 | |
| IW2NTF | 2026-08-31 12:17:27 | 49.20505 | 10.23864 | 44° | 26km/h | 31052m | 6m/s | -41.4°C | 2.5% | 10.7hPa | 2.7V | 08:30:00 | 01:47:43 | 00:00:00 | |
| HSKMA3-T | 2026-08-31 12:17:26 | 49.20528 | 10.23891 | 37° | 35km/h | 31076m | 6.2m/s | -41.5°C | 0% | 10.6hPa | 2.6V | 18:12:15 | 01:47:47 | 00:00:00 | |
| DF8AY | 2026-08-31 12:17:23 | 49.20491 | 10.23842 | 45° | 15km/h | 31026m | 6.1m/s | -41.2°C | 0% | 10.7hPa | 2.6V | 18:12:15 | 01:47:39 | 00:00:00 | |
| DL1NUX | 2026-08-31 12:17:22 | 49.20494 | 10.23846 | 46° | 16km/h | 31033m | 7.4m/s | -41.2°C | 2.5% | 10.7hPa | 2.6V | 08:30:00 | 01:47:40 | 00:00:00 | |
| DL1XH-west | 2026-08-31 12:17:22 | 49.20505 | 10.23864 | 44° | 26km/h | 31052m | 6m/s | -41.4°C | 0% | 10.7hPa | 2.7V | 18:12:15 | 01:47:43 | 00:00:00 | |
| DB0UT-7 | 2026-08-31 12:17:22 | 49.20505 | 10.23864 | 45° | 20km/h | 31052m | 5.9m/s | -41.4°C | 2.5% | 10.6hPa | 2.6V | 00:00:00 | 01:47:43 | 00:00:00 | |
| DM0DOS-11 | 2026-08-31 12:17:21 | 49.20491 | 10.23842 | 44° | 15km/h | 31026m | 6.1m/s | -41.2°C | 2.4% | 10.7hPa | 2.6V | 08:30:00 | 01:47:39 | 00:00:00 | |
| DK7TD | 2026-08-31 12:17:17 | 49.20488 | 10.23838 | 45° | 16km/h | 31020m | 5.2m/s | -41.1°C | 0% | 10.7hPa | 2.7V | 18:12:15 | 01:47:38 | 00:00:00 | |
| HSKMA3-T | 2026-08-31 12:17:16 | 49.20485 | 10.23833 | 47° | 22km/h | 31015m | 5.5m/s | -41.2°C | 0% | 10.7hPa | 2.7V | 18:12:15 | 01:47:37 | 00:00:00 | |
| DO9LL-15 | 2026-08-31 12:17:16 | 49.20485 | 10.23833 | 47° | 15km/h | 31015m | 5.4m/s | 0°C | 0% | 0hPa | 2.7V | 00:00:00 | 01:47:37 | 00:00:00 | |
| DO3MHA-12 | 2026-08-31 12:17:15 | 49.20481 | 10.23826 | 50° | 26km/h | 31009m | 7.2m/s | -41.1°C | 2.4% | 10.7hPa | 2.7V | 00:00:00 | 01:47:36 | 08:30:00 | |
| DL0LBS | 2026-08-31 12:17:14 | 49.20481 | 10.23826 | 51° | 27km/h | 31009m | 7.2m/s | -41.2°C | 0.6% | 10.7hPa | 2.6V | 00:00:00 | 00:00:00 | 00:00:00 | |
| DL1NUX | 2026-08-31 12:17:14 | 49.20452 | 10.23772 | 46° | 18km/h | 30972m | 5.6m/s | -41.1°C | 2.4% | 10.8hPa | 2.7V | 08:30:00 | 01:47:30 | 00:00:00 | |
| DL1XH1-15 | 2026-08-31 12:17:13 | 49.20449 | 10.23767 | 40° | 16km/h | 30966m | 5.8m/s | -41.1°C | 2.5% | 10.8hPa | 2.6V | 08:30:00 | 01:47:29 | 00:00:00 | |
| DL1XH-west | 2026-08-31 12:17:11 | 49.20460 | 10.23785 | 51° | 29km/h | 30984m | 6.9m/s | -41.1°C | 0% | 10.8hPa | 2.7V | 18:12:15 | 01:47:32 | 00:00:00 | |
| PETON7-10 | 2026-08-31 12:17:10 | 49.20456 | 10.23777 | 51° | 18km/h | 30978m | 5.9m/s | -41.0°C | 2.4% | 10.7hPa | 2.7V | 00:00:00 | 00:00:00 | 00:00:00 | |
| DM0DOS-11 | 2026-08-31 12:17:09 | 49.20437 | 10.23758 | 19° | 22km/h | 30947m | 6.2m/s | -41.3°C | 2.4% | 10.8hPa | 2.7V | 08:30:00 | 01:47:26 | 00:00:00 | |
| BIOWL1-15 | 2026-08-31 12:17:09 | 49.20452 | 10.23772 | 47° | 18km/h | 30972m | 5.6m/s | -41.1°C | 0% | 10.8hPa | 2.7V | 18:12:15 | 01:47:30 | 00:00:00 | |
| DK7TD | 2026-08-31 12:17:06 | 49.20442 | 10.23761 | 23° | 18km/h | 30953m | 6.4m/s | -41.2°C | 0% | 10.8hPa | 2.6V | 18:12:15 | 01:47:27 | 00:00:00 | |
| HSKMA3-T | 2026-08-31 12:17:05 | 49.20437 | 10.23758 | 19° | 22km/h | 30947m | 6.2m/s | -41.3°C | 0% | 10.8hPa | 2.7V | 18:12:15 | 01:47:26 | 00:00:00 | |
| DL1XH-west | 2026-08-31 12:17:00 | 49.20416 | 10.23749 | 32° | 11km/h | 30916m | 5.8m/s | -41.2°C | 0% | 10.9hPa | 2.6V | 18:12:15 | 01:47:21 | 00:00:00 | |
| DM0DOS-11 | 2026-08-31 12:16:59 | 49.20404 | 10.23725 | 62° | 16km/h | 30885m | 6.2m/s | -41.4°C | 2.4% | 10.9hPa | 2.7V | 08:30:00 | 01:47:16 | 00:00:00 | |
| BIOWL1-15 | 2026-08-31 12:16:59 | 49.20409 | 10.23737 | 54° | 20km/h | 30896m | 5.6m/s | -41.3°C | 0% | 10.9hPa | 2.6V | 18:12:15 | 01:47:18 | 00:00:00 | |
| DK7TD | 2026-08-31 12:16:56 | 49.20406 | 10.23730 | 58° | 18km/h | 30891m | 5.3m/s | -41.3°C | 0% | 10.9hPa | 2.6V | 18:12:15 | 01:47:17 | 00:00:00 | |
| HSKMA3-T | 2026-08-31 12:16:55 | 49.20404 | 10.23725 | 62° | 16km/h | 30885m | 6.2m/s | -41.4°C | 0% | 10.9hPa | 2.7V | 18:12:15 | 01:47:16 | 00:00:00 | |
| DL1XH-west | 2026-08-31 12:16:49 | 49.20394 | 10.23707 | 37° | 15km/h | 30841m | 4.9m/s | -41.4°C | 0% | 11hPa | 2.6V | 18:12:15 | 01:47:09 | 00:00:00 | |
| DM0DOS-11 | 2026-08-31 12:16:49 | 49.20390 | 10.23693 | 94° | 16km/h | 30822m | 6.1m/s | -41.5°C | 2.5% | 11hPa | 2.6V | 08:30:00 | 01:47:06 | 00:00:00 | |
| DJ2DS-15 | 2026-08-31 12:16:49 | 49.20394 | 10.23707 | 37° | 13km/h | 30841m | 4.9m/s | -41.4°C | 0.6% | 11.0hPa | 2.6V | 00:00:00 | 00:00:00 | 00:00:00 | |
| DL1NUX | 2026-08-31 12:16:48 | 49.20391 | 10.23680 | 97° | 18km/h | 30810m | 6.2m/s | -41.6°C | 2.5% | 11hPa | 2.6V | 08:30:00 | 01:47:04 | 00:00:00 | |
| DL1XH1-15 | 2026-08-31 12:16:48 | 49.20392 | 10.23704 | 54° | 15km/h | 30835m | 5.8m/s | -41.4°C | 2.4% | 11hPa | 2.7V | 08:30:00 | 01:47:08 | 00:00:00 | |
| DF8AY | 2026-08-31 12:16:47 | 49.20386 | 10.23653 | 63° | 9km/h | 30779m | 7.4m/s | -41.7°C | 0% | 11.1hPa | 2.6V | 18:12:15 | 01:46:59 | 00:00:00 | |
| HSKMA3-T | 2026-08-31 12:16:45 | 49.20390 | 10.23693 | 95° | 16km/h | 30822m | 6.1m/s | -41.5°C | 0% | 11.1hPa | 2.6V | 18:12:15 | 01:47:06 | 00:00:00 | |
| BIOWL1-15 | 2026-08-31 12:16:43 | 49.20391 | 10.23680 | 98° | 18km/h | 30810m | 6.2m/s | -41.6°C | 0% | 11.1hPa | 2.6V | 18:12:15 | 01:47:04 | 00:00:00 | |
| DL1XH1-15 | 2026-08-31 12:16:42 | 49.20385 | 10.23650 | 71° | 5km/h | 30772m | 6.2m/s | -41.8°C | 2.5% | 11.1hPa | 2.6V | 08:30:00 | 01:46:58 | 00:00:00 | |
| DF8AY | 2026-08-31 12:16:41 | 49.20385 | 10.23648 | 62° | 5km/h | 30766m | 5.9m/s | -41.9°C | 0% | 11.1hPa | 2.7V | 18:12:15 | 01:46:57 | 00:00:00 | |
| DL1XH-west | 2026-08-31 12:16:39 | 49.20385 | 10.23650 | 72° | 5km/h | 30772m | 6.2m/s | -41.8°C | 0% | 11.2hPa | 2.6V | 18:12:15 | 01:46:58 | 00:00:00 | |
| DO3MHA-11 | 2026-08-31 12:16:39 | 49.20387 | 10.23656 | 61° | 13km/h | 30786m | 6.0m/s | -41.6°C | 2.5% | 11.0hPa | 2.6V | 00:00:00 | 01:47:00 | 08:30:00 | |
| DO9HM | 2026-08-31 12:16:38 | 49.20387 | 10.23656 | 61° | 13km/h | 30786m | 6.1m/s | -41.7°C | 0.6% | 11.1hPa | 2.7V | 00:00:00 | 00:00:00 | 00:00:00 | |
| DM0DOS-11 | 2026-08-31 12:16:37 | 49.20384 | 10.23646 | 53° | 7km/h | 30759m | 7.3m/s | -42°C | 2.5% | 11.2hPa | 2.7V | 08:30:00 | 01:46:56 | 00:00:00 | |
| IW2NTF | 2026-08-31 12:16:35 | 49.20382 | 10.23643 | 53° | 13km/h | 30752m | 6.3m/s | -42°C | 2.5% | 11.2hPa | 2.7V | 08:30:00 | 01:46:55 | 00:00:00 | |
| DK7TD | 2026-08-31 12:16:35 | 49.20384 | 10.23646 | 54° | 7km/h | 30760m | 7.3m/s | -42°C | 0% | 11.2hPa | 2.7V | 18:12:15 | 01:46:56 | 00:00:00 | |
| HSKMA3-T | 2026-08-31 12:16:35 | 49.20382 | 10.23643 | 54° | 13km/h | 30752m | 6.3m/s | -42°C | 0% | 11.2hPa | 2.7V | 18:12:15 | 01:46:55 | 00:00:00 | |
| DL1NUX | 2026-08-31 12:16:34 | 49.20381 | 10.23612 | 109° | 22km/h | 30722m | 5.4m/s | -42°C | 2.5% | 11.2hPa | 2.7V | 08:30:00 | 01:46:50 | 00:00:00 | |
| BIOWL1-15 | 2026-08-31 12:16:31 | 49.20379 | 10.23627 | 91° | 16km/h | 30735m | 7.3m/s | -41.9°C | 0% | 11.2hPa | 2.6V | 18:12:15 | 01:46:52 | 00:00:00 | |
| DM0DOS-11 | 2026-08-31 12:16:30 | 49.20378 | 10.23571 | 59° | 22km/h | 30692m | 5.5m/s | -41.9°C | 2.5% | 11.3hPa | 2.7V | 08:30:00 | 01:46:45 | 00:00:00 | |
| DL1XH-west | 2026-08-31 12:16:28 | 49.20382 | 10.23587 | 75° | 24km/h | 30704m | 6.7m/s | -42°C | 0% | 11.2hPa | 2.6V | 18:12:15 | 01:46:47 | 00:00:00 | |
| DF8AY | 2026-08-31 12:16:26 | 49.20380 | 10.23579 | 64° | 24km/h | 30697m | 6.2m/s | -41.9°C | 0% | 11.2hPa | 2.6V | 18:12:15 | 01:46:46 | 00:00:00 | |
| HSKMA3-T | 2026-08-31 12:16:24 | 49.20378 | 10.23571 | 59° | 22km/h | 30692m | 5.5m/s | -41.9°C | 0% | 11.3hPa | 2.7V | 18:12:15 | 01:46:45 | 00:00:00 | |
| OE5DXL-15 | 2026-08-31 12:16:24 | 49.20377 | 10.23571 | 60° | 26km/h | 30692m | 5.4m/s | -41.9°C | 2.5% | 11.2hPa | 2.6V | 00:00:00 | 00:00:00 | 00:00:00 | |
| DH7VM-15 | 2026-08-31 12:16:23 | 49.20378 | 10.23571 | 60° | 22km/h | 30692m | 5.5m/s | -41.9°C | 0.6% | 11.3hPa | 2.6V | 00:00:00 | 00:00:00 | 00:00:00 | |
| DL1NUX | 2026-08-31 12:16:22 | 49.20372 | 10.23545 | 83° | 13km/h | 30660m | 6.9m/s | -42.1°C | 2.5% | 11.3hPa | 2.6V | 08:30:00 | 01:46:40 | 00:00:00 | |
| BIOWL1-15 | 2026-08-31 12:16:21 | 49.20372 | 10.23553 | 82° | 11km/h | 30672m | 5.9m/s | -41.9°C | 0% | 11.3hPa | 2.6V | 18:12:15 | 01:46:42 | 00:00:00 | |
| DB0NH | 2026-08-31 12:16:20 | 49.20372 | 10.23549 | 87° | 26km/h | 30667m | 6.0m/s | -41.9°C | 2.5% | 11.3hPa | 2.7V | 00:00:00 | 01:46:41 | 00:00:00 | |
| DG9SBQ-11 | 2026-08-31 12:16:19 | 49.20372 | 10.23549 | 87° | 11km/h | 30667m | 6.1m/s | -42.0°C | 0.6% | 11.3hPa | 2.7V | 00:00:00 | 00:00:00 | 00:00:00 | |
| DL1XH1-15 | 2026-08-31 12:16:18 | 49.20371 | 10.23533 | 88° | 18km/h | 30647m | 6.1m/s | -42.2°C | 2.5% | 11.3hPa | 2.7V | 08:30:00 | 01:46:38 | 00:00:00 | |
| SONCRA | 2026-08-31 12:16:18 | 49.20371 | 10.23533 | 88° | 16km/h | 30647m | 6.1m/s | -42.2°C | 0.6% | 11.3hPa | 2.7V | 00:00:00 | 00:00:00 | 00:00:00 | |
| DM0DOS-11 | 2026-08-31 12:16:17 | 49.20374 | 10.23506 | 101° | 29km/h | 30627m | 5.5m/s | -42.3°C | 2.6% | 11.4hPa | 2.7V | 08:30:00 | 01:46:35 | 00:00:00 | |
| DL1XH-west | 2026-08-31 12:16:16 | 49.20375 | 10.23482 | 88° | 33km/h | 30616m | 6.9m/s | -42.3°C | 0% | 11.4hPa | 2.6V | 18:12:15 | 01:46:33 | 00:00:00 | |
| EDDB2-11 | 2026-08-31 12:16:16 | 49.20372 | 10.23526 | 96° | 20km/h | 30641m | 7.1m/s | -42.3°C | 0.6% | 11.3hPa | 2.7V | 00:00:00 | 00:00:00 | 00:00:00 | |
| IW2NTF | 2026-08-31 12:16:15 | 49.20369 | 10.23446 | 67° | 29km/h | 30597m | 5.2m/s | -42.4°C | 2.6% | 11.4hPa | 2.7V | 08:30:00 | 01:46:30 | 00:00:00 | |
| DK7TD | 2026-08-31 12:16:13 | 49.20375 | 10.23495 | 95° | 31km/h | 30622m | 5.2m/s | -42.3°C | 0% | 11.4hPa | 2.7V | 18:12:15 | 01:46:34 | 00:00:00 | |
| BIOWL1-15 | 2026-08-31 12:16:13 | 49.20374 | 10.23469 | 78° | 35km/h | 30609m | 7.2m/s | -42.3°C | 0% | 11.4hPa | 2.6V | 18:12:15 | 01:46:32 | 00:00:00 | |
| DK7TD | 2026-08-31 12:16:03 | 49.20373 | 10.23411 | 114° | 15km/h | 30559m | 6.7m/s | -42.5°C | 0% | 11.5hPa | 2.6V | 18:12:15 | 01:46:24 | 00:00:00 | |
| DL1XH-west | 2026-08-31 12:16:02 | 49.20374 | 10.23396 | 86° | 27km/h | 30546m | 6.5m/s | -42.5°C | 0% | 11.6hPa | 2.7V | 18:12:15 | 01:46:22 | 00:00:00 | |
| BIOWL1-15 | 2026-08-31 12:16:01 | 49.20352 | 10.23266 | 137° | 11km/h | 30470m | 4.6m/s | -42.7°C | 0% | 11.7hPa | 2.7V | 18:12:15 | 01:46:10 | 00:00:00 | |
| DF8AY | 2026-08-31 12:15:56 | 49.20369 | 10.23320 | 77° | 46km/h | 30515m | 5.5m/s | -42.5°C | 0% | 11.6hPa | 2.6V | 18:12:15 | 01:46:17 | 00:00:00 | |
| DM0DOS-11 | 2026-08-31 12:15:55 | 49.20351 | 10.23268 | 122° | 5km/h | 30476m | 7m/s | -42.7°C | 2.6% | 11.6hPa | 2.6V | 08:30:00 | 01:46:11 | 00:00:00 | |
| DK7TD | 2026-08-31 12:15:52 | 49.20353 | 10.23274 | 46° | 18km/h | 30491m | 6.6m/s | -42.7°C | 0% | 11.6hPa | 2.6V | 18:12:15 | 01:46:13 | 00:00:00 | |
| DL1XH1-15 | 2026-08-31 12:15:52 | 49.20355 | 10.23255 | 95° | 22km/h | 30461m | 6.1m/s | -42.8°C | 2.7% | 11.7hPa | 2.7V | 08:30:00 | 01:46:08 | 00:00:00 | |
| BIOWL1-15 | 2026-08-31 12:15:52 | 49.20354 | 10.23262 | 115° | 15km/h | 30466m | 3.6m/s | -42.7°C | 0% | 11.7hPa | 2.7V | 18:12:15 | 01:46:09 | 00:00:00 | |
| DL1XH-west | 2026-08-31 12:15:51 | 49.20351 | 10.23270 | 51° | 9km/h | 30483m | 8.1m/s | -42.7°C | 0% | 11.6hPa | 2.6V | 18:12:15 | 01:46:12 | 00:00:00 | |
| DL9SK-14 | 2026-08-31 12:15:48 | 49.20355 | 10.23255 | 95° | 20km/h | 30461m | 6.1m/s | -42.8°C | 0.6% | 11.7hPa | 2.6V | 00:00:00 | 00:00:00 | 00:00:00 | |
| SONCRA | 2026-08-31 12:15:47 | 49.20354 | 10.23245 | 79° | 31km/h | 30455m | 7.2m/s | -42.9°C | 0.6% | 11.7hPa | 2.6V | 00:00:00 | 00:00:00 | 00:00:00 | |
| DF8AY | 2026-08-31 12:15:46 | 49.20312 | 10.23099 | 101° | 11km/h | 30370m | 4.7m/s | -43°C | 0% | 11.8hPa | 2.6V | 18:12:15 | 01:45:54 | 00:00:00 | |
| DF8AY-15 | 2026-08-31 12:15:46 | 49.20354 | 10.23245 | 80° | 31km/h | 30455m | 7.2m/s | -42.8°C | 2.6% | 11.6hPa | 2.6V | 00:00:00 | 01:46:07 | 00:00:00 | |
| DO3MHA-12 | 2026-08-31 12:15:45 | 49.20352 | 10.23230 | 72° | 40km/h | 30447m | 7.2m/s | -42.9°C | 2.6% | 11.6hPa | 2.6V | 00:00:00 | 01:46:06 | 08:30:00 | |
| DM0DOS-11 | 2026-08-31 12:15:44 | 49.20329 | 10.23136 | 69° | 42km/h | 30415m | 5.2m/s | -42.8°C | 2.5% | 11.7hPa | 2.6V | 08:30:00 | 01:46:01 | 00:00:00 | |
| HSKMA3-T | 2026-08-31 12:15:42 | 49.20337 | 10.23172 | 70° | 57km/h | 30426m | 6.1m/s | -43°C | 0% | 11.7hPa | 2.7V | 18:12:15 | 01:46:03 | 00:00:00 | |
| DL1XH1-15 | 2026-08-31 12:15:42 | 49.20317 | 10.23107 | 38° | 16km/h | 30395m | 7m/s | -43°C | 2.6% | 11.8hPa | 2.6V | 08:30:00 | 01:45:58 | 00:00:00 | |
| DK7TD | 2026-08-31 12:15:41 | 49.20333 | 10.23153 | 70° | 51km/h | 30421m | 5m/s | -42.9°C | 0% | 11.7hPa | 2.6V | 18:12:15 | 01:46:02 | 00:00:00 | |
| DL1XH-west | 2026-08-31 12:15:41 | 49.20329 | 10.23136 | 70° | 42km/h | 30415m | 5.2m/s | -42.8°C | 0% | 11.7hPa | 2.6V | 18:12:15 | 01:46:01 | 00:00:00 | |
| PETON7-10 | 2026-08-31 12:15:40 | 49.20329 | 10.23136 | 70° | 27km/h | 30416m | 5.2m/s | -42.8°C | 2.5% | 11.7hPa | 2.7V | 00:00:00 | 00:00:00 | 00:00:00 | |
| DO3MHA-11 | 2026-08-31 12:15:39 | 49.20325 | 10.23122 | 65° | 20km/h | 30410m | 6.5m/s | -42.8°C | 2.5% | 11.7hPa | 2.7V | 00:00:00 | 01:46:00 | 00:00:00 | |
| DG9SBQ-11 | 2026-08-31 12:15:37 | 49.20321 | 10.23112 | 56° | 26km/h | 30403m | 7.9m/s | -42.9°C | 0.6% | 11.8hPa | 2.7V | 00:00:00 | 00:00:00 | 00:00:00 | |
| DO3MHA-12 | 2026-08-31 12:15:35 | 49.20313 | 10.23103 | 18° | 33km/h | 30382m | 6.5m/s | -43.0°C | 2.6% | 11.7hPa | 2.7V | 00:00:00 | 01:45:56 | 00:00:00 | |
| DM0DOS-11 | 2026-08-31 12:15:34 | 49.20308 | 10.23070 | 66° | 40km/h | 30352m | 8.2m/s | -43.3°C | 2.7% | 11.9hPa | 2.7V | 08:30:00 | 01:45:51 | 00:00:00 | |
| BIOWL1-15 | 2026-08-31 12:15:32 | 49.20254 | 10.22946 | 73° | 26km/h | 30265m | 7.1m/s | -43.8°C | 0% | 12hPa | 2.7V | 18:12:15 | 01:45:37 | 00:00:00 | |
| DL1XH1-15 | 2026-08-31 12:15:32 | 49.20289 | 10.23019 | 57° | 57km/h | 30333m | 5m/s | -43.4°C | 2.6% | 11.9hPa | 2.6V | 08:30:00 | 01:45:48 | 00:00:00 | |
| DK7TD | 2026-08-31 12:15:31 | 49.20311 | 10.23083 | 76° | 29km/h | 30360m | 6.8m/s | -43.3°C | 0% | 11.9hPa | 2.6V | 18:12:15 | 01:45:52 | 00:00:00 | |
| DL1XH-west | 2026-08-31 12:15:31 | 49.20308 | 10.23070 | 67° | 40km/h | 30352m | 8.2m/s | -43.3°C | 0% | 11.9hPa | 2.7V | 18:12:15 | 01:45:51 | 00:00:00 | |
| DJ2DS-15 | 2026-08-31 12:15:31 | 49.20311 | 10.23083 | 76° | 31km/h | 30360m | 6.8m/s | -43.2°C | 2.7% | 11.8hPa | 2.6V | 00:00:00 | 01:45:52 | 00:00:00 | |
| OE5DRO-10 | 2026-08-31 12:15:30 | 49.20308 | 10.23070 | 67° | 31km/h | 30353m | 8.2m/s | -43.2°C | 2.7% | 11.8hPa | 2.6V | 00:00:00 | 00:00:00 | 00:00:00 | |
| DF3TZ-5 | 2026-08-31 12:15:29 | 49.20303 | 10.23055 | 60° | 49km/h | 30345m | 7.0m/s | -43.3°C | 0.6% | 11.9hPa | 2.6V | 00:00:00 | 00:00:00 | 00:00:00 | |
| SONDE2-11 | 2026-08-31 12:15:28 | 49.20296 | 10.23037 | 57° | 55km/h | 30338m | 5.6m/s | -43.4°C | 0.6% | 11.9hPa | 2.6V | 00:00:00 | 00:00:00 | 00:00:00 | |
| DO3MHA-12 | 2026-08-31 12:15:25 | 49.20276 | 10.22985 | 64° | 18km/h | 30322m | 5.7m/s | -43.3°C | 2.6% | 11.9hPa | 2.6V | 00:00:00 | 01:45:46 | 00:00:00 | |
| OE5DXL-15 | 2026-08-31 12:15:24 | 49.20273 | 10.22973 | 68° | 24km/h | 30316m | 5.6m/s | -43.3°C | 2.6% | 11.9hPa | 2.6V | 00:00:00 | 00:00:00 | 00:00:00 | |
| DL1XH1-15 | 2026-08-31 12:15:22 | 49.20252 | 10.22935 | 77° | 33km/h | 30258m | 6.1m/s | -43.8°C | 2.7% | 12hPa | 2.6V | 08:30:00 | 01:45:36 | 00:00:00 | |
| DM0DOS-11 | 2026-08-31 12:15:22 | 49.20261 | 10.22959 | 1° | 13km/h | 30282m | 4.8m/s | -43.6°C | 2.7% | 12hPa | 2.6V | 08:30:00 | 01:45:40 | 00:00:00 | |
| HSKMA3-T | 2026-08-31 12:15:21 | 49.20261 | 10.22959 | 2° | 13km/h | 30282m | 4.8m/s | -43.6°C | 0% | 12hPa | 2.6V | 18:12:15 | 01:45:40 | 00:00:00 | |
| DL1XH-west | 2026-08-31 12:15:21 | 49.20258 | 10.22958 | 31° | 13km/h | 30278m | 4.8m/s | -43.6°C | 0% | 12hPa | 2.7V | 18:12:15 | 01:45:39 | 00:00:00 | |
| DF8AY | 2026-08-31 12:15:20 | 49.20256 | 10.22954 | 56° | 16km/h | 30272m | 7.1m/s | -43.7°C | 0% | 12hPa | 2.7V | 18:12:15 | 01:45:38 | 00:00:00 | |
| DK7TD | 2026-08-31 12:15:20 | 49.20264 | 10.22959 | 348° | 11km/h | 30288m | 5.8m/s | -43.7°C | 0% | 12hPa | 2.6V | 18:12:15 | 01:45:41 | 00:00:00 | |
| BIOWL1-15 | 2026-08-31 12:15:19 | 49.20250 | 10.22922 | 75° | 38km/h | 30252m | 5.4m/s | -43.7°C | 0% | 12hPa | 2.6V | 18:12:15 | 01:45:35 | 00:00:00 | |
| DO3MHA-11 | 2026-08-31 12:15:19 | 49.20261 | 10.22959 | 2° | 27km/h | 30283m | 4.8m/s | -43.6°C | 2.7% | 11.9hPa | 2.6V | 00:00:00 | 01:45:40 | 00:00:00 | |
| DL9SK-14 | 2026-08-31 12:15:18 | 49.20254 | 10.22946 | 72° | 24km/h | 30265m | 7.1m/s | -43.8°C | 0.6% | 12.0hPa | 2.6V | 00:00:00 | 00:00:00 | 00:00:00 | |
| DM0DOS-11 | 2026-08-31 12:15:16 | 49.20227 | 10.22874 | 20° | 18km/h | 30222m | 6.6m/s | -44.1°C | 2.8% | 12.1hPa | 2.6V | 08:30:00 | 01:45:30 | 00:00:00 | |
| IW2NTF | 2026-08-31 12:15:16 | 49.20247 | 10.22908 | 68° | 38km/h | 30247m | 5.8m/s | -43.7°C | 2.7% | 12hPa | 2.6V | 08:30:00 | 01:45:34 | 00:00:00 | |
| HSKMA3-T | 2026-08-31 12:15:11 | 49.20237 | 10.22885 | 47° | 31km/h | 30235m | 5.7m/s | -43.8°C | 0% | 12.1hPa | 2.7V | 18:12:15 | 01:45:32 | 00:00:00 | |
| DK7TD | 2026-08-31 12:15:10 | 49.20232 | 10.22877 | 32° | 26km/h | 30229m | 6.1m/s | -43.9°C | 0% | 12.1hPa | 2.6V | 18:12:15 | 01:45:31 | 00:00:00 | |
| BIOWL1-15 | 2026-08-31 12:15:08 | 49.20218 | 10.22869 | 38° | 9km/h | 30204m | 5.2m/s | -44.3°C | 0% | 12.1hPa | 2.6V | 18:12:15 | 01:45:27 | 00:00:00 | |
| DL1XH1-15 | 2026-08-31 12:15:08 | 49.20220 | 10.22871 | 16° | 9km/h | 30210m | 5.7m/s | -44.2°C | 2.8% | 12.1hPa | 2.7V | 08:30:00 | 01:45:28 | 00:00:00 | |
| DF8AY | 2026-08-31 12:15:08 | 49.20220 | 10.22871 | 16° | 9km/h | 30210m | 5.7m/s | -44.2°C | 0% | 12.1hPa | 2.7V | 18:12:15 | 01:45:28 | 00:00:00 | |
| S52SK | 2026-08-31 12:15:07 | 49.20223 | 10.22872 | 10° | 13km/h | 30216m | 6.5m/s | -44.2°C | 0.6% | 12.1hPa | 2.7V | 00:00:00 | 00:00:00 | 00:00:00 | |
| DH7VM-15 | 2026-08-31 12:15:06 | 49.20220 | 10.22871 | 17° | 9km/h | 30210m | 5.7m/s | -44.2°C | 0.6% | 12.1hPa | 2.7V | 00:00:00 | 00:00:00 | 00:00:00 | |
| IW2NTF | 2026-08-31 12:15:04 | 49.20209 | 10.22854 | 47° | 27km/h | 30186m | 7.2m/s | -44.3°C | 2.8% | 12.2hPa | 2.7V | 08:30:00 | 01:45:24 | 00:00:00 | |
| DM0DOS-11 | 2026-08-31 12:15:04 | 49.20187 | 10.22813 | 59° | 35km/h | 30161m | 7.2m/s | -44.2°C | 2.8% | 12.2hPa | 2.7V | 08:30:00 | 01:45:20 | 00:00:00 | |
| DL1XH1-15 | 2026-08-31 12:15:02 | 49.20181 | 10.22790 | 70° | 27km/h | 30148m | 5.7m/s | -44.1°C | 2.7% | 12.2hPa | 2.7V | 08:30:00 | 01:45:18 | 00:00:00 | |
| HSKMA3-T | 2026-08-31 12:15:01 | 49.20198 | 10.22836 | 50° | 37km/h | 30173m | 5.5m/s | -44.4°C | 0% | 12.2hPa | 2.6V | 18:12:15 | 01:45:22 | 00:00:00 | |
| DK7TD | 2026-08-31 12:14:59 | 49.20187 | 10.22813 | 60° | 35km/h | 30161m | 7.2m/s | -44.2°C | 0% | 12.2hPa | 2.7V | 18:12:15 | 01:45:20 | 00:00:00 | |
| BIOWL1-15 | 2026-08-31 12:14:55 | 49.20176 | 10.22774 | 53° | 20km/h | 30136m | 7m/s | -44.2°C | 0% | 12.2hPa | 2.6V | 18:12:15 | 01:45:16 | 00:00:00 | |
| IW2NTF | 2026-08-31 12:14:54 | 49.20167 | 10.22765 | 16° | 24km/h | 30122m | 6.1m/s | -44.3°C | 2.8% | 12.3hPa | 2.7V | 08:30:00 | 01:45:14 | 00:00:00 | |
| DF8AY | 2026-08-31 12:14:54 | 49.20138 | 10.22737 | 62° | 22km/h | 30085m | 6.2m/s | -44.5°C | 0% | 12.3hPa | 2.7V | 18:12:15 | 01:45:08 | 00:00:00 | |
| DM0DOS-11 | 2026-08-31 12:14:54 | 49.20145 | 10.22751 | 46° | 22km/h | 30097m | 6.3m/s | -44.3°C | 2.8% | 12.3hPa | 2.6V | 08:30:00 | 01:45:10 | 00:00:00 | |
| OE5DXL-15 | 2026-08-31 12:14:54 | 49.20172 | 10.22769 | 31° | 20km/h | 30129m | 7.2m/s | -44.2°C | 2.8% | 12.2hPa | 2.7V | 00:00:00 | 00:00:00 | 00:00:00 | |
| DG9SBQ-11 | 2026-08-31 12:14:53 | 49.20172 | 10.22769 | 32° | 20km/h | 30129m | 7.3m/s | -44.3°C | 0.7% | 12.3hPa | 2.7V | 00:00:00 | 00:00:00 | 00:00:00 | |
| DL1XH1-15 | 2026-08-31 12:14:52 | 49.20139 | 10.22737 | 61° | 22km/h | 30085m | 6.2m/s | -44.5°C | 2.8% | 12.3hPa | 2.7V | 08:30:00 | 01:45:08 | 00:00:00 | |
| HSKMA3-T | 2026-08-31 12:14:52 | 49.20155 | 10.22760 | 20° | 26km/h | 30110m | 6.5m/s | -44.5°C | 0% | 12.3hPa | 2.7V | 18:12:15 | 01:45:12 | 00:00:00 | |
| DK7TD | 2026-08-31 12:14:49 | 49.20145 | 10.22751 | 47° | 22km/h | 30097m | 6.3m/s | -44.3°C | 0% | 12.3hPa | 2.6V | 18:12:15 | 01:45:10 | 00:00:00 | |
| BIOWL1-15 | 2026-08-31 12:14:45 | 49.20133 | 10.22722 | 57° | 20km/h | 30072m | 6.2m/s | -44.6°C | 0% | 12.4hPa | 2.6V | 18:12:15 | 01:45:06 | 00:00:00 | |
| IW2NTF | 2026-08-31 12:14:44 | 49.20129 | 10.22711 | 71° | 15km/h | 30059m | 6.8m/s | -44.5°C | 2.9% | 12.4hPa | 2.7V | 08:30:00 | 01:45:04 | 00:00:00 | |
| HSKMA3-T | 2026-08-31 12:14:40 | 49.20128 | 10.22692 | 88° | 16km/h | 30040m | 5.9m/s | -44.6°C | 0% | 12.4hPa | 2.6V | 18:12:15 | 01:45:01 | 00:00:00 | |
| DL1XH-west | 2026-08-31 12:14:39 | 49.20128 | 10.22686 | 73° | 16km/h | 30033m | 7.3m/s | -44.6°C | 0% | 12.4hPa | 2.7V | 18:12:15 | 01:45:00 | 00:00:00 | |
| DK7TD | 2026-08-31 12:14:36 | 49.20121 | 10.22669 | 58° | 20km/h | 30014m | 6.3m/s | -44.5°C | 0% | 12.5hPa | 2.6V | 18:12:15 | 01:44:57 | 00:00:00 | |
| DO9HM | 2026-08-31 12:14:36 | 49.20121 | 10.22669 | 59° | 20km/h | 30015m | 6.3m/s | -44.5°C | 0.7% | 12.5hPa | 2.6V | 00:00:00 | 00:00:00 | 00:00:00 | |
| DO3MHA-12 | 2026-08-31 12:14:35 | 49.20118 | 10.22662 | 66° | 20km/h | 30008m | 7.3m/s | -44.4°C | 2.9% | 12.4hPa | 2.6V | 00:00:00 | 01:44:56 | 00:00:00 | |
| DM0DOS-11 | 2026-08-31 12:14:34 | 49.20105 | 10.22628 | 27° | 22km/h | 29970m | 6m/s | -44.6°C | 2.8% | 12.6hPa | 2.6V | 08:30:00 | 01:44:50 | 00:00:00 | |
| DL1XH-west | 2026-08-31 12:14:29 | 49.20105 | 10.22628 | 27° | 22km/h | 29970m | 6m/s | -44.6°C | 0% | 12.6hPa | 2.6V | 18:12:15 | 01:44:50 | 00:00:00 | |
| BIOWL1-15 | 2026-08-31 12:14:25 | 49.20086 | 10.22598 | 76° | 24km/h | 29939m | 5.5m/s | -44.7°C | 0% | 12.6hPa | 2.6V | 18:12:15 | 01:44:45 | 00:00:00 | |
| IW2NTF | 2026-08-31 12:14:25 | 49.20085 | 10.22589 | 74° | 24km/h | 29934m | 5.3m/s | -44.5°C | 2.9% | 12.6hPa | 2.6V | 08:30:00 | 01:44:44 | 00:00:00 | |
| DM0DOS-11 | 2026-08-31 12:14:24 | 49.20071 | 10.22563 | 23° | 22km/h | 29908m | 5.8m/s | -44.6°C | 2.9% | 12.7hPa | 2.6V | 08:30:00 | 01:44:40 | 00:00:00 | |
| DK7TD | 2026-08-31 12:14:22 | 49.20083 | 10.22580 | 67° | 24km/h | 29928m | 6.7m/s | -44.5°C | 0% | 12.7hPa | 2.7V | 18:12:15 | 01:44:43 | 00:00:00 | |
| DB0UT-7 | 2026-08-31 12:14:22 | 49.20083 | 10.22580 | 68° | 16km/h | 29928m | 6.6m/s | -44.4°C | 2.8% | 12.6hPa | 2.7V | 00:00:00 | 01:44:43 | 00:00:00 | |
| DL1XH1-15 | 2026-08-31 12:14:21 | 49.20061 | 10.22557 | 24° | 18km/h | 29896m | 7.1m/s | -44.4°C | 2.9% | 12.7hPa | 2.7V | 08:30:00 | 01:44:38 | 00:00:00 | |
| HSKMA3-T | 2026-08-31 12:14:19 | 49.20071 | 10.22563 | 24° | 22km/h | 29908m | 5.8m/s | -44.6°C | 0% | 12.7hPa | 2.6V | 18:12:15 | 01:44:40 | 00:00:00 | |
| DL1XH-west | 2026-08-31 12:14:18 | 49.20066 | 10.22560 | 22° | 20km/h | 29902m | 6.1m/s | -44.6°C | 0% | 12.7hPa | 2.7V | 18:12:15 | 01:44:39 | 00:00:00 | |
| BIOWL1-15 | 2026-08-31 12:14:13 | 49.20044 | 10.22541 | 36° | 16km/h | 29864m | 5.4m/s | -44.5°C | 0% | 12.8hPa | 2.6V | 18:12:15 | 01:44:33 | 00:00:00 | |
| SONCRA | 2026-08-31 12:14:13 | 49.20048 | 10.22544 | 31° | 16km/h | 29870m | 6.6m/s | -44.6°C | 0.7% | 12.8hPa | 2.7V | 00:00:00 | 00:00:00 | 00:00:00 | |
| DM0DOS-11 | 2026-08-31 12:14:12 | 49.20036 | 10.22526 | 68° | 16km/h | 29844m | 6.3m/s | -44.5°C | 2.8% | 12.8hPa | 2.7V | 08:30:00 | 01:44:30 | 00:00:00 | |
| DK7TD | 2026-08-31 12:14:11 | 49.20041 | 10.22536 | 46° | 16km/h | 29858m | 6.1m/s | -44.5°C | 0% | 12.8hPa | 2.6V | 18:12:15 | 01:44:32 | 00:00:00 | |
| HSKMA3-T | 2026-08-31 12:14:09 | 49.20036 | 10.22526 | 68° | 16km/h | 29844m | 6.3m/s | -44.5°C | 0% | 12.8hPa | 2.7V | 18:12:15 | 01:44:30 | 00:00:00 | |
| DL1XH-west | 2026-08-31 12:14:08 | 49.20030 | 10.22513 | 28° | 13km/h | 29825m | 6.5m/s | -44.6°C | 0% | 12.8hPa | 2.6V | 18:12:15 | 01:44:27 | 00:00:00 | |
| OE5WHR-10 | 2026-08-31 12:14:08 | 49.20035 | 10.22520 | 63° | 13km/h | 29839m | 5.2m/s | -44.5°C | 2.8% | 12.8hPa | 2.7V | 00:00:00 | 00:00:00 | 00:00:00 | |
| IW2NTF | 2026-08-31 12:14:04 | 49.20023 | 10.22508 | 24° | 9km/h | 29806m | 6.5m/s | -44.7°C | 2.8% | 12.9hPa | 2.7V | 08:30:00 | 01:44:24 | 00:00:00 | |
| BIOWL1-15 | 2026-08-31 12:14:03 | 49.20023 | 10.22508 | 24° | 9km/h | 29806m | 6.5m/s | -44.7°C | 0% | 12.9hPa | 2.7V | 18:12:15 | 01:44:24 | 00:00:00 | |
| BIOWL9-15 | 2026-08-31 12:14:03 | 49.20019 | 10.22506 | 14° | 7km/h | 29796m | 4.8m/s | -44.8°C | 0.7% | 12.9hPa | 2.7V | 00:00:00 | 00:00:00 | 00:00:00 | |
| DL6DJ-15 | 2026-08-31 12:14:00 | 49.20014 | 10.22506 | 358° | 15km/h | 29784m | 6.9m/s | -45.0°C | 0.7% | 12.9hPa | 2.7V | 00:00:00 | 00:00:00 | 00:00:00 | |
| DO3MHA-11 | 2026-08-31 12:13:59 | 49.20014 | 10.22506 | 359° | 15km/h | 29784m | 6.9m/s | -44.9°C | 2.9% | 12.9hPa | 2.7V | 00:00:00 | 01:44:20 | 00:00:00 | |
| IW2NTF | 2026-08-31 12:13:58 | 49.19990 | 10.22498 | 57° | 9km/h | 29747m | 5m/s | -45.1°C | 2.9% | 13hPa | 2.7V | 08:30:00 | 01:44:14 | 00:00:00 | |
| HSKMA3-T | 2026-08-31 12:13:58 | 49.20009 | 10.22506 | 359° | 20km/h | 29777m | 6.3m/s | -45°C | 0% | 12.9hPa | 2.6V | 18:12:15 | 01:44:19 | 00:00:00 | |
| DL1XH-west | 2026-08-31 12:13:55 | 49.19995 | 10.22503 | 20° | 15km/h | 29759m | 7.2m/s | -44.9°C | 0% | 13hPa | 2.6V | 18:12:15 | 01:44:16 | 00:00:00 | |
| DO3MHA-12 | 2026-08-31 12:13:55 | 49.19995 | 10.22503 | 21° | 11km/h | 29760m | 7.1m/s | -44.8°C | 2.9% | 12.9hPa | 2.7V | 00:00:00 | 01:44:16 | 00:00:00 | |
| DM0DOS-11 | 2026-08-31 12:13:54 | 49.19978 | 10.22495 | 342° | 15km/h | 29718m | 5.6m/s | -45°C | 2.9% | 13.1hPa | 2.7V | 08:30:00 | 01:44:09 | 00:00:00 | |
| DF8AY | 2026-08-31 12:13:53 | 49.19989 | 10.22496 | 50° | 7km/h | 29742m | 5.6m/s | -45.2°C | 0% | 13hPa | 2.7V | 18:12:15 | 01:44:13 | 00:00:00 | |
| DB0UT-7 | 2026-08-31 12:13:52 | 49.19989 | 10.22495 | 50° | 13km/h | 29743m | 5.6m/s | -45.1°C | 3.0% | 13.0hPa | 2.6V | 00:00:00 | 00:00:00 | 00:00:00 | |
| DL1XH1-15 | 2026-08-31 12:13:51 | 49.19975 | 10.22496 | 340° | 13km/h | 29711m | 7m/s | -45.1°C | 2.9% | 13.1hPa | 2.6V | 08:30:00 | 01:44:08 | 00:00:00 | |
| DK7TD | 2026-08-31 12:13:50 | 49.19985 | 10.22493 | 1° | 11km/h | 29730m | 6.3m/s | -44.9°C | 0% | 13hPa | 2.6V | 18:12:15 | 01:44:11 | 00:00:00 | |
| HSKMA3-T | 2026-08-31 12:13:47 | 49.19975 | 10.22496 | 340° | 13km/h | 29711m | 7m/s | -45.1°C | 0% | 13.1hPa | 2.6V | 18:12:15 | 01:44:08 | 00:00:00 | |
| DL1ZP-14 | 2026-08-31 12:13:46 | 49.19972 | 10.22498 | 343° | 9km/h | 29705m | 6.2m/s | -45.1°C | 0.7% | 13.1hPa | 2.6V | 00:00:00 | 00:00:00 | 00:00:00 | |
| DL1XH-west | 2026-08-31 12:13:44 | 49.19967 | 10.22499 | 351° | 11km/h | 29693m | 5.6m/s | -45.2°C | 0% | 13.1hPa | 2.7V | 18:12:15 | 01:44:05 | 00:00:00 | |
| DL9SK-14 | 2026-08-31 12:13:44 | 49.19964 | 10.22500 | 350° | 13km/h | 29688m | 6.9m/s | -45.3°C | 0.7% | 13.1hPa | 2.6V | 00:00:00 | 00:00:00 | 00:00:00 | |
| DM0DOS-11 | 2026-08-31 12:13:43 | 49.19950 | 10.22505 | 337° | 9km/h | 29663m | 6.7m/s | -45.2°C | 2.9% | 13.2hPa | 2.6V | 08:30:00 | 01:44:00 | 00:00:00 | |
| DF8AY | 2026-08-31 12:13:42 | 49.19961 | 10.22501 | 349° | 16km/h | 29681m | 6.2m/s | -45.2°C | 0% | 13.1hPa | 2.7V | 18:12:15 | 01:44:03 | 00:00:00 | |
| DK7TD | 2026-08-31 12:13:40 | 49.19953 | 10.22503 | 347° | 15km/h | 29670m | 6.1m/s | -45.1°C | 0% | 13.2hPa | 2.6V | 18:12:15 | 01:44:01 | 00:00:00 | |
| BIOWL1-15 | 2026-08-31 12:13:39 | 49.19950 | 10.22505 | 338° | 9km/h | 29663m | 6.7m/s | -45.2°C | 0% | 13.2hPa | 2.6V | 18:12:15 | 01:44:00 | 00:00:00 | |
| IW2NTF | 2026-08-31 12:13:39 | 49.19942 | 10.22531 | 284° | 13km/h | 29627m | 6.3m/s | -45.2°C | 2.9% | 13.2hPa | 2.6V | 08:30:00 | 01:43:54 | 00:00:00 | |
| HSKMA3-T | 2026-08-31 12:13:36 | 49.19946 | 10.22514 | 291° | 15km/h | 29645m | 7.1m/s | -45.3°C | 0% | 13.2hPa | 2.7V | 18:12:15 | 01:43:57 | 00:00:00 | |
| OE5DRO-10 | 2026-08-31 12:13:36 | 49.19946 | 10.22514 | 291° | 13km/h | 29645m | 7.1m/s | -45.3°C | 2.9% | 13.1hPa | 2.6V | 00:00:00 | 00:00:00 | 00:00:00 | |
| DO3MHA-12 | 2026-08-31 12:13:35 | 49.19945 | 10.22519 | 291° | 13km/h | 29638m | 5.7m/s | -45.2°C | 2.9% | 13.2hPa | 2.6V | 00:00:00 | 01:43:56 | 00:00:00 | |
| DO9HM | 2026-08-31 12:13:34 | 49.19945 | 10.22519 | 291° | 16km/h | 29638m | 5.8m/s | -45.2°C | 0.7% | 13.2hPa | 2.6V | 00:00:00 | 00:00:00 | 00:00:00 | |
| DM0DOS-11 | 2026-08-31 12:13:33 | 49.19938 | 10.22536 | 22° | 11km/h | 29602m | 7m/s | -45.3°C | 2.9% | 13.3hPa | 2.6V | 08:30:00 | 01:43:50 | 00:00:00 | |
| DL1XH-west | 2026-08-31 12:13:33 | 49.19942 | 10.22531 | 285° | 13km/h | 29627m | 6.3m/s | -45.3°C | 0% | 13.2hPa | 2.6V | 18:12:15 | 01:43:54 | 00:00:00 | |
| DF2AP-13 | 2026-08-31 12:13:33 | 49.19942 | 10.22531 | 285° | 15km/h | 29627m | 6.3m/s | -45.2°C | 2.9% | 13.2hPa | 2.7V | 00:00:00 | 01:43:54 | 00:00:00 | |
| DL1XH1-15 | 2026-08-31 12:13:32 | 49.19930 | 10.22532 | 21° | 18km/h | 29590m | 5.3m/s | -45.4°C | 2.9% | 13.3hPa | 2.7V | 08:30:00 | 01:43:48 | 00:00:00 | |
| DF8AY | 2026-08-31 12:13:30 | 49.19940 | 10.22537 | 21° | 7km/h | 29609m | 5.6m/s | -45.2°C | 0% | 13.3hPa | 2.6V | 18:12:15 | 01:43:51 | 00:00:00 | |
| DO3MHA-11 | 2026-08-31 12:13:29 | 49.19938 | 10.22536 | 23° | 13km/h | 29603m | 7.0m/s | -45.2°C | 2.9% | 13.2hPa | 2.7V | 00:00:00 | 01:43:50 | 00:00:00 | |
| IW2NTF | 2026-08-31 12:13:28 | 49.19918 | 10.22523 | 4° | 7km/h | 29568m | 4.4m/s | -45.5°C | 3% | 13.4hPa | 2.7V | 08:30:00 | 01:43:44 | 00:00:00 | |
| DK7TD | 2026-08-31 12:13:28 | 49.19934 | 10.22534 | 20° | 16km/h | 29596m | 6.2m/s | -45.3°C | 0% | 13.3hPa | 2.7V | 18:12:15 | 01:43:49 | 00:00:00 | |
| HSKMA3-T | 2026-08-31 12:13:26 | 49.19926 | 10.22529 | 25° | 16km/h | 29584m | 5.9m/s | -45.6°C | 0% | 13.3hPa | 2.6V | 18:12:15 | 01:43:47 | 00:00:00 | |
| DL1XH-west | 2026-08-31 12:13:22 | 49.19917 | 10.22523 | 340° | 7km/h | 29563m | 6m/s | -45.6°C | 0% | 13.3hPa | 2.7V | 18:12:15 | 01:43:43 | 00:00:00 | |
| DB0UT-7 | 2026-08-31 12:13:22 | 49.19917 | 10.22523 | 340° | 16km/h | 29563m | 5.9m/s | -45.5°C | 2.9% | 13.3hPa | 2.7V | 00:00:00 | 01:43:43 | 00:00:00 | |
| DL1XH1-15 | 2026-08-31 12:13:21 | 49.19901 | 10.22531 | 18° | 13km/h | 29534m | 6.6m/s | -46°C | 3% | 13.4hPa | 2.7V | 08:30:00 | 01:43:38 | 00:00:00 | |
| DF8AY | 2026-08-31 12:13:20 | 49.19908 | 10.22530 | 339° | 16km/h | 29545m | 4.9m/s | -45.8°C | 0% | 13.4hPa | 2.6V | 18:12:15 | 01:43:40 | 00:00:00 | |
| DK7TD | 2026-08-31 12:13:18 | 49.19900 | 10.22531 | 18° | 13km/h | 29534m | 6.6m/s | -46°C | 0% | 13.4hPa | 2.7V | 18:12:15 | 01:43:38 | 00:00:00 | |
| HSKMA3-T | 2026-08-31 12:13:16 | 49.19898 | 10.22528 | 50° | 15km/h | 29528m | 6.2m/s | -46.1°C | 0% | 13.4hPa | 2.7V | 18:12:15 | 01:43:37 | 00:00:00 | |
| BIOWL1-15 | 2026-08-31 12:13:15 | 49.19896 | 10.22523 | 63° | 18km/h | 29522m | 5.5m/s | -46°C | 0% | 13.4hPa | 2.7V | 18:12:15 | 01:43:36 | 00:00:00 | |
| DL1XH-west | 2026-08-31 12:13:11 | 49.19882 | 10.22494 | 48° | 22km/h | 29499m | 5.2m/s | -45.8°C | 0% | 13.5hPa | 2.7V | 18:12:15 | 01:43:32 | 00:00:00 | |
| DJ2DS-15 | 2026-08-31 12:13:11 | 49.19882 | 10.22494 | 48° | 16km/h | 29499m | 5.1m/s | -45.7°C | 3.0% | 13.4hPa | 2.7V | 00:00:00 | 01:43:32 | 00:00:00 | |
| DL1XH1-15 | 2026-08-31 12:13:09 | 49.19871 | 10.22479 | 5° | 11km/h | 29475m | 5.6m/s | -45.8°C | 2.9% | 13.6hPa | 2.7V | 08:30:00 | 01:43:28 | 00:00:00 | |
| DK7TD | 2026-08-31 12:13:07 | 49.19871 | 10.22479 | 5° | 11km/h | 29475m | 5.6m/s | -45.8°C | 0% | 13.6hPa | 2.7V | 18:12:15 | 01:43:28 | 00:00:00 | |
| DF8AY | 2026-08-31 12:13:06 | 49.19868 | 10.22479 | 351° | 15km/h | 29469m | 7m/s | -45.9°C | 0% | 13.6hPa | 2.7V | 18:12:15 | 01:43:27 | 00:00:00 | |
| BIOWL1-15 | 2026-08-31 12:13:04 | 49.19859 | 10.22482 | 347° | 18km/h | 29457m | 4.5m/s | -45.8°C | 0% | 13.6hPa | 2.6V | 18:12:15 | 01:43:25 | 00:00:00 | |
| DF2AP-13 | 2026-08-31 12:13:03 | 49.19855 | 10.22483 | 357° | 18km/h | 29453m | 5.0m/s | -45.7°C | 2.9% | 13.5hPa | 2.7V | 00:00:00 | 01:43:24 | 08:30:00 | |
| DM0DOS-11 | 2026-08-31 12:13:02 | 49.19849 | 10.22470 | 76° | 18km/h | 29430m | 5.2m/s | -46°C | 3% | 13.7hPa | 2.6V | 08:30:00 | 01:43:20 | 00:00:00 | |
| DL1XH-west | 2026-08-31 12:13:00 | 49.19849 | 10.22476 | 80° | 15km/h | 29435m | 4.8m/s | -45.9°C | 0% | 13.6hPa | 2.6V | 18:12:15 | 01:43:21 | 00:00:00 | |
| DO3MHA-11 | 2026-08-31 12:12:59 | 49.19848 | 10.22470 | 77° | 18km/h | 29431m | 5.2m/s | -46.0°C | 3.0% | 13.6hPa | 2.6V | 00:00:00 | 01:43:20 | 00:00:00 | |
| IW2NTF | 2026-08-31 12:12:58 | 49.19828 | 10.22431 | 26° | 13km/h | 29396m | 5.5m/s | -45.8°C | 3% | 13.7hPa | 2.6V | 08:30:00 | 01:43:14 | 00:00:00 | |
| DK7TD | 2026-08-31 12:12:57 | 49.19840 | 10.22447 | 49° | 26km/h | 29413m | 5.1m/s | -45.8°C | 0% | 13.7hPa | 2.7V | 18:12:15 | 01:43:17 | 00:00:00 | |
| HSKMA3-T | 2026-08-31 12:12:55 | 49.19836 | 10.22440 | 45° | 24km/h | 29408m | 5.3m/s | -45.8°C | 0% | 13.7hPa | 2.6V | 18:12:15 | 01:43:16 | 00:00:00 | |
| BIOWL1-15 | 2026-08-31 12:12:54 | 49.19832 | 10.22434 | 40° | 18km/h | 29402m | 6.2m/s | -45.8°C | 0% | 13.7hPa | 2.6V | 18:12:15 | 01:43:15 | 00:00:00 | |
| SONDE2-11 | 2026-08-31 12:12:53 | 49.19825 | 10.22429 | 358° | 11km/h | 29391m | 5.7m/s | -45.9°C | 0.7% | 13.7hPa | 2.6V | 00:00:00 | 00:00:00 | 00:00:00 | |
| DM0DOS-11 | 2026-08-31 12:12:52 | 49.19816 | 10.22437 | 323° | 16km/h | 29372m | 4.6m/s | -46.1°C | 3% | 13.7hPa | 2.6V | 08:30:00 | 01:43:10 | 00:00:00 | |
| DL1XH-west | 2026-08-31 12:12:50 | 49.19819 | 10.22433 | 328° | 16km/h | 29378m | 6.1m/s | -46°C | 0% | 13.8hPa | 2.7V | 18:12:15 | 01:43:11 | 00:00:00 | |
| DK7TD | 2026-08-31 12:12:46 | 49.19810 | 10.22444 | 315° | 4km/h | 29356m | 6m/s | -46°C | 0% | 13.8hPa | 2.7V | 18:12:15 | 01:43:07 | 00:00:00 | |
| HSKMA3-T | 2026-08-31 12:12:46 | 49.19810 | 10.22444 | 66° | 4km/h | 29351m | 4.5m/s | -46°C | 0% | 13.8hPa | 2.7V | 18:12:15 | 01:43:06 | 00:00:00 | |
| DF8AY | 2026-08-31 12:12:42 | 49.19803 | 10.22433 | 35° | 22km/h | 29335m | 6.6m/s | -46.2°C | 0% | 13.8hPa | 2.7V | 18:12:15 | 01:43:03 | 00:00:00 | |
| DM0DOS-11 | 2026-08-31 12:12:42 | 49.19783 | 10.22419 | 18° | 31km/h | 29317m | 4.8m/s | -46.2°C | 3% | 13.9hPa | 2.6V | 08:30:00 | 01:43:00 | 00:00:00 | |
| DG9SBQ-11 | 2026-08-31 12:12:42 | 49.19803 | 10.22433 | 36° | 22km/h | 29335m | 6.6m/s | -46.2°C | 0.7% | 13.8hPa | 2.7V | 00:00:00 | 00:00:00 | 00:00:00 | |
| DL1XH1-15 | 2026-08-31 12:12:41 | 49.19771 | 10.22414 | 13° | 20km/h | 29306m | 5.7m/s | -46.4°C | 3% | 13.9hPa | 2.7V | 08:30:00 | 01:42:58 | 00:00:00 | |
| DL1XH-west | 2026-08-31 12:12:40 | 49.19783 | 10.22419 | 18° | 31km/h | 29317m | 4.8m/s | -46.2°C | 0% | 13.9hPa | 2.6V | 18:12:15 | 01:43:00 | 00:00:00 | |
| DK7TD | 2026-08-31 12:12:35 | 49.19763 | 10.22413 | 353° | 15km/h | 29295m | 6.2m/s | -46.6°C | 0% | 13.9hPa | 2.7V | 18:12:15 | 01:42:56 | 00:00:00 | |
| HSKMA3-T | 2026-08-31 12:12:34 | 49.19752 | 10.22418 | 346° | 15km/h | 29277m | 5m/s | -46.5°C | 0% | 14hPa | 2.6V | 18:12:15 | 01:42:53 | 00:00:00 | |
| HEMX73-6 | 2026-08-31 12:12:34 | 49.19760 | 10.22414 | 345° | 16km/h | 29289m | 6.6m/s | -46.5°C | 3.1% | 13.9hPa | 2.6V | 00:00:00 | 01:42:55 | 00:00:00 | |
| S52SK | 2026-08-31 12:12:33 | 49.19760 | 10.22414 | 345° | 15km/h | 29289m | 6.6m/s | -46.5°C | 0% | 13.9hPa | 2.6V | 00:00:00 | 00:00:00 | 00:00:00 | |
| DO9HM | 2026-08-31 12:12:32 | 49.19756 | 10.22416 | 343° | 16km/h | 29282m | 5.2m/s | -46.4°C | 0.8% | 14.0hPa | 2.6V | 00:00:00 | 00:00:00 | 00:00:00 | |
| DL1XH1-15 | 2026-08-31 12:12:31 | 49.19733 | 10.22408 | 28° | 27km/h | 29248m | 7m/s | -46.7°C | 3.2% | 14hPa | 2.6V | 08:30:00 | 01:42:48 | 00:00:00 | |
| DL1XH-west | 2026-08-31 12:12:29 | 49.19733 | 10.22408 | 28° | 27km/h | 29248m | 7m/s | -46.7°C | 0.1% | 14hPa | 2.6V | 18:12:15 | 01:42:48 | 00:00:00 | |
| DK7TD | 2026-08-31 12:12:25 | 49.19718 | 10.22397 | 22° | 37km/h | 29236m | 4.5m/s | -46.6°C | 0% | 14.1hPa | 2.7V | 18:12:15 | 01:42:46 | 00:00:00 | |
| HSKMA3-T | 2026-08-31 12:12:22 | 49.19692 | 10.22384 | 10° | 15km/h | 29214m | 5.7m/s | -46.7°C | 0% | 14.1hPa | 2.7V | 18:12:15 | 01:42:42 | 00:00:00 | |
| DL1XH-west | 2026-08-31 12:12:18 | 49.19683 | 10.22383 | 7° | 13km/h | 29196m | 5.3m/s | -46.7°C | 0% | 14.1hPa | 2.6V | 18:12:15 | 01:42:39 | 00:00:00 | |
| DL1XH1-15 | 2026-08-31 12:12:18 | 49.19680 | 10.22382 | 18° | 13km/h | 29191m | 5m/s | -46.8°C | 3.1% | 14.1hPa | 2.6V | 08:30:00 | 01:42:38 | 00:00:00 | |
| DF8AY | 2026-08-31 12:12:17 | 49.19675 | 10.22376 | 48° | 15km/h | 29179m | 6.4m/s | -46.7°C | 0% | 14.2hPa | 2.7V | 18:12:15 | 01:42:36 | 00:00:00 | |
| OM5KV | 2026-08-31 12:12:17 | 49.19683 | 10.22383 | 8° | 13km/h | 29196m | 5.3m/s | -46.7°C | 0.7% | 14.1hPa | 2.6V | 00:00:00 | 00:00:00 | 00:00:00 | |
| IW2NTF | 2026-08-31 12:12:16 | 49.19659 | 10.22355 | 27° | 29km/h | 29155m | 5.9m/s | -46.6°C | 3.1% | 14.2hPa | 2.6V | 08:30:00 | 01:42:32 | 00:00:00 | |
| DK7TD | 2026-08-31 12:12:14 | 49.19672 | 10.22372 | 52° | 16km/h | 29173m | 5.4m/s | -46.7°C | 0% | 14.2hPa | 2.7V | 18:12:15 | 01:42:35 | 00:00:00 | |
| DL1ZP-14 | 2026-08-31 12:12:13 | 49.19669 | 10.22366 | 45° | 20km/h | 29168m | 5.5m/s | -46.6°C | 0.7% | 14.2hPa | 2.6V | 00:00:00 | 00:00:00 | 00:00:00 | |
| OM5KV | 2026-08-31 12:12:12 | 49.19669 | 10.22366 | 46° | 20km/h | 29168m | 5.5m/s | -46.6°C | 0.7% | 14.2hPa | 2.7V | 00:00:00 | 00:00:00 | 00:00:00 | |
| DM0DOS-11 | 2026-08-31 12:12:11 | 49.19645 | 10.22347 | 13° | 26km/h | 29145m | 5.9m/s | -46.5°C | 3.1% | 14.3hPa | 2.7V | 08:30:00 | 01:42:30 | 00:00:00 | |
| DL1XH1-15 | 2026-08-31 12:12:11 | 49.19636 | 10.22346 | 353° | 13km/h | 29132m | 5.6m/s | -46.5°C | 3.1% | 14.3hPa | 2.6V | 08:30:00 | 01:42:28 | 00:00:00 | |
| HSKMA3-T | 2026-08-31 12:12:10 | 49.19652 | 10.22350 | 19° | 29km/h | 29150m | 4.2m/s | -46.5°C | 0% | 14.2hPa | 2.7V | 18:12:15 | 01:42:31 | 00:00:00 | |
| DL1XH-west | 2026-08-31 12:12:08 | 49.19633 | 10.22347 | 335° | 11km/h | 29127m | 5.2m/s | -46.5°C | 0% | 14.3hPa | 2.6V | 18:12:15 | 01:42:27 | 00:00:00 | |
| DL1NUX | 2026-08-31 12:12:08 | 49.19626 | 10.22354 | 330° | 13km/h | 29109m | 5.9m/s | -46.5°C | 3.1% | 14.3hPa | 2.7V | 08:30:00 | 01:42:24 | 00:00:00 | |
| DK7TD | 2026-08-31 12:12:04 | 49.19628 | 10.22351 | 323° | 11km/h | 29115m | 6m/s | -46.5°C | 0% | 14.3hPa | 2.7V | 18:12:15 | 01:42:25 | 00:00:00 | |
| BIOWL1-15 | 2026-08-31 12:12:03 | 49.19626 | 10.22354 | 331° | 13km/h | 29109m | 5.9m/s | -46.5°C | 0% | 14.3hPa | 2.7V | 18:12:15 | 01:42:24 | 00:00:00 | |
| DF8AY | 2026-08-31 12:12:03 | 49.19614 | 10.22345 | 48° | 18km/h | 29074m | 7.1m/s | -46.7°C | 0.1% | 14.4hPa | 2.6V | 18:12:15 | 01:42:18 | 00:00:00 | |
| DF8AY-15 | 2026-08-31 12:12:02 | 49.19623 | 10.22356 | 343° | 15km/h | 29104m | 5.3m/s | -46.5°C | 3.1% | 14.3hPa | 2.6V | 00:00:00 | 01:42:23 | 00:00:00 | |
| DL1XH1-15 | 2026-08-31 12:12:01 | 49.19614 | 10.22345 | 48° | 16km/h | 29074m | 7.1m/s | -46.7°C | 3.2% | 14.4hPa | 2.6V | 08:30:00 | 01:42:18 | 00:00:00 | |
| DM0DOS-11 | 2026-08-31 12:12:00 | 49.19618 | 10.22353 | 62° | 9km/h | 29085m | 5.8m/s | -46.7°C | 3.1% | 14.4hPa | 2.7V | 08:30:00 | 01:42:20 | 00:00:00 | |
| HSKMA3-T | 2026-08-31 12:12:00 | 49.19619 | 10.22355 | 35° | 7km/h | 29092m | 7m/s | -46.6°C | 0.1% | 14.4hPa | 2.7V | 18:12:15 | 01:42:21 | 00:00:00 | |
| DL1XH-west | 2026-08-31 12:11:58 | 49.19616 | 10.22349 | 59° | 13km/h | 29080m | 5.2m/s | -46.7°C | 0.1% | 14.4hPa | 2.6V | 18:12:15 | 01:42:19 | 00:00:00 | |
| DK7TD | 2026-08-31 12:11:53 | 49.19598 | 10.22332 | 356° | 15km/h | 29050m | 6.6m/s | -46.6°C | 0% | 14.4hPa | 2.7V | 18:12:15 | 01:42:14 | 00:00:00 | |
| DL1NUX | 2026-08-31 12:11:52 | 49.19595 | 10.22333 | 323° | 13km/h | 29044m | 5.5m/s | -46.6°C | 3.1% | 14.5hPa | 2.6V | 08:30:00 | 01:42:13 | 00:00:00 | |
| SONDE2-11 | 2026-08-31 12:11:51 | 49.19589 | 10.22343 | 308° | 18km/h | 29033m | 5.9m/s | -46.7°C | 0.7% | 14.5hPa | 2.7V | 00:00:00 | 00:00:00 | 00:00:00 | |
| DM0DOS-11 | 2026-08-31 12:11:50 | 49.19586 | 10.22348 | 316° | 20km/h | 29026m | 6.6m/s | -46.6°C | 3.1% | 14.5hPa | 2.7V | 08:30:00 | 01:42:10 | 00:00:00 | |
| HSKMA3-T | 2026-08-31 12:11:49 | 49.19586 | 10.22348 | 317° | 20km/h | 29027m | 6.6m/s | -46.7°C | 0% | 14.5hPa | 2.7V | 18:12:15 | 01:42:10 | 00:00:00 | |
| DL1XH-west | 2026-08-31 12:11:47 | 49.19578 | 10.22356 | 345° | 16km/h | 29015m | 4.9m/s | -46.5°C | 0% | 14.5hPa | 2.7V | 18:12:15 | 01:42:08 | 00:00:00 | |
| DG9SBQ-11 | 2026-08-31 12:11:46 | 49.19578 | 10.22356 | 346° | 16km/h | 29016m | 4.9m/s | -46.5°C | 0.7% | 14.5hPa | 2.7V | 00:00:00 | 00:00:00 | 00:00:00 | |
| DM0DOS-11 | 2026-08-31 12:11:45 | 49.19561 | 10.22339 | 320° | 9km/h | 28960m | 6.8m/s | -46.8°C | 3.1% | 14.7hPa | 2.7V | 08:30:00 | 01:41:59 | 00:00:00 | |
| DK7TD | 2026-08-31 12:11:43 | 49.19569 | 10.22348 | 81° | 11km/h | 28990m | 5.7m/s | -46.5°C | 0% | 14.6hPa | 2.7V | 18:12:15 | 01:42:04 | 00:00:00 | |
| DL1NUX | 2026-08-31 12:11:43 | 49.19569 | 10.22344 | 71° | 13km/h | 28984m | 6.5m/s | -46.6°C | 3.1% | 14.6hPa | 2.7V | 08:30:00 | 01:42:03 | 00:00:00 | |
| DF8AY-15 | 2026-08-31 12:11:43 | 49.19569 | 10.22344 | 72° | 11km/h | 28985m | 6.5m/s | -46.5°C | 3.1% | 14.6hPa | 2.6V | 00:00:00 | 01:42:03 | 00:00:00 | |
| OE5WHR-10 | 2026-08-31 12:11:41 | 49.19567 | 10.22340 | 49° | 11km/h | 28978m | 5.8m/s | -46.6°C | 3.1% | 14.6hPa | 2.6V | 00:00:00 | 01:42:02 | 00:00:00 | |
| DL1XH1-15 | 2026-08-31 12:11:40 | 49.19560 | 10.22341 | 301° | 11km/h | 28954m | 5.6m/s | -46.9°C | 3.2% | 14.7hPa | 2.6V | 08:30:00 | 01:41:58 | 00:00:00 | |
| HSKMA3-T | 2026-08-31 12:11:39 | 49.19563 | 10.22337 | 351° | 9km/h | 28966m | 6.5m/s | -46.8°C | 0.1% | 14.6hPa | 2.7V | 18:12:15 | 01:42:00 | 00:00:00 | |
| DL1XH-west | 2026-08-31 12:11:37 | 49.19558 | 10.22345 | 300° | 13km/h | 28948m | 5.1m/s | -46.9°C | 0% | 14.7hPa | 2.6V | 18:12:15 | 01:41:57 | 00:00:00 | |
| DJ8HS-15 | 2026-08-31 12:11:35 | 49.19556 | 10.22350 | 309° | 9km/h | 28943m | 6.0m/s | -46.9°C | 3.2% | 14.7hPa | 2.6V | 00:00:00 | 01:41:56 | 00:00:00 | |
| HEMX73-6 | 2026-08-31 12:11:34 | 49.19553 | 10.22354 | 323° | 16km/h | 28937m | 6.5m/s | -47.0°C | 3.2% | 14.7hPa | 2.6V | 00:00:00 | 01:41:55 | 00:00:00 | |
| DM0DOS-11 | 2026-08-31 12:11:33 | 49.19541 | 10.22359 | 153° | 4km/h | 28908m | 6m/s | -46.8°C | 3.2% | 14.8hPa | 2.6V | 08:30:00 | 01:41:50 | 00:00:00 | |
| DK7TD | 2026-08-31 12:11:32 | 49.19546 | 10.22360 | 347° | 15km/h | 28926m | 4.6m/s | -46.9°C | 0.1% | 14.7hPa | 2.7V | 18:12:15 | 01:41:53 | 00:00:00 | |
| DF8AY | 2026-08-31 12:11:31 | 49.19541 | 10.22360 | 25° | 4km/h | 28914m | 6.6m/s | -46.9°C | 0.1% | 14.8hPa | 2.6V | 18:12:15 | 01:41:51 | 00:00:00 | |
| DO9LL-15 | 2026-08-31 12:11:30 | 49.19541 | 10.22360 | 25° | 9km/h | 28914m | 6.5m/s | 0°C | 0% | 0hPa | 2.7V | 00:00:00 | 01:41:51 | 00:00:00 | |
| DL1XH1-15 | 2026-08-31 12:11:29 | 49.19543 | 10.22361 | 224° | 7km/h | 28896m | 6.8m/s | -46.8°C | 3.2% | 14.8hPa | 2.7V | 08:30:00 | 01:41:48 | 00:00:00 | |
| BIOWL1-15 | 2026-08-31 12:11:28 | 49.19545 | 10.22377 | 265° | 11km/h | 28872m | 6.7m/s | -46.8°C | 0.1% | 14.8hPa | 2.6V | 18:12:15 | 01:41:44 | 00:00:00 | |
| HSKMA3-T | 2026-08-31 12:11:28 | 49.19542 | 10.22359 | 196° | 5km/h | 28902m | 5.5m/s | -46.8°C | 0.1% | 14.8hPa | 2.7V | 18:12:15 | 01:41:49 | 00:00:00 | |
| DL1XH-west | 2026-08-31 12:11:26 | 49.19544 | 10.22364 | 255° | 9km/h | 28889m | 6.3m/s | -46.7°C | 0.1% | 14.8hPa | 2.7V | 18:12:15 | 01:41:47 | 00:00:00 | |
| DO3MHA-12 | 2026-08-31 12:11:25 | 49.19545 | 10.22368 | 267° | 7km/h | 28884m | 5.1m/s | -46.7°C | 3.2% | 14.8hPa | 2.6V | 00:00:00 | 01:41:46 | 00:00:00 | |
| OE5DXL-15 | 2026-08-31 12:11:24 | 49.19545 | 10.22373 | 268° | 11km/h | 28878m | 5.5m/s | -46.7°C | 3.1% | 14.8hPa | 2.6V | 00:00:00 | 00:00:00 | 08:30:00 | |
| OE5DRO-10 | 2026-08-31 12:11:23 | 49.19545 | 10.22377 | 265° | 9km/h | 28872m | 6.6m/s | -46.7°C | 3.2% | 14.8hPa | 2.6V | 00:00:00 | 00:00:00 | 00:00:00 | |
| DL1XH1-15 | 2026-08-31 12:11:22 | 49.19538 | 10.22385 | 354° | 7km/h | 28836m | 4.7m/s | -46.8°C | 3.1% | 14.9hPa | 2.7V | 08:30:00 | 01:41:38 | 00:00:00 | |
| DF8AY | 2026-08-31 12:11:21 | 49.19544 | 10.22383 | 342° | 5km/h | 28854m | 6.3m/s | -47°C | 0.1% | 14.9hPa | 2.6V | 18:12:15 | 01:41:41 | 00:00:00 | |
| BIOWL1-15 | 2026-08-31 12:11:20 | 49.19540 | 10.22384 | 355° | 11km/h | 28841m | 5.4m/s | -46.8°C | 0% | 14.9hPa | 2.7V | 18:12:15 | 01:41:39 | 00:00:00 | |
| HSKMA3-T | 2026-08-31 12:11:17 | 49.19538 | 10.22385 | 355° | 7km/h | 28837m | 4.7m/s | -46.8°C | 0% | 14.9hPa | 2.7V | 18:12:15 | 01:41:38 | 00:00:00 | |
| DL1XH-west | 2026-08-31 12:11:15 | 49.19538 | 10.22385 | 179° | 5km/h | 28825m | 7m/s | -46.8°C | 0% | 15hPa | 2.6V | 18:12:15 | 01:41:36 | 00:00:00 | |
| DO3MHA-12 | 2026-08-31 12:11:15 | 49.19538 | 10.22385 | 180° | 13km/h | 28825m | 6.9m/s | -46.8°C | 3.1% | 14.9hPa | 2.6V | 00:00:00 | 01:41:36 | 08:30:00 | |
| OM5KV | 2026-08-31 12:11:14 | 49.19538 | 10.22385 | 180° | 5km/h | 28825m | 7.0m/s | -46.8°C | 0.7% | 15.0hPa | 2.7V | 00:00:00 | 00:00:00 | 00:00:00 | |
| DG9SBQ-11 | 2026-08-31 12:11:13 | 49.19540 | 10.22385 | 185° | 15km/h | 28819m | 5.8m/s | -46.8°C | 0.8% | 15.0hPa | 2.7V | 00:00:00 | 00:00:00 | 00:00:00 | |
| DL1XH1-15 | 2026-08-31 12:11:12 | 49.19559 | 10.22407 | 220° | 7km/h | 28776m | 6m/s | -46.8°C | 3.2% | 15.1hPa | 2.7V | 08:30:00 | 01:41:28 | 00:00:00 | |
| DM0DOS-11 | 2026-08-31 12:11:11 | 49.19556 | 10.22400 | 242° | 13km/h | 28789m | 5.6m/s | -46.8°C | 3.2% | 15hPa | 2.6V | 08:30:00 | 01:41:30 | 00:00:00 | |
| BIOWL1-15 | 2026-08-31 12:11:10 | 49.19558 | 10.22405 | 239° | 11km/h | 28783m | 6.8m/s | -46.8°C | 0.1% | 15.1hPa | 2.6V | 18:12:15 | 01:41:29 | 00:00:00 | |
| DF8AY | 2026-08-31 12:11:09 | 49.19559 | 10.22407 | 221° | 7km/h | 28776m | 6m/s | -46.8°C | 0.1% | 15.1hPa | 2.7V | 18:12:15 | 01:41:28 | 00:00:00 | |
| HSKMA3-T | 2026-08-31 12:11:06 | 49.19560 | 10.22408 | 180° | 4km/h | 28771m | 5.3m/s | -46.8°C | 0.1% | 15.1hPa | 2.7V | 18:12:15 | 01:41:27 | 00:00:00 | |
| DL1XH-west | 2026-08-31 12:11:04 | 49.19561 | 10.22406 | 58° | 5km/h | 28759m | 7.3m/s | -46.7°C | 0% | 15.1hPa | 2.6V | 18:12:15 | 01:41:25 | 00:00:00 | |
| OE5DRO-10 | 2026-08-31 12:11:04 | 49.19561 | 10.22406 | 58° | 11km/h | 28759m | 7.3m/s | -46.6°C | 3.1% | 15.1hPa | 2.7V | 00:00:00 | 00:00:00 | 00:00:00 | |
| DL1NUX | 2026-08-31 12:11:02 | 49.19560 | 10.22397 | 143° | 11km/h | 28734m | 6.6m/s | -46.7°C | 3% | 15.2hPa | 2.7V | 08:30:00 | 01:41:21 | 00:00:00 | |
| BIOWL1-15 | 2026-08-31 12:10:58 | 49.19568 | 10.22393 | 177° | 18km/h | 28724m | 5m/s | -46.5°C | 0% | 15.2hPa | 2.6V | 18:12:15 | 01:41:19 | 00:00:00 | |
| HSKMA3-T | 2026-08-31 12:10:55 | 49.19577 | 10.22399 | 240° | 11km/h | 28705m | 5.3m/s | -46.5°C | 0% | 15.2hPa | 2.6V | 18:12:15 | 01:41:16 | 00:00:00 | |
| DL1XH-west | 2026-08-31 12:10:53 | 49.19579 | 10.22406 | 252° | 7km/h | 28694m | 5.9m/s | -46.6°C | 0% | 15.2hPa | 2.7V | 18:12:15 | 01:41:14 | 00:00:00 | |
| DL1XH1-15 | 2026-08-31 12:10:52 | 49.19582 | 10.22387 | 80° | 15km/h | 28658m | 5.5m/s | -47.1°C | 3.1% | 15.4hPa | 2.7V | 08:30:00 | 01:41:08 | 00:00:00 | |
| BIOWL1-15 | 2026-08-31 12:10:47 | 49.19582 | 10.22387 | 80° | 15km/h | 28658m | 5.5m/s | -47.1°C | 0% | 15.4hPa | 2.7V | 18:12:15 | 01:41:08 | 00:00:00 | |
| DF8AY | 2026-08-31 12:10:46 | 49.19581 | 10.22381 | 85° | 15km/h | 28653m | 5.1m/s | -47.2°C | 0.1% | 15.3hPa | 2.7V | 18:12:15 | 01:41:07 | 00:00:00 | |
| HSKMA3-T | 2026-08-31 12:10:44 | 49.19582 | 10.22372 | 118° | 11km/h | 28641m | 5.7m/s | -47.3°C | 0% | 15.4hPa | 2.6V | 18:12:15 | 01:41:05 | 00:00:00 | |
| DL1XH1-15 | 2026-08-31 12:10:42 | 49.19579 | 10.22360 | 75° | 9km/h | 28601m | 6.5m/s | -47.3°C | 3.2% | 15.5hPa | 2.7V | 08:30:00 | 01:40:58 | 00:00:00 | |
| DL1XH-west | 2026-08-31 12:10:42 | 49.19585 | 10.22367 | 136° | 4km/h | 28630m | 5.3m/s | -47.3°C | 0.1% | 15.4hPa | 2.7V | 18:12:15 | 01:41:03 | 00:00:00 | |
| DK7TD | 2026-08-31 12:10:39 | 49.19582 | 10.22365 | 21° | 9km/h | 28612m | 4.4m/s | -47.2°C | 0% | 15.4hPa | 2.6V | 18:12:15 | 01:41:00 | 00:00:00 | |
| BIOWL1-15 | 2026-08-31 12:10:37 | 49.19579 | 10.22360 | 75° | 9km/h | 28601m | 6.5m/s | -47.3°C | 0.1% | 15.5hPa | 2.7V | 18:12:15 | 01:40:58 | 00:00:00 | |
| DF8AY | 2026-08-31 12:10:36 | 49.19585 | 10.22309 | 83° | 13km/h | 28542m | 6.3m/s | -47.7°C | 0.1% | 15.6hPa | 2.7V | 18:12:15 | 01:40:48 | 00:00:00 | |
| SONCRA | 2026-08-31 12:10:36 | 49.19579 | 10.22356 | 100° | 11km/h | 28595m | 6.0m/s | -47.3°C | 0.8% | 15.5hPa | 2.7V | 00:00:00 | 00:00:00 | 00:00:00 | |
| DO3MHA-12 | 2026-08-31 12:10:35 | 49.19580 | 10.22351 | 109° | 15km/h | 28590m | 5.3m/s | -47.3°C | 3.2% | 15.5hPa | 2.7V | 00:00:00 | 01:40:56 | 00:00:00 | |
| DM0DOS-11 | 2026-08-31 12:10:34 | 49.19584 | 10.22318 | 107° | 13km/h | 28553m | 5.5m/s | -47.5°C | 3.3% | 15.6hPa | 2.7V | 08:30:00 | 01:40:50 | 00:00:00 | |
| HSKMA3-T | 2026-08-31 12:10:34 | 49.19581 | 10.22345 | 105° | 16km/h | 28584m | 6.2m/s | -47.3°C | 0.1% | 15.5hPa | 2.7V | 18:12:15 | 01:40:55 | 00:00:00 | |
| DG9SBQ-11 | 2026-08-31 12:10:33 | 49.19581 | 10.22345 | 106° | 16km/h | 28584m | 6.2m/s | -47.3°C | 0.8% | 15.5hPa | 2.6V | 00:00:00 | 00:00:00 | 00:00:00 | |
| DL1NUX | 2026-08-31 12:10:32 | 49.19583 | 10.22323 | 103° | 13km/h | 28559m | 6.8m/s | -47.5°C | 3.3% | 15.6hPa | 2.6V | 08:30:00 | 01:40:51 | 00:00:00 | |
| DL1XH-west | 2026-08-31 12:10:32 | 49.19582 | 10.22328 | 94° | 13km/h | 28565m | 5.6m/s | -47.4°C | 0.1% | 15.6hPa | 2.6V | 18:12:15 | 01:40:52 | 00:00:00 | |
| DF8AY | 2026-08-31 12:10:24 | 49.19579 | 10.22295 | 47° | 16km/h | 28524m | 5.3m/s | -47.7°C | 0.1% | 15.7hPa | 2.6V | 18:12:15 | 01:40:45 | 00:00:00 | |
| HSKMA3-T | 2026-08-31 12:10:23 | 49.19576 | 10.22291 | 56° | 15km/h | 28518m | 6.8m/s | -47.6°C | 0.1% | 15.7hPa | 2.7V | 18:12:15 | 01:40:44 | 00:00:00 | |
| NBG1-10 | 2026-08-31 12:10:23 | 49.19576 | 10.22290 | 56° | 15km/h | 28518m | 6.8m/s | -47.5°C | 3.2% | 15.6hPa | 2.6V | 00:00:00 | 01:40:44 | 00:00:00 | |
| DL1NUX | 2026-08-31 12:10:22 | 49.19573 | 10.22276 | 76° | 11km/h | 28500m | 5.6m/s | -47.6°C | 3.3% | 15.7hPa | 2.6V | 08:30:00 | 01:40:41 | 00:00:00 | |
| DL1XH-west | 2026-08-31 12:10:22 | 49.19573 | 10.22276 | 76° | 11km/h | 28500m | 5.6m/s | -47.6°C | 0.1% | 15.8hPa | 2.6V | 18:12:15 | 01:40:41 | 00:00:00 | |
| DF7PN | 2026-08-31 12:10:21 | 49.19574 | 10.22281 | 78° | 13km/h | 28506m | 5.3m/s | -47.5°C | 0.8% | 15.7hPa | 2.6V | 00:00:00 | 00:00:00 | 00:00:00 | |
| DB0NH | 2026-08-31 12:10:20 | 49.19573 | 10.22276 | 77° | 15km/h | 28501m | 5.5m/s | -47.6°C | 3.3% | 15.7hPa | 2.6V | 00:00:00 | 01:40:41 | 00:00:00 | |
| DO3MHA-11 | 2026-08-31 12:10:19 | 49.19572 | 10.22273 | 58° | 11km/h | 28495m | 7.1m/s | -47.7°C | 3.3% | 15.7hPa | 2.6V | 00:00:00 | 01:40:40 | 00:00:00 | |
| OM5KV | 2026-08-31 12:10:18 | 49.19572 | 10.22273 | 59° | 7km/h | 28495m | 7.1m/s | -47.7°C | 0.8% | 15.7hPa | 2.6V | 00:00:00 | 00:00:00 | 00:00:00 | |
| OE5WHR-10 | 2026-08-31 12:10:17 | 49.19569 | 10.22270 | 10° | 15km/h | 28482m | 5.5m/s | -47.8°C | 3.4% | 15.7hPa | 2.6V | 00:00:00 | 00:00:00 | 00:00:00 | |
| PETON7-10 | 2026-08-31 12:10:16 | 49.19566 | 10.22269 | 9° | 13km/h | 28476m | 6.8m/s | 0°C | 0% | 0hPa | 2.6V | 00:00:00 | 00:00:00 | 00:00:00 | |
| IW2NTF | 2026-08-31 12:10:15 | 49.19556 | 10.22269 | 351° | 16km/h | 28450m | 7m/s | -47.5°C | 3.3% | 15.8hPa | 2.6V | 08:30:00 | 01:40:33 | 00:00:00 | |
| DO3MHA-12 | 2026-08-31 12:10:15 | 49.19564 | 10.22269 | 13° | 15km/h | 28469m | 5.9m/s | -47.7°C | 3.4% | 15.8hPa | 2.7V | 00:00:00 | 01:40:36 | 00:00:00 | |
| DM0DOS-11 | 2026-08-31 12:10:14 | 49.19542 | 10.22271 | 6° | 16km/h | 28431m | 6.8m/s | -47.5°C | 3.2% | 15.9hPa | 2.7V | 08:30:00 | 01:40:30 | 00:00:00 | |
| HSKMA3-T | 2026-08-31 12:10:13 | 49.19559 | 10.22268 | 358° | 13km/h | 28457m | 6.8m/s | -47.6°C | 0.2% | 15.8hPa | 2.6V | 18:12:15 | 01:40:34 | 00:00:00 | |
| DK7TD | 2026-08-31 12:10:12 | 49.19556 | 10.22269 | 351° | 16km/h | 28450m | 7.1m/s | -47.5°C | 0.1% | 15.9hPa | 2.6V | 18:12:15 | 01:40:33 | 00:00:00 | |
| DL1XH-west | 2026-08-31 12:10:09 | 49.19542 | 10.22271 | 6° | 16km/h | 28431m | 6.8m/s | -47.5°C | 0.1% | 15.9hPa | 2.7V | 18:12:15 | 01:40:30 | 00:00:00 | |
| BIOWL1-15 | 2026-08-31 12:10:04 | 49.19522 | 10.22263 | 9° | 18km/h | 28401m | 5.7m/s | -47.5°C | 0.1% | 16hPa | 2.7V | 18:12:15 | 01:40:25 | 00:00:00 | |
| DM0DOS-11 | 2026-08-31 12:10:03 | 49.19505 | 10.22265 | 334° | 18km/h | 28370m | 7.3m/s | -47.5°C | 3.3% | 16.1hPa | 2.7V | 08:30:00 | 01:40:20 | 00:00:00 | |
| HSKMA3-T | 2026-08-31 12:10:02 | 49.19515 | 10.22261 | 4° | 11km/h | 28388m | 6.5m/s | -47.5°C | 0.1% | 16hPa | 2.6V | 18:12:15 | 01:40:23 | 00:00:00 | |
| DF8AY | 2026-08-31 12:10:00 | 49.19509 | 10.22263 | 339° | 15km/h | 28377m | 5.9m/s | -47.5°C | 0.1% | 16.1hPa | 2.7V | 18:12:15 | 01:40:21 | 00:00:00 | |
| DL1XH1-15 | 2026-08-31 12:10:00 | 49.19496 | 10.22273 | 330° | 22km/h | 28357m | 5.8m/s | -47.4°C | 3.3% | 16.1hPa | 2.6V | 08:30:00 | 01:40:18 | 00:00:00 | |
| DL1XH-west | 2026-08-31 12:09:58 | 49.19501 | 10.22269 | 331° | 22km/h | 28363m | 5.9m/s | -47.5°C | 0.1% | 16.1hPa | 2.6V | 18:12:15 | 01:40:19 | 00:00:00 | |
| BIOWL1-15 | 2026-08-31 12:09:53 | 49.19475 | 10.22286 | 1° | 16km/h | 28321m | 6.1m/s | -47.4°C | 0.1% | 16.2hPa | 2.7V | 18:12:15 | 01:40:12 | 00:00:00 | |
| HSKMA3-T | 2026-08-31 12:09:52 | 49.19479 | 10.22286 | 353° | 15km/h | 28328m | 6.9m/s | -47.4°C | 0.1% | 16.1hPa | 2.6V | 18:12:15 | 01:40:13 | 00:00:00 | |
| DF8AY | 2026-08-31 12:09:50 | 49.19471 | 10.22285 | 9° | 15km/h | 28315m | 6.1m/s | -47.5°C | 0.1% | 16.2hPa | 2.7V | 18:12:15 | 01:40:11 | 00:00:00 | |
| DB0NH | 2026-08-31 12:09:50 | 49.19471 | 10.22285 | 10° | 13km/h | 28316m | 6.0m/s | -47.4°C | 3.3% | 16.1hPa | 2.7V | 00:00:00 | 01:40:11 | 08:30:00 | |
| DL1XH1-15 | 2026-08-31 12:09:48 | 49.19463 | 10.22278 | 42° | 11km/h | 28297m | 5m/s | -47.2°C | 3.2% | 16.2hPa | 2.6V | 08:30:00 | 01:40:08 | 00:00:00 | |
| DL1XH-west | 2026-08-31 12:09:47 | 49.19463 | 10.22279 | 43° | 11km/h | 28297m | 5m/s | -47.2°C | 0.1% | 16.2hPa | 2.6V | 18:12:15 | 01:40:08 | 00:00:00 | |
| SONDE2-11 | 2026-08-31 12:09:46 | 49.19460 | 10.22276 | 28° | 11km/h | 28292m | 5.1m/s | -47.3°C | 0.8% | 16.2hPa | 2.7V | 00:00:00 | 00:00:00 | 00:00:00 | |
| BIOWL1-15 | 2026-08-31 12:09:42 | 49.19439 | 10.22280 | 345° | 9km/h | 28255m | 5.4m/s | -47.2°C | 0.1% | 16.3hPa | 2.7V | 18:12:15 | 01:40:01 | 00:00:00 | |
| DL1XH1-15 | 2026-08-31 12:09:42 | 49.19428 | 10.22279 | 10° | 15km/h | 28231m | 5.4m/s | -47.2°C | 3.2% | 16.4hPa | 2.7V | 08:30:00 | 01:39:57 | 00:00:00 | |
| DL1NUX | 2026-08-31 12:09:42 | 49.19445 | 10.22277 | 342° | 16km/h | 28267m | 6.3m/s | -47.2°C | 3.2% | 16.3hPa | 2.6V | 08:30:00 | 01:40:03 | 00:00:00 | |
| HSKMA3-T | 2026-08-31 12:09:41 | 49.19441 | 10.22279 | 342° | 13km/h | 28261m | 6.5m/s | -47.2°C | 0.1% | 16.3hPa | 2.7V | 18:12:15 | 01:40:02 | 00:00:00 | |
| DM0DOS-11 | 2026-08-31 12:09:41 | 49.19437 | 10.22281 | 356° | 9km/h | 28249m | 5.1m/s | -47.3°C | 3.2% | 16.3hPa | 2.6V | 08:30:00 | 01:40:00 | 00:00:00 | |
| DF8AY | 2026-08-31 12:09:39 | 49.19436 | 10.22280 | 356° | 9km/h | 28249m | 5.1m/s | -47.3°C | 0% | 16.3hPa | 2.6V | 18:12:15 | 01:40:00 | 00:00:00 | |
| DK7TD | 2026-08-31 12:09:37 | 49.19431 | 10.22280 | 6° | 13km/h | 28238m | 6.4m/s | -47.4°C | 0.1% | 16.4hPa | 2.6V | 18:12:15 | 01:39:58 | 00:00:00 | |
| PG1ADW-2 | 2026-08-31 12:09:37 | 49.19431 | 10.22280 | 7° | 11km/h | 28238m | 6.4m/s | -47.3°C | 3.2% | 16.3hPa | 2.6V | 00:00:00 | 00:00:00 | 00:00:00 | |
| DL1XH-west | 2026-08-31 12:09:37 | 49.19422 | 10.22276 | 41° | 11km/h | 28220m | 7m/s | -47.3°C | 0.1% | 16.4hPa | 2.7V | 18:12:15 | 01:39:55 | 00:00:00 | |
| OE5WHR-10 | 2026-08-31 12:09:36 | 49.19425 | 10.22278 | 24° | 13km/h | 28226m | 5.4m/s | -47.2°C | 3.2% | 16.4hPa | 2.7V | 00:00:00 | 01:39:56 | 00:00:00 | |
| SONCRA | 2026-08-31 12:09:34 | 49.19422 | 10.22276 | 40° | 9km/h | 28220m | 7.0m/s | -47.3°C | 0.8% | 16.4hPa | 2.7V | 00:00:00 | 00:00:00 | 00:00:00 | |
| DM0DOS-11 | 2026-08-31 12:09:33 | 49.19411 | 10.22263 | 356° | 15km/h | 28190m | 5.8m/s | -47.1°C | 3.2% | 16.5hPa | 2.7V | 08:30:00 | 01:39:50 | 00:00:00 | |
| IW2NTF | 2026-08-31 12:09:32 | 49.19403 | 10.22267 | 332° | 15km/h | 28178m | 6.8m/s | -47.1°C | 3.2% | 16.5hPa | 2.6V | 08:30:00 | 01:39:48 | 00:00:00 | |
| HSKMA3-T | 2026-08-31 12:09:31 | 49.19417 | 10.22266 | 39° | 11km/h | 28203m | 6.5m/s | -47.4°C | 0.1% | 16.5hPa | 2.6V | 18:12:15 | 01:39:52 | 00:00:00 | |
| BIOWL1-15 | 2026-08-31 12:09:30 | 49.19415 | 10.22264 | 14° | 13km/h | 28196m | 6.7m/s | -47.2°C | 0.1% | 16.5hPa | 2.7V | 18:12:15 | 01:39:51 | 00:00:00 | |
| DF8AY | 2026-08-31 12:09:28 | 49.19407 | 10.22264 | 344° | 16km/h | 28184m | 4.9m/s | -47.1°C | 0% | 16.5hPa | 2.7V | 18:12:15 | 01:39:49 | 00:00:00 | |
| DL1XH-west | 2026-08-31 12:09:26 | 49.19401 | 10.22269 | 315° | 11km/h | 28172m | 6.5m/s | -47.1°C | 0.1% | 16.5hPa | 2.6V | 18:12:15 | 01:39:47 | 00:00:00 | |
| BIOWL1-15 | 2026-08-31 12:09:23 | 49.19388 | 10.22286 | 57° | 7km/h | 28129m | 5.7m/s | -47.3°C | 0% | 16.6hPa | 2.7V | 18:12:15 | 01:39:40 | 00:00:00 | |
| BIOWL9-15 | 2026-08-31 12:09:23 | 49.19395 | 10.22281 | 311° | 13km/h | 28153m | 6.2m/s | -47.1°C | 0.8% | 16.6hPa | 2.7V | 00:00:00 | 00:00:00 | 00:00:00 | |
| DF8AY-15 | 2026-08-31 12:09:22 | 49.19393 | 10.22285 | 321° | 13km/h | 28148m | 5.1m/s | -47.1°C | 3.2% | 16.5hPa | 2.7V | 00:00:00 | 01:39:43 | 00:00:00 | |
| DM0DOS-11 | 2026-08-31 12:09:21 | 49.19388 | 10.22286 | 57° | 5km/h | 28129m | 5.7m/s | -47.3°C | 3.2% | 16.6hPa | 2.7V | 08:30:00 | 01:39:40 | 00:00:00 | |
| HSKMA3-T | 2026-08-31 12:09:21 | 49.19391 | 10.22287 | 333° | 9km/h | 28142m | 5.8m/s | -47.1°C | 0.1% | 16.6hPa | 2.6V | 18:12:15 | 01:39:42 | 00:00:00 | |
| DK7TD | 2026-08-31 12:09:16 | 49.19378 | 10.22276 | 7° | 20km/h | 28106m | 5.3m/s | -47.3°C | 0.1% | 16.7hPa | 2.7V | 18:12:15 | 01:39:36 | 00:00:00 | |
| DO3MHA-12 | 2026-08-31 12:09:15 | 49.19377 | 10.22275 | 7° | 15km/h | 28106m | 5.2m/s | -47.2°C | 3.2% | 16.7hPa | 2.7V | 00:00:00 | 01:39:36 | 00:00:00 | |
| OE5WHR-10 | 2026-08-31 12:09:14 | 49.19373 | 10.22275 | 356° | 13km/h | 28100m | 5.5m/s | -47.3°C | 3.2% | 16.7hPa | 2.7V | 00:00:00 | 00:00:00 | 08:30:00 | |
| OM5KV | 2026-08-31 12:09:13 | 49.19373 | 10.22275 | 356° | 20km/h | 28100m | 5.6m/s | 0°C | 0% | 0hPa | 2.6V | 00:00:00 | 00:00:00 | 00:00:00 | |
| DL1NUX | 2026-08-31 12:09:12 | 49.19361 | 10.22280 | 339° | 9km/h | 28082m | 5.3m/s | -47.3°C | 3.2% | 16.8hPa | 2.6V | 08:30:00 | 01:39:32 | 00:00:00 | |
| HSKMA3-T | 2026-08-31 12:09:11 | 49.19361 | 10.22280 | 340° | 11km/h | 28082m | 5.3m/s | -47.3°C | 0.1% | 16.8hPa | 2.6V | 18:12:15 | 01:39:32 | 00:00:00 | |
| BIOWL1-15 | 2026-08-31 12:09:09 | 49.19340 | 10.22268 | 31° | 9km/h | 28036m | 4.7m/s | -47.5°C | 0.1% | 16.9hPa | 2.6V | 18:12:15 | 01:39:24 | 00:00:00 | |
| DO3MHA-11 | 2026-08-31 12:09:09 | 49.19356 | 10.22281 | 4° | 13km/h | 28072m | 6.3m/s | -47.2°C | 3.2% | 16.7hPa | 2.7V | 00:00:00 | 01:39:30 | 08:30:00 | |
| DL1XH1-15 | 2026-08-31 12:09:08 | 49.19347 | 10.22276 | 30° | 15km/h | 28053m | 5.4m/s | -47.3°C | 3.2% | 16.8hPa | 2.6V | 08:30:00 | 01:39:27 | 00:00:00 | |
| DK7TD | 2026-08-31 12:09:05 | 49.19344 | 10.22273 | 38° | 13km/h | 28047m | 7.1m/s | -47.4°C | 0.1% | 16.9hPa | 2.7V | 18:12:15 | 01:39:26 | 00:00:00 | |
| DL1XH-west | 2026-08-31 12:09:04 | 49.19338 | 10.22266 | 18° | 13km/h | 28030m | 5.7m/s | -47.4°C | 0.1% | 16.9hPa | 2.6V | 18:12:15 | 01:39:23 | 00:00:00 | |
| HSKMA3-T | 2026-08-31 12:09:01 | 49.19334 | 10.22265 | 8° | 16km/h | 28024m | 6.7m/s | -47.3°C | 0.1% | 16.9hPa | 2.6V | 18:12:15 | 01:39:22 | 00:00:00 | |
| DM0DOS-11 | 2026-08-31 12:09:00 | 49.19324 | 10.22264 | 1° | 22km/h | 28013m | 4.5m/s | -47.2°C | 3.1% | 16.9hPa | 2.7V | 08:30:00 | 01:39:20 | 00:00:00 | |
| BIOWL1-15 | 2026-08-31 12:08:57 | 49.19315 | 10.22264 | 357° | 15km/h | 28002m | 6.7m/s | -47.2°C | 0% | 17hPa | 2.6V | 18:12:15 | 01:39:18 | 00:00:00 | |
| DK7TD | 2026-08-31 12:08:54 | 49.19309 | 10.22265 | 355° | 5km/h | 27984m | 5.5m/s | -47.3°C | 0.1% | 17hPa | 2.7V | 18:12:15 | 01:39:15 | 00:00:00 | |
| DL1XH-west | 2026-08-31 12:08:52 | 49.19304 | 10.22265 | 4° | 15km/h | 27972m | 6.1m/s | -47.4°C | 0.1% | 17.1hPa | 2.7V | 18:12:15 | 01:39:13 | 00:00:00 | |
| HSKMA3-T | 2026-08-31 12:08:50 | 49.19296 | 10.22265 | 360° | 16km/h | 27959m | 6.7m/s | -47.4°C | 0.1% | 17.1hPa | 2.6V | 18:12:15 | 01:39:11 | 00:00:00 | |
| IW2NTF | 2026-08-31 12:08:49 | 49.19292 | 10.22265 | 354° | 15km/h | 27953m | 6.3m/s | -47.3°C | 3.2% | 17.1hPa | 2.6V | 08:30:00 | 01:39:10 | 00:00:00 | |
| BIOWL1-15 | 2026-08-31 12:08:47 | 49.19285 | 10.22267 | 345° | 18km/h | 27942m | 5.5m/s | -47.5°C | 0.1% | 17.1hPa | 2.7V | 18:12:15 | 01:39:08 | 00:00:00 | |
| DF8AY | 2026-08-31 12:08:46 | 49.19280 | 10.22269 | 347° | 20km/h | 27936m | 7.3m/s | -47.6°C | 0.1% | 17.2hPa | 2.6V | 18:12:15 | 01:39:07 | 00:00:00 | |
| DF3TZ-5 | 2026-08-31 12:08:46 | 49.19275 | 10.22271 | 349° | 20km/h | 27929m | 6.0m/s | -47.6°C | 0.7% | 17.2hPa | 2.7V | 00:00:00 | 00:00:00 | 00:00:00 | |
| DK7TD | 2026-08-31 12:08:43 | 49.19265 | 10.22274 | 348° | 16km/h | 27917m | 6.9m/s | -47.5°C | 0% | 17.2hPa | 2.7V | 18:12:15 | 01:39:04 | 00:00:00 | |
| DL1XH-west | 2026-08-31 12:08:41 | 49.19259 | 10.22275 | 358° | 9km/h | 27905m | 4.7m/s | -47.5°C | 0.1% | 17.2hPa | 2.6V | 18:12:15 | 01:39:02 | 00:00:00 | |
| HSKMA3-T | 2026-08-31 12:08:40 | 49.19257 | 10.22275 | 13° | 11km/h | 27900m | 5.6m/s | -47.4°C | 0.1% | 17.2hPa | 2.6V | 18:12:15 | 01:39:01 | 00:00:00 | |
| IW2NTF | 2026-08-31 12:08:39 | 49.19254 | 10.22273 | 27° | 15km/h | 27894m | 6.9m/s | -47.4°C | 3.2% | 17.3hPa | 2.7V | 08:30:00 | 01:39:00 | 00:00:00 | |
| DF8AY | 2026-08-31 12:08:35 | 49.19240 | 10.22258 | 32° | 13km/h | 27869m | 6m/s | -47.7°C | 0.1% | 17.3hPa | 2.6V | 18:12:15 | 01:38:56 | 00:00:00 | |
| DK7TD | 2026-08-31 12:08:32 | 49.19229 | 10.22254 | 1° | 20km/h | 27851m | 7m/s | -47.7°C | 0.1% | 17.4hPa | 2.7V | 18:12:15 | 01:38:53 | 00:00:00 | |
| DL1XH-west | 2026-08-31 12:08:31 | 49.19224 | 10.22255 | 355° | 22km/h | 27845m | 5m/s | -47.8°C | 0% | 17.4hPa | 2.6V | 18:12:15 | 01:38:52 | 00:00:00 | |
| DL1NUX | 2026-08-31 12:08:31 | 49.19200 | 10.22258 | 19° | 18km/h | 27818m | 6.5m/s | -47.9°C | 3.3% | 17.5hPa | 2.6V | 08:30:00 | 01:38:47 | 00:00:00 | |
| HSKMA3-T | 2026-08-31 12:08:29 | 49.19213 | 10.22258 | 345° | 20km/h | 27834m | 6.8m/s | -47.9°C | 0.1% | 17.4hPa | 2.7V | 18:12:15 | 01:38:50 | 00:00:00 | |
| DF8AY | 2026-08-31 12:08:25 | 49.19195 | 10.22255 | 32° | 24km/h | 27811m | 6.7m/s | -48°C | 0.1% | 17.4hPa | 2.6V | 18:12:15 | 01:38:46 | 00:00:00 | |
| DL1XH-west | 2026-08-31 12:08:21 | 49.19172 | 10.22228 | 33° | 24km/h | 27789m | 6.5m/s | -48.1°C | 0.1% | 17.6hPa | 2.6V | 18:12:15 | 01:38:42 | 00:00:00 | |
| DM0DOS-11 | 2026-08-31 12:08:20 | 49.19162 | 10.22223 | 1° | 20km/h | 27777m | 5.4m/s | -48.2°C | 3.3% | 17.6hPa | 2.6V | 08:30:00 | 01:38:40 | 00:00:00 | |
| HSKMA3-T | 2026-08-31 12:08:19 | 49.19157 | 10.22223 | 356° | 22km/h | 27772m | 5.9m/s | -48.1°C | 0.1% | 17.6hPa | 2.7V | 18:12:15 | 01:38:39 | 00:00:00 | |
| DO3MHA-11 | 2026-08-31 12:08:19 | 49.19162 | 10.22223 | 2° | 22km/h | 27778m | 5.3m/s | -48.1°C | 3.3% | 17.5hPa | 2.6V | 00:00:00 | 01:38:40 | 00:00:00 | |
| DL1NUX | 2026-08-31 12:08:17 | 49.19146 | 10.22224 | 4° | 24km/h | 27760m | 5.5m/s | -48.1°C | 3.3% | 17.6hPa | 2.6V | 08:30:00 | 01:38:37 | 00:00:00 | |
| DF8AY | 2026-08-31 12:08:14 | 49.19134 | 10.22220 | 15° | 22km/h | 27750m | 5.5m/s | -48.2°C | 0.1% | 17.6hPa | 2.7V | 18:12:15 | 01:38:35 | 00:00:00 | |
| AZAK | 2026-08-31 12:08:13 | 49.19129 | 10.22218 | 19° | 20km/h | 27744m | 6.1m/s | -48.1°C | 0.8% | 17.7hPa | 2.7V | 00:00:00 | 00:00:00 | 00:00:00 | |
| DM0DOS-11 | 2026-08-31 12:08:10 | 49.19109 | 10.22205 | 23° | 29km/h | 27721m | 6.2m/s | -48.1°C | 3.3% | 17.7hPa | 2.7V | 08:30:00 | 01:38:30 | 00:00:00 | |
| DL1XH-west | 2026-08-31 12:08:10 | 49.19115 | 10.22209 | 25° | 24km/h | 27727m | 6.8m/s | -48.3°C | 0.2% | 17.7hPa | 2.6V | 18:12:15 | 01:38:31 | 00:00:00 | |
| DK7TD | 2026-08-31 12:08:09 | 49.19109 | 10.22205 | 24° | 29km/h | 27721m | 6.2m/s | -48.1°C | 0.1% | 17.7hPa | 2.7V | 18:12:15 | 01:38:30 | 00:00:00 | |
| HSKMA3-T | 2026-08-31 12:08:08 | 49.19095 | 10.22196 | 20° | 27km/h | 27709m | 6.4m/s | -48.2°C | 0.1% | 17.8hPa | 2.7V | 18:12:15 | 01:38:28 | 00:00:00 | |
| DJ2DS-15 | 2026-08-31 12:08:07 | 49.19095 | 10.22196 | 20° | 24km/h | 27710m | 6.3m/s | 0°C | 0% | 0hPa | 2.6V | 00:00:00 | 01:38:28 | 00:00:00 | |
| OM5KV | 2026-08-31 12:08:06 | 49.19095 | 10.22196 | 21° | 27km/h | 27710m | 6.4m/s | 0°C | 0% | 0hPa | 2.6V | 00:00:00 | 00:00:00 | 00:00:00 | |
| DL1ZP-14 | 2026-08-31 12:08:05 | 49.19078 | 10.22189 | 15° | 20km/h | 27691m | 5.8m/s | -48.4°C | 0.8% | 17.8hPa | 2.6V | 00:00:00 | 00:00:00 | 00:00:00 | |
| DM0DOS-11 | 2026-08-31 12:08:04 | 49.19050 | 10.22172 | 24° | 16km/h | 27656m | 4.3m/s | -48.4°C | 3.4% | 17.9hPa | 2.6V | 08:30:00 | 01:38:19 | 00:00:00 | |
| DF8AY | 2026-08-31 12:08:03 | 49.19067 | 10.22183 | 21° | 24km/h | 27679m | 5.6m/s | -48.3°C | 0.2% | 17.9hPa | 2.7V | 18:12:15 | 01:38:23 | 00:00:00 | |
| BIOWL1-15 | 2026-08-31 12:07:59 | 49.19054 | 10.22174 | 25° | 15km/h | 27661m | 5.6m/s | -48.3°C | 0.2% | 17.9hPa | 2.6V | 18:12:15 | 01:38:20 | 00:00:00 | |
| DO3MHA-11 | 2026-08-31 12:07:59 | 49.19053 | 10.22174 | 25° | 24km/h | 27661m | 5.5m/s | -48.3°C | 3.4% | 17.8hPa | 2.7V | 00:00:00 | 01:38:20 | 00:00:00 | |
| DL1XH1-15 | 2026-08-31 12:07:58 | 49.19041 | 10.22165 | 27° | 24km/h | 27645m | 7m/s | -48.5°C | 3.4% | 17.9hPa | 2.7V | 08:30:00 | 01:38:17 | 00:00:00 | |
| DK7TD | 2026-08-31 12:07:58 | 49.19050 | 10.22172 | 25° | 16km/h | 27656m | 4.4m/s | -48.4°C | 0.2% | 17.9hPa | 2.6V | 18:12:15 | 01:38:19 | 00:00:00 | |
| HSKMA3-T | 2026-08-31 12:07:57 | 49.19041 | 10.22165 | 27° | 24km/h | 27645m | 7m/s | -48.5°C | 0.2% | 17.9hPa | 2.7V | 18:12:15 | 01:38:17 | 00:00:00 | |
| PG1ADW-2 | 2026-08-31 12:07:56 | 49.19041 | 10.22165 | 28° | 26km/h | 27645m | 6.9m/s | -48.4°C | 3.4% | 17.9hPa | 2.7V | 00:00:00 | 00:00:00 | 00:00:00 | |
| DO3MHA-12 | 2026-08-31 12:07:55 | 49.19035 | 10.22160 | 28° | 24km/h | 27639m | 5.4m/s | -48.3°C | 3.4% | 17.9hPa | 2.7V | 00:00:00 | 01:38:16 | 00:00:00 | |
| DG9SBQ-11 | 2026-08-31 12:07:54 | 49.19035 | 10.22160 | 29° | 31km/h | 27639m | 5.5m/s | -48.4°C | 0.8% | 18.0hPa | 2.7V | 00:00:00 | 00:00:00 | 00:00:00 | |
| DM0DOS-11 | 2026-08-31 12:07:53 | 49.18996 | 10.22129 | 24° | 20km/h | 27599m | 6.5m/s | -48.2°C | 3.3% | 18.1hPa | 2.7V | 08:30:00 | 01:38:09 | 00:00:00 | |
| DF8AY | 2026-08-31 12:07:51 | 49.19009 | 10.22139 | 28° | 22km/h | 27617m | 5.9m/s | -48.4°C | 0.2% | 18hPa | 2.6V | 18:12:15 | 01:38:12 | 00:00:00 | |
| DL1XH1-15 | 2026-08-31 12:07:51 | 49.18987 | 10.22123 | 15° | 20km/h | 27588m | 5.6m/s | -48.2°C | 3.3% | 18.1hPa | 2.7V | 08:30:00 | 01:38:07 | 00:00:00 | |
| BIOWL1-15 | 2026-08-31 12:07:50 | 49.18981 | 10.22122 | 4° | 20km/h | 27582m | 7m/s | -48.2°C | 0.1% | 18.1hPa | 2.6V | 18:12:15 | 01:38:06 | 00:00:00 | |
| DL1XH-west | 2026-08-31 12:07:49 | 49.18996 | 10.22129 | 25° | 20km/h | 27599m | 6.6m/s | -48.2°C | 0.1% | 18.1hPa | 2.7V | 18:12:15 | 01:38:09 | 00:00:00 | |
| DK7TD | 2026-08-31 12:07:47 | 49.18991 | 10.22125 | 22° | 20km/h | 27593m | 5.1m/s | -48.2°C | 0.2% | 18.1hPa | 2.7V | 18:12:15 | 01:38:08 | 00:00:00 | |
| HSKMA3-T | 2026-08-31 12:07:47 | 49.18986 | 10.22123 | 15° | 20km/h | 27588m | 5.6m/s | -48.2°C | 0.2% | 18.1hPa | 2.7V | 18:12:15 | 01:38:07 | 00:00:00 | |
| DF7PN | 2026-08-31 12:07:46 | 49.18986 | 10.22123 | 15° | 20km/h | 27588m | 5.6m/s | -48.2°C | 0.8% | 18.1hPa | 2.6V | 00:00:00 | 00:00:00 | 00:00:00 | |
| DO3MHA-12 | 2026-08-31 12:07:45 | 49.18981 | 10.22122 | 4° | 26km/h | 27582m | 7.0m/s | -48.1°C | 3.3% | 18.0hPa | 2.6V | 00:00:00 | 01:38:06 | 00:00:00 | |
| DN1GJH-1 | 2026-08-31 12:07:44 | 49.18982 | 10.22122 | 5° | 20km/h | 27582m | 7.0m/s | -48.2°C | 0.8% | 18.1hPa | 2.7V | 00:00:00 | 00:00:00 | 00:00:00 | |
| DO9HM | 2026-08-31 12:07:43 | 49.18976 | 10.22122 | 353° | 22km/h | 27576m | 5.6m/s | -48.2°C | 0.8% | 18.1hPa | 2.7V | 00:00:00 | 00:00:00 | 00:00:00 | |
| DF8AY-15 | 2026-08-31 12:07:42 | 49.18964 | 10.22125 | 355° | 29km/h | 27567m | 4.6m/s | -48.1°C | 3.3% | 18.1hPa | 2.7V | 00:00:00 | 01:38:03 | 00:00:00 | |
| DM0DOS-11 | 2026-08-31 12:07:40 | 49.18934 | 10.22116 | 19° | 29km/h | 27544m | 6.2m/s | -48.4°C | 3.3% | 18.2hPa | 2.7V | 08:30:00 | 01:37:59 | 00:00:00 | |
| DF8AY | 2026-08-31 12:07:39 | 49.18941 | 10.22120 | 18° | 31km/h | 27550m | 4.8m/s | -48.3°C | 0.2% | 18.2hPa | 2.6V | 18:12:15 | 01:38:00 | 00:00:00 | |
| DL1NUX | 2026-08-31 12:07:39 | 49.18913 | 10.22108 | 7° | 20km/h | 27522m | 6.3m/s | -48.8°C | 3.5% | 18.2hPa | 2.6V | 08:30:00 | 01:37:55 | 00:00:00 | |
| DO3MHA-11 | 2026-08-31 12:07:39 | 49.18941 | 10.22120 | 19° | 26km/h | 27550m | 4.8m/s | -48.3°C | 3.3% | 18.1hPa | 2.6V | 00:00:00 | 01:38:00 | 08:30:00 | |
| DL1XH1-15 | 2026-08-31 12:07:38 | 49.18922 | 10.22110 | 13° | 20km/h | 27532m | 5m/s | -48.7°C | 3.4% | 18.2hPa | 2.6V | 08:30:00 | 01:37:57 | 00:00:00 | |
| DL1XH-west | 2026-08-31 12:07:37 | 49.18928 | 10.22113 | 18° | 24km/h | 27538m | 6.1m/s | -48.5°C | 0.1% | 18.2hPa | 2.7V | 18:12:15 | 01:37:58 | 00:00:00 | |
| DK7TD | 2026-08-31 12:07:36 | 49.18922 | 10.22111 | 14° | 20km/h | 27532m | 5m/s | -48.7°C | 0.2% | 18.2hPa | 2.6V | 18:12:15 | 01:37:57 | 00:00:00 | |
| HSKMA3-T | 2026-08-31 12:07:35 | 49.18917 | 10.22109 | 10° | 20km/h | 27528m | 4.6m/s | -48.7°C | 0.3% | 18.2hPa | 2.6V | 18:12:15 | 01:37:56 | 00:00:00 | |
| DO3MHA-12 | 2026-08-31 12:07:35 | 49.18917 | 10.22109 | 10° | 27km/h | 27528m | 4.6m/s | -48.7°C | 3.5% | 18.2hPa | 2.7V | 00:00:00 | 01:37:56 | 00:00:00 | |
| DL1ZP-14 | 2026-08-31 12:07:34 | 49.18907 | 10.22107 | 6° | 24km/h | 27516m | 5.7m/s | -48.7°C | 0.8% | 18.3hPa | 2.7V | 00:00:00 | 00:00:00 | 00:00:00 | |
| DB0ND-19 | 2026-08-31 12:07:32 | 49.18893 | 10.22106 | 354° | 29km/h | 27506m | 4.8m/s | -48.5°C | 0.8% | 18.3hPa | 2.7V | 00:00:00 | 00:00:00 | 00:00:00 | |
| DL9SK-14 | 2026-08-31 12:07:31 | 49.18893 | 10.22106 | 354° | 29km/h | 27506m | 4.8m/s | -48.5°C | 0.8% | 18.3hPa | 2.7V | 00:00:00 | 00:00:00 | 00:00:00 | |
| SONCRA | 2026-08-31 12:07:30 | 49.18878 | 10.22112 | 339° | 29km/h | 27494m | 6.1m/s | -48.5°C | 0.8% | 18.4hPa | 2.7V | 00:00:00 | 00:00:00 | 00:00:00 | |
| DK5PH-5 | 2026-08-31 12:07:29 | 49.18878 | 10.22112 | 340° | 26km/h | 27494m | 6.0m/s | -48.4°C | 3.4% | 18.3hPa | 2.7V | 00:00:00 | 01:37:50 | 00:00:00 | |
| DL1XH1-15 | 2026-08-31 12:07:28 | 49.18855 | 10.22122 | 352° | 33km/h | 27477m | 6.6m/s | -48.6°C | 3.4% | 18.4hPa | 2.7V | 08:30:00 | 01:37:47 | 00:00:00 | |
| DL1XH-west | 2026-08-31 12:07:26 | 49.18855 | 10.22122 | 352° | 33km/h | 27477m | 6.6m/s | -48.6°C | 0.2% | 18.4hPa | 2.7V | 18:12:15 | 01:37:47 | 00:00:00 | |
| BIOWL1-15 | 2026-08-31 12:07:25 | 49.18847 | 10.22123 | 359° | 33km/h | 27471m | 5.5m/s | -48.5°C | 0.2% | 18.4hPa | 2.6V | 18:12:15 | 01:37:46 | 00:00:00 | |
| HSKMA3-T | 2026-08-31 12:07:25 | 49.18839 | 10.22123 | 1° | 31km/h | 27466m | 5.3m/s | -48.4°C | 0.2% | 18.4hPa | 2.6V | 18:12:15 | 01:37:45 | 00:00:00 | |
| OE5DXL-15 | 2026-08-31 12:07:24 | 49.18839 | 10.22123 | 2° | 20km/h | 27466m | 5.3m/s | -48.4°C | 3.4% | 18.4hPa | 2.6V | 00:00:00 | 00:00:00 | 00:00:00 | |
| DF8AY-15 | 2026-08-31 12:07:22 | 49.18825 | 10.22124 | 351° | 24km/h | 27455m | 5.2m/s | -48.4°C | 3.3% | 18.4hPa | 2.6V | 00:00:00 | 01:37:43 | 00:00:00 | |
| DL1NUX | 2026-08-31 12:07:22 | 49.18818 | 10.22126 | 345° | 24km/h | 27449m | 4.7m/s | -48.5°C | 3.4% | 18.5hPa | 2.6V | 08:30:00 | 01:37:42 | 00:00:00 | |
| S52SK | 2026-08-31 12:07:21 | 49.18824 | 10.22124 | 352° | 26km/h | 27455m | 5.3m/s | -48.4°C | 0% | 18.4hPa | 2.6V | 00:00:00 | 00:00:00 | 00:00:00 | |
| DB0NH | 2026-08-31 12:07:20 | 49.18812 | 10.22129 | 344° | 18km/h | 27444m | 6.2m/s | -48.4°C | 3.4% | 18.5hPa | 2.6V | 00:00:00 | 01:37:41 | 00:00:00 | |
| DB0UT-7 | 2026-08-31 12:07:19 | 49.18806 | 10.22132 | 344° | 18km/h | 27438m | 5.9m/s | -48.3°C | 3.3% | 18.5hPa | 2.6V | 00:00:00 | 01:37:40 | 08:30:00 | |
| DG1MJG | 2026-08-31 12:07:18 | 49.18806 | 10.22132 | 344° | 26km/h | 27438m | 6.0m/s | 0°C | 0% | 0hPa | 2.7V | 00:00:00 | 00:00:00 | 00:00:00 | |
| DL1XH1-15 | 2026-08-31 12:07:17 | 49.18790 | 10.22145 | 318° | 24km/h | 27421m | 6.9m/s | -48.5°C | 3.3% | 18.6hPa | 2.7V | 08:30:00 | 01:37:37 | 00:00:00 | |
| DK7TD | 2026-08-31 12:07:15 | 49.18786 | 10.22151 | 312° | 22km/h | 27415m | 5m/s | -48.4°C | 0.1% | 18.6hPa | 2.6V | 18:12:15 | 01:37:36 | 00:00:00 | |
| DF8AY | 2026-08-31 12:07:15 | 49.18783 | 10.22156 | 317° | 20km/h | 27410m | 3.8m/s | -48.4°C | 0.2% | 18.6hPa | 2.6V | 18:12:15 | 01:37:35 | 00:00:00 | |
| BIOWL1-15 | 2026-08-31 12:07:15 | 49.18764 | 10.22160 | 22° | 24km/h | 27388m | 4.7m/s | -48.7°C | 0.1% | 18.6hPa | 2.6V | 18:12:15 | 01:37:31 | 00:00:00 | |
| HSKMA3-T | 2026-08-31 12:07:13 | 49.18779 | 10.22161 | 332° | 18km/h | 27406m | 5.6m/s | -48.4°C | 0.2% | 18.6hPa | 2.6V | 18:12:15 | 01:37:34 | 00:00:00 | |
| DF3TZ-5 | 2026-08-31 12:07:13 | 49.18775 | 10.22163 | 353° | 18km/h | 27400m | 6.6m/s | -48.5°C | 0.7% | 18.6hPa | 2.6V | 00:00:00 | 00:00:00 | 00:00:00 | |
| DJ2DS-15 | 2026-08-31 12:07:12 | 49.18770 | 10.22162 | 13° | 20km/h | 27394m | 5.6m/s | -48.5°C | 0.8% | 18.6hPa | 2.6V | 00:00:00 | 00:00:00 | 00:00:00 | |
| DL1XH1-15 | 2026-08-31 12:07:11 | 49.18740 | 10.22165 | 319° | 26km/h | 27362m | 6.2m/s | -49.1°C | 3.4% | 18.7hPa | 2.6V | 08:30:00 | 01:37:26 | 00:00:00 | |
| SONDE2-11 | 2026-08-31 12:07:11 | 49.18770 | 10.22162 | 13° | 20km/h | 27394m | 5.6m/s | -48.5°C | 0.8% | 18.6hPa | 2.7V | 00:00:00 | 00:00:00 | 00:00:00 | |
| DM0DOS-11 | 2026-08-31 12:07:10 | 49.18754 | 10.22155 | 4° | 18km/h | 27378m | 5.6m/s | -48.8°C | 3.4% | 18.6hPa | 2.7V | 08:30:00 | 01:37:29 | 00:00:00 | |
| DK7TD | 2026-08-31 12:07:04 | 49.18735 | 10.22172 | 318° | 29km/h | 27356m | 5.6m/s | -49°C | 0.1% | 18.7hPa | 2.6V | 18:12:15 | 01:37:25 | 00:00:00 | |
| DL1NUX | 2026-08-31 12:07:04 | 49.18720 | 10.22202 | 287° | 16km/h | 27334m | 5.6m/s | -49.3°C | 3.6% | 18.8hPa | 2.6V | 08:30:00 | 01:37:21 | 00:00:00 | |
| HSKMA3-T | 2026-08-31 12:07:03 | 49.18730 | 10.22180 | 315° | 27km/h | 27351m | 4.5m/s | -49°C | 0.2% | 18.7hPa | 2.7V | 18:12:15 | 01:37:24 | 00:00:00 | |
| BIOWL1-15 | 2026-08-31 12:07:02 | 49.18720 | 10.22201 | 287° | 16km/h | 27334m | 5.6m/s | -49.3°C | 0.3% | 18.8hPa | 2.6V | 18:12:15 | 01:37:21 | 00:00:00 | |
| DB0ND-19 | 2026-08-31 12:07:01 | 49.18720 | 10.22201 | 287° | 15km/h | 27334m | 5.6m/s | -49.3°C | 0.9% | 18.8hPa | 2.6V | 00:00:00 | 00:00:00 | 00:00:00 | |
| DM0DOS-11 | 2026-08-31 12:07:00 | 49.18718 | 10.22209 | 317° | 5km/h | 27323m | 6.7m/s | -49.3°C | 3.6% | 18.8hPa | 2.6V | 08:30:00 | 01:37:19 | 00:00:00 | |
| DK7TD | 2026-08-31 12:06:54 | 49.18709 | 10.22203 | 18° | 11km/h | 27299m | 6.4m/s | -49.3°C | 0.3% | 18.9hPa | 2.6V | 18:12:15 | 01:37:15 | 00:00:00 | |
| HSKMA3-T | 2026-08-31 12:06:53 | 49.18704 | 10.22204 | 329° | 13km/h | 27288m | 4.6m/s | -49.4°C | 0.3% | 18.9hPa | 2.7V | 18:12:15 | 01:37:13 | 00:00:00 | |
| DJ2DS-15 | 2026-08-31 12:06:52 | 49.18704 | 10.22204 | 329° | 13km/h | 27288m | 4.6m/s | 0°C | 0% | 0hPa | 2.7V | 00:00:00 | 01:37:13 | 00:00:00 | |
| AZAK | 2026-08-31 12:06:51 | 49.18704 | 10.22204 | 330° | 13km/h | 27288m | 4.6m/s | -49.4°C | 0.8% | 19.0hPa | 2.7V | 00:00:00 | 00:00:00 | 00:00:00 | |
| DM0DOS-11 | 2026-08-31 12:06:50 | 49.18690 | 10.22225 | 298° | 22km/h | 27266m | 4m/s | -49.3°C | 3.4% | 19hPa | 2.7V | 08:30:00 | 01:37:09 | 00:00:00 | |
| BIOWL1-15 | 2026-08-31 12:06:49 | 49.18696 | 10.22248 | 30° | 11km/h | 27222m | 4.8m/s | -49.1°C | 0.2% | 19.1hPa | 2.6V | 18:12:15 | 01:37:01 | 00:00:00 | |
| BIOWL9-15 | 2026-08-31 12:06:48 | 49.18688 | 10.22233 | 283° | 20km/h | 27262m | 6.1m/s | -49.3°C | 0.9% | 19.1hPa | 2.7V | 00:00:00 | 00:00:00 | 00:00:00 | |
| DL1XH-west | 2026-08-31 12:06:43 | 49.18697 | 10.22252 | 145° | 5km/h | 27233m | 6.4m/s | -49.2°C | 0.3% | 19.1hPa | 2.7V | 18:12:15 | 01:37:03 | 00:00:00 | |
| HSKMA3-T | 2026-08-31 12:06:41 | 49.18697 | 10.22250 | 64° | 7km/h | 27227m | 5.7m/s | -49.1°C | 0.2% | 19.1hPa | 2.7V | 18:12:15 | 01:37:02 | 00:00:00 | |
| DM0DOS-11 | 2026-08-31 12:06:40 | 49.18691 | 10.22246 | 352° | 9km/h | 27210m | 6.4m/s | -49.4°C | 3.5% | 19.2hPa | 2.7V | 08:30:00 | 01:36:59 | 00:00:00 | |
| DL1XH1-15 | 2026-08-31 12:06:40 | 49.18688 | 10.22250 | 280° | 7km/h | 27198m | 5.9m/s | -49.3°C | 3.4% | 19.2hPa | 2.6V | 08:30:00 | 01:36:57 | 00:00:00 | |
| BIOWL1-15 | 2026-08-31 12:06:37 | 49.18689 | 10.22247 | 316° | 7km/h | 27204m | 6m/s | -49.4°C | 0.2% | 19.2hPa | 2.7V | 18:12:15 | 01:36:58 | 00:00:00 | |
| DK7TD | 2026-08-31 12:06:31 | 49.18691 | 10.22267 | 238° | 11km/h | 27169m | 5.7m/s | -49.4°C | 0.2% | 19.3hPa | 2.7V | 18:12:15 | 01:36:52 | 00:00:00 | |
| HSKMA3-T | 2026-08-31 12:06:30 | 49.18693 | 10.22270 | 227° | 13km/h | 27163m | 7m/s | -49.4°C | 0.3% | 19.3hPa | 2.6V | 18:12:15 | 01:36:51 | 00:00:00 | |
| DM0DOS-11 | 2026-08-31 12:06:30 | 49.18699 | 10.22275 | 192° | 13km/h | 27151m | 5.3m/s | -49.4°C | 3.6% | 19.4hPa | 2.6V | 08:30:00 | 01:36:49 | 00:00:00 | |
| DF8AY | 2026-08-31 12:06:29 | 49.18696 | 10.22273 | 213° | 15km/h | 27156m | 5.6m/s | -49.5°C | 0.3% | 19.3hPa | 2.6V | 18:12:15 | 01:36:50 | 00:00:00 | |
| BIOWL1-15 | 2026-08-31 12:06:27 | 49.18702 | 10.22275 | 165° | 13km/h | 27145m | 6.9m/s | -49.4°C | 0.3% | 19.4hPa | 2.7V | 18:12:15 | 01:36:48 | 00:00:00 | |
| EDDB2-11 | 2026-08-31 12:06:27 | 49.18705 | 10.22272 | 138° | 15km/h | 27138m | 6.8m/s | -49.5°C | 0.9% | 19.4hPa | 2.6V | 00:00:00 | 00:00:00 | 00:00:00 | |
| DO3MHA-12 | 2026-08-31 12:06:25 | 49.18708 | 10.22267 | 126° | 13km/h | 27132m | 4.6m/s | -49.5°C | 3.5% | 19.4hPa | 2.6V | 00:00:00 | 01:36:46 | 00:00:00 | |
| OE5DXL-15 | 2026-08-31 12:06:24 | 49.18711 | 10.22261 | 126° | 7km/h | 27128m | 4.6m/s | -49.5°C | 3.6% | 19.4hPa | 2.6V | 00:00:00 | 01:36:45 | 00:00:00 | |
| DL1NUX | 2026-08-31 12:06:23 | 49.18723 | 10.22256 | 246° | 11km/h | 27099m | 5.5m/s | -49.4°C | 3.6% | 19.5hPa | 2.6V | 08:30:00 | 01:36:40 | 00:00:00 | |
| DL1XH-west | 2026-08-31 12:06:21 | 49.18722 | 10.22253 | 225° | 11km/h | 27105m | 5.2m/s | 0°C | 0% | 0hPa | 2.6V | 18:12:15 | 01:36:41 | 00:00:00 | |
| DM0DOS-11 | 2026-08-31 12:06:20 | 49.18724 | 10.22260 | 265° | 9km/h | 27093m | 6.4m/s | -49.4°C | 3.5% | 19.5hPa | 2.7V | 08:30:00 | 01:36:39 | 00:00:00 | |
| HSKMA3-T | 2026-08-31 12:06:19 | 49.18723 | 10.22256 | 247° | 11km/h | 27099m | 5.5m/s | -49.4°C | 0.3% | 19.5hPa | 2.6V | 18:12:15 | 01:36:40 | 00:00:00 | |
| DF8AY | 2026-08-31 12:06:18 | 49.18722 | 10.22267 | 304° | 5km/h | 27075m | 6.2m/s | -49.4°C | 0.3% | 19.6hPa | 2.6V | 18:12:15 | 01:36:36 | 00:00:00 | |
| DK7TD | 2026-08-31 12:06:18 | 49.18724 | 10.22260 | 266° | 9km/h | 27093m | 6.4m/s | -49.4°C | 0.3% | 19.5hPa | 2.7V | 18:12:15 | 01:36:39 | 00:00:00 | |
| BIOWL1-15 | 2026-08-31 12:06:18 | 49.18723 | 10.22265 | 310° | 5km/h | 27081m | 5.3m/s | -49.5°C | 0.3% | 19.6hPa | 2.7V | 18:12:15 | 01:36:37 | 00:00:00 | |
| DL1XH-west | 2026-08-31 12:06:11 | 49.18723 | 10.22270 | 124° | 4km/h | 27051m | 7m/s | 0°C | 0% | 0hPa | 2.7V | 18:12:15 | 01:36:32 | 00:00:00 | |
| DM0DOS-11 | 2026-08-31 12:06:10 | 49.18726 | 10.22264 | 156° | 7km/h | 27035m | 5.9m/s | -49.3°C | 3.5% | 19.7hPa | 2.7V | 08:30:00 | 01:36:29 | 00:00:00 | |
| HSKMA3-T | 2026-08-31 12:06:09 | 49.18724 | 10.22266 | 127° | 7km/h | 27041m | 4.2m/s | -49.2°C | 0.3% | 19.7hPa | 2.6V | 18:12:15 | 01:36:30 | 00:00:00 | |
| DK7TD | 2026-08-31 12:06:08 | 49.18726 | 10.22264 | 157° | 7km/h | 27035m | 5.9m/s | -49.3°C | 0.3% | 19.7hPa | 2.7V | 18:12:15 | 01:36:29 | 00:00:00 | |
| DL1NUX | 2026-08-31 12:06:08 | 49.18727 | 10.22264 | 196° | 9km/h | 27029m | 6.4m/s | -49.3°C | 3.6% | 19.7hPa | 2.7V | 08:30:00 | 01:36:28 | 00:00:00 | |
| BIOWL1-15 | 2026-08-31 12:06:05 | 49.18732 | 10.22269 | 224° | 11km/h | 27017m | 5.2m/s | -49.4°C | 0.3% | 19.8hPa | 2.6V | 18:12:15 | 01:36:26 | 00:00:00 | |
| DL1XH-west | 2026-08-31 12:06:01 | 49.18731 | 10.22273 | 354° | 9km/h | 26995m | 5.8m/s | 0°C | 0% | 0hPa | 2.7V | 18:12:15 | 01:36:22 | 00:00:00 | |
| DO9HM | 2026-08-31 12:06:01 | 49.18731 | 10.22273 | 355° | 9km/h | 26995m | 5.8m/s | -49.5°C | 0.9% | 19.8hPa | 2.6V | 00:00:00 | 00:00:00 | 00:00:00 | |
| DM0DOS-11 | 2026-08-31 12:06:00 | 49.18724 | 10.22279 | 308° | 9km/h | 26977m | 5.1m/s | -49.4°C | 3.5% | 19.9hPa | 2.6V | 08:30:00 | 01:36:19 | 00:00:00 | |
| DL1XH1-15 | 2026-08-31 12:06:00 | 49.18723 | 10.22283 | 214° | 2km/h | 26966m | 6.9m/s | -49.4°C | 3.6% | 19.9hPa | 2.7V | 08:30:00 | 01:36:17 | 00:00:00 | |
| DK7TD | 2026-08-31 12:05:58 | 49.18724 | 10.22279 | 309° | 9km/h | 26977m | 5.1m/s | -49.4°C | 0.3% | 19.9hPa | 2.6V | 18:12:15 | 01:36:19 | 00:00:00 | |
| BIOWL1-15 | 2026-08-31 12:05:55 | 49.18726 | 10.22281 | 161° | 11km/h | 26954m | 5.2m/s | -49.5°C | 0.3% | 19.9hPa | 2.6V | 18:12:15 | 01:36:15 | 00:00:00 | |
| OE5DXL-15 | 2026-08-31 12:05:54 | 49.18726 | 10.22281 | 162° | 7km/h | 26954m | 5.1m/s | -49.4°C | 3.5% | 19.9hPa | 2.7V | 00:00:00 | 00:00:00 | 00:00:00 | |
| DL1NUX | 2026-08-31 12:05:52 | 49.18737 | 10.22286 | 10° | 7km/h | 26913m | 5.4m/s | -49.4°C | 3.5% | 20.1hPa | 2.7V | 08:30:00 | 01:36:08 | 00:00:00 | |
| DL1XH-west | 2026-08-31 12:05:51 | 49.18735 | 10.22282 | 206° | 11km/h | 26936m | 4.8m/s | 0°C | 0% | 0hPa | 2.6V | 18:12:15 | 01:36:12 | 00:00:00 | |
| DM0DOS-11 | 2026-08-31 12:05:49 | 49.18739 | 10.22286 | 359° | 2km/h | 26919m | 6.2m/s | -49.5°C | 3.5% | 20.1hPa | 2.7V | 08:30:00 | 01:36:09 | 00:00:00 | |
| DK7TD | 2026-08-31 12:05:48 | 49.18739 | 10.22286 | 359° | 2km/h | 26919m | 6.2m/s | -49.5°C | 0.3% | 20.1hPa | 2.7V | 18:12:15 | 01:36:09 | 00:00:00 | |
| HSKMA3-T | 2026-08-31 12:05:47 | 49.18738 | 10.22286 | 10° | 7km/h | 26913m | 5.4m/s | -49.4°C | 0.3% | 20.1hPa | 2.7V | 18:12:15 | 01:36:08 | 00:00:00 | |
| DL1XH1-15 | 2026-08-31 12:05:47 | 49.18735 | 10.22286 | 358° | 11km/h | 26907m | 6m/s | -49.4°C | 3.4% | 20.1hPa | 2.7V | 08:30:00 | 01:36:07 | 00:00:00 | |
| DF8AY | 2026-08-31 12:05:45 | 49.18732 | 10.22286 | 347° | 13km/h | 26901m | 6.8m/s | -49.4°C | 0.3% | 20.1hPa | 2.6V | 18:12:15 | 01:36:06 | 00:00:00 | |
| BIOWL1-15 | 2026-08-31 12:05:44 | 49.18726 | 10.22290 | 354° | 4km/h | 26884m | 6.8m/s | -49.6°C | 0.2% | 20.2hPa | 2.7V | 18:12:15 | 01:36:03 | 00:00:00 | |
| DG1MJG | 2026-08-31 12:05:43 | 49.18729 | 10.22288 | 337° | 13km/h | 26895m | 5.5m/s | -49.4°C | 0.8% | 20.1hPa | 2.6V | 00:00:00 | 00:00:00 | 00:00:00 | |
| DF7PN | 2026-08-31 12:05:42 | 49.18725 | 10.22289 | 101° | 4km/h | 26877m | 6.3m/s | -49.7°C | 0.9% | 20.2hPa | 2.6V | 00:00:00 | 00:00:00 | 00:00:00 | |
| DL1XH1-15 | 2026-08-31 12:05:41 | 49.18735 | 10.22282 | 185° | 9km/h | 26848m | 4.8m/s | -49.7°C | 3.6% | 20.3hPa | 2.6V | 08:30:00 | 01:35:57 | 00:00:00 | |
| DF8AY-15 | 2026-08-31 12:05:41 | 49.18725 | 10.22289 | 102° | 7km/h | 26877m | 6.2m/s | 0°C | 0% | 0hPa | 2.6V | 00:00:00 | 01:36:02 | 00:00:00 | |
| DL1NUX | 2026-08-31 12:05:40 | 49.18737 | 10.22283 | 177° | 7km/h | 26843m | 6.1m/s | -49.7°C | 3.6% | 20.3hPa | 2.6V | 08:30:00 | 01:35:56 | 00:00:00 | |
| DK7TD | 2026-08-31 12:05:37 | 49.18732 | 10.22282 | 179° | 11km/h | 26853m | 5.9m/s | -49.7°C | 0.3% | 20.2hPa | 2.7V | 18:12:15 | 01:35:58 | 00:00:00 | |
| HSKMA3-T | 2026-08-31 12:05:37 | 49.18735 | 10.22282 | 186° | 9km/h | 26848m | 4.8m/s | -49.7°C | 0.4% | 20.3hPa | 2.6V | 18:12:15 | 01:35:57 | 00:00:00 | |
| DF8AY | 2026-08-31 12:05:35 | 49.18737 | 10.22283 | 177° | 7km/h | 26843m | 6.1m/s | -49.7°C | 0.3% | 20.3hPa | 2.6V | 18:12:15 | 01:35:56 | 00:00:00 | |
| BIOWL1-15 | 2026-08-31 12:05:33 | 49.18737 | 10.22279 | 330° | 7km/h | 26806m | 5.6m/s | -49.6°C | 0.3% | 20.4hPa | 2.6V | 18:12:15 | 01:35:50 | 00:00:00 | |
| DL1XH1-15 | 2026-08-31 12:05:31 | 49.18732 | 10.22279 | 23° | 7km/h | 26787m | 5.8m/s | -49.5°C | 3.6% | 20.5hPa | 2.7V | 08:30:00 | 01:35:47 | 00:00:00 | |
| S52SK | 2026-08-31 12:05:30 | 49.18740 | 10.22277 | 20° | 4km/h | 26820m | 7.0m/s | -49.6°C | 0% | 20.4hPa | 2.6V | 00:00:00 | 00:00:00 | 00:00:00 | |
| DM0DOS-11 | 2026-08-31 12:05:29 | 49.18736 | 10.22280 | 344° | 7km/h | 26800m | 6.8m/s | -49.6°C | 3.6% | 20.4hPa | 2.6V | 08:30:00 | 01:35:49 | 00:00:00 | |
| DK5PH-5 | 2026-08-31 12:05:29 | 49.18737 | 10.22279 | 330° | 9km/h | 26807m | 5.5m/s | -49.5°C | 3.6% | 20.4hPa | 2.6V | 00:00:00 | 01:35:50 | 00:00:00 | |
| DL1NUX | 2026-08-31 12:05:28 | 49.18731 | 10.22278 | 21° | 5km/h | 26781m | 6.7m/s | -49.6°C | 3.6% | 20.5hPa | 2.6V | 08:30:00 | 01:35:46 | 00:00:00 | |
| DK7TD | 2026-08-31 12:05:27 | 49.18734 | 10.22280 | 11° | 7km/h | 26793m | 6.6m/s | -49.5°C | 0.3% | 20.5hPa | 2.7V | 18:12:15 | 01:35:48 | 00:00:00 | |
| HSKMA3-T | 2026-08-31 12:05:26 | 49.18732 | 10.22279 | 23° | 7km/h | 26787m | 5.8m/s | -49.5°C | 0.3% | 20.5hPa | 2.7V | 18:12:15 | 01:35:47 | 00:00:00 | |
| DF8AY | 2026-08-31 12:05:24 | 49.18729 | 10.22278 | 19° | 2km/h | 26768m | 5.6m/s | -49.6°C | 0.3% | 20.5hPa | 2.7V | 18:12:15 | 01:35:44 | 00:00:00 | |
| OE5DXL-15 | 2026-08-31 12:05:24 | 49.18730 | 10.22278 | 6° | 11km/h | 26775m | 6.6m/s | -49.6°C | 3.6% | 20.4hPa | 2.6V | 00:00:00 | 00:00:00 | 00:00:00 | |
| DJ2DS-15 | 2026-08-31 12:05:23 | 49.18729 | 10.22278 | 18° | 2km/h | 26768m | 5.6m/s | -49.6°C | 0.8% | 20.5hPa | 2.7V | 00:00:00 | 00:00:00 | 00:00:00 | |
| OE9MKV-15 | 2026-08-31 12:05:22 | 49.18729 | 10.22277 | 73° | 16km/h | 26763m | 6.0m/s | -49.5°C | 3.6% | 20.5hPa | 2.7V | 00:00:00 | 01:35:43 | 00:00:00 | |
| DL1XH1-15 | 2026-08-31 12:05:21 | 49.18727 | 10.22263 | 16° | 5km/h | 26726m | 5.9m/s | -49.5°C | 3.5% | 20.6hPa | 2.7V | 08:30:00 | 01:35:37 | 00:00:00 | |
| BIOWL1-15 | 2026-08-31 12:05:19 | 49.18729 | 10.22265 | 88° | 5km/h | 26739m | 6.9m/s | -49.6°C | 0.3% | 20.6hPa | 2.7V | 18:12:15 | 01:35:39 | 00:00:00 | |
| DO3MHA-11 | 2026-08-31 12:05:19 | 49.18729 | 10.22268 | 95° | 11km/h | 26745m | 5.2m/s | -49.5°C | 3.5% | 20.6hPa | 2.6V | 00:00:00 | 01:35:40 | 00:00:00 | |
| DL1NUX | 2026-08-31 12:05:18 | 49.18726 | 10.22262 | 20° | 7km/h | 26719m | 7m/s | -49.5°C | 3.5% | 20.7hPa | 2.6V | 08:30:00 | 01:35:36 | 00:00:00 | |
| HSKMA3-T | 2026-08-31 12:05:16 | 49.18726 | 10.22262 | 21° | 7km/h | 26719m | 7m/s | -49.5°C | 0.3% | 20.7hPa | 2.6V | 18:12:15 | 01:35:36 | 00:00:00 | |
| DK7TD | 2026-08-31 12:05:16 | 49.18727 | 10.22263 | 16° | 5km/h | 26726m | 5.9m/s | -49.5°C | 0.3% | 20.6hPa | 2.7V | 18:12:15 | 01:35:37 | 00:00:00 | |
| DF8AY | 2026-08-31 12:05:14 | 49.18717 | 10.22257 | 10° | 15km/h | 26701m | 7.3m/s | -49.5°C | 0.2% | 20.7hPa | 2.7V | 18:12:15 | 01:35:33 | 00:00:00 | |
| S52SK | 2026-08-31 12:05:13 | 49.18723 | 10.22260 | 26° | 11km/h | 26713m | 6.2m/s | -49.5°C | 0% | 20.7hPa | 2.6V | 00:00:00 | 00:00:00 | 00:00:00 | |
| DG9SBQ-11 | 2026-08-31 12:05:12 | 49.18721 | 10.22258 | 22° | 15km/h | 26707m | 5.1m/s | -49.5°C | 0.8% | 20.7hPa | 2.6V | 00:00:00 | 00:00:00 | 00:00:00 | |
| DL1XH1-15 | 2026-08-31 12:05:11 | 49.18694 | 10.22243 | 38° | 16km/h | 26664m | 6.4m/s | -49.4°C | 3.5% | 20.9hPa | 2.6V | 08:30:00 | 01:35:27 | 00:00:00 | |
| DF7PN | 2026-08-31 12:05:10 | 49.18709 | 10.22256 | 7° | 15km/h | 26689m | 5.3m/s | -49.6°C | 0.9% | 20.8hPa | 2.6V | 00:00:00 | 00:00:00 | 00:00:00 | |
| DO3MHA-11 | 2026-08-31 12:05:09 | 49.18705 | 10.22254 | 20° | 13km/h | 26682m | 7.0m/s | -49.4°C | 3.5% | 20.7hPa | 2.6V | 00:00:00 | 01:35:30 | 00:00:00 | |
| DL1NUX | 2026-08-31 12:05:08 | 49.18691 | 10.22240 | 31° | 13km/h | 26657m | 6.7m/s | -49.5°C | 3.6% | 20.9hPa | 2.6V | 08:30:00 | 01:35:26 | 00:00:00 | |
| DK7TD | 2026-08-31 12:05:06 | 49.18694 | 10.22243 | 39° | 16km/h | 26664m | 6.4m/s | -49.4°C | 0.3% | 20.9hPa | 2.6V | 18:12:15 | 01:35:27 | 00:00:00 | |
| HSKMA3-T | 2026-08-31 12:05:04 | 49.18689 | 10.22238 | 20° | 9km/h | 26651m | 5.4m/s | -49.5°C | 0.3% | 20.9hPa | 2.6V | 18:12:15 | 01:35:25 | 00:00:00 | |
| DF8AY | 2026-08-31 12:05:03 | 49.18687 | 10.22237 | 18° | 7km/h | 26646m | 5.2m/s | -49.6°C | 0.3% | 20.9hPa | 2.7V | 18:12:15 | 01:35:24 | 00:00:00 | |
| DL1XH1-15 | 2026-08-31 12:05:01 | 49.18669 | 10.22225 | 9° | 16km/h | 26603m | 5.9m/s | -49.7°C | 3.5% | 21.1hPa | 2.7V | 08:30:00 | 01:35:17 | 00:00:00 | |
| DK7TD | 2026-08-31 12:04:56 | 49.18669 | 10.22225 | 9° | 16km/h | 26603m | 5.9m/s | -49.7°C | 0.3% | 21.1hPa | 2.7V | 18:12:15 | 01:35:17 | 00:00:00 | |
| HSKMA3-T | 2026-08-31 12:04:53 | 49.18655 | 10.22218 | 17° | 20km/h | 26584m | 5.5m/s | -49.6°C | 0.3% | 21.1hPa | 2.7V | 18:12:15 | 01:35:14 | 00:00:00 | |
| DM0DOS-11 | 2026-08-31 12:04:53 | 49.18639 | 10.22215 | 30° | 7km/h | 26554m | 7.1m/s | -49.8°C | 3.6% | 21.2hPa | 2.7V | 08:30:00 | 01:35:09 | 00:00:00 | |
| DF8AY | 2026-08-31 12:04:52 | 49.18650 | 10.22217 | 10° | 18km/h | 26577m | 7.1m/s | -49.7°C | 0.3% | 21.1hPa | 2.7V | 18:12:15 | 01:35:13 | 00:00:00 | |
| DL0LBS | 2026-08-31 12:04:52 | 49.18650 | 10.22217 | 11° | 16km/h | 26578m | 7.1m/s | -49.7°C | 0.9% | 21.1hPa | 2.6V | 00:00:00 | 00:00:00 | 00:00:00 | |
| DB0NH | 2026-08-31 12:04:50 | 49.18643 | 10.22217 | 356° | 15km/h | 26566m | 4.8m/s | -49.7°C | 3.6% | 21.1hPa | 2.6V | 00:00:00 | 01:35:11 | 00:00:00 | |
| DO3MHA-11 | 2026-08-31 12:04:49 | 49.18641 | 10.22216 | 10° | 16km/h | 26561m | 5.0m/s | -49.8°C | 3.6% | 21.2hPa | 2.6V | 00:00:00 | 01:35:10 | 00:00:00 | |
| DL1NUX | 2026-08-31 12:04:46 | 49.18632 | 10.22206 | 28° | 15km/h | 26536m | 5.3m/s | -49.9°C | 3.6% | 21.3hPa | 2.6V | 08:30:00 | 01:35:06 | 00:00:00 | |
| BIOWL1-15 | 2026-08-31 12:04:45 | 49.18606 | 10.22210 | 355° | 24km/h | 26504m | 5.9m/s | -49.6°C | 0.3% | 21.4hPa | 2.6V | 18:12:15 | 01:35:01 | 00:00:00 | |
| DK7TD | 2026-08-31 12:04:45 | 49.18632 | 10.22206 | 28° | 15km/h | 26536m | 5.3m/s | -49.9°C | 0.3% | 21.3hPa | 2.6V | 18:12:15 | 01:35:06 | 00:00:00 | |
| HSKMA3-T | 2026-08-31 12:04:43 | 49.18624 | 10.22204 | 352° | 20km/h | 26523m | 6.8m/s | -49.9°C | 0.3% | 21.3hPa | 2.6V | 18:12:15 | 01:35:04 | 00:00:00 | |
| DM0DOS-11 | 2026-08-31 12:04:43 | 49.18596 | 10.22209 | 8° | 15km/h | 26493m | 6.1m/s | -49.7°C | 3.6% | 21.4hPa | 2.7V | 08:30:00 | 01:34:59 | 00:00:00 | |
| DF8AY | 2026-08-31 12:04:42 | 49.18618 | 10.22206 | 346° | 24km/h | 26517m | 5.8m/s | -49.7°C | 0.3% | 21.3hPa | 2.7V | 18:12:15 | 01:35:03 | 00:00:00 | |
| DG9SBQ-11 | 2026-08-31 12:04:41 | 49.18618 | 10.22206 | 347° | 24km/h | 26517m | 5.8m/s | -49.7°C | 0.9% | 21.3hPa | 2.6V | 00:00:00 | 00:00:00 | 00:00:00 | |
| DL1NUX | 2026-08-31 12:04:40 | 49.18588 | 10.22207 | 21° | 9km/h | 26474m | 5.7m/s | -49.8°C | 3.6% | 21.5hPa | 2.6V | 08:30:00 | 01:34:56 | 00:00:00 | |
| DF8AY | 2026-08-31 12:04:37 | 49.18577 | 10.22196 | 18° | 15km/h | 26450m | 5.7m/s | -49.9°C | 0.4% | 21.6hPa | 2.7V | 18:12:15 | 01:34:52 | 00:00:00 | |
| DK7TD | 2026-08-31 12:04:35 | 49.18588 | 10.22207 | 22° | 9km/h | 26474m | 5.7m/s | -49.8°C | 0.3% | 0hPa | 2.6V | 18:12:15 | 01:34:56 | 00:00:00 | |
| BIOWL1-15 | 2026-08-31 12:04:32 | 49.18581 | 10.22199 | 33° | 15km/h | 26455m | 5.1m/s | -49.8°C | 0.3% | 21.6hPa | 2.7V | 18:12:15 | 01:34:53 | 00:00:00 | |
| DK7TD | 2026-08-31 12:04:24 | 49.18552 | 10.22211 | 329° | 13km/h | 26408m | 6.1m/s | -49.9°C | 0.3% | 0hPa | 2.6V | 18:12:15 | 01:34:45 | 00:00:00 | |
| DF8AY | 2026-08-31 12:04:21 | 49.18546 | 10.22219 | 329° | 7km/h | 26391m | 4.9m/s | -49.7°C | 0.3% | 21.7hPa | 2.6V | 18:12:15 | 01:34:42 | 00:00:00 | |
| DL1XH1-15 | 2026-08-31 12:04:21 | 49.18532 | 10.22212 | 7° | 13km/h | 26362m | 6.9m/s | -49.7°C | 3.4% | 21.8hPa | 2.7V | 08:30:00 | 01:34:37 | 00:00:00 | |
| DK7TD | 2026-08-31 12:04:13 | 49.18525 | 10.22219 | 300° | 11km/h | 26343m | 6.8m/s | -49.9°C | 0.3% | 0hPa | 2.6V | 18:12:15 | 01:34:34 | 00:00:00 | |
| DF8AY | 2026-08-31 12:04:11 | 49.18523 | 10.22225 | 286° | 9km/h | 26331m | 5m/s | -49.8°C | 0.4% | 21.9hPa | 2.7V | 18:12:15 | 01:34:32 | 00:00:00 | |
| BIOWL1-15 | 2026-08-31 12:04:11 | 49.18522 | 10.22232 | 282° | 11km/h | 26320m | 6.7m/s | -50°C | 0.4% | 22hPa | 2.6V | 18:12:15 | 01:34:30 | 00:00:00 | |
| DL1XH1-15 | 2026-08-31 12:04:10 | 49.18519 | 10.22240 | 356° | 9km/h | 26303m | 5.6m/s | -50.1°C | 3.6% | 22.1hPa | 2.6V | 08:30:00 | 01:34:27 | 00:00:00 | |
| HSKMA3-T | 2026-08-31 12:04:10 | 49.18523 | 10.22229 | 282° | 9km/h | 26326m | 5.2m/s | -49.9°C | 0.3% | 22hPa | 2.6V | 18:12:15 | 01:34:31 | 00:00:00 | |
| DL1NUX | 2026-08-31 12:04:10 | 49.18517 | 10.22239 | 28° | 11km/h | 26297m | 7.2m/s | -50.1°C | 3.7% | 22.1hPa | 2.6V | 08:30:00 | 01:34:26 | 00:00:00 | |
| DK7TD | 2026-08-31 12:04:03 | 49.18511 | 10.22232 | 47° | 16km/h | 26284m | 5.1m/s | 0°C | 0% | 0hPa | 2.7V | 18:12:15 | 01:34:24 | 00:00:00 | |
| DM0DOS-11 | 2026-08-31 12:04:03 | 49.18499 | 10.22232 | 312° | 13km/h | 26256m | 6.6m/s | -50°C | 3.5% | 22.2hPa | 2.6V | 08:30:00 | 01:34:19 | 00:00:00 | |
| AZAK | 2026-08-31 12:04:02 | 49.18511 | 10.22232 | 48° | 16km/h | 26285m | 5.1m/s | -50.0°C | 0.9% | 22.1hPa | 2.6V | 00:00:00 | 00:00:00 | 00:00:00 | |
| S52SK | 2026-08-31 12:04:01 | 49.18508 | 10.22227 | 39° | 15km/h | 26279m | 6.3m/s | 0°C | 0% | 0hPa | 2.6V | 00:00:00 | 00:00:00 | 00:00:00 | |
| DL1NUX | 2026-08-31 12:04:00 | 49.18491 | 10.22243 | 311° | 16km/h | 26238m | 6.5m/s | -50°C | 3.5% | 22.3hPa | 2.6V | 08:30:00 | 01:34:16 | 00:00:00 | |
| BIOWL1-15 | 2026-08-31 12:04:00 | 49.18503 | 10.22226 | 334° | 11km/h | 26267m | 5m/s | -50.2°C | 0.3% | 22.2hPa | 2.6V | 18:12:15 | 01:34:21 | 00:00:00 | |
| DL1ZP-14 | 2026-08-31 12:03:56 | 49.18494 | 10.22239 | 314° | 13km/h | 26244m | 5.7m/s | -50.1°C | 0.9% | 22.3hPa | 2.7V | 00:00:00 | 00:00:00 | 00:00:00 | |
| DB0ND-19 | 2026-08-31 12:03:55 | 49.18489 | 10.22248 | 307° | 16km/h | 26232m | 6.4m/s | -50.1°C | 0.9% | 22.3hPa | 2.7V | 00:00:00 | 00:00:00 | 00:00:00 | |
| DL9SK-14 | 2026-08-31 12:03:54 | 49.18486 | 10.22253 | 310° | 15km/h | 26226m | 5.1m/s | -50.2°C | 0.9% | 22.3hPa | 2.7V | 00:00:00 | 00:00:00 | 00:00:00 | |
| DM0DOS-11 | 2026-08-31 12:03:53 | 49.18476 | 10.22254 | 32° | 7km/h | 26196m | 6.8m/s | -50.5°C | 3.7% | 22.4hPa | 2.7V | 08:30:00 | 01:34:09 | 00:00:00 | |
| DK7TD | 2026-08-31 12:03:53 | 49.18486 | 10.22253 | 310° | 16km/h | 26226m | 5.1m/s | 0°C | 0% | 0hPa | 2.7V | 18:12:15 | 01:34:14 | 00:00:00 | |
| SONCRA | 2026-08-31 12:03:52 | 49.18483 | 10.22257 | 321° | 11km/h | 26220m | 5.3m/s | -50.3°C | 0.8% | 22.4hPa | 2.7V | 00:00:00 | 00:00:00 | 00:00:00 | |
| EDDB2-11 | 2026-08-31 12:03:51 | 49.18481 | 10.22259 | 353° | 7km/h | 26214m | 7.0m/s | -50.2°C | 0.9% | 22.4hPa | 2.7V | 00:00:00 | 00:00:00 | 00:00:00 | |
| DL1XH1-15 | 2026-08-31 12:03:50 | 49.18473 | 10.22253 | 357° | 5km/h | 26184m | 5.3m/s | -50.5°C | 3.7% | 22.4hPa | 2.7V | 08:30:00 | 01:34:07 | 00:00:00 | |
| DL1NUX | 2026-08-31 12:03:50 | 49.18471 | 10.22253 | 355° | 5km/h | 26178m | 6.4m/s | -50.6°C | 3.7% | 22.5hPa | 2.6V | 08:30:00 | 01:34:06 | 00:00:00 | |
| BIOWL1-15 | 2026-08-31 12:03:49 | 49.18477 | 10.22256 | 41° | 9km/h | 26202m | 5.2m/s | -50.4°C | 0.4% | 22.4hPa | 2.6V | 18:12:15 | 01:34:10 | 00:00:00 | |
| DF8AY | 2026-08-31 12:03:47 | 49.18467 | 10.22265 | 280° | 15km/h | 26155m | 5.3m/s | -50.6°C | 0.4% | 22.5hPa | 2.7V | 18:12:15 | 01:34:02 | 00:00:00 | |
| NBG1-10 | 2026-08-31 12:03:47 | 49.18474 | 10.22253 | 11° | 9km/h | 26190m | 5.7m/s | -50.4°C | 3.7% | 22.4hPa | 2.6V | 00:00:00 | 01:34:08 | 00:00:00 | |
| DO3MHA-12 | 2026-08-31 12:03:45 | 49.18471 | 10.22253 | 356° | 9km/h | 26179m | 6.3m/s | -50.5°C | 3.7% | 22.4hPa | 2.6V | 00:00:00 | 01:34:06 | 08:30:00 | |
| DM0DOS-11 | 2026-08-31 12:03:43 | 49.18465 | 10.22276 | 333° | 5km/h | 26138m | 5.9m/s | -50.6°C | 3.7% | 22.6hPa | 2.7V | 08:30:00 | 01:33:59 | 00:00:00 | |
| DK7TD | 2026-08-31 12:03:42 | 49.18468 | 10.22260 | 285° | 13km/h | 26161m | 6.8m/s | 0°C | 0% | 0hPa | 2.7V | 18:12:15 | 01:34:03 | 00:00:00 | |
| BIOWL1-15 | 2026-08-31 12:03:41 | 49.18466 | 10.22274 | 288° | 9km/h | 26144m | 6.7m/s | -50.8°C | 0.4% | 22.6hPa | 2.6V | 18:12:15 | 01:34:00 | 00:00:00 | |
| DL1XH1-15 | 2026-08-31 12:03:40 | 49.18462 | 10.22276 | 23° | 7km/h | 26126m | 6.2m/s | -50.7°C | 3.7% | 22.7hPa | 2.6V | 08:30:00 | 01:33:57 | 00:00:00 | |
| DL1NUX | 2026-08-31 12:03:40 | 49.18460 | 10.22275 | 12° | 7km/h | 26120m | 6.8m/s | -50.8°C | 3.7% | 22.7hPa | 2.6V | 08:30:00 | 01:33:56 | 00:00:00 | |
| HSKMA3-T | 2026-08-31 12:03:38 | 49.18465 | 10.22276 | 334° | 5km/h | 26138m | 5.9m/s | -50.6°C | 0.4% | 22.6hPa | 2.7V | 18:12:15 | 01:33:59 | 00:00:00 | |
| DC4HF-4 | 2026-08-31 12:03:38 | 49.18465 | 10.22276 | 333° | 4km/h | 26138m | 5.9m/s | -50.6°C | 0.9% | 22.6hPa | 2.6V | 00:00:00 | 00:00:00 | 00:00:00 | |
| DF7PN | 2026-08-31 12:03:37 | 49.18463 | 10.22276 | 17° | 5km/h | 26132m | 5.4m/s | -50.7°C | 0.9% | 22.6hPa | 2.6V | 00:00:00 | 00:00:00 | 00:00:00 | |
| PG1ADW-2 | 2026-08-31 12:03:36 | 49.18462 | 10.22275 | 24° | 7km/h | 26127m | 6.2m/s | -50.7°C | 3.7% | 22.6hPa | 2.6V | 00:00:00 | 00:00:00 | 00:00:00 | |
| DO3MHA-12 | 2026-08-31 12:03:35 | 49.18460 | 10.22275 | 13° | 9km/h | 26120m | 6.8m/s | -50.7°C | 3.7% | 22.6hPa | 2.6V | 00:00:00 | 01:33:56 | 00:00:00 | |
| DM0DOS-11 | 2026-08-31 12:03:33 | 49.18445 | 10.22280 | 292° | 9km/h | 26081m | 6.7m/s | -50.8°C | 3.8% | 22.8hPa | 2.6V | 08:30:00 | 01:33:49 | 00:00:00 | |
| IW2NTF | 2026-08-31 12:03:32 | 49.18447 | 10.22277 | 326° | 9km/h | 26087m | 5.3m/s | -50.8°C | 3.8% | 22.8hPa | 2.6V | 08:30:00 | 01:33:50 | 00:00:00 | |
| DK7TD | 2026-08-31 12:03:32 | 49.18454 | 10.22275 | 355° | 11km/h | 26103m | 6.4m/s | 0°C | 0% | 0hPa | 2.7V | 18:12:15 | 01:33:53 | 00:00:00 | |
| DL1NUX | 2026-08-31 12:03:30 | 49.18445 | 10.22291 | 276° | 7km/h | 26063m | 6.4m/s | -50.9°C | 3.9% | 22.9hPa | 2.6V | 08:30:00 | 01:33:46 | 00:00:00 | |
| DL1XH1-15 | 2026-08-31 12:03:30 | 49.18445 | 10.22288 | 266° | 11km/h | 26069m | 5.2m/s | -50.9°C | 3.9% | 22.9hPa | 2.7V | 08:30:00 | 01:33:47 | 00:00:00 | |
| DF8AY | 2026-08-31 12:03:29 | 49.18447 | 10.22277 | 327° | 9km/h | 26087m | 5.3m/s | -50.8°C | 0.5% | 22.8hPa | 2.6V | 18:12:15 | 01:33:50 | 00:00:00 | |
| BIOWL1-15 | 2026-08-31 12:03:28 | 49.18445 | 10.22280 | 292° | 9km/h | 26081m | 6.7m/s | -50.8°C | 0.4% | 22.8hPa | 2.6V | 18:12:15 | 01:33:49 | 00:00:00 | |
| HSKMA3-T | 2026-08-31 12:03:27 | 49.18445 | 10.22283 | 271° | 11km/h | 26075m | 5.4m/s | -50.8°C | 0.4% | 22.8hPa | 2.7V | 18:12:15 | 01:33:48 | 00:00:00 | |
| DO3MHA-12 | 2026-08-31 12:03:25 | 49.18445 | 10.22291 | 277° | 7km/h | 26064m | 6.4m/s | -50.8°C | 3.9% | 22.9hPa | 2.7V | 00:00:00 | 01:33:46 | 00:00:00 | |
| OE5DXL-15 | 2026-08-31 12:03:24 | 49.18444 | 10.22293 | 315° | 11km/h | 26058m | 5.4m/s | -50.7°C | 3.8% | 22.8hPa | 2.7V | 00:00:00 | 00:00:00 | 00:00:00 | |
| DM0DOS-11 | 2026-08-31 12:03:23 | 49.18435 | 10.22296 | 342° | 5km/h | 26026m | 5.2m/s | -50.8°C | 3.8% | 23hPa | 2.7V | 08:30:00 | 01:33:39 | 00:00:00 | |
| DL9SK-14 | 2026-08-31 12:03:23 | 49.18441 | 10.22294 | 6° | 7km/h | 26049m | 4.7m/s | -50.9°C | 0.9% | 22.9hPa | 2.7V | 00:00:00 | 00:00:00 | 00:00:00 | |
| SONCRA | 2026-08-31 12:03:21 | 49.18439 | 10.22294 | 0° | 5km/h | 26043m | 6.7m/s | -50.9°C | 0.9% | 23.0hPa | 2.7V | 00:00:00 | 00:00:00 | 00:00:00 | |
| DL1XH1-15 | 2026-08-31 12:03:20 | 49.18431 | 10.22296 | 13° | 13km/h | 26013m | 6.2m/s | -50.6°C | 3.7% | 23.1hPa | 2.7V | 08:30:00 | 01:33:37 | 00:00:00 | |
| DL1NUX | 2026-08-31 12:03:20 | 49.18428 | 10.22295 | 15° | 15km/h | 26008m | 5.2m/s | -50.6°C | 3.6% | 23.1hPa | 2.6V | 08:30:00 | 01:33:36 | 00:00:00 | |
| DK7TD | 2026-08-31 12:03:19 | 49.18437 | 10.22295 | 330° | 5km/h | 26031m | 4.9m/s | 0°C | 0% | 0hPa | 2.6V | 18:12:15 | 01:33:40 | 00:00:00 | |
| DL1XH-west | 2026-08-31 12:03:18 | 49.18435 | 10.22296 | 342° | 5km/h | 26026m | 5.2m/s | -50.8°C | 0.4% | 23hPa | 2.7V | 18:12:15 | 01:33:39 | 00:00:00 | |
| BIOWL1-15 | 2026-08-31 12:03:17 | 49.18434 | 10.22296 | 1° | 9km/h | 26020m | 6.6m/s | -50.8°C | 0.4% | 23hPa | 2.7V | 18:12:15 | 01:33:38 | 00:00:00 | |
| HSKMA3-T | 2026-08-31 12:03:16 | 49.18431 | 10.22296 | 14° | 13km/h | 26014m | 6.2m/s | -50.6°C | 0.4% | 23.1hPa | 2.7V | 18:12:15 | 01:33:37 | 00:00:00 | |
| PG1ADW-2 | 2026-08-31 12:03:16 | 49.18431 | 10.22296 | 14° | 13km/h | 26014m | 6.2m/s | -50.6°C | 3.7% | 23.0hPa | 2.6V | 00:00:00 | 01:33:37 | 00:00:00 | |
| DJ8HS-15 | 2026-08-31 12:03:15 | 49.18428 | 10.22294 | 16° | 13km/h | 26008m | 5.2m/s | -50.5°C | 3.6% | 23.0hPa | 2.6V | 00:00:00 | 01:33:36 | 00:00:00 | |
| NBG1-10 | 2026-08-31 12:03:14 | 49.18425 | 10.22293 | 10° | 15km/h | 26003m | 5.8m/s | -50.6°C | 3.7% | 23.1hPa | 2.6V | 00:00:00 | 01:33:35 | 00:00:00 | |
| DM0DOS-11 | 2026-08-31 12:03:12 | 49.18406 | 10.22306 | 329° | 15km/h | 25969m | 4.7m/s | -50.6°C | 3.8% | 23.2hPa | 2.7V | 08:30:00 | 01:33:29 | 00:00:00 | |
| DL1XH1-15 | 2026-08-31 12:03:10 | 49.18402 | 10.22311 | 310° | 7km/h | 25957m | 5.8m/s | -50.6°C | 3.8% | 23.2hPa | 2.6V | 08:30:00 | 01:33:27 | 00:00:00 | |
| DK7TD | 2026-08-31 12:03:09 | 49.18410 | 10.22303 | 333° | 16km/h | 25974m | 5m/s | 0°C | 0% | 0hPa | 2.6V | 18:12:15 | 01:33:30 | 00:00:00 | |
| DL1XH-west | 2026-08-31 12:03:07 | 49.18404 | 10.22309 | 322° | 11km/h | 25963m | 6.7m/s | -50.6°C | 0.5% | 23.2hPa | 2.7V | 18:12:15 | 01:33:28 | 00:00:00 | |
| HSKMA3-T | 2026-08-31 12:03:06 | 49.18402 | 10.22311 | 311° | 7km/h | 25957m | 5.8m/s | -50.6°C | 0.5% | 23.3hPa | 2.6V | 18:12:15 | 01:33:27 | 00:00:00 | |
| DO3MHA-12 | 2026-08-31 12:03:05 | 49.18401 | 10.22312 | 322° | 13km/h | 25952m | 4.9m/s | -50.6°C | 3.8% | 23.2hPa | 2.7V | 00:00:00 | 01:33:26 | 00:00:00 | |
| DF3TZ-5 | 2026-08-31 12:03:04 | 49.18400 | 10.22313 | 346° | 4km/h | 25946m | 6.3m/s | -50.7°C | 0.9% | 23.3hPa | 2.7V | 00:00:00 | 00:00:00 | 00:00:00 | |
| DC4HF-4 | 2026-08-31 12:03:02 | 49.18396 | 10.22314 | 358° | 9km/h | 25935m | 5.0m/s | -50.7°C | 0.9% | 23.4hPa | 2.7V | 00:00:00 | 00:00:00 | 00:00:00 | |
| DL1XH1-15 | 2026-08-31 12:03:00 | 49.18375 | 10.22334 | 324° | 26km/h | 25900m | 4.9m/s | -50.5°C | 3.6% | 23.4hPa | 2.7V | 08:30:00 | 01:33:17 | 00:00:00 | |
| DL1NUX | 2026-08-31 12:03:00 | 49.18370 | 10.22340 | 320° | 26km/h | 25895m | 5.7m/s | -50.5°C | 3.6% | 23.5hPa | 2.6V | 08:30:00 | 01:33:16 | 00:00:00 | |
| DM0DOS-11 | 2026-08-31 12:03:00 | 49.18385 | 10.22323 | 321° | 20km/h | 25912m | 6.2m/s | -50.5°C | 3.7% | 23.4hPa | 2.6V | 08:30:00 | 01:33:19 | 00:00:00 | |
| DL1XH-west | 2026-08-31 12:02:57 | 49.18380 | 10.22328 | 325° | 24km/h | 25906m | 6.3m/s | -50.5°C | 0.4% | 23.4hPa | 2.7V | 18:12:15 | 01:33:18 | 00:00:00 | |
| DF8AY | 2026-08-31 12:02:55 | 49.18354 | 10.22359 | 5° | 11km/h | 25867m | 5.5m/s | -50.4°C | 0.3% | 23.6hPa | 2.6V | 18:12:15 | 01:33:11 | 00:00:00 | |
| HSKMA3-T | 2026-08-31 12:02:55 | 49.18370 | 10.22340 | 320° | 26km/h | 25895m | 5.7m/s | -50.5°C | 0.4% | 23.5hPa | 2.6V | 18:12:15 | 01:33:16 | 00:00:00 | |
| DB0ND-19 | 2026-08-31 12:02:52 | 49.18359 | 10.22356 | 321° | 13km/h | 25879m | 5.5m/s | -50.4°C | 0.9% | 23.6hPa | 2.7V | 00:00:00 | 00:00:00 | 00:00:00 | |
| DF8AY-15 | 2026-08-31 12:02:51 | 49.18356 | 10.22358 | 343° | 9km/h | 25873m | 6.4m/s | 0°C | 0% | 0hPa | 2.7V | 00:00:00 | 01:33:12 | 00:00:00 | |
| DL1XH1-15 | 2026-08-31 12:02:50 | 49.18344 | 10.22362 | 321° | 15km/h | 25846m | 4.2m/s | -50.7°C | 3.7% | 23.7hPa | 2.7V | 08:30:00 | 01:33:07 | 00:00:00 | |
| DL1NUX | 2026-08-31 12:02:50 | 49.18341 | 10.22366 | 324° | 20km/h | 25841m | 5.9m/s | -50.8°C | 3.8% | 23.7hPa | 2.6V | 08:30:00 | 01:33:06 | 00:00:00 | |
| DK7TD | 2026-08-31 12:02:49 | 49.18351 | 10.22358 | 13° | 9km/h | 25861m | 5.1m/s | 0°C | 0% | 0hPa | 2.6V | 18:12:15 | 01:33:10 | 00:00:00 | |
| DL1XH-west | 2026-08-31 12:02:47 | 49.18347 | 10.22359 | 328° | 9km/h | 25850m | 4.2m/s | -50.5°C | 0.4% | 23.7hPa | 2.7V | 18:12:15 | 01:33:08 | 00:00:00 | |
| BIOWL1-15 | 2026-08-31 12:02:44 | 49.18336 | 10.22371 | 326° | 27km/h | 25835m | 5.8m/s | -50.8°C | 0.4% | 23.7hPa | 2.6V | 18:12:15 | 01:33:05 | 00:00:00 | |
| NBG1-10 | 2026-08-31 12:02:41 | 49.18318 | 10.22392 | 319° | 15km/h | 25820m | 6.0m/s | -50.7°C | 3.7% | 23.7hPa | 2.6V | 00:00:00 | 01:33:02 | 00:00:00 | |
| DL1NUX | 2026-08-31 12:02:39 | 49.18295 | 10.22418 | 336° | 15km/h | 25787m | 5.2m/s | -50.5°C | 3.8% | 23.9hPa | 2.6V | 08:30:00 | 01:32:56 | 00:00:00 | |
| DK7TD | 2026-08-31 12:02:38 | 49.18305 | 10.22410 | 322° | 16km/h | 25803m | 5.8m/s | 0°C | 0% | 0hPa | 2.7V | 18:12:15 | 01:32:59 | 00:00:00 | |
| DL1XH-west | 2026-08-31 12:02:37 | 49.18302 | 10.22413 | 333° | 16km/h | 25798m | 6m/s | -50.7°C | 0.4% | 23.9hPa | 2.7V | 18:12:15 | 01:32:58 | 00:00:00 | |
| HSKMA3-T | 2026-08-31 12:02:33 | 49.18290 | 10.22424 | 307° | 15km/h | 25776m | 5.5m/s | -50.6°C | 0.4% | 23.9hPa | 2.7V | 18:12:15 | 01:32:54 | 00:00:00 | |
| DK7TD | 2026-08-31 12:02:28 | 49.18271 | 10.22456 | 314° | 27km/h | 25749m | 5.4m/s | 0°C | 0% | 0hPa | 2.6V | 18:12:15 | 01:32:49 | 00:00:00 | |
| DL1XH-west | 2026-08-31 12:02:26 | 49.18264 | 10.22471 | 293° | 20km/h | 25737m | 5.5m/s | -50.5°C | 0.4% | 24.1hPa | 2.7V | 18:12:15 | 01:32:47 | 00:00:00 | |
| HSKMA3-T | 2026-08-31 12:02:23 | 49.18262 | 10.22486 | 285° | 7km/h | 25722m | 6.5m/s | -50.5°C | 0.4% | 24.1hPa | 2.7V | 18:12:15 | 01:32:44 | 00:00:00 | |
| BIOWL1-15 | 2026-08-31 12:02:22 | 49.18260 | 10.22489 | 332° | 4km/h | 25710m | 5.2m/s | -50.4°C | 0.4% | 24.1hPa | 2.6V | 18:12:15 | 01:32:42 | 00:00:00 | |
| DF8AY | 2026-08-31 12:02:22 | 49.18261 | 10.22488 | 316° | 5km/h | 25716m | 6m/s | -50.4°C | 0.4% | 24.1hPa | 2.7V | 18:12:15 | 01:32:43 | 00:00:00 | |
| DF8AY | 2026-08-31 12:02:16 | 49.18241 | 10.22516 | 299° | 13km/h | 25657m | 5.8m/s | -50.7°C | 0.4% | 24.4hPa | 2.7V | 18:12:15 | 01:32:32 | 00:00:00 | |
| DL1XH-west | 2026-08-31 12:02:15 | 49.18250 | 10.22497 | 329° | 15km/h | 25678m | 4.9m/s | -50.5°C | 0.3% | 24.3hPa | 2.6V | 18:12:15 | 01:32:36 | 00:00:00 | |
| HSKMA3-T | 2026-08-31 12:02:12 | 49.18243 | 10.22511 | 295° | 16km/h | 25662m | 4.6m/s | -50.7°C | 0.4% | 24.4hPa | 2.7V | 18:12:15 | 01:32:33 | 00:00:00 | |
| DK7TD | 2026-08-31 12:02:10 | 49.18239 | 10.22519 | 315° | 9km/h | 25651m | 5.4m/s | 0°C | 0% | 0hPa | 2.6V | 18:12:15 | 01:32:31 | 00:00:00 | |
| DL1XH1-15 | 2026-08-31 12:02:10 | 49.18237 | 10.22518 | 128° | 5km/h | 25629m | 5.3m/s | -50.8°C | 3.8% | 24.5hPa | 2.6V | 08:30:00 | 01:32:27 | 00:00:00 | |
| DL1XH-west | 2026-08-31 12:02:04 | 49.18238 | 10.22514 | 79° | 5km/h | 25619m | 6.1m/s | -50.7°C | 0.4% | 24.5hPa | 2.6V | 18:12:15 | 01:32:25 | 00:00:00 | |
| HSKMA3-T | 2026-08-31 12:02:01 | 49.18231 | 10.22513 | 335° | 15km/h | 25604m | 5.7m/s | -50.8°C | 0.5% | 24.6hPa | 2.7V | 18:12:15 | 01:32:22 | 00:00:00 | |
| DF8AY | 2026-08-31 12:02:00 | 49.18228 | 10.22517 | 318° | 18km/h | 25597m | 6.5m/s | -50.8°C | 0.5% | 24.6hPa | 2.6V | 18:12:15 | 01:32:21 | 00:00:00 | |
| DL1XH1-15 | 2026-08-31 12:02:00 | 49.18215 | 10.22542 | 315° | 16km/h | 25576m | 5.3m/s | -50.6°C | 3.8% | 24.7hPa | 2.7V | 08:30:00 | 01:32:17 | 00:00:00 | |
| BIOWL1-15 | 2026-08-31 12:01:59 | 49.18211 | 10.22549 | 157° | 5km/h | 25554m | 5.5m/s | -50.7°C | 0.4% | 24.8hPa | 2.7V | 18:12:15 | 01:32:13 | 00:00:00 | |
| DK7TD | 2026-08-31 12:01:56 | 49.18215 | 10.22542 | 316° | 16km/h | 25576m | 5.3m/s | 0°C | 0% | 0hPa | 2.7V | 18:12:15 | 01:32:17 | 00:00:00 | |
| DL1XH-west | 2026-08-31 12:01:53 | 49.18210 | 10.22549 | 243° | 2km/h | 25560m | 6.5m/s | -50.7°C | 0.4% | 24.7hPa | 2.6V | 18:12:15 | 01:32:14 | 00:00:00 | |
| DF8AY | 2026-08-31 12:01:50 | 49.18213 | 10.22544 | 110° | 11km/h | 25542m | 6m/s | -50.6°C | 0.4% | 24.8hPa | 2.7V | 18:12:15 | 01:32:11 | 00:00:00 | |
| BIOWL1-15 | 2026-08-31 12:01:48 | 49.18214 | 10.22538 | 64° | 5km/h | 25533m | 4.5m/s | -50.6°C | 0.4% | 24.8hPa | 2.6V | 18:12:15 | 01:32:09 | 00:00:00 | |
| EDDB2-11 | 2026-08-31 12:01:47 | 49.18211 | 10.22540 | 302° | 13km/h | 25522m | 5.9m/s | -50.5°C | 0.9% | 24.9hPa | 2.7V | 00:00:00 | 00:00:00 | 00:00:00 | |
| DL1NUX | 2026-08-31 12:01:46 | 49.18209 | 10.22545 | 302° | 20km/h | 25515m | 5.7m/s | -50.5°C | 3.6% | 24.9hPa | 2.7V | 08:30:00 | 01:32:06 | 00:00:00 | |
| DK7TD | 2026-08-31 12:01:46 | 49.18209 | 10.22545 | 303° | 20km/h | 25515m | 5.7m/s | 0°C | 0% | 0hPa | 2.7V | 18:12:15 | 01:32:06 | 00:00:00 | |
| DL1XH-west | 2026-08-31 12:01:42 | 49.18199 | 10.22566 | 309° | 20km/h | 25498m | 4.8m/s | -50.5°C | 0.4% | 25hPa | 2.7V | 18:12:15 | 01:32:03 | 00:00:00 | |
| HSKMA3-T | 2026-08-31 12:01:40 | 49.18195 | 10.22576 | 289° | 13km/h | 25488m | 5.8m/s | -50.6°C | 0.4% | 25hPa | 2.6V | 18:12:15 | 01:32:01 | 00:00:00 | |
| DF8AY | 2026-08-31 12:01:40 | 49.18194 | 10.22580 | 264° | 9km/h | 25482m | 5.3m/s | -50.5°C | 0.4% | 25hPa | 2.6V | 18:12:15 | 01:32:00 | 00:00:00 | |
| BIOWL1-15 | 2026-08-31 12:01:37 | 49.18196 | 10.22583 | 167° | 5km/h | 25472m | 7m/s | -50.5°C | 0.3% | 25.1hPa | 2.7V | 18:12:15 | 01:31:58 | 00:00:00 | |
| DJTTGO | 2026-08-31 12:01:37 | 49.18195 | 10.22583 | 226° | 5km/h | 25478m | 5.0m/s | -50.5°C | 0.9% | 25.1hPa | 2.7V | 00:00:00 | 00:00:00 | 00:00:00 | |
| DL1NUX | 2026-08-31 12:01:36 | 49.18198 | 10.22580 | 120° | 7km/h | 25460m | 4.7m/s | -50.7°C | 3.7% | 25.1hPa | 2.7V | 08:30:00 | 01:31:56 | 00:00:00 | |
| DL1XH-west | 2026-08-31 12:01:31 | 49.18200 | 10.22585 | 283° | 13km/h | 25439m | 4.6m/s | -50.8°C | 0.4% | 25.2hPa | 2.7V | 18:12:15 | 01:31:52 | 00:00:00 | |
| HSKMA3-T | 2026-08-31 12:01:29 | 49.18197 | 10.22595 | 308° | 16km/h | 25427m | 5.9m/s | -50.8°C | 0.4% | 25.2hPa | 2.6V | 18:12:15 | 01:31:50 | 00:00:00 | |
| DF8AY | 2026-08-31 12:01:28 | 49.18194 | 10.22600 | 314° | 15km/h | 25421m | 5.4m/s | -50.8°C | 0.4% | 25.3hPa | 2.6V | 18:12:15 | 01:31:49 | 00:00:00 | |
| BIOWL1-15 | 2026-08-31 12:01:27 | 49.18190 | 10.22608 | 289° | 11km/h | 25410m | 6.2m/s | -50.9°C | 0.4% | 25.3hPa | 2.7V | 18:12:15 | 01:31:47 | 00:00:00 | |
| DL1NUX | 2026-08-31 12:01:26 | 49.18190 | 10.22611 | 264° | 7km/h | 25404m | 4.6m/s | -51°C | 3.8% | 25.3hPa | 2.6V | 08:30:00 | 01:31:46 | 00:00:00 | |
| DL1XH-west | 2026-08-31 12:01:21 | 49.18191 | 10.22615 | 283° | 2km/h | 25382m | 5.8m/s | -50.9°C | 0.5% | 25.4hPa | 2.7V | 18:12:15 | 01:31:42 | 00:00:00 | |
| HSKMA3-T | 2026-08-31 12:01:18 | 49.18190 | 10.22623 | 287° | 13km/h | 25365m | 4.4m/s | -51°C | 0.4% | 25.5hPa | 2.6V | 18:12:15 | 01:31:39 | 00:00:00 | |
| DF8AY | 2026-08-31 12:01:18 | 49.18189 | 10.22628 | 297° | 16km/h | 25359m | 6.4m/s | -50.9°C | 0.3% | 25.6hPa | 2.6V | 18:12:15 | 01:31:38 | 00:00:00 | |
| DL1NUX | 2026-08-31 12:01:16 | 49.18184 | 10.22639 | 308° | 16km/h | 25347m | 4.9m/s | -51°C | 3.6% | 25.6hPa | 2.7V | 08:30:00 | 01:31:36 | 00:00:00 | |
| DL1XH-west | 2026-08-31 12:01:11 | 49.18179 | 10.22654 | 302° | 4km/h | 25324m | 6.6m/s | -51.1°C | 0.4% | 25.7hPa | 2.7V | 18:12:15 | 01:31:32 | 00:00:00 | |
| DL1XH1-15 | 2026-08-31 12:01:09 | 49.18177 | 10.22653 | 260° | 5km/h | 25296m | 5.4m/s | -51.2°C | 3.9% | 25.8hPa | 2.7V | 08:30:00 | 01:31:27 | 00:00:00 | |
| HSKMA3-T | 2026-08-31 12:01:07 | 49.18176 | 10.22652 | 263° | 2km/h | 25301m | 6.3m/s | -51.2°C | 0.5% | 25.8hPa | 2.7V | 18:12:15 | 01:31:28 | 00:00:00 | |
| DF8AY | 2026-08-31 12:01:06 | 49.18177 | 10.22653 | 260° | 5km/h | 25296m | 5.4m/s | -51.2°C | 0.5% | 25.8hPa | 2.7V | 18:12:15 | 01:31:27 | 00:00:00 | |
| DM0DOS-11 | 2026-08-31 12:01:05 | 49.18166 | 10.22669 | 326° | 11km/h | 25261m | 5.8m/s | -51.4°C | 3.8% | 25.9hPa | 2.7V | 08:30:00 | 01:31:21 | 00:00:00 | |
| DL1XH-west | 2026-08-31 12:01:01 | 49.18168 | 10.22667 | 327° | 13km/h | 25267m | 6.4m/s | -51.4°C | 0.5% | 25.9hPa | 2.7V | 18:12:15 | 01:31:22 | 00:00:00 | |
| DF3TZ-5 | 2026-08-31 12:01:00 | 49.18164 | 10.22671 | 337° | 7km/h | 25256m | 4.8m/s | -51.5°C | 0.9% | 25.9hPa | 2.7V | 00:00:00 | 00:00:00 | 00:00:00 | |
| DL1XH1-15 | 2026-08-31 12:00:59 | 49.18157 | 10.22670 | 38° | 9km/h | 25239m | 4.5m/s | -51.2°C | 3.8% | 26hPa | 2.7V | 08:30:00 | 01:31:17 | 00:00:00 | |
| HSKMA3-T | 2026-08-31 12:00:57 | 49.18159 | 10.22671 | 20° | 11km/h | 25244m | 6m/s | -51.3°C | 0.4% | 26hPa | 2.6V | 18:12:15 | 01:31:18 | 00:00:00 | |
| DF8AY | 2026-08-31 12:00:55 | 49.18156 | 10.22668 | 54° | 5km/h | 25233m | 6.3m/s | -51.3°C | 0.4% | 26hPa | 2.7V | 18:12:15 | 01:31:16 | 00:00:00 | |
| BIOWL1-15 | 2026-08-31 12:00:55 | 49.18156 | 10.22666 | 189° | 4km/h | 25221m | 5.1m/s | -51.3°C | 0.5% | 26.1hPa | 2.6V | 18:12:15 | 01:31:14 | 00:00:00 | |
| DL1XH-west | 2026-08-31 12:00:50 | 49.18156 | 10.22670 | 302° | 7km/h | 25204m | 5.5m/s | -51.2°C | 0.5% | 26.1hPa | 2.7V | 18:12:15 | 01:31:11 | 00:00:00 | |
| DL1NUX | 2026-08-31 12:00:49 | 49.18152 | 10.22689 | 293° | 5km/h | 25176m | 5.9m/s | -51.2°C | 3.8% | 26.2hPa | 2.7V | 08:30:00 | 01:31:06 | 00:00:00 | |
| HSKMA3-T | 2026-08-31 12:00:46 | 49.18153 | 10.22686 | 280° | 11km/h | 25182m | 4.6m/s | -51.1°C | 0.5% | 26.2hPa | 2.7V | 18:12:15 | 01:31:07 | 00:00:00 | |
| DF8AY | 2026-08-31 12:00:44 | 49.18163 | 10.22692 | 255° | 9km/h | 25107m | 4m/s | -51.2°C | 0.5% | 26.6hPa | 2.6V | 18:12:15 | 01:30:54 | 00:00:00 | |
| BIOWL1-15 | 2026-08-31 12:00:42 | 49.18151 | 10.22686 | 96° | 7km/h | 25158m | 6m/s | -51.3°C | 0.5% | 26.3hPa | 2.6V | 18:12:15 | 01:31:03 | 00:00:00 | |
| DL1XH-west | 2026-08-31 12:00:40 | 49.18153 | 10.22681 | 156° | 9km/h | 25146m | 5.5m/s | -51.2°C | 0.4% | 26.4hPa | 2.7V | 18:12:15 | 01:31:01 | 00:00:00 | |
| DL1XH1-15 | 2026-08-31 12:00:39 | 49.18160 | 10.22682 | 231° | 7km/h | 25123m | 5.7m/s | -51.2°C | 3.9% | 26.5hPa | 2.6V | 08:30:00 | 01:30:57 | 00:00:00 | |
| DL1NUX | 2026-08-31 12:00:39 | 49.18161 | 10.22685 | 240° | 9km/h | 25117m | 6.7m/s | -51.2°C | 3.9% | 26.5hPa | 2.7V | 08:30:00 | 01:30:56 | 00:00:00 | |
| DM0DOS-11 | 2026-08-31 12:00:38 | 49.18158 | 10.22680 | 180° | 7km/h | 25135m | 6.7m/s | -51.1°C | 3.8% | 26.4hPa | 2.6V | 08:30:00 | 01:30:59 | 00:00:00 | |
| HSKMA3-T | 2026-08-31 12:00:36 | 49.18162 | 10.22685 | 240° | 9km/h | 25117m | 6.7m/s | -51.2°C | 0.4% | 26.5hPa | 2.7V | 18:12:15 | 01:30:56 | 00:00:00 | |
| BIOWL1-15 | 2026-08-31 12:00:31 | 49.18163 | 10.22695 | 348° | 5km/h | 25096m | 6.6m/s | -51.2°C | 0.5% | 26.6hPa | 2.7V | 18:12:15 | 01:30:52 | 00:00:00 | |
| DL1XH1-15 | 2026-08-31 12:00:29 | 49.18151 | 10.22694 | 312° | 5km/h | 25067m | 5.6m/s | -51.2°C | 3.8% | 26.7hPa | 2.7V | 08:30:00 | 01:30:47 | 00:00:00 | |
| DL1NUX | 2026-08-31 12:00:29 | 49.18150 | 10.22696 | 291° | 7km/h | 25062m | 5.2m/s | -51.1°C | 3.8% | 26.7hPa | 2.7V | 08:30:00 | 01:30:46 | 00:00:00 | |
| DL1XH-west | 2026-08-31 12:00:29 | 49.18158 | 10.22694 | 17° | 13km/h | 25085m | 4.6m/s | -51.2°C | 0.4% | 26.6hPa | 2.6V | 18:12:15 | 01:30:50 | 00:00:00 | |
| DF8AY | 2026-08-31 12:00:28 | 49.18155 | 10.22693 | 11° | 11km/h | 25080m | 5.9m/s | -51.3°C | 0.5% | 26.6hPa | 2.6V | 18:12:15 | 01:30:49 | 00:00:00 | |
| HSKMA3-T | 2026-08-31 12:00:24 | 49.18150 | 10.22699 | 291° | 7km/h | 25056m | 6.5m/s | -51.1°C | 0.4% | 26.7hPa | 2.7V | 18:12:15 | 01:30:45 | 00:00:00 | |
| OE5DXL-15 | 2026-08-31 12:00:24 | 49.18150 | 10.22699 | 291° | 7km/h | 25056m | 6.4m/s | -51.1°C | 3.8% | 26.7hPa | 2.6V | 00:00:00 | 00:00:00 | 00:00:00 | |
| DH7VM-15 | 2026-08-31 12:00:22 | 49.18149 | 10.22701 | 290° | 7km/h | 25051m | 5.3m/s | -51.1°C | 0.9% | 26.8hPa | 2.6V | 00:00:00 | 00:00:00 | 00:00:00 | |
| DB0NH | 2026-08-31 12:00:20 | 49.18150 | 10.22710 | 236° | 5km/h | 25033m | 6.2m/s | -51.0°C | 3.8% | 26.8hPa | 2.6V | 00:00:00 | 01:30:41 | 00:00:00 | |
| DL1XH1-15 | 2026-08-31 12:00:19 | 49.18153 | 10.22717 | 349° | 4km/h | 25010m | 4.9m/s | -51°C | 3.9% | 26.9hPa | 2.6V | 08:30:00 | 01:30:37 | 00:00:00 | |
| DL1NUX | 2026-08-31 12:00:19 | 49.18152 | 10.22717 | 333° | 4km/h | 25005m | 5.8m/s | -50.9°C | 3.8% | 26.9hPa | 2.7V | 08:30:00 | 01:30:36 | 00:00:00 | |
| DF8AY | 2026-08-31 12:00:18 | 49.18153 | 10.22716 | 264° | 2km/h | 25016m | 6.1m/s | -51.1°C | 0.5% | 26.9hPa | 2.6V | 18:12:15 | 01:30:38 | 00:00:00 | |
| PG1ADW-2 | 2026-08-31 12:00:16 | 49.18153 | 10.22716 | 350° | 7km/h | 25011m | 4.8m/s | -50.9°C | 3.9% | 26.9hPa | 2.7V | 00:00:00 | 00:00:00 | 00:00:00 | |
| SO1NDE-10 | 2026-08-31 12:00:15 | 49.18152 | 10.22717 | 334° | 7km/h | 25005m | 5.8m/s | -50.8°C | 3.8% | 26.9hPa | 2.7V | 00:00:00 | 01:30:36 | 00:00:00 | |
| DM0DOS-11 | 2026-08-31 12:00:14 | 49.18150 | 10.22735 | 262° | 7km/h | 24963m | 6.8m/s | -51°C | 3.8% | 27.1hPa | 2.7V | 08:30:00 | 01:30:29 | 00:00:00 | |
| HSKMA3-T | 2026-08-31 12:00:13 | 49.18151 | 10.22720 | 274° | 7km/h | 24993m | 5.4m/s | -50.9°C | 0.5% | 27hPa | 2.7V | 18:12:15 | 01:30:34 | 00:00:00 | |
| BIOWL1-15 | 2026-08-31 12:00:13 | 49.18151 | 10.22723 | 275° | 7km/h | 24988m | 5.4m/s | -50.9°C | 0.4% | 27hPa | 2.6V | 18:12:15 | 01:30:33 | 00:00:00 | |
| DN1GJH-1 | 2026-08-31 12:00:12 | 49.18151 | 10.22720 | 275° | 7km/h | 24993m | 5.4m/s | -50.9°C | 1.0% | 27.0hPa | 2.6V | 00:00:00 | 00:00:00 | 00:00:00 | |
| DO9HM | 2026-08-31 12:00:11 | 49.18151 | 10.22723 | 276° | 7km/h | 24988m | 5.4m/s | -50.9°C | 1.0% | 27.0hPa | 2.6V | 00:00:00 | 00:00:00 | 00:00:00 | |
| DL1XH1-15 | 2026-08-31 12:00:09 | 49.18151 | 10.22740 | 230° | 5km/h | 24952m | 4.2m/s | -50.9°C | 3.7% | 27.2hPa | 2.6V | 08:30:00 | 01:30:27 | 00:00:00 | |
| DL1XH-west | 2026-08-31 12:00:08 | 49.18150 | 10.22735 | 263° | 7km/h | 24963m | 6.8m/s | -51.1°C | 0.4% | 27.1hPa | 2.7V | 18:12:15 | 01:30:29 | 00:00:00 | |
| DF8AY | 2026-08-31 12:00:04 | 49.18151 | 10.22741 | 36° | 4km/h | 24941m | 7m/s | -50.9°C | 0.4% | 27.2hPa | 2.7V | 18:12:15 | 01:30:25 | 00:00:00 | |
| DM0DOS-11 | 2026-08-31 12:00:03 | 49.18143 | 10.22732 | 34° | 4km/h | 24912m | 4.8m/s | -51.1°C | 3.8% | 27.3hPa | 2.7V | 08:30:00 | 01:30:20 | 00:00:00 | |
| HSKMA3-T | 2026-08-31 12:00:03 | 49.18150 | 10.22739 | 36° | 9km/h | 24935m | 5.9m/s | -50.9°C | 0.4% | 27.2hPa | 2.6V | 18:12:15 | 01:30:24 | 00:00:00 | |
| BIOWL1-15 | 2026-08-31 12:00:01 | 49.18143 | 10.22732 | 35° | 4km/h | 24912m | 4.8m/s | -51.1°C | 0.5% | 27.3hPa | 2.7V | 18:12:15 | 01:30:20 | 00:00:00 | |
| DL6DJ-15 | 2026-08-31 12:00:01 | 49.18144 | 10.22733 | 33° | 5km/h | 24917m | 5.6m/s | -51.0°C | 0.9% | 27.3hPa | 2.6V | 00:00:00 | 00:00:00 | 00:00:00 | |
| DF7PN | 2026-08-31 12:00:00 | 49.18143 | 10.22732 | 34° | 4km/h | 24912m | 4.8m/s | -51.1°C | 1.0% | 27.3hPa | 2.6V | 00:00:00 | 00:00:00 | 00:00:00 | |
| DL1NUX | 2026-08-31 11:59:59 | 49.18139 | 10.22728 | 91° | 2km/h | 24888m | 6.4m/s | -51.1°C | 3.8% | 27.5hPa | 2.6V | 08:30:00 | 01:30:16 | 00:00:00 | |
| DL1XH-west | 2026-08-31 11:59:57 | 49.18141 | 10.22730 | 31° | 5km/h | 24900m | 6.3m/s | -51°C | 0.5% | 27.4hPa | 2.6V | 18:12:15 | 01:30:18 | 00:00:00 | |
| DF8AY | 2026-08-31 11:59:53 | 49.18141 | 10.22726 | 145° | 5km/h | 24876m | 5m/s | -51.1°C | 0.5% | 27.5hPa | 2.7V | 18:12:15 | 01:30:14 | 00:00:00 | |
| HSKMA3-T | 2026-08-31 11:59:53 | 49.18142 | 10.22724 | 115° | 5km/h | 24870m | 6.3m/s | -51.2°C | 0.5% | 27.5hPa | 2.6V | 18:12:15 | 01:30:13 | 00:00:00 | |
| BIOWL1-15 | 2026-08-31 11:59:50 | 49.18141 | 10.22717 | 63° | 13km/h | 24859m | 4.6m/s | -51.3°C | 0.5% | 27.6hPa | 2.6V | 18:12:15 | 01:30:11 | 00:00:00 | |
| DB0NH | 2026-08-31 11:59:50 | 49.18141 | 10.22717 | 64° | 13km/h | 24859m | 4.5m/s | -51.2°C | 3.8% | 27.5hPa | 2.6V | 00:00:00 | 01:30:11 | 00:00:00 | |
| DO3MHA-11 | 2026-08-31 11:59:49 | 49.18140 | 10.22713 | 59° | 11km/h | 24854m | 5.0m/s | -51.2°C | 3.8% | 27.5hPa | 2.6V | 00:00:00 | 01:30:10 | 00:00:00 | |
| DL1XH1-15 | 2026-08-31 11:59:48 | 49.18135 | 10.22705 | 33° | 7km/h | 24836m | 5.2m/s | -51.2°C | 3.8% | 27.7hPa | 2.6V | 08:30:00 | 01:30:07 | 00:00:00 | |
| DL1ZP-14 | 2026-08-31 11:59:48 | 49.18136 | 10.22707 | 45° | 7km/h | 24842m | 5.7m/s | -51.2°C | 0.9% | 27.6hPa | 2.7V | 00:00:00 | 00:00:00 | 00:00:00 | |
| DL1XH-west | 2026-08-31 11:59:48 | 49.18136 | 10.22707 | 46° | 7km/h | 24842m | 5.7m/s | -51.2°C | 0.4% | 27.6hPa | 2.7V | 18:12:15 | 01:30:08 | 00:00:00 | |
| DB0ND-19 | 2026-08-31 11:59:46 | 49.18135 | 10.22705 | 33° | 5km/h | 24836m | 5.3m/s | -51.2°C | 1.0% | 27.7hPa | 2.7V | 00:00:00 | 00:00:00 | 00:00:00 | |
| DL9SK-14 | 2026-08-31 11:59:45 | 49.18133 | 10.22704 | 28° | 5km/h | 24831m | 5.6m/s | -51.3°C | 1.0% | 27.7hPa | 2.7V | 00:00:00 | 00:00:00 | 00:00:00 | |
| DF8AY | 2026-08-31 11:59:42 | 49.18127 | 10.22697 | 30° | 13km/h | 24812m | 5.3m/s | -51.1°C | 0.5% | 27.8hPa | 2.7V | 18:12:15 | 01:30:03 | 00:00:00 | |
| DM0DOS-11 | 2026-08-31 11:59:42 | 49.18116 | 10.22690 | 60° | 9km/h | 24783m | 6.6m/s | -51.2°C | 3.8% | 27.9hPa | 2.6V | 08:30:00 | 01:29:58 | 00:00:00 | |
| HSKMA3-T | 2026-08-31 11:59:42 | 49.18124 | 10.22695 | 22° | 11km/h | 24807m | 6.1m/s | -51.2°C | 0.5% | 27.8hPa | 2.6V | 18:12:15 | 01:30:02 | 00:00:00 | |
| DL1XH-west | 2026-08-31 11:59:37 | 49.18117 | 10.22690 | 61° | 9km/h | 24783m | 6.6m/s | -51.2°C | 0.4% | 27.9hPa | 2.6V | 18:12:15 | 01:29:58 | 00:00:00 | |
| BIOWL1-15 | 2026-08-31 11:59:37 | 49.18113 | 10.22677 | 58° | 11km/h | 24766m | 6.8m/s | -51.3°C | 0.5% | 28hPa | 2.7V | 18:12:15 | 01:29:55 | 00:00:00 | |
| DF8AY | 2026-08-31 11:59:32 | 49.18108 | 10.22671 | 28° | 15km/h | 24754m | 5.2m/s | -51.3°C | 0.4% | 28hPa | 2.7V | 18:12:15 | 01:29:53 | 00:00:00 | |
| DM0DOS-11 | 2026-08-31 11:59:32 | 49.18085 | 10.22657 | 8° | 20km/h | 24726m | 6.8m/s | -51.1°C | 3.8% | 28.1hPa | 2.7V | 08:30:00 | 01:29:48 | 00:00:00 | |
| HSKMA3-T | 2026-08-31 11:59:31 | 49.18100 | 10.22665 | 25° | 22km/h | 24742m | 5.8m/s | -51.3°C | 0.5% | 28.1hPa | 2.6V | 18:12:15 | 01:29:51 | 00:00:00 | |
| DL1XH-west | 2026-08-31 11:59:26 | 49.18080 | 10.22656 | 358° | 18km/h | 24720m | 6.3m/s | -51°C | 0.5% | 28.2hPa | 2.6V | 18:12:15 | 01:29:47 | 00:00:00 | |
| DK7TD | 2026-08-31 11:59:25 | 49.18076 | 10.22657 | 357° | 15km/h | 24714m | 5.4m/s | -51°C | 0.5% | 0hPa | 2.6V | 18:12:15 | 01:29:46 | 00:00:00 | |
| BIOWL1-15 | 2026-08-31 11:59:24 | 49.18072 | 10.22656 | 7° | 15km/h | 24708m | 6.5m/s | -51.1°C | 0.5% | 28.2hPa | 2.6V | 18:12:15 | 01:29:45 | 00:00:00 | |
| DF8AY | 2026-08-31 11:59:21 | 49.18063 | 10.22651 | 31° | 11km/h | 24691m | 6.9m/s | -51.1°C | 0.5% | 28.3hPa | 2.7V | 18:12:15 | 01:29:42 | 00:00:00 | |
| HSKMA3-T | 2026-08-31 11:59:20 | 49.18061 | 10.22648 | 30° | 11km/h | 24684m | 6m/s | -51.1°C | 0.5% | 28.3hPa | 2.6V | 18:12:15 | 01:29:41 | 00:00:00 | |
| DL1XH-west | 2026-08-31 11:59:15 | 49.18044 | 10.22629 | 30° | 18km/h | 24655m | 6.5m/s | -51.1°C | 0.5% | 28.5hPa | 2.6V | 18:12:15 | 01:29:36 | 00:00:00 | |
| BIOWL1-15 | 2026-08-31 11:59:13 | 49.18029 | 10.22624 | 12° | 15km/h | 24633m | 5.9m/s | -50.9°C | 0.4% | 28.5hPa | 2.6V | 18:12:15 | 01:29:32 | 00:00:00 | |
| HSKMA3-T | 2026-08-31 11:59:10 | 49.18025 | 10.22622 | 16° | 16km/h | 24628m | 4.7m/s | -50.8°C | 0.4% | 28.6hPa | 2.6V | 18:12:15 | 01:29:31 | 00:00:00 | |
| DO9HM | 2026-08-31 11:59:09 | 49.18020 | 10.22621 | 14° | 18km/h | 24623m | 4.7m/s | -50.9°C | 1.0% | 28.6hPa | 2.7V | 00:00:00 | 00:00:00 | 00:00:00 | |
| DL1XH1-15 | 2026-08-31 11:59:08 | 49.18006 | 10.22619 | 356° | 18km/h | 24606m | 4.9m/s | -50.9°C | 3.7% | 28.7hPa | 2.7V | 08:30:00 | 01:29:27 | 00:00:00 | |
| DL1NUX | 2026-08-31 11:59:08 | 49.18001 | 10.22619 | 6° | 15km/h | 24601m | 5.2m/s | -50.9°C | 3.8% | 28.7hPa | 2.6V | 08:30:00 | 01:29:26 | 00:00:00 | |
| DL1XH-west | 2026-08-31 11:59:05 | 49.18001 | 10.22619 | 6° | 15km/h | 24601m | 5.2m/s | -50.9°C | 0.4% | 28.7hPa | 2.6V | 18:12:15 | 01:29:26 | 00:00:00 | |
| BIOWL1-15 | 2026-08-31 11:59:01 | 49.17992 | 10.22605 | 61° | 16km/h | 24578m | 6.5m/s | -51°C | 0.5% | 28.8hPa | 2.7V | 18:12:15 | 01:29:22 | 00:00:00 | |
| HSKMA3-T | 2026-08-31 11:59:00 | 49.17990 | 10.22600 | 47° | 16km/h | 24571m | 5.7m/s | -50.9°C | 0.5% | 28.8hPa | 2.6V | 18:12:15 | 01:29:21 | 00:00:00 | |
| DL6DJ-15 | 2026-08-31 11:58:59 | 49.17983 | 10.22592 | 32° | 16km/h | 24561m | 5.2m/s | -50.8°C | 1.0% | 28.9hPa | 2.7V | 00:00:00 | 00:00:00 | 00:00:00 | |
| DL1NUX | 2026-08-31 11:58:57 | 49.17973 | 10.22583 | 21° | 16km/h | 24543m | 5.7m/s | -50.8°C | 3.7% | 29hPa | 2.7V | 08:30:00 | 01:29:16 | 00:00:00 | |
| DM0DOS-11 | 2026-08-31 11:58:57 | 49.17976 | 10.22585 | 29° | 16km/h | 24549m | 5.6m/s | -50.8°C | 3.7% | 29hPa | 2.7V | 08:30:00 | 01:29:17 | 00:00:00 | |
| DL1XH-west | 2026-08-31 11:58:54 | 49.17968 | 10.22580 | 14° | 18km/h | 24537m | 6.6m/s | -50.8°C | 0.4% | 29hPa | 2.6V | 18:12:15 | 01:29:15 | 00:00:00 | |
| DK7TD | 2026-08-31 11:58:52 | 49.17959 | 10.22577 | 17° | 16km/h | 24527m | 5m/s | -50.7°C | 0.3% | 0hPa | 2.6V | 18:12:15 | 01:29:13 | 00:00:00 | |
| HSKMA3-T | 2026-08-31 11:58:49 | 49.17951 | 10.22569 | 59° | 9km/h | 24510m | 4.8m/s | -50.6°C | 0.4% | 29.1hPa | 2.6V | 18:12:15 | 01:29:10 | 00:00:00 | |
| DO3MHA-11 | 2026-08-31 11:58:49 | 49.17951 | 10.22569 | 60° | 15km/h | 24510m | 4.8m/s | -50.6°C | 3.7% | 29.1hPa | 2.7V | 00:00:00 | 01:29:10 | 00:00:00 | |
| DL1XH1-15 | 2026-08-31 11:58:48 | 49.17946 | 10.22563 | 13° | 11km/h | 24493m | 5.7m/s | -50.7°C | 3.7% | 29.2hPa | 2.7V | 08:30:00 | 01:29:07 | 00:00:00 | |
| DL1ZP-14 | 2026-08-31 11:58:46 | 49.17943 | 10.22562 | 11° | 13km/h | 24488m | 4.8m/s | -50.7°C | 0.9% | 29.2hPa | 2.6V | 00:00:00 | 00:00:00 | 00:00:00 | |
| DL1XH-west | 2026-08-31 11:58:43 | 49.17936 | 10.22558 | 25° | 18km/h | 24476m | 5.9m/s | -50.9°C | 0.5% | 29.2hPa | 2.6V | 18:12:15 | 01:29:04 | 00:00:00 | |
| DK7TD | 2026-08-31 11:58:42 | 49.17931 | 10.22555 | 25° | 20km/h | 24471m | 5.2m/s | -50.9°C | 0.4% | 0hPa | 2.7V | 18:12:15 | 01:29:03 | 00:00:00 | |
| SONCRA | 2026-08-31 11:58:42 | 49.17926 | 10.22551 | 19° | 22km/h | 24465m | 6.7m/s | -50.9°C | 0.9% | 29.3hPa | 2.7V | 00:00:00 | 00:00:00 | 00:00:00 | |
| IW2NTF | 2026-08-31 11:58:41 | 49.17897 | 10.22537 | 16° | 16km/h | 24432m | 5.5m/s | 0°C | 0% | 0hPa | 2.7V | 00:00:00 | 01:28:56 | 00:00:00 | |
| EDDB2-11 | 2026-08-31 11:58:40 | 49.17921 | 10.22549 | 14° | 24km/h | 24458m | 5.8m/s | -51.0°C | 0.9% | 29.4hPa | 2.6V | 00:00:00 | 00:00:00 | 00:00:00 | |
| DL1NUX | 2026-08-31 11:58:39 | 49.17894 | 10.22536 | 4° | 16km/h | 24425m | 6.9m/s | -50.9°C | 3.7% | 29.5hPa | 2.6V | 08:30:00 | 01:28:55 | 00:00:00 | |
| HSKMA3-T | 2026-08-31 11:58:39 | 49.17915 | 10.22547 | 14° | 24km/h | 24453m | 4.9m/s | -51°C | 0.4% | 29.4hPa | 2.6V | 18:12:15 | 01:29:00 | 00:00:00 | |
| KANTATE | 2026-08-31 11:58:39 | 49.17915 | 10.22547 | 15° | 24km/h | 24453m | 4.9m/s | -51.0°C | 0.9% | 29.4hPa | 2.7V | 00:00:00 | 00:00:00 | 00:00:00 | |
| DL1XH1-15 | 2026-08-31 11:58:38 | 49.17901 | 10.22539 | 24° | 16km/h | 24436m | 4.3m/s | -50.8°C | 3.7% | 29.5hPa | 2.7V | 08:30:00 | 01:28:57 | 00:00:00 | |
| BIOWL1-15 | 2026-08-31 11:58:37 | 49.17884 | 10.22537 | 352° | 18km/h | 24415m | 4.1m/s | -51°C | 0.5% | 29.5hPa | 2.6V | 18:12:15 | 01:28:53 | 00:00:00 | |
| DL1XH-west | 2026-08-31 11:58:33 | 49.17889 | 10.22536 | 354° | 18km/h | 24419m | 5.1m/s | -50.9°C | 0.4% | 29.6hPa | 2.6V | 18:12:15 | 01:28:54 | 00:00:00 | |
| DK7TD | 2026-08-31 11:58:30 | 49.17875 | 10.22538 | 357° | 16km/h | 24404m | 6.2m/s | -51.2°C | 0.5% | 0hPa | 2.7V | 18:12:15 | 01:28:51 | 00:00:00 | |
| HSKMA3-T | 2026-08-31 11:58:28 | 49.17868 | 10.22538 | 5° | 16km/h | 24394m | 4.5m/s | -51.3°C | 0.5% | 29.7hPa | 2.6V | 18:12:15 | 01:28:49 | 00:00:00 | |
| DL1NUX | 2026-08-31 11:58:28 | 49.17837 | 10.22539 | 0° | 29km/h | 24367m | 5.9m/s | -51.4°C | 3.8% | 29.7hPa | 2.6V | 08:30:00 | 01:28:44 | 00:00:00 | |
| BIOWL1-15 | 2026-08-31 11:58:26 | 49.17852 | 10.22538 | 356° | 29km/h | 24377m | 4.8m/s | -51.3°C | 0.5% | 29.7hPa | 2.7V | 18:12:15 | 01:28:46 | 00:00:00 | |
| DL1XH-west | 2026-08-31 11:58:22 | 49.17830 | 10.22539 | 2° | 29km/h | 24361m | 4.8m/s | -51.4°C | 0.5% | 29.8hPa | 2.6V | 18:12:15 | 01:28:43 | 00:00:00 | |
| DL0LBS | 2026-08-31 11:58:22 | 49.17830 | 10.22539 | 3° | 29km/h | 24361m | 4.8m/s | -51.4°C | 1.0% | 29.8hPa | 2.7V | 00:00:00 | 00:00:00 | 00:00:00 | |
| OE5DRO-10 | 2026-08-31 11:58:21 | 49.17823 | 10.22538 | 360° | 33km/h | 24357m | 4.0m/s | -51.3°C | 3.9% | 29.8hPa | 2.7V | 00:00:00 | 00:00:00 | 00:00:00 | |
| DL1XH1-15 | 2026-08-31 11:58:20 | 49.17786 | 10.22553 | 343° | 31km/h | 24330m | 6.1m/s | -51.2°C | 3.8% | 29.9hPa | 2.7V | 08:30:00 | 01:28:37 | 00:00:00 | |
| DB0NH | 2026-08-31 11:58:20 | 49.17816 | 10.22539 | 354° | 33km/h | 24352m | 5.9m/s | -51.2°C | 3.9% | 29.8hPa | 2.6V | 00:00:00 | 01:28:41 | 00:00:00 | |
| DO3MHA-11 | 2026-08-31 11:58:19 | 49.17809 | 10.22541 | 346° | 31km/h | 24346m | 6.2m/s | -51.1°C | 3.9% | 29.8hPa | 2.6V | 00:00:00 | 01:28:40 | 00:00:00 | |
| DL1NUX | 2026-08-31 11:58:18 | 49.17765 | 10.22559 | 349° | 29km/h | 24313m | 5.4m/s | -51°C | 3.8% | 30hPa | 2.6V | 08:30:00 | 01:28:34 | 00:00:00 | |
| DK7TD | 2026-08-31 11:58:17 | 49.17794 | 10.22549 | 340° | 33km/h | 24335m | 4.5m/s | -51.1°C | 0.5% | 0hPa | 2.6V | 18:12:15 | 01:28:38 | 00:00:00 | |
| DF8AY | 2026-08-31 11:58:16 | 49.17779 | 10.22555 | 350° | 29km/h | 24324m | 5.7m/s | -51.2°C | 0.5% | 29.9hPa | 2.7V | 18:12:15 | 01:28:36 | 00:00:00 | |
| BIOWL1-15 | 2026-08-31 11:58:14 | 49.17742 | 10.22568 | 346° | 33km/h | 24296m | 6m/s | -51°C | 0.4% | 30.1hPa | 2.7V | 18:12:15 | 01:28:31 | 00:00:00 | |
| DL1XH-west | 2026-08-31 11:58:11 | 49.17750 | 10.22565 | 343° | 31km/h | 24302m | 5.3m/s | -51.1°C | 0.5% | 30.1hPa | 2.6V | 18:12:15 | 01:28:32 | 00:00:00 | |
| SONCRA | 2026-08-31 11:58:11 | 49.17742 | 10.22568 | 346° | 31km/h | 24297m | 6.0m/s | -51.0°C | 0.9% | 30.1hPa | 2.6V | 00:00:00 | 00:00:00 | 00:00:00 | |
| DG9SBQ-11 | 2026-08-31 11:58:10 | 49.17742 | 10.22568 | 347° | 33km/h | 24297m | 6.0m/s | -51.0°C | 0.9% | 30.1hPa | 2.6V | 00:00:00 | 00:00:00 | 00:00:00 | |
| DM0DOS-11 | 2026-08-31 11:58:09 | 49.17707 | 10.22581 | 340° | 40km/h | 24274m | 6.2m/s | -51°C | 3.7% | 30.2hPa | 2.6V | 08:30:00 | 01:28:27 | 00:00:00 | |
| DO3MHA-11 | 2026-08-31 11:58:09 | 49.17734 | 10.22571 | 350° | 35km/h | 24291m | 5.7m/s | -51.0°C | 3.8% | 30.1hPa | 2.7V | 00:00:00 | 01:28:30 | 00:00:00 | |
| DL1NUX | 2026-08-31 11:58:07 | 49.17679 | 10.22597 | 340° | 35km/h | 24258m | 6.2m/s | -51.1°C | 3.8% | 30.3hPa | 2.7V | 08:30:00 | 01:28:24 | 00:00:00 | |
| HSKMA3-T | 2026-08-31 11:58:07 | 49.17716 | 10.22576 | 346° | 38km/h | 24280m | 5.6m/s | -51.2°C | 0.4% | 30.1hPa | 2.6V | 18:12:15 | 01:28:28 | 00:00:00 | |
| DK7TD | 2026-08-31 11:58:06 | 49.17707 | 10.22581 | 341° | 40km/h | 24274m | 6.2m/s | 0°C | 0% | 0hPa | 2.6V | 18:12:15 | 01:28:27 | 00:00:00 | |
| BIOWL1-15 | 2026-08-31 11:58:02 | 49.17671 | 10.22601 | 344° | 31km/h | 24253m | 4.5m/s | -51.2°C | 0.5% | 30.3hPa | 2.6V | 18:12:15 | 01:28:23 | 00:00:00 | |
| DL1XH-west | 2026-08-31 11:58:01 | 49.17657 | 10.22608 | 337° | 29km/h | 24244m | 5.4m/s | -51.1°C | 0.5% | 30.3hPa | 2.6V | 18:12:15 | 01:28:21 | 00:00:00 | |
| OE5DRO-10 | 2026-08-31 11:58:00 | 49.17657 | 10.22608 | 338° | 33km/h | 24244m | 5.4m/s | -51.0°C | 3.9% | 30.3hPa | 2.6V | 00:00:00 | 00:00:00 | 00:00:00 | |
| DO3MHA-11 | 2026-08-31 11:57:59 | 49.17650 | 10.22613 | 330° | 35km/h | 24239m | 6.0m/s | -51.0°C | 3.8% | 30.3hPa | 2.6V | 00:00:00 | 01:28:20 | 00:00:00 | |
| DM0DOS-11 | 2026-08-31 11:57:57 | 49.17632 | 10.22634 | 323° | 31km/h | 24222m | 5.8m/s | -51°C | 3.8% | 30.4hPa | 2.6V | 08:30:00 | 01:28:17 | 00:00:00 | |
| HSKMA3-T | 2026-08-31 11:57:57 | 49.17638 | 10.22627 | 320° | 31km/h | 24227m | 5.1m/s | -51.1°C | 0.5% | 30.4hPa | 2.6V | 18:12:15 | 01:28:18 | 00:00:00 | |
| DL6DJ-15 | 2026-08-31 11:57:57 | 49.17632 | 10.22634 | 323° | 29km/h | 24222m | 5.8m/s | -51.0°C | 0.9% | 30.4hPa | 2.6V | 00:00:00 | 00:00:00 | 00:00:00 | |
| DL1NUX | 2026-08-31 11:57:56 | 49.17611 | 10.22651 | 337° | 37km/h | 24205m | 5.9m/s | -51.2°C | 3.8% | 30.5hPa | 2.6V | 08:30:00 | 01:28:14 | 00:00:00 | |
| DF8AY | 2026-08-31 11:57:55 | 49.17626 | 10.22640 | 331° | 29km/h | 24216m | 5.8m/s | -51°C | 0.4% | 30.5hPa | 2.7V | 18:12:15 | 01:28:16 | 00:00:00 | |
| BIOWL1-15 | 2026-08-31 11:57:52 | 49.17583 | 10.22669 | 338° | 42km/h | 24188m | 5.9m/s | -51.2°C | 0.4% | 30.6hPa | 2.7V | 18:12:15 | 01:28:11 | 00:00:00 | |
| DK7TD | 2026-08-31 11:57:52 | 49.17602 | 10.22657 | 335° | 40km/h | 24199m | 6.2m/s | 0°C | 0% | 0hPa | 2.6V | 18:12:15 | 01:28:13 | 00:00:00 | |
| DL1XH-west | 2026-08-31 11:57:50 | 49.17574 | 10.22675 | 340° | 38km/h | 24183m | 5.5m/s | -51.2°C | 0.4% | 30.6hPa | 2.7V | 18:12:15 | 01:28:10 | 00:00:00 | |
| DG9SBQ-11 | 2026-08-31 11:57:50 | 49.17583 | 10.22669 | 339° | 42km/h | 24188m | 5.9m/s | -51.2°C | 0.9% | 30.6hPa | 2.6V | 00:00:00 | 00:00:00 | 00:00:00 | |
| DO3MHA-11 | 2026-08-31 11:57:49 | 49.17574 | 10.22675 | 341° | 31km/h | 24183m | 5.4m/s | -51.1°C | 3.8% | 30.6hPa | 2.6V | 00:00:00 | 01:28:10 | 00:00:00 | |
| DM0DOS-11 | 2026-08-31 11:57:47 | 49.17551 | 10.22692 | 321° | 31km/h | 24166m | 6.5m/s | -51°C | 3.8% | 30.7hPa | 2.6V | 08:30:00 | 01:28:07 | 00:00:00 | |
| HSKMA3-T | 2026-08-31 11:57:47 | 49.17558 | 10.22685 | 330° | 31km/h | 24172m | 5.2m/s | -51°C | 0.4% | 30.7hPa | 2.6V | 18:12:15 | 01:28:08 | 00:00:00 | |
| DF8AY | 2026-08-31 11:57:45 | 49.17546 | 10.22700 | 311° | 31km/h | 24161m | 4.8m/s | -51°C | 0.5% | 30.7hPa | 2.6V | 18:12:15 | 01:28:06 | 00:00:00 | |
| DO3MHA-12 | 2026-08-31 11:57:45 | 49.17546 | 10.22700 | 311° | 31km/h | 24161m | 4.8m/s | -51.0°C | 3.8% | 30.7hPa | 2.6V | 00:00:00 | 01:28:06 | 08:30:00 | |
| NBG1-10 | 2026-08-31 11:57:44 | 49.17541 | 10.22710 | 308° | 24km/h | 24157m | 4.4m/s | -51.0°C | 3.8% | 30.7hPa | 2.6V | 00:00:00 | 01:28:05 | 00:00:00 | |
| OE5WHR-10 | 2026-08-31 11:57:43 | 49.17536 | 10.22719 | 311° | 24km/h | 24151m | 5.2m/s | -51.1°C | 3.9% | 30.7hPa | 2.6V | 00:00:00 | 00:00:00 | 00:00:00 | |
| SO1NDE-10 | 2026-08-31 11:57:42 | 49.17531 | 10.22727 | 319° | 20km/h | 24146m | 5.8m/s | -51.1°C | 3.9% | 30.7hPa | 2.6V | 00:00:00 | 01:28:03 | 00:00:00 | |
| DL9SK-14 | 2026-08-31 11:57:41 | 49.17518 | 10.22739 | 333° | 29km/h | 24135m | 5.2m/s | -51.1°C | 1.0% | 30.9hPa | 2.6V | 00:00:00 | 00:00:00 | 00:00:00 | |
| DL1XH1-15 | 2026-08-31 11:57:40 | 49.17489 | 10.22760 | 340° | 31km/h | 24112m | 6.3m/s | -51.2°C | 3.8% | 30.9hPa | 2.6V | 08:30:00 | 01:27:57 | 00:00:00 | |
| BIOWL1-15 | 2026-08-31 11:57:40 | 49.17518 | 10.22739 | 334° | 31km/h | 24135m | 5.2m/s | -51.1°C | 0.5% | 30.9hPa | 2.6V | 18:12:15 | 01:28:01 | 00:00:00 | |
| DL1XH-west | 2026-08-31 11:57:39 | 49.17511 | 10.22745 | 335° | 33km/h | 24129m | 6.4m/s | -51.1°C | 0.5% | 30.9hPa | 2.7V | 18:12:15 | 01:28:00 | 00:00:00 | |
| DK7TD | 2026-08-31 11:57:37 | 49.17496 | 10.22755 | 337° | 33km/h | 24118m | 5.1m/s | 0°C | 0% | 0hPa | 2.7V | 18:12:15 | 01:27:58 | 00:00:00 | |
| HSKMA3-T | 2026-08-31 11:57:36 | 49.17489 | 10.22760 | 341° | 31km/h | 24112m | 6.3m/s | -51.2°C | 0.4% | 31hPa | 2.6V | 18:12:15 | 01:27:57 | 00:00:00 | |
| DF8AY | 2026-08-31 11:57:35 | 49.17464 | 10.22774 | 322° | 24km/h | 24092m | 6.5m/s | -50.9°C | 0.3% | 31.1hPa | 2.7V | 18:12:15 | 01:27:53 | 00:00:00 | |
| BIOWL1-15 | 2026-08-31 11:57:31 | 49.17453 | 10.22796 | 302° | 22km/h | 24075m | 5.7m/s | -50.9°C | 0.5% | 31.1hPa | 2.7V | 18:12:15 | 01:27:50 | 00:00:00 | |
| DO3MHA-11 | 2026-08-31 11:57:29 | 49.17453 | 10.22796 | 302° | 22km/h | 24076m | 5.7m/s | -50.9°C | 3.8% | 31.1hPa | 2.6V | 00:00:00 | 01:27:50 | 00:00:00 | |
| DL1XH1-15 | 2026-08-31 11:57:28 | 49.17443 | 10.22812 | 332° | 20km/h | 24059m | 5.3m/s | -50.8°C | 3.8% | 31.2hPa | 2.6V | 08:30:00 | 01:27:47 | 00:00:00 | |
| DL1XH-west | 2026-08-31 11:57:28 | 49.17450 | 10.22803 | 310° | 20km/h | 24069m | 5.8m/s | -50.9°C | 0.5% | 31.2hPa | 2.7V | 18:12:15 | 01:27:49 | 00:00:00 | |
| DK7TD | 2026-08-31 11:57:27 | 49.17447 | 10.22808 | 323° | 18km/h | 24064m | 5.2m/s | 0°C | 0% | 0hPa | 2.6V | 18:12:15 | 01:27:48 | 00:00:00 | |
| HSKMA3-T | 2026-08-31 11:57:25 | 49.17438 | 10.22815 | 337° | 20km/h | 24053m | 6m/s | -50.8°C | 0.4% | 31.2hPa | 2.6V | 18:12:15 | 01:27:46 | 00:00:00 | |
| DO3MHA-12 | 2026-08-31 11:57:25 | 49.17438 | 10.22815 | 337° | 22km/h | 24054m | 6.0m/s | -50.8°C | 3.8% | 31.2hPa | 2.6V | 00:00:00 | 01:27:46 | 00:00:00 | |
| OE5DXL-15 | 2026-08-31 11:57:24 | 49.17433 | 10.22818 | 344° | 18km/h | 24048m | 4.8m/s | -50.8°C | 3.8% | 31.2hPa | 2.6V | 00:00:00 | 00:00:00 | 00:00:00 | |
| KANTATE | 2026-08-31 11:57:23 | 49.17427 | 10.22820 | 354° | 24km/h | 24043m | 5.4m/s | -50.8°C | 0.9% | 31.3hPa | 2.6V | 00:00:00 | 00:00:00 | 00:00:00 | |
| OE5WHR-10 | 2026-08-31 11:57:22 | 49.17421 | 10.22820 | 3° | 18km/h | 24037m | 6.7m/s | -50.8°C | 3.7% | 31.3hPa | 2.6V | 00:00:00 | 01:27:43 | 00:00:00 | |
| DL0LBS | 2026-08-31 11:57:21 | 49.17415 | 10.22819 | 7° | 24km/h | 24031m | 4.8m/s | -50.9°C | 0.9% | 31.3hPa | 2.6V | 00:00:00 | 00:00:00 | 00:00:00 | |
| DB0NH | 2026-08-31 11:57:20 | 49.17409 | 10.22819 | 1° | 16km/h | 24026m | 5.5m/s | -50.9°C | 3.7% | 31.3hPa | 2.6V | 00:00:00 | 01:27:41 | 00:00:00 | |
| DL1NUX | 2026-08-31 11:57:19 | 49.17390 | 10.22835 | 319° | 15km/h | 23998m | 5.6m/s | -50.9°C | 3.7% | 31.5hPa | 2.6V | 08:30:00 | 01:27:36 | 00:00:00 | |
| BIOWL1-15 | 2026-08-31 11:57:18 | 49.17399 | 10.22822 | 331° | 18km/h | 24014m | 4.8m/s | -50.9°C | 0.3% | 31.4hPa | 2.7V | 18:12:15 | 01:27:39 | 00:00:00 | |
| DL1XH-west | 2026-08-31 11:57:18 | 49.17396 | 10.22826 | 318° | 18km/h | 24009m | 5.1m/s | -51°C | 0.3% | 31.5hPa | 2.7V | 18:12:15 | 01:27:38 | 00:00:00 | |
| DM0DOS-11 | 2026-08-31 11:57:17 | 49.17393 | 10.22831 | 312° | 16km/h | 24004m | 6m/s | -50.9°C | 3.7% | 31.5hPa | 2.6V | 08:30:00 | 01:27:37 | 00:00:00 | |
| HSKMA3-T | 2026-08-31 11:57:15 | 49.17390 | 10.22835 | 320° | 15km/h | 23998m | 5.6m/s | -50.9°C | 0.3% | 31.5hPa | 2.6V | 18:12:15 | 01:27:36 | 00:00:00 | |
| DK7TD | 2026-08-31 11:57:12 | 49.17380 | 10.22844 | 328° | 16km/h | 23983m | 6.1m/s | 0°C | 0% | 0hPa | 2.7V | 18:12:15 | 01:27:33 | 00:00:00 | |
| DL1ZP-14 | 2026-08-31 11:57:12 | 49.17380 | 10.22844 | 327° | 16km/h | 23983m | 6.1m/s | -51.1°C | 0.9% | 31.6hPa | 2.7V | 00:00:00 | 00:00:00 | 00:00:00 | |
| NBG1-10 | 2026-08-31 11:57:11 | 49.17376 | 10.22848 | 333° | 18km/h | 23977m | 4.9m/s | -51.0°C | 3.7% | 31.6hPa | 2.7V | 00:00:00 | 01:27:32 | 00:00:00 | |
| DL1XH1-15 | 2026-08-31 11:57:10 | 49.17355 | 10.22844 | 21° | 20km/h | 23950m | 6.2m/s | -51.4°C | 3.8% | 31.8hPa | 2.7V | 08:30:00 | 01:27:27 | 00:00:00 | |
| DL1NUX | 2026-08-31 11:57:10 | 49.17350 | 10.22842 | 9° | 20km/h | 23944m | 5.7m/s | -51.5°C | 3.8% | 31.8hPa | 2.6V | 08:30:00 | 01:27:26 | 00:00:00 | |
| DL1XH-west | 2026-08-31 11:57:07 | 49.17360 | 10.22847 | 26° | 20km/h | 23955m | 4.6m/s | -51.3°C | 0.4% | 31.7hPa | 2.7V | 18:12:15 | 01:27:28 | 00:00:00 | |
| HSKMA3-T | 2026-08-31 11:57:04 | 49.17345 | 10.22841 | 359° | 18km/h | 23938m | 5.1m/s | -51.3°C | 0.4% | 31.8hPa | 2.6V | 18:12:15 | 01:27:25 | 00:00:00 | |
| DG1MJG | 2026-08-31 11:57:03 | 49.17340 | 10.22841 | 356° | 18km/h | 23934m | 5.2m/s | 0°C | 0% | 0hPa | 2.6V | 00:00:00 | 00:00:00 | 00:00:00 | |
| OE5WHR-10 | 2026-08-31 11:57:01 | 49.17332 | 10.22843 | 353° | 16km/h | 23922m | 4.9m/s | -51.5°C | 3.9% | 31.8hPa | 2.6V | 00:00:00 | 00:00:00 | 08:30:00 | |
| DL1NUX | 2026-08-31 11:57:00 | 49.17315 | 10.22859 | 337° | 11km/h | 23887m | 5.7m/s | -51.6°C | 3.8% | 32hPa | 2.6V | 08:30:00 | 01:27:16 | 00:00:00 | |
| DL1XH1-15 | 2026-08-31 11:56:59 | 49.17318 | 10.22857 | 322° | 13km/h | 23893m | 6.2m/s | -51.6°C | 3.9% | 32hPa | 2.7V | 08:30:00 | 01:27:17 | 00:00:00 | |
| DL1XH-west | 2026-08-31 11:56:57 | 49.17321 | 10.22853 | 315° | 15km/h | 23899m | 4.9m/s | -51.7°C | 0.5% | 32hPa | 2.7V | 18:12:15 | 01:27:18 | 00:00:00 | |
| HSKMA3-T | 2026-08-31 11:56:54 | 49.17313 | 10.22860 | 346° | 11km/h | 23882m | 4.7m/s | -51.6°C | 0.5% | 32.1hPa | 2.6V | 18:12:15 | 01:27:15 | 00:00:00 | |
| BIOWL1-15 | 2026-08-31 11:56:52 | 49.17291 | 10.22878 | 338° | 16km/h | 23848m | 4.6m/s | -51.5°C | 0.4% | 32.3hPa | 2.6V | 18:12:15 | 01:27:09 | 00:00:00 | |
| DF3TZ-5 | 2026-08-31 11:56:52 | 49.17299 | 10.22871 | 328° | 18km/h | 23860m | 5.7m/s | -51.6°C | 1.0% | 32.2hPa | 2.7V | 00:00:00 | 00:00:00 | 00:00:00 | |
| SONDE2-11 | 2026-08-31 11:56:50 | 49.17295 | 10.22875 | 332° | 16km/h | 23854m | 6.1m/s | -51.6°C | 0.9% | 32.2hPa | 2.7V | 00:00:00 | 00:00:00 | 00:00:00 | |
| DL1NUX | 2026-08-31 11:56:49 | 49.17278 | 10.22887 | 327° | 22km/h | 23833m | 6m/s | -51.6°C | 3.9% | 32.3hPa | 2.7V | 08:30:00 | 01:27:06 | 00:00:00 | |
| DO3MHA-11 | 2026-08-31 11:56:49 | 49.17295 | 10.22875 | 333° | 20km/h | 23854m | 6.0m/s | -51.6°C | 3.8% | 32.2hPa | 2.7V | 00:00:00 | 01:27:10 | 00:00:00 | |
| DM0DOS-11 | 2026-08-31 11:56:47 | 49.17283 | 10.22883 | 331° | 20km/h | 23839m | 6.3m/s | -51.6°C | 3.9% | 32.3hPa | 2.7V | 08:30:00 | 01:27:07 | 00:00:00 | |
| DK7TD | 2026-08-31 11:56:47 | 49.17287 | 10.22880 | 336° | 18km/h | 23844m | 4.2m/s | 0°C | 0% | 0hPa | 2.7V | 18:12:15 | 01:27:08 | 00:00:00 | |
| DL1XH-west | 2026-08-31 11:56:46 | 49.17278 | 10.22887 | 328° | 22km/h | 23833m | 6m/s | -51.7°C | 0.5% | 32.3hPa | 2.7V | 18:12:15 | 01:27:06 | 00:00:00 | |
| HSKMA3-T | 2026-08-31 11:56:43 | 49.17268 | 10.22897 | 329° | 24km/h | 23821m | 6.5m/s | -51.6°C | 0.5% | 32.4hPa | 2.6V | 18:12:15 | 01:27:04 | 00:00:00 | |
| BIOWL1-15 | 2026-08-31 11:56:40 | 49.17229 | 10.22933 | 333° | 22km/h | 23776m | 5m/s | -52°C | 0.6% | 32.6hPa | 2.6V | 18:12:15 | 01:26:56 | 00:00:00 | |
| OE5WHR-10 | 2026-08-31 11:56:40 | 49.17254 | 10.22909 | 328° | 26km/h | 23805m | 6.2m/s | -51.8°C | 4.0% | 32.4hPa | 2.6V | 00:00:00 | 00:00:00 | 00:00:00 | |
| DL1NUX | 2026-08-31 11:56:39 | 49.17229 | 10.22933 | 332° | 22km/h | 23776m | 5m/s | -52°C | 4% | 32.6hPa | 2.6V | 08:30:00 | 01:26:56 | 00:00:00 | |
| DO3MHA-11 | 2026-08-31 11:56:39 | 49.17249 | 10.22914 | 325° | 26km/h | 23799m | 5.7m/s | -51.9°C | 4.0% | 32.5hPa | 2.6V | 00:00:00 | 01:27:00 | 00:00:00 | |
| DL1XH1-15 | 2026-08-31 11:56:38 | 49.17234 | 10.22929 | 332° | 22km/h | 23781m | 5.7m/s | -52°C | 4% | 32.6hPa | 2.7V | 08:30:00 | 01:26:57 | 00:00:00 | |
| DK7TD | 2026-08-31 11:56:37 | 49.17239 | 10.22925 | 327° | 24km/h | 23788m | 6.5m/s | 0°C | 0% | 0hPa | 2.7V | 18:12:15 | 01:26:58 | 00:00:00 | |
| DL1XH-west | 2026-08-31 11:56:35 | 49.17224 | 10.22938 | 327° | 24km/h | 23771m | 6m/s | -51.8°C | 0.5% | 32.6hPa | 2.6V | 18:12:15 | 01:26:55 | 00:00:00 | |
| DF8AY | 2026-08-31 11:56:34 | 49.17219 | 10.22943 | 320° | 26km/h | 23765m | 5.9m/s | -51.8°C | 0.6% | 32.7hPa | 2.6V | 18:12:15 | 01:26:54 | 00:00:00 | |
| HSKMA3-T | 2026-08-31 11:56:32 | 49.17214 | 10.22950 | 316° | 27km/h | 23759m | 4.5m/s | -51.9°C | 0.5% | 32.7hPa | 2.7V | 18:12:15 | 01:26:53 | 00:00:00 | |
| BIOWL1-15 | 2026-08-31 11:56:30 | 49.17194 | 10.22980 | 313° | 31km/h | 23738m | 6m/s | -51.9°C | 0.4% | 32.8hPa | 2.6V | 18:12:15 | 01:26:49 | 00:00:00 | |
| DL1NUX | 2026-08-31 11:56:29 | 49.17179 | 10.23009 | 305° | 29km/h | 23721m | 5.8m/s | -51.9°C | 3.9% | 32.9hPa | 2.7V | 08:30:00 | 01:26:46 | 00:00:00 | |
| DO3MHA-11 | 2026-08-31 11:56:29 | 49.17199 | 10.22972 | 317° | 24km/h | 23743m | 4.7m/s | -51.7°C | 3.9% | 32.7hPa | 2.7V | 00:00:00 | 01:26:50 | 00:00:00 | |
| DL1XH1-15 | 2026-08-31 11:56:28 | 49.17183 | 10.22999 | 306° | 33km/h | 23727m | 4.6m/s | -51.8°C | 3.9% | 32.9hPa | 2.7V | 08:30:00 | 01:26:47 | 00:00:00 | |
| DL1XH-west | 2026-08-31 11:56:24 | 49.17172 | 10.23023 | 308° | 16km/h | 23709m | 5.3m/s | -51.8°C | 0.5% | 32.9hPa | 2.6V | 18:12:15 | 01:26:44 | 00:00:00 | |
| HSKMA3-T | 2026-08-31 11:56:22 | 49.17170 | 10.23028 | 309° | 15km/h | 23704m | 5.5m/s | -51.8°C | 0.6% | 33hPa | 2.6V | 18:12:15 | 01:26:43 | 00:00:00 | |
| BIOWL1-15 | 2026-08-31 11:56:18 | 49.17156 | 10.23049 | 328° | 15km/h | 23676m | 5.9m/s | -51.7°C | 0.5% | 33.1hPa | 2.6V | 18:12:15 | 01:26:38 | 00:00:00 | |
| DL1XH1-15 | 2026-08-31 11:56:18 | 49.17149 | 10.23056 | 323° | 18km/h | 23665m | 4.7m/s | -51.7°C | 3.8% | 33.2hPa | 2.7V | 08:30:00 | 01:26:36 | 00:00:00 | |
| DK7TD | 2026-08-31 11:56:16 | 49.17152 | 10.23052 | 330° | 16km/h | 23670m | 5.2m/s | 0°C | 0% | 0hPa | 2.6V | 18:12:15 | 01:26:37 | 00:00:00 | |
| DL1XH-west | 2026-08-31 11:56:13 | 49.17141 | 10.23067 | 312° | 26km/h | 23653m | 5.4m/s | -51.8°C | 0.4% | 33.2hPa | 2.6V | 18:12:15 | 01:26:34 | 00:00:00 | |
| HSKMA3-T | 2026-08-31 11:56:12 | 49.17136 | 10.23075 | 311° | 26km/h | 23648m | 5.6m/s | -51.8°C | 0.5% | 33.3hPa | 2.6V | 18:12:15 | 01:26:33 | 00:00:00 | |
| DL1ZP-14 | 2026-08-31 11:56:10 | 49.17128 | 10.23089 | 315° | 22km/h | 23636m | 4.8m/s | -51.8°C | 1.0% | 33.3hPa | 2.7V | 00:00:00 | 00:00:00 | 00:00:00 | |
| DO3MHA-11 | 2026-08-31 11:56:09 | 49.17124 | 10.23095 | 315° | 18km/h | 23631m | 4.6m/s | -51.8°C | 3.9% | 33.3hPa | 2.7V | 00:00:00 | 01:26:30 | 00:00:00 | |
| DL1XH1-15 | 2026-08-31 11:56:08 | 49.17111 | 10.23120 | 308° | 18km/h | 23610m | 5.1m/s | -52°C | 4.1% | 33.5hPa | 2.6V | 08:30:00 | 01:26:26 | 00:00:00 | |
| BIOWL1-15 | 2026-08-31 11:56:06 | 49.17111 | 10.23120 | 308° | 18km/h | 23610m | 5.1m/s | -52°C | 0.6% | 33.5hPa | 2.6V | 18:12:15 | 01:26:26 | 00:00:00 | |
| HSKMA3-T | 2026-08-31 11:56:02 | 49.17102 | 10.23130 | 330° | 16km/h | 23593m | 4.4m/s | -51.9°C | 0.5% | 33.5hPa | 2.6V | 18:12:15 | 01:26:23 | 00:00:00 | |
| DK7TD | 2026-08-31 11:56:01 | 49.17098 | 10.23134 | 325° | 20km/h | 23588m | 6.3m/s | 0°C | 0% | 0hPa | 2.6V | 18:12:15 | 01:26:22 | 00:00:00 | |
| DF8AY | 2026-08-31 11:55:59 | 49.17089 | 10.23146 | 316° | 27km/h | 23576m | 5m/s | -52.1°C | 0.6% | 33.6hPa | 2.7V | 18:12:15 | 01:26:20 | 00:00:00 | |
| BIOWL1-15 | 2026-08-31 11:55:53 | 49.17071 | 10.23189 | 279° | 15km/h | 23542m | 5.4m/s | -51.9°C | 0.6% | 33.8hPa | 2.7V | 18:12:15 | 01:26:14 | 00:00:00 | |
| DL1XH-west | 2026-08-31 11:55:52 | 49.17071 | 10.23194 | 267° | 9km/h | 23536m | 6.7m/s | -51.8°C | 0.5% | 33.9hPa | 2.6V | 18:12:15 | 01:26:13 | 00:00:00 | |
| HSKMA3-T | 2026-08-31 11:55:51 | 49.17071 | 10.23196 | 227° | 4km/h | 23531m | 4.6m/s | -51.7°C | 0.5% | 33.9hPa | 2.6V | 18:12:15 | 01:26:12 | 00:00:00 | |
| DF8AY | 2026-08-31 11:55:48 | 49.17066 | 10.23206 | 319° | 18km/h | 23504m | 5.1m/s | -51.8°C | 0.5% | 34hPa | 2.6V | 18:12:15 | 01:26:07 | 00:00:00 | |
| DK7TD | 2026-08-31 11:55:47 | 49.17069 | 10.23201 | 315° | 15km/h | 23509m | 5.4m/s | 0°C | 0% | 0hPa | 2.6V | 18:12:15 | 01:26:08 | 00:00:00 | |
| BIOWL1-15 | 2026-08-31 11:55:43 | 49.17052 | 10.23226 | 287° | 13km/h | 23477m | 5.8m/s | -51.8°C | 0.5% | 34.1hPa | 2.6V | 18:12:15 | 01:26:02 | 00:00:00 | |
| HSKMA3-T | 2026-08-31 11:55:40 | 49.17052 | 10.23230 | 271° | 13km/h | 23471m | 5.8m/s | -52°C | 0.4% | 34.2hPa | 2.6V | 18:12:15 | 01:26:01 | 00:00:00 | |
| DM0DOS-11 | 2026-08-31 11:55:39 | 49.17054 | 10.23242 | 173° | 4km/h | 23448m | 4.9m/s | -52.2°C | 4% | 34.3hPa | 2.6V | 08:30:00 | 01:25:57 | 00:00:00 | |
| DF8AY | 2026-08-31 11:55:36 | 49.17054 | 10.23242 | 174° | 4km/h | 23448m | 4.9m/s | -52.2°C | 0.6% | 34.3hPa | 2.6V | 18:12:15 | 01:25:57 | 00:00:00 | |
| DK7TD | 2026-08-31 11:55:33 | 49.17056 | 10.23242 | 160° | 2km/h | 23431m | 4.7m/s | 0°C | 0% | 0hPa | 2.7V | 18:12:15 | 01:25:54 | 00:00:00 | |
| DL1XH-west | 2026-08-31 11:55:31 | 49.17056 | 10.23240 | 41° | 4km/h | 23419m | 6m/s | -52.2°C | 0.6% | 34.5hPa | 2.6V | 18:12:15 | 01:25:52 | 00:00:00 | |
| HSKMA3-T | 2026-08-31 11:55:30 | 49.17055 | 10.23240 | 14° | 4km/h | 23414m | 4.8m/s | -52.2°C | 0.6% | 34.5hPa | 2.6V | 18:12:15 | 01:25:51 | 00:00:00 | |
| DO3MHA-11 | 2026-08-31 11:55:29 | 49.17054 | 10.23240 | 336° | 4km/h | 23408m | 6.7m/s | -52.0°C | 4.0% | 34.5hPa | 2.6V | 00:00:00 | 01:25:50 | 00:00:00 | |
| DM0DOS-11 | 2026-08-31 11:55:27 | 49.17052 | 10.23245 | 284° | 4km/h | 23392m | 5.5m/s | -52°C | 3.9% | 34.6hPa | 2.6V | 08:30:00 | 01:25:47 | 00:00:00 | |
| DL1NUX | 2026-08-31 11:55:26 | 49.17052 | 10.23246 | 324° | 2km/h | 23386m | 5.8m/s | -52°C | 3.9% | 34.7hPa | 2.6V | 08:30:00 | 01:25:46 | 00:00:00 | |
| DF8AY | 2026-08-31 11:55:26 | 49.17052 | 10.23246 | 324° | 4km/h | 23386m | 5.8m/s | -52.1°C | 0.5% | 34.7hPa | 2.6V | 18:12:15 | 01:25:46 | 00:00:00 | |
| DK7TD | 2026-08-31 11:55:23 | 49.17051 | 10.23246 | 77° | 2km/h | 23376m | 4.9m/s | 0°C | 0% | 0hPa | 2.7V | 18:12:15 | 01:25:44 | 00:00:00 | |
| DL1XH-west | 2026-08-31 11:55:20 | 49.17054 | 10.23245 | 193° | 7km/h | 23358m | 5m/s | -52.1°C | 0.6% | 34.8hPa | 2.6V | 18:12:15 | 01:25:41 | 00:00:00 | |
| DB0NH | 2026-08-31 11:55:20 | 49.17053 | 10.23245 | 194° | 7km/h | 23359m | 5.0m/s | -52.0°C | 4.0% | 34.8hPa | 2.7V | 00:00:00 | 01:25:41 | 00:00:00 | |
| DM0DOS-11 | 2026-08-31 11:55:19 | 49.17058 | 10.23247 | 202° | 2km/h | 23336m | 5.2m/s | -52°C | 3.9% | 34.9hPa | 2.7V | 08:30:00 | 01:25:37 | 00:00:00 | |
| HSKMA3-T | 2026-08-31 11:55:19 | 49.17055 | 10.23246 | 198° | 7km/h | 23353m | 5.2m/s | -52.1°C | 0.5% | 34.9hPa | 2.6V | 18:12:15 | 01:25:40 | 00:00:00 | |
| DO3MHA-11 | 2026-08-31 11:55:19 | 49.17055 | 10.23246 | 198° | 4km/h | 23353m | 5.1m/s | -52.0°C | 4.0% | 34.8hPa | 2.7V | 00:00:00 | 01:25:40 | 00:00:00 | |
| DB0UT-7 | 2026-08-31 11:55:18 | 49.17057 | 10.23247 | 192° | 7km/h | 23348m | 6.2m/s | -51.9°C | 3.9% | 34.8hPa | 2.7V | 00:00:00 | 01:25:39 | 00:00:00 | |
| DL1NUX | 2026-08-31 11:55:16 | 49.17059 | 10.23248 | 222° | 4km/h | 23331m | 6.6m/s | -52.1°C | 3.9% | 35hPa | 2.6V | 08:30:00 | 01:25:36 | 00:00:00 | |
| DF8AY | 2026-08-31 11:55:15 | 49.17059 | 10.23248 | 223° | 4km/h | 23331m | 6.6m/s | -52.1°C | 0.5% | 35hPa | 2.6V | 18:12:15 | 01:25:36 | 00:00:00 | |
| HSKMA3-T | 2026-08-31 11:55:09 | 49.17057 | 10.23252 | 329° | 4km/h | 23297m | 6m/s | -52.2°C | 0.6% | 35.1hPa | 2.6V | 18:12:15 | 01:25:30 | 00:00:00 | |
| DO3MHA-11 | 2026-08-31 11:55:09 | 49.17057 | 10.23252 | 329° | 5km/h | 23297m | 6.0m/s | -52.2°C | 4.0% | 35.1hPa | 2.6V | 00:00:00 | 01:25:30 | 00:00:00 | |
| DL1XH1-15 | 2026-08-31 11:55:07 | 49.17057 | 10.23255 | 142° | 2km/h | 23275m | 6.2m/s | -52.2°C | 3.9% | 35.2hPa | 2.7V | 08:30:00 | 01:25:26 | 00:00:00 | |
| BIOWL1-15 | 2026-08-31 11:55:07 | 49.17058 | 10.23255 | 142° | 2km/h | 23275m | 6.2m/s | -52.2°C | 0.5% | 35.3hPa | 2.7V | 18:12:15 | 01:25:26 | 00:00:00 | |
| DM0DOS-11 | 2026-08-31 11:55:07 | 49.17057 | 10.23255 | 205° | 4km/h | 23281m | 5.8m/s | -52.1°C | 3.9% | 35.2hPa | 2.7V | 08:30:00 | 01:25:27 | 00:00:00 | |
| DF8AY | 2026-08-31 11:55:05 | 49.17058 | 10.23254 | 116° | 4km/h | 23270m | 5.1m/s | -52.3°C | 0.6% | 35.3hPa | 2.6V | 18:12:15 | 01:25:25 | 00:00:00 | |
| DO3MHA-12 | 2026-08-31 11:55:05 | 49.17058 | 10.23255 | 143° | 11km/h | 23275m | 6.2m/s | -52.1°C | 3.9% | 35.2hPa | 2.6V | 00:00:00 | 01:25:26 | 00:00:00 | |
| SONCRA | 2026-08-31 11:55:04 | 49.17058 | 10.23254 | 116° | 2km/h | 23270m | 5.1m/s | -52.3°C | 1.0% | 35.3hPa | 2.6V | 00:00:00 | 00:00:00 | 00:00:00 | |
| OE5DRO-10 | 2026-08-31 11:55:03 | 49.17058 | 10.23254 | 148° | 11km/h | 23265m | 5.1m/s | -52.2°C | 4.0% | 35.3hPa | 2.6V | 00:00:00 | 00:00:00 | 00:00:00 | |
| DN1GJH-1 | 2026-08-31 11:55:02 | 49.17058 | 10.23254 | 149° | 2km/h | 23265m | 5.1m/s | -52.2°C | 1.1% | 35.3hPa | 2.7V | 00:00:00 | 00:00:00 | 00:00:00 | |
| DO9HM | 2026-08-31 11:55:00 | 49.17059 | 10.23256 | 256° | 9km/h | 23253m | 5.8m/s | -52.3°C | 1.0% | 35.4hPa | 2.7V | 00:00:00 | 00:00:00 | 00:00:00 | |
| DM0DOS-11 | 2026-08-31 11:54:59 | 49.17051 | 10.23283 | 310° | 22km/h | 23225m | 5.3m/s | -52.5°C | 4.1% | 35.5hPa | 2.7V | 08:30:00 | 01:25:17 | 00:00:00 | |
| DL1XH1-15 | 2026-08-31 11:54:59 | 49.17048 | 10.23290 | 305° | 22km/h | 23219m | 6.4m/s | -52.4°C | 4.1% | 35.6hPa | 2.6V | 08:30:00 | 01:25:16 | 00:00:00 | |
| DL1XH-west | 2026-08-31 11:54:59 | 49.17059 | 10.23265 | 287° | 15km/h | 23243m | 6m/s | -52.3°C | 0.5% | 35.4hPa | 2.6V | 18:12:15 | 01:25:20 | 00:00:00 | |
| DF8AY | 2026-08-31 11:54:55 | 49.17043 | 10.23302 | 290° | 15km/h | 23208m | 5.1m/s | -52.4°C | 0.6% | 35.6hPa | 2.6V | 18:12:15 | 01:25:14 | 00:00:00 | |
| DK7TD | 2026-08-31 11:54:49 | 49.17044 | 10.23309 | 180° | 7km/h | 23185m | 6.4m/s | 0°C | 0% | 0hPa | 2.6V | 18:12:15 | 01:25:10 | 00:00:00 | |
| DL1XH-west | 2026-08-31 11:54:49 | 49.17049 | 10.23310 | 203° | 13km/h | 23173m | 5.8m/s | -52.6°C | 0.6% | 35.8hPa | 2.6V | 18:12:15 | 01:25:08 | 00:00:00 | |
| HSKMA3-T | 2026-08-31 11:54:48 | 49.17046 | 10.23309 | 193° | 11km/h | 23179m | 6.1m/s | -52.7°C | 0.6% | 35.8hPa | 2.6V | 18:12:15 | 01:25:09 | 00:00:00 | |
| DL1XH1-15 | 2026-08-31 11:54:48 | 49.17054 | 10.23315 | 223° | 9km/h | 23160m | 5.7m/s | -52.5°C | 4.1% | 35.9hPa | 2.7V | 08:30:00 | 01:25:06 | 00:00:00 | |
| DM0DOS-11 | 2026-08-31 11:54:48 | 49.17052 | 10.23313 | 209° | 13km/h | 23166m | 6.5m/s | -52.6°C | 4% | 35.9hPa | 2.7V | 08:30:00 | 01:25:07 | 00:00:00 | |
| DF3TZ-5 | 2026-08-31 11:54:47 | 49.17052 | 10.23313 | 209° | 11km/h | 23167m | 6.5m/s | -52.6°C | 1.0% | 35.9hPa | 2.6V | 00:00:00 | 00:00:00 | 00:00:00 | |
| SONDE2-11 | 2026-08-31 11:54:46 | 49.17054 | 10.23315 | 223° | 9km/h | 23161m | 5.7m/s | -52.5°C | 1.1% | 35.9hPa | 2.6V | 00:00:00 | 00:00:00 | 00:00:00 | |
| DF8AY | 2026-08-31 11:54:43 | 49.17058 | 10.23327 | 259° | 15km/h | 23143m | 6.3m/s | -52.6°C | 0.6% | 36hPa | 2.6V | 18:12:15 | 01:25:03 | 00:00:00 | |
| DN1GJH-1 | 2026-08-31 11:54:41 | 49.17057 | 10.23327 | 260° | 15km/h | 23143m | 6.3m/s | -52.6°C | 1.1% | 36.0hPa | 2.7V | 00:00:00 | 00:00:00 | 00:00:00 | |
| DO3MHA-11 | 2026-08-31 11:54:39 | 49.17058 | 10.23343 | 284° | 9km/h | 23126m | 6.0m/s | -52.5°C | 4.1% | 36.0hPa | 2.7V | 00:00:00 | 01:25:00 | 00:00:00 | |
| DL1XH1-15 | 2026-08-31 11:54:38 | 49.17059 | 10.23354 | 231° | 9km/h | 23102m | 5m/s | -52.4°C | 4.1% | 36.2hPa | 2.7V | 08:30:00 | 01:24:56 | 00:00:00 | |
| HSKMA3-T | 2026-08-31 11:54:38 | 49.17057 | 10.23349 | 268° | 5km/h | 23114m | 6.3m/s | -52.4°C | 0.6% | 36.1hPa | 2.6V | 18:12:15 | 01:24:58 | 00:00:00 | |
| DL1XH-west | 2026-08-31 11:54:36 | 49.17058 | 10.23351 | 246° | 7km/h | 23108m | 6m/s | -52.4°C | 0.6% | 36.2hPa | 2.6V | 18:12:15 | 01:24:57 | 00:00:00 | |
| DF8AY | 2026-08-31 11:54:33 | 49.17064 | 10.23361 | 215° | 9km/h | 23085m | 5m/s | -52.3°C | 0.5% | 36.3hPa | 2.6V | 18:12:15 | 01:24:53 | 00:00:00 | |
| DH7VM-15 | 2026-08-31 11:54:32 | 49.17064 | 10.23361 | 216° | 9km/h | 23085m | 5.0m/s | -52.3°C | 1.0% | 36.3hPa | 2.6V | 00:00:00 | 00:00:00 | 00:00:00 | |
| OE5WHR-10 | 2026-08-31 11:54:31 | 49.17066 | 10.23363 | 220° | 15km/h | 23080m | 5.7m/s | -52.2°C | 4.0% | 36.3hPa | 2.6V | 00:00:00 | 00:00:00 | 00:00:00 | |
| DO3MHA-11 | 2026-08-31 11:54:29 | 49.17072 | 10.23373 | 230° | 11km/h | 23068m | 5.3m/s | -52.2°C | 4.0% | 36.4hPa | 2.6V | 00:00:00 | 01:24:50 | 00:00:00 | |
| DM0DOS-11 | 2026-08-31 11:54:27 | 49.17080 | 10.23388 | 237° | 11km/h | 23051m | 5.6m/s | -52.4°C | 4.1% | 36.5hPa | 2.6V | 08:30:00 | 01:24:47 | 00:00:00 | |
| HSKMA3-T | 2026-08-31 11:54:27 | 49.17078 | 10.23384 | 235° | 15km/h | 23057m | 6.6m/s | -52.4°C | 0.5% | 36.5hPa | 2.6V | 18:12:15 | 01:24:48 | 00:00:00 | |
| BIOWL1-15 | 2026-08-31 11:54:25 | 49.17081 | 10.23391 | 233° | 7km/h | 23045m | 5.1m/s | -52.4°C | 0.6% | 36.5hPa | 2.6V | 18:12:15 | 01:24:46 | 00:00:00 | |
| DF8AY | 2026-08-31 11:54:22 | 49.17088 | 10.23395 | 167° | 9km/h | 23023m | 6.7m/s | -52.3°C | 0.6% | 36.7hPa | 2.6V | 18:12:15 | 01:24:42 | 00:00:00 | |
| DN1GJH-1 | 2026-08-31 11:54:21 | 49.17088 | 10.23395 | 168° | 9km/h | 23023m | 6.7m/s | -52.3°C | 1.1% | 36.7hPa | 2.7V | 00:00:00 | 00:00:00 | 00:00:00 | |
| DB0NH | 2026-08-31 11:54:20 | 49.17090 | 10.23394 | 156° | 11km/h | 23017m | 5.5m/s | -52.3°C | 4.1% | 36.6hPa | 2.7V | 00:00:00 | 01:24:41 | 00:00:00 | |
| DO9HM | 2026-08-31 11:54:19 | 49.17093 | 10.23392 | 165° | 15km/h | 23012m | 4.7m/s | -52.3°C | 1.1% | 36.7hPa | 2.7V | 00:00:00 | 00:00:00 | 00:00:00 | |
| DL1XH1-15 | 2026-08-31 11:54:18 | 49.17111 | 10.23396 | 199° | 18km/h | 22988m | 6.5m/s | -52.3°C | 4.1% | 36.9hPa | 2.7V | 08:30:00 | 01:24:36 | 00:00:00 | |
| HSKMA3-T | 2026-08-31 11:54:17 | 49.17101 | 10.23392 | 191° | 20km/h | 23000m | 6m/s | -52.3°C | 0.6% | 36.8hPa | 2.6V | 18:12:15 | 01:24:38 | 00:00:00 | |
| DL1XH-west | 2026-08-31 11:54:14 | 49.17115 | 10.23399 | 202° | 16km/h | 22983m | 5.3m/s | -52.2°C | 0.5% | 36.9hPa | 2.7V | 18:12:15 | 01:24:35 | 00:00:00 | |
| BIOWL1-15 | 2026-08-31 11:54:13 | 49.17129 | 10.23412 | 204° | 5km/h | 22954m | 6.6m/s | -52.2°C | 0.6% | 37hPa | 2.7V | 18:12:15 | 01:24:30 | 00:00:00 | |
| DM0DOS-11 | 2026-08-31 11:54:12 | 49.17134 | 10.23411 | 170° | 11km/h | 22937m | 6.8m/s | -52.2°C | 4.1% | 37.1hPa | 2.6V | 08:30:00 | 01:24:27 | 00:00:00 | |
| DF8AY | 2026-08-31 11:54:11 | 49.17128 | 10.23410 | 216° | 11km/h | 22960m | 5.9m/s | -52.2°C | 0.6% | 37hPa | 2.6V | 18:12:15 | 01:24:31 | 00:00:00 | |
| DO3MHA-11 | 2026-08-31 11:54:09 | 49.17129 | 10.23412 | 204° | 11km/h | 22954m | 6.6m/s | -52.2°C | 4.0% | 37.0hPa | 2.7V | 00:00:00 | 01:24:30 | 08:30:00 | |
| DL1XH1-15 | 2026-08-31 11:54:06 | 49.17137 | 10.23410 | 178° | 15km/h | 22931m | 5.1m/s | -52.2°C | 4.1% | 37.1hPa | 2.6V | 08:30:00 | 01:24:26 | 00:00:00 | |
| HSKMA3-T | 2026-08-31 11:54:06 | 49.17134 | 10.23411 | 171° | 11km/h | 22937m | 6.9m/s | -52.2°C | 0.6% | 37.1hPa | 2.6V | 18:12:15 | 01:24:27 | 00:00:00 | |
| DL1XH-west | 2026-08-31 11:54:03 | 49.17145 | 10.23410 | 179° | 15km/h | 22920m | 6.2m/s | -52.1°C | 0.6% | 37.2hPa | 2.7V | 18:12:15 | 01:24:24 | 00:00:00 | |
| BIOWL1-15 | 2026-08-31 11:54:02 | 49.17151 | 10.23410 | 174° | 11km/h | 22908m | 5.8m/s | -52°C | 0.6% | 37.3hPa | 2.6V | 18:12:15 | 01:24:22 | 00:00:00 | |
| DF8AY | 2026-08-31 11:54:00 | 49.17156 | 10.23409 | 185° | 9km/h | 22897m | 6.4m/s | -52°C | 0.5% | 37.4hPa | 2.6V | 18:12:15 | 01:24:20 | 00:00:00 | |
| DO3MHA-11 | 2026-08-31 11:53:59 | 49.17156 | 10.23409 | 186° | 9km/h | 22897m | 6.3m/s | -52.0°C | 3.9% | 37.4hPa | 2.6V | 00:00:00 | 01:24:20 | 00:00:00 | |
| DL1XH1-15 | 2026-08-31 11:53:58 | 49.17161 | 10.23408 | 92° | 5km/h | 22875m | 4.9m/s | -52.1°C | 4% | 37.5hPa | 2.6V | 08:30:00 | 01:24:16 | 00:00:00 | |
| HSKMA3-T | 2026-08-31 11:53:55 | 49.17161 | 10.23408 | 93° | 5km/h | 22875m | 4.9m/s | -52.1°C | 0.5% | 37.5hPa | 2.6V | 18:12:15 | 01:24:16 | 00:00:00 | |
| DL1XH-west | 2026-08-31 11:53:52 | 49.17164 | 10.23400 | 145° | 11km/h | 22858m | 5.2m/s | -51.9°C | 0.5% | 37.6hPa | 2.7V | 18:12:15 | 01:24:13 | 00:00:00 | |
| BIOWL1-15 | 2026-08-31 11:53:51 | 49.17177 | 10.23387 | 163° | 15km/h | 22829m | 6.6m/s | -52.2°C | 0.5% | 37.8hPa | 2.7V | 18:12:15 | 01:24:08 | 00:00:00 | |
| DM0DOS-11 | 2026-08-31 11:53:51 | 49.17181 | 10.23386 | 171° | 15km/h | 22823m | 4.9m/s | -52.2°C | 4% | 37.8hPa | 2.7V | 08:30:00 | 01:24:07 | 00:00:00 | |
| DB0NH | 2026-08-31 11:53:50 | 49.17169 | 10.23395 | 146° | 13km/h | 22847m | 6.6m/s | -52.1°C | 3.9% | 37.6hPa | 2.6V | 00:00:00 | 01:24:11 | 00:00:00 | |
| DO3MHA-11 | 2026-08-31 11:53:49 | 49.17171 | 10.23392 | 144° | 13km/h | 22841m | 5.5m/s | -52.2°C | 3.9% | 37.6hPa | 2.6V | 00:00:00 | 01:24:10 | 00:00:00 | |
| DL1XH1-15 | 2026-08-31 11:53:48 | 49.17188 | 10.23384 | 160° | 13km/h | 22814m | 6.3m/s | -52.2°C | 4% | 37.8hPa | 2.6V | 08:30:00 | 01:24:05 | 00:00:00 | |
| DF8AY | 2026-08-31 11:53:48 | 49.17174 | 10.23389 | 150° | 13km/h | 22835m | 5.6m/s | -52.3°C | 0.6% | 37.8hPa | 2.6V | 18:12:15 | 01:24:09 | 00:00:00 | |
| DF7PN | 2026-08-31 11:53:47 | 49.17177 | 10.23387 | 162° | 13km/h | 22830m | 6.6m/s | -52.2°C | 1.0% | 37.8hPa | 2.6V | 00:00:00 | 00:00:00 | 00:00:00 | |
| DF3TZ-5 | 2026-08-31 11:53:45 | 49.17184 | 10.23385 | 170° | 13km/h | 22819m | 4.4m/s | -52.3°C | 1.0% | 37.8hPa | 2.6V | 00:00:00 | 00:00:00 | 00:00:00 | |
| HSKMA3-T | 2026-08-31 11:53:44 | 49.17187 | 10.23384 | 161° | 13km/h | 22814m | 6.3m/s | -52.2°C | 0.6% | 37.9hPa | 2.6V | 18:12:15 | 01:24:05 | 00:00:00 | |
| DL1XH-west | 2026-08-31 11:53:41 | 49.17194 | 10.23377 | 136° | 9km/h | 22796m | 6.5m/s | -52.2°C | 0.5% | 38hPa | 2.6V | 18:12:15 | 01:24:02 | 00:00:00 | |
| DM0DOS-11 | 2026-08-31 11:53:41 | 49.17204 | 10.23361 | 119° | 15km/h | 22768m | 5m/s | -52.2°C | 3.9% | 38.1hPa | 2.7V | 08:30:00 | 01:23:57 | 00:00:00 | |
| DJTTGO | 2026-08-31 11:53:40 | 49.17193 | 10.23377 | 137° | 9km/h | 22797m | 6.5m/s | -52.2°C | 1.0% | 38.0hPa | 2.6V | 00:00:00 | 00:00:00 | 00:00:00 | |
| DO3MHA-11 | 2026-08-31 11:53:39 | 49.17198 | 10.23372 | 144° | 13km/h | 22785m | 4.6m/s | -51.9°C | 3.9% | 38.0hPa | 2.6V | 00:00:00 | 01:24:00 | 00:00:00 | |
| DL1XH1-15 | 2026-08-31 11:53:38 | 49.17208 | 10.23353 | 139° | 15km/h | 22757m | 6.4m/s | -52.2°C | 4% | 38.2hPa | 2.6V | 08:30:00 | 01:23:55 | 00:00:00 | |
| BIOWL1-15 | 2026-08-31 11:53:38 | 49.17200 | 10.23369 | 136° | 11km/h | 22780m | 5.4m/s | -52°C | 0.5% | 38.1hPa | 2.7V | 18:12:15 | 01:23:59 | 00:00:00 | |
| DF8AY | 2026-08-31 11:53:37 | 49.17204 | 10.23361 | 120° | 15km/h | 22768m | 5.1m/s | -52.2°C | 0.5% | 38.1hPa | 2.7V | 18:12:15 | 01:23:57 | 00:00:00 | |
| BIOWL1-15 | 2026-08-31 11:53:34 | 49.17217 | 10.23337 | 112° | 4km/h | 22725m | 6.4m/s | -52.4°C | 0.4% | 38.4hPa | 2.6V | 18:12:15 | 01:23:49 | 00:00:00 | |
| HSKMA3-T | 2026-08-31 11:53:33 | 49.17211 | 10.23350 | 147° | 15km/h | 22751m | 5m/s | -52.3°C | 0.5% | 38.2hPa | 2.6V | 18:12:15 | 01:23:54 | 00:00:00 | |
| DL1XH-west | 2026-08-31 11:53:30 | 49.17217 | 10.23341 | 110° | 7km/h | 22735m | 4.7m/s | -52.3°C | 0.5% | 38.4hPa | 2.6V | 18:12:15 | 01:23:51 | 00:00:00 | |
| DL1NUX | 2026-08-31 11:53:29 | 49.17221 | 10.23331 | 128° | 11km/h | 22709m | 5.4m/s | -52.5°C | 3.9% | 38.5hPa | 2.7V | 08:30:00 | 01:23:46 | 00:00:00 | |
| DO3MHA-11 | 2026-08-31 11:53:29 | 49.17217 | 10.23338 | 99° | 13km/h | 22731m | 4.5m/s | -52.2°C | 3.9% | 38.3hPa | 2.6V | 00:00:00 | 01:23:50 | 00:00:00 | |
| DL1XH1-15 | 2026-08-31 11:53:27 | 49.17223 | 10.23327 | 113° | 13km/h | 22703m | 5.9m/s | -52.6°C | 4% | 38.5hPa | 2.6V | 08:30:00 | 01:23:45 | 00:00:00 | |
| DF8AY | 2026-08-31 11:53:26 | 49.17230 | 10.23302 | 117° | 22km/h | 22682m | 4.3m/s | -52.7°C | 0.6% | 38.6hPa | 2.7V | 18:12:15 | 01:23:41 | 00:00:00 | |
| HSKMA3-T | 2026-08-31 11:53:23 | 49.17226 | 10.23316 | 112° | 18km/h | 22693m | 5.8m/s | -52.6°C | 0.5% | 38.6hPa | 2.6V | 18:12:15 | 01:23:43 | 00:00:00 | |
| DL1XH-west | 2026-08-31 11:53:19 | 49.17235 | 10.23285 | 113° | 26km/h | 22671m | 5.7m/s | -52.8°C | 0.6% | 38.7hPa | 2.6V | 18:12:15 | 01:23:39 | 00:00:00 | |
| DL1NUX | 2026-08-31 11:53:19 | 49.17244 | 10.23261 | 131° | 24km/h | 22655m | 5.2m/s | -52.8°C | 4.2% | 38.8hPa | 2.7V | 08:30:00 | 01:23:36 | 00:00:00 | |
| DB0UT-7 | 2026-08-31 11:53:19 | 49.17235 | 10.23285 | 113° | 16km/h | 22671m | 5.6m/s | -52.7°C | 4.1% | 38.7hPa | 2.7V | 00:00:00 | 01:23:39 | 00:00:00 | |
| DL1XH1-15 | 2026-08-31 11:53:17 | 49.17249 | 10.23254 | 131° | 22km/h | 22650m | 4m/s | -52.9°C | 4.2% | 38.8hPa | 2.7V | 08:30:00 | 01:23:35 | 00:00:00 | |
| BIOWL1-15 | 2026-08-31 11:53:17 | 49.17238 | 10.23277 | 117° | 26km/h | 22666m | 4.7m/s | -52.8°C | 0.6% | 38.7hPa | 2.6V | 18:12:15 | 01:23:38 | 00:00:00 | |
| DF8AY | 2026-08-31 11:53:14 | 49.17248 | 10.23254 | 131° | 22km/h | 22650m | 4m/s | -52.9°C | 0.7% | 38.8hPa | 2.7V | 18:12:15 | 01:23:35 | 00:00:00 | |
| AZAK | 2026-08-31 11:53:14 | 49.17249 | 10.23254 | 132° | 22km/h | 22650m | 4.0m/s | -52.9°C | 1.1% | 38.8hPa | 2.7V | 00:00:00 | 00:00:00 | 00:00:00 | |
| DL0LBS | 2026-08-31 11:53:13 | 49.17251 | 10.23248 | 125° | 20km/h | 22645m | 5.2m/s | -52.9°C | 1.1% | 38.9hPa | 2.7V | 00:00:00 | 00:00:00 | 00:00:00 | |
| DM0DOS-11 | 2026-08-31 11:53:11 | 49.17261 | 10.23198 | 108° | 18km/h | 22609m | 4.8m/s | -52.8°C | 4.1% | 39.1hPa | 2.7V | 08:30:00 | 01:23:27 | 00:00:00 | |
| HSKMA3-T | 2026-08-31 11:53:11 | 49.17256 | 10.23233 | 101° | 20km/h | 22635m | 5.1m/s | -52.9°C | 0.6% | 38.9hPa | 2.6V | 18:12:15 | 01:23:32 | 00:00:00 | |
| DL1XH-west | 2026-08-31 11:53:07 | 49.17259 | 10.23204 | 111° | 18km/h | 22614m | 4.8m/s | -52.8°C | 0.7% | 39hPa | 2.6V | 18:12:15 | 01:23:28 | 00:00:00 | |
| DL1XH1-15 | 2026-08-31 11:53:07 | 49.17263 | 10.23182 | 97° | 22km/h | 22598m | 5.1m/s | -52.6°C | 4.1% | 39.2hPa | 2.6V | 08:30:00 | 01:23:25 | 00:00:00 | |
| BIOWL1-15 | 2026-08-31 11:53:06 | 49.17261 | 10.23198 | 109° | 18km/h | 22609m | 4.8m/s | -52.8°C | 0.6% | 39.1hPa | 2.7V | 18:12:15 | 01:23:27 | 00:00:00 | |
| DF8AY | 2026-08-31 11:53:03 | 49.17264 | 10.23174 | 96° | 24km/h | 22592m | 4.9m/s | -52.6°C | 0.6% | 39.2hPa | 2.6V | 18:12:15 | 01:23:24 | 00:00:00 | |
| DB0ND-19 | 2026-08-31 11:53:03 | 49.17264 | 10.23174 | 95° | 22km/h | 22593m | 4.9m/s | -52.6°C | 1.0% | 39.2hPa | 2.6V | 00:00:00 | 00:00:00 | 00:00:00 | |
| DG9SBQ-11 | 2026-08-31 11:53:02 | 49.17264 | 10.23173 | 97° | 24km/h | 22593m | 4.9m/s | -52.6°C | 1.0% | 39.2hPa | 2.6V | 00:00:00 | 00:00:00 | 00:00:00 | |
| DM0DOS-11 | 2026-08-31 11:53:01 | 49.17267 | 10.23124 | 105° | 13km/h | 22554m | 5.9m/s | -52.5°C | 4% | 39.4hPa | 2.6V | 08:30:00 | 01:23:17 | 00:00:00 | |
| HSKMA3-T | 2026-08-31 11:53:01 | 49.17265 | 10.23156 | 102° | 20km/h | 22581m | 5.4m/s | -52.5°C | 0.6% | 39.2hPa | 2.7V | 18:12:15 | 01:23:22 | 00:00:00 | |
| SONCRA | 2026-08-31 11:53:00 | 49.17266 | 10.23149 | 97° | 18km/h | 22577m | 4.4m/s | -52.5°C | 1.1% | 39.3hPa | 2.7V | 00:00:00 | 00:00:00 | 00:00:00 | |
| DL1NUX | 2026-08-31 11:52:59 | 49.17268 | 10.23119 | 114° | 11km/h | 22549m | 5.2m/s | -52.4°C | 4% | 39.4hPa | 2.7V | 08:30:00 | 01:23:16 | 00:00:00 | |
| DF8AY | 2026-08-31 11:52:58 | 49.17270 | 10.23111 | 107° | 13km/h | 22538m | 5.2m/s | -52.6°C | 0.6% | 39.5hPa | 2.6V | 18:12:15 | 01:23:14 | 00:00:00 | |
| DL1XH-west | 2026-08-31 11:52:57 | 49.17267 | 10.23124 | 106° | 13km/h | 22554m | 5.9m/s | -52.5°C | 0.5% | 39.4hPa | 2.6V | 18:12:15 | 01:23:17 | 00:00:00 | |
| BIOWL1-15 | 2026-08-31 11:52:55 | 49.17268 | 10.23119 | 115° | 11km/h | 22549m | 5.2m/s | -52.4°C | 0.6% | 39.4hPa | 2.7V | 18:12:15 | 01:23:16 | 00:00:00 | |
| DJ8HS-15 | 2026-08-31 11:52:55 | 49.17268 | 10.23119 | 115° | 13km/h | 22549m | 5.1m/s | -52.4°C | 4.0% | 39.4hPa | 2.6V | 00:00:00 | 01:23:16 | 00:00:00 | |
| OE5DXL-15 | 2026-08-31 11:52:54 | 49.17269 | 10.23115 | 114° | 13km/h | 22544m | 6.1m/s | -52.5°C | 4.0% | 39.4hPa | 2.6V | 00:00:00 | 00:00:00 | 00:00:00 | |
| DL0LBS | 2026-08-31 11:52:53 | 49.17270 | 10.23111 | 108° | 13km/h | 22538m | 5.2m/s | -52.6°C | 1.1% | 39.5hPa | 2.6V | 00:00:00 | 00:00:00 | 00:00:00 | |
| DM0DOS-11 | 2026-08-31 11:52:51 | 49.17276 | 10.23073 | 81° | 18km/h | 22501m | 4.7m/s | -52.6°C | 4% | 39.8hPa | 2.6V | 08:30:00 | 01:23:07 | 00:00:00 | |
| HSKMA3-T | 2026-08-31 11:52:50 | 49.17274 | 10.23097 | 121° | 13km/h | 22523m | 5.3m/s | -52.7°C | 0.6% | 39.6hPa | 2.7V | 18:12:15 | 01:23:11 | 00:00:00 | |
| DB0NH | 2026-08-31 11:52:50 | 49.17274 | 10.23097 | 121° | 13km/h | 22523m | 5.3m/s | -52.6°C | 4.1% | 39.6hPa | 2.6V | 00:00:00 | 01:23:11 | 00:00:00 | |
| DL1NUX | 2026-08-31 11:52:49 | 49.17276 | 10.23067 | 81° | 18km/h | 22495m | 6.3m/s | -52.7°C | 4.1% | 39.8hPa | 2.6V | 08:30:00 | 01:23:06 | 00:00:00 | |
| DL1XH-west | 2026-08-31 11:52:46 | 49.17275 | 10.23067 | 81° | 18km/h | 22495m | 6.3m/s | -52.7°C | 0.6% | 39.8hPa | 2.6V | 18:12:15 | 01:23:06 | 00:00:00 | |
| DF7PN | 2026-08-31 11:52:45 | 49.17275 | 10.23067 | 81° | 16km/h | 22495m | 6.3m/s | -52.7°C | 1.1% | 39.8hPa | 2.7V | 00:00:00 | 00:00:00 | 00:00:00 | |
| DF8AY | 2026-08-31 11:52:43 | 49.17274 | 10.23054 | 79° | 15km/h | 22485m | 5.3m/s | -52.8°C | 0.6% | 39.9hPa | 2.7V | 18:12:15 | 01:23:04 | 00:00:00 | |
| SONDE2-11 | 2026-08-31 11:52:42 | 49.17272 | 10.23043 | 64° | 15km/h | 22474m | 5.6m/s | -52.7°C | 1.1% | 39.9hPa | 2.6V | 00:00:00 | 00:00:00 | 00:00:00 | |
| DL1NUX | 2026-08-31 11:52:39 | 49.17268 | 10.23021 | 83° | 5km/h | 22443m | 5.6m/s | -52.4°C | 4% | 40.1hPa | 2.6V | 08:30:00 | 01:22:56 | 00:00:00 | |
| HSKMA3-T | 2026-08-31 11:52:39 | 49.17268 | 10.23033 | 69° | 13km/h | 22464m | 5.1m/s | -52.7°C | 0.6% | 40hPa | 2.7V | 18:12:15 | 01:23:00 | 00:00:00 | |
| DO3MHA-11 | 2026-08-31 11:52:39 | 49.17268 | 10.23033 | 69° | 9km/h | 22464m | 5.0m/s | -52.7°C | 4.2% | 39.9hPa | 2.7V | 00:00:00 | 01:23:00 | 08:30:00 | |
| DM0DOS-11 | 2026-08-31 11:52:38 | 49.17268 | 10.23023 | 100° | 5km/h | 22448m | 4.5m/s | -52.4°C | 4% | 40.1hPa | 2.6V | 08:30:00 | 01:22:57 | 00:00:00 | |
| DL1XH1-15 | 2026-08-31 11:52:37 | 49.17267 | 10.23018 | 67° | 9km/h | 22437m | 5.7m/s | -52.4°C | 4% | 40.1hPa | 2.6V | 08:30:00 | 01:22:55 | 00:00:00 | |
| DL1XH-west | 2026-08-31 11:52:35 | 49.17268 | 10.23021 | 84° | 5km/h | 22443m | 5.6m/s | -52.4°C | 0.5% | 40.1hPa | 2.6V | 18:12:15 | 01:22:56 | 00:00:00 | |
| DF8AY | 2026-08-31 11:52:33 | 49.17265 | 10.23011 | 76° | 11km/h | 22427m | 6m/s | -52.4°C | 0.6% | 40.2hPa | 2.7V | 18:12:15 | 01:22:53 | 00:00:00 | |
| DL1ZP-14 | 2026-08-31 11:52:33 | 49.17265 | 10.23011 | 75° | 9km/h | 22427m | 6.0m/s | -52.4°C | 1.1% | 40.2hPa | 2.7V | 00:00:00 | 00:00:00 | 00:00:00 | |
| DL0LBS | 2026-08-31 11:52:32 | 49.17265 | 10.23011 | 77° | 11km/h | 22427m | 6.0m/s | -52.4°C | 1.1% | 40.2hPa | 2.6V | 00:00:00 | 00:00:00 | 00:00:00 | |
| DM0DOS-11 | 2026-08-31 11:52:31 | 49.17259 | 10.22984 | 69° | 13km/h | 22393m | 6.2m/s | -52.4°C | 3.9% | 40.4hPa | 2.6V | 08:30:00 | 01:22:47 | 00:00:00 | |
| DL1NUX | 2026-08-31 11:52:30 | 49.17258 | 10.22979 | 74° | 13km/h | 22388m | 4.9m/s | -52.5°C | 4% | 40.5hPa | 2.6V | 08:30:00 | 01:22:46 | 00:00:00 | |
| HSKMA3-T | 2026-08-31 11:52:29 | 49.17264 | 10.22998 | 70° | 13km/h | 22410m | 6.6m/s | -52.4°C | 0.6% | 40.3hPa | 2.7V | 18:12:15 | 01:22:50 | 00:00:00 | |
| DL1XH-west | 2026-08-31 11:52:24 | 49.17257 | 10.22974 | 72° | 13km/h | 22383m | 4.4m/s | -52.6°C | 0.6% | 40.5hPa | 2.7V | 18:12:15 | 01:22:45 | 00:00:00 | |
| DF8AY | 2026-08-31 11:52:20 | 49.17247 | 10.22940 | 63° | 15km/h | 22347m | 5.8m/s | -52.5°C | 0.6% | 40.7hPa | 2.7V | 18:12:15 | 01:22:38 | 00:00:00 | |
| DB0NH | 2026-08-31 11:52:20 | 49.17250 | 10.22956 | 66° | 13km/h | 22362m | 6.0m/s | -52.4°C | 4.0% | 40.6hPa | 2.6V | 00:00:00 | 01:22:41 | 00:00:00 | |
| DL1NUX | 2026-08-31 11:52:19 | 49.17241 | 10.22929 | 44° | 18km/h | 22336m | 5.2m/s | -52.5°C | 4% | 40.8hPa | 2.6V | 08:30:00 | 01:22:36 | 00:00:00 | |
| HSKMA3-T | 2026-08-31 11:52:19 | 49.17248 | 10.22945 | 73° | 15km/h | 22352m | 3.9m/s | -52.4°C | 0.5% | 40.7hPa | 2.7V | 18:12:15 | 01:22:39 | 00:00:00 | |
| DM0DOS-11 | 2026-08-31 11:52:18 | 49.17244 | 10.22935 | 51° | 18km/h | 22342m | 5.8m/s | -52.5°C | 4% | 40.7hPa | 2.6V | 08:30:00 | 01:22:37 | 00:00:00 | |
| DF8AY | 2026-08-31 11:52:15 | 49.17224 | 10.22902 | 43° | 16km/h | 22304m | 4.3m/s | -52.7°C | 0.6% | 41hPa | 2.6V | 18:12:15 | 01:22:30 | 00:00:00 | |
| DL1XH-west | 2026-08-31 11:52:14 | 49.17235 | 10.22920 | 49° | 16km/h | 22325m | 6.1m/s | -52.7°C | 0.6% | 40.8hPa | 2.7V | 18:12:15 | 01:22:34 | 00:00:00 | |
| BIOWL1-15 | 2026-08-31 11:52:12 | 49.17232 | 10.22915 | 52° | 15km/h | 22320m | 4.8m/s | -52.8°C | 0.7% | 40.9hPa | 2.7V | 18:12:15 | 01:22:33 | 00:00:00 | |
| AZAK | 2026-08-31 11:52:11 | 49.17230 | 10.22910 | 52° | 15km/h | 22315m | 4.8m/s | -52.7°C | 1.1% | 40.9hPa | 2.6V | 00:00:00 | 00:00:00 | 00:00:00 | |
| OE5DRO-10 | 2026-08-31 11:52:10 | 49.17227 | 10.22906 | 45° | 13km/h | 22310m | 5.7m/s | -52.7°C | 4.1% | 40.9hPa | 2.6V | 00:00:00 | 00:00:00 | 00:00:00 | |
| DL1NUX | 2026-08-31 11:52:09 | 49.17216 | 10.22885 | 53° | 13km/h | 22284m | 5.1m/s | -53.1°C | 4.1% | 41.1hPa | 2.6V | 08:30:00 | 01:22:26 | 00:00:00 | |
| HSKMA3-T | 2026-08-31 11:52:08 | 49.17222 | 10.22897 | 46° | 15km/h | 22300m | 4.7m/s | -52.8°C | 0.6% | 41hPa | 2.6V | 18:12:15 | 01:22:29 | 00:00:00 | |
| DM0DOS-11 | 2026-08-31 11:52:08 | 49.17218 | 10.22889 | 60° | 13km/h | 22289m | 5.2m/s | -53.1°C | 4.1% | 41.1hPa | 2.7V | 08:30:00 | 01:22:27 | 00:00:00 | |
| DL1XH1-15 | 2026-08-31 11:52:08 | 49.17213 | 10.22881 | 43° | 15km/h | 22278m | 6.5m/s | -53.2°C | 4.1% | 41.2hPa | 2.6V | 08:30:00 | 01:22:25 | 00:00:00 | |
| DL1XH-west | 2026-08-31 11:52:03 | 49.17211 | 10.22878 | 31° | 15km/h | 22272m | 4.8m/s | -53.3°C | 0.6% | 41.2hPa | 2.6V | 18:12:15 | 01:22:24 | 00:00:00 | |
| DF8AY | 2026-08-31 11:51:59 | 49.17201 | 10.22871 | 24° | 7km/h | 22252m | 4.2m/s | -53°C | 0.6% | 41.3hPa | 2.6V | 18:12:15 | 01:22:20 | 00:00:00 | |
| DL1NUX | 2026-08-31 11:51:59 | 49.17192 | 10.22865 | 11° | 7km/h | 22230m | 6.3m/s | -53.2°C | 4.2% | 41.4hPa | 2.7V | 08:30:00 | 01:22:16 | 00:00:00 | |
| HSKMA3-T | 2026-08-31 11:51:58 | 49.17199 | 10.22870 | 25° | 9km/h | 22247m | 6.2m/s | -53.1°C | 0.6% | 41.3hPa | 2.6V | 18:12:15 | 01:22:19 | 00:00:00 | |
| SONCRA | 2026-08-31 11:51:58 | 49.17199 | 10.22870 | 24° | 9km/h | 22247m | 6.2m/s | -53.1°C | 1.1% | 41.3hPa | 2.6V | 00:00:00 | 00:00:00 | 00:00:00 | |
| DL1XH1-15 | 2026-08-31 11:51:57 | 49.17189 | 10.22866 | 328° | 5km/h | 22220m | 3.6m/s | -52.9°C | 4.2% | 41.5hPa | 2.6V | 08:30:00 | 01:22:14 | 00:00:00 | |
| DL1XH-west | 2026-08-31 11:51:53 | 49.17188 | 10.22867 | 335° | 5km/h | 22216m | 4.9m/s | -53°C | 0.7% | 41.6hPa | 2.7V | 18:12:15 | 01:22:13 | 00:00:00 | |
| DL0LBS | 2026-08-31 11:51:51 | 49.17187 | 10.22868 | 350° | 9km/h | 22211m | 5.9m/s | -53.0°C | 1.1% | 41.6hPa | 2.6V | 00:00:00 | 00:00:00 | 00:00:00 | |
| DB0NH | 2026-08-31 11:51:50 | 49.17184 | 10.22868 | 355° | 5km/h | 22205m | 5.4m/s | -53.0°C | 4.2% | 41.6hPa | 2.6V | 00:00:00 | 01:22:11 | 08:30:00 | |
| DL1NUX | 2026-08-31 11:51:49 | 49.17172 | 10.22875 | 305° | 7km/h | 22179m | 4.9m/s | -53°C | 4.2% | 41.8hPa | 2.7V | 08:30:00 | 01:22:06 | 00:00:00 | |
| DF8AY | 2026-08-31 11:51:49 | 49.17177 | 10.22870 | 347° | 13km/h | 22195m | 5m/s | -53.1°C | 0.6% | 41.7hPa | 2.6V | 18:12:15 | 01:22:09 | 00:00:00 | |
| DM0DOS-11 | 2026-08-31 11:51:48 | 49.17173 | 10.22873 | 311° | 7km/h | 22184m | 5.1m/s | -53°C | 4.1% | 41.8hPa | 2.7V | 08:30:00 | 01:22:07 | 00:00:00 | |
| DL1XH1-15 | 2026-08-31 11:51:47 | 49.17170 | 10.22879 | 315° | 7km/h | 22168m | 5.1m/s | -53.1°C | 4.1% | 41.9hPa | 2.6V | 08:30:00 | 01:22:04 | 00:00:00 | |
| HSKMA3-T | 2026-08-31 11:51:47 | 49.17175 | 10.22871 | 333° | 9km/h | 22190m | 5.8m/s | -53°C | 0.6% | 41.7hPa | 2.7V | 18:12:15 | 01:22:08 | 00:00:00 | |
| BIOWL1-15 | 2026-08-31 11:51:45 | 49.17172 | 10.22875 | 305° | 7km/h | 22179m | 4.9m/s | -53°C | 0.7% | 41.8hPa | 2.7V | 18:12:15 | 01:22:06 | 00:00:00 | |
| DL1XH-west | 2026-08-31 11:51:43 | 49.17168 | 10.22884 | 283° | 7km/h | 22157m | 6m/s | -53°C | 0.6% | 42hPa | 2.7V | 18:12:15 | 01:22:02 | 00:00:00 | |
| OE5WHR-10 | 2026-08-31 11:51:41 | 49.17168 | 10.22884 | 284° | 5km/h | 22157m | 5.9m/s | -52.9°C | 4.1% | 41.9hPa | 2.7V | 00:00:00 | 00:00:00 | 00:00:00 | |
| DL1NUX | 2026-08-31 11:51:39 | 49.17161 | 10.22889 | 5° | 5km/h | 22127m | 5.4m/s | -53.1°C | 4.2% | 42.1hPa | 2.7V | 08:30:00 | 01:21:56 | 00:00:00 | |
| DL1XH1-15 | 2026-08-31 11:51:38 | 49.17160 | 10.22889 | 165° | 2km/h | 22117m | 4.3m/s | -53.1°C | 4.2% | 42.2hPa | 2.6V | 08:30:00 | 01:21:54 | 00:00:00 | |
| HSKMA3-T | 2026-08-31 11:51:37 | 49.17164 | 10.22889 | 5° | 7km/h | 22136m | 4.5m/s | -53.1°C | 0.6% | 42.1hPa | 2.6V | 18:12:15 | 01:21:58 | 00:00:00 | |
| DL1XH-west | 2026-08-31 11:51:32 | 49.17160 | 10.22888 | 139° | 4km/h | 22111m | 6.1m/s | -53.1°C | 0.6% | 42.2hPa | 2.6V | 18:12:15 | 01:21:53 | 00:00:00 | |
| BIOWL1-15 | 2026-08-31 11:51:31 | 49.17166 | 10.22885 | 260° | 2km/h | 22085m | 5m/s | -53.1°C | 0.7% | 42.4hPa | 2.6V | 18:12:15 | 01:21:48 | 00:00:00 | |
| DL0LBS | 2026-08-31 11:51:31 | 49.17161 | 10.22887 | 131° | 5km/h | 22106m | 5.7m/s | -53.1°C | 1.1% | 42.3hPa | 2.6V | 00:00:00 | 00:00:00 | 00:00:00 | |
| DB0ND-19 | 2026-08-31 11:51:30 | 49.17164 | 10.22885 | 174° | 5km/h | 22095m | 6.1m/s | -53.1°C | 1.1% | 42.4hPa | 2.6V | 00:00:00 | 00:00:00 | 00:00:00 | |
| DM0DOS-11 | 2026-08-31 11:51:29 | 49.17165 | 10.22886 | 355° | 4km/h | 22079m | 6.4m/s | -53°C | 4.3% | 42.4hPa | 2.6V | 08:30:00 | 01:21:47 | 00:00:00 | |
| DF8AY | 2026-08-31 11:51:26 | 49.17165 | 10.22886 | 356° | 4km/h | 22079m | 6.4m/s | -53.1°C | 0.7% | 42.4hPa | 2.6V | 18:12:15 | 01:21:47 | 00:00:00 | |
| DK5PH-5 | 2026-08-31 11:51:26 | 49.17165 | 10.22886 | 356° | 9km/h | 22079m | 6.3m/s | -53.0°C | 4.3% | 42.4hPa | 2.7V | 00:00:00 | 01:21:47 | 00:00:00 | |
| DL1XH1-15 | 2026-08-31 11:51:24 | 49.17160 | 10.22885 | 354° | 7km/h | 22064m | 5.8m/s | -53°C | 4.2% | 42.5hPa | 2.7V | 08:30:00 | 01:21:44 | 00:00:00 | |
| DL1XH-west | 2026-08-31 11:51:21 | 49.17158 | 10.22887 | 246° | 2km/h | 22053m | 4.9m/s | -53.1°C | 0.7% | 42.6hPa | 2.6V | 18:12:15 | 01:21:42 | 00:00:00 | |
| OE5WHR-10 | 2026-08-31 11:51:20 | 49.17159 | 10.22887 | 187° | 9km/h | 22049m | 4.8m/s | -53.0°C | 4.2% | 42.6hPa | 2.7V | 00:00:00 | 00:00:00 | 00:00:00 | |
| DL1NUX | 2026-08-31 11:51:19 | 49.17164 | 10.22878 | 129° | 7km/h | 22020m | 4.8m/s | -52.9°C | 4.1% | 42.8hPa | 2.7V | 08:30:00 | 01:21:36 | 00:00:00 | |
| HSKMA3-T | 2026-08-31 11:51:15 | 49.17164 | 10.22878 | 130° | 7km/h | 22020m | 4.8m/s | -52.9°C | 0.6% | 42.8hPa | 2.7V | 18:12:15 | 01:21:36 | 00:00:00 | |
| DF8AY | 2026-08-31 11:51:15 | 49.17165 | 10.22876 | 109° | 7km/h | 22015m | 4.6m/s | -52.9°C | 0.7% | 42.9hPa | 2.7V | 18:12:15 | 01:21:35 | 00:00:00 | |
| DO9HM | 2026-08-31 11:51:15 | 49.17164 | 10.22878 | 131° | 7km/h | 22020m | 4.8m/s | -52.9°C | 1.1% | 42.8hPa | 2.6V | 00:00:00 | 00:00:00 | 00:00:00 | |
| DL6DJ-15 | 2026-08-31 11:51:13 | 49.17164 | 10.22870 | 54° | 9km/h | 22003m | 5.7m/s | -52.7°C | 1.1% | 42.9hPa | 2.6V | 00:00:00 | 00:00:00 | 00:00:00 | |
| DF7PN | 2026-08-31 11:51:12 | 49.17162 | 10.22867 | 42° | 11km/h | 21998m | 5.3m/s | -52.8°C | 1.1% | 43.0hPa | 2.6V | 00:00:00 | 00:00:00 | 00:00:00 | |
| DM0DOS-11 | 2026-08-31 11:51:11 | 49.17154 | 10.22855 | 71° | 11km/h | 21970m | 5.6m/s | -52.8°C | 4% | 43.2hPa | 2.6V | 08:30:00 | 01:21:27 | 00:00:00 | |
| DL1XH-west | 2026-08-31 11:51:10 | 49.17160 | 10.22864 | 36° | 11km/h | 21992m | 6.6m/s | -52.8°C | 0.6% | 43hPa | 2.7V | 18:12:15 | 01:21:31 | 00:00:00 | |
| DL0LBS | 2026-08-31 11:51:10 | 49.17160 | 10.22864 | 37° | 11km/h | 21992m | 6.6m/s | -52.8°C | 1.1% | 43.0hPa | 2.6V | 00:00:00 | 00:00:00 | 00:00:00 | |
| DL1NUX | 2026-08-31 11:51:09 | 49.17154 | 10.22850 | 82° | 15km/h | 21965m | 4.8m/s | -52.8°C | 4.1% | 43.2hPa | 2.6V | 08:30:00 | 01:21:26 | 00:00:00 | |
| HSKMA3-T | 2026-08-31 11:51:05 | 49.17154 | 10.22850 | 82° | 15km/h | 21965m | 4.8m/s | -52.8°C | 0.6% | 43.2hPa | 2.6V | 18:12:15 | 01:21:26 | 00:00:00 | |
| DF8AY | 2026-08-31 11:51:05 | 49.17151 | 10.22809 | 56° | 20km/h | 21922m | 5.2m/s | -53°C | 0.7% | 43.5hPa | 2.7V | 18:12:15 | 01:21:18 | 00:00:00 | |
| DL1XH1-15 | 2026-08-31 11:51:04 | 49.17154 | 10.22840 | 102° | 13km/h | 21954m | 6.4m/s | -52.9°C | 4.1% | 43.3hPa | 2.7V | 08:30:00 | 01:21:24 | 00:00:00 | |
| BIOWL1-15 | 2026-08-31 11:51:01 | 49.17155 | 10.22832 | 102° | 11km/h | 21943m | 4.2m/s | 0°C | 0% | 0hPa | 2.6V | 18:12:15 | 01:21:22 | 00:00:00 | |
| DL1XH-west | 2026-08-31 11:51:00 | 49.17153 | 10.22815 | 62° | 20km/h | 21927m | 4.9m/s | -53.1°C | 0.7% | 43.5hPa | 2.7V | 18:12:15 | 01:21:19 | 00:00:00 | |
| DL1NUX | 2026-08-31 11:50:59 | 49.17145 | 10.22797 | 50° | 18km/h | 21911m | 4.5m/s | -52.9°C | 4.1% | 43.6hPa | 2.6V | 08:30:00 | 01:21:16 | 00:00:00 | |
| DL1XH1-15 | 2026-08-31 11:50:59 | 49.17139 | 10.22785 | 53° | 20km/h | 21901m | 6.3m/s | -53°C | 4.1% | 43.6hPa | 2.7V | 08:30:00 | 01:21:14 | 00:00:00 | |
| DB0ND-19 | 2026-08-31 11:50:59 | 49.17153 | 10.22815 | 62° | 18km/h | 21927m | 4.9m/s | -53.1°C | 1.1% | 43.5hPa | 2.6V | 00:00:00 | 00:00:00 | 00:00:00 | |
| DM0DOS-11 | 2026-08-31 11:50:58 | 49.17148 | 10.22802 | 53° | 20km/h | 21917m | 6.1m/s | -52.9°C | 4.2% | 43.5hPa | 2.6V | 08:30:00 | 01:21:17 | 00:00:00 | |
| HSKMA3-T | 2026-08-31 11:50:54 | 49.17142 | 10.22791 | 53° | 18km/h | 21907m | 4.4m/s | -52.9°C | 0.6% | 43.6hPa | 2.6V | 18:12:15 | 01:21:15 | 00:00:00 | |
| DF8AY | 2026-08-31 11:50:53 | 49.17139 | 10.22785 | 54° | 20km/h | 21901m | 6.3m/s | -53°C | 0.6% | 43.6hPa | 2.7V | 18:12:15 | 01:21:14 | 00:00:00 | |
| DN1GJH-1 | 2026-08-31 11:50:52 | 49.17139 | 10.22785 | 55° | 20km/h | 21902m | 6.3m/s | -53.0°C | 1.1% | 43.6hPa | 2.7V | 00:00:00 | 00:00:00 | 00:00:00 | |
| DM0DOS-11 | 2026-08-31 11:50:51 | 49.17122 | 10.22745 | 50° | 16km/h | 21864m | 5.8m/s | -52.8°C | 4.2% | 43.9hPa | 2.7V | 08:30:00 | 01:21:07 | 00:00:00 | |
| BIOWL1-15 | 2026-08-31 11:50:51 | 49.17121 | 10.22745 | 50° | 16km/h | 21864m | 5.8m/s | 0°C | 0% | 0hPa | 2.7V | 18:12:15 | 01:21:07 | 00:00:00 | |
| DB0NH | 2026-08-31 11:50:50 | 49.17130 | 10.22764 | 60° | 11km/h | 21885m | 5.9m/s | -52.7°C | 4.1% | 43.7hPa | 2.6V | 00:00:00 | 01:21:11 | 00:00:00 | |
| DO3MHA-11 | 2026-08-31 11:50:49 | 49.17128 | 10.22758 | 61° | 15km/h | 21879m | 5.5m/s | -52.7°C | 4.1% | 43.8hPa | 2.6V | 00:00:00 | 01:21:10 | 00:00:00 | |
| DL1XH1-15 | 2026-08-31 11:50:48 | 49.17113 | 10.22730 | 52° | 15km/h | 21849m | 6m/s | -52.9°C | 4.2% | 44hPa | 2.6V | 08:30:00 | 01:21:04 | 00:00:00 | |
| DL1XH-west | 2026-08-31 11:50:47 | 49.17124 | 10.22749 | 52° | 15km/h | 21869m | 5.6m/s | -52.8°C | 0.6% | 43.9hPa | 2.7V | 18:12:15 | 01:21:08 | 00:00:00 | |
| BIOWL9-15 | 2026-08-31 11:50:45 | 49.17119 | 10.22740 | 49° | 16km/h | 21858m | 4.4m/s | -52.8°C | 1.1% | 44.0hPa | 2.6V | 00:00:00 | 00:00:00 | 00:00:00 | |
| HSKMA3-T | 2026-08-31 11:50:43 | 49.17113 | 10.22730 | 53° | 15km/h | 21849m | 6m/s | -52.9°C | 0.6% | 44hPa | 2.6V | 18:12:15 | 01:21:04 | 00:00:00 | |
| DF8AY | 2026-08-31 11:50:42 | 49.17111 | 10.22726 | 53° | 11km/h | 21843m | 6m/s | -52.9°C | 0.7% | 44hPa | 2.7V | 18:12:15 | 01:21:03 | 00:00:00 | |
| DO3MHA-11 | 2026-08-31 11:50:39 | 49.17107 | 10.22718 | 49° | 13km/h | 21826m | 5.6m/s | -52.8°C | 4.2% | 44.1hPa | 2.6V | 00:00:00 | 01:21:00 | 00:00:00 | |
| DM0DOS-11 | 2026-08-31 11:50:38 | 49.17102 | 10.22707 | 60° | 11km/h | 21808m | 5.1m/s | -53°C | 4.2% | 44.3hPa | 2.6V | 08:30:00 | 01:20:57 | 00:00:00 | |
| DL1XH1-15 | 2026-08-31 11:50:38 | 49.17096 | 10.22694 | 56° | 18km/h | 21792m | 5.3m/s | -53.1°C | 4.1% | 44.4hPa | 2.7V | 08:30:00 | 01:20:54 | 00:00:00 | |
| DL1XH-west | 2026-08-31 11:50:36 | 49.17102 | 10.22707 | 60° | 11km/h | 21808m | 5.1m/s | -53°C | 0.6% | 44.3hPa | 2.6V | 18:12:15 | 01:20:57 | 00:00:00 | |
| BIOWL1-15 | 2026-08-31 11:50:35 | 49.17100 | 10.22703 | 61° | 13km/h | 21804m | 4.2m/s | 0°C | 0% | 0hPa | 2.6V | 18:12:15 | 01:20:56 | 00:00:00 | |
| HSKMA3-T | 2026-08-31 11:50:33 | 49.17094 | 10.22688 | 54° | 18km/h | 21788m | 4.2m/s | -53.1°C | 0.6% | 44.4hPa | 2.7V | 18:12:15 | 01:20:53 | 00:00:00 | |
| DN1GJH-1 | 2026-08-31 11:50:32 | 49.17093 | 10.22688 | 55° | 18km/h | 21788m | 4.2m/s | -53.1°C | 1.1% | 44.4hPa | 2.7V | 00:00:00 | 00:00:00 | 00:00:00 | |
| DM0DOS-11 | 2026-08-31 11:50:31 | 49.17083 | 10.22677 | 352° | 7km/h | 21754m | 4.9m/s | -52.8°C | 4.1% | 44.6hPa | 2.7V | 08:30:00 | 01:20:47 | 00:00:00 | |
| DF8AY | 2026-08-31 11:50:31 | 49.17089 | 10.22679 | 49° | 9km/h | 21777m | 5.9m/s | -52.9°C | 0.5% | 44.5hPa | 2.6V | 18:12:15 | 01:20:51 | 00:00:00 | |
| OE5DRO-10 | 2026-08-31 11:50:31 | 49.17091 | 10.22683 | 53° | 9km/h | 21783m | 5.7m/s | -52.9°C | 4.1% | 44.4hPa | 2.6V | 00:00:00 | 00:00:00 | 00:00:00 | |
| DL1NUX | 2026-08-31 11:50:29 | 49.17081 | 10.22678 | 348° | 7km/h | 21749m | 5.2m/s | -52.8°C | 4.1% | 44.7hPa | 2.6V | 08:30:00 | 01:20:46 | 00:00:00 | |
| DL1XH-west | 2026-08-31 11:50:26 | 49.17083 | 10.22677 | 353° | 7km/h | 21754m | 4.9m/s | -52.8°C | 0.6% | 44.6hPa | 2.7V | 18:12:15 | 01:20:47 | 00:00:00 | |
| BIOWL1-15 | 2026-08-31 11:50:24 | 49.17062 | 10.22676 | 330° | 7km/h | 21694m | 6.2m/s | 0°C | 0% | 0hPa | 2.7V | 18:12:15 | 01:20:36 | 00:00:00 | |
| HSKMA3-T | 2026-08-31 11:50:23 | 49.17079 | 10.22679 | 351° | 5km/h | 21738m | 5m/s | -52.8°C | 0.6% | 44.8hPa | 2.6V | 18:12:15 | 01:20:44 | 00:00:00 | |
| DF8AY | 2026-08-31 11:50:20 | 49.17073 | 10.22676 | 20° | 13km/h | 21721m | 4.7m/s | -52.8°C | 0.6% | 44.9hPa | 2.7V | 18:12:15 | 01:20:41 | 00:00:00 | |
| DL1NUX | 2026-08-31 11:50:20 | 49.17062 | 10.22676 | 330° | 7km/h | 21694m | 6.2m/s | -52.8°C | 4.1% | 45hPa | 2.7V | 08:30:00 | 01:20:36 | 00:00:00 | |
| DM0DOS-11 | 2026-08-31 11:50:19 | 49.17064 | 10.22675 | 331° | 7km/h | 21699m | 5.1m/s | -52.8°C | 4.2% | 45hPa | 2.7V | 08:30:00 | 01:20:37 | 00:00:00 | |
| DO3MHA-11 | 2026-08-31 11:50:19 | 49.17070 | 10.22675 | 16° | 7km/h | 21716m | 4.9m/s | -52.9°C | 4.1% | 44.9hPa | 2.6V | 00:00:00 | 01:20:40 | 00:00:00 | |
| DL1XH1-15 | 2026-08-31 11:50:18 | 49.17057 | 10.22679 | 341° | 9km/h | 21682m | 4.9m/s | -52.8°C | 4.1% | 45.1hPa | 2.6V | 08:30:00 | 01:20:34 | 00:00:00 | |
| DL1XH-west | 2026-08-31 11:50:16 | 49.17063 | 10.22675 | 331° | 7km/h | 21699m | 5.1m/s | -52.8°C | 0.6% | 45hPa | 2.7V | 18:12:15 | 01:20:37 | 00:00:00 | |
| HSKMA3-T | 2026-08-31 11:50:12 | 49.17055 | 10.22680 | 334° | 9km/h | 21677m | 5.8m/s | -52.9°C | 0.6% | 45.2hPa | 2.6V | 18:12:15 | 01:20:33 | 00:00:00 | |
| IW2NTF | 2026-08-31 11:50:11 | 49.17053 | 10.22682 | 343° | 5km/h | 21665m | 5m/s | 0°C | 0% | 0hPa | 2.7V | 00:00:00 | 01:20:31 | 00:00:00 | |
| DF8AY | 2026-08-31 11:50:10 | 49.17050 | 10.22681 | 30° | 9km/h | 21654m | 5.6m/s | -52.9°C | 0.6% | 45.4hPa | 2.6V | 18:12:15 | 01:20:29 | 00:00:00 | |
| DL1NUX | 2026-08-31 11:50:10 | 49.17043 | 10.22673 | 43° | 9km/h | 21637m | 5.6m/s | -52.8°C | 4.1% | 45.5hPa | 2.7V | 08:30:00 | 01:20:26 | 00:00:00 | |
| DL0LBS | 2026-08-31 11:50:10 | 49.17051 | 10.22682 | 16° | 5km/h | 21660m | 6.4m/s | -53.0°C | 1.2% | 45.3hPa | 2.6V | 00:00:00 | 00:00:00 | 00:00:00 | |
| DL1XH1-15 | 2026-08-31 11:50:08 | 49.17039 | 10.22668 | 32° | 13km/h | 21627m | 6.4m/s | -52.8°C | 4% | 0hPa | 2.6V | 08:30:00 | 01:20:24 | 00:00:00 | |
| DM0DOS-11 | 2026-08-31 11:50:07 | 49.17045 | 10.22676 | 41° | 11km/h | 21643m | 6.2m/s | -52.9°C | 4.1% | 45.4hPa | 2.6V | 08:30:00 | 01:20:27 | 00:00:00 | |
| DL1XH-west | 2026-08-31 11:50:05 | 49.17043 | 10.22673 | 43° | 9km/h | 21637m | 5.6m/s | -52.8°C | 0.6% | 45.5hPa | 2.7V | 18:12:15 | 01:20:26 | 00:00:00 | |
| HSKMA3-T | 2026-08-31 11:50:02 | 49.17036 | 10.22665 | 28° | 15km/h | 21621m | 5.8m/s | -52.9°C | 0.6% | 45.6hPa | 2.6V | 18:12:15 | 01:20:23 | 00:00:00 | |
| IW2NTF | 2026-08-31 11:50:02 | 49.17030 | 10.22661 | 21° | 11km/h | 21608m | 6.4m/s | 0°C | 0% | 0hPa | 2.7V | 00:00:00 | 01:20:21 | 00:00:00 | |
| AZAK | 2026-08-31 11:50:01 | 49.17032 | 10.22663 | 26° | 13km/h | 21615m | 6.0m/s | -53.0°C | 1.1% | 45.6hPa | 2.6V | 00:00:00 | 00:00:00 | 00:00:00 | |
| DO3MHA-11 | 2026-08-31 11:49:59 | 49.17027 | 10.22660 | 17° | 15km/h | 21604m | 4.3m/s | -53.0°C | 4.3% | 45.6hPa | 2.6V | 00:00:00 | 01:20:20 | 00:00:00 | |
| DL1XH1-15 | 2026-08-31 11:49:58 | 49.17009 | 10.22645 | 42° | 13km/h | 21570m | 5.3m/s | -53°C | 4.2% | 0hPa | 2.6V | 08:30:00 | 01:20:14 | 00:00:00 | |
| DL1NUX | 2026-08-31 11:49:58 | 49.17015 | 10.22652 | 32° | 16km/h | 21582m | 5.4m/s | -53°C | 4.2% | 45.9hPa | 2.7V | 08:30:00 | 01:20:16 | 00:00:00 | |
| DF8AY | 2026-08-31 11:49:56 | 49.17019 | 10.22655 | 27° | 16km/h | 21587m | 5.3m/s | -53°C | 0.7% | 45.8hPa | 2.7V | 18:12:15 | 01:20:17 | 00:00:00 | |
| DL1XH-west | 2026-08-31 11:49:54 | 49.17012 | 10.22648 | 39° | 15km/h | 21576m | 6.3m/s | -53°C | 0.7% | 45.9hPa | 2.7V | 18:12:15 | 01:20:15 | 00:00:00 | |
| HSKMA3-T | 2026-08-31 11:49:52 | 49.17007 | 10.22641 | 45° | 15km/h | 21566m | 4.5m/s | -52.9°C | 0.6% | 46hPa | 2.6V | 18:12:15 | 01:20:13 | 00:00:00 | |
| OE5DRO-10 | 2026-08-31 11:49:51 | 49.17004 | 10.22637 | 41° | 20km/h | 21561m | 5.7m/s | -52.9°C | 4.1% | 46.0hPa | 2.6V | 00:00:00 | 00:00:00 | 00:00:00 | |
| DB0NH | 2026-08-31 11:49:50 | 49.17001 | 10.22633 | 37° | 22km/h | 21555m | 6.2m/s | -53.0°C | 4.2% | 46.0hPa | 2.7V | 00:00:00 | 01:20:11 | 00:00:00 | |
| DL1XH1-15 | 2026-08-31 11:49:49 | 49.16971 | 10.22598 | 45° | 24km/h | 21517m | 5m/s | -52.8°C | 0% | 0hPa | 2.7V | 08:30:00 | 01:20:04 | 00:00:00 | |
| DL1NUX | 2026-08-31 11:49:48 | 49.16980 | 10.22610 | 41° | 20km/h | 21529m | 4.8m/s | -52.7°C | 4.1% | 46.3hPa | 2.7V | 08:30:00 | 01:20:06 | 00:00:00 | |
| DL1XH-west | 2026-08-31 11:49:43 | 49.16971 | 10.22598 | 46° | 24km/h | 21517m | 5m/s | -52.8°C | 0.7% | 46.3hPa | 2.7V | 18:12:15 | 01:20:04 | 00:00:00 | |
| IW2NTF | 2026-08-31 11:49:42 | 49.16959 | 10.22581 | 34° | 18km/h | 21501m | 5m/s | 0°C | 0% | 0hPa | 2.6V | 00:00:00 | 01:20:01 | 00:00:00 | |
| HSKMA3-T | 2026-08-31 11:49:41 | 49.16963 | 10.22586 | 43° | 20km/h | 21507m | 6.2m/s | -52.6°C | 0.7% | 46.4hPa | 2.6V | 18:12:15 | 01:20:02 | 00:00:00 | |
| DL6DJ-15 | 2026-08-31 11:49:40 | 49.16956 | 10.22578 | 26° | 16km/h | 21496m | 5.2m/s | -52.7°C | 1.1% | 46.5hPa | 2.7V | 00:00:00 | 00:00:00 | 00:00:00 | |
| DO3MHA-11 | 2026-08-31 11:49:39 | 49.16956 | 10.22578 | 27° | 22km/h | 21496m | 5.1m/s | -52.6°C | 4.2% | 46.5hPa | 2.7V | 00:00:00 | 01:20:00 | 08:30:00 | |
| DL1XH1-15 | 2026-08-31 11:49:38 | 49.16927 | 10.22556 | 34° | 20km/h | 21464m | 4.7m/s | 0°C | 0% | 0hPa | 2.6V | 08:30:00 | 01:19:54 | 00:00:00 | |
| DL1NUX | 2026-08-31 11:49:38 | 49.16936 | 10.22564 | 28° | 22km/h | 21475m | 6.3m/s | -52.6°C | 4.1% | 46.6hPa | 2.7V | 08:30:00 | 01:19:56 | 00:00:00 | |
| DF8AY | 2026-08-31 11:49:35 | 49.16936 | 10.22564 | 28° | 22km/h | 21475m | 6.3m/s | -52.6°C | 0.6% | 46.6hPa | 2.7V | 18:12:15 | 01:19:56 | 00:00:00 | |
| DL1XH-west | 2026-08-31 11:49:32 | 49.16923 | 10.22551 | 36° | 22km/h | 21459m | 6.3m/s | -52.6°C | 0.5% | 46.8hPa | 2.6V | 18:12:15 | 01:19:53 | 00:00:00 | |
| HSKMA3-T | 2026-08-31 11:49:31 | 49.16918 | 10.22546 | 37° | 24km/h | 21453m | 4.9m/s | -52.6°C | 0.5% | 46.8hPa | 2.6V | 18:12:15 | 01:19:52 | 00:00:00 | |
| DO3MHA-11 | 2026-08-31 11:49:30 | 49.16908 | 10.22534 | 40° | 24km/h | 21443m | 6.0m/s | -52.4°C | 3.9% | 46.8hPa | 2.7V | 00:00:00 | 01:19:50 | 00:00:00 | |
| DL1XH1-15 | 2026-08-31 11:49:28 | 49.16874 | 10.22515 | 0° | 24km/h | 21411m | 5.4m/s | 0°C | 0% | 0hPa | 2.7V | 00:00:00 | 01:19:44 | 00:00:00 | |
| DF8AY | 2026-08-31 11:49:25 | 49.16880 | 10.22516 | 6° | 26km/h | 21416m | 6.1m/s | -52.4°C | 0.5% | 47.1hPa | 2.7V | 18:12:15 | 01:19:45 | 00:00:00 | |
| DL1XH-west | 2026-08-31 11:49:22 | 49.16868 | 10.22515 | 1° | 24km/h | 21405m | 4.6m/s | -52.6°C | 0.5% | 47.2hPa | 2.6V | 18:12:15 | 01:19:43 | 00:00:00 | |
| DM0DOS-11 | 2026-08-31 11:49:21 | 49.16829 | 10.22500 | 21° | 31km/h | 21373m | 5.2m/s | -52.9°C | 3.9% | 47.4hPa | 2.6V | 08:30:00 | 01:19:37 | 00:00:00 | |
| HSKMA3-T | 2026-08-31 11:49:21 | 49.16862 | 10.22515 | 6° | 24km/h | 21400m | 6m/s | -52.6°C | 0.6% | 47.2hPa | 2.6V | 18:12:15 | 01:19:42 | 00:00:00 | |
| DF8AY | 2026-08-31 11:49:13 | 49.16806 | 10.22486 | 16° | 31km/h | 21357m | 5.7m/s | -53.1°C | 0.5% | 47.5hPa | 2.7V | 18:12:15 | 01:19:34 | 00:00:00 | |
| BIOWL1-15 | 2026-08-31 11:49:12 | 49.16799 | 10.22484 | 8° | 27km/h | 21351m | 5.8m/s | 0°C | 0% | 0hPa | 2.7V | 18:12:15 | 01:19:33 | 00:00:00 | |
| DL1XH-west | 2026-08-31 11:49:11 | 49.16792 | 10.22483 | 0° | 26km/h | 21346m | 5.4m/s | -53.3°C | 0.6% | 47.6hPa | 2.6V | 18:12:15 | 01:19:32 | 00:00:00 | |
| HSKMA3-T | 2026-08-31 11:49:10 | 49.16785 | 10.22483 | 358° | 26km/h | 21340m | 6.4m/s | -53.4°C | 0.7% | 47.6hPa | 2.6V | 18:12:15 | 01:19:31 | 00:00:00 | |
| DO3MHA-11 | 2026-08-31 11:49:09 | 49.16779 | 10.22484 | 357° | 26km/h | 21334m | 4.6m/s | -53.5°C | 4.3% | 47.7hPa | 2.6V | 00:00:00 | 01:19:30 | 00:00:00 | |
| DM0DOS-11 | 2026-08-31 11:49:07 | 49.16763 | 10.22488 | 341° | 20km/h | 21319m | 5.7m/s | -53.4°C | 4.2% | 47.8hPa | 2.7V | 08:30:00 | 01:19:27 | 00:00:00 | |
| OE9MKV-15 | 2026-08-31 11:49:07 | 49.16768 | 10.22486 | 348° | 16km/h | 21325m | 6.3m/s | -53.5°C | 4.3% | 47.7hPa | 2.6V | 00:00:00 | 01:19:28 | 00:00:00 | |
| DL1XH1-15 | 2026-08-31 11:49:05 | 49.16747 | 10.22492 | 0° | 29km/h | 21302m | 5.4m/s | 0°C | 0% | 0hPa | 2.6V | 00:00:00 | 01:19:24 | 00:00:00 | |
| DF8AY | 2026-08-31 11:49:02 | 49.16739 | 10.22492 | 2° | 33km/h | 21298m | 4m/s | -53.3°C | 0.6% | 48hPa | 2.7V | 18:12:15 | 01:19:23 | 00:00:00 | |
| BIOWL1-15 | 2026-08-31 11:49:00 | 49.16721 | 10.22492 | 355° | 33km/h | 21287m | 5.4m/s | 0°C | 0% | 0hPa | 2.6V | 18:12:15 | 01:19:21 | 00:00:00 | |
| HSKMA3-T | 2026-08-31 11:48:59 | 49.16713 | 10.22494 | 348° | 31km/h | 21282m | 5m/s | -53.4°C | 0.6% | 48.1hPa | 2.6V | 18:12:15 | 01:19:20 | 00:00:00 | |
| DO3MHA-11 | 2026-08-31 11:48:59 | 49.16713 | 10.22494 | 348° | 20km/h | 21282m | 4.9m/s | -53.3°C | 4.2% | 48.0hPa | 2.6V | 00:00:00 | 01:19:20 | 00:00:00 | |
| DM0DOS-11 | 2026-08-31 11:48:57 | 49.16695 | 10.22503 | 339° | 20km/h | 21266m | 5.2m/s | -53.5°C | 4.3% | 48.2hPa | 2.6V | 08:30:00 | 01:19:17 | 00:00:00 | |
| DL1XH-west | 2026-08-31 11:48:50 | 49.16673 | 10.22523 | 350° | 16km/h | 21234m | 5.7m/s | -53.5°C | 0.7% | 48.4hPa | 2.6V | 18:12:15 | 01:19:11 | 00:00:00 | |
| HSKMA3-T | 2026-08-31 11:48:49 | 49.16668 | 10.22524 | 359° | 18km/h | 21228m | 4.4m/s | -53.5°C | 0.7% | 48.5hPa | 2.6V | 18:12:15 | 01:19:10 | 00:00:00 | |
| DO3MHA-11 | 2026-08-31 11:48:49 | 49.16668 | 10.22524 | 360° | 15km/h | 21229m | 4.3m/s | -53.5°C | 4.3% | 48.4hPa | 2.7V | 00:00:00 | 01:19:10 | 00:00:00 | |
| DM0DOS-11 | 2026-08-31 11:48:47 | 49.16654 | 10.22526 | 341° | 20km/h | 21213m | 4.9m/s | -53.4°C | 4.3% | 48.6hPa | 2.7V | 08:30:00 | 01:19:07 | 00:00:00 | |
| DL1NUX | 2026-08-31 11:48:46 | 49.16650 | 10.22529 | 333° | 16km/h | 21209m | 4.8m/s | -53.2°C | 4.3% | 48.6hPa | 2.6V | 08:30:00 | 01:19:06 | 00:00:00 | |
| DL1XH-west | 2026-08-31 11:48:40 | 49.16638 | 10.22544 | 309° | 15km/h | 21181m | 5.4m/s | -53.2°C | 0.7% | 48.8hPa | 2.7V | 18:12:15 | 01:19:01 | 00:00:00 | |
| DF8AY | 2026-08-31 11:48:39 | 49.16635 | 10.22548 | 316° | 15km/h | 21177m | 3.8m/s | -53.2°C | 0.7% | 48.9hPa | 2.6V | 18:12:15 | 01:19:00 | 00:00:00 | |
| HSKMA3-T | 2026-08-31 11:48:38 | 49.16633 | 10.22551 | 326° | 13km/h | 21172m | 5.3m/s | -53.3°C | 0.7% | 48.9hPa | 2.6V | 18:12:15 | 01:18:59 | 00:00:00 | |
| DM0DOS-11 | 2026-08-31 11:48:37 | 49.16628 | 10.22553 | 10° | 11km/h | 21161m | 4.9m/s | -53.1°C | 4.1% | 49hPa | 2.7V | 08:30:00 | 01:18:57 | 00:00:00 | |
| DL1NUX | 2026-08-31 11:48:36 | 49.16625 | 10.22552 | 16° | 13km/h | 21156m | 5.5m/s | -53.1°C | 4.2% | 49hPa | 2.7V | 08:30:00 | 01:18:56 | 00:00:00 | |
| DL1XH-west | 2026-08-31 11:48:29 | 49.16613 | 10.22553 | 241° | 4km/h | 21125m | 4.3m/s | -53°C | 0.6% | 0hPa | 2.6V | 18:12:15 | 01:18:50 | 00:00:00 | |
| DF8AY | 2026-08-31 11:48:29 | 49.16610 | 10.22553 | 64° | 9km/h | 21094m | 4.3m/s | -53°C | 0.6% | 0hPa | 2.6V | 18:12:15 | 01:18:44 | 00:00:00 | |
| DO3MHA-11 | 2026-08-31 11:48:29 | 49.16613 | 10.22553 | 241° | 7km/h | 21125m | 4.2m/s | -53.0°C | 4.2% | 49.2hPa | 2.7V | 00:00:00 | 01:18:50 | 00:00:00 | |
| DN1GJH-1 | 2026-08-31 11:48:28 | 49.16613 | 10.22553 | 242° | 4km/h | 21125m | 4.3m/s | -53.0°C | 1.1% | 49.3hPa | 2.7V | 00:00:00 | 00:00:00 | 00:00:00 | |
| DM0DOS-11 | 2026-08-31 11:48:27 | 49.16613 | 10.22557 | 344° | 4km/h | 21110m | 4.7m/s | -53°C | 4.2% | 49.3hPa | 2.7V | 08:30:00 | 01:18:47 | 00:00:00 | |
| HSKMA3-T | 2026-08-31 11:48:27 | 49.16614 | 10.22556 | 291° | 4km/h | 21114m | 5.4m/s | -52.9°C | 0.6% | 49.3hPa | 2.7V | 18:12:15 | 01:18:48 | 00:00:00 | |
| DL1NUX | 2026-08-31 11:48:26 | 49.16612 | 10.22557 | 30° | 4km/h | 21104m | 5.7m/s | -53°C | 4.2% | 49.4hPa | 2.7V | 08:30:00 | 01:18:46 | 00:00:00 | |
| DL1XH-west | 2026-08-31 11:48:17 | 49.16602 | 10.22542 | 113° | 4km/h | 21062m | 5.5m/s | -53°C | 0.6% | 0hPa | 2.6V | 18:12:15 | 01:18:38 | 00:00:00 | |
| DL1NUX | 2026-08-31 11:48:16 | 49.16605 | 10.22542 | 195° | 9km/h | 21051m | 6.5m/s | -52.9°C | 4% | 49.8hPa | 2.7V | 08:30:00 | 01:18:36 | 00:00:00 | |
| DM0DOS-11 | 2026-08-31 11:48:16 | 49.16603 | 10.22541 | 170° | 5km/h | 21057m | 5m/s | -52.9°C | 4% | 49.8hPa | 2.7V | 08:30:00 | 01:18:37 | 00:00:00 | |
| HSKMA3-T | 2026-08-31 11:48:16 | 49.16603 | 10.22541 | 171° | 5km/h | 21057m | 5m/s | -52.9°C | 0.6% | 49.8hPa | 2.7V | 18:12:15 | 01:18:37 | 00:00:00 | |
| DF8AY | 2026-08-31 11:48:13 | 49.16609 | 10.22518 | 174° | 7km/h | 20983m | 3.8m/s | -53.1°C | 0.6% | 0hPa | 2.6V | 18:12:15 | 01:18:23 | 00:00:00 | |
| DL1XH-west | 2026-08-31 11:48:07 | 49.16611 | 10.22536 | 59° | 13km/h | 21009m | 5.9m/s | -53.2°C | 0.6% | 0hPa | 2.6V | 18:12:15 | 01:18:28 | 00:00:00 | |
| DL1NUX | 2026-08-31 11:48:06 | 49.16608 | 10.22526 | 75° | 13km/h | 20998m | 4.9m/s | -53°C | 4.1% | 50.2hPa | 2.7V | 08:30:00 | 01:18:26 | 00:00:00 | |
| HSKMA3-T | 2026-08-31 11:48:05 | 49.16608 | 10.22526 | 76° | 13km/h | 20998m | 4.9m/s | -53°C | 0.6% | 50.2hPa | 2.7V | 18:12:15 | 01:18:26 | 00:00:00 | |
| DO3MHA-12 | 2026-08-31 11:48:05 | 49.16608 | 10.22526 | 76° | 7km/h | 20999m | 4.9m/s | -52.9°C | 4.1% | 50.2hPa | 2.7V | 00:00:00 | 01:18:26 | 00:00:00 | |
| DL0LBS | 2026-08-31 11:48:04 | 49.16608 | 10.22526 | 77° | 13km/h | 20999m | 4.9m/s | -53.0°C | 1.1% | 50.2hPa | 2.7V | 00:00:00 | 00:00:00 | 00:00:00 | |
| SONDE2-11 | 2026-08-31 11:48:03 | 49.16609 | 10.22518 | 174° | 7km/h | 20983m | 3.8m/s | -53.1°C | 1.1% | 50.4hPa | 2.7V | 00:00:00 | 00:00:00 | 00:00:00 | |
| DM0DOS-11 | 2026-08-31 11:48:01 | 49.16617 | 10.22516 | 15° | 5km/h | 20949m | 3.6m/s | -53.2°C | 4.1% | 50.6hPa | 2.7V | 08:30:00 | 01:18:16 | 00:00:00 | |
| DC4HF-4 | 2026-08-31 11:48:01 | 49.16614 | 10.22518 | 170° | 9km/h | 20973m | 5.0m/s | -53.1°C | 1.1% | 50.4hPa | 2.7V | 00:00:00 | 00:00:00 | 00:00:00 | |
| DO3MHA-11 | 2026-08-31 11:47:59 | 49.16616 | 10.22517 | 168° | 7km/h | 20968m | 4.2m/s | -53.1°C | 4.1% | 50.4hPa | 2.7V | 00:00:00 | 01:18:20 | 00:00:00 | |
| DL1NUX | 2026-08-31 11:47:56 | 49.16617 | 10.22516 | 15° | 5km/h | 20949m | 3.6m/s | -53.2°C | 4.1% | 50.6hPa | 2.7V | 08:30:00 | 01:18:16 | 00:00:00 | |
| DL1XH-west | 2026-08-31 11:47:56 | 49.16618 | 10.22516 | 349° | 4km/h | 20953m | 5.1m/s | -53.2°C | 0.6% | 0hPa | 2.6V | 18:12:15 | 01:18:17 | 00:00:00 | |
| HSKMA3-T | 2026-08-31 11:47:54 | 49.16615 | 10.22515 | 38° | 9km/h | 20944m | 5.6m/s | -53.4°C | 0.7% | 50.6hPa | 2.7V | 18:12:15 | 01:18:15 | 00:00:00 | |
| DK7TD | 2026-08-31 11:47:52 | 49.16613 | 10.22507 | 73° | 13km/h | 20934m | 5.3m/s | 0°C | 0% | 0hPa | 2.6V | 18:12:15 | 01:18:13 | 00:00:00 | |
| DF8AY | 2026-08-31 11:47:52 | 49.16612 | 10.22503 | 79° | 13km/h | 20928m | 6.3m/s | 0°C | 0% | 0hPa | 2.6V | 18:12:15 | 01:18:12 | 00:00:00 | |
| DL9SK-14 | 2026-08-31 11:47:51 | 49.16611 | 10.22498 | 85° | 11km/h | 20922m | 5.0m/s | -53.5°C | 1.1% | 50.8hPa | 2.6V | 00:00:00 | 00:00:00 | 00:00:00 | |
| DB0NH | 2026-08-31 11:47:50 | 49.16611 | 10.22498 | 86° | 9km/h | 20922m | 4.9m/s | -53.4°C | 4.3% | 50.8hPa | 2.6V | 00:00:00 | 01:18:11 | 00:00:00 | |
| DO3MHA-11 | 2026-08-31 11:47:49 | 49.16611 | 10.22494 | 94° | 9km/h | 20918m | 3.9m/s | -53.4°C | 4.3% | 50.8hPa | 2.6V | 00:00:00 | 01:18:10 | 00:00:00 | |
| DG1MJG | 2026-08-31 11:47:48 | 49.16611 | 10.22490 | 100° | 11km/h | 20913m | 5.6m/s | -53.4°C | 1.1% | 50.9hPa | 2.6V | 00:00:00 | 00:00:00 | 00:00:00 | |
| DL1NUX | 2026-08-31 11:47:46 | 49.16612 | 10.22478 | 78° | 7km/h | 20897m | 6.1m/s | -53.5°C | 4.2% | 51hPa | 2.6V | 08:30:00 | 01:18:06 | 00:00:00 | |
| DL1XH-west | 2026-08-31 11:47:45 | 49.16612 | 10.22478 | 79° | 7km/h | 20897m | 6.1m/s | 0°C | 0% | 0hPa | 2.6V | 18:12:15 | 01:18:06 | 00:00:00 | |
| HSKMA3-T | 2026-08-31 11:47:44 | 49.16612 | 10.22477 | 34° | 4km/h | 20891m | 5m/s | -53.4°C | 0.6% | 51.1hPa | 2.7V | 18:12:15 | 01:18:05 | 00:00:00 | |
| DF8AY | 2026-08-31 11:47:41 | 49.16598 | 10.22435 | 322° | 2km/h | 20825m | 5.8m/s | 0°C | 0% | 0hPa | 2.6V | 18:12:15 | 01:17:52 | 00:00:00 | |
| DO3MHA-11 | 2026-08-31 11:47:39 | 49.16603 | 10.22464 | 56° | 9km/h | 20866m | 6.0m/s | -53.4°C | 4.1% | 51.2hPa | 2.7V | 00:00:00 | 01:18:00 | 00:00:00 | |
| OE9MKV-15 | 2026-08-31 11:47:38 | 49.16601 | 10.22460 | 66° | 11km/h | 20861m | 4.3m/s | -53.4°C | 4.1% | 51.3hPa | 2.7V | 00:00:00 | 01:17:59 | 00:00:00 | |
| DL1NUX | 2026-08-31 11:47:36 | 49.16599 | 10.22443 | 85° | 15km/h | 20846m | 4.1m/s | -53.6°C | 4.3% | 51.4hPa | 2.7V | 08:30:00 | 01:17:56 | 00:00:00 | |
| DK7TD | 2026-08-31 11:47:34 | 49.16599 | 10.22439 | 85° | 11km/h | 20841m | 5.9m/s | 0°C | 0% | 0hPa | 2.7V | 18:12:15 | 01:17:55 | 00:00:00 | |
| HSKMA3-T | 2026-08-31 11:47:33 | 49.16599 | 10.22436 | 77° | 5km/h | 20835m | 5.3m/s | -53.6°C | 0.7% | 51.5hPa | 2.7V | 18:12:15 | 01:17:54 | 00:00:00 | |
| DL1XH-west | 2026-08-31 11:47:32 | 49.16599 | 10.22435 | 17° | 2km/h | 20830m | 4.8m/s | 0°C | 0% | 0hPa | 2.6V | 18:12:15 | 01:17:53 | 00:00:00 | |
| DK7TD | 2026-08-31 11:47:24 | 49.16591 | 10.22439 | 69° | 9km/h | 20789m | 4.7m/s | 0°C | 0% | 0hPa | 2.7V | 18:12:15 | 01:17:45 | 00:00:00 | |
| DF8AY | 2026-08-31 11:47:23 | 49.16590 | 10.22435 | 73° | 11km/h | 20783m | 5.8m/s | 0°C | 0% | 0hPa | 2.7V | 18:12:15 | 01:17:44 | 00:00:00 | |
| HSKMA3-T | 2026-08-31 11:47:22 | 49.16590 | 10.22431 | 70° | 11km/h | 20778m | 5.3m/s | -54°C | 0.8% | 52hPa | 2.7V | 18:12:15 | 01:17:43 | 00:00:00 | |
| DL1XH-west | 2026-08-31 11:47:17 | 49.16587 | 10.22415 | 103° | 4km/h | 20752m | 5.9m/s | 0°C | 0% | 0hPa | 2.7V | 18:12:15 | 01:17:38 | 00:00:00 | |
| DF8AY | 2026-08-31 11:47:13 | 49.16590 | 10.22421 | 69° | 4km/h | 20715m | 6.3m/s | 0°C | 0% | 0hPa | 2.6V | 18:12:15 | 01:17:31 | 00:00:00 | |
| HSKMA3-T | 2026-08-31 11:47:12 | 49.16590 | 10.22423 | 205° | 4km/h | 20725m | 4.4m/s | -53.6°C | 0.7% | 52.4hPa | 2.6V | 18:12:15 | 01:17:33 | 00:00:00 | |
| BIOWL1-15 | 2026-08-31 11:47:11 | 49.16590 | 10.22423 | 108° | 2km/h | 20721m | 4.3m/s | -53.8°C | 0.7% | 52.4hPa | 2.6V | 18:12:15 | 01:17:32 | 00:00:00 | |
| DF8AY | 2026-08-31 11:47:08 | 49.16597 | 10.22375 | 106° | 5km/h | 20648m | 4.8m/s | 0°C | 0% | 0hPa | 2.7V | 18:12:15 | 01:17:18 | 00:00:00 | |
| DL1XH-west | 2026-08-31 11:47:06 | 49.16590 | 10.22406 | 101° | 16km/h | 20694m | 4.6m/s | 0°C | 0% | 0hPa | 2.6V | 18:12:15 | 01:17:27 | 00:00:00 | |
| DL1NUX | 2026-08-31 11:47:06 | 49.16590 | 10.22400 | 99° | 16km/h | 20688m | 6m/s | -53.7°C | 4.3% | 52.7hPa | 2.6V | 08:30:00 | 01:17:26 | 00:00:00 | |
| HSKMA3-T | 2026-08-31 11:47:02 | 49.16592 | 10.22385 | 107° | 9km/h | 20674m | 4.6m/s | -53.7°C | 0.7% | 52.8hPa | 2.7V | 18:12:15 | 01:17:23 | 00:00:00 | |
| DK7TD | 2026-08-31 11:47:00 | 49.16594 | 10.22380 | 146° | 7km/h | 20663m | 5.3m/s | 0°C | 0% | 0hPa | 2.6V | 18:12:15 | 01:17:21 | 00:00:00 | |
| DO3MHA-11 | 2026-08-31 11:47:00 | 49.16595 | 10.22379 | 148° | 11km/h | 20659m | 3.6m/s | -53.6°C | 4.4% | 52.9hPa | 2.6V | 00:00:00 | 01:17:20 | 00:00:00 | |
| DM0DOS-11 | 2026-08-31 11:46:55 | 49.16599 | 10.22370 | 115° | 9km/h | 20637m | 5.4m/s | -53.6°C | 4.3% | 53.1hPa | 2.6V | 08:30:00 | 01:17:16 | 00:00:00 | |
| HSKMA3-T | 2026-08-31 11:46:52 | 49.16602 | 10.22356 | 104° | 16km/h | 20622m | 4.6m/s | -53.5°C | 0.6% | 53.3hPa | 2.7V | 18:12:15 | 01:17:13 | 00:00:00 | |
| BIOWL1-15 | 2026-08-31 11:46:49 | 49.16608 | 10.22337 | 125° | 22km/h | 20606m | 4.8m/s | -53.4°C | 0.7% | 53.4hPa | 2.6V | 18:12:15 | 01:17:10 | 00:00:00 | |
| DK7TD | 2026-08-31 11:46:48 | 49.16611 | 10.22330 | 124° | 20km/h | 20601m | 5.2m/s | 0°C | 0% | 0hPa | 2.7V | 18:12:15 | 01:17:09 | 00:00:00 | |
| DL1NUX | 2026-08-31 11:46:47 | 49.16616 | 10.22312 | 109° | 15km/h | 20586m | 5.3m/s | -53.3°C | 4.3% | 53.6hPa | 2.6V | 08:30:00 | 01:17:06 | 00:00:00 | |
| DL1XH-west | 2026-08-31 11:46:43 | 49.16618 | 10.22301 | 100° | 15km/h | 20575m | 4.7m/s | 0°C | 0% | 0hPa | 2.7V | 18:12:15 | 01:17:04 | 00:00:00 | |
| HSKMA3-T | 2026-08-31 11:46:42 | 49.16619 | 10.22296 | 88° | 15km/h | 20569m | 5.7m/s | -53.2°C | 0.7% | 53.7hPa | 2.7V | 18:12:15 | 01:17:03 | 00:00:00 | |
| OE5DRO-10 | 2026-08-31 11:46:41 | 49.16618 | 10.22289 | 77° | 18km/h | 20564m | 5.6m/s | -53.1°C | 4.2% | 53.7hPa | 2.6V | 00:00:00 | 00:00:00 | 00:00:00 | |
| DO3MHA-11 | 2026-08-31 11:46:39 | 49.16616 | 10.22275 | 79° | 16km/h | 20554m | 5.8m/s | -53.1°C | 4.2% | 53.8hPa | 2.6V | 00:00:00 | 01:17:00 | 08:30:00 | |
| DL1NUX | 2026-08-31 11:46:36 | 49.16618 | 10.22247 | 108° | 16km/h | 20532m | 5.4m/s | -53°C | 4.1% | 54hPa | 2.6V | 08:30:00 | 01:16:56 | 00:00:00 | |
| HSKMA3-T | 2026-08-31 11:46:32 | 49.16624 | 10.22230 | 126° | 18km/h | 20516m | 6.2m/s | -53°C | 0.6% | 54.1hPa | 2.7V | 18:12:15 | 01:16:53 | 00:00:00 | |
| DF3TZ-5 | 2026-08-31 11:46:30 | 49.16628 | 10.22219 | 110° | 15km/h | 20506m | 5.8m/s | -53.0°C | 1.1% | 54.2hPa | 2.6V | 00:00:00 | 00:00:00 | 00:00:00 | |
| SONDE2-11 | 2026-08-31 11:46:29 | 49.16627 | 10.22208 | 65° | 18km/h | 20496m | 4.4m/s | -53.0°C | 1.1% | 54.3hPa | 2.6V | 00:00:00 | 00:00:00 | 00:00:00 | |
| DL1NUX | 2026-08-31 11:46:27 | 49.16620 | 10.22184 | 69° | 27km/h | 20480m | 5.3m/s | -53°C | 4.1% | 54.4hPa | 2.6V | 08:30:00 | 01:16:46 | 00:00:00 | |
| HSKMA3-T | 2026-08-31 11:46:21 | 49.16610 | 10.22144 | 71° | 26km/h | 20458m | 5.3m/s | -53.1°C | 0.6% | 54.7hPa | 2.7V | 18:12:15 | 01:16:42 | 00:00:00 | |
| BIOWL1-15 | 2026-08-31 11:46:19 | 49.16608 | 10.22127 | 91° | 22km/h | 20447m | 4.9m/s | -53°C | 0.6% | 54.8hPa | 2.6V | 18:12:15 | 01:16:40 | 00:00:00 | |
| DL1XH-west | 2026-08-31 11:46:16 | 49.16608 | 10.22106 | 79° | 13km/h | 20431m | 5.1m/s | 0°C | 0% | 0hPa | 2.7V | 18:12:15 | 01:16:37 | 00:00:00 | |
| HSKMA3-T | 2026-08-31 11:46:11 | 49.16600 | 10.22073 | 69° | 26km/h | 20407m | 5.2m/s | -53.1°C | 0.6% | 55.1hPa | 2.7V | 18:12:15 | 01:16:32 | 00:00:00 | |
| DL1XH-west | 2026-08-31 11:46:04 | 49.16580 | 10.22001 | 55° | 22km/h | 20364m | 5m/s | 0°C | 0% | 0hPa | 2.6V | 18:12:15 | 01:16:24 | 00:00:00 | |
| HSKMA3-T | 2026-08-31 11:46:00 | 49.16568 | 10.21979 | 45° | 29km/h | 20348m | 5m/s | -53.8°C | 0.7% | 55.6hPa | 2.7V | 18:12:15 | 01:16:21 | 00:00:00 | |
| DF3TZ-5 | 2026-08-31 11:45:59 | 49.16551 | 10.21957 | 40° | 29km/h | 20334m | 4.3m/s | -53.9°C | 1.2% | 55.7hPa | 2.7V | 00:00:00 | 00:00:00 | 00:00:00 | |
| SONDE2-11 | 2026-08-31 11:45:58 | 49.16551 | 10.21957 | 40° | 29km/h | 20334m | 4.3m/s | -53.9°C | 1.2% | 55.7hPa | 2.7V | 00:00:00 | 00:00:00 | 00:00:00 | |
| DL1NUX | 2026-08-31 11:45:56 | 49.16541 | 10.21940 | 56° | 31km/h | 20323m | 4.8m/s | -53.8°C | 4.3% | 55.8hPa | 2.7V | 08:30:00 | 01:16:16 | 00:00:00 | |
| DL1XH-west | 2026-08-31 11:45:52 | 49.16526 | 10.21904 | 54° | 24km/h | 20302m | 4.7m/s | 0°C | 0% | 0hPa | 2.7V | 18:12:15 | 01:16:12 | 00:00:00 | |
| BIOWL1-15 | 2026-08-31 11:45:52 | 49.16529 | 10.21911 | 56° | 26km/h | 20307m | 5.1m/s | -53.9°C | 0.7% | 55.9hPa | 2.7V | 18:12:15 | 01:16:13 | 00:00:00 | |
| HSKMA3-T | 2026-08-31 11:45:50 | 49.16522 | 10.21896 | 56° | 24km/h | 20297m | 6.2m/s | -53.9°C | 0.7% | 56hPa | 2.6V | 18:12:15 | 01:16:11 | 00:00:00 | |
| DL1ZP-14 | 2026-08-31 11:45:49 | 49.16515 | 10.21880 | 55° | 22km/h | 20286m | 4.8m/s | -53.8°C | 1.2% | 56.1hPa | 2.6V | 00:00:00 | 00:00:00 | 00:00:00 | |
| DL1NUX | 2026-08-31 11:45:46 | 49.16504 | 10.21861 | 45° | 24km/h | 20271m | 4.3m/s | -53.9°C | 4.2% | 56.2hPa | 2.7V | 08:30:00 | 01:16:06 | 00:00:00 | |
| SONCRA | 2026-08-31 11:45:45 | 49.16504 | 10.21860 | 45° | 24km/h | 20271m | 4.3m/s | -53.9°C | 1.1% | 56.2hPa | 2.7V | 00:00:00 | 00:00:00 | 00:00:00 | |
| DL1XH-west | 2026-08-31 11:45:41 | 49.16488 | 10.21827 | 56° | 29km/h | 20250m | 6.1m/s | 0°C | 0% | 0hPa | 2.7V | 18:12:15 | 01:16:02 | 00:00:00 | |
| HSKMA3-T | 2026-08-31 11:45:39 | 49.16480 | 10.21808 | 62° | 29km/h | 20239m | 5.4m/s | -54.2°C | 0.8% | 56.5hPa | 2.6V | 18:12:15 | 01:16:00 | 00:00:00 | |
| DO3MHA-11 | 2026-08-31 11:45:39 | 49.16480 | 10.21808 | 63° | 27km/h | 20240m | 5.3m/s | -54.1°C | 4.4% | 56.5hPa | 2.6V | 00:00:00 | 01:16:00 | 00:00:00 | |
| NBG1-10 | 2026-08-31 11:45:38 | 49.16477 | 10.21798 | 69° | 29km/h | 20234m | 5.5m/s | -54.2°C | 4.4% | 56.5hPa | 2.7V | 00:00:00 | 01:15:59 | 00:00:00 | |
| DM0DOS-11 | 2026-08-31 11:45:35 | 49.16470 | 10.21771 | 57° | 24km/h | 20219m | 5.7m/s | -54°C | 4.4% | 56.7hPa | 2.7V | 08:30:00 | 01:15:56 | 00:00:00 | |
| HSKMA3-T | 2026-08-31 11:45:29 | 49.16442 | 10.21725 | 42° | 33km/h | 20187m | 4.9m/s | -54.1°C | 0.7% | 57hPa | 2.7V | 18:12:15 | 01:15:50 | 00:00:00 | |
| BIOWL1-15 | 2026-08-31 11:45:28 | 49.16430 | 10.21707 | 48° | 33km/h | 20177m | 6.3m/s | -54.2°C | 0.7% | 57.1hPa | 2.6V | 18:12:15 | 01:15:48 | 00:00:00 | |
| DL1NUX | 2026-08-31 11:45:26 | 49.16420 | 10.21688 | 55° | 31km/h | 20167m | 4m/s | -54.1°C | 4.4% | 57.2hPa | 2.7V | 08:30:00 | 01:15:46 | 00:00:00 | |
| HSKMA3-T | 2026-08-31 11:45:19 | 49.16373 | 10.21640 | 19° | 33km/h | 20124m | 4.8m/s | -53.8°C | 0.8% | 57.6hPa | 2.6V | 18:12:15 | 01:15:38 | 00:00:00 | |
| DM0DOS-11 | 2026-08-31 11:45:19 | 49.16351 | 10.21624 | 34° | 31km/h | 20109m | 5.4m/s | -53.9°C | 4.5% | 57.7hPa | 2.7V | 08:30:00 | 01:15:35 | 00:00:00 | |
| AZAK | 2026-08-31 11:45:19 | 49.16388 | 10.21648 | 26° | 27km/h | 20135m | 5.2m/s | -54.0°C | 1.2% | 57.5hPa | 2.7V | 00:00:00 | 00:00:00 | 00:00:00 | |
| DL1NUX | 2026-08-31 11:45:17 | 49.16358 | 10.21630 | 26° | 33km/h | 20115m | 5.4m/s | -53.9°C | 4.4% | 57.6hPa | 2.7V | 08:30:00 | 01:15:36 | 00:00:00 | |
| PG1ADW-2 | 2026-08-31 11:45:17 | 49.16366 | 10.21635 | 21° | 31km/h | 20120m | 3.6m/s | -53.8°C | 4.4% | 57.6hPa | 2.7V | 00:00:00 | 00:00:00 | 00:00:00 | |
| DO3MHA-12 | 2026-08-31 11:45:15 | 49.16358 | 10.21630 | 27° | 31km/h | 20115m | 5.3m/s | -53.8°C | 4.4% | 57.6hPa | 2.7V | 00:00:00 | 01:15:36 | 00:00:00 | |
| SONCRA | 2026-08-31 11:45:14 | 49.16345 | 10.21617 | 42° | 27km/h | 20104m | 4.8m/s | -53.8°C | 1.2% | 57.7hPa | 2.6V | 00:00:00 | 00:00:00 | 00:00:00 | |
| DO3MHA-11 | 2026-08-31 11:45:09 | 49.16323 | 10.21586 | 43° | 33km/h | 20084m | 4.8m/s | -53.5°C | 4.3% | 57.9hPa | 2.6V | 00:00:00 | 01:15:30 | 08:30:00 | |
| DL1NUX | 2026-08-31 11:45:06 | 49.16300 | 10.21552 | 37° | 35km/h | 20063m | 5.8m/s | -53.5°C | 4.2% | 58.1hPa | 2.7V | 08:30:00 | 01:15:26 | 00:00:00 | |
| HSKMA3-T | 2026-08-31 11:45:06 | 49.16307 | 10.21560 | 43° | 33km/h | 20068m | 3.8m/s | -53.5°C | 0.6% | 58.1hPa | 2.7V | 18:12:15 | 01:15:27 | 00:00:00 | |
| DM0DOS-11 | 2026-08-31 11:45:05 | 49.16293 | 10.21544 | 29° | 37km/h | 20058m | 5.5m/s | -53.4°C | 4.2% | 58.1hPa | 2.7V | 08:30:00 | 01:15:25 | 00:00:00 | |
| DL6DJ-15 | 2026-08-31 11:45:00 | 49.16263 | 10.21523 | 21° | 27km/h | 20037m | 5.0m/s | -53.3°C | 1.1% | 58.4hPa | 2.6V | 00:00:00 | 00:00:00 | 00:00:00 | |
| DM0DOS-11 | 2026-08-31 11:44:59 | 49.16235 | 10.21497 | 58° | 22km/h | 20006m | 4.3m/s | -53.4°C | 4.4% | 58.6hPa | 2.6V | 08:30:00 | 01:15:15 | 00:00:00 | |
| BIOWL1-15 | 2026-08-31 11:44:57 | 49.16245 | 10.21513 | 27° | 20km/h | 20021m | 4m/s | -53.2°C | 0.6% | 58.5hPa | 2.6V | 18:12:15 | 01:15:18 | 00:00:00 | |
| DL1NUX | 2026-08-31 11:44:57 | 49.16238 | 10.21504 | 55° | 20km/h | 20011m | 4.5m/s | -53.4°C | 4.3% | 58.6hPa | 2.7V | 08:30:00 | 01:15:16 | 00:00:00 | |
| HSKMA3-T | 2026-08-31 11:44:55 | 49.16238 | 10.21504 | 56° | 20km/h | 20011m | 4.6m/s | -53.4°C | 0.7% | 58.6hPa | 2.7V | 18:12:15 | 01:15:16 | 00:00:00 | |
| DJ8HS-15 | 2026-08-31 11:44:55 | 49.16238 | 10.21504 | 56° | 22km/h | 20011m | 4.5m/s | -53.3°C | 4.3% | 58.6hPa | 2.7V | 00:00:00 | 01:15:16 | 00:00:00 | |
| OE5DXL-15 | 2026-08-31 11:44:54 | 49.16235 | 10.21497 | 59° | 24km/h | 20006m | 4.3m/s | -53.4°C | 4.4% | 58.5hPa | 2.7V | 00:00:00 | 00:00:00 | 00:00:00 | |
| DB0NH | 2026-08-31 11:44:50 | 49.16221 | 10.21472 | 46° | 24km/h | 19983m | 5.7m/s | -53.2°C | 4.3% | 58.8hPa | 2.7V | 00:00:00 | 01:15:11 | 00:00:00 | |
| DO3MHA-11 | 2026-08-31 11:44:49 | 49.16216 | 10.21464 | 51° | 26km/h | 19977m | 6.2m/s | -53.2°C | 4.3% | 58.8hPa | 2.7V | 00:00:00 | 01:15:10 | 00:00:00 | |
| DM0DOS-11 | 2026-08-31 11:44:48 | 49.16190 | 10.21422 | 40° | 29km/h | 19949m | 4.9m/s | -53°C | 4.2% | 59.1hPa | 2.7V | 08:30:00 | 01:15:05 | 00:00:00 | |
| DL1NUX | 2026-08-31 11:44:47 | 49.16196 | 10.21430 | 40° | 33km/h | 19954m | 4.3m/s | -53.1°C | 4.2% | 59.1hPa | 2.7V | 08:30:00 | 01:15:06 | 00:00:00 | |
| HSKMA3-T | 2026-08-31 11:44:45 | 49.16196 | 10.21430 | 41° | 33km/h | 19954m | 4.3m/s | -53.1°C | 0.6% | 59.1hPa | 2.7V | 18:12:15 | 01:15:06 | 00:00:00 | |
| BIOWL1-15 | 2026-08-31 11:44:43 | 49.16177 | 10.21403 | 42° | 16km/h | 19931m | 6.9m/s | -52.9°C | 0.6% | 59.3hPa | 2.7V | 18:12:15 | 01:15:02 | 00:00:00 | |
| SONCRA | 2026-08-31 11:44:43 | 49.16180 | 10.21409 | 46° | 20km/h | 19937m | 5.9m/s | -53.0°C | 1.1% | 59.2hPa | 2.6V | 00:00:00 | 00:00:00 | 00:00:00 | |
| DN1GJH-1 | 2026-08-31 11:44:42 | 49.16180 | 10.21408 | 48° | 22km/h | 19937m | 5.9m/s | -53.0°C | 1.2% | 59.2hPa | 2.6V | 00:00:00 | 00:00:00 | 00:00:00 | |
| DL0LBS | 2026-08-31 11:44:40 | 49.16177 | 10.21403 | 43° | 16km/h | 19931m | 6.9m/s | -52.9°C | 1.2% | 59.3hPa | 2.6V | 00:00:00 | 00:00:00 | 00:00:00 | |
| DO3MHA-11 | 2026-08-31 11:44:39 | 49.16171 | 10.21397 | 25° | 24km/h | 19920m | 4.5m/s | -52.8°C | 4.2% | 59.4hPa | 2.6V | 00:00:00 | 01:15:00 | 00:00:00 | |
| DM0DOS-11 | 2026-08-31 11:44:38 | 49.16152 | 10.21374 | 34° | 27km/h | 19889m | 8.4m/s | -52.6°C | 4.1% | 59.7hPa | 2.7V | 08:30:00 | 01:14:55 | 00:00:00 | |
| DL1NUX | 2026-08-31 11:44:37 | 49.16157 | 10.21380 | 40° | 26km/h | 19896m | 5.6m/s | -52.7°C | 4.1% | 59.6hPa | 2.7V | 08:30:00 | 01:14:56 | 00:00:00 | |
| HSKMA3-T | 2026-08-31 11:44:34 | 49.16152 | 10.21374 | 34° | 27km/h | 19889m | 8.4m/s | -52.7°C | 0.6% | 59.7hPa | 2.7V | 18:12:15 | 01:14:55 | 00:00:00 | |
| BIOWL1-15 | 2026-08-31 11:44:33 | 49.16146 | 10.21369 | 22° | 29km/h | 19881m | 8m/s | -52.6°C | 0.6% | 59.8hPa | 2.6V | 18:12:15 | 01:14:54 | 00:00:00 | |
| NBG1-10 | 2026-08-31 11:44:32 | 49.16138 | 10.21365 | 12° | 26km/h | 19874m | 5.6m/s | -52.4°C | 4.0% | 59.8hPa | 2.6V | 00:00:00 | 01:14:53 | 00:00:00 | |
| DO3MHA-11 | 2026-08-31 11:44:29 | 49.16117 | 10.21362 | 3° | 26km/h | 19858m | 4.1m/s | -52.3°C | 4.0% | 59.9hPa | 2.6V | 00:00:00 | 01:14:50 | 00:00:00 | |
| DM0DOS-11 | 2026-08-31 11:44:28 | 49.16088 | 10.21350 | 36° | 22km/h | 19832m | 6.5m/s | -52.5°C | 4% | 60.2hPa | 2.6V | 08:30:00 | 01:14:45 | 00:00:00 | |
| OE5DRO-10 | 2026-08-31 11:44:28 | 49.16111 | 10.21362 | 6° | 26km/h | 19853m | 5.3m/s | -52.4°C | 4.0% | 60.0hPa | 2.7V | 00:00:00 | 00:00:00 | 00:00:00 | |
| DL1NUX | 2026-08-31 11:44:26 | 49.16093 | 10.21354 | 27° | 24km/h | 19838m | 4.8m/s | -52.4°C | 3.9% | 60.1hPa | 2.7V | 08:30:00 | 01:14:46 | 00:00:00 | |
| HSKMA3-T | 2026-08-31 11:44:24 | 49.16088 | 10.21350 | 37° | 22km/h | 19832m | 6.5m/s | -52.5°C | 0.5% | 60.2hPa | 2.6V | 18:12:15 | 01:14:45 | 00:00:00 | |
| BIOWL1-15 | 2026-08-31 11:44:23 | 49.16084 | 10.21344 | 44° | 22km/h | 19827m | 4.6m/s | -52.6°C | 0.5% | 60.3hPa | 2.6V | 18:12:15 | 01:14:44 | 00:00:00 | |
| DL0LBS | 2026-08-31 11:44:20 | 49.16069 | 10.21325 | 31° | 29km/h | 19811m | 4.5m/s | -52.7°C | 1.1% | 60.4hPa | 2.7V | 00:00:00 | 00:00:00 | 00:00:00 | |
| DO3MHA-11 | 2026-08-31 11:44:19 | 49.16062 | 10.21320 | 23° | 27km/h | 19807m | 4.5m/s | -52.6°C | 4.1% | 60.4hPa | 2.7V | 00:00:00 | 01:14:40 | 00:00:00 | |
| DO9HM | 2026-08-31 11:44:17 | 49.16055 | 10.21316 | 18° | 29km/h | 19802m | 5.2m/s | -52.6°C | 1.2% | 60.5hPa | 2.7V | 00:00:00 | 00:00:00 | 00:00:00 | |
| DL1NUX | 2026-08-31 11:44:16 | 49.16034 | 10.21310 | 7° | 27km/h | 19787m | 5m/s | -52.5°C | 4.1% | 60.6hPa | 2.7V | 08:30:00 | 01:14:36 | 00:00:00 | |
| DM0DOS-11 | 2026-08-31 11:44:15 | 49.16027 | 10.21308 | 8° | 27km/h | 19781m | 5.5m/s | -52.4°C | 4% | 60.7hPa | 2.7V | 08:30:00 | 01:14:35 | 00:00:00 | |
| HSKMA3-T | 2026-08-31 11:44:13 | 49.16021 | 10.21307 | 9° | 27km/h | 19776m | 4.4m/s | -52.4°C | 0.5% | 60.8hPa | 2.6V | 18:12:15 | 01:14:34 | 00:00:00 | |
| BIOWL1-15 | 2026-08-31 11:44:13 | 49.16008 | 10.21303 | 11° | 22km/h | 19766m | 5m/s | -52.5°C | 0.5% | 60.8hPa | 2.7V | 18:12:15 | 01:14:32 | 00:00:00 | |
| SONCRA | 2026-08-31 11:44:12 | 49.16008 | 10.21303 | 11° | 22km/h | 19766m | 5.0m/s | -52.5°C | 1.1% | 60.8hPa | 2.6V | 00:00:00 | 00:00:00 | 00:00:00 | |
| DO3MHA-11 | 2026-08-31 11:44:09 | 49.15997 | 10.21299 | 17° | 24km/h | 19755m | 6.2m/s | -52.4°C | 4.0% | 60.9hPa | 2.6V | 00:00:00 | 01:14:30 | 00:00:00 | |
| DL1NUX | 2026-08-31 11:44:06 | 49.15974 | 10.21285 | 20° | 22km/h | 19735m | 5m/s | -52.4°C | 3.9% | 61.1hPa | 2.7V | 08:30:00 | 01:14:26 | 00:00:00 | |
| HSKMA3-T | 2026-08-31 11:44:02 | 49.15957 | 10.21280 | 8° | 26km/h | 19719m | 5.5m/s | -52.8°C | 0.5% | 61.3hPa | 2.6V | 18:12:15 | 01:14:23 | 00:00:00 | |
| BIOWL1-15 | 2026-08-31 11:44:01 | 49.15899 | 10.21225 | 23° | 20km/h | 19653m | 4.8m/s | -52.8°C | 0.5% | 61.9hPa | 2.7V | 18:12:15 | 01:14:10 | 00:00:00 | |
| DL6DJ-15 | 2026-08-31 11:43:58 | 49.15933 | 10.21271 | 31° | 20km/h | 19699m | 4.9m/s | -52.9°C | 1.2% | 61.5hPa | 2.7V | 00:00:00 | 00:00:00 | 00:00:00 | |
| DF7PN | 2026-08-31 11:43:57 | 49.15925 | 10.21260 | 44° | 22km/h | 19689m | 6.1m/s | -52.9°C | 1.1% | 61.6hPa | 2.7V | 00:00:00 | 00:00:00 | 00:00:00 | |
| DL1NUX | 2026-08-31 11:43:56 | 49.15921 | 10.21254 | 44° | 24km/h | 19683m | 4.8m/s | -52.9°C | 4.2% | 61.6hPa | 2.7V | 08:30:00 | 01:14:16 | 00:00:00 | |
| DM0DOS-11 | 2026-08-31 11:43:55 | 49.15916 | 10.21247 | 46° | 24km/h | 19679m | 4.1m/s | -53°C | 4.2% | 61.7hPa | 2.6V | 08:30:00 | 01:14:15 | 00:00:00 | |
| BIOWL1-15 | 2026-08-31 11:43:52 | 49.15894 | 10.21222 | 21° | 20km/h | 19648m | 5.1m/s | -52.9°C | 0.6% | 62hPa | 2.6V | 18:12:15 | 01:14:09 | 00:00:00 | |
| HSKMA3-T | 2026-08-31 11:43:51 | 49.15906 | 10.21232 | 38° | 16km/h | 19664m | 4.8m/s | -52.8°C | 0.5% | 61.8hPa | 2.7V | 18:12:15 | 01:14:12 | 00:00:00 | |
| DC4HF-4 | 2026-08-31 11:43:49 | 49.15894 | 10.21222 | 20° | 18km/h | 19648m | 5.1m/s | -52.9°C | 1.1% | 62.0hPa | 2.7V | 00:00:00 | 00:00:00 | 00:00:00 | |
| HSKMA3-T | 2026-08-31 11:43:41 | 49.15862 | 10.21194 | 52° | 16km/h | 19610m | 5.4m/s | -52.6°C | 0.5% | 62.3hPa | 2.7V | 18:12:15 | 01:14:02 | 00:00:00 | |
| SONCRA | 2026-08-31 11:43:41 | 49.15860 | 10.21189 | 60° | 15km/h | 19605m | 4.6m/s | -52.7°C | 1.1% | 62.4hPa | 2.6V | 00:00:00 | 00:00:00 | 00:00:00 | |
| DO3MHA-11 | 2026-08-31 11:43:39 | 49.15858 | 10.21184 | 58° | 20km/h | 19600m | 5.8m/s | -52.7°C | 4.0% | 62.4hPa | 2.6V | 00:00:00 | 01:14:00 | 08:30:00 | |
| DL0LBS | 2026-08-31 11:43:37 | 49.15855 | 10.21178 | 54° | 18km/h | 19594m | 4.9m/s | -52.8°C | 1.1% | 62.5hPa | 2.7V | 00:00:00 | 00:00:00 | 00:00:00 | |
| DL1NUX | 2026-08-31 11:43:36 | 49.15847 | 10.21163 | 43° | 16km/h | 19578m | 5.1m/s | -52.8°C | 4.1% | 62.6hPa | 2.7V | 08:30:00 | 01:13:56 | 00:00:00 | |
| BIOWL1-15 | 2026-08-31 11:43:32 | 49.15817 | 10.21141 | 24° | 18km/h | 19547m | 4.7m/s | -53.1°C | 0.6% | 63hPa | 2.7V | 18:12:15 | 01:13:50 | 00:00:00 | |
| HSKMA3-T | 2026-08-31 11:43:30 | 49.15822 | 10.21144 | 20° | 22km/h | 19552m | 5.9m/s | -53.2°C | 0.6% | 62.9hPa | 2.7V | 18:12:15 | 01:13:51 | 00:00:00 | |
| DO3MHA-11 | 2026-08-31 11:43:29 | 49.15817 | 10.21141 | 24° | 22km/h | 19547m | 4.6m/s | -53.0°C | 4.2% | 62.9hPa | 2.7V | 00:00:00 | 01:13:50 | 00:00:00 | |
| DL1NUX | 2026-08-31 11:43:26 | 49.15804 | 10.21122 | 57° | 20km/h | 19527m | 5.6m/s | -53.1°C | 4.2% | 63.1hPa | 2.7V | 08:30:00 | 01:13:46 | 00:00:00 | |
| BIOWL1-15 | 2026-08-31 11:43:21 | 49.15757 | 10.21044 | 40° | 20km/h | 19469m | 5.9m/s | -52.8°C | 0.6% | 63.7hPa | 2.7V | 18:12:15 | 01:13:35 | 00:00:00 | |
| HSKMA3-T | 2026-08-31 11:43:19 | 49.15781 | 10.21074 | 45° | 27km/h | 19495m | 6m/s | -52.9°C | 0.5% | 63.5hPa | 2.7V | 18:12:15 | 01:13:40 | 00:00:00 | |
| DB0UT-7 | 2026-08-31 11:43:19 | 49.15781 | 10.21074 | 45° | 18km/h | 19496m | 5.9m/s | -52.9°C | 4.0% | 63.4hPa | 2.7V | 00:00:00 | 01:13:40 | 00:00:00 | |
| DN1GJH-1 | 2026-08-31 11:43:18 | 49.15781 | 10.21074 | 46° | 27km/h | 19496m | 6.0m/s | -52.9°C | 1.1% | 63.4hPa | 2.7V | 00:00:00 | 00:00:00 | 00:00:00 | |
| DL1NUX | 2026-08-31 11:43:16 | 49.15761 | 10.21049 | 38° | 24km/h | 19474m | 4m/s | -52.9°C | 4.2% | 63.7hPa | 2.7V | 08:30:00 | 01:13:36 | 00:00:00 | |
| HSKMA3-T | 2026-08-31 11:43:09 | 49.15745 | 10.21016 | 64° | 24km/h | 19442m | 4.6m/s | -52.8°C | 0.6% | 64hPa | 2.6V | 18:12:15 | 01:13:30 | 00:00:00 | |
| BIOWL1-15 | 2026-08-31 11:43:08 | 49.15735 | 10.20991 | 54° | 29km/h | 19427m | 5.5m/s | -52.7°C | 0.5% | 64.1hPa | 2.7V | 18:12:15 | 01:13:27 | 00:00:00 | |
| DL1NUX | 2026-08-31 11:43:06 | 49.15731 | 10.20981 | 48° | 33km/h | 19422m | 5.6m/s | -52.8°C | 4% | 64.2hPa | 2.7V | 08:30:00 | 01:13:26 | 00:00:00 | |
| DM0DOS-11 | 2026-08-31 11:43:05 | 49.15725 | 10.20973 | 42° | 33km/h | 19417m | 3.8m/s | -52.8°C | 4% | 64.2hPa | 2.7V | 08:30:00 | 01:13:25 | 00:00:00 | |
| DO3MHA-12 | 2026-08-31 11:43:05 | 49.15730 | 10.20981 | 49° | 22km/h | 19422m | 5.6m/s | -52.7°C | 4.0% | 64.1hPa | 2.6V | 00:00:00 | 01:13:26 | 00:00:00 | |
| DM0DOS-11 | 2026-08-31 11:42:59 | 49.15691 | 10.20927 | 69° | 18km/h | 19367m | 5.3m/s | -52.8°C | 4.1% | 64.7hPa | 2.6V | 08:30:00 | 01:13:15 | 00:00:00 | |
| HSKMA3-T | 2026-08-31 11:42:59 | 49.15700 | 10.20949 | 31° | 15km/h | 19393m | 5.6m/s | -52.9°C | 0.6% | 64.5hPa | 2.7V | 18:12:15 | 01:13:20 | 00:00:00 | |
| BIOWL1-15 | 2026-08-31 11:42:57 | 49.15695 | 10.20942 | 60° | 13km/h | 19383m | 4.8m/s | -52.7°C | 0.6% | 64.6hPa | 2.6V | 18:12:15 | 01:13:18 | 00:00:00 | |
| DL1NUX | 2026-08-31 11:42:56 | 49.15693 | 10.20932 | 74° | 15km/h | 19372m | 4.8m/s | -52.8°C | 4.1% | 64.7hPa | 2.7V | 08:30:00 | 01:13:16 | 00:00:00 | |
| HSKMA3-T | 2026-08-31 11:42:48 | 49.15675 | 10.20878 | 62° | 18km/h | 19338m | 4.4m/s | -52.8°C | 0.6% | 65hPa | 2.6V | 18:12:15 | 01:13:09 | 00:00:00 | |
| DL1NUX | 2026-08-31 11:42:47 | 49.15667 | 10.20863 | 41° | 15km/h | 19322m | 4.5m/s | -52.7°C | 4% | 65.2hPa | 2.7V | 08:30:00 | 01:13:06 | 00:00:00 | |
| BIOWL1-15 | 2026-08-31 11:42:46 | 49.15670 | 10.20867 | 44° | 16km/h | 19328m | 5.5m/s | -52.8°C | 0.5% | 65.1hPa | 2.6V | 18:12:15 | 01:13:07 | 00:00:00 | |
| DM0DOS-11 | 2026-08-31 11:42:46 | 49.15665 | 10.20860 | 48° | 11km/h | 19317m | 5.8m/s | -52.7°C | 4% | 65.2hPa | 2.7V | 08:30:00 | 01:13:05 | 00:00:00 | |
| DO3MHA-12 | 2026-08-31 11:42:45 | 49.15667 | 10.20863 | 42° | 15km/h | 19323m | 4.5m/s | -52.7°C | 4.0% | 65.1hPa | 2.7V | 00:00:00 | 01:13:06 | 08:30:00 | |
| DL1ZP-14 | 2026-08-31 11:42:42 | 49.15661 | 10.20848 | 59° | 13km/h | 19303m | 5.7m/s | -53.1°C | 1.1% | 65.4hPa | 2.7V | 00:00:00 | 00:00:00 | 00:00:00 | |
| DL9SK-14 | 2026-08-31 11:42:40 | 49.15659 | 10.20843 | 58° | 15km/h | 19297m | 4.8m/s | -53.3°C | 1.2% | 65.5hPa | 2.7V | 00:00:00 | 00:00:00 | 00:00:00 | |
| DM0DOS-11 | 2026-08-31 11:42:39 | 49.15644 | 10.20807 | 32° | 18km/h | 19267m | 3.9m/s | -53°C | 4.2% | 65.7hPa | 2.7V | 08:30:00 | 01:12:55 | 00:00:00 | |
| HSKMA3-T | 2026-08-31 11:42:38 | 49.15655 | 10.20831 | 70° | 18km/h | 19287m | 5.4m/s | -53.4°C | 0.7% | 65.5hPa | 2.6V | 18:12:15 | 01:12:59 | 00:00:00 | |
| BIOWL1-15 | 2026-08-31 11:42:35 | 49.15634 | 10.20800 | 18° | 11km/h | 19252m | 5m/s | -52.9°C | 0.6% | 65.9hPa | 2.6V | 18:12:15 | 01:12:52 | 00:00:00 | |
| DO9HM | 2026-08-31 11:42:35 | 49.15648 | 10.20812 | 45° | 20km/h | 19272m | 4.9m/s | -53.1°C | 1.2% | 65.7hPa | 2.7V | 00:00:00 | 00:00:00 | 00:00:00 | |
| OE5DRO-10 | 2026-08-31 11:42:34 | 49.15644 | 10.20807 | 33° | 11km/h | 19268m | 3.8m/s | -53.0°C | 4.2% | 65.7hPa | 2.7V | 00:00:00 | 00:00:00 | 00:00:00 | |
| DO3MHA-11 | 2026-08-31 11:42:29 | 49.15629 | 10.20798 | 2° | 15km/h | 19242m | 5.4m/s | -52.7°C | 4.1% | 66.0hPa | 2.7V | 00:00:00 | 01:12:50 | 00:00:00 | |
| DG9SBQ-11 | 2026-08-31 11:42:28 | 49.15626 | 10.20798 | 7° | 13km/h | 19237m | 3.9m/s | -52.8°C | 1.2% | 66.1hPa | 2.7V | 00:00:00 | 00:00:00 | 00:00:00 | |
| DL1NUX | 2026-08-31 11:42:26 | 49.15619 | 10.20791 | 62° | 13km/h | 19222m | 4.5m/s | -52.8°C | 4.1% | 66.2hPa | 2.7V | 08:30:00 | 01:12:46 | 00:00:00 | |
| BIOWL1-15 | 2026-08-31 11:42:20 | 49.15611 | 10.20762 | 76° | 15km/h | 19195m | 4.1m/s | -52.9°C | 0.6% | 66.5hPa | 2.7V | 18:12:15 | 01:12:41 | 00:00:00 | |
| DB0NH | 2026-08-31 11:42:20 | 49.15611 | 10.20762 | 76° | 20km/h | 19195m | 4.1m/s | -52.8°C | 4.2% | 66.5hPa | 2.7V | 00:00:00 | 01:12:41 | 00:00:00 | |
| DM0DOS-11 | 2026-08-31 11:42:19 | 49.15599 | 10.20743 | 20° | 7km/h | 19165m | 3.5m/s | -52.7°C | 4% | 66.8hPa | 2.7V | 08:30:00 | 01:12:35 | 00:00:00 | |
| DO3MHA-11 | 2026-08-31 11:42:19 | 49.15610 | 10.20757 | 68° | 13km/h | 19191m | 5.1m/s | -53.0°C | 4.2% | 66.5hPa | 2.7V | 00:00:00 | 01:12:40 | 00:00:00 | |
| DL1NUX | 2026-08-31 11:42:16 | 49.15601 | 10.20745 | 23° | 9km/h | 19169m | 5.5m/s | -52.8°C | 4% | 66.8hPa | 2.7V | 08:30:00 | 01:12:36 | 00:00:00 | |
| HSKMA3-T | 2026-08-31 11:42:10 | 49.15591 | 10.20723 | 91° | 22km/h | 19138m | 6.9m/s | -52.5°C | 0.4% | 67.1hPa | 2.6V | 18:12:15 | 01:12:30 | 00:00:00 | |
| BIOWL1-15 | 2026-08-31 11:42:08 | 49.15593 | 10.20704 | 100° | 27km/h | 19127m | 4.7m/s | -52.4°C | 0.4% | 67.2hPa | 2.6V | 18:12:15 | 01:12:28 | 00:00:00 | |
| DL1NUX | 2026-08-31 11:42:06 | 49.15593 | 10.20683 | 82° | 27km/h | 19116m | 4.8m/s | -52.4°C | 3.9% | 67.3hPa | 2.7V | 08:30:00 | 01:12:26 | 00:00:00 | |
| DM0DOS-11 | 2026-08-31 11:42:05 | 49.15592 | 10.20673 | 68° | 24km/h | 19112m | 4.7m/s | -52.4°C | 3.9% | 67.4hPa | 2.7V | 08:30:00 | 01:12:25 | 00:00:00 | |
| AZAK | 2026-08-31 11:42:05 | 49.15593 | 10.20682 | 83° | 27km/h | 19117m | 4.8m/s | -52.4°C | 1.1% | 67.4hPa | 2.6V | 00:00:00 | 00:00:00 | 00:00:00 | |
| DC4HF-4 | 2026-08-31 11:42:00 | 49.15581 | 10.20654 | 30° | 13km/h | 19090m | 5.2m/s | -52.8°C | 1.1% | 67.6hPa | 2.6V | 00:00:00 | 00:00:00 | 00:00:00 | |
| DM0DOS-11 | 2026-08-31 11:41:59 | 49.15572 | 10.20608 | 90° | 33km/h | 19058m | 5.6m/s | -53.2°C | 4.2% | 67.9hPa | 2.6V | 08:30:00 | 01:12:15 | 00:00:00 | |
| BIOWL9-15 | 2026-08-31 11:41:57 | 49.15572 | 10.20595 | 86° | 35km/h | 19052m | 6.2m/s | -53.2°C | 1.2% | 68.0hPa | 2.6V | 00:00:00 | 00:00:00 | 00:00:00 | |
| DL6DJ-15 | 2026-08-31 11:41:54 | 49.15572 | 10.20595 | 86° | 35km/h | 19052m | 6.2m/s | -53.2°C | 1.2% | 68.0hPa | 2.6V | 00:00:00 | 00:00:00 | 00:00:00 | |
| DF7PN | 2026-08-31 11:41:53 | 49.15571 | 10.20581 | 80° | 35km/h | 19047m | 4.7m/s | -53.2°C | 1.2% | 68.1hPa | 2.6V | 00:00:00 | 00:00:00 | 00:00:00 | |
| DF3TZ-5 | 2026-08-31 11:41:51 | 49.15567 | 10.20557 | 72° | 27km/h | 19037m | 6.0m/s | -53.2°C | 1.2% | 68.2hPa | 2.6V | 00:00:00 | 00:00:00 | 00:00:00 | |
| DB0NH | 2026-08-31 11:41:50 | 49.15567 | 10.20557 | 73° | 27km/h | 19037m | 5.9m/s | -53.2°C | 4.2% | 68.1hPa | 2.6V | 00:00:00 | 01:12:11 | 00:00:00 | |
| DL1NUX | 2026-08-31 11:41:49 | 49.15559 | 10.20534 | 51° | 22km/h | 19020m | 5.8m/s | -53.2°C | 4.2% | 68.3hPa | 2.6V | 08:30:00 | 01:12:08 | 00:00:00 | |
| BIOWL1-15 | 2026-08-31 11:41:48 | 49.15555 | 10.20527 | 51° | 22km/h | 19014m | 5.5m/s | -53.2°C | 0.6% | 68.4hPa | 2.6V | 18:12:15 | 01:12:07 | 00:00:00 | |
| NBG1-10 | 2026-08-31 11:41:47 | 49.15559 | 10.20534 | 52° | 27km/h | 19020m | 5.7m/s | -53.1°C | 4.2% | 68.3hPa | 2.6V | 00:00:00 | 01:12:08 | 08:30:00 | |
| DM0DOS-11 | 2026-08-31 11:41:45 | 49.15549 | 10.20515 | 57° | 20km/h | 19002m | 5.2m/s | -53.2°C | 4.1% | 68.5hPa | 2.7V | 08:30:00 | 01:12:05 | 00:00:00 | |
| DO3MHA-12 | 2026-08-31 11:41:45 | 49.15552 | 10.20521 | 54° | 27km/h | 19008m | 6.6m/s | -53.1°C | 4.1% | 68.4hPa | 2.7V | 00:00:00 | 01:12:06 | 00:00:00 | |
| DL1NUX | 2026-08-31 11:41:42 | 49.15530 | 10.20445 | 71° | 29km/h | 18966m | 4m/s | -53.2°C | 4.2% | 68.9hPa | 2.6V | 08:30:00 | 01:11:58 | 00:00:00 | |
| DG1MJG | 2026-08-31 11:41:41 | 49.15541 | 10.20489 | 67° | 31km/h | 18987m | 4.6m/s | -53.1°C | 1.1% | 68.7hPa | 2.6V | 00:00:00 | 00:00:00 | 00:00:00 | |
| DL1ZP-14 | 2026-08-31 11:41:40 | 49.15535 | 10.20466 | 70° | 29km/h | 18976m | 6.3m/s | -53.2°C | 1.2% | 68.8hPa | 2.6V | 00:00:00 | 00:00:00 | 00:00:00 | |
| DM0DOS-11 | 2026-08-31 11:41:39 | 49.15517 | 10.20405 | 54° | 27km/h | 18944m | 5.8m/s | -53°C | 4.2% | 69.2hPa | 2.6V | 08:30:00 | 01:11:54 | 00:00:00 | |
| HSKMA3-T | 2026-08-31 11:41:38 | 49.15532 | 10.20455 | 72° | 29km/h | 18970m | 4.9m/s | -53.3°C | 0.6% | 68.9hPa | 2.6V | 18:12:15 | 01:11:59 | 00:00:00 | |
| BIOWL1-15 | 2026-08-31 11:41:35 | 49.15525 | 10.20424 | 63° | 29km/h | 18956m | 5.7m/s | -53.1°C | 0.7% | 69.1hPa | 2.7V | 18:12:15 | 01:11:56 | 00:00:00 | |
| DO3MHA-12 | 2026-08-31 11:41:35 | 49.15525 | 10.20424 | 64° | 29km/h | 18956m | 5.6m/s | -53.1°C | 4.2% | 69.0hPa | 2.6V | 00:00:00 | 01:11:56 | 00:00:00 | |
| DO9HM | 2026-08-31 11:41:34 | 49.15521 | 10.20414 | 60° | 29km/h | 18950m | 5.9m/s | -53.1°C | 1.2% | 69.1hPa | 2.6V | 00:00:00 | 00:00:00 | 00:00:00 | |
| SO1NDE-10 | 2026-08-31 11:41:33 | 49.15517 | 10.20405 | 55° | 27km/h | 18945m | 5.7m/s | -53.0°C | 4.2% | 69.1hPa | 2.6V | 00:00:00 | 01:11:54 | 00:00:00 | |
| DL1NUX | 2026-08-31 11:41:29 | 49.15491 | 10.20352 | 57° | 26km/h | 18914m | 4.1m/s | -53°C | 4.2% | 69.5hPa | 2.6V | 08:30:00 | 01:11:48 | 00:00:00 | |
| HSKMA3-T | 2026-08-31 11:41:28 | 49.15491 | 10.20352 | 57° | 26km/h | 18914m | 4.1m/s | -53°C | 0.7% | 69.5hPa | 2.6V | 18:12:15 | 01:11:48 | 00:00:00 | |
| DM0DOS-11 | 2026-08-31 11:41:25 | 49.15481 | 10.20324 | 64° | 31km/h | 18899m | 5m/s | -53.2°C | 4.2% | 69.7hPa | 2.6V | 08:30:00 | 01:11:45 | 00:00:00 | |
| BIOWL1-15 | 2026-08-31 11:41:25 | 49.15484 | 10.20334 | 63° | 29km/h | 18905m | 5.8m/s | -53.1°C | 0.6% | 69.6hPa | 2.7V | 18:12:15 | 01:11:46 | 00:00:00 | |
| DO3MHA-12 | 2026-08-31 11:41:25 | 49.15484 | 10.20334 | 63° | 27km/h | 18905m | 5.8m/s | -53.1°C | 4.2% | 69.6hPa | 2.6V | 00:00:00 | 01:11:46 | 00:00:00 | |
| OE5DXL-15 | 2026-08-31 11:41:24 | 49.15480 | 10.20323 | 65° | 27km/h | 18899m | 4.9m/s | -53.1°C | 4.2% | 69.6hPa | 2.6V | 00:00:00 | 00:00:00 | 00:00:00 | |
| DL6DJ-15 | 2026-08-31 11:41:23 | 49.15474 | 10.20302 | 66° | 27km/h | 18889m | 5.9m/s | -53.1°C | 1.1% | 69.8hPa | 2.6V | 00:00:00 | 00:00:00 | 00:00:00 | |
| DF7PN | 2026-08-31 11:41:22 | 49.15472 | 10.20292 | 69° | 27km/h | 18884m | 5.0m/s | -53.0°C | 1.1% | 69.8hPa | 2.6V | 00:00:00 | 00:00:00 | 00:00:00 | |
| DF3TZ-5 | 2026-08-31 11:41:20 | 49.15466 | 10.20272 | 68° | 27km/h | 18873m | 4.7m/s | -53.0°C | 1.1% | 70.0hPa | 2.6V | 00:00:00 | 00:00:00 | 00:00:00 | |
| DM0DOS-11 | 2026-08-31 11:41:19 | 49.15449 | 10.20215 | 62° | 35km/h | 18839m | 10.9m/s | -52.7°C | 4.1% | 70.3hPa | 2.6V | 08:30:00 | 01:11:34 | 00:00:00 | |
| DL1NUX | 2026-08-31 11:41:19 | 49.15456 | 10.20236 | 63° | 26km/h | 18853m | 6m/s | -52.8°C | 4.2% | 70.2hPa | 2.7V | 08:30:00 | 01:11:36 | 00:00:00 | |
| HSKMA3-T | 2026-08-31 11:41:16 | 49.15459 | 10.20244 | 64° | 24km/h | 18858m | 4.7m/s | -52.9°C | 0.6% | 70.1hPa | 2.6V | 18:12:15 | 01:11:37 | 00:00:00 | |
| DK7TD | 2026-08-31 11:41:14 | 49.15449 | 10.20215 | 63° | 35km/h | 18839m | 11m/s | 0°C | 0% | 0hPa | 2.6V | 18:12:15 | 01:11:34 | 00:00:00 | |
| DO9HM | 2026-08-31 11:41:13 | 49.15449 | 10.20215 | 64° | 35km/h | 18839m | 11.0m/s | -52.7°C | 1.2% | 70.3hPa | 2.6V | 00:00:00 | 00:00:00 | 00:00:00 | |
| DG1MJG | 2026-08-31 11:41:10 | 49.15438 | 10.20183 | 66° | 27km/h | 18821m | 4.7m/s | -52.6°C | 1.1% | 70.5hPa | 2.6V | 00:00:00 | 00:00:00 | 00:00:00 | |
| DL1ZP-14 | 2026-08-31 11:41:09 | 49.15433 | 10.20165 | 67° | 26km/h | 18812m | 5.2m/s | -52.5°C | 1.1% | 70.6hPa | 2.6V | 00:00:00 | 00:00:00 | 00:00:00 | |
| DM0DOS-11 | 2026-08-31 11:41:08 | 49.15426 | 10.20125 | 81° | 27km/h | 18791m | 5m/s | -52.5°C | 4.1% | 70.8hPa | 2.7V | 08:30:00 | 01:11:25 | 00:00:00 | |
| DL1NUX | 2026-08-31 11:41:07 | 49.15423 | 10.20105 | 68° | 27km/h | 18781m | 4m/s | -52.4°C | 4.1% | 70.9hPa | 2.6V | 08:30:00 | 01:11:23 | 00:00:00 | |
| HSKMA3-T | 2026-08-31 11:41:06 | 49.15429 | 10.20145 | 75° | 27km/h | 18802m | 4.9m/s | -52.5°C | 0.5% | 70.7hPa | 2.7V | 18:12:15 | 01:11:27 | 00:00:00 | |
| DK7TD | 2026-08-31 11:41:03 | 49.15425 | 10.20115 | 77° | 27km/h | 18785m | 5.7m/s | 0°C | 0% | 0hPa | 2.6V | 18:12:15 | 01:11:24 | 00:00:00 | |
| BIOWL1-15 | 2026-08-31 11:40:58 | 49.15406 | 10.20068 | 47° | 24km/h | 18757m | 5.5m/s | -52.3°C | 0.6% | 71.2hPa | 2.6V | 18:12:15 | 01:11:18 | 00:00:00 | |
| DL1NUX | 2026-08-31 11:40:57 | 49.15389 | 10.20026 | 70° | 27km/h | 18730m | 5.5m/s | -52.1°C | 3.9% | 71.5hPa | 2.6V | 08:30:00 | 01:11:13 | 00:00:00 | |
| DM0DOS-11 | 2026-08-31 11:40:56 | 49.15394 | 10.20044 | 60° | 27km/h | 18741m | 6.3m/s | -52.1°C | 4% | 71.3hPa | 2.6V | 08:30:00 | 01:11:15 | 00:00:00 | |
| HSKMA3-T | 2026-08-31 11:40:55 | 49.15398 | 10.20053 | 55° | 27km/h | 18747m | 4.6m/s | -52.2°C | 0.5% | 71.3hPa | 2.7V | 18:12:15 | 01:11:16 | 00:00:00 | |
| DL6DJ-15 | 2026-08-31 11:40:52 | 49.15386 | 10.20016 | 69° | 26km/h | 18725m | 5.7m/s | -52.1°C | 1.1% | 71.5hPa | 2.7V | 00:00:00 | 00:00:00 | 00:00:00 | |
| DF7PN | 2026-08-31 11:40:50 | 49.15384 | 10.20007 | 66° | 26km/h | 18720m | 4.2m/s | -51.9°C | 1.1% | 71.6hPa | 2.7V | 00:00:00 | 00:00:00 | 00:00:00 | |
| DF3TZ-5 | 2026-08-31 11:40:49 | 49.15379 | 10.19991 | 63° | 16km/h | 18710m | 5.8m/s | -51.8°C | 1.1% | 71.7hPa | 2.7V | 00:00:00 | 00:00:00 | 00:00:00 | |
| DC4HF-4 | 2026-08-31 11:40:48 | 49.15379 | 10.19991 | 63° | 16km/h | 18710m | 5.8m/s | -51.8°C | 1.1% | 71.7hPa | 2.7V | 00:00:00 | 00:00:00 | 00:00:00 | |
| SONDE2-11 | 2026-08-31 11:40:47 | 49.15377 | 10.19986 | 55° | 15km/h | 18705m | 4.2m/s | -51.8°C | 1.1% | 71.8hPa | 2.7V | 00:00:00 | 00:00:00 | 00:00:00 | |
| DM0DOS-11 | 2026-08-31 11:40:45 | 49.15368 | 10.19971 | 40° | 22km/h | 18690m | 4m/s | -51.7°C | 3.8% | 71.9hPa | 2.7V | 08:30:00 | 01:11:05 | 00:00:00 | |
| HSKMA3-T | 2026-08-31 11:40:45 | 49.15372 | 10.19976 | 44° | 18km/h | 18695m | 5.1m/s | -51.7°C | 0.4% | 71.9hPa | 2.7V | 18:12:15 | 01:11:06 | 00:00:00 | |
| BIOWL1-15 | 2026-08-31 11:40:41 | 49.15357 | 10.19955 | 44° | 18km/h | 18674m | 4.8m/s | -51.7°C | 0.4% | 72.1hPa | 2.7V | 18:12:15 | 01:11:02 | 00:00:00 | |
| NBG1-10 | 2026-08-31 11:40:41 | 49.15356 | 10.19955 | 44° | 22km/h | 18675m | 4.8m/s | -51.7°C | 3.8% | 72.0hPa | 2.7V | 00:00:00 | 01:11:02 | 00:00:00 | |
| DM0DOS-11 | 2026-08-31 11:40:40 | 49.15332 | 10.19911 | 37° | 20km/h | 18639m | 6.1m/s | -51.7°C | 3.8% | 72.5hPa | 2.7V | 08:30:00 | 01:10:55 | 00:00:00 | |
| HSKMA3-T | 2026-08-31 11:40:34 | 49.15332 | 10.19911 | 38° | 20km/h | 18639m | 6.1m/s | -51.7°C | 0.4% | 72.5hPa | 2.7V | 18:12:15 | 01:10:55 | 00:00:00 | |
| DF2AP-13 | 2026-08-31 11:40:34 | 49.15332 | 10.19911 | 38° | 22km/h | 18639m | 6.0m/s | -51.6°C | 3.8% | 72.4hPa | 2.7V | 00:00:00 | 01:10:55 | 00:00:00 | |
| DL0LBS | 2026-08-31 11:40:33 | 49.15332 | 10.19911 | 39° | 20km/h | 18639m | 6.1m/s | -51.7°C | 1.1% | 72.5hPa | 2.7V | 00:00:00 | 00:00:00 | 00:00:00 | |
| SO1NDE-10 | 2026-08-31 11:40:32 | 49.15323 | 10.19903 | 28° | 22km/h | 18629m | 4.5m/s | -51.7°C | 3.8% | 72.5hPa | 2.7V | 00:00:00 | 01:10:53 | 00:00:00 | |
| DO9HM | 2026-08-31 11:40:31 | 49.15323 | 10.19903 | 29° | 20km/h | 18629m | 4.5m/s | -51.7°C | 1.1% | 72.6hPa | 2.7V | 00:00:00 | 00:00:00 | 00:00:00 | |
| DL1NUX | 2026-08-31 11:40:29 | 49.15297 | 10.19876 | 46° | 22km/h | 18596m | 5.7m/s | -52.1°C | 3.9% | 73hPa | 2.7V | 08:30:00 | 01:10:47 | 00:00:00 | |
| DO3MHA-11 | 2026-08-31 11:40:29 | 49.15310 | 10.19892 | 31° | 20km/h | 18613m | 6.0m/s | -51.9°C | 3.9% | 72.7hPa | 2.6V | 00:00:00 | 01:10:50 | 00:00:00 | |
| DM0DOS-11 | 2026-08-31 11:40:27 | 49.15290 | 10.19864 | 47° | 20km/h | 18586m | 6.1m/s | -52.1°C | 3.8% | 73.1hPa | 2.6V | 08:30:00 | 01:10:45 | 00:00:00 | |
| BIOWL1-15 | 2026-08-31 11:40:26 | 49.15290 | 10.19864 | 47° | 20km/h | 18586m | 6.1m/s | -52.1°C | 0.4% | 73.1hPa | 2.6V | 18:12:15 | 01:10:45 | 00:00:00 | |
| DK7TD | 2026-08-31 11:40:24 | 49.15286 | 10.19859 | 41° | 20km/h | 18581m | 4.9m/s | 0°C | 0% | 0hPa | 2.6V | 18:12:15 | 01:10:44 | 00:00:00 | |
| HSKMA3-T | 2026-08-31 11:40:21 | 49.15279 | 10.19849 | 40° | 18km/h | 18571m | 6m/s | -52.3°C | 0.5% | 73.2hPa | 2.7V | 18:12:15 | 01:10:42 | 00:00:00 | |
| DL6DJ-15 | 2026-08-31 11:40:21 | 49.15276 | 10.19845 | 41° | 13km/h | 18565m | 5.7m/s | -52.4°C | 1.1% | 73.3hPa | 2.6V | 00:00:00 | 00:00:00 | 00:00:00 | |
| DB0NH | 2026-08-31 11:40:20 | 49.15275 | 10.19845 | 42° | 26km/h | 18565m | 5.7m/s | -52.4°C | 4.0% | 73.3hPa | 2.6V | 00:00:00 | 01:10:41 | 00:00:00 | |
| DL1NUX | 2026-08-31 11:40:19 | 49.15263 | 10.19831 | 34° | 20km/h | 18545m | 4m/s | -52.3°C | 4% | 73.5hPa | 2.6V | 08:30:00 | 01:10:37 | 00:00:00 | |
| DO3MHA-11 | 2026-08-31 11:40:19 | 49.15273 | 10.19842 | 40° | 22km/h | 18560m | 4.3m/s | -52.4°C | 4.0% | 73.3hPa | 2.6V | 00:00:00 | 01:10:40 | 00:00:00 | |
| DF3TZ-5 | 2026-08-31 11:40:18 | 49.15267 | 10.19835 | 31° | 16km/h | 18550m | 4.8m/s | -52.4°C | 1.1% | 73.5hPa | 2.6V | 00:00:00 | 00:00:00 | 00:00:00 | |
| OE5DRO-10 | 2026-08-31 11:40:17 | 49.15267 | 10.19835 | 32° | 26km/h | 18550m | 4.7m/s | -52.4°C | 4.0% | 73.4hPa | 2.6V | 00:00:00 | 00:00:00 | 08:30:00 | |
| DM0DOS-11 | 2026-08-31 11:40:15 | 49.15255 | 10.19821 | 45° | 22km/h | 18535m | 4.9m/s | -52.5°C | 4% | 73.7hPa | 2.7V | 08:30:00 | 01:10:35 | 00:00:00 | |
| DJ8HS-15 | 2026-08-31 11:40:15 | 49.15259 | 10.19827 | 40° | 27km/h | 18541m | 5.6m/s | -52.4°C | 4.0% | 73.6hPa | 2.7V | 00:00:00 | 01:10:36 | 00:00:00 | |
| DC4HF-4 | 2026-08-31 11:40:12 | 49.15246 | 10.19807 | 47° | 27km/h | 18526m | 5.7m/s | -52.5°C | 1.1% | 73.8hPa | 2.7V | 00:00:00 | 00:00:00 | 00:00:00 | |
| DO9HM | 2026-08-31 11:40:11 | 49.15241 | 10.19799 | 46° | 31km/h | 18521m | 5.1m/s | -52.4°C | 1.1% | 73.8hPa | 2.7V | 00:00:00 | 00:00:00 | 00:00:00 | |
| DM0DOS-11 | 2026-08-31 11:40:09 | 49.15208 | 10.19746 | 49° | 27km/h | 18485m | 4.9m/s | -52.3°C | 3.8% | 74.2hPa | 2.7V | 08:30:00 | 01:10:25 | 00:00:00 | |
| DG1MJG | 2026-08-31 11:40:09 | 49.15230 | 10.19782 | 44° | 29km/h | 18511m | 5.8m/s | -52.4°C | 1.1% | 73.9hPa | 2.7V | 00:00:00 | 00:00:00 | 00:00:00 | |
| DL1NUX | 2026-08-31 11:40:06 | 49.15217 | 10.19762 | 47° | 26km/h | 18495m | 6.1m/s | -52.4°C | 3.8% | 74.1hPa | 2.7V | 08:30:00 | 01:10:27 | 00:00:00 | |
| HSKMA3-T | 2026-08-31 11:40:06 | 49.15217 | 10.19762 | 48° | 26km/h | 18495m | 6.1m/s | -52.4°C | 0.4% | 74.1hPa | 2.7V | 18:12:15 | 01:10:27 | 00:00:00 | |
| HSKMA3-T | 2026-08-31 11:39:56 | 49.15168 | 10.19686 | 39° | 26km/h | 18443m | 4.1m/s | -53.3°C | 0.6% | 74.7hPa | 2.7V | 18:12:15 | 01:10:17 | 00:00:00 | |
| DL1NUX | 2026-08-31 11:39:56 | 49.15168 | 10.19686 | 38° | 26km/h | 18443m | 4.1m/s | -53.3°C | 4.2% | 74.7hPa | 2.7V | 08:30:00 | 01:10:17 | 00:00:00 | |
| DM0DOS-11 | 2026-08-31 11:39:55 | 49.15157 | 10.19673 | 40° | 27km/h | 18433m | 5.5m/s | -53.3°C | 4.2% | 74.8hPa | 2.6V | 08:30:00 | 01:10:15 | 00:00:00 | |
| BIOWL9-15 | 2026-08-31 11:39:53 | 49.15136 | 10.19642 | 49° | 20km/h | 18407m | 5.7m/s | -53.3°C | 1.2% | 75.1hPa | 2.6V | 00:00:00 | 00:00:00 | 00:00:00 | |
| DL6DJ-15 | 2026-08-31 11:39:49 | 49.15136 | 10.19642 | 49° | 20km/h | 18407m | 5.7m/s | -53.3°C | 1.2% | 75.1hPa | 2.6V | 00:00:00 | 00:00:00 | 00:00:00 | |
| DM0DOS-11 | 2026-08-31 11:39:49 | 49.15117 | 10.19604 | 49° | 27km/h | 18375m | 5.1m/s | -53.4°C | 4.2% | 75.5hPa | 2.6V | 08:30:00 | 01:10:04 | 00:00:00 | |
| DF7PN | 2026-08-31 11:39:48 | 49.15132 | 10.19636 | 53° | 20km/h | 18401m | 4.9m/s | -53.3°C | 1.2% | 75.2hPa | 2.6V | 00:00:00 | 00:00:00 | 00:00:00 | |
| DF3TZ-5 | 2026-08-31 11:39:47 | 49.15127 | 10.19624 | 54° | 16km/h | 18390m | 4.9m/s | -53.3°C | 1.2% | 75.3hPa | 2.6V | 00:00:00 | 00:00:00 | 00:00:00 | |
| DL1NUX | 2026-08-31 11:39:46 | 49.15127 | 10.19624 | 54° | 18km/h | 18390m | 4.9m/s | -53.3°C | 4.2% | 75.3hPa | 2.6V | 08:30:00 | 01:10:07 | 00:00:00 | |
| HSKMA3-T | 2026-08-31 11:39:45 | 49.15124 | 10.19618 | 54° | 20km/h | 18386m | 4.3m/s | -53.3°C | 0.6% | 75.3hPa | 2.7V | 18:12:15 | 01:10:06 | 00:00:00 | |
| BIOWL1-15 | 2026-08-31 11:39:36 | 49.15081 | 10.19544 | 51° | 31km/h | 18337m | 6.1m/s | -53.3°C | 0.7% | 0hPa | 2.7V | 18:12:15 | 01:09:57 | 00:00:00 | |
| DM0DOS-11 | 2026-08-31 11:39:36 | 49.15073 | 10.19526 | 59° | 26km/h | 18327m | 4m/s | -53.2°C | 4.2% | 76hPa | 2.7V | 08:30:00 | 01:09:55 | 00:00:00 | |
| HSKMA3-T | 2026-08-31 11:39:35 | 49.15077 | 10.19535 | 55° | 27km/h | 18331m | 5.2m/s | -53.3°C | 0.7% | 76hPa | 2.7V | 18:12:15 | 01:09:56 | 00:00:00 | |
| NBG1-10 | 2026-08-31 11:39:35 | 49.15077 | 10.19535 | 55° | 37km/h | 18332m | 5.2m/s | -53.2°C | 4.3% | 76.0hPa | 2.6V | 00:00:00 | 01:09:56 | 00:00:00 | |
| DL9SK-14 | 2026-08-31 11:39:34 | 49.15073 | 10.19526 | 59° | 26km/h | 18327m | 4.0m/s | -53.2°C | 1.2% | 76.0hPa | 2.6V | 00:00:00 | 00:00:00 | 00:00:00 | |
| DF2AP-13 | 2026-08-31 11:39:33 | 49.15070 | 10.19517 | 64° | 37km/h | 18322m | 5.5m/s | -53.2°C | 4.2% | 76.1hPa | 2.6V | 00:00:00 | 01:09:54 | 00:00:00 | |
| SO1NDE-10 | 2026-08-31 11:39:32 | 49.15067 | 10.19507 | 66° | 37km/h | 18317m | 5.4m/s | -53.2°C | 4.2% | 76.1hPa | 2.6V | 00:00:00 | 01:09:53 | 00:00:00 | |
| DO9HM | 2026-08-31 11:39:30 | 49.15063 | 10.19497 | 66° | 33km/h | 18312m | 4.1m/s | -53.2°C | 1.2% | 76.2hPa | 2.6V | 00:00:00 | 00:00:00 | 00:00:00 | |
| DM0DOS-11 | 2026-08-31 11:39:29 | 49.15032 | 10.19425 | 46° | 35km/h | 18276m | 5.4m/s | -53°C | 4.1% | 76.7hPa | 2.6V | 08:30:00 | 01:09:45 | 00:00:00 | |
| BIOWL1-15 | 2026-08-31 11:39:27 | 49.15038 | 10.19435 | 49° | 37km/h | 18281m | 4.6m/s | -53°C | 0.6% | 0hPa | 2.7V | 18:12:15 | 01:09:46 | 00:00:00 | |
| HSKMA3-T | 2026-08-31 11:39:21 | 49.15014 | 10.19397 | 50° | 35km/h | 18261m | 5.2m/s | -53.2°C | 0.6% | 76.8hPa | 2.7V | 18:12:15 | 01:09:42 | 00:00:00 | |
| OE5DRO-10 | 2026-08-31 11:39:20 | 49.15009 | 10.19386 | 55° | 40km/h | 18256m | 5.5m/s | -53.1°C | 4.2% | 76.9hPa | 2.7V | 00:00:00 | 00:00:00 | 00:00:00 | |
| DL6DJ-15 | 2026-08-31 11:39:19 | 49.14999 | 10.19362 | 57° | 37km/h | 18246m | 5.1m/s | -53.2°C | 1.2% | 77.0hPa | 2.7V | 00:00:00 | 00:00:00 | 00:00:00 | |
| DM0DOS-11 | 2026-08-31 11:39:17 | 49.14979 | 10.19321 | 53° | 33km/h | 18225m | 5.9m/s | -53.1°C | 4.2% | 77.3hPa | 2.7V | 08:30:00 | 01:09:35 | 00:00:00 | |
| DL1NUX | 2026-08-31 11:39:16 | 49.14989 | 10.19340 | 53° | 31km/h | 18234m | 4.4m/s | -53.1°C | 4.2% | 77.2hPa | 2.6V | 08:30:00 | 01:09:37 | 00:00:00 | |
| HSKMA3-T | 2026-08-31 11:39:11 | 49.14961 | 10.19286 | 51° | 40km/h | 18210m | 5.4m/s | -53°C | 0.6% | 77.5hPa | 2.6V | 18:12:15 | 01:09:32 | 00:00:00 | |
| BIOWL1-15 | 2026-08-31 11:39:10 | 49.14941 | 10.19251 | 49° | 42km/h | 18194m | 5.1m/s | -53°C | 0.6% | 0hPa | 2.7V | 18:12:15 | 01:09:29 | 00:00:00 | |
| DB0UT-7 | 2026-08-31 11:39:09 | 49.14948 | 10.19262 | 49° | 42km/h | 18200m | 4.9m/s | -52.9°C | 4.0% | 77.5hPa | 2.7V | 00:00:00 | 01:09:30 | 08:30:00 | |
| DN1GJH-1 | 2026-08-31 11:39:08 | 49.14948 | 10.19262 | 49° | 40km/h | 18200m | 4.9m/s | -52.9°C | 1.2% | 77.6hPa | 2.6V | 00:00:00 | 00:00:00 | 00:00:00 | |
| DL1NUX | 2026-08-31 11:39:06 | 49.14927 | 10.19224 | 49° | 47km/h | 18183m | 4.8m/s | -52.9°C | 4.1% | 77.8hPa | 2.6V | 08:30:00 | 01:09:27 | 00:00:00 | |
| DM0DOS-11 | 2026-08-31 11:39:06 | 49.14911 | 10.19197 | 45° | 46km/h | 18173m | 5.1m/s | -52.9°C | 4.1% | 77.9hPa | 2.7V | 08:30:00 | 01:09:25 | 00:00:00 | |
| HSKMA3-T | 2026-08-31 11:39:01 | 49.14877 | 10.19147 | 44° | 44km/h | 18153m | 4.5m/s | -53°C | 0.7% | 78.2hPa | 2.6V | 18:12:15 | 01:09:21 | 00:00:00 | |
| AZAK | 2026-08-31 11:39:01 | 49.14885 | 10.19159 | 46° | 47km/h | 18158m | 5.0m/s | -52.9°C | 1.2% | 78.1hPa | 2.6V | 00:00:00 | 00:00:00 | 00:00:00 | |
| DL1NUX | 2026-08-31 11:39:00 | 49.14841 | 10.19090 | 49° | 44km/h | 18128m | 4.5m/s | -53.2°C | 4.2% | 78.4hPa | 2.6V | 08:30:00 | 01:09:16 | 00:00:00 | |
| BIOWL1-15 | 2026-08-31 11:38:56 | 49.14848 | 10.19103 | 50° | 42km/h | 18133m | 5.4m/s | -53.1°C | 0.5% | 0hPa | 2.6V | 18:12:15 | 01:09:17 | 00:00:00 | |
| HSKMA3-T | 2026-08-31 11:38:50 | 49.14799 | 10.19028 | 44° | 46km/h | 18103m | 4.2m/s | -53.2°C | 0.7% | 78.8hPa | 2.6V | 18:12:15 | 01:09:11 | 00:00:00 | |
| DL6DJ-15 | 2026-08-31 11:38:47 | 49.14776 | 10.18997 | 35° | 35km/h | 18087m | 4.8m/s | -52.9°C | 1.2% | 79.0hPa | 2.6V | 00:00:00 | 00:00:00 | 00:00:00 | |
| DF7PN | 2026-08-31 11:38:46 | 49.14769 | 10.18990 | 34° | 31km/h | 18082m | 4.9m/s | -53.0°C | 1.2% | 79.0hPa | 2.6V | 00:00:00 | 00:00:00 | 00:00:00 | |
| HSKMA3-T | 2026-08-31 11:38:40 | 49.14722 | 10.18929 | 49° | 40km/h | 18047m | 4.8m/s | -52.8°C | 0.6% | 79.4hPa | 2.6V | 18:12:15 | 01:09:00 | 00:00:00 | |
| DM0DOS-11 | 2026-08-31 11:38:40 | 49.14686 | 10.18869 | 46° | 26km/h | 18019m | 5.8m/s | -52.7°C | 4.1% | 79.8hPa | 2.6V | 08:30:00 | 01:08:54 | 00:00:00 | |
| DO3MHA-11 | 2026-08-31 11:38:39 | 49.14722 | 10.18929 | 50° | 31km/h | 18047m | 4.7m/s | -52.8°C | 4.1% | 79.4hPa | 2.6V | 00:00:00 | 01:09:00 | 00:00:00 | |
| DB0UT-7 | 2026-08-31 11:38:38 | 49.14716 | 10.18918 | 52° | 31km/h | 18043m | 3.6m/s | -52.8°C | 4.1% | 79.4hPa | 2.7V | 00:00:00 | 00:00:00 | 00:00:00 | |
| DG1MJG | 2026-08-31 11:38:37 | 49.14716 | 10.18918 | 53° | 40km/h | 18043m | 3.7m/s | -52.8°C | 1.2% | 79.5hPa | 2.7V | 00:00:00 | 00:00:00 | 00:00:00 | |
| AZAK | 2026-08-31 11:38:36 | 49.14709 | 10.18906 | 51° | 40km/h | 18038m | 5.3m/s | -52.7°C | 1.2% | 79.6hPa | 2.7V | 00:00:00 | 00:00:00 | 00:00:00 | |
| DB0ND-19 | 2026-08-31 11:38:35 | 49.14686 | 10.18869 | 46° | 26km/h | 18019m | 5.8m/s | -52.7°C | 1.2% | 79.8hPa | 2.7V | 00:00:00 | 00:00:00 | 00:00:00 | |
| DF2AP-13 | 2026-08-31 11:38:34 | 49.14686 | 10.18869 | 47° | 33km/h | 18019m | 5.8m/s | -52.7°C | 4.1% | 79.8hPa | 2.7V | 00:00:00 | 01:08:54 | 00:00:00 | |
| OE5WHR-10 | 2026-08-31 11:38:32 | 49.14682 | 10.18862 | 53° | 31km/h | 18014m | 4.7m/s | 0°C | 0% | 0hPa | 2.7V | 00:00:00 | 00:00:00 | 00:00:00 | |
| DL0LBS | 2026-08-31 11:38:31 | 49.14682 | 10.18862 | 54° | 22km/h | 18014m | 4.7m/s | -52.6°C | 1.2% | 79.8hPa | 2.7V | 00:00:00 | 00:00:00 | 00:00:00 | |
| DL1NUX | 2026-08-31 11:38:29 | 49.14667 | 10.18834 | 50° | 29km/h | 17995m | 3.7m/s | -52.6°C | 4% | 80.1hPa | 2.7V | 08:30:00 | 01:08:49 | 00:00:00 | |
| HSKMA3-T | 2026-08-31 11:38:29 | 49.14671 | 10.18842 | 48° | 26km/h | 17999m | 4.8m/s | -52.6°C | 0.6% | 80.1hPa | 2.7V | 18:12:15 | 01:08:50 | 00:00:00 | |
| DO9HM | 2026-08-31 11:38:29 | 49.14671 | 10.18842 | 49° | 26km/h | 18000m | 4.8m/s | -52.6°C | 1.2% | 80.1hPa | 2.7V | 00:00:00 | 00:00:00 | 00:00:00 | |
| DM0DOS-11 | 2026-08-31 11:38:28 | 49.14641 | 10.18774 | 54° | 42km/h | 17971m | 5.6m/s | -52.8°C | 4.1% | 80.4hPa | 2.7V | 08:30:00 | 01:08:44 | 00:00:00 | |
| BIOWL1-15 | 2026-08-31 11:38:25 | 49.14641 | 10.18774 | 55° | 42km/h | 17971m | 5.6m/s | -52.8°C | 0.6% | 0hPa | 2.7V | 18:12:15 | 01:08:44 | 00:00:00 | |
| DO3MHA-12 | 2026-08-31 11:38:25 | 49.14652 | 10.18801 | 61° | 31km/h | 17981m | 4.2m/s | -52.5°C | 4.1% | 80.2hPa | 2.7V | 00:00:00 | 01:08:46 | 00:00:00 | |
| OE5DXL-15 | 2026-08-31 11:38:24 | 49.14647 | 10.18788 | 59° | 37km/h | 17976m | 4.6m/s | -52.6°C | 4.1% | 80.3hPa | 2.7V | 00:00:00 | 00:00:00 | 00:00:00 | |
| OE5DRO-10 | 2026-08-31 11:38:23 | 49.14641 | 10.18774 | 55° | 33km/h | 17971m | 5.6m/s | -52.7°C | 4.1% | 80.3hPa | 2.7V | 00:00:00 | 00:00:00 | 00:00:00 | |
| DG9SBQ-11 | 2026-08-31 11:38:21 | 49.14629 | 10.18751 | 53° | 35km/h | 17962m | 4.4m/s | -52.8°C | 1.2% | 80.5hPa | 2.8V | 00:00:00 | 00:00:00 | 00:00:00 | |
| BIOWL9-15 | 2026-08-31 11:38:20 | 49.14621 | 10.18731 | 66° | 26km/h | 17952m | 4.9m/s | -52.7°C | 1.1% | 80.7hPa | 2.8V | 00:00:00 | 00:00:00 | 00:00:00 | |
| DO3MHA-11 | 2026-08-31 11:38:19 | 49.14621 | 10.18731 | 67° | 29km/h | 17952m | 4.9m/s | -52.7°C | 4.0% | 80.6hPa | 2.8V | 00:00:00 | 01:08:40 | 00:00:00 | |
| DL6DJ-15 | 2026-08-31 11:38:17 | 49.14616 | 10.18706 | 73° | 22km/h | 17938m | 4.4m/s | -52.9°C | 1.1% | 80.8hPa | 2.8V | 00:00:00 | 00:00:00 | 00:00:00 | |
| DM0DOS-11 | 2026-08-31 11:38:15 | 49.14609 | 10.18675 | 69° | 35km/h | 17925m | 5m/s | -52.8°C | 4% | 81hPa | 2.8V | 08:30:00 | 01:08:34 | 00:00:00 | |
| HSKMA3-T | 2026-08-31 11:38:14 | 49.14612 | 10.18687 | 70° | 31km/h | 17930m | 5m/s | -52.8°C | 0.5% | 80.9hPa | 2.6V | 18:12:15 | 01:08:35 | 00:00:00 | |
| BIOWL1-15 | 2026-08-31 11:38:13 | 49.14592 | 10.18623 | 58° | 37km/h | 17906m | 4.4m/s | -53.4°C | 0.7% | 0hPa | 2.6V | 18:12:15 | 01:08:30 | 00:00:00 | |
| SONDE2-11 | 2026-08-31 11:38:12 | 49.14601 | 10.18648 | 62° | 38km/h | 17916m | 5.4m/s | -53.1°C | 1.2% | 81.1hPa | 2.6V | 00:00:00 | 00:00:00 | 00:00:00 | |
| OE5WHR-10 | 2026-08-31 11:38:11 | 49.14601 | 10.18648 | 63° | 40km/h | 17916m | 5.3m/s | 0°C | 0% | 0hPa | 2.6V | 00:00:00 | 01:08:32 | 00:00:00 | |
| DH7VM-15 | 2026-08-31 11:38:10 | 49.14601 | 10.18648 | 64° | 38km/h | 17916m | 5.4m/s | -53.1°C | 1.2% | 81.1hPa | 2.6V | 00:00:00 | 00:00:00 | 00:00:00 | |
| DO3MHA-11 | 2026-08-31 11:38:09 | 49.14592 | 10.18623 | 59° | 38km/h | 17906m | 4.4m/s | -53.3°C | 4.3% | 81.2hPa | 2.6V | 00:00:00 | 01:08:30 | 00:00:00 | |
| DN1GJH-1 | 2026-08-31 11:38:08 | 49.14587 | 10.18611 | 63° | 37km/h | 17901m | 5.1m/s | -53.3°C | 1.3% | 81.3hPa | 2.8V | 00:00:00 | 00:00:00 | 00:00:00 | |
| DG1MJG | 2026-08-31 11:38:06 | 49.14584 | 10.18598 | 70° | 35km/h | 17896m | 5.0m/s | -53.2°C | 1.2% | 81.3hPa | 2.8V | 00:00:00 | 00:00:00 | 00:00:00 | |
| DM0DOS-11 | 2026-08-31 11:38:04 | 49.14573 | 10.18545 | 70° | 38km/h | 17877m | 4.1m/s | -53.1°C | 4.3% | 81.6hPa | 2.8V | 08:30:00 | 01:08:24 | 00:00:00 | |
| DL1NUX | 2026-08-31 11:38:03 | 49.14556 | 10.18465 | 68° | 44km/h | 17855m | 5.4m/s | -53°C | 4.2% | 81.8hPa | 2.8V | 08:30:00 | 01:08:19 | 00:00:00 | |
| HSKMA3-T | 2026-08-31 11:38:03 | 49.14573 | 10.18545 | 71° | 40km/h | 17877m | 4.1m/s | -53.1°C | 0.7% | 81.6hPa | 2.8V | 18:12:15 | 01:08:24 | 00:00:00 | |
| DF2AP-13 | 2026-08-31 11:38:03 | 49.14573 | 10.18545 | 71° | 37km/h | 17877m | 4.0m/s | -53.0°C | 4.3% | 81.5hPa | 2.7V | 00:00:00 | 01:08:24 | 00:00:00 | |
| DL1ZP-14 | 2026-08-31 11:38:02 | 49.14569 | 10.18530 | 71° | 42km/h | 17873m | 4.9m/s | -53.1°C | 1.2% | 81.6hPa | 2.7V | 00:00:00 | 00:00:00 | 00:00:00 | |
| DL9SK-14 | 2026-08-31 11:38:01 | 49.14563 | 10.18498 | 74° | 44km/h | 17863m | 3.8m/s | -52.9°C | 1.2% | 81.8hPa | 2.6V | 00:00:00 | 00:00:00 | 00:00:00 | |
| DO3MHA-11 | 2026-08-31 11:37:59 | 49.14560 | 10.18481 | 73° | 38km/h | 17860m | 3.4m/s | -52.9°C | 4.1% | 81.8hPa | 2.6V | 00:00:00 | 01:08:20 | 00:00:00 | |
| DM0DOS-11 | 2026-08-31 11:37:58 | 49.14534 | 10.18395 | 66° | 37km/h | 17832m | 4.3m/s | -52.7°C | 0% | 82.2hPa | 2.6V | 08:30:00 | 01:08:14 | 00:00:00 | |
| HSKMA3-T | 2026-08-31 11:37:53 | 49.14533 | 10.18395 | 67° | 37km/h | 17832m | 4.3m/s | -52.7°C | 0.5% | 82.2hPa | 2.6V | 18:12:15 | 01:08:14 | 00:00:00 | |
| BIOWL1-15 | 2026-08-31 11:37:49 | 49.14515 | 10.18305 | 74° | 37km/h | 17799m | 5.8m/s | -52.7°C | 0.5% | 0hPa | 2.6V | 18:12:15 | 01:08:07 | 00:00:00 | |
| DL1NUX | 2026-08-31 11:37:49 | 49.14520 | 10.18333 | 79° | 37km/h | 17808m | 4.7m/s | -52.7°C | 4% | 82.4hPa | 2.8V | 08:30:00 | 01:08:09 | 00:00:00 | |
| DC4HF-4 | 2026-08-31 11:37:48 | 49.14518 | 10.18319 | 78° | 37km/h | 17804m | 3.8m/s | -52.6°C | 1.1% | 82.5hPa | 2.8V | 00:00:00 | 00:00:00 | 00:00:00 | |
| DN1GJH-1 | 2026-08-31 11:37:46 | 49.14518 | 10.18319 | 79° | 37km/h | 17804m | 3.8m/s | -52.6°C | 1.2% | 82.5hPa | 2.8V | 00:00:00 | 00:00:00 | 00:00:00 | |
| DM0DOS-11 | 2026-08-31 11:37:45 | 49.14505 | 10.18265 | 65° | 38km/h | 17785m | 5.5m/s | -52.7°C | 0% | 82.7hPa | 2.8V | 08:30:00 | 01:08:04 | 00:00:00 | |
| DO3MHA-12 | 2026-08-31 11:37:45 | 49.14512 | 10.18292 | 69° | 35km/h | 17794m | 4.3m/s | -52.6°C | 3.9% | 82.6hPa | 2.6V | 00:00:00 | 01:08:06 | 00:00:00 | |
| DF7PN | 2026-08-31 11:37:44 | 49.14509 | 10.18279 | 65° | 37km/h | 17790m | 3.9m/s | -52.6°C | 1.2% | 82.7hPa | 2.6V | 00:00:00 | 00:00:00 | 00:00:00 | |
| DL1NUX | 2026-08-31 11:37:43 | 49.14486 | 10.18203 | 61° | 31km/h | 17761m | 3.9m/s | -53°C | 4.1% | 83hPa | 2.6V | 08:30:00 | 01:07:59 | 00:00:00 | |
| HSKMA3-T | 2026-08-31 11:37:42 | 49.14501 | 10.18252 | 68° | 38km/h | 17780m | 4.4m/s | -52.6°C | 0.5% | 82.8hPa | 2.8V | 18:12:15 | 01:08:03 | 00:00:00 | |
| BIOWL1-15 | 2026-08-31 11:37:37 | 49.14482 | 10.18192 | 66° | 31km/h | 17757m | 5.1m/s | -53°C | 0.6% | 0hPa | 2.8V | 18:12:15 | 01:07:58 | 00:00:00 | |
| DM0DOS-11 | 2026-08-31 11:37:35 | 49.14474 | 10.18149 | 74° | 27km/h | 17738m | 4.5m/s | -52.9°C | 0% | 83.3hPa | 2.7V | 00:00:00 | 01:07:54 | 00:00:00 | |
| HSKMA3-T | 2026-08-31 11:37:32 | 49.14472 | 10.18139 | 74° | 27km/h | 17734m | 3.6m/s | -52.9°C | 0.5% | 83.4hPa | 2.7V | 18:12:15 | 01:07:53 | 00:00:00 | |
| DB0UT-7 | 2026-08-31 11:37:32 | 49.14472 | 10.18139 | 74° | 27km/h | 17734m | 3.5m/s | -52.9°C | 4.0% | 83.4hPa | 2.7V | 00:00:00 | 00:00:00 | 00:00:00 | |
| DL1ZP-14 | 2026-08-31 11:37:31 | 49.14470 | 10.18129 | 74° | 29km/h | 17729m | 5.0m/s | -53.1°C | 1.2% | 83.5hPa | 2.6V | 00:00:00 | 00:00:00 | 00:00:00 | |
| DL1NUX | 2026-08-31 11:37:29 | 49.14461 | 10.18091 | 63° | 37km/h | 17716m | 5m/s | -53.2°C | 4.2% | 83.6hPa | 2.8V | 08:30:00 | 01:07:49 | 00:00:00 | |
| DO3MHA-11 | 2026-08-31 11:37:29 | 49.14465 | 10.18104 | 69° | 29km/h | 17721m | 3.9m/s | -53.2°C | 4.2% | 83.5hPa | 2.6V | 00:00:00 | 01:07:50 | 00:00:00 | |
| SO1NDE-10 | 2026-08-31 11:37:28 | 49.14461 | 10.18091 | 64° | 29km/h | 17716m | 4.9m/s | -53.1°C | 4.2% | 83.6hPa | 2.6V | 00:00:00 | 01:07:49 | 00:00:00 | |
| DK5PH-5 | 2026-08-31 11:37:26 | 49.14452 | 10.18068 | 56° | 29km/h | 17706m | 5.0m/s | -53.2°C | 4.1% | 83.7hPa | 2.6V | 00:00:00 | 01:07:47 | 00:00:00 | |
| DN1GJH-1 | 2026-08-31 11:37:25 | 49.14452 | 10.18068 | 56° | 31km/h | 17706m | 5.0m/s | -53.2°C | 1.2% | 83.7hPa | 2.6V | 00:00:00 | 00:00:00 | 00:00:00 | |
| DM0DOS-11 | 2026-08-31 11:37:24 | 49.14441 | 10.18043 | 58° | 24km/h | 17692m | 4.3m/s | -53.1°C | 0% | 0hPa | 2.6V | 00:00:00 | 01:07:44 | 00:00:00 | |
| OE5DXL-15 | 2026-08-31 11:37:24 | 49.14444 | 10.18050 | 60° | 29km/h | 17696m | 4.2m/s | -53.2°C | 4.2% | 83.8hPa | 2.6V | 00:00:00 | 00:00:00 | 00:00:00 | |
| DL1NUX | 2026-08-31 11:37:23 | 49.14422 | 10.18002 | 58° | 29km/h | 17667m | 4.4m/s | -53.3°C | 4.2% | 84.2hPa | 2.6V | 08:30:00 | 01:07:39 | 00:00:00 | |
| HSKMA3-T | 2026-08-31 11:37:21 | 49.14434 | 10.18028 | 50° | 26km/h | 17681m | 4.8m/s | -53.1°C | 0.6% | 84.1hPa | 2.8V | 18:12:15 | 01:07:42 | 00:00:00 | |
| DB0NH | 2026-08-31 11:37:20 | 49.14430 | 10.18020 | 53° | 31km/h | 17677m | 4.1m/s | -53.1°C | 4.1% | 84.1hPa | 2.6V | 00:00:00 | 01:07:41 | 00:00:00 | |
| DO3MHA-11 | 2026-08-31 11:37:19 | 49.14426 | 10.18012 | 57° | 29km/h | 17672m | 5.5m/s | -53.2°C | 4.1% | 84.1hPa | 2.6V | 00:00:00 | 01:07:40 | 00:00:00 | |
| DM0DOS-11 | 2026-08-31 11:37:14 | 49.14400 | 10.17951 | 60° | 27km/h | 17645m | 4.8m/s | -53.2°C | 0% | 0hPa | 2.6V | 00:00:00 | 01:07:34 | 00:00:00 | |
| BIOWL1-15 | 2026-08-31 11:37:12 | 49.14391 | 10.17927 | 57° | 22km/h | 17632m | 4.4m/s | -53.4°C | 0.6% | 0hPa | 2.6V | 18:12:15 | 01:07:31 | 00:00:00 | |
| HSKMA3-T | 2026-08-31 11:37:11 | 49.14394 | 10.17934 | 62° | 22km/h | 17637m | 4.2m/s | -53.4°C | 0.6% | 84.7hPa | 2.7V | 18:12:15 | 01:07:32 | 00:00:00 | |
| DL1NUX | 2026-08-31 11:37:09 | 49.14385 | 10.17912 | 56° | 26km/h | 17624m | 4.2m/s | -53.4°C | 4.2% | 84.8hPa | 2.6V | 08:30:00 | 01:07:29 | 00:00:00 | |
| DM0DOS-11 | 2026-08-31 11:37:09 | 49.14366 | 10.17867 | 53° | 31km/h | 17602m | 3.6m/s | -53.3°C | 0% | 0hPa | 2.6V | 00:00:00 | 01:07:24 | 00:00:00 | |
| DO3MHA-12 | 2026-08-31 11:37:05 | 49.14374 | 10.17885 | 59° | 31km/h | 17611m | 5.1m/s | -53.3°C | 4.2% | 84.9hPa | 2.6V | 00:00:00 | 01:07:26 | 00:00:00 | |
| DN1GJH-1 | 2026-08-31 11:37:04 | 49.14374 | 10.17885 | 59° | 27km/h | 17611m | 5.1m/s | -53.4°C | 1.2% | 85.0hPa | 2.6V | 00:00:00 | 00:00:00 | 00:00:00 | |
| DF2AP-13 | 2026-08-31 11:37:03 | 49.14366 | 10.17867 | 54° | 37km/h | 17602m | 3.5m/s | -53.3°C | 4.2% | 85.1hPa | 2.6V | 00:00:00 | 01:07:24 | 00:00:00 | |
| DL1NUX | 2026-08-31 11:37:02 | 49.14344 | 10.17815 | 58° | 31km/h | 17578m | 3.9m/s | -53.5°C | 4.2% | 85.4hPa | 2.6V | 08:30:00 | 01:07:19 | 00:00:00 | |
| HSKMA3-T | 2026-08-31 11:37:01 | 49.14357 | 10.17847 | 60° | 33km/h | 17593m | 4.7m/s | -53.3°C | 0.6% | 85.2hPa | 2.8V | 18:12:15 | 01:07:22 | 00:00:00 | |
| DB0ND-19 | 2026-08-31 11:37:01 | 49.14353 | 10.17836 | 59° | 31km/h | 17588m | 4.7m/s | -53.4°C | 1.2% | 85.3hPa | 2.8V | 00:00:00 | 00:00:00 | 00:00:00 | |
| DL1ZP-14 | 2026-08-31 11:37:00 | 49.14353 | 10.17836 | 59° | 31km/h | 17588m | 4.7m/s | -53.4°C | 1.2% | 85.3hPa | 2.8V | 00:00:00 | 00:00:00 | 00:00:00 | |
| BIOWL1-15 | 2026-08-31 11:37:00 | 49.14340 | 10.17804 | 63° | 31km/h | 17574m | 5.4m/s | -53.5°C | 0.7% | 0hPa | 2.8V | 18:12:15 | 01:07:18 | 00:00:00 | |
| DO3MHA-11 | 2026-08-31 11:36:59 | 49.14349 | 10.17825 | 58° | 35km/h | 17583m | 5.3m/s | -53.4°C | 4.2% | 85.3hPa | 2.7V | 00:00:00 | 01:07:20 | 00:00:00 | |
| SO1NDE-10 | 2026-08-31 11:36:58 | 49.14344 | 10.17815 | 59° | 37km/h | 17579m | 3.8m/s | -53.4°C | 4.2% | 85.4hPa | 2.7V | 00:00:00 | 01:07:19 | 00:00:00 | |
| DH7VM-15 | 2026-08-31 11:36:57 | 49.14340 | 10.17804 | 64° | 31km/h | 17574m | 5.4m/s | -53.5°C | 1.2% | 85.5hPa | 2.7V | 00:00:00 | 00:00:00 | 00:00:00 | |
| DK5PH-5 | 2026-08-31 11:36:56 | 49.14337 | 10.17793 | 68° | 38km/h | 17569m | 4.5m/s | -53.4°C | 4.3% | 85.5hPa | 2.7V | 00:00:00 | 01:07:17 | 08:30:00 | |
| DM0DOS-11 | 2026-08-31 11:36:55 | 49.14326 | 10.17758 | 57° | 35km/h | 17555m | 4.4m/s | 0°C | 0% | 0hPa | 2.8V | 00:00:00 | 01:07:14 | 00:00:00 | |
| HSKMA3-T | 2026-08-31 11:36:50 | 49.14310 | 10.17722 | 58° | 38km/h | 17541m | 4.7m/s | -53.4°C | 0.7% | 86hPa | 2.6V | 18:12:15 | 01:07:11 | 00:00:00 | |
| BIOWL1-15 | 2026-08-31 11:36:46 | 49.14282 | 10.17669 | 47° | 35km/h | 17517m | 5.2m/s | -53.5°C | 0.7% | 0hPa | 2.6V | 18:12:15 | 01:07:06 | 00:00:00 | |
| DO9HM | 2026-08-31 11:36:45 | 49.14288 | 10.17679 | 46° | 35km/h | 17522m | 4.5m/s | -53.4°C | 1.3% | 86.2hPa | 2.6V | 00:00:00 | 00:00:00 | 00:00:00 | |
| DM0DOS-11 | 2026-08-31 11:36:44 | 49.14269 | 10.17648 | 44° | 38km/h | 17508m | 5.6m/s | 0°C | 0% | 0hPa | 2.6V | 00:00:00 | 01:07:04 | 00:00:00 | |
| DL1NUX | 2026-08-31 11:36:43 | 49.14234 | 10.17585 | 54° | 44km/h | 17485m | 4.7m/s | -53.3°C | 4.4% | 86.7hPa | 2.8V | 08:30:00 | 01:06:59 | 00:00:00 | |
| HSKMA3-T | 2026-08-31 11:36:40 | 49.14247 | 10.17613 | 52° | 44km/h | 17493m | 4.8m/s | -53.4°C | 0.7% | 86.6hPa | 2.6V | 18:12:15 | 01:07:01 | 00:00:00 | |
| BIOWL1-15 | 2026-08-31 11:36:36 | 49.14201 | 10.17529 | 41° | 35km/h | 17462m | 4.1m/s | -53.2°C | 0.7% | 0hPa | 2.8V | 18:12:15 | 01:06:54 | 00:00:00 | |
| DM0DOS-11 | 2026-08-31 11:36:35 | 49.14179 | 10.17506 | 32° | 37km/h | 17448m | 4.7m/s | 0°C | 0% | 0hPa | 2.6V | 00:00:00 | 01:06:51 | 00:00:00 | |
| DO3MHA-12 | 2026-08-31 11:36:35 | 49.14214 | 10.17549 | 49° | 37km/h | 17471m | 5.5m/s | -53.3°C | 4.4% | 86.8hPa | 2.7V | 00:00:00 | 01:06:56 | 00:00:00 | |
| DF2AP-13 | 2026-08-31 11:36:33 | 49.14201 | 10.17529 | 41° | 35km/h | 17462m | 4.1m/s | -53.2°C | 4.3% | 87.0hPa | 2.7V | 00:00:00 | 01:06:54 | 08:30:00 | |
| AZAK | 2026-08-31 11:36:31 | 49.14187 | 10.17513 | 32° | 35km/h | 17453m | 3.8m/s | -53.3°C | 1.3% | 87.1hPa | 2.6V | 00:00:00 | 00:00:00 | 00:00:00 | |
| DL1NUX | 2026-08-31 11:36:29 | 49.14164 | 10.17488 | 41° | 38km/h | 17439m | 4.7m/s | -53.1°C | 4.2% | 87.3hPa | 2.6V | 08:30:00 | 01:06:49 | 00:00:00 | |
| HSKMA3-T | 2026-08-31 11:36:29 | 49.14171 | 10.17498 | 37° | 38km/h | 17443m | 4.6m/s | -53.2°C | 0.7% | 87.3hPa | 2.6V | 18:12:15 | 01:06:50 | 00:00:00 | |
| DK7TD | 2026-08-31 11:36:25 | 49.14143 | 10.17458 | 46° | 38km/h | 17423m | 4.8m/s | 0°C | 0% | 0hPa | 2.6V | 18:12:15 | 01:06:46 | 00:00:00 | |
| DO9HM | 2026-08-31 11:36:25 | 49.14143 | 10.17458 | 47° | 38km/h | 17423m | 4.8m/s | -53.0°C | 1.2% | 87.5hPa | 2.6V | 00:00:00 | 00:00:00 | 00:00:00 | |
| OE5DXL-15 | 2026-08-31 11:36:24 | 49.14136 | 10.17447 | 50° | 33km/h | 17418m | 5.8m/s | -52.8°C | 4.1% | 87.6hPa | 2.6V | 00:00:00 | 00:00:00 | 00:00:00 | |
| DM0DOS-11 | 2026-08-31 11:36:23 | 49.14112 | 10.17404 | 44° | 29km/h | 17398m | 4.3m/s | 0°C | 0% | 0hPa | 2.6V | 00:00:00 | 01:06:41 | 00:00:00 | |
| BIOWL1-15 | 2026-08-31 11:36:23 | 49.14118 | 10.17413 | 48° | 35km/h | 17403m | 6.2m/s | -52.7°C | 0.6% | 0hPa | 2.6V | 18:12:15 | 01:06:42 | 00:00:00 | |
| DL1NUX | 2026-08-31 11:36:23 | 49.14103 | 10.17390 | 46° | 24km/h | 17390m | 5m/s | -52.6°C | 4.1% | 88hPa | 2.8V | 08:30:00 | 01:06:39 | 00:00:00 | |
| HSKMA3-T | 2026-08-31 11:36:18 | 49.14103 | 10.17390 | 47° | 26km/h | 17390m | 5m/s | -52.6°C | 0.6% | 88hPa | 2.8V | 18:12:15 | 01:06:39 | 00:00:00 | |
| NBG1-10 | 2026-08-31 11:36:17 | 49.14099 | 10.17383 | 50° | 33km/h | 17385m | 4.5m/s | -52.5°C | 4.2% | 88.0hPa | 2.6V | 00:00:00 | 01:06:38 | 00:00:00 | |
| DO3MHA-12 | 2026-08-31 11:36:15 | 49.14091 | 10.17368 | 50° | 37km/h | 17377m | 4.9m/s | -52.4°C | 4.2% | 88.1hPa | 2.6V | 00:00:00 | 01:06:36 | 00:00:00 | |
| OE5DRO-10 | 2026-08-31 11:36:14 | 49.14086 | 10.17360 | 51° | 35km/h | 17372m | 4.3m/s | -52.3°C | 4.1% | 88.2hPa | 2.6V | 00:00:00 | 00:00:00 | 00:00:00 | |
| DM0DOS-11 | 2026-08-31 11:36:13 | 49.14066 | 10.17315 | 53° | 42km/h | 17353m | 5.7m/s | 0°C | 0% | 0hPa | 2.6V | 00:00:00 | 01:06:31 | 00:00:00 | |
| DK7TD | 2026-08-31 11:36:10 | 49.14066 | 10.17315 | 54° | 42km/h | 17353m | 5.7m/s | 0°C | 0% | 0hPa | 2.6V | 18:12:15 | 01:06:31 | 00:00:00 | |
| DL1NUX | 2026-08-31 11:36:09 | 49.14053 | 10.17290 | 46° | 42km/h | 17343m | 4.4m/s | -52.3°C | 4% | 88.6hPa | 2.8V | 08:30:00 | 01:06:29 | 00:00:00 | |
| HSKMA3-T | 2026-08-31 11:36:07 | 49.14045 | 10.17278 | 47° | 40km/h | 17338m | 5.9m/s | -52.3°C | 0.4% | 88.7hPa | 2.8V | 18:12:15 | 01:06:28 | 00:00:00 | |
| DO3MHA-12 | 2026-08-31 11:36:05 | 49.14033 | 10.17257 | 48° | 31km/h | 17329m | 4.7m/s | -52.2°C | 3.8% | 88.8hPa | 2.8V | 00:00:00 | 01:06:26 | 00:00:00 | |
| DG1MJG | 2026-08-31 11:36:04 | 49.14033 | 10.17257 | 48° | 33km/h | 17329m | 4.7m/s | -52.2°C | 1.1% | 88.8hPa | 2.8V | 00:00:00 | 00:00:00 | 00:00:00 | |
| DL1NUX | 2026-08-31 11:36:03 | 49.14002 | 10.17195 | 59° | 33km/h | 17295m | 5.3m/s | -52.3°C | 4.1% | 89.3hPa | 2.8V | 08:30:00 | 01:06:19 | 00:00:00 | |
| DM0DOS-11 | 2026-08-31 11:36:03 | 49.14006 | 10.17206 | 63° | 29km/h | 17300m | 3.8m/s | 0°C | 0% | 0hPa | 2.8V | 00:00:00 | 01:06:20 | 00:00:00 | |
| DK7TD | 2026-08-31 11:35:57 | 49.13997 | 10.17184 | 54° | 37km/h | 17290m | 4.8m/s | 0°C | 0% | 0hPa | 2.7V | 18:12:15 | 01:06:18 | 00:00:00 | |
| HSKMA3-T | 2026-08-31 11:35:56 | 49.13992 | 10.17173 | 51° | 38km/h | 17286m | 4.1m/s | -52.4°C | 0.6% | 89.4hPa | 2.6V | 18:12:15 | 01:06:17 | 00:00:00 | |
| HSKMA3-T | 2026-08-31 11:35:46 | 49.13935 | 10.17067 | 72° | 26km/h | 17237m | 4.9m/s | -52.6°C | 0.5% | 90.1hPa | 2.8V | 18:12:15 | 01:06:07 | 00:00:00 | |
| BIOWL1-15 | 2026-08-31 11:35:45 | 49.13910 | 10.16970 | 67° | 44km/h | 17200m | 5.2m/s | 0°C | 0% | 0hPa | 2.6V | 18:12:15 | 01:06:00 | 00:00:00 | |
| DK7TD | 2026-08-31 11:35:42 | 49.13923 | 10.17016 | 67° | 42km/h | 17218m | 6.1m/s | 0°C | 0% | 0hPa | 2.8V | 18:12:15 | 01:06:03 | 00:00:00 | |
| HSKMA3-T | 2026-08-31 11:35:35 | 49.13890 | 10.16906 | 68° | 44km/h | 17178m | 5.9m/s | -52.6°C | 0.4% | 90.9hPa | 2.6V | 18:12:15 | 01:05:56 | 00:00:00 | |
| BIOWL1-15 | 2026-08-31 11:35:34 | 49.13884 | 10.16876 | 76° | 37km/h | 17168m | 3.5m/s | 0°C | 0% | 0hPa | 2.7V | 18:12:15 | 01:05:54 | 00:00:00 | |
| DK7TD | 2026-08-31 11:35:32 | 49.13882 | 10.16863 | 76° | 37km/h | 17165m | 4.3m/s | 0°C | 0% | 0hPa | 2.8V | 18:12:15 | 01:05:53 | 00:00:00 | |
| BIOWL1-15 | 2026-08-31 11:35:25 | 49.13854 | 10.16714 | 71° | 53km/h | 17124m | 4.4m/s | 0°C | 0% | 0hPa | 2.6V | 18:12:15 | 01:05:44 | 00:00:00 | |
| HSKMA3-T | 2026-08-31 11:35:25 | 49.13862 | 10.16752 | 74° | 51km/h | 17133m | 5.5m/s | -53.5°C | 0.7% | 91.6hPa | 2.8V | 18:12:15 | 01:05:46 | 00:00:00 | |
| DK7TD | 2026-08-31 11:35:22 | 49.13850 | 10.16694 | 72° | 53km/h | 17119m | 5.1m/s | 0°C | 0% | 0hPa | 2.8V | 18:12:15 | 01:05:43 | 00:00:00 | |
| HSKMA3-T | 2026-08-31 11:35:14 | 49.13818 | 10.16543 | 72° | 53km/h | 17083m | 4.7m/s | -53.3°C | 0.7% | 92.3hPa | 2.6V | 18:12:15 | 01:05:35 | 00:00:00 | |
| BIOWL1-15 | 2026-08-31 11:35:13 | 49.13814 | 10.16523 | 69° | 55km/h | 17078m | 4.9m/s | 0°C | 0% | 0hPa | 2.6V | 18:12:15 | 01:05:34 | 00:00:00 | |
| DK7TD | 2026-08-31 11:35:12 | 49.13809 | 10.16504 | 67° | 57km/h | 17074m | 4m/s | 0°C | 0% | 0hPa | 2.6V | 18:12:15 | 01:05:33 | 00:00:00 | |
| OE5DRO-10 | 2026-08-31 11:35:12 | 49.13809 | 10.16503 | 68° | 57km/h | 17074m | 3.9m/s | -53.1°C | 4.1% | 92.4hPa | 2.7V | 00:00:00 | 00:00:00 | 00:00:00 | |
| NBG1-10 | 2026-08-31 11:35:11 | 49.13803 | 10.16484 | 68° | 58km/h | 17070m | 4.0m/s | -53.2°C | 4.1% | 92.4hPa | 2.7V | 00:00:00 | 01:05:32 | 00:00:00 | |
| DL1NUX | 2026-08-31 11:35:10 | 49.13789 | 10.16421 | 72° | 55km/h | 17057m | 4.2m/s | -53.4°C | 4.1% | 92.6hPa | 2.6V | 08:30:00 | 01:05:29 | 00:00:00 | |
| DF7PN | 2026-08-31 11:35:09 | 49.13789 | 10.16421 | 72° | 55km/h | 17057m | 4.2m/s | -53.4°C | 1.2% | 92.6hPa | 2.6V | 00:00:00 | 00:00:00 | 00:00:00 | |
| DF3TZ-5 | 2026-08-31 11:35:07 | 49.13785 | 10.16401 | 71° | 51km/h | 17053m | 5.1m/s | -53.4°C | 1.2% | 92.7hPa | 2.6V | 00:00:00 | 00:00:00 | 00:00:00 | |
| DO3MHA-12 | 2026-08-31 11:35:05 | 49.13777 | 10.16364 | 74° | 57km/h | 17044m | 4.6m/s | -53.5°C | 4.1% | 92.8hPa | 2.6V | 00:00:00 | 01:05:26 | 00:00:00 | |
| DL1NUX | 2026-08-31 11:35:03 | 49.13745 | 10.16230 | 69° | 64km/h | 17011m | 5.2m/s | -53.8°C | 4.2% | 93.3hPa | 2.6V | 08:30:00 | 01:05:19 | 00:00:00 | |
| HSKMA3-T | 2026-08-31 11:35:03 | 49.13770 | 10.16328 | 74° | 49km/h | 17034m | 4.1m/s | -53.7°C | 0.6% | 93hPa | 2.6V | 18:12:15 | 01:05:24 | 00:00:00 | |
| DK7TD | 2026-08-31 11:35:01 | 49.13762 | 10.16291 | 68° | 51km/h | 17025m | 4m/s | 0°C | 0% | 0hPa | 2.8V | 18:12:15 | 01:05:22 | 00:00:00 | |
| BIOWL1-15 | 2026-08-31 11:34:53 | 49.13702 | 10.16029 | 73° | 55km/h | 16972m | 4.7m/s | 0°C | 0% | 0hPa | 2.8V | 18:12:15 | 01:05:10 | 00:00:00 | |
| HSKMA3-T | 2026-08-31 11:34:52 | 49.13715 | 10.16093 | 71° | 60km/h | 16985m | 4.3m/s | -54.1°C | 0.7% | 93.7hPa | 2.6V | 18:12:15 | 01:05:13 | 00:00:00 | |
| DK7TD | 2026-08-31 11:34:50 | 49.13706 | 10.16050 | 73° | 57km/h | 16977m | 4.8m/s | 0°C | 0% | 0hPa | 2.8V | 18:12:15 | 01:05:11 | 00:00:00 | |
| DL1NUX | 2026-08-31 11:34:49 | 49.13698 | 10.16009 | 71° | 53km/h | 16968m | 4.2m/s | -54.4°C | 4.3% | 93.9hPa | 2.8V | 08:30:00 | 01:05:09 | 00:00:00 | |
| DC4HF-4 | 2026-08-31 11:34:48 | 49.13694 | 10.15989 | 72° | 55km/h | 16963m | 5.7m/s | -54.3°C | -1.0% | 94.0hPa | 2.7V | 00:00:00 | 00:00:00 | 00:00:00 | |
| AZAK | 2026-08-31 11:34:46 | 49.13694 | 10.15989 | 73° | 55km/h | 16963m | 5.7m/s | -54.3°C | 1.4% | 94.0hPa | 2.7V | 00:00:00 | 00:00:00 | 00:00:00 | |
| DO3MHA-12 | 2026-08-31 11:34:45 | 49.13684 | 10.15947 | 71° | 62km/h | 16953m | 3.7m/s | -54.4°C | 4.4% | 94.1hPa | 2.7V | 00:00:00 | 01:05:06 | 00:00:00 | |
| DL1NUX | 2026-08-31 11:34:44 | 49.13646 | 10.15790 | 69° | 64km/h | 16921m | 5m/s | -54.9°C | 4.5% | 94.6hPa | 2.6V | 08:30:00 | 01:04:59 | 00:00:00 | |
| HSKMA3-T | 2026-08-31 11:34:42 | 49.13668 | 10.15881 | 68° | 62km/h | 16939m | 4.1m/s | -54.8°C | 0.9% | 94.4hPa | 2.6V | 18:12:15 | 01:05:03 | 00:00:00 | |
| DK7TD | 2026-08-31 11:34:39 | 49.13651 | 10.15813 | 71° | 64km/h | 16926m | 3.8m/s | 0°C | 0% | 0hPa | 2.8V | 18:12:15 | 01:05:00 | 00:00:00 | |
| BIOWL1-15 | 2026-08-31 11:34:38 | 49.13646 | 10.15790 | 70° | 64km/h | 16921m | 5.1m/s | 0°C | 0% | 0hPa | 2.6V | 18:12:15 | 01:04:59 | 00:00:00 | |
| HSKMA3-T | 2026-08-31 11:34:31 | 49.13605 | 10.15621 | 69° | 68km/h | 16890m | 4.3m/s | -54.8°C | 0.9% | 95.1hPa | 2.8V | 18:12:15 | 01:04:52 | 00:00:00 | |
| DL1NUX | 2026-08-31 11:34:29 | 49.13588 | 10.15550 | 69° | 60km/h | 16877m | 5.1m/s | -54.8°C | 4.6% | 95.2hPa | 2.6V | 08:30:00 | 01:04:49 | 00:00:00 | |
| DK7TD | 2026-08-31 11:34:27 | 49.13577 | 10.15510 | 65° | 53km/h | 16868m | 4m/s | 0°C | 0% | 0hPa | 2.7V | 18:12:15 | 01:04:47 | 00:00:00 | |
| HSKMA3-T | 2026-08-31 11:34:21 | 49.13540 | 10.15382 | 67° | 71km/h | 16841m | 5.8m/s | -55.2°C | 1% | 95.8hPa | 2.6V | 18:12:15 | 01:04:41 | 00:00:00 | |
| DL1NUX | 2026-08-31 11:34:20 | 49.13526 | 10.15329 | 67° | 75km/h | 16831m | 3.7m/s | -55.2°C | 4.7% | 95.9hPa | 2.8V | 08:30:00 | 01:04:39 | 00:00:00 | |
| HSKMA3-T | 2026-08-31 11:34:10 | 49.13475 | 10.15153 | 64° | 57km/h | 16794m | 3.9m/s | -55°C | 1% | 96.5hPa | 2.8V | 18:12:15 | 01:04:31 | 00:00:00 | |
| DL1NUX | 2026-08-31 11:34:09 | 49.13462 | 10.15112 | 67° | 62km/h | 16785m | 5.2m/s | -55°C | 4.7% | 96.6hPa | 2.6V | 08:30:00 | 01:04:29 | 00:00:00 | |
| DO3MHA-11 | 2026-08-31 11:34:09 | 49.13468 | 10.15133 | 65° | 68km/h | 16790m | 4.8m/s | -55.0°C | 4.7% | 96.5hPa | 2.6V | 00:00:00 | 01:04:30 | 00:00:00 | |
| DL6DJ-15 | 2026-08-31 11:34:08 | 49.13456 | 10.15090 | 66° | 64km/h | 16780m | 4.2m/s | -55.0°C | 1.4% | 96.7hPa | 2.8V | 00:00:00 | 00:00:00 | 00:00:00 | |
| DF7PN | 2026-08-31 11:34:06 | 49.13449 | 10.15067 | 64° | 66km/h | 16776m | 5.5m/s | -55.0°C | 1.5% | 96.8hPa | 2.8V | 00:00:00 | 00:00:00 | 00:00:00 | |
| DO3MHA-12 | 2026-08-31 11:34:05 | 49.13441 | 10.15044 | 62° | 68km/h | 16770m | 5.0m/s | -54.9°C | 4.6% | 96.8hPa | 2.8V | 00:00:00 | 01:04:26 | 00:00:00 | |
| DF2AP-13 | 2026-08-31 11:34:03 | 49.13424 | 10.14997 | 61° | 60km/h | 16761m | 4.8m/s | -54.9°C | 4.6% | 97.0hPa | 2.8V | 00:00:00 | 01:04:24 | 00:00:00 | |
| DL0LBS | 2026-08-31 11:34:02 | 49.13424 | 10.14997 | 61° | 71km/h | 16761m | 4.9m/s | -55.0°C | 1.5% | 97.0hPa | 2.8V | 00:00:00 | 00:00:00 | 00:00:00 | |
| DG1MJG | 2026-08-31 11:34:01 | 49.13415 | 10.14973 | 63° | 71km/h | 16756m | 4.7m/s | -55.0°C | 1.5% | 97.1hPa | 2.8V | 00:00:00 | 00:00:00 | 00:00:00 | |
| KANTATE | 2026-08-31 11:34:00 | 49.13407 | 10.14949 | 63° | 71km/h | 16752m | 3.3m/s | -54.9°C | 1.5% | 97.2hPa | 2.8V | 00:00:00 | 00:00:00 | 00:00:00 | |
| HSKMA3-T | 2026-08-31 11:34:00 | 49.13398 | 10.14925 | 61° | 69km/h | 16748m | 4m/s | -54.9°C | 1% | 97.2hPa | 2.8V | 18:12:15 | 01:04:21 | 00:00:00 | |
| DL1NUX | 2026-08-31 11:33:59 | 49.13381 | 10.14881 | 58° | 64km/h | 16739m | 4.5m/s | -54.9°C | 4.7% | 97.3hPa | 2.8V | 08:30:00 | 01:04:19 | 00:00:00 | |
| HSKMA3-T | 2026-08-31 11:33:50 | 49.13310 | 10.14704 | 58° | 62km/h | 16695m | 5.3m/s | -54.9°C | 1% | 98hPa | 2.8V | 18:12:15 | 01:04:10 | 00:00:00 | |
| DL1NUX | 2026-08-31 11:33:49 | 49.13301 | 10.14683 | 57° | 64km/h | 16690m | 5.4m/s | -54.9°C | 4.7% | 98.1hPa | 2.6V | 08:30:00 | 01:04:09 | 00:00:00 | |
| DO3MHA-11 | 2026-08-31 11:33:49 | 49.13310 | 10.14704 | 59° | 60km/h | 16695m | 5.2m/s | -54.8°C | 4.6% | 98.0hPa | 2.7V | 00:00:00 | 01:04:10 | 00:00:00 | |
| DJTTGO | 2026-08-31 11:33:48 | 49.13301 | 10.14683 | 59° | 64km/h | 16690m | 5.4m/s | -54.9°C | 1.5% | 98.1hPa | 2.7V | 00:00:00 | 00:00:00 | 00:00:00 | |
| DO3MHA-12 | 2026-08-31 11:33:45 | 49.13275 | 10.14621 | 58° | 57km/h | 16674m | 5.9m/s | -54.7°C | 4.6% | 98.3hPa | 2.7V | 00:00:00 | 01:04:06 | 08:30:00 | |
| DL0LBS | 2026-08-31 11:33:42 | 49.13259 | 10.14582 | 58° | 58km/h | 16664m | 4.7m/s | -54.7°C | 1.5% | 98.5hPa | 2.6V | 00:00:00 | 00:00:00 | 00:00:00 | |
| DL1NUX | 2026-08-31 11:33:39 | 49.13218 | 10.14496 | 54° | 53km/h | 16638m | 4.7m/s | -54.7°C | 4.5% | 98.9hPa | 2.6V | 08:30:00 | 01:03:59 | 00:00:00 | |
| HSKMA3-T | 2026-08-31 11:33:38 | 49.13218 | 10.14496 | 54° | 53km/h | 16638m | 4.7m/s | -54.7°C | 0.9% | 98.9hPa | 2.6V | 18:12:15 | 01:03:59 | 00:00:00 | |
| DL6DJ-15 | 2026-08-31 11:33:37 | 49.13202 | 10.14463 | 51° | 53km/h | 16628m | 5.6m/s | -54.7°C | 1.5% | 99.0hPa | 2.7V | 00:00:00 | 00:00:00 | 00:00:00 | |
| DC4HF-4 | 2026-08-31 11:33:36 | 49.13194 | 10.14447 | 51° | 55km/h | 16624m | 3.5m/s | -54.7°C | -1.0% | 99.1hPa | 2.7V | 00:00:00 | 00:00:00 | 00:00:00 | |
| DO3MHA-12 | 2026-08-31 11:33:35 | 49.13194 | 10.14447 | 52° | 60km/h | 16624m | 3.5m/s | -54.7°C | 4.5% | 99.0hPa | 2.7V | 00:00:00 | 01:03:56 | 00:00:00 | |
| DF3TZ-5 | 2026-08-31 11:33:34 | 49.13185 | 10.14429 | 52° | 57km/h | 16619m | 5.7m/s | -54.8°C | 1.4% | 99.2hPa | 2.7V | 00:00:00 | 00:00:00 | 00:00:00 | |
| DF2AP-13 | 2026-08-31 11:33:33 | 49.13176 | 10.14411 | 56° | 62km/h | 16614m | 5.6m/s | -54.7°C | 4.5% | 99.2hPa | 2.7V | 00:00:00 | 01:03:54 | 00:00:00 | |
| NBG1-10 | 2026-08-31 11:33:32 | 49.13168 | 10.14392 | 57° | 62km/h | 16609m | 4.3m/s | -54.7°C | 4.6% | 99.3hPa | 2.6V | 00:00:00 | 01:03:53 | 00:00:00 | |
| Es werden nur die letzten 3500 von 4064 Frames angezeigt. GPX/KML und Diagramme bleiben verfügbar. | |||||||||||||||